<?xml version="1.0" encoding="UTF-8" standalone="no" ?>
<gpx xmlns="http://www.topografix.com/GPX/1/1" xmlns:xsi="http://www.w3.org/2001/XMLSchema-instance" xsi:schemaLocation="http://www.topografix.com/GPX/1/1 http://www.topografix.com/GPX/1/1/gpx.xsd" version="1.1" creator="VisuGPX - https://www.visugpx.com">
  <metadata>
    <name>Balade sur le plateau</name>
    <desc><![CDATA[Balade fraîche avec quelques routes légèrement enneigées.]]></desc>
  </metadata>
  <trk>
    <name><![CDATA[Morning Ride]]></name>
    <trkseg>
      <trkpt lat="46.65038" lon="5.82098">
        <ele>615.4</ele>
        <time>2020-02-28T08:52:22Z</time>
      </trkpt>
      <trkpt lat="46.65039" lon="5.82099">
        <ele>615.4</ele>
        <time>2020-02-28T08:52:32Z</time>
      </trkpt>
      <trkpt lat="46.65039" lon="5.82099">
        <ele>615.4</ele>
        <time>2020-02-28T08:52:33Z</time>
      </trkpt>
      <trkpt lat="46.65039" lon="5.82099">
        <ele>615.4</ele>
        <time>2020-02-28T08:52:34Z</time>
      </trkpt>
      <trkpt lat="46.65045" lon="5.82096">
        <ele>615.4</ele>
        <time>2020-02-28T08:53:06Z</time>
      </trkpt>
      <trkpt lat="46.65046" lon="5.82095">
        <ele>615.2</ele>
        <time>2020-02-28T08:53:07Z</time>
      </trkpt>
      <trkpt lat="46.65048" lon="5.82093">
        <ele>615.2</ele>
        <time>2020-02-28T08:53:08Z</time>
      </trkpt>
      <trkpt lat="46.6505" lon="5.82092">
        <ele>615</ele>
        <time>2020-02-28T08:53:09Z</time>
      </trkpt>
      <trkpt lat="46.65054" lon="5.82089">
        <ele>615</ele>
        <time>2020-02-28T08:53:10Z</time>
      </trkpt>
      <trkpt lat="46.65055" lon="5.82087">
        <ele>614.8</ele>
        <time>2020-02-28T08:53:11Z</time>
      </trkpt>
      <trkpt lat="46.65057" lon="5.82084">
        <ele>614.8</ele>
        <time>2020-02-28T08:53:12Z</time>
      </trkpt>
      <trkpt lat="46.6506" lon="5.82081">
        <ele>614.4</ele>
        <time>2020-02-28T08:53:13Z</time>
      </trkpt>
      <trkpt lat="46.65063" lon="5.82077">
        <ele>614.2</ele>
        <time>2020-02-28T08:53:14Z</time>
      </trkpt>
      <trkpt lat="46.65066" lon="5.82074">
        <ele>614</ele>
        <time>2020-02-28T08:53:15Z</time>
      </trkpt>
      <trkpt lat="46.6507" lon="5.8207">
        <ele>613.6</ele>
        <time>2020-02-28T08:53:16Z</time>
      </trkpt>
      <trkpt lat="46.65073" lon="5.82067">
        <ele>613.4</ele>
        <time>2020-02-28T08:53:17Z</time>
      </trkpt>
      <trkpt lat="46.65077" lon="5.82065">
        <ele>613</ele>
        <time>2020-02-28T08:53:18Z</time>
      </trkpt>
      <trkpt lat="46.65081" lon="5.82063">
        <ele>612.6</ele>
        <time>2020-02-28T08:53:19Z</time>
      </trkpt>
      <trkpt lat="46.65088" lon="5.8206">
        <ele>612.2</ele>
        <time>2020-02-28T08:53:20Z</time>
      </trkpt>
      <trkpt lat="46.6509" lon="5.82059">
        <ele>611.8</ele>
        <time>2020-02-28T08:53:21Z</time>
      </trkpt>
      <trkpt lat="46.65095" lon="5.82057">
        <ele>611.4</ele>
        <time>2020-02-28T08:53:22Z</time>
      </trkpt>
      <trkpt lat="46.65099" lon="5.82055">
        <ele>611</ele>
        <time>2020-02-28T08:53:23Z</time>
      </trkpt>
      <trkpt lat="46.65103" lon="5.82053">
        <ele>610.8</ele>
        <time>2020-02-28T08:53:24Z</time>
      </trkpt>
      <trkpt lat="46.65107" lon="5.82051">
        <ele>610.4</ele>
        <time>2020-02-28T08:53:25Z</time>
      </trkpt>
      <trkpt lat="46.65112" lon="5.82049">
        <ele>610</ele>
        <time>2020-02-28T08:53:26Z</time>
      </trkpt>
      <trkpt lat="46.65119" lon="5.82046">
        <ele>609.6</ele>
        <time>2020-02-28T08:53:27Z</time>
      </trkpt>
      <trkpt lat="46.65122" lon="5.82044">
        <ele>609.6</ele>
        <time>2020-02-28T08:53:28Z</time>
      </trkpt>
      <trkpt lat="46.65126" lon="5.82043">
        <ele>609.4</ele>
        <time>2020-02-28T08:53:29Z</time>
      </trkpt>
      <trkpt lat="46.6513" lon="5.82041">
        <ele>609.4</ele>
        <time>2020-02-28T08:53:30Z</time>
      </trkpt>
      <trkpt lat="46.65136" lon="5.82037">
        <ele>609.2</ele>
        <time>2020-02-28T08:53:31Z</time>
      </trkpt>
      <trkpt lat="46.65138" lon="5.82035">
        <ele>609.2</ele>
        <time>2020-02-28T08:53:32Z</time>
      </trkpt>
      <trkpt lat="46.65142" lon="5.82033">
        <ele>609.2</ele>
        <time>2020-02-28T08:53:33Z</time>
      </trkpt>
      <trkpt lat="46.65146" lon="5.82031">
        <ele>609.2</ele>
        <time>2020-02-28T08:53:34Z</time>
      </trkpt>
      <trkpt lat="46.6515" lon="5.82029">
        <ele>608.8</ele>
        <time>2020-02-28T08:53:35Z</time>
      </trkpt>
      <trkpt lat="46.65154" lon="5.82026">
        <ele>608.8</ele>
        <time>2020-02-28T08:53:36Z</time>
      </trkpt>
      <trkpt lat="46.65158" lon="5.82023">
        <ele>608.8</ele>
        <time>2020-02-28T08:53:37Z</time>
      </trkpt>
      <trkpt lat="46.65162" lon="5.8202">
        <ele>608.6</ele>
        <time>2020-02-28T08:53:38Z</time>
      </trkpt>
      <trkpt lat="46.65166" lon="5.82018">
        <ele>608.6</ele>
        <time>2020-02-28T08:53:39Z</time>
      </trkpt>
      <trkpt lat="46.6517" lon="5.82015">
        <ele>608.6</ele>
        <time>2020-02-28T08:53:40Z</time>
      </trkpt>
      <trkpt lat="46.65174" lon="5.82012">
        <ele>608.6</ele>
        <time>2020-02-28T08:53:41Z</time>
      </trkpt>
      <trkpt lat="46.65178" lon="5.82009">
        <ele>608.6</ele>
        <time>2020-02-28T08:53:42Z</time>
      </trkpt>
      <trkpt lat="46.65183" lon="5.82003">
        <ele>608.4</ele>
        <time>2020-02-28T08:53:43Z</time>
      </trkpt>
      <trkpt lat="46.65185" lon="5.82002">
        <ele>608.4</ele>
        <time>2020-02-28T08:53:44Z</time>
      </trkpt>
      <trkpt lat="46.65189" lon="5.81998">
        <ele>608</ele>
        <time>2020-02-28T08:53:45Z</time>
      </trkpt>
      <trkpt lat="46.65196" lon="5.81992">
        <ele>608</ele>
        <time>2020-02-28T08:53:46Z</time>
      </trkpt>
      <trkpt lat="46.65198" lon="5.8199">
        <ele>607.8</ele>
        <time>2020-02-28T08:53:47Z</time>
      </trkpt>
      <trkpt lat="46.65203" lon="5.81987">
        <ele>607.8</ele>
        <time>2020-02-28T08:53:48Z</time>
      </trkpt>
      <trkpt lat="46.65208" lon="5.81983">
        <ele>607.4</ele>
        <time>2020-02-28T08:53:49Z</time>
      </trkpt>
      <trkpt lat="46.65213" lon="5.81979">
        <ele>607.4</ele>
        <time>2020-02-28T08:53:50Z</time>
      </trkpt>
      <trkpt lat="46.65219" lon="5.81975">
        <ele>607</ele>
        <time>2020-02-28T08:53:51Z</time>
      </trkpt>
      <trkpt lat="46.65224" lon="5.81971">
        <ele>606.6</ele>
        <time>2020-02-28T08:53:52Z</time>
      </trkpt>
      <trkpt lat="46.6523" lon="5.81966">
        <ele>606.2</ele>
        <time>2020-02-28T08:53:53Z</time>
      </trkpt>
      <trkpt lat="46.65237" lon="5.81961">
        <ele>605.8</ele>
        <time>2020-02-28T08:53:54Z</time>
      </trkpt>
      <trkpt lat="46.65243" lon="5.81956">
        <ele>605.4</ele>
        <time>2020-02-28T08:53:55Z</time>
      </trkpt>
      <trkpt lat="46.6525" lon="5.8195">
        <ele>605</ele>
        <time>2020-02-28T08:53:56Z</time>
      </trkpt>
      <trkpt lat="46.65261" lon="5.81942">
        <ele>604.6</ele>
        <time>2020-02-28T08:53:57Z</time>
      </trkpt>
      <trkpt lat="46.65264" lon="5.81939">
        <ele>604</ele>
        <time>2020-02-28T08:53:58Z</time>
      </trkpt>
      <trkpt lat="46.65271" lon="5.81934">
        <ele>603.6</ele>
        <time>2020-02-28T08:53:59Z</time>
      </trkpt>
      <trkpt lat="46.65279" lon="5.81929">
        <ele>603.6</ele>
        <time>2020-02-28T08:54:00Z</time>
      </trkpt>
      <trkpt lat="46.65286" lon="5.81925">
        <ele>603.2</ele>
        <time>2020-02-28T08:54:01Z</time>
      </trkpt>
      <trkpt lat="46.65298" lon="5.81918">
        <ele>602.8</ele>
        <time>2020-02-28T08:54:02Z</time>
      </trkpt>
      <trkpt lat="46.65302" lon="5.81917">
        <ele>602.6</ele>
        <time>2020-02-28T08:54:03Z</time>
      </trkpt>
      <trkpt lat="46.6531" lon="5.81913">
        <ele>602.2</ele>
        <time>2020-02-28T08:54:04Z</time>
      </trkpt>
      <trkpt lat="46.65318" lon="5.8191">
        <ele>601.8</ele>
        <time>2020-02-28T08:54:05Z</time>
      </trkpt>
      <trkpt lat="46.65326" lon="5.81905">
        <ele>601.6</ele>
        <time>2020-02-28T08:54:06Z</time>
      </trkpt>
      <trkpt lat="46.65334" lon="5.81901">
        <ele>601.2</ele>
        <time>2020-02-28T08:54:07Z</time>
      </trkpt>
      <trkpt lat="46.65342" lon="5.81895">
        <ele>600.8</ele>
        <time>2020-02-28T08:54:08Z</time>
      </trkpt>
      <trkpt lat="46.6535" lon="5.81889">
        <ele>600.6</ele>
        <time>2020-02-28T08:54:09Z</time>
      </trkpt>
      <trkpt lat="46.65358" lon="5.81882">
        <ele>600.2</ele>
        <time>2020-02-28T08:54:10Z</time>
      </trkpt>
      <trkpt lat="46.65365" lon="5.81874">
        <ele>600</ele>
        <time>2020-02-28T08:54:11Z</time>
      </trkpt>
      <trkpt lat="46.65372" lon="5.81866">
        <ele>599.6</ele>
        <time>2020-02-28T08:54:12Z</time>
      </trkpt>
      <trkpt lat="46.65378" lon="5.81857">
        <ele>599.2</ele>
        <time>2020-02-28T08:54:13Z</time>
      </trkpt>
      <trkpt lat="46.65384" lon="5.81847">
        <ele>598.8</ele>
        <time>2020-02-28T08:54:14Z</time>
      </trkpt>
      <trkpt lat="46.65392" lon="5.81832">
        <ele>598.6</ele>
        <time>2020-02-28T08:54:15Z</time>
      </trkpt>
      <trkpt lat="46.65395" lon="5.81827">
        <ele>598.6</ele>
        <time>2020-02-28T08:54:16Z</time>
      </trkpt>
      <trkpt lat="46.654" lon="5.81816">
        <ele>598.2</ele>
        <time>2020-02-28T08:54:17Z</time>
      </trkpt>
      <trkpt lat="46.65405" lon="5.81805">
        <ele>598</ele>
        <time>2020-02-28T08:54:18Z</time>
      </trkpt>
      <trkpt lat="46.65409" lon="5.81794">
        <ele>597.6</ele>
        <time>2020-02-28T08:54:19Z</time>
      </trkpt>
      <trkpt lat="46.65414" lon="5.81782">
        <ele>597.4</ele>
        <time>2020-02-28T08:54:20Z</time>
      </trkpt>
      <trkpt lat="46.65418" lon="5.81771">
        <ele>597.2</ele>
        <time>2020-02-28T08:54:21Z</time>
      </trkpt>
      <trkpt lat="46.65423" lon="5.8176">
        <ele>596.8</ele>
        <time>2020-02-28T08:54:22Z</time>
      </trkpt>
      <trkpt lat="46.65428" lon="5.81749">
        <ele>596.6</ele>
        <time>2020-02-28T08:54:23Z</time>
      </trkpt>
      <trkpt lat="46.65432" lon="5.81737">
        <ele>596.2</ele>
        <time>2020-02-28T08:54:24Z</time>
      </trkpt>
      <trkpt lat="46.65436" lon="5.81725">
        <ele>596</ele>
        <time>2020-02-28T08:54:25Z</time>
      </trkpt>
      <trkpt lat="46.65439" lon="5.81712">
        <ele>596</ele>
        <time>2020-02-28T08:54:26Z</time>
      </trkpt>
      <trkpt lat="46.65442" lon="5.817">
        <ele>595.6</ele>
        <time>2020-02-28T08:54:27Z</time>
      </trkpt>
      <trkpt lat="46.65445" lon="5.81687">
        <ele>595.4</ele>
        <time>2020-02-28T08:54:28Z</time>
      </trkpt>
      <trkpt lat="46.65448" lon="5.81674">
        <ele>595.2</ele>
        <time>2020-02-28T08:54:29Z</time>
      </trkpt>
      <trkpt lat="46.65451" lon="5.81661">
        <ele>595.2</ele>
        <time>2020-02-28T08:54:30Z</time>
      </trkpt>
      <trkpt lat="46.65456" lon="5.8165">
        <ele>594.6</ele>
        <time>2020-02-28T08:54:31Z</time>
      </trkpt>
      <trkpt lat="46.65459" lon="5.81636">
        <ele>594.4</ele>
        <time>2020-02-28T08:54:32Z</time>
      </trkpt>
      <trkpt lat="46.65463" lon="5.81622">
        <ele>594.2</ele>
        <time>2020-02-28T08:54:33Z</time>
      </trkpt>
      <trkpt lat="46.65467" lon="5.81611">
        <ele>594</ele>
        <time>2020-02-28T08:54:34Z</time>
      </trkpt>
      <trkpt lat="46.65472" lon="5.81598">
        <ele>594</ele>
        <time>2020-02-28T08:54:35Z</time>
      </trkpt>
      <trkpt lat="46.65478" lon="5.81587">
        <ele>593.6</ele>
        <time>2020-02-28T08:54:36Z</time>
      </trkpt>
      <trkpt lat="46.65483" lon="5.81576">
        <ele>593.6</ele>
        <time>2020-02-28T08:54:37Z</time>
      </trkpt>
      <trkpt lat="46.65488" lon="5.81565">
        <ele>593.6</ele>
        <time>2020-02-28T08:54:38Z</time>
      </trkpt>
      <trkpt lat="46.65492" lon="5.81555">
        <ele>593.6</ele>
        <time>2020-02-28T08:54:39Z</time>
      </trkpt>
      <trkpt lat="46.65496" lon="5.81544">
        <ele>593.6</ele>
        <time>2020-02-28T08:54:40Z</time>
      </trkpt>
      <trkpt lat="46.65501" lon="5.81533">
        <ele>593.6</ele>
        <time>2020-02-28T08:54:41Z</time>
      </trkpt>
      <trkpt lat="46.65505" lon="5.81521">
        <ele>594</ele>
        <time>2020-02-28T08:54:42Z</time>
      </trkpt>
      <trkpt lat="46.65508" lon="5.8151">
        <ele>594</ele>
        <time>2020-02-28T08:54:43Z</time>
      </trkpt>
      <trkpt lat="46.65512" lon="5.81499">
        <ele>594.2</ele>
        <time>2020-02-28T08:54:44Z</time>
      </trkpt>
      <trkpt lat="46.65519" lon="5.81484">
        <ele>594.2</ele>
        <time>2020-02-28T08:54:45Z</time>
      </trkpt>
      <trkpt lat="46.65521" lon="5.8148">
        <ele>594.6</ele>
        <time>2020-02-28T08:54:46Z</time>
      </trkpt>
      <trkpt lat="46.65526" lon="5.81471">
        <ele>594.6</ele>
        <time>2020-02-28T08:54:47Z</time>
      </trkpt>
      <trkpt lat="46.65532" lon="5.81464">
        <ele>594.8</ele>
        <time>2020-02-28T08:54:48Z</time>
      </trkpt>
      <trkpt lat="46.65539" lon="5.81458">
        <ele>594.8</ele>
        <time>2020-02-28T08:54:49Z</time>
      </trkpt>
      <trkpt lat="46.65546" lon="5.81453">
        <ele>594.8</ele>
        <time>2020-02-28T08:54:50Z</time>
      </trkpt>
      <trkpt lat="46.65556" lon="5.81449">
        <ele>595.2</ele>
        <time>2020-02-28T08:54:51Z</time>
      </trkpt>
      <trkpt lat="46.6556" lon="5.81449">
        <ele>595.2</ele>
        <time>2020-02-28T08:54:52Z</time>
      </trkpt>
      <trkpt lat="46.65567" lon="5.81448">
        <ele>595.2</ele>
        <time>2020-02-28T08:54:53Z</time>
      </trkpt>
      <trkpt lat="46.65575" lon="5.81448">
        <ele>595.2</ele>
        <time>2020-02-28T08:54:54Z</time>
      </trkpt>
      <trkpt lat="46.65583" lon="5.81449">
        <ele>594.8</ele>
        <time>2020-02-28T08:54:55Z</time>
      </trkpt>
      <trkpt lat="46.65591" lon="5.81449">
        <ele>594.8</ele>
        <time>2020-02-28T08:54:56Z</time>
      </trkpt>
      <trkpt lat="46.65599" lon="5.81449">
        <ele>594.8</ele>
        <time>2020-02-28T08:54:57Z</time>
      </trkpt>
      <trkpt lat="46.65606" lon="5.81448">
        <ele>594.6</ele>
        <time>2020-02-28T08:54:58Z</time>
      </trkpt>
      <trkpt lat="46.65614" lon="5.81446">
        <ele>594.6</ele>
        <time>2020-02-28T08:54:59Z</time>
      </trkpt>
      <trkpt lat="46.65621" lon="5.81444">
        <ele>594.6</ele>
        <time>2020-02-28T08:55:00Z</time>
      </trkpt>
      <trkpt lat="46.65628" lon="5.81441">
        <ele>594.8</ele>
        <time>2020-02-28T08:55:01Z</time>
      </trkpt>
      <trkpt lat="46.65634" lon="5.81437">
        <ele>595</ele>
        <time>2020-02-28T08:55:02Z</time>
      </trkpt>
      <trkpt lat="46.65644" lon="5.81431">
        <ele>595.2</ele>
        <time>2020-02-28T08:55:03Z</time>
      </trkpt>
      <trkpt lat="46.65647" lon="5.81429">
        <ele>595.6</ele>
        <time>2020-02-28T08:55:04Z</time>
      </trkpt>
      <trkpt lat="46.65654" lon="5.81425">
        <ele>595.8</ele>
        <time>2020-02-28T08:55:05Z</time>
      </trkpt>
      <trkpt lat="46.6566" lon="5.81423">
        <ele>596</ele>
        <time>2020-02-28T08:55:06Z</time>
      </trkpt>
      <trkpt lat="46.65666" lon="5.8142">
        <ele>596.2</ele>
        <time>2020-02-28T08:55:07Z</time>
      </trkpt>
      <trkpt lat="46.65673" lon="5.81418">
        <ele>596.2</ele>
        <time>2020-02-28T08:55:08Z</time>
      </trkpt>
      <trkpt lat="46.65679" lon="5.81416">
        <ele>596.6</ele>
        <time>2020-02-28T08:55:09Z</time>
      </trkpt>
      <trkpt lat="46.65686" lon="5.81414">
        <ele>596.6</ele>
        <time>2020-02-28T08:55:10Z</time>
      </trkpt>
      <trkpt lat="46.65692" lon="5.81412">
        <ele>596.6</ele>
        <time>2020-02-28T08:55:11Z</time>
      </trkpt>
      <trkpt lat="46.65699" lon="5.81411">
        <ele>596.6</ele>
        <time>2020-02-28T08:55:12Z</time>
      </trkpt>
      <trkpt lat="46.65706" lon="5.81409">
        <ele>596.6</ele>
        <time>2020-02-28T08:55:13Z</time>
      </trkpt>
      <trkpt lat="46.65713" lon="5.81407">
        <ele>596.6</ele>
        <time>2020-02-28T08:55:14Z</time>
      </trkpt>
      <trkpt lat="46.6572" lon="5.81404">
        <ele>596.6</ele>
        <time>2020-02-28T08:55:15Z</time>
      </trkpt>
      <trkpt lat="46.65727" lon="5.81401">
        <ele>596.6</ele>
        <time>2020-02-28T08:55:16Z</time>
      </trkpt>
      <trkpt lat="46.65734" lon="5.814">
        <ele>596.6</ele>
        <time>2020-02-28T08:55:17Z</time>
      </trkpt>
      <trkpt lat="46.65741" lon="5.81397">
        <ele>596.6</ele>
        <time>2020-02-28T08:55:18Z</time>
      </trkpt>
      <trkpt lat="46.65748" lon="5.81395">
        <ele>596.6</ele>
        <time>2020-02-28T08:55:19Z</time>
      </trkpt>
      <trkpt lat="46.65755" lon="5.81392">
        <ele>596.6</ele>
        <time>2020-02-28T08:55:20Z</time>
      </trkpt>
      <trkpt lat="46.65765" lon="5.81389">
        <ele>596.6</ele>
        <time>2020-02-28T08:55:21Z</time>
      </trkpt>
      <trkpt lat="46.65768" lon="5.81387">
        <ele>596.6</ele>
        <time>2020-02-28T08:55:22Z</time>
      </trkpt>
      <trkpt lat="46.65775" lon="5.81385">
        <ele>596.8</ele>
        <time>2020-02-28T08:55:23Z</time>
      </trkpt>
      <trkpt lat="46.65782" lon="5.81383">
        <ele>596.8</ele>
        <time>2020-02-28T08:55:24Z</time>
      </trkpt>
      <trkpt lat="46.65789" lon="5.8138">
        <ele>596.8</ele>
        <time>2020-02-28T08:55:25Z</time>
      </trkpt>
      <trkpt lat="46.65795" lon="5.81378">
        <ele>596.8</ele>
        <time>2020-02-28T08:55:26Z</time>
      </trkpt>
      <trkpt lat="46.65802" lon="5.81375">
        <ele>596.8</ele>
        <time>2020-02-28T08:55:27Z</time>
      </trkpt>
      <trkpt lat="46.6581" lon="5.81374">
        <ele>596.8</ele>
        <time>2020-02-28T08:55:28Z</time>
      </trkpt>
      <trkpt lat="46.65817" lon="5.81372">
        <ele>596.8</ele>
        <time>2020-02-28T08:55:29Z</time>
      </trkpt>
      <trkpt lat="46.65824" lon="5.81372">
        <ele>596.8</ele>
        <time>2020-02-28T08:55:30Z</time>
      </trkpt>
      <trkpt lat="46.65831" lon="5.81371">
        <ele>596.8</ele>
        <time>2020-02-28T08:55:31Z</time>
      </trkpt>
      <trkpt lat="46.65842" lon="5.81371">
        <ele>596.8</ele>
        <time>2020-02-28T08:55:32Z</time>
      </trkpt>
      <trkpt lat="46.65846" lon="5.81371">
        <ele>596.6</ele>
        <time>2020-02-28T08:55:33Z</time>
      </trkpt>
      <trkpt lat="46.65853" lon="5.81371">
        <ele>596.6</ele>
        <time>2020-02-28T08:55:34Z</time>
      </trkpt>
      <trkpt lat="46.6586" lon="5.81371">
        <ele>596.6</ele>
        <time>2020-02-28T08:55:35Z</time>
      </trkpt>
      <trkpt lat="46.65867" lon="5.81371">
        <ele>596.6</ele>
        <time>2020-02-28T08:55:36Z</time>
      </trkpt>
      <trkpt lat="46.65874" lon="5.81371">
        <ele>596.6</ele>
        <time>2020-02-28T08:55:37Z</time>
      </trkpt>
      <trkpt lat="46.65881" lon="5.81372">
        <ele>596.6</ele>
        <time>2020-02-28T08:55:38Z</time>
      </trkpt>
      <trkpt lat="46.65888" lon="5.81373">
        <ele>596.4</ele>
        <time>2020-02-28T08:55:39Z</time>
      </trkpt>
      <trkpt lat="46.65895" lon="5.81374">
        <ele>596.4</ele>
        <time>2020-02-28T08:55:40Z</time>
      </trkpt>
      <trkpt lat="46.65906" lon="5.81375">
        <ele>596.4</ele>
        <time>2020-02-28T08:55:41Z</time>
      </trkpt>
      <trkpt lat="46.6591" lon="5.81375">
        <ele>596.4</ele>
        <time>2020-02-28T08:55:42Z</time>
      </trkpt>
      <trkpt lat="46.65917" lon="5.81375">
        <ele>596.4</ele>
        <time>2020-02-28T08:55:43Z</time>
      </trkpt>
      <trkpt lat="46.65927" lon="5.81376">
        <ele>596.2</ele>
        <time>2020-02-28T08:55:44Z</time>
      </trkpt>
      <trkpt lat="46.65931" lon="5.81376">
        <ele>596.2</ele>
        <time>2020-02-28T08:55:45Z</time>
      </trkpt>
      <trkpt lat="46.65941" lon="5.81376">
        <ele>596.2</ele>
        <time>2020-02-28T08:55:46Z</time>
      </trkpt>
      <trkpt lat="46.65945" lon="5.81376">
        <ele>596.2</ele>
        <time>2020-02-28T08:55:47Z</time>
      </trkpt>
      <trkpt lat="46.65955" lon="5.81377">
        <ele>596.2</ele>
        <time>2020-02-28T08:55:48Z</time>
      </trkpt>
      <trkpt lat="46.65959" lon="5.81377">
        <ele>595.8</ele>
        <time>2020-02-28T08:55:49Z</time>
      </trkpt>
      <trkpt lat="46.65966" lon="5.81377">
        <ele>595.6</ele>
        <time>2020-02-28T08:55:50Z</time>
      </trkpt>
      <trkpt lat="46.65976" lon="5.81378">
        <ele>595.4</ele>
        <time>2020-02-28T08:55:51Z</time>
      </trkpt>
      <trkpt lat="46.6598" lon="5.81378">
        <ele>595.2</ele>
        <time>2020-02-28T08:55:52Z</time>
      </trkpt>
      <trkpt lat="46.65987" lon="5.81379">
        <ele>594.8</ele>
        <time>2020-02-28T08:55:53Z</time>
      </trkpt>
      <trkpt lat="46.65994" lon="5.8138">
        <ele>594.4</ele>
        <time>2020-02-28T08:55:54Z</time>
      </trkpt>
      <trkpt lat="46.66" lon="5.81381">
        <ele>594.2</ele>
        <time>2020-02-28T08:55:55Z</time>
      </trkpt>
      <trkpt lat="46.66009" lon="5.81383">
        <ele>593.8</ele>
        <time>2020-02-28T08:55:56Z</time>
      </trkpt>
      <trkpt lat="46.66012" lon="5.81383">
        <ele>593.6</ele>
        <time>2020-02-28T08:55:57Z</time>
      </trkpt>
      <trkpt lat="46.66018" lon="5.81385">
        <ele>593.2</ele>
        <time>2020-02-28T08:55:58Z</time>
      </trkpt>
      <trkpt lat="46.66024" lon="5.81388">
        <ele>592.8</ele>
        <time>2020-02-28T08:55:59Z</time>
      </trkpt>
      <trkpt lat="46.66029" lon="5.81391">
        <ele>592.2</ele>
        <time>2020-02-28T08:56:00Z</time>
      </trkpt>
      <trkpt lat="46.66035" lon="5.81396">
        <ele>591.8</ele>
        <time>2020-02-28T08:56:01Z</time>
      </trkpt>
      <trkpt lat="46.6604" lon="5.81402">
        <ele>591.4</ele>
        <time>2020-02-28T08:56:02Z</time>
      </trkpt>
      <trkpt lat="46.66045" lon="5.81408">
        <ele>591.2</ele>
        <time>2020-02-28T08:56:03Z</time>
      </trkpt>
      <trkpt lat="46.66049" lon="5.81416">
        <ele>591</ele>
        <time>2020-02-28T08:56:04Z</time>
      </trkpt>
      <trkpt lat="46.66054" lon="5.8143">
        <ele>590.8</ele>
        <time>2020-02-28T08:56:05Z</time>
      </trkpt>
      <trkpt lat="46.66056" lon="5.81435">
        <ele>590.8</ele>
        <time>2020-02-28T08:56:06Z</time>
      </trkpt>
      <trkpt lat="46.66059" lon="5.81444">
        <ele>590.6</ele>
        <time>2020-02-28T08:56:07Z</time>
      </trkpt>
      <trkpt lat="46.66062" lon="5.81453">
        <ele>590.6</ele>
        <time>2020-02-28T08:56:08Z</time>
      </trkpt>
      <trkpt lat="46.66065" lon="5.81463">
        <ele>590.2</ele>
        <time>2020-02-28T08:56:09Z</time>
      </trkpt>
      <trkpt lat="46.66067" lon="5.81473">
        <ele>590.2</ele>
        <time>2020-02-28T08:56:10Z</time>
      </trkpt>
      <trkpt lat="46.6607" lon="5.81484">
        <ele>589.6</ele>
        <time>2020-02-28T08:56:11Z</time>
      </trkpt>
      <trkpt lat="46.66074" lon="5.81494">
        <ele>589.4</ele>
        <time>2020-02-28T08:56:12Z</time>
      </trkpt>
      <trkpt lat="46.66077" lon="5.81505">
        <ele>589.2</ele>
        <time>2020-02-28T08:56:13Z</time>
      </trkpt>
      <trkpt lat="46.66079" lon="5.81515">
        <ele>589</ele>
        <time>2020-02-28T08:56:14Z</time>
      </trkpt>
      <trkpt lat="46.66082" lon="5.81525">
        <ele>589</ele>
        <time>2020-02-28T08:56:15Z</time>
      </trkpt>
      <trkpt lat="46.66085" lon="5.81535">
        <ele>589</ele>
        <time>2020-02-28T08:56:16Z</time>
      </trkpt>
      <trkpt lat="46.66088" lon="5.81545">
        <ele>588.8</ele>
        <time>2020-02-28T08:56:17Z</time>
      </trkpt>
      <trkpt lat="46.66092" lon="5.81554">
        <ele>588.8</ele>
        <time>2020-02-28T08:56:18Z</time>
      </trkpt>
      <trkpt lat="46.66095" lon="5.81564">
        <ele>588.4</ele>
        <time>2020-02-28T08:56:19Z</time>
      </trkpt>
      <trkpt lat="46.66099" lon="5.81573">
        <ele>588.4</ele>
        <time>2020-02-28T08:56:20Z</time>
      </trkpt>
      <trkpt lat="46.66102" lon="5.81583">
        <ele>588.4</ele>
        <time>2020-02-28T08:56:21Z</time>
      </trkpt>
      <trkpt lat="46.66106" lon="5.81592">
        <ele>588.4</ele>
        <time>2020-02-28T08:56:22Z</time>
      </trkpt>
      <trkpt lat="46.6611" lon="5.81601">
        <ele>588.4</ele>
        <time>2020-02-28T08:56:23Z</time>
      </trkpt>
      <trkpt lat="46.66113" lon="5.81611">
        <ele>588.4</ele>
        <time>2020-02-28T08:56:24Z</time>
      </trkpt>
      <trkpt lat="46.66117" lon="5.8162">
        <ele>588.4</ele>
        <time>2020-02-28T08:56:25Z</time>
      </trkpt>
      <trkpt lat="46.6612" lon="5.81629">
        <ele>588.4</ele>
        <time>2020-02-28T08:56:26Z</time>
      </trkpt>
      <trkpt lat="46.66124" lon="5.81639">
        <ele>588.4</ele>
        <time>2020-02-28T08:56:27Z</time>
      </trkpt>
      <trkpt lat="46.66128" lon="5.81648">
        <ele>588.4</ele>
        <time>2020-02-28T08:56:28Z</time>
      </trkpt>
      <trkpt lat="46.66131" lon="5.81658">
        <ele>588.4</ele>
        <time>2020-02-28T08:56:29Z</time>
      </trkpt>
      <trkpt lat="46.66135" lon="5.81667">
        <ele>588.4</ele>
        <time>2020-02-28T08:56:30Z</time>
      </trkpt>
      <trkpt lat="46.66139" lon="5.81678">
        <ele>588.2</ele>
        <time>2020-02-28T08:56:31Z</time>
      </trkpt>
      <trkpt lat="46.66142" lon="5.81688">
        <ele>588.2</ele>
        <time>2020-02-28T08:56:32Z</time>
      </trkpt>
      <trkpt lat="46.66145" lon="5.81698">
        <ele>588.2</ele>
        <time>2020-02-28T08:56:33Z</time>
      </trkpt>
      <trkpt lat="46.66149" lon="5.81709">
        <ele>588.2</ele>
        <time>2020-02-28T08:56:34Z</time>
      </trkpt>
      <trkpt lat="46.66153" lon="5.8172">
        <ele>588.2</ele>
        <time>2020-02-28T08:56:35Z</time>
      </trkpt>
      <trkpt lat="46.66156" lon="5.81731">
        <ele>588</ele>
        <time>2020-02-28T08:56:36Z</time>
      </trkpt>
      <trkpt lat="46.66161" lon="5.81748">
        <ele>587.8</ele>
        <time>2020-02-28T08:56:37Z</time>
      </trkpt>
      <trkpt lat="46.66163" lon="5.81754">
        <ele>587.4</ele>
        <time>2020-02-28T08:56:38Z</time>
      </trkpt>
      <trkpt lat="46.66166" lon="5.81766">
        <ele>587.2</ele>
        <time>2020-02-28T08:56:39Z</time>
      </trkpt>
      <trkpt lat="46.66169" lon="5.81779">
        <ele>586.8</ele>
        <time>2020-02-28T08:56:40Z</time>
      </trkpt>
      <trkpt lat="46.66172" lon="5.81791">
        <ele>586.4</ele>
        <time>2020-02-28T08:56:41Z</time>
      </trkpt>
      <trkpt lat="46.66177" lon="5.81811">
        <ele>585.8</ele>
        <time>2020-02-28T08:56:42Z</time>
      </trkpt>
      <trkpt lat="46.66178" lon="5.81818">
        <ele>585.4</ele>
        <time>2020-02-28T08:56:43Z</time>
      </trkpt>
      <trkpt lat="46.66181" lon="5.81831">
        <ele>585</ele>
        <time>2020-02-28T08:56:44Z</time>
      </trkpt>
      <trkpt lat="46.66184" lon="5.81845">
        <ele>584.4</ele>
        <time>2020-02-28T08:56:45Z</time>
      </trkpt>
      <trkpt lat="46.66187" lon="5.81859">
        <ele>584</ele>
        <time>2020-02-28T08:56:46Z</time>
      </trkpt>
      <trkpt lat="46.66189" lon="5.81874">
        <ele>583.4</ele>
        <time>2020-02-28T08:56:47Z</time>
      </trkpt>
      <trkpt lat="46.6619" lon="5.81888">
        <ele>583</ele>
        <time>2020-02-28T08:56:48Z</time>
      </trkpt>
      <trkpt lat="46.66191" lon="5.81902">
        <ele>582.6</ele>
        <time>2020-02-28T08:56:49Z</time>
      </trkpt>
      <trkpt lat="46.66192" lon="5.81916">
        <ele>582</ele>
        <time>2020-02-28T08:56:50Z</time>
      </trkpt>
      <trkpt lat="46.66193" lon="5.8193">
        <ele>581.2</ele>
        <time>2020-02-28T08:56:51Z</time>
      </trkpt>
      <trkpt lat="46.66194" lon="5.81943">
        <ele>580.8</ele>
        <time>2020-02-28T08:56:52Z</time>
      </trkpt>
      <trkpt lat="46.66195" lon="5.81957">
        <ele>580.2</ele>
        <time>2020-02-28T08:56:53Z</time>
      </trkpt>
      <trkpt lat="46.66197" lon="5.81972">
        <ele>579.8</ele>
        <time>2020-02-28T08:56:54Z</time>
      </trkpt>
      <trkpt lat="46.66199" lon="5.81985">
        <ele>579.6</ele>
        <time>2020-02-28T08:56:55Z</time>
      </trkpt>
      <trkpt lat="46.66202" lon="5.81997">
        <ele>579.2</ele>
        <time>2020-02-28T08:56:56Z</time>
      </trkpt>
      <trkpt lat="46.66211" lon="5.82014">
        <ele>579</ele>
        <time>2020-02-28T08:56:57Z</time>
      </trkpt>
      <trkpt lat="46.66214" lon="5.82019">
        <ele>578.8</ele>
        <time>2020-02-28T08:56:58Z</time>
      </trkpt>
      <trkpt lat="46.66221" lon="5.82029">
        <ele>578.6</ele>
        <time>2020-02-28T08:56:59Z</time>
      </trkpt>
      <trkpt lat="46.66229" lon="5.82037">
        <ele>578.6</ele>
        <time>2020-02-28T08:57:00Z</time>
      </trkpt>
      <trkpt lat="46.66237" lon="5.82042">
        <ele>578</ele>
        <time>2020-02-28T08:57:01Z</time>
      </trkpt>
      <trkpt lat="46.66246" lon="5.82047">
        <ele>578</ele>
        <time>2020-02-28T08:57:02Z</time>
      </trkpt>
      <trkpt lat="46.66254" lon="5.82051">
        <ele>577.8</ele>
        <time>2020-02-28T08:57:03Z</time>
      </trkpt>
      <trkpt lat="46.66266" lon="5.8206">
        <ele>577.8</ele>
        <time>2020-02-28T08:57:04Z</time>
      </trkpt>
      <trkpt lat="46.6627" lon="5.82063">
        <ele>577.6</ele>
        <time>2020-02-28T08:57:05Z</time>
      </trkpt>
      <trkpt lat="46.66278" lon="5.82068">
        <ele>577.6</ele>
        <time>2020-02-28T08:57:06Z</time>
      </trkpt>
      <trkpt lat="46.66285" lon="5.82075">
        <ele>577.6</ele>
        <time>2020-02-28T08:57:07Z</time>
      </trkpt>
      <trkpt lat="46.66292" lon="5.82081">
        <ele>577.6</ele>
        <time>2020-02-28T08:57:08Z</time>
      </trkpt>
      <trkpt lat="46.66299" lon="5.82088">
        <ele>577.2</ele>
        <time>2020-02-28T08:57:09Z</time>
      </trkpt>
      <trkpt lat="46.66306" lon="5.82095">
        <ele>577.2</ele>
        <time>2020-02-28T08:57:10Z</time>
      </trkpt>
      <trkpt lat="46.66312" lon="5.82101">
        <ele>577.2</ele>
        <time>2020-02-28T08:57:11Z</time>
      </trkpt>
      <trkpt lat="46.66317" lon="5.82108">
        <ele>577.6</ele>
        <time>2020-02-28T08:57:12Z</time>
      </trkpt>
      <trkpt lat="46.66322" lon="5.82116">
        <ele>577.6</ele>
        <time>2020-02-28T08:57:13Z</time>
      </trkpt>
      <trkpt lat="46.66327" lon="5.82123">
        <ele>577.8</ele>
        <time>2020-02-28T08:57:14Z</time>
      </trkpt>
      <trkpt lat="46.66333" lon="5.82135">
        <ele>577.8</ele>
        <time>2020-02-28T08:57:15Z</time>
      </trkpt>
      <trkpt lat="46.66335" lon="5.82139">
        <ele>578</ele>
        <time>2020-02-28T08:57:16Z</time>
      </trkpt>
      <trkpt lat="46.6634" lon="5.82151">
        <ele>578.2</ele>
        <time>2020-02-28T08:57:17Z</time>
      </trkpt>
      <trkpt lat="46.66342" lon="5.82155">
        <ele>578.2</ele>
        <time>2020-02-28T08:57:18Z</time>
      </trkpt>
      <trkpt lat="46.66346" lon="5.82163">
        <ele>578.6</ele>
        <time>2020-02-28T08:57:19Z</time>
      </trkpt>
      <trkpt lat="46.66349" lon="5.82172">
        <ele>578.6</ele>
        <time>2020-02-28T08:57:20Z</time>
      </trkpt>
      <trkpt lat="46.66352" lon="5.8218">
        <ele>578.8</ele>
        <time>2020-02-28T08:57:21Z</time>
      </trkpt>
      <trkpt lat="46.66356" lon="5.82189">
        <ele>578.8</ele>
        <time>2020-02-28T08:57:22Z</time>
      </trkpt>
      <trkpt lat="46.66358" lon="5.82198">
        <ele>579.2</ele>
        <time>2020-02-28T08:57:23Z</time>
      </trkpt>
      <trkpt lat="46.66361" lon="5.82207">
        <ele>579.4</ele>
        <time>2020-02-28T08:57:24Z</time>
      </trkpt>
      <trkpt lat="46.66364" lon="5.82216">
        <ele>579.4</ele>
        <time>2020-02-28T08:57:25Z</time>
      </trkpt>
      <trkpt lat="46.66366" lon="5.82226">
        <ele>579.6</ele>
        <time>2020-02-28T08:57:26Z</time>
      </trkpt>
      <trkpt lat="46.66368" lon="5.8224">
        <ele>579.6</ele>
        <time>2020-02-28T08:57:27Z</time>
      </trkpt>
      <trkpt lat="46.66369" lon="5.82245">
        <ele>580</ele>
        <time>2020-02-28T08:57:28Z</time>
      </trkpt>
      <trkpt lat="46.66369" lon="5.82254">
        <ele>580</ele>
        <time>2020-02-28T08:57:29Z</time>
      </trkpt>
      <trkpt lat="46.6637" lon="5.82269">
        <ele>580</ele>
        <time>2020-02-28T08:57:30Z</time>
      </trkpt>
      <trkpt lat="46.66369" lon="5.82274">
        <ele>580.4</ele>
        <time>2020-02-28T08:57:31Z</time>
      </trkpt>
      <trkpt lat="46.66369" lon="5.82285">
        <ele>580.4</ele>
        <time>2020-02-28T08:57:32Z</time>
      </trkpt>
      <trkpt lat="46.66369" lon="5.82295">
        <ele>580.4</ele>
        <time>2020-02-28T08:57:33Z</time>
      </trkpt>
      <trkpt lat="46.66368" lon="5.82306">
        <ele>580</ele>
        <time>2020-02-28T08:57:34Z</time>
      </trkpt>
      <trkpt lat="46.66368" lon="5.82317">
        <ele>580</ele>
        <time>2020-02-28T08:57:35Z</time>
      </trkpt>
      <trkpt lat="46.66367" lon="5.82328">
        <ele>579.8</ele>
        <time>2020-02-28T08:57:36Z</time>
      </trkpt>
      <trkpt lat="46.66367" lon="5.82339">
        <ele>579.8</ele>
        <time>2020-02-28T08:57:37Z</time>
      </trkpt>
      <trkpt lat="46.66367" lon="5.8235">
        <ele>579.8</ele>
        <time>2020-02-28T08:57:38Z</time>
      </trkpt>
      <trkpt lat="46.66367" lon="5.82361">
        <ele>579.8</ele>
        <time>2020-02-28T08:57:39Z</time>
      </trkpt>
      <trkpt lat="46.66367" lon="5.82372">
        <ele>579.6</ele>
        <time>2020-02-28T08:57:40Z</time>
      </trkpt>
      <trkpt lat="46.66367" lon="5.82383">
        <ele>579.6</ele>
        <time>2020-02-28T08:57:41Z</time>
      </trkpt>
      <trkpt lat="46.66367" lon="5.82394">
        <ele>579.2</ele>
        <time>2020-02-28T08:57:42Z</time>
      </trkpt>
      <trkpt lat="46.66367" lon="5.82405">
        <ele>579.2</ele>
        <time>2020-02-28T08:57:43Z</time>
      </trkpt>
      <trkpt lat="46.66367" lon="5.82416">
        <ele>579</ele>
        <time>2020-02-28T08:57:44Z</time>
      </trkpt>
      <trkpt lat="46.66367" lon="5.82428">
        <ele>578.8</ele>
        <time>2020-02-28T08:57:45Z</time>
      </trkpt>
      <trkpt lat="46.66367" lon="5.82439">
        <ele>578.8</ele>
        <time>2020-02-28T08:57:46Z</time>
      </trkpt>
      <trkpt lat="46.66367" lon="5.82455">
        <ele>578.8</ele>
        <time>2020-02-28T08:57:47Z</time>
      </trkpt>
      <trkpt lat="46.66367" lon="5.82461">
        <ele>578.8</ele>
        <time>2020-02-28T08:57:48Z</time>
      </trkpt>
      <trkpt lat="46.66367" lon="5.82477">
        <ele>578.6</ele>
        <time>2020-02-28T08:57:49Z</time>
      </trkpt>
      <trkpt lat="46.66366" lon="5.82483">
        <ele>578.6</ele>
        <time>2020-02-28T08:57:50Z</time>
      </trkpt>
      <trkpt lat="46.66366" lon="5.82494">
        <ele>578.6</ele>
        <time>2020-02-28T08:57:51Z</time>
      </trkpt>
      <trkpt lat="46.66364" lon="5.82511">
        <ele>578.2</ele>
        <time>2020-02-28T08:57:52Z</time>
      </trkpt>
      <trkpt lat="46.66363" lon="5.82516">
        <ele>578.2</ele>
        <time>2020-02-28T08:57:53Z</time>
      </trkpt>
      <trkpt lat="46.66361" lon="5.82527">
        <ele>578</ele>
        <time>2020-02-28T08:57:54Z</time>
      </trkpt>
      <trkpt lat="46.6636" lon="5.82538">
        <ele>578</ele>
        <time>2020-02-28T08:57:55Z</time>
      </trkpt>
      <trkpt lat="46.66359" lon="5.82548">
        <ele>577.8</ele>
        <time>2020-02-28T08:57:56Z</time>
      </trkpt>
      <trkpt lat="46.66357" lon="5.82558">
        <ele>577.8</ele>
        <time>2020-02-28T08:57:57Z</time>
      </trkpt>
      <trkpt lat="46.66357" lon="5.82564">
        <ele>577.8</ele>
        <time>2020-02-28T08:57:58Z</time>
      </trkpt>
      <trkpt lat="46.66356" lon="5.82571">
        <ele>577.8</ele>
        <time>2020-02-28T08:57:59Z</time>
      </trkpt>
      <trkpt lat="46.66355" lon="5.82584">
        <ele>577.6</ele>
        <time>2020-02-28T08:58:00Z</time>
      </trkpt>
      <trkpt lat="46.66354" lon="5.82595">
        <ele>577.6</ele>
        <time>2020-02-28T08:58:01Z</time>
      </trkpt>
      <trkpt lat="46.66354" lon="5.82599">
        <ele>577.6</ele>
        <time>2020-02-28T08:58:02Z</time>
      </trkpt>
      <trkpt lat="46.66354" lon="5.82606">
        <ele>577.6</ele>
        <time>2020-02-28T08:58:03Z</time>
      </trkpt>
      <trkpt lat="46.66355" lon="5.82612">
        <ele>577.6</ele>
        <time>2020-02-28T08:58:04Z</time>
      </trkpt>
      <trkpt lat="46.66355" lon="5.82617">
        <ele>577.6</ele>
        <time>2020-02-28T08:58:05Z</time>
      </trkpt>
      <trkpt lat="46.66357" lon="5.82622">
        <ele>577.8</ele>
        <time>2020-02-28T08:58:06Z</time>
      </trkpt>
      <trkpt lat="46.66357" lon="5.82624">
        <ele>577.8</ele>
        <time>2020-02-28T08:58:07Z</time>
      </trkpt>
      <trkpt lat="46.6636" lon="5.82627">
        <ele>577.8</ele>
        <time>2020-02-28T08:58:08Z</time>
      </trkpt>
      <trkpt lat="46.66362" lon="5.82628">
        <ele>578</ele>
        <time>2020-02-28T08:58:09Z</time>
      </trkpt>
      <trkpt lat="46.66365" lon="5.82627">
        <ele>578</ele>
        <time>2020-02-28T08:58:10Z</time>
      </trkpt>
      <trkpt lat="46.66367" lon="5.82626">
        <ele>578.4</ele>
        <time>2020-02-28T08:58:11Z</time>
      </trkpt>
      <trkpt lat="46.66369" lon="5.82624">
        <ele>578.4</ele>
        <time>2020-02-28T08:58:12Z</time>
      </trkpt>
      <trkpt lat="46.66371" lon="5.82621">
        <ele>578.4</ele>
        <time>2020-02-28T08:58:13Z</time>
      </trkpt>
      <trkpt lat="46.66373" lon="5.82618">
        <ele>578.6</ele>
        <time>2020-02-28T08:58:14Z</time>
      </trkpt>
      <trkpt lat="46.66375" lon="5.82614">
        <ele>578.6</ele>
        <time>2020-02-28T08:58:15Z</time>
      </trkpt>
      <trkpt lat="46.66377" lon="5.82611">
        <ele>578.6</ele>
        <time>2020-02-28T08:58:16Z</time>
      </trkpt>
      <trkpt lat="46.66378" lon="5.82607">
        <ele>579</ele>
        <time>2020-02-28T08:58:17Z</time>
      </trkpt>
      <trkpt lat="46.6638" lon="5.82603">
        <ele>579</ele>
        <time>2020-02-28T08:58:18Z</time>
      </trkpt>
      <trkpt lat="46.66383" lon="5.82599">
        <ele>579.2</ele>
        <time>2020-02-28T08:58:19Z</time>
      </trkpt>
      <trkpt lat="46.66386" lon="5.82595">
        <ele>579.2</ele>
        <time>2020-02-28T08:58:20Z</time>
      </trkpt>
      <trkpt lat="46.66391" lon="5.82589">
        <ele>579.4</ele>
        <time>2020-02-28T08:58:21Z</time>
      </trkpt>
      <trkpt lat="46.66393" lon="5.82588">
        <ele>579.4</ele>
        <time>2020-02-28T08:58:22Z</time>
      </trkpt>
      <trkpt lat="46.66399" lon="5.82584">
        <ele>579.8</ele>
        <time>2020-02-28T08:58:23Z</time>
      </trkpt>
      <trkpt lat="46.66401" lon="5.82583">
        <ele>580</ele>
        <time>2020-02-28T08:58:24Z</time>
      </trkpt>
      <trkpt lat="46.66406" lon="5.82581">
        <ele>580</ele>
        <time>2020-02-28T08:58:25Z</time>
      </trkpt>
      <trkpt lat="46.6641" lon="5.82579">
        <ele>580.4</ele>
        <time>2020-02-28T08:58:26Z</time>
      </trkpt>
      <trkpt lat="46.66416" lon="5.82577">
        <ele>580.8</ele>
        <time>2020-02-28T08:58:27Z</time>
      </trkpt>
      <trkpt lat="46.66418" lon="5.82577">
        <ele>581</ele>
        <time>2020-02-28T08:58:28Z</time>
      </trkpt>
      <trkpt lat="46.66424" lon="5.82576">
        <ele>581.2</ele>
        <time>2020-02-28T08:58:29Z</time>
      </trkpt>
      <trkpt lat="46.66426" lon="5.82576">
        <ele>581.6</ele>
        <time>2020-02-28T08:58:30Z</time>
      </trkpt>
      <trkpt lat="46.6643" lon="5.82576">
        <ele>581.8</ele>
        <time>2020-02-28T08:58:31Z</time>
      </trkpt>
      <trkpt lat="46.66435" lon="5.82575">
        <ele>581.8</ele>
        <time>2020-02-28T08:58:32Z</time>
      </trkpt>
      <trkpt lat="46.6644" lon="5.82575">
        <ele>582.2</ele>
        <time>2020-02-28T08:58:33Z</time>
      </trkpt>
      <trkpt lat="46.66444" lon="5.82574">
        <ele>582.2</ele>
        <time>2020-02-28T08:58:34Z</time>
      </trkpt>
      <trkpt lat="46.66449" lon="5.82573">
        <ele>582.6</ele>
        <time>2020-02-28T08:58:35Z</time>
      </trkpt>
      <trkpt lat="46.66454" lon="5.82573">
        <ele>582.6</ele>
        <time>2020-02-28T08:58:36Z</time>
      </trkpt>
      <trkpt lat="46.66459" lon="5.82572">
        <ele>582.8</ele>
        <time>2020-02-28T08:58:37Z</time>
      </trkpt>
      <trkpt lat="46.66464" lon="5.82572">
        <ele>582.8</ele>
        <time>2020-02-28T08:58:38Z</time>
      </trkpt>
      <trkpt lat="46.66471" lon="5.8257">
        <ele>583.2</ele>
        <time>2020-02-28T08:58:39Z</time>
      </trkpt>
      <trkpt lat="46.66474" lon="5.8257">
        <ele>583.2</ele>
        <time>2020-02-28T08:58:40Z</time>
      </trkpt>
      <trkpt lat="46.66479" lon="5.82568">
        <ele>583.4</ele>
        <time>2020-02-28T08:58:41Z</time>
      </trkpt>
      <trkpt lat="46.66483" lon="5.82567">
        <ele>583.4</ele>
        <time>2020-02-28T08:58:42Z</time>
      </trkpt>
      <trkpt lat="46.66488" lon="5.82565">
        <ele>583.8</ele>
        <time>2020-02-28T08:58:43Z</time>
      </trkpt>
      <trkpt lat="46.66495" lon="5.82562">
        <ele>584</ele>
        <time>2020-02-28T08:58:44Z</time>
      </trkpt>
      <trkpt lat="46.66497" lon="5.82561">
        <ele>584.2</ele>
        <time>2020-02-28T08:58:45Z</time>
      </trkpt>
      <trkpt lat="46.66504" lon="5.82558">
        <ele>584.2</ele>
        <time>2020-02-28T08:58:46Z</time>
      </trkpt>
      <trkpt lat="46.66506" lon="5.82557">
        <ele>584.6</ele>
        <time>2020-02-28T08:58:47Z</time>
      </trkpt>
      <trkpt lat="46.66511" lon="5.82555">
        <ele>584.6</ele>
        <time>2020-02-28T08:58:48Z</time>
      </trkpt>
      <trkpt lat="46.66515" lon="5.82553">
        <ele>584.8</ele>
        <time>2020-02-28T08:58:49Z</time>
      </trkpt>
      <trkpt lat="46.66522" lon="5.82549">
        <ele>584.8</ele>
        <time>2020-02-28T08:58:50Z</time>
      </trkpt>
      <trkpt lat="46.66524" lon="5.82548">
        <ele>585.2</ele>
        <time>2020-02-28T08:58:51Z</time>
      </trkpt>
      <trkpt lat="46.66528" lon="5.82544">
        <ele>585.2</ele>
        <time>2020-02-28T08:58:52Z</time>
      </trkpt>
      <trkpt lat="46.66533" lon="5.82541">
        <ele>585.6</ele>
        <time>2020-02-28T08:58:53Z</time>
      </trkpt>
      <trkpt lat="46.66537" lon="5.82538">
        <ele>585.6</ele>
        <time>2020-02-28T08:58:54Z</time>
      </trkpt>
      <trkpt lat="46.66541" lon="5.82534">
        <ele>585.8</ele>
        <time>2020-02-28T08:58:55Z</time>
      </trkpt>
      <trkpt lat="46.66547" lon="5.82528">
        <ele>585.8</ele>
        <time>2020-02-28T08:58:56Z</time>
      </trkpt>
      <trkpt lat="46.66549" lon="5.82526">
        <ele>586.2</ele>
        <time>2020-02-28T08:58:57Z</time>
      </trkpt>
      <trkpt lat="46.66555" lon="5.8252">
        <ele>586.2</ele>
        <time>2020-02-28T08:58:58Z</time>
      </trkpt>
      <trkpt lat="46.66557" lon="5.82519">
        <ele>586.6</ele>
        <time>2020-02-28T08:58:59Z</time>
      </trkpt>
      <trkpt lat="46.6656" lon="5.82515">
        <ele>586.8</ele>
        <time>2020-02-28T08:59:00Z</time>
      </trkpt>
      <trkpt lat="46.66564" lon="5.82512">
        <ele>587</ele>
        <time>2020-02-28T08:59:01Z</time>
      </trkpt>
      <trkpt lat="46.6657" lon="5.82509">
        <ele>587.2</ele>
        <time>2020-02-28T08:59:02Z</time>
      </trkpt>
      <trkpt lat="46.66572" lon="5.82508">
        <ele>587.2</ele>
        <time>2020-02-28T08:59:03Z</time>
      </trkpt>
      <trkpt lat="46.66576" lon="5.82505">
        <ele>587.6</ele>
        <time>2020-02-28T08:59:04Z</time>
      </trkpt>
      <trkpt lat="46.6658" lon="5.82503">
        <ele>587.6</ele>
        <time>2020-02-28T08:59:05Z</time>
      </trkpt>
      <trkpt lat="46.66585" lon="5.825">
        <ele>587.6</ele>
        <time>2020-02-28T08:59:06Z</time>
      </trkpt>
      <trkpt lat="46.66589" lon="5.82498">
        <ele>587.6</ele>
        <time>2020-02-28T08:59:07Z</time>
      </trkpt>
      <trkpt lat="46.66597" lon="5.82496">
        <ele>587.6</ele>
        <time>2020-02-28T08:59:08Z</time>
      </trkpt>
      <trkpt lat="46.66599" lon="5.82495">
        <ele>587.6</ele>
        <time>2020-02-28T08:59:09Z</time>
      </trkpt>
      <trkpt lat="46.66604" lon="5.82492">
        <ele>587.6</ele>
        <time>2020-02-28T08:59:10Z</time>
      </trkpt>
      <trkpt lat="46.66609" lon="5.8249">
        <ele>587.6</ele>
        <time>2020-02-28T08:59:11Z</time>
      </trkpt>
      <trkpt lat="46.66615" lon="5.82486">
        <ele>587.4</ele>
        <time>2020-02-28T08:59:12Z</time>
      </trkpt>
      <trkpt lat="46.6662" lon="5.82482">
        <ele>587.4</ele>
        <time>2020-02-28T08:59:13Z</time>
      </trkpt>
      <trkpt lat="46.66626" lon="5.82478">
        <ele>587</ele>
        <time>2020-02-28T08:59:14Z</time>
      </trkpt>
      <trkpt lat="46.66631" lon="5.82473">
        <ele>586.8</ele>
        <time>2020-02-28T08:59:15Z</time>
      </trkpt>
      <trkpt lat="46.66637" lon="5.82467">
        <ele>586.6</ele>
        <time>2020-02-28T08:59:16Z</time>
      </trkpt>
      <trkpt lat="46.66643" lon="5.82461">
        <ele>586.6</ele>
        <time>2020-02-28T08:59:17Z</time>
      </trkpt>
      <trkpt lat="46.66648" lon="5.82455">
        <ele>586.4</ele>
        <time>2020-02-28T08:59:18Z</time>
      </trkpt>
      <trkpt lat="46.66654" lon="5.82449">
        <ele>586.4</ele>
        <time>2020-02-28T08:59:19Z</time>
      </trkpt>
      <trkpt lat="46.66659" lon="5.82442">
        <ele>586</ele>
        <time>2020-02-28T08:59:20Z</time>
      </trkpt>
      <trkpt lat="46.66665" lon="5.82436">
        <ele>586</ele>
        <time>2020-02-28T08:59:21Z</time>
      </trkpt>
      <trkpt lat="46.66674" lon="5.82426">
        <ele>585.8</ele>
        <time>2020-02-28T08:59:22Z</time>
      </trkpt>
      <trkpt lat="46.66677" lon="5.82423">
        <ele>585.8</ele>
        <time>2020-02-28T08:59:23Z</time>
      </trkpt>
      <trkpt lat="46.66682" lon="5.82417">
        <ele>585.4</ele>
        <time>2020-02-28T08:59:24Z</time>
      </trkpt>
      <trkpt lat="46.66688" lon="5.8241">
        <ele>585.4</ele>
        <time>2020-02-28T08:59:25Z</time>
      </trkpt>
      <trkpt lat="46.66694" lon="5.82404">
        <ele>585.2</ele>
        <time>2020-02-28T08:59:26Z</time>
      </trkpt>
      <trkpt lat="46.66703" lon="5.82393">
        <ele>585</ele>
        <time>2020-02-28T08:59:27Z</time>
      </trkpt>
      <trkpt lat="46.66706" lon="5.8239">
        <ele>584.6</ele>
        <time>2020-02-28T08:59:28Z</time>
      </trkpt>
      <trkpt lat="46.66712" lon="5.82383">
        <ele>584.6</ele>
        <time>2020-02-28T08:59:29Z</time>
      </trkpt>
      <trkpt lat="46.66718" lon="5.82377">
        <ele>584.4</ele>
        <time>2020-02-28T08:59:30Z</time>
      </trkpt>
      <trkpt lat="46.66727" lon="5.82367">
        <ele>584.4</ele>
        <time>2020-02-28T08:59:31Z</time>
      </trkpt>
      <trkpt lat="46.6673" lon="5.82365">
        <ele>584.4</ele>
        <time>2020-02-28T08:59:32Z</time>
      </trkpt>
      <trkpt lat="46.66736" lon="5.82359">
        <ele>584.4</ele>
        <time>2020-02-28T08:59:33Z</time>
      </trkpt>
      <trkpt lat="46.66743" lon="5.82353">
        <ele>584.4</ele>
        <time>2020-02-28T08:59:34Z</time>
      </trkpt>
      <trkpt lat="46.66749" lon="5.82347">
        <ele>584.4</ele>
        <time>2020-02-28T08:59:35Z</time>
      </trkpt>
      <trkpt lat="46.66754" lon="5.82341">
        <ele>584.4</ele>
        <time>2020-02-28T08:59:36Z</time>
      </trkpt>
      <trkpt lat="46.6676" lon="5.82335">
        <ele>584.4</ele>
        <time>2020-02-28T08:59:37Z</time>
      </trkpt>
      <trkpt lat="46.66765" lon="5.82328">
        <ele>584.8</ele>
        <time>2020-02-28T08:59:38Z</time>
      </trkpt>
      <trkpt lat="46.66769" lon="5.82321">
        <ele>584.8</ele>
        <time>2020-02-28T08:59:39Z</time>
      </trkpt>
      <trkpt lat="46.66774" lon="5.82314">
        <ele>585.2</ele>
        <time>2020-02-28T08:59:40Z</time>
      </trkpt>
      <trkpt lat="46.66778" lon="5.82307">
        <ele>585.2</ele>
        <time>2020-02-28T08:59:41Z</time>
      </trkpt>
      <trkpt lat="46.66784" lon="5.82302">
        <ele>585.6</ele>
        <time>2020-02-28T08:59:42Z</time>
      </trkpt>
      <trkpt lat="46.66789" lon="5.82297">
        <ele>585.6</ele>
        <time>2020-02-28T08:59:43Z</time>
      </trkpt>
      <trkpt lat="46.66798" lon="5.82291">
        <ele>585.6</ele>
        <time>2020-02-28T08:59:44Z</time>
      </trkpt>
      <trkpt lat="46.66801" lon="5.82289">
        <ele>585.8</ele>
        <time>2020-02-28T08:59:45Z</time>
      </trkpt>
      <trkpt lat="46.66807" lon="5.82285">
        <ele>585.8</ele>
        <time>2020-02-28T08:59:46Z</time>
      </trkpt>
      <trkpt lat="46.66813" lon="5.8228">
        <ele>585.8</ele>
        <time>2020-02-28T08:59:47Z</time>
      </trkpt>
      <trkpt lat="46.66818" lon="5.82276">
        <ele>585.8</ele>
        <time>2020-02-28T08:59:48Z</time>
      </trkpt>
      <trkpt lat="46.66826" lon="5.82269">
        <ele>586.2</ele>
        <time>2020-02-28T08:59:49Z</time>
      </trkpt>
      <trkpt lat="46.66828" lon="5.82266">
        <ele>586.2</ele>
        <time>2020-02-28T08:59:50Z</time>
      </trkpt>
      <trkpt lat="46.66833" lon="5.82261">
        <ele>586.6</ele>
        <time>2020-02-28T08:59:51Z</time>
      </trkpt>
      <trkpt lat="46.66837" lon="5.82256">
        <ele>586.8</ele>
        <time>2020-02-28T08:59:52Z</time>
      </trkpt>
      <trkpt lat="46.66842" lon="5.82252">
        <ele>586.8</ele>
        <time>2020-02-28T08:59:53Z</time>
      </trkpt>
      <trkpt lat="46.66847" lon="5.82248">
        <ele>587.2</ele>
        <time>2020-02-28T08:59:54Z</time>
      </trkpt>
      <trkpt lat="46.66854" lon="5.82244">
        <ele>587.6</ele>
        <time>2020-02-28T08:59:55Z</time>
      </trkpt>
      <trkpt lat="46.66857" lon="5.82243">
        <ele>587.8</ele>
        <time>2020-02-28T08:59:56Z</time>
      </trkpt>
      <trkpt lat="46.66862" lon="5.82242">
        <ele>588</ele>
        <time>2020-02-28T08:59:57Z</time>
      </trkpt>
      <trkpt lat="46.66867" lon="5.82242">
        <ele>588.4</ele>
        <time>2020-02-28T08:59:58Z</time>
      </trkpt>
      <trkpt lat="46.66872" lon="5.82243">
        <ele>588.6</ele>
        <time>2020-02-28T08:59:59Z</time>
      </trkpt>
      <trkpt lat="46.66877" lon="5.82244">
        <ele>588.8</ele>
        <time>2020-02-28T09:00:00Z</time>
      </trkpt>
      <trkpt lat="46.66882" lon="5.82246">
        <ele>589</ele>
        <time>2020-02-28T09:00:01Z</time>
      </trkpt>
      <trkpt lat="46.66886" lon="5.82248">
        <ele>589.2</ele>
        <time>2020-02-28T09:00:02Z</time>
      </trkpt>
      <trkpt lat="46.66891" lon="5.82249">
        <ele>589.4</ele>
        <time>2020-02-28T09:00:03Z</time>
      </trkpt>
      <trkpt lat="46.66895" lon="5.82251">
        <ele>589.8</ele>
        <time>2020-02-28T09:00:04Z</time>
      </trkpt>
      <trkpt lat="46.66899" lon="5.82254">
        <ele>590</ele>
        <time>2020-02-28T09:00:05Z</time>
      </trkpt>
      <trkpt lat="46.66906" lon="5.82258">
        <ele>590</ele>
        <time>2020-02-28T09:00:06Z</time>
      </trkpt>
      <trkpt lat="46.66908" lon="5.8226">
        <ele>590.4</ele>
        <time>2020-02-28T09:00:07Z</time>
      </trkpt>
      <trkpt lat="46.66913" lon="5.82263">
        <ele>590.6</ele>
        <time>2020-02-28T09:00:08Z</time>
      </trkpt>
      <trkpt lat="46.66918" lon="5.82267">
        <ele>590.6</ele>
        <time>2020-02-28T09:00:09Z</time>
      </trkpt>
      <trkpt lat="46.66922" lon="5.82271">
        <ele>591</ele>
        <time>2020-02-28T09:00:10Z</time>
      </trkpt>
      <trkpt lat="46.66927" lon="5.82275">
        <ele>591</ele>
        <time>2020-02-28T09:00:11Z</time>
      </trkpt>
      <trkpt lat="46.66933" lon="5.82281">
        <ele>591.4</ele>
        <time>2020-02-28T09:00:12Z</time>
      </trkpt>
      <trkpt lat="46.66935" lon="5.82283">
        <ele>591.4</ele>
        <time>2020-02-28T09:00:13Z</time>
      </trkpt>
      <trkpt lat="46.66941" lon="5.82289">
        <ele>591.8</ele>
        <time>2020-02-28T09:00:14Z</time>
      </trkpt>
      <trkpt lat="46.66943" lon="5.82292">
        <ele>591.8</ele>
        <time>2020-02-28T09:00:15Z</time>
      </trkpt>
      <trkpt lat="46.66947" lon="5.82296">
        <ele>592.2</ele>
        <time>2020-02-28T09:00:16Z</time>
      </trkpt>
      <trkpt lat="46.66951" lon="5.82301">
        <ele>592.2</ele>
        <time>2020-02-28T09:00:17Z</time>
      </trkpt>
      <trkpt lat="46.66955" lon="5.82305">
        <ele>592.4</ele>
        <time>2020-02-28T09:00:18Z</time>
      </trkpt>
      <trkpt lat="46.66959" lon="5.8231">
        <ele>592.4</ele>
        <time>2020-02-28T09:00:19Z</time>
      </trkpt>
      <trkpt lat="46.66966" lon="5.82318">
        <ele>592.4</ele>
        <time>2020-02-28T09:00:20Z</time>
      </trkpt>
      <trkpt lat="46.66968" lon="5.82321">
        <ele>592.4</ele>
        <time>2020-02-28T09:00:21Z</time>
      </trkpt>
      <trkpt lat="46.66973" lon="5.82326">
        <ele>592.4</ele>
        <time>2020-02-28T09:00:22Z</time>
      </trkpt>
      <trkpt lat="46.66978" lon="5.82331">
        <ele>592</ele>
        <time>2020-02-28T09:00:23Z</time>
      </trkpt>
      <trkpt lat="46.66985" lon="5.8234">
        <ele>591.8</ele>
        <time>2020-02-28T09:00:24Z</time>
      </trkpt>
      <trkpt lat="46.66988" lon="5.82343">
        <ele>591.6</ele>
        <time>2020-02-28T09:00:25Z</time>
      </trkpt>
      <trkpt lat="46.66992" lon="5.82348">
        <ele>591.4</ele>
        <time>2020-02-28T09:00:26Z</time>
      </trkpt>
      <trkpt lat="46.66997" lon="5.82354">
        <ele>591.4</ele>
        <time>2020-02-28T09:00:27Z</time>
      </trkpt>
      <trkpt lat="46.67001" lon="5.8236">
        <ele>591</ele>
        <time>2020-02-28T09:00:28Z</time>
      </trkpt>
      <trkpt lat="46.67005" lon="5.82366">
        <ele>591</ele>
        <time>2020-02-28T09:00:29Z</time>
      </trkpt>
      <trkpt lat="46.67009" lon="5.82372">
        <ele>590.8</ele>
        <time>2020-02-28T09:00:30Z</time>
      </trkpt>
      <trkpt lat="46.67014" lon="5.82378">
        <ele>590.8</ele>
        <time>2020-02-28T09:00:31Z</time>
      </trkpt>
      <trkpt lat="46.67019" lon="5.82383">
        <ele>590.4</ele>
        <time>2020-02-28T09:00:32Z</time>
      </trkpt>
      <trkpt lat="46.67025" lon="5.82388">
        <ele>590.4</ele>
        <time>2020-02-28T09:00:33Z</time>
      </trkpt>
      <trkpt lat="46.67031" lon="5.82391">
        <ele>590.2</ele>
        <time>2020-02-28T09:00:34Z</time>
      </trkpt>
      <trkpt lat="46.6704" lon="5.82393">
        <ele>590.2</ele>
        <time>2020-02-28T09:00:35Z</time>
      </trkpt>
      <trkpt lat="46.67044" lon="5.82393">
        <ele>589.8</ele>
        <time>2020-02-28T09:00:36Z</time>
      </trkpt>
      <trkpt lat="46.67051" lon="5.82394">
        <ele>589.8</ele>
        <time>2020-02-28T09:00:37Z</time>
      </trkpt>
      <trkpt lat="46.67058" lon="5.82393">
        <ele>589.4</ele>
        <time>2020-02-28T09:00:38Z</time>
      </trkpt>
      <trkpt lat="46.67064" lon="5.82393">
        <ele>589.4</ele>
        <time>2020-02-28T09:00:39Z</time>
      </trkpt>
      <trkpt lat="46.67071" lon="5.82393">
        <ele>589.4</ele>
        <time>2020-02-28T09:00:40Z</time>
      </trkpt>
      <trkpt lat="46.67077" lon="5.82392">
        <ele>589.4</ele>
        <time>2020-02-28T09:00:41Z</time>
      </trkpt>
      <trkpt lat="46.67083" lon="5.82391">
        <ele>589.4</ele>
        <time>2020-02-28T09:00:42Z</time>
      </trkpt>
      <trkpt lat="46.67089" lon="5.8239">
        <ele>589.4</ele>
        <time>2020-02-28T09:00:43Z</time>
      </trkpt>
      <trkpt lat="46.67095" lon="5.82389">
        <ele>589.4</ele>
        <time>2020-02-28T09:00:44Z</time>
      </trkpt>
      <trkpt lat="46.67101" lon="5.82389">
        <ele>589.4</ele>
        <time>2020-02-28T09:00:45Z</time>
      </trkpt>
      <trkpt lat="46.67107" lon="5.82389">
        <ele>589.4</ele>
        <time>2020-02-28T09:00:46Z</time>
      </trkpt>
      <trkpt lat="46.67112" lon="5.82389">
        <ele>589.4</ele>
        <time>2020-02-28T09:00:47Z</time>
      </trkpt>
      <trkpt lat="46.67121" lon="5.82391">
        <ele>589.8</ele>
        <time>2020-02-28T09:00:48Z</time>
      </trkpt>
      <trkpt lat="46.67124" lon="5.82391">
        <ele>589.8</ele>
        <time>2020-02-28T09:00:49Z</time>
      </trkpt>
      <trkpt lat="46.67129" lon="5.82393">
        <ele>589.8</ele>
        <time>2020-02-28T09:00:50Z</time>
      </trkpt>
      <trkpt lat="46.67135" lon="5.82394">
        <ele>589.8</ele>
        <time>2020-02-28T09:00:51Z</time>
      </trkpt>
      <trkpt lat="46.6714" lon="5.82395">
        <ele>589.8</ele>
        <time>2020-02-28T09:00:52Z</time>
      </trkpt>
      <trkpt lat="46.67146" lon="5.82396">
        <ele>590</ele>
        <time>2020-02-28T09:00:53Z</time>
      </trkpt>
      <trkpt lat="46.67151" lon="5.82397">
        <ele>590</ele>
        <time>2020-02-28T09:00:54Z</time>
      </trkpt>
      <trkpt lat="46.67157" lon="5.82397">
        <ele>590</ele>
        <time>2020-02-28T09:00:55Z</time>
      </trkpt>
      <trkpt lat="46.67163" lon="5.82398">
        <ele>590</ele>
        <time>2020-02-28T09:00:56Z</time>
      </trkpt>
      <trkpt lat="46.67169" lon="5.82399">
        <ele>590</ele>
        <time>2020-02-28T09:00:57Z</time>
      </trkpt>
      <trkpt lat="46.67174" lon="5.82399">
        <ele>590</ele>
        <time>2020-02-28T09:00:58Z</time>
      </trkpt>
      <trkpt lat="46.6718" lon="5.824">
        <ele>590.2</ele>
        <time>2020-02-28T09:00:59Z</time>
      </trkpt>
      <trkpt lat="46.67186" lon="5.824">
        <ele>590.2</ele>
        <time>2020-02-28T09:01:00Z</time>
      </trkpt>
      <trkpt lat="46.67192" lon="5.82401">
        <ele>590.2</ele>
        <time>2020-02-28T09:01:01Z</time>
      </trkpt>
      <trkpt lat="46.67197" lon="5.82401">
        <ele>590.2</ele>
        <time>2020-02-28T09:01:02Z</time>
      </trkpt>
      <trkpt lat="46.67203" lon="5.82401">
        <ele>590.4</ele>
        <time>2020-02-28T09:01:03Z</time>
      </trkpt>
      <trkpt lat="46.67208" lon="5.82401">
        <ele>590.4</ele>
        <time>2020-02-28T09:01:04Z</time>
      </trkpt>
      <trkpt lat="46.67213" lon="5.82402">
        <ele>590.8</ele>
        <time>2020-02-28T09:01:05Z</time>
      </trkpt>
      <trkpt lat="46.67218" lon="5.82402">
        <ele>591</ele>
        <time>2020-02-28T09:01:06Z</time>
      </trkpt>
      <trkpt lat="46.67222" lon="5.82401">
        <ele>591.2</ele>
        <time>2020-02-28T09:01:07Z</time>
      </trkpt>
      <trkpt lat="46.67227" lon="5.82401">
        <ele>591.4</ele>
        <time>2020-02-28T09:01:08Z</time>
      </trkpt>
      <trkpt lat="46.67232" lon="5.82401">
        <ele>591.4</ele>
        <time>2020-02-28T09:01:09Z</time>
      </trkpt>
      <trkpt lat="46.67237" lon="5.82401">
        <ele>591.8</ele>
        <time>2020-02-28T09:01:10Z</time>
      </trkpt>
      <trkpt lat="46.67242" lon="5.82401">
        <ele>591.8</ele>
        <time>2020-02-28T09:01:11Z</time>
      </trkpt>
      <trkpt lat="46.67247" lon="5.82401">
        <ele>592.2</ele>
        <time>2020-02-28T09:01:12Z</time>
      </trkpt>
      <trkpt lat="46.67254" lon="5.824">
        <ele>592.2</ele>
        <time>2020-02-28T09:01:13Z</time>
      </trkpt>
      <trkpt lat="46.67256" lon="5.82399">
        <ele>592.4</ele>
        <time>2020-02-28T09:01:14Z</time>
      </trkpt>
      <trkpt lat="46.67261" lon="5.82399">
        <ele>592.4</ele>
        <time>2020-02-28T09:01:15Z</time>
      </trkpt>
      <trkpt lat="46.67266" lon="5.82398">
        <ele>592.4</ele>
        <time>2020-02-28T09:01:16Z</time>
      </trkpt>
      <trkpt lat="46.67271" lon="5.82398">
        <ele>592.4</ele>
        <time>2020-02-28T09:01:17Z</time>
      </trkpt>
      <trkpt lat="46.67276" lon="5.82398">
        <ele>592.4</ele>
        <time>2020-02-28T09:01:18Z</time>
      </trkpt>
      <trkpt lat="46.67281" lon="5.82397">
        <ele>592.4</ele>
        <time>2020-02-28T09:01:19Z</time>
      </trkpt>
      <trkpt lat="46.67286" lon="5.82397">
        <ele>592.4</ele>
        <time>2020-02-28T09:01:20Z</time>
      </trkpt>
      <trkpt lat="46.67291" lon="5.82396">
        <ele>592.4</ele>
        <time>2020-02-28T09:01:21Z</time>
      </trkpt>
      <trkpt lat="46.67296" lon="5.82395">
        <ele>592.4</ele>
        <time>2020-02-28T09:01:22Z</time>
      </trkpt>
      <trkpt lat="46.67301" lon="5.82395">
        <ele>592.8</ele>
        <time>2020-02-28T09:01:23Z</time>
      </trkpt>
      <trkpt lat="46.67306" lon="5.82395">
        <ele>592.8</ele>
        <time>2020-02-28T09:01:24Z</time>
      </trkpt>
      <trkpt lat="46.67311" lon="5.82395">
        <ele>592.8</ele>
        <time>2020-02-28T09:01:25Z</time>
      </trkpt>
      <trkpt lat="46.67316" lon="5.82396">
        <ele>592.8</ele>
        <time>2020-02-28T09:01:26Z</time>
      </trkpt>
      <trkpt lat="46.67322" lon="5.82398">
        <ele>592.8</ele>
        <time>2020-02-28T09:01:27Z</time>
      </trkpt>
      <trkpt lat="46.67327" lon="5.82399">
        <ele>592.8</ele>
        <time>2020-02-28T09:01:28Z</time>
      </trkpt>
      <trkpt lat="46.67331" lon="5.82402">
        <ele>592.8</ele>
        <time>2020-02-28T09:01:29Z</time>
      </trkpt>
      <trkpt lat="46.67336" lon="5.82404">
        <ele>593</ele>
        <time>2020-02-28T09:01:30Z</time>
      </trkpt>
      <trkpt lat="46.67342" lon="5.82408">
        <ele>593</ele>
        <time>2020-02-28T09:01:31Z</time>
      </trkpt>
      <trkpt lat="46.67344" lon="5.82409">
        <ele>593.2</ele>
        <time>2020-02-28T09:01:32Z</time>
      </trkpt>
      <trkpt lat="46.67348" lon="5.82411">
        <ele>593.2</ele>
        <time>2020-02-28T09:01:33Z</time>
      </trkpt>
      <trkpt lat="46.67353" lon="5.82412">
        <ele>593.6</ele>
        <time>2020-02-28T09:01:34Z</time>
      </trkpt>
      <trkpt lat="46.67357" lon="5.82414">
        <ele>593.8</ele>
        <time>2020-02-28T09:01:35Z</time>
      </trkpt>
      <trkpt lat="46.67361" lon="5.82415">
        <ele>594</ele>
        <time>2020-02-28T09:01:36Z</time>
      </trkpt>
      <trkpt lat="46.67365" lon="5.82417">
        <ele>594.2</ele>
        <time>2020-02-28T09:01:37Z</time>
      </trkpt>
      <trkpt lat="46.67369" lon="5.82418">
        <ele>594.4</ele>
        <time>2020-02-28T09:01:38Z</time>
      </trkpt>
      <trkpt lat="46.67372" lon="5.82419">
        <ele>594.4</ele>
        <time>2020-02-28T09:01:39Z</time>
      </trkpt>
      <trkpt lat="46.67376" lon="5.8242">
        <ele>594.8</ele>
        <time>2020-02-28T09:01:40Z</time>
      </trkpt>
      <trkpt lat="46.6738" lon="5.8242">
        <ele>595</ele>
        <time>2020-02-28T09:01:41Z</time>
      </trkpt>
      <trkpt lat="46.67383" lon="5.8242">
        <ele>595.4</ele>
        <time>2020-02-28T09:01:42Z</time>
      </trkpt>
      <trkpt lat="46.67389" lon="5.8242">
        <ele>595.4</ele>
        <time>2020-02-28T09:01:43Z</time>
      </trkpt>
      <trkpt lat="46.6739" lon="5.8242">
        <ele>595.6</ele>
        <time>2020-02-28T09:01:44Z</time>
      </trkpt>
      <trkpt lat="46.67394" lon="5.82419">
        <ele>595.6</ele>
        <time>2020-02-28T09:01:45Z</time>
      </trkpt>
      <trkpt lat="46.674" lon="5.82418">
        <ele>596</ele>
        <time>2020-02-28T09:01:46Z</time>
      </trkpt>
      <trkpt lat="46.67402" lon="5.82417">
        <ele>596</ele>
        <time>2020-02-28T09:01:47Z</time>
      </trkpt>
      <trkpt lat="46.67405" lon="5.82416">
        <ele>596.2</ele>
        <time>2020-02-28T09:01:48Z</time>
      </trkpt>
      <trkpt lat="46.67409" lon="5.82415">
        <ele>596.2</ele>
        <time>2020-02-28T09:01:49Z</time>
      </trkpt>
      <trkpt lat="46.67415" lon="5.82413">
        <ele>596.6</ele>
        <time>2020-02-28T09:01:50Z</time>
      </trkpt>
      <trkpt lat="46.67418" lon="5.82412">
        <ele>596.6</ele>
        <time>2020-02-28T09:01:51Z</time>
      </trkpt>
      <trkpt lat="46.67422" lon="5.82411">
        <ele>596.8</ele>
        <time>2020-02-28T09:01:52Z</time>
      </trkpt>
      <trkpt lat="46.67426" lon="5.82409">
        <ele>596.8</ele>
        <time>2020-02-28T09:01:53Z</time>
      </trkpt>
      <trkpt lat="46.6743" lon="5.82408">
        <ele>596.8</ele>
        <time>2020-02-28T09:01:54Z</time>
      </trkpt>
      <trkpt lat="46.67435" lon="5.82406">
        <ele>597</ele>
        <time>2020-02-28T09:01:55Z</time>
      </trkpt>
      <trkpt lat="46.6744" lon="5.82405">
        <ele>597</ele>
        <time>2020-02-28T09:01:56Z</time>
      </trkpt>
      <trkpt lat="46.67447" lon="5.82404">
        <ele>597</ele>
        <time>2020-02-28T09:01:57Z</time>
      </trkpt>
      <trkpt lat="46.67449" lon="5.82404">
        <ele>597</ele>
        <time>2020-02-28T09:01:58Z</time>
      </trkpt>
      <trkpt lat="46.67453" lon="5.82404">
        <ele>597</ele>
        <time>2020-02-28T09:01:59Z</time>
      </trkpt>
      <trkpt lat="46.67457" lon="5.82405">
        <ele>597</ele>
        <time>2020-02-28T09:02:00Z</time>
      </trkpt>
      <trkpt lat="46.67462" lon="5.82406">
        <ele>597</ele>
        <time>2020-02-28T09:02:01Z</time>
      </trkpt>
      <trkpt lat="46.67466" lon="5.82408">
        <ele>597.2</ele>
        <time>2020-02-28T09:02:02Z</time>
      </trkpt>
      <trkpt lat="46.67471" lon="5.8241">
        <ele>597.2</ele>
        <time>2020-02-28T09:02:03Z</time>
      </trkpt>
      <trkpt lat="46.67476" lon="5.82412">
        <ele>597.2</ele>
        <time>2020-02-28T09:02:04Z</time>
      </trkpt>
      <trkpt lat="46.6748" lon="5.82415">
        <ele>597.2</ele>
        <time>2020-02-28T09:02:05Z</time>
      </trkpt>
      <trkpt lat="46.67485" lon="5.82418">
        <ele>597.2</ele>
        <time>2020-02-28T09:02:06Z</time>
      </trkpt>
      <trkpt lat="46.6749" lon="5.8242">
        <ele>597.2</ele>
        <time>2020-02-28T09:02:07Z</time>
      </trkpt>
      <trkpt lat="46.67495" lon="5.82423">
        <ele>597</ele>
        <time>2020-02-28T09:02:08Z</time>
      </trkpt>
      <trkpt lat="46.675" lon="5.82426">
        <ele>597</ele>
        <time>2020-02-28T09:02:09Z</time>
      </trkpt>
      <trkpt lat="46.67505" lon="5.8243">
        <ele>597</ele>
        <time>2020-02-28T09:02:10Z</time>
      </trkpt>
      <trkpt lat="46.67513" lon="5.82435">
        <ele>597</ele>
        <time>2020-02-28T09:02:11Z</time>
      </trkpt>
      <trkpt lat="46.67516" lon="5.82437">
        <ele>597</ele>
        <time>2020-02-28T09:02:12Z</time>
      </trkpt>
      <trkpt lat="46.67523" lon="5.82442">
        <ele>596.8</ele>
        <time>2020-02-28T09:02:13Z</time>
      </trkpt>
      <trkpt lat="46.67526" lon="5.82444">
        <ele>596.8</ele>
        <time>2020-02-28T09:02:14Z</time>
      </trkpt>
      <trkpt lat="46.67531" lon="5.82447">
        <ele>596.8</ele>
        <time>2020-02-28T09:02:15Z</time>
      </trkpt>
      <trkpt lat="46.67536" lon="5.8245">
        <ele>596.6</ele>
        <time>2020-02-28T09:02:16Z</time>
      </trkpt>
      <trkpt lat="46.67541" lon="5.82452">
        <ele>596.6</ele>
        <time>2020-02-28T09:02:17Z</time>
      </trkpt>
      <trkpt lat="46.67546" lon="5.82455">
        <ele>596.6</ele>
        <time>2020-02-28T09:02:18Z</time>
      </trkpt>
      <trkpt lat="46.6755" lon="5.82457">
        <ele>596.6</ele>
        <time>2020-02-28T09:02:19Z</time>
      </trkpt>
      <trkpt lat="46.67555" lon="5.82458">
        <ele>596.6</ele>
        <time>2020-02-28T09:02:20Z</time>
      </trkpt>
      <trkpt lat="46.6756" lon="5.82458">
        <ele>596.6</ele>
        <time>2020-02-28T09:02:21Z</time>
      </trkpt>
      <trkpt lat="46.67568" lon="5.82457">
        <ele>596.8</ele>
        <time>2020-02-28T09:02:22Z</time>
      </trkpt>
      <trkpt lat="46.6757" lon="5.82457">
        <ele>596.8</ele>
        <time>2020-02-28T09:02:23Z</time>
      </trkpt>
      <trkpt lat="46.67575" lon="5.82456">
        <ele>597.2</ele>
        <time>2020-02-28T09:02:24Z</time>
      </trkpt>
      <trkpt lat="46.67578" lon="5.82454">
        <ele>597.4</ele>
        <time>2020-02-28T09:02:25Z</time>
      </trkpt>
      <trkpt lat="46.67582" lon="5.82451">
        <ele>597.4</ele>
        <time>2020-02-28T09:02:26Z</time>
      </trkpt>
      <trkpt lat="46.67586" lon="5.82448">
        <ele>597.6</ele>
        <time>2020-02-28T09:02:27Z</time>
      </trkpt>
      <trkpt lat="46.67589" lon="5.82446">
        <ele>597.8</ele>
        <time>2020-02-28T09:02:28Z</time>
      </trkpt>
      <trkpt lat="46.67593" lon="5.82442">
        <ele>598.2</ele>
        <time>2020-02-28T09:02:29Z</time>
      </trkpt>
      <trkpt lat="46.67598" lon="5.82437">
        <ele>598.2</ele>
        <time>2020-02-28T09:02:30Z</time>
      </trkpt>
      <trkpt lat="46.676" lon="5.82435">
        <ele>598.4</ele>
        <time>2020-02-28T09:02:31Z</time>
      </trkpt>
      <trkpt lat="46.67603" lon="5.82432">
        <ele>598.4</ele>
        <time>2020-02-28T09:02:32Z</time>
      </trkpt>
      <trkpt lat="46.67606" lon="5.82427">
        <ele>598.6</ele>
        <time>2020-02-28T09:02:33Z</time>
      </trkpt>
      <trkpt lat="46.6761" lon="5.82423">
        <ele>598.6</ele>
        <time>2020-02-28T09:02:34Z</time>
      </trkpt>
      <trkpt lat="46.67613" lon="5.82418">
        <ele>599</ele>
        <time>2020-02-28T09:02:35Z</time>
      </trkpt>
      <trkpt lat="46.67616" lon="5.82413">
        <ele>599</ele>
        <time>2020-02-28T09:02:36Z</time>
      </trkpt>
      <trkpt lat="46.67622" lon="5.82406">
        <ele>599</ele>
        <time>2020-02-28T09:02:37Z</time>
      </trkpt>
      <trkpt lat="46.67624" lon="5.82404">
        <ele>599</ele>
        <time>2020-02-28T09:02:38Z</time>
      </trkpt>
      <trkpt lat="46.67627" lon="5.82398">
        <ele>599</ele>
        <time>2020-02-28T09:02:39Z</time>
      </trkpt>
      <trkpt lat="46.67631" lon="5.82394">
        <ele>599</ele>
        <time>2020-02-28T09:02:40Z</time>
      </trkpt>
      <trkpt lat="46.67634" lon="5.82389">
        <ele>599</ele>
        <time>2020-02-28T09:02:41Z</time>
      </trkpt>
      <trkpt lat="46.67638" lon="5.82384">
        <ele>599</ele>
        <time>2020-02-28T09:02:42Z</time>
      </trkpt>
      <trkpt lat="46.67642" lon="5.82379">
        <ele>599</ele>
        <time>2020-02-28T09:02:43Z</time>
      </trkpt>
      <trkpt lat="46.67649" lon="5.82371">
        <ele>598.8</ele>
        <time>2020-02-28T09:02:44Z</time>
      </trkpt>
      <trkpt lat="46.67651" lon="5.82368">
        <ele>598.8</ele>
        <time>2020-02-28T09:02:45Z</time>
      </trkpt>
      <trkpt lat="46.67655" lon="5.82363">
        <ele>598.8</ele>
        <time>2020-02-28T09:02:46Z</time>
      </trkpt>
      <trkpt lat="46.6766" lon="5.82358">
        <ele>598.4</ele>
        <time>2020-02-28T09:02:47Z</time>
      </trkpt>
      <trkpt lat="46.67667" lon="5.82351">
        <ele>598.4</ele>
        <time>2020-02-28T09:02:48Z</time>
      </trkpt>
      <trkpt lat="46.67669" lon="5.82348">
        <ele>598.4</ele>
        <time>2020-02-28T09:02:49Z</time>
      </trkpt>
      <trkpt lat="46.67674" lon="5.82344">
        <ele>598.4</ele>
        <time>2020-02-28T09:02:50Z</time>
      </trkpt>
      <trkpt lat="46.6768" lon="5.82336">
        <ele>598.2</ele>
        <time>2020-02-28T09:02:51Z</time>
      </trkpt>
      <trkpt lat="46.67683" lon="5.82334">
        <ele>598.2</ele>
        <time>2020-02-28T09:02:52Z</time>
      </trkpt>
      <trkpt lat="46.67687" lon="5.8233">
        <ele>598.2</ele>
        <time>2020-02-28T09:02:53Z</time>
      </trkpt>
      <trkpt lat="46.67691" lon="5.82326">
        <ele>598.2</ele>
        <time>2020-02-28T09:02:54Z</time>
      </trkpt>
      <trkpt lat="46.67696" lon="5.82322">
        <ele>598.2</ele>
        <time>2020-02-28T09:02:55Z</time>
      </trkpt>
      <trkpt lat="46.677" lon="5.82318">
        <ele>598.2</ele>
        <time>2020-02-28T09:02:56Z</time>
      </trkpt>
      <trkpt lat="46.67704" lon="5.82314">
        <ele>598.2</ele>
        <time>2020-02-28T09:02:57Z</time>
      </trkpt>
      <trkpt lat="46.67709" lon="5.8231">
        <ele>598.6</ele>
        <time>2020-02-28T09:02:58Z</time>
      </trkpt>
      <trkpt lat="46.67713" lon="5.82306">
        <ele>598.6</ele>
        <time>2020-02-28T09:02:59Z</time>
      </trkpt>
      <trkpt lat="46.67719" lon="5.823">
        <ele>598.6</ele>
        <time>2020-02-28T09:03:00Z</time>
      </trkpt>
      <trkpt lat="46.67721" lon="5.82298">
        <ele>598.8</ele>
        <time>2020-02-28T09:03:01Z</time>
      </trkpt>
      <trkpt lat="46.67725" lon="5.82294">
        <ele>598.8</ele>
        <time>2020-02-28T09:03:02Z</time>
      </trkpt>
      <trkpt lat="46.67729" lon="5.82289">
        <ele>599</ele>
        <time>2020-02-28T09:03:03Z</time>
      </trkpt>
      <trkpt lat="46.67732" lon="5.82285">
        <ele>599</ele>
        <time>2020-02-28T09:03:04Z</time>
      </trkpt>
      <trkpt lat="46.67736" lon="5.82281">
        <ele>599.4</ele>
        <time>2020-02-28T09:03:05Z</time>
      </trkpt>
      <trkpt lat="46.6774" lon="5.82278">
        <ele>599.4</ele>
        <time>2020-02-28T09:03:06Z</time>
      </trkpt>
      <trkpt lat="46.67745" lon="5.82272">
        <ele>599.8</ele>
        <time>2020-02-28T09:03:07Z</time>
      </trkpt>
      <trkpt lat="46.67747" lon="5.8227">
        <ele>599.8</ele>
        <time>2020-02-28T09:03:08Z</time>
      </trkpt>
      <trkpt lat="46.67751" lon="5.82267">
        <ele>600</ele>
        <time>2020-02-28T09:03:09Z</time>
      </trkpt>
      <trkpt lat="46.67754" lon="5.82264">
        <ele>600.4</ele>
        <time>2020-02-28T09:03:10Z</time>
      </trkpt>
      <trkpt lat="46.67759" lon="5.8226">
        <ele>600.6</ele>
        <time>2020-02-28T09:03:11Z</time>
      </trkpt>
      <trkpt lat="46.6776" lon="5.82259">
        <ele>600.8</ele>
        <time>2020-02-28T09:03:12Z</time>
      </trkpt>
      <trkpt lat="46.67764" lon="5.82256">
        <ele>601.2</ele>
        <time>2020-02-28T09:03:13Z</time>
      </trkpt>
      <trkpt lat="46.67767" lon="5.82254">
        <ele>601.6</ele>
        <time>2020-02-28T09:03:14Z</time>
      </trkpt>
      <trkpt lat="46.6777" lon="5.82252">
        <ele>601.8</ele>
        <time>2020-02-28T09:03:15Z</time>
      </trkpt>
      <trkpt lat="46.67774" lon="5.82249">
        <ele>602.2</ele>
        <time>2020-02-28T09:03:16Z</time>
      </trkpt>
      <trkpt lat="46.67775" lon="5.82249">
        <ele>602.4</ele>
        <time>2020-02-28T09:03:17Z</time>
      </trkpt>
      <trkpt lat="46.67777" lon="5.82247">
        <ele>602.8</ele>
        <time>2020-02-28T09:03:18Z</time>
      </trkpt>
      <trkpt lat="46.6778" lon="5.82246">
        <ele>603</ele>
        <time>2020-02-28T09:03:19Z</time>
      </trkpt>
      <trkpt lat="46.67782" lon="5.82245">
        <ele>603.4</ele>
        <time>2020-02-28T09:03:20Z</time>
      </trkpt>
      <trkpt lat="46.67785" lon="5.82244">
        <ele>603.6</ele>
        <time>2020-02-28T09:03:21Z</time>
      </trkpt>
      <trkpt lat="46.67789" lon="5.82242">
        <ele>603.6</ele>
        <time>2020-02-28T09:03:22Z</time>
      </trkpt>
      <trkpt lat="46.6779" lon="5.82242">
        <ele>604</ele>
        <time>2020-02-28T09:03:23Z</time>
      </trkpt>
      <trkpt lat="46.67793" lon="5.82241">
        <ele>604</ele>
        <time>2020-02-28T09:03:24Z</time>
      </trkpt>
      <trkpt lat="46.67796" lon="5.8224">
        <ele>604.4</ele>
        <time>2020-02-28T09:03:25Z</time>
      </trkpt>
      <trkpt lat="46.67799" lon="5.82239">
        <ele>604.4</ele>
        <time>2020-02-28T09:03:26Z</time>
      </trkpt>
      <trkpt lat="46.67801" lon="5.82239">
        <ele>604.6</ele>
        <time>2020-02-28T09:03:27Z</time>
      </trkpt>
      <trkpt lat="46.67804" lon="5.82238">
        <ele>604.8</ele>
        <time>2020-02-28T09:03:28Z</time>
      </trkpt>
      <trkpt lat="46.67807" lon="5.82238">
        <ele>605</ele>
        <time>2020-02-28T09:03:29Z</time>
      </trkpt>
      <trkpt lat="46.6781" lon="5.82237">
        <ele>605.2</ele>
        <time>2020-02-28T09:03:30Z</time>
      </trkpt>
      <trkpt lat="46.67812" lon="5.82236">
        <ele>605.2</ele>
        <time>2020-02-28T09:03:31Z</time>
      </trkpt>
      <trkpt lat="46.67815" lon="5.82236">
        <ele>605.6</ele>
        <time>2020-02-28T09:03:32Z</time>
      </trkpt>
      <trkpt lat="46.67818" lon="5.82235">
        <ele>605.6</ele>
        <time>2020-02-28T09:03:33Z</time>
      </trkpt>
      <trkpt lat="46.67821" lon="5.82235">
        <ele>605.8</ele>
        <time>2020-02-28T09:03:34Z</time>
      </trkpt>
      <trkpt lat="46.67824" lon="5.82235">
        <ele>606</ele>
        <time>2020-02-28T09:03:35Z</time>
      </trkpt>
      <trkpt lat="46.67826" lon="5.82235">
        <ele>606</ele>
        <time>2020-02-28T09:03:36Z</time>
      </trkpt>
      <trkpt lat="46.67829" lon="5.82236">
        <ele>606.4</ele>
        <time>2020-02-28T09:03:37Z</time>
      </trkpt>
      <trkpt lat="46.67834" lon="5.82239">
        <ele>606.4</ele>
        <time>2020-02-28T09:03:38Z</time>
      </trkpt>
      <trkpt lat="46.67836" lon="5.8224">
        <ele>606.6</ele>
        <time>2020-02-28T09:03:39Z</time>
      </trkpt>
      <trkpt lat="46.67839" lon="5.82242">
        <ele>606.6</ele>
        <time>2020-02-28T09:03:40Z</time>
      </trkpt>
      <trkpt lat="46.67842" lon="5.82244">
        <ele>606.6</ele>
        <time>2020-02-28T09:03:41Z</time>
      </trkpt>
      <trkpt lat="46.67845" lon="5.82245">
        <ele>606.8</ele>
        <time>2020-02-28T09:03:42Z</time>
      </trkpt>
      <trkpt lat="46.67848" lon="5.82247">
        <ele>606.8</ele>
        <time>2020-02-28T09:03:43Z</time>
      </trkpt>
      <trkpt lat="46.67852" lon="5.8225">
        <ele>606.8</ele>
        <time>2020-02-28T09:03:44Z</time>
      </trkpt>
      <trkpt lat="46.67855" lon="5.82252">
        <ele>607</ele>
        <time>2020-02-28T09:03:45Z</time>
      </trkpt>
      <trkpt lat="46.67859" lon="5.82255">
        <ele>607</ele>
        <time>2020-02-28T09:03:46Z</time>
      </trkpt>
      <trkpt lat="46.67861" lon="5.82257">
        <ele>607</ele>
        <time>2020-02-28T09:03:47Z</time>
      </trkpt>
      <trkpt lat="46.67864" lon="5.8226">
        <ele>607.4</ele>
        <time>2020-02-28T09:03:48Z</time>
      </trkpt>
      <trkpt lat="46.67868" lon="5.82263">
        <ele>607.4</ele>
        <time>2020-02-28T09:03:49Z</time>
      </trkpt>
      <trkpt lat="46.6787" lon="5.82264">
        <ele>607.6</ele>
        <time>2020-02-28T09:03:50Z</time>
      </trkpt>
      <trkpt lat="46.67873" lon="5.82267">
        <ele>607.6</ele>
        <time>2020-02-28T09:03:51Z</time>
      </trkpt>
      <trkpt lat="46.67876" lon="5.8227">
        <ele>607.8</ele>
        <time>2020-02-28T09:03:52Z</time>
      </trkpt>
      <trkpt lat="46.67879" lon="5.82273">
        <ele>607.8</ele>
        <time>2020-02-28T09:03:53Z</time>
      </trkpt>
      <trkpt lat="46.67881" lon="5.82275">
        <ele>607.8</ele>
        <time>2020-02-28T09:03:54Z</time>
      </trkpt>
      <trkpt lat="46.67884" lon="5.82278">
        <ele>608.2</ele>
        <time>2020-02-28T09:03:55Z</time>
      </trkpt>
      <trkpt lat="46.67887" lon="5.82281">
        <ele>608.2</ele>
        <time>2020-02-28T09:03:56Z</time>
      </trkpt>
      <trkpt lat="46.67889" lon="5.82283">
        <ele>608.2</ele>
        <time>2020-02-28T09:03:57Z</time>
      </trkpt>
      <trkpt lat="46.67891" lon="5.82286">
        <ele>608.6</ele>
        <time>2020-02-28T09:03:58Z</time>
      </trkpt>
      <trkpt lat="46.67894" lon="5.82289">
        <ele>608.6</ele>
        <time>2020-02-28T09:03:59Z</time>
      </trkpt>
      <trkpt lat="46.67898" lon="5.82293">
        <ele>608.8</ele>
        <time>2020-02-28T09:04:00Z</time>
      </trkpt>
      <trkpt lat="46.67899" lon="5.82294">
        <ele>608.8</ele>
        <time>2020-02-28T09:04:01Z</time>
      </trkpt>
      <trkpt lat="46.67902" lon="5.82297">
        <ele>608.8</ele>
        <time>2020-02-28T09:04:02Z</time>
      </trkpt>
      <trkpt lat="46.67905" lon="5.823">
        <ele>609.2</ele>
        <time>2020-02-28T09:04:03Z</time>
      </trkpt>
      <trkpt lat="46.67907" lon="5.82303">
        <ele>609.2</ele>
        <time>2020-02-28T09:04:04Z</time>
      </trkpt>
      <trkpt lat="46.6791" lon="5.82306">
        <ele>609.4</ele>
        <time>2020-02-28T09:04:05Z</time>
      </trkpt>
      <trkpt lat="46.67913" lon="5.82309">
        <ele>609.4</ele>
        <time>2020-02-28T09:04:06Z</time>
      </trkpt>
      <trkpt lat="46.67915" lon="5.82312">
        <ele>609.6</ele>
        <time>2020-02-28T09:04:07Z</time>
      </trkpt>
      <trkpt lat="46.67918" lon="5.82316">
        <ele>609.6</ele>
        <time>2020-02-28T09:04:08Z</time>
      </trkpt>
      <trkpt lat="46.67921" lon="5.82318">
        <ele>609.6</ele>
        <time>2020-02-28T09:04:09Z</time>
      </trkpt>
      <trkpt lat="46.67924" lon="5.82321">
        <ele>609.6</ele>
        <time>2020-02-28T09:04:10Z</time>
      </trkpt>
      <trkpt lat="46.67927" lon="5.82324">
        <ele>609.6</ele>
        <time>2020-02-28T09:04:11Z</time>
      </trkpt>
      <trkpt lat="46.6793" lon="5.82327">
        <ele>609.6</ele>
        <time>2020-02-28T09:04:12Z</time>
      </trkpt>
      <trkpt lat="46.67935" lon="5.82333">
        <ele>609.6</ele>
        <time>2020-02-28T09:04:13Z</time>
      </trkpt>
      <trkpt lat="46.67937" lon="5.82334">
        <ele>609.6</ele>
        <time>2020-02-28T09:04:14Z</time>
      </trkpt>
      <trkpt lat="46.6794" lon="5.82338">
        <ele>609.4</ele>
        <time>2020-02-28T09:04:15Z</time>
      </trkpt>
      <trkpt lat="46.67943" lon="5.82341">
        <ele>609.4</ele>
        <time>2020-02-28T09:04:16Z</time>
      </trkpt>
      <trkpt lat="46.67946" lon="5.82344">
        <ele>609.4</ele>
        <time>2020-02-28T09:04:17Z</time>
      </trkpt>
      <trkpt lat="46.67951" lon="5.8235">
        <ele>609.4</ele>
        <time>2020-02-28T09:04:18Z</time>
      </trkpt>
      <trkpt lat="46.67953" lon="5.82352">
        <ele>609.2</ele>
        <time>2020-02-28T09:04:19Z</time>
      </trkpt>
      <trkpt lat="46.67956" lon="5.82357">
        <ele>609.2</ele>
        <time>2020-02-28T09:04:20Z</time>
      </trkpt>
      <trkpt lat="46.67962" lon="5.82363">
        <ele>609</ele>
        <time>2020-02-28T09:04:21Z</time>
      </trkpt>
      <trkpt lat="46.67964" lon="5.82365">
        <ele>609</ele>
        <time>2020-02-28T09:04:22Z</time>
      </trkpt>
      <trkpt lat="46.67968" lon="5.82369">
        <ele>608.6</ele>
        <time>2020-02-28T09:04:23Z</time>
      </trkpt>
      <trkpt lat="46.67972" lon="5.82374">
        <ele>608.6</ele>
        <time>2020-02-28T09:04:24Z</time>
      </trkpt>
      <trkpt lat="46.67977" lon="5.82381">
        <ele>608.4</ele>
        <time>2020-02-28T09:04:25Z</time>
      </trkpt>
      <trkpt lat="46.67979" lon="5.82383">
        <ele>608.4</ele>
        <time>2020-02-28T09:04:26Z</time>
      </trkpt>
      <trkpt lat="46.67983" lon="5.82388">
        <ele>608.4</ele>
        <time>2020-02-28T09:04:27Z</time>
      </trkpt>
      <trkpt lat="46.67989" lon="5.82394">
        <ele>608</ele>
        <time>2020-02-28T09:04:28Z</time>
      </trkpt>
      <trkpt lat="46.67991" lon="5.82396">
        <ele>608</ele>
        <time>2020-02-28T09:04:29Z</time>
      </trkpt>
      <trkpt lat="46.67995" lon="5.824">
        <ele>607.8</ele>
        <time>2020-02-28T09:04:30Z</time>
      </trkpt>
      <trkpt lat="46.68002" lon="5.82406">
        <ele>607.8</ele>
        <time>2020-02-28T09:04:31Z</time>
      </trkpt>
      <trkpt lat="46.68004" lon="5.82407">
        <ele>607.8</ele>
        <time>2020-02-28T09:04:32Z</time>
      </trkpt>
      <trkpt lat="46.68011" lon="5.82413">
        <ele>607.8</ele>
        <time>2020-02-28T09:04:33Z</time>
      </trkpt>
      <trkpt lat="46.68013" lon="5.82414">
        <ele>607.8</ele>
        <time>2020-02-28T09:04:34Z</time>
      </trkpt>
      <trkpt lat="46.68018" lon="5.82417">
        <ele>607.8</ele>
        <time>2020-02-28T09:04:35Z</time>
      </trkpt>
      <trkpt lat="46.68023" lon="5.8242">
        <ele>607.8</ele>
        <time>2020-02-28T09:04:36Z</time>
      </trkpt>
      <trkpt lat="46.68028" lon="5.82422">
        <ele>607.8</ele>
        <time>2020-02-28T09:04:37Z</time>
      </trkpt>
      <trkpt lat="46.68032" lon="5.82424">
        <ele>607.8</ele>
        <time>2020-02-28T09:04:38Z</time>
      </trkpt>
      <trkpt lat="46.68039" lon="5.82427">
        <ele>607.8</ele>
        <time>2020-02-28T09:04:39Z</time>
      </trkpt>
      <trkpt lat="46.68042" lon="5.82428">
        <ele>607.8</ele>
        <time>2020-02-28T09:04:40Z</time>
      </trkpt>
      <trkpt lat="46.68049" lon="5.8243">
        <ele>607.8</ele>
        <time>2020-02-28T09:04:41Z</time>
      </trkpt>
      <trkpt lat="46.68052" lon="5.8243">
        <ele>607.8</ele>
        <time>2020-02-28T09:04:42Z</time>
      </trkpt>
      <trkpt lat="46.68057" lon="5.82431">
        <ele>607.8</ele>
        <time>2020-02-28T09:04:43Z</time>
      </trkpt>
      <trkpt lat="46.68064" lon="5.82431">
        <ele>607.8</ele>
        <time>2020-02-28T09:04:44Z</time>
      </trkpt>
      <trkpt lat="46.68067" lon="5.82431">
        <ele>607.8</ele>
        <time>2020-02-28T09:04:45Z</time>
      </trkpt>
      <trkpt lat="46.68072" lon="5.82431">
        <ele>608</ele>
        <time>2020-02-28T09:04:46Z</time>
      </trkpt>
      <trkpt lat="46.68077" lon="5.82431">
        <ele>608</ele>
        <time>2020-02-28T09:04:47Z</time>
      </trkpt>
      <trkpt lat="46.68082" lon="5.8243">
        <ele>608</ele>
        <time>2020-02-28T09:04:48Z</time>
      </trkpt>
      <trkpt lat="46.68089" lon="5.82429">
        <ele>608</ele>
        <time>2020-02-28T09:04:49Z</time>
      </trkpt>
      <trkpt lat="46.68092" lon="5.82428">
        <ele>608</ele>
        <time>2020-02-28T09:04:50Z</time>
      </trkpt>
      <trkpt lat="46.68097" lon="5.82427">
        <ele>608</ele>
        <time>2020-02-28T09:04:51Z</time>
      </trkpt>
      <trkpt lat="46.68102" lon="5.82426">
        <ele>608.2</ele>
        <time>2020-02-28T09:04:52Z</time>
      </trkpt>
      <trkpt lat="46.68107" lon="5.82424">
        <ele>608.2</ele>
        <time>2020-02-28T09:04:53Z</time>
      </trkpt>
      <trkpt lat="46.68115" lon="5.82422">
        <ele>608.2</ele>
        <time>2020-02-28T09:04:54Z</time>
      </trkpt>
      <trkpt lat="46.68118" lon="5.82421">
        <ele>608.2</ele>
        <time>2020-02-28T09:04:55Z</time>
      </trkpt>
      <trkpt lat="46.68123" lon="5.8242">
        <ele>608.4</ele>
        <time>2020-02-28T09:04:56Z</time>
      </trkpt>
      <trkpt lat="46.68128" lon="5.82418">
        <ele>608.4</ele>
        <time>2020-02-28T09:04:57Z</time>
      </trkpt>
      <trkpt lat="46.68136" lon="5.82416">
        <ele>608.4</ele>
        <time>2020-02-28T09:04:58Z</time>
      </trkpt>
      <trkpt lat="46.68138" lon="5.82416">
        <ele>608.4</ele>
        <time>2020-02-28T09:04:59Z</time>
      </trkpt>
      <trkpt lat="46.68144" lon="5.82415">
        <ele>608.4</ele>
        <time>2020-02-28T09:05:00Z</time>
      </trkpt>
      <trkpt lat="46.68151" lon="5.82416">
        <ele>608.4</ele>
        <time>2020-02-28T09:05:01Z</time>
      </trkpt>
      <trkpt lat="46.68154" lon="5.82416">
        <ele>608.4</ele>
        <time>2020-02-28T09:05:02Z</time>
      </trkpt>
      <trkpt lat="46.68159" lon="5.82417">
        <ele>608.4</ele>
        <time>2020-02-28T09:05:03Z</time>
      </trkpt>
      <trkpt lat="46.68164" lon="5.82419">
        <ele>608.4</ele>
        <time>2020-02-28T09:05:04Z</time>
      </trkpt>
      <trkpt lat="46.68168" lon="5.82422">
        <ele>608.4</ele>
        <time>2020-02-28T09:05:05Z</time>
      </trkpt>
      <trkpt lat="46.68173" lon="5.82424">
        <ele>608.4</ele>
        <time>2020-02-28T09:05:06Z</time>
      </trkpt>
      <trkpt lat="46.68178" lon="5.82426">
        <ele>608.4</ele>
        <time>2020-02-28T09:05:07Z</time>
      </trkpt>
      <trkpt lat="46.68185" lon="5.82429">
        <ele>608.4</ele>
        <time>2020-02-28T09:05:08Z</time>
      </trkpt>
      <trkpt lat="46.68187" lon="5.8243">
        <ele>608.4</ele>
        <time>2020-02-28T09:05:09Z</time>
      </trkpt>
      <trkpt lat="46.68191" lon="5.82432">
        <ele>608.8</ele>
        <time>2020-02-28T09:05:10Z</time>
      </trkpt>
      <trkpt lat="46.68196" lon="5.82432">
        <ele>608.8</ele>
        <time>2020-02-28T09:05:11Z</time>
      </trkpt>
      <trkpt lat="46.68203" lon="5.82432">
        <ele>608.8</ele>
        <time>2020-02-28T09:05:12Z</time>
      </trkpt>
      <trkpt lat="46.68205" lon="5.82432">
        <ele>609</ele>
        <time>2020-02-28T09:05:13Z</time>
      </trkpt>
      <trkpt lat="46.68212" lon="5.82429">
        <ele>609</ele>
        <time>2020-02-28T09:05:14Z</time>
      </trkpt>
      <trkpt lat="46.68214" lon="5.82427">
        <ele>609</ele>
        <time>2020-02-28T09:05:15Z</time>
      </trkpt>
      <trkpt lat="46.68218" lon="5.82423">
        <ele>609.2</ele>
        <time>2020-02-28T09:05:16Z</time>
      </trkpt>
      <trkpt lat="46.68222" lon="5.82419">
        <ele>609.2</ele>
        <time>2020-02-28T09:05:17Z</time>
      </trkpt>
      <trkpt lat="46.68227" lon="5.82411">
        <ele>609.6</ele>
        <time>2020-02-28T09:05:18Z</time>
      </trkpt>
      <trkpt lat="46.68229" lon="5.82408">
        <ele>609.6</ele>
        <time>2020-02-28T09:05:19Z</time>
      </trkpt>
      <trkpt lat="46.68234" lon="5.824">
        <ele>609.6</ele>
        <time>2020-02-28T09:05:20Z</time>
      </trkpt>
      <trkpt lat="46.68236" lon="5.82397">
        <ele>609.8</ele>
        <time>2020-02-28T09:05:21Z</time>
      </trkpt>
      <trkpt lat="46.68239" lon="5.82392">
        <ele>609.8</ele>
        <time>2020-02-28T09:05:22Z</time>
      </trkpt>
      <trkpt lat="46.68245" lon="5.82384">
        <ele>610.2</ele>
        <time>2020-02-28T09:05:23Z</time>
      </trkpt>
      <trkpt lat="46.68247" lon="5.82381">
        <ele>610.2</ele>
        <time>2020-02-28T09:05:24Z</time>
      </trkpt>
      <trkpt lat="46.68252" lon="5.82374">
        <ele>610.4</ele>
        <time>2020-02-28T09:05:25Z</time>
      </trkpt>
      <trkpt lat="46.68254" lon="5.82372">
        <ele>610.4</ele>
        <time>2020-02-28T09:05:26Z</time>
      </trkpt>
      <trkpt lat="46.68257" lon="5.82367">
        <ele>610.4</ele>
        <time>2020-02-28T09:05:27Z</time>
      </trkpt>
      <trkpt lat="46.68261" lon="5.82362">
        <ele>610.8</ele>
        <time>2020-02-28T09:05:28Z</time>
      </trkpt>
      <trkpt lat="46.68266" lon="5.82355">
        <ele>610.8</ele>
        <time>2020-02-28T09:05:29Z</time>
      </trkpt>
      <trkpt lat="46.68268" lon="5.82353">
        <ele>610.8</ele>
        <time>2020-02-28T09:05:30Z</time>
      </trkpt>
      <trkpt lat="46.68272" lon="5.82348">
        <ele>610.8</ele>
        <time>2020-02-28T09:05:31Z</time>
      </trkpt>
      <trkpt lat="46.68276" lon="5.82343">
        <ele>610.8</ele>
        <time>2020-02-28T09:05:32Z</time>
      </trkpt>
      <trkpt lat="46.6828" lon="5.82338">
        <ele>610.8</ele>
        <time>2020-02-28T09:05:33Z</time>
      </trkpt>
      <trkpt lat="46.68286" lon="5.8233">
        <ele>610.8</ele>
        <time>2020-02-28T09:05:34Z</time>
      </trkpt>
      <trkpt lat="46.68289" lon="5.82328">
        <ele>610.8</ele>
        <time>2020-02-28T09:05:35Z</time>
      </trkpt>
      <trkpt lat="46.68293" lon="5.82322">
        <ele>610.6</ele>
        <time>2020-02-28T09:05:36Z</time>
      </trkpt>
      <trkpt lat="46.68297" lon="5.82316">
        <ele>610.4</ele>
        <time>2020-02-28T09:05:37Z</time>
      </trkpt>
      <trkpt lat="46.68301" lon="5.8231">
        <ele>610.4</ele>
        <time>2020-02-28T09:05:38Z</time>
      </trkpt>
      <trkpt lat="46.68306" lon="5.82305">
        <ele>610.4</ele>
        <time>2020-02-28T09:05:39Z</time>
      </trkpt>
      <trkpt lat="46.6831" lon="5.82299">
        <ele>610.2</ele>
        <time>2020-02-28T09:05:40Z</time>
      </trkpt>
      <trkpt lat="46.68315" lon="5.82293">
        <ele>610.2</ele>
        <time>2020-02-28T09:05:41Z</time>
      </trkpt>
      <trkpt lat="46.68322" lon="5.82285">
        <ele>610</ele>
        <time>2020-02-28T09:05:42Z</time>
      </trkpt>
      <trkpt lat="46.68324" lon="5.82282">
        <ele>610</ele>
        <time>2020-02-28T09:05:43Z</time>
      </trkpt>
      <trkpt lat="46.68329" lon="5.82276">
        <ele>609.6</ele>
        <time>2020-02-28T09:05:44Z</time>
      </trkpt>
      <trkpt lat="46.68334" lon="5.8227">
        <ele>609.6</ele>
        <time>2020-02-28T09:05:45Z</time>
      </trkpt>
      <trkpt lat="46.68341" lon="5.82262">
        <ele>609.4</ele>
        <time>2020-02-28T09:05:46Z</time>
      </trkpt>
      <trkpt lat="46.68344" lon="5.82259">
        <ele>609.4</ele>
        <time>2020-02-28T09:05:47Z</time>
      </trkpt>
      <trkpt lat="46.68348" lon="5.82253">
        <ele>609.4</ele>
        <time>2020-02-28T09:05:48Z</time>
      </trkpt>
      <trkpt lat="46.68353" lon="5.82248">
        <ele>609.2</ele>
        <time>2020-02-28T09:05:49Z</time>
      </trkpt>
      <trkpt lat="46.68358" lon="5.82242">
        <ele>609.2</ele>
        <time>2020-02-28T09:05:50Z</time>
      </trkpt>
      <trkpt lat="46.68363" lon="5.82237">
        <ele>608.8</ele>
        <time>2020-02-28T09:05:51Z</time>
      </trkpt>
      <trkpt lat="46.68368" lon="5.82231">
        <ele>608.8</ele>
        <time>2020-02-28T09:05:52Z</time>
      </trkpt>
      <trkpt lat="46.68372" lon="5.82226">
        <ele>608.6</ele>
        <time>2020-02-28T09:05:53Z</time>
      </trkpt>
      <trkpt lat="46.68379" lon="5.82218">
        <ele>608.6</ele>
        <time>2020-02-28T09:05:54Z</time>
      </trkpt>
      <trkpt lat="46.68381" lon="5.82215">
        <ele>608.6</ele>
        <time>2020-02-28T09:05:55Z</time>
      </trkpt>
      <trkpt lat="46.68386" lon="5.8221">
        <ele>608.6</ele>
        <time>2020-02-28T09:05:56Z</time>
      </trkpt>
      <trkpt lat="46.68391" lon="5.82206">
        <ele>608.4</ele>
        <time>2020-02-28T09:05:57Z</time>
      </trkpt>
      <trkpt lat="46.68395" lon="5.82201">
        <ele>608.4</ele>
        <time>2020-02-28T09:05:58Z</time>
      </trkpt>
      <trkpt lat="46.684" lon="5.82197">
        <ele>608.4</ele>
        <time>2020-02-28T09:05:59Z</time>
      </trkpt>
      <trkpt lat="46.68407" lon="5.82192">
        <ele>608.4</ele>
        <time>2020-02-28T09:06:00Z</time>
      </trkpt>
      <trkpt lat="46.68409" lon="5.8219">
        <ele>608</ele>
        <time>2020-02-28T09:06:01Z</time>
      </trkpt>
      <trkpt lat="46.68414" lon="5.82188">
        <ele>608</ele>
        <time>2020-02-28T09:06:02Z</time>
      </trkpt>
      <trkpt lat="46.68422" lon="5.82186">
        <ele>608</ele>
        <time>2020-02-28T09:06:03Z</time>
      </trkpt>
      <trkpt lat="46.68425" lon="5.82186">
        <ele>607.8</ele>
        <time>2020-02-28T09:06:04Z</time>
      </trkpt>
      <trkpt lat="46.68431" lon="5.82185">
        <ele>607.6</ele>
        <time>2020-02-28T09:06:05Z</time>
      </trkpt>
      <trkpt lat="46.6844" lon="5.82183">
        <ele>607.4</ele>
        <time>2020-02-28T09:06:06Z</time>
      </trkpt>
      <trkpt lat="46.68443" lon="5.82182">
        <ele>607.4</ele>
        <time>2020-02-28T09:06:07Z</time>
      </trkpt>
      <trkpt lat="46.68449" lon="5.82181">
        <ele>607</ele>
        <time>2020-02-28T09:06:08Z</time>
      </trkpt>
      <trkpt lat="46.68455" lon="5.82179">
        <ele>607</ele>
        <time>2020-02-28T09:06:09Z</time>
      </trkpt>
      <trkpt lat="46.68461" lon="5.82178">
        <ele>606.6</ele>
        <time>2020-02-28T09:06:10Z</time>
      </trkpt>
      <trkpt lat="46.68471" lon="5.82177">
        <ele>606.6</ele>
        <time>2020-02-28T09:06:11Z</time>
      </trkpt>
      <trkpt lat="46.68474" lon="5.82177">
        <ele>606.2</ele>
        <time>2020-02-28T09:06:12Z</time>
      </trkpt>
      <trkpt lat="46.6848" lon="5.82176">
        <ele>606.2</ele>
        <time>2020-02-28T09:06:13Z</time>
      </trkpt>
      <trkpt lat="46.68486" lon="5.82175">
        <ele>605.8</ele>
        <time>2020-02-28T09:06:14Z</time>
      </trkpt>
      <trkpt lat="46.68492" lon="5.82175">
        <ele>605.8</ele>
        <time>2020-02-28T09:06:15Z</time>
      </trkpt>
      <trkpt lat="46.685" lon="5.82174">
        <ele>605.8</ele>
        <time>2020-02-28T09:06:16Z</time>
      </trkpt>
      <trkpt lat="46.68503" lon="5.82174">
        <ele>605.8</ele>
        <time>2020-02-28T09:06:17Z</time>
      </trkpt>
      <trkpt lat="46.68508" lon="5.82173">
        <ele>605.6</ele>
        <time>2020-02-28T09:06:18Z</time>
      </trkpt>
      <trkpt lat="46.68513" lon="5.82173">
        <ele>605.6</ele>
        <time>2020-02-28T09:06:19Z</time>
      </trkpt>
      <trkpt lat="46.68519" lon="5.82172">
        <ele>605.6</ele>
        <time>2020-02-28T09:06:20Z</time>
      </trkpt>
      <trkpt lat="46.68524" lon="5.82171">
        <ele>605.6</ele>
        <time>2020-02-28T09:06:21Z</time>
      </trkpt>
      <trkpt lat="46.68531" lon="5.82169">
        <ele>605.6</ele>
        <time>2020-02-28T09:06:22Z</time>
      </trkpt>
      <trkpt lat="46.68534" lon="5.82169">
        <ele>605.6</ele>
        <time>2020-02-28T09:06:23Z</time>
      </trkpt>
      <trkpt lat="46.68539" lon="5.82168">
        <ele>605.6</ele>
        <time>2020-02-28T09:06:24Z</time>
      </trkpt>
      <trkpt lat="46.68544" lon="5.82167">
        <ele>605.6</ele>
        <time>2020-02-28T09:06:25Z</time>
      </trkpt>
      <trkpt lat="46.68549" lon="5.82166">
        <ele>605.6</ele>
        <time>2020-02-28T09:06:26Z</time>
      </trkpt>
      <trkpt lat="46.68553" lon="5.82166">
        <ele>605.6</ele>
        <time>2020-02-28T09:06:27Z</time>
      </trkpt>
      <trkpt lat="46.68558" lon="5.82166">
        <ele>605.6</ele>
        <time>2020-02-28T09:06:28Z</time>
      </trkpt>
      <trkpt lat="46.68563" lon="5.82167">
        <ele>605.6</ele>
        <time>2020-02-28T09:06:29Z</time>
      </trkpt>
      <trkpt lat="46.6857" lon="5.82169">
        <ele>605.6</ele>
        <time>2020-02-28T09:06:30Z</time>
      </trkpt>
      <trkpt lat="46.68572" lon="5.8217">
        <ele>605.6</ele>
        <time>2020-02-28T09:06:31Z</time>
      </trkpt>
      <trkpt lat="46.68576" lon="5.82172">
        <ele>605.6</ele>
        <time>2020-02-28T09:06:32Z</time>
      </trkpt>
      <trkpt lat="46.68582" lon="5.82173">
        <ele>605.6</ele>
        <time>2020-02-28T09:06:33Z</time>
      </trkpt>
      <trkpt lat="46.68584" lon="5.82174">
        <ele>605.6</ele>
        <time>2020-02-28T09:06:34Z</time>
      </trkpt>
      <trkpt lat="46.68588" lon="5.82176">
        <ele>605.6</ele>
        <time>2020-02-28T09:06:35Z</time>
      </trkpt>
      <trkpt lat="46.68592" lon="5.82178">
        <ele>605.6</ele>
        <time>2020-02-28T09:06:36Z</time>
      </trkpt>
      <trkpt lat="46.68596" lon="5.82181">
        <ele>605.6</ele>
        <time>2020-02-28T09:06:37Z</time>
      </trkpt>
      <trkpt lat="46.686" lon="5.82184">
        <ele>605.6</ele>
        <time>2020-02-28T09:06:38Z</time>
      </trkpt>
      <trkpt lat="46.68604" lon="5.82187">
        <ele>605.6</ele>
        <time>2020-02-28T09:06:39Z</time>
      </trkpt>
      <trkpt lat="46.68608" lon="5.8219">
        <ele>605.6</ele>
        <time>2020-02-28T09:06:40Z</time>
      </trkpt>
      <trkpt lat="46.68612" lon="5.82193">
        <ele>605.6</ele>
        <time>2020-02-28T09:06:41Z</time>
      </trkpt>
      <trkpt lat="46.68616" lon="5.82197">
        <ele>605.6</ele>
        <time>2020-02-28T09:06:42Z</time>
      </trkpt>
      <trkpt lat="46.6862" lon="5.82201">
        <ele>605.6</ele>
        <time>2020-02-28T09:06:43Z</time>
      </trkpt>
      <trkpt lat="46.68624" lon="5.82204">
        <ele>605.6</ele>
        <time>2020-02-28T09:06:44Z</time>
      </trkpt>
      <trkpt lat="46.68628" lon="5.82208">
        <ele>605.6</ele>
        <time>2020-02-28T09:06:45Z</time>
      </trkpt>
      <trkpt lat="46.68632" lon="5.82212">
        <ele>605.6</ele>
        <time>2020-02-28T09:06:46Z</time>
      </trkpt>
      <trkpt lat="46.68636" lon="5.82216">
        <ele>605.6</ele>
        <time>2020-02-28T09:06:47Z</time>
      </trkpt>
      <trkpt lat="46.6864" lon="5.8222">
        <ele>605.6</ele>
        <time>2020-02-28T09:06:48Z</time>
      </trkpt>
      <trkpt lat="46.68644" lon="5.82223">
        <ele>605.6</ele>
        <time>2020-02-28T09:06:49Z</time>
      </trkpt>
      <trkpt lat="46.68648" lon="5.82226">
        <ele>605.4</ele>
        <time>2020-02-28T09:06:50Z</time>
      </trkpt>
      <trkpt lat="46.68652" lon="5.82229">
        <ele>605.4</ele>
        <time>2020-02-28T09:06:51Z</time>
      </trkpt>
      <trkpt lat="46.68658" lon="5.82234">
        <ele>605.4</ele>
        <time>2020-02-28T09:06:52Z</time>
      </trkpt>
      <trkpt lat="46.6866" lon="5.82236">
        <ele>605.4</ele>
        <time>2020-02-28T09:06:53Z</time>
      </trkpt>
      <trkpt lat="46.68664" lon="5.82239">
        <ele>605.6</ele>
        <time>2020-02-28T09:06:54Z</time>
      </trkpt>
      <trkpt lat="46.68667" lon="5.82243">
        <ele>605.6</ele>
        <time>2020-02-28T09:06:55Z</time>
      </trkpt>
      <trkpt lat="46.68672" lon="5.82247">
        <ele>605.6</ele>
        <time>2020-02-28T09:06:56Z</time>
      </trkpt>
      <trkpt lat="46.68674" lon="5.82249">
        <ele>606</ele>
        <time>2020-02-28T09:06:57Z</time>
      </trkpt>
      <trkpt lat="46.68677" lon="5.82252">
        <ele>606</ele>
        <time>2020-02-28T09:06:58Z</time>
      </trkpt>
      <trkpt lat="46.68681" lon="5.82255">
        <ele>606</ele>
        <time>2020-02-28T09:06:59Z</time>
      </trkpt>
      <trkpt lat="46.68684" lon="5.82258">
        <ele>606.2</ele>
        <time>2020-02-28T09:07:00Z</time>
      </trkpt>
      <trkpt lat="46.68687" lon="5.8226">
        <ele>606.2</ele>
        <time>2020-02-28T09:07:01Z</time>
      </trkpt>
      <trkpt lat="46.68691" lon="5.82263">
        <ele>606.4</ele>
        <time>2020-02-28T09:07:02Z</time>
      </trkpt>
      <trkpt lat="46.68694" lon="5.82266">
        <ele>606.4</ele>
        <time>2020-02-28T09:07:03Z</time>
      </trkpt>
      <trkpt lat="46.68697" lon="5.82269">
        <ele>606.4</ele>
        <time>2020-02-28T09:07:04Z</time>
      </trkpt>
      <trkpt lat="46.68701" lon="5.82273">
        <ele>606.8</ele>
        <time>2020-02-28T09:07:05Z</time>
      </trkpt>
      <trkpt lat="46.68705" lon="5.82276">
        <ele>606.8</ele>
        <time>2020-02-28T09:07:06Z</time>
      </trkpt>
      <trkpt lat="46.68708" lon="5.82278">
        <ele>607.2</ele>
        <time>2020-02-28T09:07:07Z</time>
      </trkpt>
      <trkpt lat="46.68712" lon="5.8228">
        <ele>607.2</ele>
        <time>2020-02-28T09:07:08Z</time>
      </trkpt>
      <trkpt lat="46.68717" lon="5.82284">
        <ele>607.2</ele>
        <time>2020-02-28T09:07:09Z</time>
      </trkpt>
      <trkpt lat="46.68719" lon="5.82285">
        <ele>607.4</ele>
        <time>2020-02-28T09:07:10Z</time>
      </trkpt>
      <trkpt lat="46.68723" lon="5.82287">
        <ele>607.4</ele>
        <time>2020-02-28T09:07:11Z</time>
      </trkpt>
      <trkpt lat="46.68728" lon="5.82289">
        <ele>607.4</ele>
        <time>2020-02-28T09:07:12Z</time>
      </trkpt>
      <trkpt lat="46.6873" lon="5.8229">
        <ele>607.4</ele>
        <time>2020-02-28T09:07:13Z</time>
      </trkpt>
      <trkpt lat="46.68735" lon="5.82293">
        <ele>607.8</ele>
        <time>2020-02-28T09:07:14Z</time>
      </trkpt>
      <trkpt lat="46.68737" lon="5.82294">
        <ele>607.8</ele>
        <time>2020-02-28T09:07:15Z</time>
      </trkpt>
      <trkpt lat="46.68741" lon="5.82296">
        <ele>608</ele>
        <time>2020-02-28T09:07:16Z</time>
      </trkpt>
      <trkpt lat="46.68745" lon="5.82298">
        <ele>608</ele>
        <time>2020-02-28T09:07:17Z</time>
      </trkpt>
      <trkpt lat="46.68748" lon="5.82299">
        <ele>608.4</ele>
        <time>2020-02-28T09:07:18Z</time>
      </trkpt>
      <trkpt lat="46.68753" lon="5.82302">
        <ele>608.4</ele>
        <time>2020-02-28T09:07:19Z</time>
      </trkpt>
      <trkpt lat="46.68755" lon="5.82302">
        <ele>608.8</ele>
        <time>2020-02-28T09:07:20Z</time>
      </trkpt>
      <trkpt lat="46.68758" lon="5.82304">
        <ele>608.8</ele>
        <time>2020-02-28T09:07:21Z</time>
      </trkpt>
      <trkpt lat="46.68761" lon="5.82306">
        <ele>609</ele>
        <time>2020-02-28T09:07:22Z</time>
      </trkpt>
      <trkpt lat="46.68764" lon="5.82307">
        <ele>609</ele>
        <time>2020-02-28T09:07:23Z</time>
      </trkpt>
      <trkpt lat="46.68766" lon="5.82309">
        <ele>609.4</ele>
        <time>2020-02-28T09:07:24Z</time>
      </trkpt>
      <trkpt lat="46.68769" lon="5.8231">
        <ele>609.4</ele>
        <time>2020-02-28T09:07:25Z</time>
      </trkpt>
      <trkpt lat="46.68771" lon="5.82311">
        <ele>609.6</ele>
        <time>2020-02-28T09:07:26Z</time>
      </trkpt>
      <trkpt lat="46.68773" lon="5.82312">
        <ele>609.6</ele>
        <time>2020-02-28T09:07:27Z</time>
      </trkpt>
      <trkpt lat="46.68775" lon="5.82313">
        <ele>609.8</ele>
        <time>2020-02-28T09:07:28Z</time>
      </trkpt>
      <trkpt lat="46.68778" lon="5.82314">
        <ele>609.8</ele>
        <time>2020-02-28T09:07:29Z</time>
      </trkpt>
      <trkpt lat="46.6878" lon="5.82314">
        <ele>609.8</ele>
        <time>2020-02-28T09:07:30Z</time>
      </trkpt>
      <trkpt lat="46.68783" lon="5.82314">
        <ele>610</ele>
        <time>2020-02-28T09:08:25Z</time>
      </trkpt>
      <trkpt lat="46.68785" lon="5.82315">
        <ele>609.6</ele>
        <time>2020-02-28T09:08:26Z</time>
      </trkpt>
      <trkpt lat="46.68788" lon="5.82315">
        <ele>609.6</ele>
        <time>2020-02-28T09:08:27Z</time>
      </trkpt>
      <trkpt lat="46.68791" lon="5.82315">
        <ele>609.6</ele>
        <time>2020-02-28T09:08:28Z</time>
      </trkpt>
      <trkpt lat="46.68795" lon="5.82315">
        <ele>609.4</ele>
        <time>2020-02-28T09:08:29Z</time>
      </trkpt>
      <trkpt lat="46.68798" lon="5.82315">
        <ele>609.4</ele>
        <time>2020-02-28T09:08:30Z</time>
      </trkpt>
      <trkpt lat="46.68802" lon="5.82314">
        <ele>609.4</ele>
        <time>2020-02-28T09:08:31Z</time>
      </trkpt>
      <trkpt lat="46.68807" lon="5.82314">
        <ele>609.4</ele>
        <time>2020-02-28T09:08:32Z</time>
      </trkpt>
      <trkpt lat="46.68811" lon="5.82313">
        <ele>609.4</ele>
        <time>2020-02-28T09:08:33Z</time>
      </trkpt>
      <trkpt lat="46.68815" lon="5.82313">
        <ele>609.4</ele>
        <time>2020-02-28T09:08:34Z</time>
      </trkpt>
      <trkpt lat="46.68821" lon="5.82312">
        <ele>609.4</ele>
        <time>2020-02-28T09:08:35Z</time>
      </trkpt>
      <trkpt lat="46.68823" lon="5.82312">
        <ele>609.4</ele>
        <time>2020-02-28T09:08:36Z</time>
      </trkpt>
      <trkpt lat="46.68827" lon="5.82312">
        <ele>609.2</ele>
        <time>2020-02-28T09:08:37Z</time>
      </trkpt>
      <trkpt lat="46.68831" lon="5.82311">
        <ele>609.2</ele>
        <time>2020-02-28T09:08:38Z</time>
      </trkpt>
      <trkpt lat="46.68835" lon="5.82311">
        <ele>609.2</ele>
        <time>2020-02-28T09:08:39Z</time>
      </trkpt>
      <trkpt lat="46.68842" lon="5.82311">
        <ele>609.2</ele>
        <time>2020-02-28T09:08:40Z</time>
      </trkpt>
      <trkpt lat="46.68844" lon="5.82311">
        <ele>609.2</ele>
        <time>2020-02-28T09:08:41Z</time>
      </trkpt>
      <trkpt lat="46.68849" lon="5.82311">
        <ele>608.8</ele>
        <time>2020-02-28T09:08:42Z</time>
      </trkpt>
      <trkpt lat="46.68854" lon="5.82312">
        <ele>608.8</ele>
        <time>2020-02-28T09:08:43Z</time>
      </trkpt>
      <trkpt lat="46.6886" lon="5.82312">
        <ele>608.8</ele>
        <time>2020-02-28T09:08:44Z</time>
      </trkpt>
      <trkpt lat="46.68862" lon="5.82312">
        <ele>608.8</ele>
        <time>2020-02-28T09:08:45Z</time>
      </trkpt>
      <trkpt lat="46.68867" lon="5.82312">
        <ele>608.8</ele>
        <time>2020-02-28T09:08:46Z</time>
      </trkpt>
      <trkpt lat="46.68873" lon="5.82312">
        <ele>608.6</ele>
        <time>2020-02-28T09:08:47Z</time>
      </trkpt>
      <trkpt lat="46.68875" lon="5.82313">
        <ele>608.6</ele>
        <time>2020-02-28T09:08:48Z</time>
      </trkpt>
      <trkpt lat="46.68879" lon="5.82313">
        <ele>608.6</ele>
        <time>2020-02-28T09:08:49Z</time>
      </trkpt>
      <trkpt lat="46.68886" lon="5.82313">
        <ele>608.6</ele>
        <time>2020-02-28T09:08:50Z</time>
      </trkpt>
      <trkpt lat="46.68888" lon="5.82313">
        <ele>608.4</ele>
        <time>2020-02-28T09:08:51Z</time>
      </trkpt>
      <trkpt lat="46.68892" lon="5.82314">
        <ele>608.4</ele>
        <time>2020-02-28T09:08:52Z</time>
      </trkpt>
      <trkpt lat="46.68897" lon="5.82313">
        <ele>608.4</ele>
        <time>2020-02-28T09:08:53Z</time>
      </trkpt>
      <trkpt lat="46.68901" lon="5.82313">
        <ele>608.4</ele>
        <time>2020-02-28T09:08:54Z</time>
      </trkpt>
      <trkpt lat="46.68906" lon="5.82313">
        <ele>608.4</ele>
        <time>2020-02-28T09:08:55Z</time>
      </trkpt>
      <trkpt lat="46.6891" lon="5.82314">
        <ele>608.4</ele>
        <time>2020-02-28T09:08:56Z</time>
      </trkpt>
      <trkpt lat="46.68914" lon="5.82315">
        <ele>608.4</ele>
        <time>2020-02-28T09:08:57Z</time>
      </trkpt>
      <trkpt lat="46.68921" lon="5.82316">
        <ele>608.4</ele>
        <time>2020-02-28T09:08:58Z</time>
      </trkpt>
      <trkpt lat="46.68923" lon="5.82317">
        <ele>608.4</ele>
        <time>2020-02-28T09:08:59Z</time>
      </trkpt>
      <trkpt lat="46.68927" lon="5.82319">
        <ele>608</ele>
        <time>2020-02-28T09:09:00Z</time>
      </trkpt>
      <trkpt lat="46.68932" lon="5.82321">
        <ele>608</ele>
        <time>2020-02-28T09:09:01Z</time>
      </trkpt>
      <trkpt lat="46.68937" lon="5.82323">
        <ele>607.8</ele>
        <time>2020-02-28T09:09:02Z</time>
      </trkpt>
      <trkpt lat="46.68943" lon="5.82326">
        <ele>607.8</ele>
        <time>2020-02-28T09:09:03Z</time>
      </trkpt>
      <trkpt lat="46.68945" lon="5.82327">
        <ele>607.8</ele>
        <time>2020-02-28T09:09:04Z</time>
      </trkpt>
      <trkpt lat="46.68949" lon="5.82329">
        <ele>607.6</ele>
        <time>2020-02-28T09:09:05Z</time>
      </trkpt>
      <trkpt lat="46.68953" lon="5.82332">
        <ele>607.6</ele>
        <time>2020-02-28T09:09:06Z</time>
      </trkpt>
      <trkpt lat="46.68958" lon="5.82334">
        <ele>607.4</ele>
        <time>2020-02-28T09:09:07Z</time>
      </trkpt>
      <trkpt lat="46.68962" lon="5.82337">
        <ele>607.4</ele>
        <time>2020-02-28T09:09:08Z</time>
      </trkpt>
      <trkpt lat="46.68969" lon="5.8234">
        <ele>607.4</ele>
        <time>2020-02-28T09:09:09Z</time>
      </trkpt>
      <trkpt lat="46.68971" lon="5.82341">
        <ele>607</ele>
        <time>2020-02-28T09:09:10Z</time>
      </trkpt>
      <trkpt lat="46.68975" lon="5.82342">
        <ele>607</ele>
        <time>2020-02-28T09:09:11Z</time>
      </trkpt>
      <trkpt lat="46.6898" lon="5.82343">
        <ele>607</ele>
        <time>2020-02-28T09:09:12Z</time>
      </trkpt>
      <trkpt lat="46.68984" lon="5.82345">
        <ele>607</ele>
        <time>2020-02-28T09:09:13Z</time>
      </trkpt>
      <trkpt lat="46.68988" lon="5.82346">
        <ele>607</ele>
        <time>2020-02-28T09:09:14Z</time>
      </trkpt>
      <trkpt lat="46.68994" lon="5.82348">
        <ele>607</ele>
        <time>2020-02-28T09:09:15Z</time>
      </trkpt>
      <trkpt lat="46.68997" lon="5.82348">
        <ele>607</ele>
        <time>2020-02-28T09:09:16Z</time>
      </trkpt>
      <trkpt lat="46.69001" lon="5.82349">
        <ele>607</ele>
        <time>2020-02-28T09:09:17Z</time>
      </trkpt>
      <trkpt lat="46.69006" lon="5.82349">
        <ele>607</ele>
        <time>2020-02-28T09:09:18Z</time>
      </trkpt>
      <trkpt lat="46.6901" lon="5.8235">
        <ele>607</ele>
        <time>2020-02-28T09:09:19Z</time>
      </trkpt>
      <trkpt lat="46.69015" lon="5.8235">
        <ele>607</ele>
        <time>2020-02-28T09:09:20Z</time>
      </trkpt>
      <trkpt lat="46.69019" lon="5.82351">
        <ele>607</ele>
        <time>2020-02-28T09:09:21Z</time>
      </trkpt>
      <trkpt lat="46.69024" lon="5.82351">
        <ele>607</ele>
        <time>2020-02-28T09:09:22Z</time>
      </trkpt>
      <trkpt lat="46.69029" lon="5.82351">
        <ele>607</ele>
        <time>2020-02-28T09:09:23Z</time>
      </trkpt>
      <trkpt lat="46.69034" lon="5.82351">
        <ele>607</ele>
        <time>2020-02-28T09:09:24Z</time>
      </trkpt>
      <trkpt lat="46.69039" lon="5.82352">
        <ele>607</ele>
        <time>2020-02-28T09:09:25Z</time>
      </trkpt>
      <trkpt lat="46.69044" lon="5.82352">
        <ele>607</ele>
        <time>2020-02-28T09:09:26Z</time>
      </trkpt>
      <trkpt lat="46.69051" lon="5.82351">
        <ele>607.2</ele>
        <time>2020-02-28T09:09:27Z</time>
      </trkpt>
      <trkpt lat="46.69054" lon="5.82351">
        <ele>607.2</ele>
        <time>2020-02-28T09:09:28Z</time>
      </trkpt>
      <trkpt lat="46.69059" lon="5.82351">
        <ele>607.2</ele>
        <time>2020-02-28T09:09:29Z</time>
      </trkpt>
      <trkpt lat="46.69064" lon="5.82351">
        <ele>607.4</ele>
        <time>2020-02-28T09:09:30Z</time>
      </trkpt>
      <trkpt lat="46.69071" lon="5.82351">
        <ele>607.4</ele>
        <time>2020-02-28T09:09:31Z</time>
      </trkpt>
      <trkpt lat="46.69073" lon="5.82351">
        <ele>607.4</ele>
        <time>2020-02-28T09:09:32Z</time>
      </trkpt>
      <trkpt lat="46.69078" lon="5.82352">
        <ele>607.4</ele>
        <time>2020-02-28T09:09:33Z</time>
      </trkpt>
      <trkpt lat="46.69083" lon="5.82352">
        <ele>607.4</ele>
        <time>2020-02-28T09:09:34Z</time>
      </trkpt>
      <trkpt lat="46.69088" lon="5.82351">
        <ele>607.6</ele>
        <time>2020-02-28T09:09:35Z</time>
      </trkpt>
      <trkpt lat="46.69093" lon="5.8235">
        <ele>607.6</ele>
        <time>2020-02-28T09:09:36Z</time>
      </trkpt>
      <trkpt lat="46.69098" lon="5.8235">
        <ele>608</ele>
        <time>2020-02-28T09:09:37Z</time>
      </trkpt>
      <trkpt lat="46.69102" lon="5.82349">
        <ele>608</ele>
        <time>2020-02-28T09:09:38Z</time>
      </trkpt>
      <trkpt lat="46.69108" lon="5.82349">
        <ele>608.2</ele>
        <time>2020-02-28T09:09:39Z</time>
      </trkpt>
      <trkpt lat="46.69113" lon="5.82349">
        <ele>608.2</ele>
        <time>2020-02-28T09:09:40Z</time>
      </trkpt>
      <trkpt lat="46.69118" lon="5.8235">
        <ele>608.2</ele>
        <time>2020-02-28T09:09:41Z</time>
      </trkpt>
      <trkpt lat="46.69123" lon="5.8235">
        <ele>608.2</ele>
        <time>2020-02-28T09:09:42Z</time>
      </trkpt>
      <trkpt lat="46.69128" lon="5.82351">
        <ele>608.4</ele>
        <time>2020-02-28T09:09:43Z</time>
      </trkpt>
      <trkpt lat="46.69135" lon="5.82351">
        <ele>608.4</ele>
        <time>2020-02-28T09:09:44Z</time>
      </trkpt>
      <trkpt lat="46.69137" lon="5.82351">
        <ele>608.4</ele>
        <time>2020-02-28T09:09:45Z</time>
      </trkpt>
      <trkpt lat="46.69141" lon="5.8235">
        <ele>608.6</ele>
        <time>2020-02-28T09:09:46Z</time>
      </trkpt>
      <trkpt lat="46.69146" lon="5.8235">
        <ele>608.6</ele>
        <time>2020-02-28T09:09:47Z</time>
      </trkpt>
      <trkpt lat="46.69153" lon="5.82349">
        <ele>608.6</ele>
        <time>2020-02-28T09:09:48Z</time>
      </trkpt>
      <trkpt lat="46.69155" lon="5.82349">
        <ele>608.8</ele>
        <time>2020-02-28T09:09:49Z</time>
      </trkpt>
      <trkpt lat="46.69161" lon="5.82349">
        <ele>608.8</ele>
        <time>2020-02-28T09:09:50Z</time>
      </trkpt>
      <trkpt lat="46.69163" lon="5.82348">
        <ele>608.8</ele>
        <time>2020-02-28T09:09:51Z</time>
      </trkpt>
      <trkpt lat="46.69169" lon="5.82349">
        <ele>608.8</ele>
        <time>2020-02-28T09:09:52Z</time>
      </trkpt>
      <trkpt lat="46.69174" lon="5.82348">
        <ele>608.8</ele>
        <time>2020-02-28T09:09:53Z</time>
      </trkpt>
      <trkpt lat="46.69179" lon="5.82348">
        <ele>609</ele>
        <time>2020-02-28T09:09:54Z</time>
      </trkpt>
      <trkpt lat="46.69184" lon="5.82348">
        <ele>609</ele>
        <time>2020-02-28T09:09:55Z</time>
      </trkpt>
      <trkpt lat="46.69193" lon="5.82348">
        <ele>609</ele>
        <time>2020-02-28T09:09:56Z</time>
      </trkpt>
      <trkpt lat="46.69195" lon="5.82348">
        <ele>609</ele>
        <time>2020-02-28T09:09:57Z</time>
      </trkpt>
      <trkpt lat="46.69201" lon="5.82348">
        <ele>609</ele>
        <time>2020-02-28T09:09:58Z</time>
      </trkpt>
      <trkpt lat="46.69206" lon="5.82348">
        <ele>609.4</ele>
        <time>2020-02-28T09:09:59Z</time>
      </trkpt>
      <trkpt lat="46.69211" lon="5.82348">
        <ele>609.4</ele>
        <time>2020-02-28T09:10:00Z</time>
      </trkpt>
      <trkpt lat="46.69216" lon="5.82348">
        <ele>609.4</ele>
        <time>2020-02-28T09:10:01Z</time>
      </trkpt>
      <trkpt lat="46.69221" lon="5.82348">
        <ele>609.6</ele>
        <time>2020-02-28T09:10:02Z</time>
      </trkpt>
      <trkpt lat="46.69229" lon="5.82348">
        <ele>609.6</ele>
        <time>2020-02-28T09:10:03Z</time>
      </trkpt>
      <trkpt lat="46.69231" lon="5.82348">
        <ele>609.6</ele>
        <time>2020-02-28T09:10:04Z</time>
      </trkpt>
      <trkpt lat="46.69236" lon="5.82348">
        <ele>609.8</ele>
        <time>2020-02-28T09:10:05Z</time>
      </trkpt>
      <trkpt lat="46.69242" lon="5.82348">
        <ele>609.8</ele>
        <time>2020-02-28T09:10:06Z</time>
      </trkpt>
      <trkpt lat="46.69247" lon="5.82347">
        <ele>609.8</ele>
        <time>2020-02-28T09:10:07Z</time>
      </trkpt>
      <trkpt lat="46.69252" lon="5.82347">
        <ele>609.8</ele>
        <time>2020-02-28T09:10:08Z</time>
      </trkpt>
      <trkpt lat="46.69257" lon="5.82347">
        <ele>609.8</ele>
        <time>2020-02-28T09:10:09Z</time>
      </trkpt>
      <trkpt lat="46.69261" lon="5.82348">
        <ele>610</ele>
        <time>2020-02-28T09:10:10Z</time>
      </trkpt>
      <trkpt lat="46.69266" lon="5.82349">
        <ele>610</ele>
        <time>2020-02-28T09:10:11Z</time>
      </trkpt>
      <trkpt lat="46.69273" lon="5.82349">
        <ele>610</ele>
        <time>2020-02-28T09:10:12Z</time>
      </trkpt>
      <trkpt lat="46.69275" lon="5.8235">
        <ele>610</ele>
        <time>2020-02-28T09:10:13Z</time>
      </trkpt>
      <trkpt lat="46.69282" lon="5.82349">
        <ele>610</ele>
        <time>2020-02-28T09:10:14Z</time>
      </trkpt>
      <trkpt lat="46.69284" lon="5.82349">
        <ele>610</ele>
        <time>2020-02-28T09:10:15Z</time>
      </trkpt>
      <trkpt lat="46.69289" lon="5.82349">
        <ele>610</ele>
        <time>2020-02-28T09:10:16Z</time>
      </trkpt>
      <trkpt lat="46.69293" lon="5.82349">
        <ele>610.4</ele>
        <time>2020-02-28T09:10:17Z</time>
      </trkpt>
      <trkpt lat="46.69298" lon="5.82349">
        <ele>610.4</ele>
        <time>2020-02-28T09:10:18Z</time>
      </trkpt>
      <trkpt lat="46.69303" lon="5.82349">
        <ele>610.4</ele>
        <time>2020-02-28T09:10:19Z</time>
      </trkpt>
      <trkpt lat="46.69307" lon="5.8235">
        <ele>610.6</ele>
        <time>2020-02-28T09:10:20Z</time>
      </trkpt>
      <trkpt lat="46.69312" lon="5.82351">
        <ele>610.6</ele>
        <time>2020-02-28T09:10:21Z</time>
      </trkpt>
      <trkpt lat="46.69318" lon="5.82351">
        <ele>610.6</ele>
        <time>2020-02-28T09:10:22Z</time>
      </trkpt>
      <trkpt lat="46.69323" lon="5.82352">
        <ele>610.6</ele>
        <time>2020-02-28T09:10:23Z</time>
      </trkpt>
      <trkpt lat="46.69329" lon="5.82353">
        <ele>610.6</ele>
        <time>2020-02-28T09:10:24Z</time>
      </trkpt>
      <trkpt lat="46.69334" lon="5.82354">
        <ele>610.6</ele>
        <time>2020-02-28T09:10:25Z</time>
      </trkpt>
      <trkpt lat="46.69341" lon="5.82356">
        <ele>610.8</ele>
        <time>2020-02-28T09:10:26Z</time>
      </trkpt>
      <trkpt lat="46.69343" lon="5.82356">
        <ele>610.8</ele>
        <time>2020-02-28T09:10:27Z</time>
      </trkpt>
      <trkpt lat="46.69348" lon="5.82357">
        <ele>610.8</ele>
        <time>2020-02-28T09:10:28Z</time>
      </trkpt>
      <trkpt lat="46.69353" lon="5.82359">
        <ele>610.8</ele>
        <time>2020-02-28T09:10:29Z</time>
      </trkpt>
      <trkpt lat="46.69358" lon="5.82361">
        <ele>610.8</ele>
        <time>2020-02-28T09:10:30Z</time>
      </trkpt>
      <trkpt lat="46.69364" lon="5.82363">
        <ele>611.2</ele>
        <time>2020-02-28T09:10:31Z</time>
      </trkpt>
      <trkpt lat="46.69369" lon="5.82365">
        <ele>611.2</ele>
        <time>2020-02-28T09:10:32Z</time>
      </trkpt>
      <trkpt lat="46.69375" lon="5.82369">
        <ele>611.2</ele>
        <time>2020-02-28T09:10:33Z</time>
      </trkpt>
      <trkpt lat="46.69379" lon="5.82371">
        <ele>611.2</ele>
        <time>2020-02-28T09:10:34Z</time>
      </trkpt>
      <trkpt lat="46.69387" lon="5.82374">
        <ele>611.4</ele>
        <time>2020-02-28T09:10:35Z</time>
      </trkpt>
      <trkpt lat="46.69389" lon="5.82375">
        <ele>611.4</ele>
        <time>2020-02-28T09:10:36Z</time>
      </trkpt>
      <trkpt lat="46.69395" lon="5.82379">
        <ele>611.4</ele>
        <time>2020-02-28T09:10:37Z</time>
      </trkpt>
      <trkpt lat="46.69398" lon="5.82381">
        <ele>611.6</ele>
        <time>2020-02-28T09:10:38Z</time>
      </trkpt>
      <trkpt lat="46.69402" lon="5.82385">
        <ele>611.6</ele>
        <time>2020-02-28T09:10:39Z</time>
      </trkpt>
      <trkpt lat="46.69407" lon="5.82389">
        <ele>611.6</ele>
        <time>2020-02-28T09:10:40Z</time>
      </trkpt>
      <trkpt lat="46.69413" lon="5.82391">
        <ele>611.8</ele>
        <time>2020-02-28T09:10:41Z</time>
      </trkpt>
      <trkpt lat="46.69422" lon="5.82394">
        <ele>611.8</ele>
        <time>2020-02-28T09:10:42Z</time>
      </trkpt>
      <trkpt lat="46.69425" lon="5.82395">
        <ele>612.2</ele>
        <time>2020-02-28T09:10:43Z</time>
      </trkpt>
      <trkpt lat="46.69434" lon="5.824">
        <ele>612.2</ele>
        <time>2020-02-28T09:10:44Z</time>
      </trkpt>
      <trkpt lat="46.69437" lon="5.82402">
        <ele>612.2</ele>
        <time>2020-02-28T09:10:45Z</time>
      </trkpt>
      <trkpt lat="46.69443" lon="5.82407">
        <ele>612.4</ele>
        <time>2020-02-28T09:10:46Z</time>
      </trkpt>
      <trkpt lat="46.69451" lon="5.82408">
        <ele>612.4</ele>
        <time>2020-02-28T09:10:47Z</time>
      </trkpt>
      <trkpt lat="46.69454" lon="5.82408">
        <ele>612.4</ele>
        <time>2020-02-28T09:10:48Z</time>
      </trkpt>
      <trkpt lat="46.69459" lon="5.82408">
        <ele>612.6</ele>
        <time>2020-02-28T09:10:49Z</time>
      </trkpt>
      <trkpt lat="46.69466" lon="5.82406">
        <ele>612.6</ele>
        <time>2020-02-28T09:10:50Z</time>
      </trkpt>
      <trkpt lat="46.69468" lon="5.82406">
        <ele>613</ele>
        <time>2020-02-28T09:10:51Z</time>
      </trkpt>
      <trkpt lat="46.69473" lon="5.82405">
        <ele>613</ele>
        <time>2020-02-28T09:10:52Z</time>
      </trkpt>
      <trkpt lat="46.69478" lon="5.82404">
        <ele>613</ele>
        <time>2020-02-28T09:10:53Z</time>
      </trkpt>
      <trkpt lat="46.69482" lon="5.82403">
        <ele>613.2</ele>
        <time>2020-02-28T09:10:54Z</time>
      </trkpt>
      <trkpt lat="46.69487" lon="5.82401">
        <ele>613.2</ele>
        <time>2020-02-28T09:10:55Z</time>
      </trkpt>
      <trkpt lat="46.69491" lon="5.82399">
        <ele>613.2</ele>
        <time>2020-02-28T09:10:56Z</time>
      </trkpt>
      <trkpt lat="46.69496" lon="5.82397">
        <ele>613.4</ele>
        <time>2020-02-28T09:10:57Z</time>
      </trkpt>
      <trkpt lat="46.695" lon="5.82396">
        <ele>613.4</ele>
        <time>2020-02-28T09:10:58Z</time>
      </trkpt>
      <trkpt lat="46.69506" lon="5.82395">
        <ele>613.6</ele>
        <time>2020-02-28T09:10:59Z</time>
      </trkpt>
      <trkpt lat="46.69511" lon="5.82394">
        <ele>613.6</ele>
        <time>2020-02-28T09:11:00Z</time>
      </trkpt>
      <trkpt lat="46.6952" lon="5.82393">
        <ele>613.6</ele>
        <time>2020-02-28T09:11:01Z</time>
      </trkpt>
      <trkpt lat="46.69522" lon="5.82393">
        <ele>613.6</ele>
        <time>2020-02-28T09:11:02Z</time>
      </trkpt>
      <trkpt lat="46.69528" lon="5.82392">
        <ele>613.6</ele>
        <time>2020-02-28T09:11:03Z</time>
      </trkpt>
      <trkpt lat="46.69533" lon="5.82391">
        <ele>613.6</ele>
        <time>2020-02-28T09:11:04Z</time>
      </trkpt>
      <trkpt lat="46.69538" lon="5.82392">
        <ele>614</ele>
        <time>2020-02-28T09:11:05Z</time>
      </trkpt>
      <trkpt lat="46.69544" lon="5.82395">
        <ele>614</ele>
        <time>2020-02-28T09:11:06Z</time>
      </trkpt>
      <trkpt lat="46.69549" lon="5.82395">
        <ele>614</ele>
        <time>2020-02-28T09:11:07Z</time>
      </trkpt>
      <trkpt lat="46.69558" lon="5.82393">
        <ele>614</ele>
        <time>2020-02-28T09:11:08Z</time>
      </trkpt>
      <trkpt lat="46.6956" lon="5.82393">
        <ele>614.2</ele>
        <time>2020-02-28T09:11:09Z</time>
      </trkpt>
      <trkpt lat="46.69565" lon="5.82394">
        <ele>614.2</ele>
        <time>2020-02-28T09:11:10Z</time>
      </trkpt>
      <trkpt lat="46.6957" lon="5.82395">
        <ele>614.4</ele>
        <time>2020-02-28T09:11:11Z</time>
      </trkpt>
      <trkpt lat="46.69578" lon="5.82397">
        <ele>614.4</ele>
        <time>2020-02-28T09:11:12Z</time>
      </trkpt>
      <trkpt lat="46.6958" lon="5.82397">
        <ele>614.6</ele>
        <time>2020-02-28T09:11:13Z</time>
      </trkpt>
      <trkpt lat="46.69586" lon="5.82398">
        <ele>614.6</ele>
        <time>2020-02-28T09:11:14Z</time>
      </trkpt>
      <trkpt lat="46.6959" lon="5.824">
        <ele>614.6</ele>
        <time>2020-02-28T09:11:15Z</time>
      </trkpt>
      <trkpt lat="46.69595" lon="5.82402">
        <ele>614.6</ele>
        <time>2020-02-28T09:11:16Z</time>
      </trkpt>
      <trkpt lat="46.69602" lon="5.82406">
        <ele>615</ele>
        <time>2020-02-28T09:11:17Z</time>
      </trkpt>
      <trkpt lat="46.69604" lon="5.82408">
        <ele>615</ele>
        <time>2020-02-28T09:11:18Z</time>
      </trkpt>
      <trkpt lat="46.69609" lon="5.82411">
        <ele>615</ele>
        <time>2020-02-28T09:11:19Z</time>
      </trkpt>
      <trkpt lat="46.69614" lon="5.82414">
        <ele>615.2</ele>
        <time>2020-02-28T09:11:20Z</time>
      </trkpt>
      <trkpt lat="46.69619" lon="5.82416">
        <ele>615.2</ele>
        <time>2020-02-28T09:11:21Z</time>
      </trkpt>
      <trkpt lat="46.69624" lon="5.82419">
        <ele>615.2</ele>
        <time>2020-02-28T09:11:22Z</time>
      </trkpt>
      <trkpt lat="46.69629" lon="5.82422">
        <ele>615.2</ele>
        <time>2020-02-28T09:11:23Z</time>
      </trkpt>
      <trkpt lat="46.69634" lon="5.82425">
        <ele>615.2</ele>
        <time>2020-02-28T09:11:24Z</time>
      </trkpt>
      <trkpt lat="46.69639" lon="5.82428">
        <ele>615.2</ele>
        <time>2020-02-28T09:11:25Z</time>
      </trkpt>
      <trkpt lat="46.69643" lon="5.82431">
        <ele>615.2</ele>
        <time>2020-02-28T09:11:26Z</time>
      </trkpt>
      <trkpt lat="46.69648" lon="5.82434">
        <ele>615.2</ele>
        <time>2020-02-28T09:11:27Z</time>
      </trkpt>
      <trkpt lat="46.69652" lon="5.82436">
        <ele>615.2</ele>
        <time>2020-02-28T09:11:28Z</time>
      </trkpt>
      <trkpt lat="46.69657" lon="5.82438">
        <ele>615.4</ele>
        <time>2020-02-28T09:11:29Z</time>
      </trkpt>
      <trkpt lat="46.69662" lon="5.8244">
        <ele>615.4</ele>
        <time>2020-02-28T09:11:30Z</time>
      </trkpt>
      <trkpt lat="46.69669" lon="5.82445">
        <ele>615.4</ele>
        <time>2020-02-28T09:11:31Z</time>
      </trkpt>
      <trkpt lat="46.69671" lon="5.82447">
        <ele>615.4</ele>
        <time>2020-02-28T09:11:32Z</time>
      </trkpt>
      <trkpt lat="46.69676" lon="5.8245">
        <ele>615.6</ele>
        <time>2020-02-28T09:11:33Z</time>
      </trkpt>
      <trkpt lat="46.6968" lon="5.82453">
        <ele>615.6</ele>
        <time>2020-02-28T09:11:34Z</time>
      </trkpt>
      <trkpt lat="46.69685" lon="5.82456">
        <ele>615.6</ele>
        <time>2020-02-28T09:11:35Z</time>
      </trkpt>
      <trkpt lat="46.69689" lon="5.82459">
        <ele>615.8</ele>
        <time>2020-02-28T09:11:36Z</time>
      </trkpt>
      <trkpt lat="46.69694" lon="5.82463">
        <ele>615.8</ele>
        <time>2020-02-28T09:11:37Z</time>
      </trkpt>
      <trkpt lat="46.69699" lon="5.82466">
        <ele>615.8</ele>
        <time>2020-02-28T09:11:38Z</time>
      </trkpt>
      <trkpt lat="46.69704" lon="5.8247">
        <ele>615.8</ele>
        <time>2020-02-28T09:11:39Z</time>
      </trkpt>
      <trkpt lat="46.69709" lon="5.82473">
        <ele>616</ele>
        <time>2020-02-28T09:11:40Z</time>
      </trkpt>
      <trkpt lat="46.69716" lon="5.82478">
        <ele>616</ele>
        <time>2020-02-28T09:11:41Z</time>
      </trkpt>
      <trkpt lat="46.69719" lon="5.8248">
        <ele>616</ele>
        <time>2020-02-28T09:11:42Z</time>
      </trkpt>
      <trkpt lat="46.69726" lon="5.82485">
        <ele>616</ele>
        <time>2020-02-28T09:11:43Z</time>
      </trkpt>
      <trkpt lat="46.69729" lon="5.82486">
        <ele>616.2</ele>
        <time>2020-02-28T09:11:44Z</time>
      </trkpt>
      <trkpt lat="46.69734" lon="5.82489">
        <ele>616.2</ele>
        <time>2020-02-28T09:11:45Z</time>
      </trkpt>
      <trkpt lat="46.69741" lon="5.82493">
        <ele>616.6</ele>
        <time>2020-02-28T09:11:46Z</time>
      </trkpt>
      <trkpt lat="46.69744" lon="5.82494">
        <ele>616.6</ele>
        <time>2020-02-28T09:11:47Z</time>
      </trkpt>
      <trkpt lat="46.69751" lon="5.82497">
        <ele>616.6</ele>
        <time>2020-02-28T09:11:48Z</time>
      </trkpt>
      <trkpt lat="46.69754" lon="5.82498">
        <ele>616.6</ele>
        <time>2020-02-28T09:11:49Z</time>
      </trkpt>
      <trkpt lat="46.69762" lon="5.82501">
        <ele>616.8</ele>
        <time>2020-02-28T09:11:50Z</time>
      </trkpt>
      <trkpt lat="46.69764" lon="5.82502">
        <ele>616.8</ele>
        <time>2020-02-28T09:11:51Z</time>
      </trkpt>
      <trkpt lat="46.69769" lon="5.82504">
        <ele>616.8</ele>
        <time>2020-02-28T09:11:52Z</time>
      </trkpt>
      <trkpt lat="46.69774" lon="5.82506">
        <ele>616.8</ele>
        <time>2020-02-28T09:11:53Z</time>
      </trkpt>
      <trkpt lat="46.69782" lon="5.82509">
        <ele>617</ele>
        <time>2020-02-28T09:11:54Z</time>
      </trkpt>
      <trkpt lat="46.69784" lon="5.8251">
        <ele>617</ele>
        <time>2020-02-28T09:11:55Z</time>
      </trkpt>
      <trkpt lat="46.69789" lon="5.82512">
        <ele>617</ele>
        <time>2020-02-28T09:11:56Z</time>
      </trkpt>
      <trkpt lat="46.69794" lon="5.82513">
        <ele>617</ele>
        <time>2020-02-28T09:11:57Z</time>
      </trkpt>
      <trkpt lat="46.69799" lon="5.82515">
        <ele>617</ele>
        <time>2020-02-28T09:11:58Z</time>
      </trkpt>
      <trkpt lat="46.69804" lon="5.82516">
        <ele>617</ele>
        <time>2020-02-28T09:11:59Z</time>
      </trkpt>
      <trkpt lat="46.69809" lon="5.82518">
        <ele>617</ele>
        <time>2020-02-28T09:12:00Z</time>
      </trkpt>
      <trkpt lat="46.69814" lon="5.8252">
        <ele>617.2</ele>
        <time>2020-02-28T09:12:01Z</time>
      </trkpt>
      <trkpt lat="46.69819" lon="5.82522">
        <ele>617.2</ele>
        <time>2020-02-28T09:12:02Z</time>
      </trkpt>
      <trkpt lat="46.69824" lon="5.82524">
        <ele>617.4</ele>
        <time>2020-02-28T09:12:03Z</time>
      </trkpt>
      <trkpt lat="46.69832" lon="5.82528">
        <ele>617.4</ele>
        <time>2020-02-28T09:12:04Z</time>
      </trkpt>
      <trkpt lat="46.69834" lon="5.82529">
        <ele>617.4</ele>
        <time>2020-02-28T09:12:05Z</time>
      </trkpt>
      <trkpt lat="46.69842" lon="5.82532">
        <ele>617.4</ele>
        <time>2020-02-28T09:12:06Z</time>
      </trkpt>
      <trkpt lat="46.69844" lon="5.82533">
        <ele>617.4</ele>
        <time>2020-02-28T09:12:07Z</time>
      </trkpt>
      <trkpt lat="46.69849" lon="5.82535">
        <ele>617.4</ele>
        <time>2020-02-28T09:12:08Z</time>
      </trkpt>
      <trkpt lat="46.69855" lon="5.8254">
        <ele>617.4</ele>
        <time>2020-02-28T09:12:09Z</time>
      </trkpt>
      <trkpt lat="46.69863" lon="5.82547">
        <ele>617.8</ele>
        <time>2020-02-28T09:12:10Z</time>
      </trkpt>
      <trkpt lat="46.69866" lon="5.82548">
        <ele>617.8</ele>
        <time>2020-02-28T09:12:11Z</time>
      </trkpt>
      <trkpt lat="46.69871" lon="5.82551">
        <ele>617.8</ele>
        <time>2020-02-28T09:12:12Z</time>
      </trkpt>
      <trkpt lat="46.69876" lon="5.82553">
        <ele>617.8</ele>
        <time>2020-02-28T09:12:13Z</time>
      </trkpt>
      <trkpt lat="46.69882" lon="5.82556">
        <ele>617.8</ele>
        <time>2020-02-28T09:12:14Z</time>
      </trkpt>
      <trkpt lat="46.69887" lon="5.82558">
        <ele>617.8</ele>
        <time>2020-02-28T09:12:15Z</time>
      </trkpt>
      <trkpt lat="46.69892" lon="5.82559">
        <ele>617.8</ele>
        <time>2020-02-28T09:12:16Z</time>
      </trkpt>
      <trkpt lat="46.69897" lon="5.82561">
        <ele>617.8</ele>
        <time>2020-02-28T09:12:17Z</time>
      </trkpt>
      <trkpt lat="46.69902" lon="5.82564">
        <ele>618</ele>
        <time>2020-02-28T09:12:18Z</time>
      </trkpt>
      <trkpt lat="46.69907" lon="5.82567">
        <ele>618</ele>
        <time>2020-02-28T09:12:19Z</time>
      </trkpt>
      <trkpt lat="46.69912" lon="5.8257">
        <ele>618</ele>
        <time>2020-02-28T09:12:20Z</time>
      </trkpt>
      <trkpt lat="46.69916" lon="5.82572">
        <ele>618</ele>
        <time>2020-02-28T09:12:21Z</time>
      </trkpt>
      <trkpt lat="46.69922" lon="5.82577">
        <ele>618.2</ele>
        <time>2020-02-28T09:12:22Z</time>
      </trkpt>
      <trkpt lat="46.69924" lon="5.82579">
        <ele>618.2</ele>
        <time>2020-02-28T09:12:23Z</time>
      </trkpt>
      <trkpt lat="46.69928" lon="5.82583">
        <ele>618.6</ele>
        <time>2020-02-28T09:12:24Z</time>
      </trkpt>
      <trkpt lat="46.69932" lon="5.82587">
        <ele>618.6</ele>
        <time>2020-02-28T09:12:25Z</time>
      </trkpt>
      <trkpt lat="46.69936" lon="5.82591">
        <ele>618.8</ele>
        <time>2020-02-28T09:12:26Z</time>
      </trkpt>
      <trkpt lat="46.69942" lon="5.82596">
        <ele>618.8</ele>
        <time>2020-02-28T09:12:27Z</time>
      </trkpt>
      <trkpt lat="46.69944" lon="5.82598">
        <ele>619</ele>
        <time>2020-02-28T09:12:28Z</time>
      </trkpt>
      <trkpt lat="46.69948" lon="5.82602">
        <ele>619</ele>
        <time>2020-02-28T09:12:29Z</time>
      </trkpt>
      <trkpt lat="46.69952" lon="5.82606">
        <ele>619.4</ele>
        <time>2020-02-28T09:12:30Z</time>
      </trkpt>
      <trkpt lat="46.69956" lon="5.8261">
        <ele>619.4</ele>
        <time>2020-02-28T09:12:31Z</time>
      </trkpt>
      <trkpt lat="46.6996" lon="5.82614">
        <ele>619.6</ele>
        <time>2020-02-28T09:12:32Z</time>
      </trkpt>
      <trkpt lat="46.69964" lon="5.82617">
        <ele>619.6</ele>
        <time>2020-02-28T09:12:33Z</time>
      </trkpt>
      <trkpt lat="46.69968" lon="5.82621">
        <ele>619.6</ele>
        <time>2020-02-28T09:12:34Z</time>
      </trkpt>
      <trkpt lat="46.69974" lon="5.82628">
        <ele>619.6</ele>
        <time>2020-02-28T09:12:35Z</time>
      </trkpt>
      <trkpt lat="46.69975" lon="5.8263">
        <ele>619.6</ele>
        <time>2020-02-28T09:12:36Z</time>
      </trkpt>
      <trkpt lat="46.69979" lon="5.82634">
        <ele>619.6</ele>
        <time>2020-02-28T09:12:37Z</time>
      </trkpt>
      <trkpt lat="46.69983" lon="5.82639">
        <ele>619.6</ele>
        <time>2020-02-28T09:12:38Z</time>
      </trkpt>
      <trkpt lat="46.69989" lon="5.82646">
        <ele>619.8</ele>
        <time>2020-02-28T09:12:39Z</time>
      </trkpt>
      <trkpt lat="46.69991" lon="5.82648">
        <ele>619.8</ele>
        <time>2020-02-28T09:12:40Z</time>
      </trkpt>
      <trkpt lat="46.69997" lon="5.82655">
        <ele>619.8</ele>
        <time>2020-02-28T09:12:41Z</time>
      </trkpt>
      <trkpt lat="46.69999" lon="5.82658">
        <ele>619.8</ele>
        <time>2020-02-28T09:12:42Z</time>
      </trkpt>
      <trkpt lat="46.70003" lon="5.82663">
        <ele>619.8</ele>
        <time>2020-02-28T09:12:43Z</time>
      </trkpt>
      <trkpt lat="46.70006" lon="5.82668">
        <ele>620</ele>
        <time>2020-02-28T09:12:44Z</time>
      </trkpt>
      <trkpt lat="46.70012" lon="5.82676">
        <ele>620</ele>
        <time>2020-02-28T09:12:45Z</time>
      </trkpt>
      <trkpt lat="46.70014" lon="5.82678">
        <ele>620.4</ele>
        <time>2020-02-28T09:12:46Z</time>
      </trkpt>
      <trkpt lat="46.70017" lon="5.82683">
        <ele>620.4</ele>
        <time>2020-02-28T09:12:47Z</time>
      </trkpt>
      <trkpt lat="46.7002" lon="5.82689">
        <ele>620.4</ele>
        <time>2020-02-28T09:12:48Z</time>
      </trkpt>
      <trkpt lat="46.70024" lon="5.82694">
        <ele>620.6</ele>
        <time>2020-02-28T09:12:49Z</time>
      </trkpt>
      <trkpt lat="46.70027" lon="5.82699">
        <ele>620.6</ele>
        <time>2020-02-28T09:12:50Z</time>
      </trkpt>
      <trkpt lat="46.70032" lon="5.82707">
        <ele>620.6</ele>
        <time>2020-02-28T09:12:51Z</time>
      </trkpt>
      <trkpt lat="46.70033" lon="5.8271">
        <ele>620.6</ele>
        <time>2020-02-28T09:12:52Z</time>
      </trkpt>
      <trkpt lat="46.70036" lon="5.82715">
        <ele>620.8</ele>
        <time>2020-02-28T09:12:53Z</time>
      </trkpt>
      <trkpt lat="46.70039" lon="5.82721">
        <ele>620.8</ele>
        <time>2020-02-28T09:12:54Z</time>
      </trkpt>
      <trkpt lat="46.70041" lon="5.82726">
        <ele>620.8</ele>
        <time>2020-02-28T09:12:55Z</time>
      </trkpt>
      <trkpt lat="46.70045" lon="5.82735">
        <ele>621</ele>
        <time>2020-02-28T09:12:56Z</time>
      </trkpt>
      <trkpt lat="46.70046" lon="5.82738">
        <ele>621</ele>
        <time>2020-02-28T09:12:57Z</time>
      </trkpt>
      <trkpt lat="46.70048" lon="5.82744">
        <ele>621.4</ele>
        <time>2020-02-28T09:12:58Z</time>
      </trkpt>
      <trkpt lat="46.70049" lon="5.8275">
        <ele>621.4</ele>
        <time>2020-02-28T09:12:59Z</time>
      </trkpt>
      <trkpt lat="46.70051" lon="5.82757">
        <ele>621.4</ele>
        <time>2020-02-28T09:13:00Z</time>
      </trkpt>
      <trkpt lat="46.70052" lon="5.82762">
        <ele>621.6</ele>
        <time>2020-02-28T09:13:01Z</time>
      </trkpt>
      <trkpt lat="46.70054" lon="5.82768">
        <ele>621.6</ele>
        <time>2020-02-28T09:13:02Z</time>
      </trkpt>
      <trkpt lat="46.70056" lon="5.82774">
        <ele>621.8</ele>
        <time>2020-02-28T09:13:03Z</time>
      </trkpt>
      <trkpt lat="46.70058" lon="5.8278">
        <ele>621.8</ele>
        <time>2020-02-28T09:13:04Z</time>
      </trkpt>
      <trkpt lat="46.70061" lon="5.82785">
        <ele>621.8</ele>
        <time>2020-02-28T09:13:05Z</time>
      </trkpt>
      <trkpt lat="46.70064" lon="5.82791">
        <ele>621.8</ele>
        <time>2020-02-28T09:13:06Z</time>
      </trkpt>
      <trkpt lat="46.70067" lon="5.82795">
        <ele>622</ele>
        <time>2020-02-28T09:13:07Z</time>
      </trkpt>
      <trkpt lat="46.70072" lon="5.828">
        <ele>622</ele>
        <time>2020-02-28T09:13:08Z</time>
      </trkpt>
      <trkpt lat="46.70076" lon="5.82804">
        <ele>622</ele>
        <time>2020-02-28T09:13:09Z</time>
      </trkpt>
      <trkpt lat="46.7008" lon="5.82807">
        <ele>622</ele>
        <time>2020-02-28T09:13:10Z</time>
      </trkpt>
      <trkpt lat="46.70085" lon="5.8281">
        <ele>622</ele>
        <time>2020-02-28T09:13:11Z</time>
      </trkpt>
      <trkpt lat="46.70089" lon="5.82813">
        <ele>622.4</ele>
        <time>2020-02-28T09:13:12Z</time>
      </trkpt>
      <trkpt lat="46.70095" lon="5.82817">
        <ele>622.4</ele>
        <time>2020-02-28T09:13:13Z</time>
      </trkpt>
      <trkpt lat="46.70098" lon="5.82818">
        <ele>622.6</ele>
        <time>2020-02-28T09:13:14Z</time>
      </trkpt>
      <trkpt lat="46.70104" lon="5.82821">
        <ele>622.6</ele>
        <time>2020-02-28T09:13:15Z</time>
      </trkpt>
      <trkpt lat="46.70107" lon="5.82822">
        <ele>622.6</ele>
        <time>2020-02-28T09:13:16Z</time>
      </trkpt>
      <trkpt lat="46.70111" lon="5.82823">
        <ele>623</ele>
        <time>2020-02-28T09:13:17Z</time>
      </trkpt>
      <trkpt lat="46.70118" lon="5.82825">
        <ele>623</ele>
        <time>2020-02-28T09:13:18Z</time>
      </trkpt>
      <trkpt lat="46.7012" lon="5.82825">
        <ele>623.2</ele>
        <time>2020-02-28T09:13:19Z</time>
      </trkpt>
      <trkpt lat="46.70125" lon="5.82826">
        <ele>623.2</ele>
        <time>2020-02-28T09:13:20Z</time>
      </trkpt>
      <trkpt lat="46.70129" lon="5.82827">
        <ele>623.6</ele>
        <time>2020-02-28T09:13:21Z</time>
      </trkpt>
      <trkpt lat="46.70134" lon="5.82827">
        <ele>623.6</ele>
        <time>2020-02-28T09:13:22Z</time>
      </trkpt>
      <trkpt lat="46.70138" lon="5.82827">
        <ele>624</ele>
        <time>2020-02-28T09:13:23Z</time>
      </trkpt>
      <trkpt lat="46.70143" lon="5.82828">
        <ele>624</ele>
        <time>2020-02-28T09:13:24Z</time>
      </trkpt>
      <trkpt lat="46.70147" lon="5.82828">
        <ele>624.2</ele>
        <time>2020-02-28T09:13:25Z</time>
      </trkpt>
      <trkpt lat="46.70155" lon="5.82828">
        <ele>624.2</ele>
        <time>2020-02-28T09:13:26Z</time>
      </trkpt>
      <trkpt lat="46.70157" lon="5.82828">
        <ele>624.2</ele>
        <time>2020-02-28T09:13:27Z</time>
      </trkpt>
      <trkpt lat="46.70165" lon="5.82829">
        <ele>624.2</ele>
        <time>2020-02-28T09:13:28Z</time>
      </trkpt>
      <trkpt lat="46.70167" lon="5.82829">
        <ele>624.2</ele>
        <time>2020-02-28T09:13:29Z</time>
      </trkpt>
      <trkpt lat="46.70173" lon="5.82829">
        <ele>624.4</ele>
        <time>2020-02-28T09:13:30Z</time>
      </trkpt>
      <trkpt lat="46.7018" lon="5.82828">
        <ele>624.4</ele>
        <time>2020-02-28T09:13:31Z</time>
      </trkpt>
      <trkpt lat="46.70183" lon="5.82828">
        <ele>624.4</ele>
        <time>2020-02-28T09:13:32Z</time>
      </trkpt>
      <trkpt lat="46.70188" lon="5.82827">
        <ele>624.4</ele>
        <time>2020-02-28T09:13:33Z</time>
      </trkpt>
      <trkpt lat="46.70193" lon="5.82827">
        <ele>624.4</ele>
        <time>2020-02-28T09:13:34Z</time>
      </trkpt>
      <trkpt lat="46.70198" lon="5.82826">
        <ele>624.4</ele>
        <time>2020-02-28T09:13:35Z</time>
      </trkpt>
      <trkpt lat="46.70203" lon="5.82825">
        <ele>624.4</ele>
        <time>2020-02-28T09:13:36Z</time>
      </trkpt>
      <trkpt lat="46.70209" lon="5.82825">
        <ele>624.6</ele>
        <time>2020-02-28T09:13:37Z</time>
      </trkpt>
      <trkpt lat="46.70214" lon="5.82824">
        <ele>624.6</ele>
        <time>2020-02-28T09:13:38Z</time>
      </trkpt>
      <trkpt lat="46.70219" lon="5.82823">
        <ele>624.6</ele>
        <time>2020-02-28T09:13:39Z</time>
      </trkpt>
      <trkpt lat="46.70224" lon="5.82821">
        <ele>624.6</ele>
        <time>2020-02-28T09:13:40Z</time>
      </trkpt>
      <trkpt lat="46.7023" lon="5.8282">
        <ele>624.6</ele>
        <time>2020-02-28T09:13:41Z</time>
      </trkpt>
      <trkpt lat="46.70237" lon="5.82817">
        <ele>624.6</ele>
        <time>2020-02-28T09:13:42Z</time>
      </trkpt>
      <trkpt lat="46.7024" lon="5.82816">
        <ele>624.6</ele>
        <time>2020-02-28T09:13:43Z</time>
      </trkpt>
      <trkpt lat="46.70245" lon="5.82814">
        <ele>624.6</ele>
        <time>2020-02-28T09:13:44Z</time>
      </trkpt>
      <trkpt lat="46.70249" lon="5.82812">
        <ele>624.6</ele>
        <time>2020-02-28T09:13:45Z</time>
      </trkpt>
      <trkpt lat="46.70254" lon="5.8281">
        <ele>624.8</ele>
        <time>2020-02-28T09:13:46Z</time>
      </trkpt>
      <trkpt lat="46.70261" lon="5.82807">
        <ele>624.8</ele>
        <time>2020-02-28T09:13:47Z</time>
      </trkpt>
      <trkpt lat="46.70263" lon="5.82805">
        <ele>624.8</ele>
        <time>2020-02-28T09:13:48Z</time>
      </trkpt>
      <trkpt lat="46.70269" lon="5.82802">
        <ele>625.2</ele>
        <time>2020-02-28T09:13:49Z</time>
      </trkpt>
      <trkpt lat="46.70272" lon="5.82801">
        <ele>625.2</ele>
        <time>2020-02-28T09:13:50Z</time>
      </trkpt>
      <trkpt lat="46.70276" lon="5.82798">
        <ele>625.4</ele>
        <time>2020-02-28T09:13:51Z</time>
      </trkpt>
      <trkpt lat="46.7028" lon="5.82795">
        <ele>625.4</ele>
        <time>2020-02-28T09:13:52Z</time>
      </trkpt>
      <trkpt lat="46.70286" lon="5.82792">
        <ele>625.6</ele>
        <time>2020-02-28T09:13:53Z</time>
      </trkpt>
      <trkpt lat="46.70288" lon="5.8279">
        <ele>625.6</ele>
        <time>2020-02-28T09:13:54Z</time>
      </trkpt>
      <trkpt lat="46.70292" lon="5.82788">
        <ele>626</ele>
        <time>2020-02-28T09:13:55Z</time>
      </trkpt>
      <trkpt lat="46.70296" lon="5.82785">
        <ele>626.2</ele>
        <time>2020-02-28T09:13:56Z</time>
      </trkpt>
      <trkpt lat="46.70299" lon="5.82782">
        <ele>626.4</ele>
        <time>2020-02-28T09:13:57Z</time>
      </trkpt>
      <trkpt lat="46.70304" lon="5.82777">
        <ele>626.4</ele>
        <time>2020-02-28T09:13:58Z</time>
      </trkpt>
      <trkpt lat="46.70305" lon="5.82776">
        <ele>626.6</ele>
        <time>2020-02-28T09:13:59Z</time>
      </trkpt>
      <trkpt lat="46.70309" lon="5.82773">
        <ele>626.6</ele>
        <time>2020-02-28T09:14:00Z</time>
      </trkpt>
      <trkpt lat="46.70312" lon="5.8277">
        <ele>627</ele>
        <time>2020-02-28T09:14:01Z</time>
      </trkpt>
      <trkpt lat="46.70315" lon="5.82767">
        <ele>627.2</ele>
        <time>2020-02-28T09:14:02Z</time>
      </trkpt>
      <trkpt lat="46.70319" lon="5.82764">
        <ele>627.2</ele>
        <time>2020-02-28T09:14:03Z</time>
      </trkpt>
      <trkpt lat="46.70323" lon="5.82762">
        <ele>627.6</ele>
        <time>2020-02-28T09:14:04Z</time>
      </trkpt>
      <trkpt lat="46.70326" lon="5.82759">
        <ele>627.6</ele>
        <time>2020-02-28T09:14:05Z</time>
      </trkpt>
      <trkpt lat="46.70332" lon="5.82755">
        <ele>627.8</ele>
        <time>2020-02-28T09:14:06Z</time>
      </trkpt>
      <trkpt lat="46.70333" lon="5.82754">
        <ele>628.2</ele>
        <time>2020-02-28T09:14:07Z</time>
      </trkpt>
      <trkpt lat="46.70337" lon="5.82753">
        <ele>628.4</ele>
        <time>2020-02-28T09:14:08Z</time>
      </trkpt>
      <trkpt lat="46.70341" lon="5.82752">
        <ele>628.6</ele>
        <time>2020-02-28T09:14:09Z</time>
      </trkpt>
      <trkpt lat="46.70345" lon="5.8275">
        <ele>628.6</ele>
        <time>2020-02-28T09:14:10Z</time>
      </trkpt>
      <trkpt lat="46.7035" lon="5.8275">
        <ele>629</ele>
        <time>2020-02-28T09:14:11Z</time>
      </trkpt>
      <trkpt lat="46.70352" lon="5.82749">
        <ele>629</ele>
        <time>2020-02-28T09:14:12Z</time>
      </trkpt>
      <trkpt lat="46.70356" lon="5.82749">
        <ele>629.2</ele>
        <time>2020-02-28T09:14:13Z</time>
      </trkpt>
      <trkpt lat="46.7036" lon="5.82749">
        <ele>629.2</ele>
        <time>2020-02-28T09:14:14Z</time>
      </trkpt>
      <trkpt lat="46.70363" lon="5.82749">
        <ele>629.4</ele>
        <time>2020-02-28T09:14:15Z</time>
      </trkpt>
      <trkpt lat="46.70367" lon="5.8275">
        <ele>629.4</ele>
        <time>2020-02-28T09:14:16Z</time>
      </trkpt>
      <trkpt lat="46.7037" lon="5.8275">
        <ele>629.8</ele>
        <time>2020-02-28T09:14:17Z</time>
      </trkpt>
      <trkpt lat="46.70374" lon="5.82751">
        <ele>629.8</ele>
        <time>2020-02-28T09:14:18Z</time>
      </trkpt>
      <trkpt lat="46.70377" lon="5.82752">
        <ele>630</ele>
        <time>2020-02-28T09:14:19Z</time>
      </trkpt>
      <trkpt lat="46.70382" lon="5.82754">
        <ele>630</ele>
        <time>2020-02-28T09:14:20Z</time>
      </trkpt>
      <trkpt lat="46.70384" lon="5.82755">
        <ele>630.2</ele>
        <time>2020-02-28T09:14:21Z</time>
      </trkpt>
      <trkpt lat="46.70387" lon="5.82756">
        <ele>630.2</ele>
        <time>2020-02-28T09:14:22Z</time>
      </trkpt>
      <trkpt lat="46.7039" lon="5.82758">
        <ele>630.2</ele>
        <time>2020-02-28T09:14:23Z</time>
      </trkpt>
      <trkpt lat="46.70394" lon="5.8276">
        <ele>630.2</ele>
        <time>2020-02-28T09:14:24Z</time>
      </trkpt>
      <trkpt lat="46.704" lon="5.82762">
        <ele>630.2</ele>
        <time>2020-02-28T09:14:25Z</time>
      </trkpt>
      <trkpt lat="46.70401" lon="5.82763">
        <ele>630.6</ele>
        <time>2020-02-28T09:14:26Z</time>
      </trkpt>
      <trkpt lat="46.70405" lon="5.82765">
        <ele>630.6</ele>
        <time>2020-02-28T09:14:27Z</time>
      </trkpt>
      <trkpt lat="46.70409" lon="5.82766">
        <ele>630.6</ele>
        <time>2020-02-28T09:14:28Z</time>
      </trkpt>
      <trkpt lat="46.70412" lon="5.82768">
        <ele>631</ele>
        <time>2020-02-28T09:14:29Z</time>
      </trkpt>
      <trkpt lat="46.70416" lon="5.8277">
        <ele>631</ele>
        <time>2020-02-28T09:14:30Z</time>
      </trkpt>
      <trkpt lat="46.70419" lon="5.82771">
        <ele>631</ele>
        <time>2020-02-28T09:14:31Z</time>
      </trkpt>
      <trkpt lat="46.70422" lon="5.82773">
        <ele>631.2</ele>
        <time>2020-02-28T09:14:32Z</time>
      </trkpt>
      <trkpt lat="46.70425" lon="5.82774">
        <ele>631.2</ele>
        <time>2020-02-28T09:14:33Z</time>
      </trkpt>
      <trkpt lat="46.70428" lon="5.82776">
        <ele>631.4</ele>
        <time>2020-02-28T09:14:34Z</time>
      </trkpt>
      <trkpt lat="46.70432" lon="5.82778">
        <ele>631.4</ele>
        <time>2020-02-28T09:14:35Z</time>
      </trkpt>
      <trkpt lat="46.70435" lon="5.8278">
        <ele>631.6</ele>
        <time>2020-02-28T09:14:36Z</time>
      </trkpt>
      <trkpt lat="46.70438" lon="5.82781">
        <ele>631.6</ele>
        <time>2020-02-28T09:14:37Z</time>
      </trkpt>
      <trkpt lat="46.70441" lon="5.82782">
        <ele>632</ele>
        <time>2020-02-28T09:14:38Z</time>
      </trkpt>
      <trkpt lat="46.70444" lon="5.82783">
        <ele>632</ele>
        <time>2020-02-28T09:14:39Z</time>
      </trkpt>
      <trkpt lat="46.70446" lon="5.82784">
        <ele>632.2</ele>
        <time>2020-02-28T09:14:40Z</time>
      </trkpt>
      <trkpt lat="46.70449" lon="5.82785">
        <ele>632.2</ele>
        <time>2020-02-28T09:14:41Z</time>
      </trkpt>
      <trkpt lat="46.70452" lon="5.82787">
        <ele>632.6</ele>
        <time>2020-02-28T09:14:42Z</time>
      </trkpt>
      <trkpt lat="46.70456" lon="5.82788">
        <ele>632.6</ele>
        <time>2020-02-28T09:14:43Z</time>
      </trkpt>
      <trkpt lat="46.70459" lon="5.82789">
        <ele>632.6</ele>
        <time>2020-02-28T09:14:44Z</time>
      </trkpt>
      <trkpt lat="46.70463" lon="5.8279">
        <ele>632.6</ele>
        <time>2020-02-28T09:14:45Z</time>
      </trkpt>
      <trkpt lat="46.70466" lon="5.82791">
        <ele>633</ele>
        <time>2020-02-28T09:14:46Z</time>
      </trkpt>
      <trkpt lat="46.7047" lon="5.82791">
        <ele>633</ele>
        <time>2020-02-28T09:14:47Z</time>
      </trkpt>
      <trkpt lat="46.70475" lon="5.82793">
        <ele>633</ele>
        <time>2020-02-28T09:14:48Z</time>
      </trkpt>
      <trkpt lat="46.70477" lon="5.82793">
        <ele>633.2</ele>
        <time>2020-02-28T09:14:49Z</time>
      </trkpt>
      <trkpt lat="46.7048" lon="5.82795">
        <ele>633.2</ele>
        <time>2020-02-28T09:14:50Z</time>
      </trkpt>
      <trkpt lat="46.70483" lon="5.82796">
        <ele>633.6</ele>
        <time>2020-02-28T09:14:51Z</time>
      </trkpt>
      <trkpt lat="46.70487" lon="5.82797">
        <ele>633.6</ele>
        <time>2020-02-28T09:14:52Z</time>
      </trkpt>
      <trkpt lat="46.70492" lon="5.82799">
        <ele>633.8</ele>
        <time>2020-02-28T09:14:53Z</time>
      </trkpt>
      <trkpt lat="46.70494" lon="5.828">
        <ele>634</ele>
        <time>2020-02-28T09:14:54Z</time>
      </trkpt>
      <trkpt lat="46.70497" lon="5.82801">
        <ele>634</ele>
        <time>2020-02-28T09:14:55Z</time>
      </trkpt>
      <trkpt lat="46.70501" lon="5.82803">
        <ele>634.4</ele>
        <time>2020-02-28T09:14:56Z</time>
      </trkpt>
      <trkpt lat="46.70503" lon="5.82804">
        <ele>634.4</ele>
        <time>2020-02-28T09:14:57Z</time>
      </trkpt>
      <trkpt lat="46.70506" lon="5.82805">
        <ele>634.8</ele>
        <time>2020-02-28T09:14:58Z</time>
      </trkpt>
      <trkpt lat="46.70508" lon="5.82806">
        <ele>635</ele>
        <time>2020-02-28T09:14:59Z</time>
      </trkpt>
      <trkpt lat="46.70511" lon="5.82807">
        <ele>635.4</ele>
        <time>2020-02-28T09:15:00Z</time>
      </trkpt>
      <trkpt lat="46.70515" lon="5.82808">
        <ele>635.8</ele>
        <time>2020-02-28T09:15:01Z</time>
      </trkpt>
      <trkpt lat="46.70517" lon="5.82809">
        <ele>636</ele>
        <time>2020-02-28T09:15:02Z</time>
      </trkpt>
      <trkpt lat="46.7052" lon="5.8281">
        <ele>636.4</ele>
        <time>2020-02-28T09:15:03Z</time>
      </trkpt>
      <trkpt lat="46.70523" lon="5.82813">
        <ele>636.6</ele>
        <time>2020-02-28T09:15:04Z</time>
      </trkpt>
      <trkpt lat="46.70525" lon="5.82813">
        <ele>636.8</ele>
        <time>2020-02-28T09:15:05Z</time>
      </trkpt>
      <trkpt lat="46.70527" lon="5.82815">
        <ele>637</ele>
        <time>2020-02-28T09:15:06Z</time>
      </trkpt>
      <trkpt lat="46.7053" lon="5.82816">
        <ele>637.4</ele>
        <time>2020-02-28T09:15:07Z</time>
      </trkpt>
      <trkpt lat="46.70533" lon="5.82818">
        <ele>637.4</ele>
        <time>2020-02-28T09:15:08Z</time>
      </trkpt>
      <trkpt lat="46.70535" lon="5.82819">
        <ele>637.8</ele>
        <time>2020-02-28T09:15:09Z</time>
      </trkpt>
      <trkpt lat="46.70538" lon="5.82821">
        <ele>637.8</ele>
        <time>2020-02-28T09:15:10Z</time>
      </trkpt>
      <trkpt lat="46.70543" lon="5.82824">
        <ele>637.8</ele>
        <time>2020-02-28T09:15:11Z</time>
      </trkpt>
      <trkpt lat="46.70544" lon="5.82825">
        <ele>638.2</ele>
        <time>2020-02-28T09:15:12Z</time>
      </trkpt>
      <trkpt lat="46.70547" lon="5.82826">
        <ele>638.4</ele>
        <time>2020-02-28T09:15:13Z</time>
      </trkpt>
      <trkpt lat="46.7055" lon="5.82828">
        <ele>638.4</ele>
        <time>2020-02-28T09:15:14Z</time>
      </trkpt>
      <trkpt lat="46.70552" lon="5.8283">
        <ele>638.8</ele>
        <time>2020-02-28T09:15:15Z</time>
      </trkpt>
      <trkpt lat="46.70555" lon="5.82832">
        <ele>639</ele>
        <time>2020-02-28T09:15:16Z</time>
      </trkpt>
      <trkpt lat="46.70558" lon="5.82834">
        <ele>639</ele>
        <time>2020-02-28T09:15:17Z</time>
      </trkpt>
      <trkpt lat="46.70561" lon="5.82837">
        <ele>639.4</ele>
        <time>2020-02-28T09:15:18Z</time>
      </trkpt>
      <trkpt lat="46.70564" lon="5.82839">
        <ele>639.4</ele>
        <time>2020-02-28T09:15:19Z</time>
      </trkpt>
      <trkpt lat="46.70566" lon="5.82841">
        <ele>639.6</ele>
        <time>2020-02-28T09:15:20Z</time>
      </trkpt>
      <trkpt lat="46.70569" lon="5.82843">
        <ele>639.6</ele>
        <time>2020-02-28T09:15:21Z</time>
      </trkpt>
      <trkpt lat="46.70573" lon="5.82845">
        <ele>640</ele>
        <time>2020-02-28T09:15:22Z</time>
      </trkpt>
      <trkpt lat="46.70575" lon="5.82846">
        <ele>640.2</ele>
        <time>2020-02-28T09:15:23Z</time>
      </trkpt>
      <trkpt lat="46.70577" lon="5.82848">
        <ele>640.2</ele>
        <time>2020-02-28T09:15:24Z</time>
      </trkpt>
      <trkpt lat="46.7058" lon="5.82849">
        <ele>640.4</ele>
        <time>2020-02-28T09:15:25Z</time>
      </trkpt>
      <trkpt lat="46.70584" lon="5.82852">
        <ele>640.4</ele>
        <time>2020-02-28T09:15:26Z</time>
      </trkpt>
      <trkpt lat="46.70585" lon="5.82853">
        <ele>640.8</ele>
        <time>2020-02-28T09:15:27Z</time>
      </trkpt>
      <trkpt lat="46.70587" lon="5.82854">
        <ele>640.8</ele>
        <time>2020-02-28T09:15:28Z</time>
      </trkpt>
      <trkpt lat="46.7059" lon="5.82856">
        <ele>641.2</ele>
        <time>2020-02-28T09:15:29Z</time>
      </trkpt>
      <trkpt lat="46.70592" lon="5.82858">
        <ele>641.4</ele>
        <time>2020-02-28T09:15:30Z</time>
      </trkpt>
      <trkpt lat="46.70595" lon="5.8286">
        <ele>641.6</ele>
        <time>2020-02-28T09:15:31Z</time>
      </trkpt>
      <trkpt lat="46.70597" lon="5.82862">
        <ele>641.6</ele>
        <time>2020-02-28T09:15:32Z</time>
      </trkpt>
      <trkpt lat="46.70601" lon="5.82865">
        <ele>641.8</ele>
        <time>2020-02-28T09:15:33Z</time>
      </trkpt>
      <trkpt lat="46.70602" lon="5.82866">
        <ele>641.8</ele>
        <time>2020-02-28T09:15:34Z</time>
      </trkpt>
      <trkpt lat="46.70604" lon="5.82868">
        <ele>642.2</ele>
        <time>2020-02-28T09:15:35Z</time>
      </trkpt>
      <trkpt lat="46.70607" lon="5.82869">
        <ele>642.4</ele>
        <time>2020-02-28T09:15:36Z</time>
      </trkpt>
      <trkpt lat="46.70609" lon="5.82871">
        <ele>642.4</ele>
        <time>2020-02-28T09:15:37Z</time>
      </trkpt>
      <trkpt lat="46.70613" lon="5.82874">
        <ele>642.8</ele>
        <time>2020-02-28T09:15:38Z</time>
      </trkpt>
      <trkpt lat="46.70614" lon="5.82875">
        <ele>642.8</ele>
        <time>2020-02-28T09:15:39Z</time>
      </trkpt>
      <trkpt lat="46.70616" lon="5.82877">
        <ele>643</ele>
        <time>2020-02-28T09:15:40Z</time>
      </trkpt>
      <trkpt lat="46.7062" lon="5.8288">
        <ele>643</ele>
        <time>2020-02-28T09:15:41Z</time>
      </trkpt>
      <trkpt lat="46.70622" lon="5.82881">
        <ele>643.4</ele>
        <time>2020-02-28T09:15:42Z</time>
      </trkpt>
      <trkpt lat="46.70624" lon="5.82883">
        <ele>643.4</ele>
        <time>2020-02-28T09:15:43Z</time>
      </trkpt>
      <trkpt lat="46.70627" lon="5.82885">
        <ele>643.6</ele>
        <time>2020-02-28T09:15:44Z</time>
      </trkpt>
      <trkpt lat="46.70629" lon="5.82887">
        <ele>643.6</ele>
        <time>2020-02-28T09:15:45Z</time>
      </trkpt>
      <trkpt lat="46.70632" lon="5.82889">
        <ele>644</ele>
        <time>2020-02-28T09:15:46Z</time>
      </trkpt>
      <trkpt lat="46.70635" lon="5.82892">
        <ele>644</ele>
        <time>2020-02-28T09:15:47Z</time>
      </trkpt>
      <trkpt lat="46.70637" lon="5.82895">
        <ele>644.4</ele>
        <time>2020-02-28T09:15:48Z</time>
      </trkpt>
      <trkpt lat="46.7064" lon="5.82897">
        <ele>644.6</ele>
        <time>2020-02-28T09:15:49Z</time>
      </trkpt>
      <trkpt lat="46.70643" lon="5.829">
        <ele>644.6</ele>
        <time>2020-02-28T09:15:50Z</time>
      </trkpt>
      <trkpt lat="46.70645" lon="5.82901">
        <ele>645</ele>
        <time>2020-02-28T09:15:51Z</time>
      </trkpt>
      <trkpt lat="46.70647" lon="5.82902">
        <ele>645</ele>
        <time>2020-02-28T09:15:52Z</time>
      </trkpt>
      <trkpt lat="46.7065" lon="5.82904">
        <ele>645.2</ele>
        <time>2020-02-28T09:15:53Z</time>
      </trkpt>
      <trkpt lat="46.70652" lon="5.82905">
        <ele>645.2</ele>
        <time>2020-02-28T09:15:54Z</time>
      </trkpt>
      <trkpt lat="46.70655" lon="5.82907">
        <ele>645.6</ele>
        <time>2020-02-28T09:15:55Z</time>
      </trkpt>
      <trkpt lat="46.70657" lon="5.82909">
        <ele>645.6</ele>
        <time>2020-02-28T09:15:56Z</time>
      </trkpt>
      <trkpt lat="46.7066" lon="5.82911">
        <ele>645.8</ele>
        <time>2020-02-28T09:15:57Z</time>
      </trkpt>
      <trkpt lat="46.70662" lon="5.82912">
        <ele>645.8</ele>
        <time>2020-02-28T09:15:58Z</time>
      </trkpt>
      <trkpt lat="46.70664" lon="5.82914">
        <ele>646.2</ele>
        <time>2020-02-28T09:15:59Z</time>
      </trkpt>
      <trkpt lat="46.70667" lon="5.82915">
        <ele>646.2</ele>
        <time>2020-02-28T09:16:00Z</time>
      </trkpt>
      <trkpt lat="46.70669" lon="5.82917">
        <ele>646.6</ele>
        <time>2020-02-28T09:16:01Z</time>
      </trkpt>
      <trkpt lat="46.70672" lon="5.82918">
        <ele>646.6</ele>
        <time>2020-02-28T09:16:02Z</time>
      </trkpt>
      <trkpt lat="46.70674" lon="5.8292">
        <ele>647</ele>
        <time>2020-02-28T09:16:03Z</time>
      </trkpt>
      <trkpt lat="46.70676" lon="5.82922">
        <ele>647</ele>
        <time>2020-02-28T09:16:04Z</time>
      </trkpt>
      <trkpt lat="46.70679" lon="5.82924">
        <ele>647.4</ele>
        <time>2020-02-28T09:16:05Z</time>
      </trkpt>
      <trkpt lat="46.70681" lon="5.82927">
        <ele>647.6</ele>
        <time>2020-02-28T09:16:06Z</time>
      </trkpt>
      <trkpt lat="46.70685" lon="5.8293">
        <ele>647.8</ele>
        <time>2020-02-28T09:16:07Z</time>
      </trkpt>
      <trkpt lat="46.70686" lon="5.82931">
        <ele>647.8</ele>
        <time>2020-02-28T09:16:08Z</time>
      </trkpt>
      <trkpt lat="46.70689" lon="5.82932">
        <ele>648</ele>
        <time>2020-02-28T09:16:09Z</time>
      </trkpt>
      <trkpt lat="46.70691" lon="5.82934">
        <ele>648</ele>
        <time>2020-02-28T09:16:10Z</time>
      </trkpt>
      <trkpt lat="46.70694" lon="5.82935">
        <ele>648.2</ele>
        <time>2020-02-28T09:16:11Z</time>
      </trkpt>
      <trkpt lat="46.70696" lon="5.82936">
        <ele>648.6</ele>
        <time>2020-02-28T09:16:12Z</time>
      </trkpt>
      <trkpt lat="46.70698" lon="5.82937">
        <ele>648.6</ele>
        <time>2020-02-28T09:16:13Z</time>
      </trkpt>
      <trkpt lat="46.707" lon="5.82939">
        <ele>648.8</ele>
        <time>2020-02-28T09:16:14Z</time>
      </trkpt>
      <trkpt lat="46.70703" lon="5.8294">
        <ele>648.8</ele>
        <time>2020-02-28T09:16:15Z</time>
      </trkpt>
      <trkpt lat="46.70705" lon="5.82942">
        <ele>649</ele>
        <time>2020-02-28T09:16:16Z</time>
      </trkpt>
      <trkpt lat="46.70707" lon="5.82943">
        <ele>649</ele>
        <time>2020-02-28T09:16:17Z</time>
      </trkpt>
      <trkpt lat="46.7071" lon="5.82945">
        <ele>649.4</ele>
        <time>2020-02-28T09:16:18Z</time>
      </trkpt>
      <trkpt lat="46.70712" lon="5.82946">
        <ele>649.6</ele>
        <time>2020-02-28T09:16:19Z</time>
      </trkpt>
      <trkpt lat="46.70716" lon="5.82947">
        <ele>649.6</ele>
        <time>2020-02-28T09:16:20Z</time>
      </trkpt>
      <trkpt lat="46.70717" lon="5.82948">
        <ele>649.6</ele>
        <time>2020-02-28T09:16:21Z</time>
      </trkpt>
      <trkpt lat="46.70719" lon="5.8295">
        <ele>650</ele>
        <time>2020-02-28T09:16:22Z</time>
      </trkpt>
      <trkpt lat="46.70722" lon="5.82952">
        <ele>650</ele>
        <time>2020-02-28T09:16:23Z</time>
      </trkpt>
      <trkpt lat="46.70724" lon="5.82953">
        <ele>650.2</ele>
        <time>2020-02-28T09:16:24Z</time>
      </trkpt>
      <trkpt lat="46.70727" lon="5.82956">
        <ele>650.2</ele>
        <time>2020-02-28T09:16:25Z</time>
      </trkpt>
      <trkpt lat="46.70731" lon="5.82958">
        <ele>650.4</ele>
        <time>2020-02-28T09:16:26Z</time>
      </trkpt>
      <trkpt lat="46.70733" lon="5.82959">
        <ele>650.4</ele>
        <time>2020-02-28T09:16:27Z</time>
      </trkpt>
      <trkpt lat="46.70735" lon="5.8296">
        <ele>650.8</ele>
        <time>2020-02-28T09:16:28Z</time>
      </trkpt>
      <trkpt lat="46.70737" lon="5.82962">
        <ele>650.8</ele>
        <time>2020-02-28T09:16:29Z</time>
      </trkpt>
      <trkpt lat="46.7074" lon="5.82964">
        <ele>651</ele>
        <time>2020-02-28T09:16:30Z</time>
      </trkpt>
      <trkpt lat="46.70743" lon="5.82965">
        <ele>651</ele>
        <time>2020-02-28T09:16:31Z</time>
      </trkpt>
      <trkpt lat="46.70745" lon="5.82967">
        <ele>651.4</ele>
        <time>2020-02-28T09:16:32Z</time>
      </trkpt>
      <trkpt lat="46.70748" lon="5.82969">
        <ele>651.4</ele>
        <time>2020-02-28T09:16:33Z</time>
      </trkpt>
      <trkpt lat="46.7075" lon="5.82971">
        <ele>651.6</ele>
        <time>2020-02-28T09:16:34Z</time>
      </trkpt>
      <trkpt lat="46.70754" lon="5.82975">
        <ele>651.6</ele>
        <time>2020-02-28T09:16:35Z</time>
      </trkpt>
      <trkpt lat="46.70755" lon="5.82975">
        <ele>651.6</ele>
        <time>2020-02-28T09:16:36Z</time>
      </trkpt>
      <trkpt lat="46.70758" lon="5.82978">
        <ele>651.6</ele>
        <time>2020-02-28T09:16:37Z</time>
      </trkpt>
      <trkpt lat="46.70761" lon="5.82981">
        <ele>651.6</ele>
        <time>2020-02-28T09:16:38Z</time>
      </trkpt>
      <trkpt lat="46.70763" lon="5.82982">
        <ele>651.8</ele>
        <time>2020-02-28T09:16:39Z</time>
      </trkpt>
      <trkpt lat="46.70765" lon="5.82985">
        <ele>651.8</ele>
        <time>2020-02-28T09:16:40Z</time>
      </trkpt>
      <trkpt lat="46.70768" lon="5.82987">
        <ele>651.8</ele>
        <time>2020-02-28T09:16:41Z</time>
      </trkpt>
      <trkpt lat="46.70771" lon="5.82989">
        <ele>651.8</ele>
        <time>2020-02-28T09:16:42Z</time>
      </trkpt>
      <trkpt lat="46.70774" lon="5.82992">
        <ele>651.8</ele>
        <time>2020-02-28T09:16:43Z</time>
      </trkpt>
      <trkpt lat="46.70777" lon="5.82994">
        <ele>651.8</ele>
        <time>2020-02-28T09:16:44Z</time>
      </trkpt>
      <trkpt lat="46.7078" lon="5.82996">
        <ele>651.8</ele>
        <time>2020-02-28T09:16:45Z</time>
      </trkpt>
      <trkpt lat="46.70783" lon="5.82999">
        <ele>651.6</ele>
        <time>2020-02-28T09:16:46Z</time>
      </trkpt>
      <trkpt lat="46.70787" lon="5.83001">
        <ele>651.6</ele>
        <time>2020-02-28T09:16:47Z</time>
      </trkpt>
      <trkpt lat="46.7079" lon="5.83005">
        <ele>651.6</ele>
        <time>2020-02-28T09:16:48Z</time>
      </trkpt>
      <trkpt lat="46.70794" lon="5.83008">
        <ele>651.6</ele>
        <time>2020-02-28T09:16:49Z</time>
      </trkpt>
      <trkpt lat="46.70798" lon="5.83011">
        <ele>651.6</ele>
        <time>2020-02-28T09:16:50Z</time>
      </trkpt>
      <trkpt lat="46.70801" lon="5.83014">
        <ele>651.4</ele>
        <time>2020-02-28T09:16:51Z</time>
      </trkpt>
      <trkpt lat="46.70805" lon="5.83017">
        <ele>651.4</ele>
        <time>2020-02-28T09:16:52Z</time>
      </trkpt>
      <trkpt lat="46.70809" lon="5.8302">
        <ele>651.4</ele>
        <time>2020-02-28T09:16:53Z</time>
      </trkpt>
      <trkpt lat="46.70813" lon="5.83024">
        <ele>651.4</ele>
        <time>2020-02-28T09:16:54Z</time>
      </trkpt>
      <trkpt lat="46.70816" lon="5.83027">
        <ele>651.2</ele>
        <time>2020-02-28T09:16:55Z</time>
      </trkpt>
      <trkpt lat="46.7082" lon="5.8303">
        <ele>651.2</ele>
        <time>2020-02-28T09:16:56Z</time>
      </trkpt>
      <trkpt lat="46.70824" lon="5.83033">
        <ele>651.2</ele>
        <time>2020-02-28T09:16:57Z</time>
      </trkpt>
      <trkpt lat="46.70828" lon="5.83036">
        <ele>651.2</ele>
        <time>2020-02-28T09:16:58Z</time>
      </trkpt>
      <trkpt lat="46.70832" lon="5.83039">
        <ele>651.2</ele>
        <time>2020-02-28T09:16:59Z</time>
      </trkpt>
      <trkpt lat="46.70835" lon="5.83042">
        <ele>651.2</ele>
        <time>2020-02-28T09:17:00Z</time>
      </trkpt>
      <trkpt lat="46.70838" lon="5.83045">
        <ele>651.4</ele>
        <time>2020-02-28T09:17:01Z</time>
      </trkpt>
      <trkpt lat="46.70841" lon="5.83048">
        <ele>651.4</ele>
        <time>2020-02-28T09:17:02Z</time>
      </trkpt>
      <trkpt lat="46.70845" lon="5.83051">
        <ele>651.6</ele>
        <time>2020-02-28T09:17:03Z</time>
      </trkpt>
      <trkpt lat="46.70849" lon="5.83054">
        <ele>651.6</ele>
        <time>2020-02-28T09:17:04Z</time>
      </trkpt>
      <trkpt lat="46.70853" lon="5.83059">
        <ele>651.8</ele>
        <time>2020-02-28T09:17:05Z</time>
      </trkpt>
      <trkpt lat="46.70855" lon="5.8306">
        <ele>651.8</ele>
        <time>2020-02-28T09:17:06Z</time>
      </trkpt>
      <trkpt lat="46.70858" lon="5.83063">
        <ele>651.8</ele>
        <time>2020-02-28T09:17:07Z</time>
      </trkpt>
      <trkpt lat="46.70863" lon="5.83067">
        <ele>651.8</ele>
        <time>2020-02-28T09:17:08Z</time>
      </trkpt>
      <trkpt lat="46.70864" lon="5.83068">
        <ele>652</ele>
        <time>2020-02-28T09:17:09Z</time>
      </trkpt>
      <trkpt lat="46.70867" lon="5.8307">
        <ele>652</ele>
        <time>2020-02-28T09:17:10Z</time>
      </trkpt>
      <trkpt lat="46.7087" lon="5.83072">
        <ele>652</ele>
        <time>2020-02-28T09:17:11Z</time>
      </trkpt>
      <trkpt lat="46.70874" lon="5.83074">
        <ele>652</ele>
        <time>2020-02-28T09:17:12Z</time>
      </trkpt>
      <trkpt lat="46.70877" lon="5.83076">
        <ele>652</ele>
        <time>2020-02-28T09:17:13Z</time>
      </trkpt>
      <trkpt lat="46.70881" lon="5.83078">
        <ele>652</ele>
        <time>2020-02-28T09:17:14Z</time>
      </trkpt>
      <trkpt lat="46.70884" lon="5.8308">
        <ele>652</ele>
        <time>2020-02-28T09:17:15Z</time>
      </trkpt>
      <trkpt lat="46.70888" lon="5.83082">
        <ele>651.8</ele>
        <time>2020-02-28T09:17:16Z</time>
      </trkpt>
      <trkpt lat="46.70891" lon="5.83084">
        <ele>651.8</ele>
        <time>2020-02-28T09:17:17Z</time>
      </trkpt>
      <trkpt lat="46.70895" lon="5.83086">
        <ele>651.8</ele>
        <time>2020-02-28T09:17:18Z</time>
      </trkpt>
      <trkpt lat="46.70901" lon="5.8309">
        <ele>651.8</ele>
        <time>2020-02-28T09:17:19Z</time>
      </trkpt>
      <trkpt lat="46.70903" lon="5.83091">
        <ele>651.6</ele>
        <time>2020-02-28T09:17:20Z</time>
      </trkpt>
      <trkpt lat="46.70908" lon="5.83094">
        <ele>651.6</ele>
        <time>2020-02-28T09:17:21Z</time>
      </trkpt>
      <trkpt lat="46.70915" lon="5.83097">
        <ele>651.2</ele>
        <time>2020-02-28T09:17:22Z</time>
      </trkpt>
      <trkpt lat="46.70917" lon="5.83099">
        <ele>651.2</ele>
        <time>2020-02-28T09:17:23Z</time>
      </trkpt>
      <trkpt lat="46.70922" lon="5.83101">
        <ele>651</ele>
        <time>2020-02-28T09:17:24Z</time>
      </trkpt>
      <trkpt lat="46.70929" lon="5.83105">
        <ele>651</ele>
        <time>2020-02-28T09:17:25Z</time>
      </trkpt>
      <trkpt lat="46.70931" lon="5.83107">
        <ele>650.8</ele>
        <time>2020-02-28T09:17:26Z</time>
      </trkpt>
      <trkpt lat="46.70936" lon="5.83109">
        <ele>650.8</ele>
        <time>2020-02-28T09:17:27Z</time>
      </trkpt>
      <trkpt lat="46.7094" lon="5.83112">
        <ele>650.4</ele>
        <time>2020-02-28T09:17:28Z</time>
      </trkpt>
      <trkpt lat="46.70944" lon="5.83114">
        <ele>650.4</ele>
        <time>2020-02-28T09:17:29Z</time>
      </trkpt>
      <trkpt lat="46.70948" lon="5.83116">
        <ele>650.2</ele>
        <time>2020-02-28T09:17:30Z</time>
      </trkpt>
      <trkpt lat="46.70952" lon="5.83119">
        <ele>650.2</ele>
        <time>2020-02-28T09:17:31Z</time>
      </trkpt>
      <trkpt lat="46.70956" lon="5.83122">
        <ele>650.2</ele>
        <time>2020-02-28T09:17:32Z</time>
      </trkpt>
      <trkpt lat="46.7096" lon="5.83124">
        <ele>650.2</ele>
        <time>2020-02-28T09:17:33Z</time>
      </trkpt>
      <trkpt lat="46.70963" lon="5.83128">
        <ele>650.2</ele>
        <time>2020-02-28T09:17:34Z</time>
      </trkpt>
      <trkpt lat="46.70967" lon="5.83133">
        <ele>650</ele>
        <time>2020-02-28T09:17:35Z</time>
      </trkpt>
      <trkpt lat="46.70969" lon="5.83135">
        <ele>650</ele>
        <time>2020-02-28T09:17:36Z</time>
      </trkpt>
      <trkpt lat="46.70971" lon="5.83139">
        <ele>650</ele>
        <time>2020-02-28T09:17:37Z</time>
      </trkpt>
      <trkpt lat="46.70973" lon="5.83143">
        <ele>650</ele>
        <time>2020-02-28T09:17:38Z</time>
      </trkpt>
      <trkpt lat="46.70977" lon="5.83149">
        <ele>650</ele>
        <time>2020-02-28T09:17:39Z</time>
      </trkpt>
      <trkpt lat="46.70979" lon="5.83151">
        <ele>650</ele>
        <time>2020-02-28T09:17:40Z</time>
      </trkpt>
      <trkpt lat="46.70981" lon="5.83156">
        <ele>650</ele>
        <time>2020-02-28T09:17:41Z</time>
      </trkpt>
      <trkpt lat="46.70984" lon="5.8316">
        <ele>650</ele>
        <time>2020-02-28T09:17:42Z</time>
      </trkpt>
      <trkpt lat="46.70987" lon="5.83165">
        <ele>650</ele>
        <time>2020-02-28T09:17:43Z</time>
      </trkpt>
      <trkpt lat="46.7099" lon="5.8317">
        <ele>650</ele>
        <time>2020-02-28T09:17:44Z</time>
      </trkpt>
      <trkpt lat="46.70992" lon="5.83174">
        <ele>650</ele>
        <time>2020-02-28T09:17:45Z</time>
      </trkpt>
      <trkpt lat="46.70994" lon="5.83178">
        <ele>650</ele>
        <time>2020-02-28T09:17:46Z</time>
      </trkpt>
      <trkpt lat="46.70998" lon="5.83183">
        <ele>650</ele>
        <time>2020-02-28T09:17:47Z</time>
      </trkpt>
      <trkpt lat="46.70999" lon="5.83185">
        <ele>650</ele>
        <time>2020-02-28T09:17:48Z</time>
      </trkpt>
      <trkpt lat="46.71002" lon="5.83188">
        <ele>650</ele>
        <time>2020-02-28T09:17:49Z</time>
      </trkpt>
      <trkpt lat="46.71004" lon="5.83192">
        <ele>650</ele>
        <time>2020-02-28T09:17:50Z</time>
      </trkpt>
      <trkpt lat="46.71007" lon="5.83195">
        <ele>650</ele>
        <time>2020-02-28T09:17:51Z</time>
      </trkpt>
      <trkpt lat="46.7101" lon="5.83201">
        <ele>650</ele>
        <time>2020-02-28T09:17:52Z</time>
      </trkpt>
      <trkpt lat="46.71011" lon="5.83202">
        <ele>649.6</ele>
        <time>2020-02-28T09:17:53Z</time>
      </trkpt>
      <trkpt lat="46.71013" lon="5.83206">
        <ele>649.6</ele>
        <time>2020-02-28T09:17:54Z</time>
      </trkpt>
      <trkpt lat="46.71015" lon="5.83209">
        <ele>649.4</ele>
        <time>2020-02-28T09:17:55Z</time>
      </trkpt>
      <trkpt lat="46.71017" lon="5.83212">
        <ele>649.4</ele>
        <time>2020-02-28T09:17:56Z</time>
      </trkpt>
      <trkpt lat="46.71018" lon="5.83215">
        <ele>649.4</ele>
        <time>2020-02-28T09:17:57Z</time>
      </trkpt>
      <trkpt lat="46.7102" lon="5.83218">
        <ele>649.4</ele>
        <time>2020-02-28T09:17:58Z</time>
      </trkpt>
      <trkpt lat="46.71023" lon="5.83222">
        <ele>649.4</ele>
        <time>2020-02-28T09:17:59Z</time>
      </trkpt>
      <trkpt lat="46.71024" lon="5.83223">
        <ele>649.4</ele>
        <time>2020-02-28T09:18:00Z</time>
      </trkpt>
      <trkpt lat="46.71025" lon="5.83225">
        <ele>649.4</ele>
        <time>2020-02-28T09:18:01Z</time>
      </trkpt>
      <trkpt lat="46.71026" lon="5.83226">
        <ele>649.4</ele>
        <time>2020-02-28T09:18:02Z</time>
      </trkpt>
      <trkpt lat="46.71027" lon="5.83227">
        <ele>649.4</ele>
        <time>2020-02-28T09:18:03Z</time>
      </trkpt>
      <trkpt lat="46.71029" lon="5.83228">
        <ele>649.4</ele>
        <time>2020-02-28T09:18:04Z</time>
      </trkpt>
      <trkpt lat="46.71031" lon="5.83227">
        <ele>649.4</ele>
        <time>2020-02-28T09:18:05Z</time>
      </trkpt>
      <trkpt lat="46.71033" lon="5.83225">
        <ele>649.4</ele>
        <time>2020-02-28T09:18:06Z</time>
      </trkpt>
      <trkpt lat="46.71034" lon="5.83222">
        <ele>649.4</ele>
        <time>2020-02-28T09:18:07Z</time>
      </trkpt>
      <trkpt lat="46.71035" lon="5.83219">
        <ele>649.4</ele>
        <time>2020-02-28T09:18:08Z</time>
      </trkpt>
      <trkpt lat="46.71036" lon="5.83216">
        <ele>649.4</ele>
        <time>2020-02-28T09:18:09Z</time>
      </trkpt>
      <trkpt lat="46.71038" lon="5.83211">
        <ele>649.4</ele>
        <time>2020-02-28T09:18:10Z</time>
      </trkpt>
      <trkpt lat="46.71038" lon="5.83209">
        <ele>649.4</ele>
        <time>2020-02-28T09:18:11Z</time>
      </trkpt>
      <trkpt lat="46.71039" lon="5.83206">
        <ele>649.6</ele>
        <time>2020-02-28T09:18:12Z</time>
      </trkpt>
      <trkpt lat="46.71041" lon="5.83202">
        <ele>649.6</ele>
        <time>2020-02-28T09:18:13Z</time>
      </trkpt>
      <trkpt lat="46.71042" lon="5.83198">
        <ele>649.8</ele>
        <time>2020-02-28T09:18:14Z</time>
      </trkpt>
      <trkpt lat="46.71044" lon="5.83192">
        <ele>649.8</ele>
        <time>2020-02-28T09:18:15Z</time>
      </trkpt>
      <trkpt lat="46.71044" lon="5.8319">
        <ele>649.8</ele>
        <time>2020-02-28T09:18:16Z</time>
      </trkpt>
      <trkpt lat="46.71045" lon="5.83186">
        <ele>650.2</ele>
        <time>2020-02-28T09:18:17Z</time>
      </trkpt>
      <trkpt lat="46.71047" lon="5.83182">
        <ele>650.2</ele>
        <time>2020-02-28T09:18:18Z</time>
      </trkpt>
      <trkpt lat="46.71048" lon="5.83177">
        <ele>650.2</ele>
        <time>2020-02-28T09:18:19Z</time>
      </trkpt>
      <trkpt lat="46.71049" lon="5.83172">
        <ele>650.2</ele>
        <time>2020-02-28T09:18:20Z</time>
      </trkpt>
      <trkpt lat="46.7105" lon="5.83167">
        <ele>650.4</ele>
        <time>2020-02-28T09:18:21Z</time>
      </trkpt>
      <trkpt lat="46.71051" lon="5.83162">
        <ele>650.4</ele>
        <time>2020-02-28T09:18:22Z</time>
      </trkpt>
      <trkpt lat="46.71052" lon="5.83157">
        <ele>650.4</ele>
        <time>2020-02-28T09:18:23Z</time>
      </trkpt>
      <trkpt lat="46.71053" lon="5.83152">
        <ele>650.4</ele>
        <time>2020-02-28T09:18:24Z</time>
      </trkpt>
      <trkpt lat="46.71054" lon="5.83147">
        <ele>650.4</ele>
        <time>2020-02-28T09:18:25Z</time>
      </trkpt>
      <trkpt lat="46.71055" lon="5.83142">
        <ele>650.6</ele>
        <time>2020-02-28T09:18:26Z</time>
      </trkpt>
      <trkpt lat="46.71056" lon="5.83136">
        <ele>650.6</ele>
        <time>2020-02-28T09:18:27Z</time>
      </trkpt>
      <trkpt lat="46.71058" lon="5.83128">
        <ele>650.6</ele>
        <time>2020-02-28T09:18:28Z</time>
      </trkpt>
      <trkpt lat="46.71059" lon="5.83126">
        <ele>650.6</ele>
        <time>2020-02-28T09:18:29Z</time>
      </trkpt>
      <trkpt lat="46.7106" lon="5.8312">
        <ele>650.6</ele>
        <time>2020-02-28T09:18:30Z</time>
      </trkpt>
      <trkpt lat="46.71061" lon="5.83115">
        <ele>651</ele>
        <time>2020-02-28T09:18:31Z</time>
      </trkpt>
      <trkpt lat="46.71062" lon="5.8311">
        <ele>651</ele>
        <time>2020-02-28T09:18:32Z</time>
      </trkpt>
      <trkpt lat="46.71063" lon="5.83105">
        <ele>651</ele>
        <time>2020-02-28T09:18:33Z</time>
      </trkpt>
      <trkpt lat="46.71064" lon="5.83101">
        <ele>651.2</ele>
        <time>2020-02-28T09:18:34Z</time>
      </trkpt>
      <trkpt lat="46.71066" lon="5.83096">
        <ele>651.2</ele>
        <time>2020-02-28T09:18:35Z</time>
      </trkpt>
      <trkpt lat="46.71067" lon="5.83088">
        <ele>651.2</ele>
        <time>2020-02-28T09:18:36Z</time>
      </trkpt>
      <trkpt lat="46.71068" lon="5.83085">
        <ele>651.4</ele>
        <time>2020-02-28T09:18:37Z</time>
      </trkpt>
      <trkpt lat="46.71068" lon="5.8308">
        <ele>651.4</ele>
        <time>2020-02-28T09:18:38Z</time>
      </trkpt>
      <trkpt lat="46.71069" lon="5.83073">
        <ele>651.8</ele>
        <time>2020-02-28T09:18:39Z</time>
      </trkpt>
      <trkpt lat="46.7107" lon="5.8307">
        <ele>651.8</ele>
        <time>2020-02-28T09:18:40Z</time>
      </trkpt>
      <trkpt lat="46.71071" lon="5.83065">
        <ele>652</ele>
        <time>2020-02-28T09:18:41Z</time>
      </trkpt>
      <trkpt lat="46.71072" lon="5.8306">
        <ele>652</ele>
        <time>2020-02-28T09:18:42Z</time>
      </trkpt>
      <trkpt lat="46.71073" lon="5.83055">
        <ele>652.2</ele>
        <time>2020-02-28T09:18:43Z</time>
      </trkpt>
      <trkpt lat="46.71074" lon="5.8305">
        <ele>652.2</ele>
        <time>2020-02-28T09:18:44Z</time>
      </trkpt>
      <trkpt lat="46.71075" lon="5.83042">
        <ele>652.2</ele>
        <time>2020-02-28T09:18:45Z</time>
      </trkpt>
      <trkpt lat="46.71075" lon="5.83039">
        <ele>652.4</ele>
        <time>2020-02-28T09:18:46Z</time>
      </trkpt>
      <trkpt lat="46.71076" lon="5.83034">
        <ele>652.4</ele>
        <time>2020-02-28T09:18:47Z</time>
      </trkpt>
      <trkpt lat="46.71077" lon="5.83028">
        <ele>652.4</ele>
        <time>2020-02-28T09:18:48Z</time>
      </trkpt>
      <trkpt lat="46.71078" lon="5.83023">
        <ele>652.4</ele>
        <time>2020-02-28T09:18:49Z</time>
      </trkpt>
      <trkpt lat="46.71079" lon="5.83017">
        <ele>652.4</ele>
        <time>2020-02-28T09:18:50Z</time>
      </trkpt>
      <trkpt lat="46.7108" lon="5.83012">
        <ele>652.4</ele>
        <time>2020-02-28T09:18:51Z</time>
      </trkpt>
      <trkpt lat="46.71082" lon="5.83004">
        <ele>652.4</ele>
        <time>2020-02-28T09:18:52Z</time>
      </trkpt>
      <trkpt lat="46.71082" lon="5.83001">
        <ele>652.4</ele>
        <time>2020-02-28T09:18:53Z</time>
      </trkpt>
      <trkpt lat="46.71083" lon="5.82996">
        <ele>652.4</ele>
        <time>2020-02-28T09:18:54Z</time>
      </trkpt>
      <trkpt lat="46.71084" lon="5.82991">
        <ele>652.8</ele>
        <time>2020-02-28T09:18:55Z</time>
      </trkpt>
      <trkpt lat="46.71085" lon="5.82984">
        <ele>652.8</ele>
        <time>2020-02-28T09:18:56Z</time>
      </trkpt>
      <trkpt lat="46.71085" lon="5.82981">
        <ele>652.8</ele>
        <time>2020-02-28T09:18:57Z</time>
      </trkpt>
      <trkpt lat="46.71086" lon="5.82974">
        <ele>652.8</ele>
        <time>2020-02-28T09:18:58Z</time>
      </trkpt>
      <trkpt lat="46.71087" lon="5.82971">
        <ele>653</ele>
        <time>2020-02-28T09:18:59Z</time>
      </trkpt>
      <trkpt lat="46.71087" lon="5.82966">
        <ele>653</ele>
        <time>2020-02-28T09:19:00Z</time>
      </trkpt>
      <trkpt lat="46.71088" lon="5.82961">
        <ele>653</ele>
        <time>2020-02-28T09:19:01Z</time>
      </trkpt>
      <trkpt lat="46.71089" lon="5.82953">
        <ele>653</ele>
        <time>2020-02-28T09:19:02Z</time>
      </trkpt>
      <trkpt lat="46.7109" lon="5.82951">
        <ele>653</ele>
        <time>2020-02-28T09:19:03Z</time>
      </trkpt>
      <trkpt lat="46.7109" lon="5.82946">
        <ele>653</ele>
        <time>2020-02-28T09:19:04Z</time>
      </trkpt>
      <trkpt lat="46.71091" lon="5.82941">
        <ele>653</ele>
        <time>2020-02-28T09:19:05Z</time>
      </trkpt>
      <trkpt lat="46.71092" lon="5.82935">
        <ele>653</ele>
        <time>2020-02-28T09:19:06Z</time>
      </trkpt>
      <trkpt lat="46.71094" lon="5.82929">
        <ele>653</ele>
        <time>2020-02-28T09:19:07Z</time>
      </trkpt>
      <trkpt lat="46.71095" lon="5.82922">
        <ele>652.6</ele>
        <time>2020-02-28T09:19:08Z</time>
      </trkpt>
      <trkpt lat="46.71096" lon="5.82915">
        <ele>652.6</ele>
        <time>2020-02-28T09:19:09Z</time>
      </trkpt>
      <trkpt lat="46.71097" lon="5.82909">
        <ele>652.4</ele>
        <time>2020-02-28T09:19:10Z</time>
      </trkpt>
      <trkpt lat="46.71099" lon="5.82902">
        <ele>652.4</ele>
        <time>2020-02-28T09:19:11Z</time>
      </trkpt>
      <trkpt lat="46.71101" lon="5.82892">
        <ele>652</ele>
        <time>2020-02-28T09:19:12Z</time>
      </trkpt>
      <trkpt lat="46.71101" lon="5.82889">
        <ele>652</ele>
        <time>2020-02-28T09:19:13Z</time>
      </trkpt>
      <trkpt lat="46.71102" lon="5.82882">
        <ele>652</ele>
        <time>2020-02-28T09:19:14Z</time>
      </trkpt>
      <trkpt lat="46.71104" lon="5.82875">
        <ele>651.8</ele>
        <time>2020-02-28T09:19:15Z</time>
      </trkpt>
      <trkpt lat="46.71105" lon="5.82868">
        <ele>651.8</ele>
        <time>2020-02-28T09:19:16Z</time>
      </trkpt>
      <trkpt lat="46.71106" lon="5.82861">
        <ele>651.8</ele>
        <time>2020-02-28T09:19:17Z</time>
      </trkpt>
      <trkpt lat="46.71107" lon="5.82854">
        <ele>651.8</ele>
        <time>2020-02-28T09:19:18Z</time>
      </trkpt>
      <trkpt lat="46.71108" lon="5.82847">
        <ele>651.8</ele>
        <time>2020-02-28T09:19:19Z</time>
      </trkpt>
      <trkpt lat="46.7111" lon="5.82837">
        <ele>651.8</ele>
        <time>2020-02-28T09:19:20Z</time>
      </trkpt>
      <trkpt lat="46.7111" lon="5.82834">
        <ele>651.8</ele>
        <time>2020-02-28T09:19:21Z</time>
      </trkpt>
      <trkpt lat="46.71111" lon="5.82828">
        <ele>651.8</ele>
        <time>2020-02-28T09:19:22Z</time>
      </trkpt>
      <trkpt lat="46.71112" lon="5.82822">
        <ele>651.8</ele>
        <time>2020-02-28T09:19:23Z</time>
      </trkpt>
      <trkpt lat="46.71113" lon="5.82817">
        <ele>651.8</ele>
        <time>2020-02-28T09:19:24Z</time>
      </trkpt>
      <trkpt lat="46.71114" lon="5.82809">
        <ele>651.8</ele>
        <time>2020-02-28T09:19:25Z</time>
      </trkpt>
      <trkpt lat="46.71115" lon="5.82806">
        <ele>651.8</ele>
        <time>2020-02-28T09:19:26Z</time>
      </trkpt>
      <trkpt lat="46.71116" lon="5.82801">
        <ele>651.8</ele>
        <time>2020-02-28T09:19:27Z</time>
      </trkpt>
      <trkpt lat="46.71117" lon="5.82793">
        <ele>651.8</ele>
        <time>2020-02-28T09:19:28Z</time>
      </trkpt>
      <trkpt lat="46.71118" lon="5.82791">
        <ele>651.8</ele>
        <time>2020-02-28T09:19:29Z</time>
      </trkpt>
      <trkpt lat="46.71119" lon="5.82786">
        <ele>651.8</ele>
        <time>2020-02-28T09:19:30Z</time>
      </trkpt>
      <trkpt lat="46.7112" lon="5.82782">
        <ele>652.2</ele>
        <time>2020-02-28T09:19:31Z</time>
      </trkpt>
      <trkpt lat="46.71121" lon="5.82777">
        <ele>652.2</ele>
        <time>2020-02-28T09:19:32Z</time>
      </trkpt>
      <trkpt lat="46.71122" lon="5.82772">
        <ele>652.2</ele>
        <time>2020-02-28T09:19:33Z</time>
      </trkpt>
      <trkpt lat="46.71123" lon="5.82768">
        <ele>652.4</ele>
        <time>2020-02-28T09:19:34Z</time>
      </trkpt>
      <trkpt lat="46.71123" lon="5.82764">
        <ele>652.4</ele>
        <time>2020-02-28T09:19:35Z</time>
      </trkpt>
      <trkpt lat="46.71124" lon="5.82761">
        <ele>652.4</ele>
        <time>2020-02-28T09:19:36Z</time>
      </trkpt>
      <trkpt lat="46.71125" lon="5.82757">
        <ele>652.4</ele>
        <time>2020-02-28T09:19:37Z</time>
      </trkpt>
      <trkpt lat="46.71125" lon="5.82754">
        <ele>652.4</ele>
        <time>2020-02-28T09:19:38Z</time>
      </trkpt>
      <trkpt lat="46.71127" lon="5.82751">
        <ele>652.4</ele>
        <time>2020-02-28T09:19:39Z</time>
      </trkpt>
      <trkpt lat="46.71128" lon="5.82748">
        <ele>652.4</ele>
        <time>2020-02-28T09:19:40Z</time>
      </trkpt>
      <trkpt lat="46.7113" lon="5.82744">
        <ele>652.4</ele>
        <time>2020-02-28T09:19:41Z</time>
      </trkpt>
      <trkpt lat="46.71131" lon="5.82743">
        <ele>652.4</ele>
        <time>2020-02-28T09:19:42Z</time>
      </trkpt>
      <trkpt lat="46.71132" lon="5.82741">
        <ele>652.4</ele>
        <time>2020-02-28T09:19:43Z</time>
      </trkpt>
      <trkpt lat="46.71132" lon="5.8274">
        <ele>652.4</ele>
        <time>2020-02-28T09:19:44Z</time>
      </trkpt>
      <trkpt lat="46.71132" lon="5.8274">
        <ele>652.4</ele>
        <time>2020-02-28T09:19:45Z</time>
      </trkpt>
      <trkpt lat="46.7113" lon="5.82719">
        <ele>653.2</ele>
        <time>2020-02-28T09:22:09Z</time>
      </trkpt>
      <trkpt lat="46.71131" lon="5.82715">
        <ele>653.2</ele>
        <time>2020-02-28T09:22:10Z</time>
      </trkpt>
      <trkpt lat="46.71131" lon="5.82712">
        <ele>653.2</ele>
        <time>2020-02-28T09:22:11Z</time>
      </trkpt>
      <trkpt lat="46.71131" lon="5.82709">
        <ele>653.2</ele>
        <time>2020-02-28T09:22:12Z</time>
      </trkpt>
      <trkpt lat="46.71132" lon="5.82705">
        <ele>653.2</ele>
        <time>2020-02-28T09:22:13Z</time>
      </trkpt>
      <trkpt lat="46.71132" lon="5.82701">
        <ele>653.2</ele>
        <time>2020-02-28T09:22:14Z</time>
      </trkpt>
      <trkpt lat="46.71132" lon="5.82697">
        <ele>653.2</ele>
        <time>2020-02-28T09:22:15Z</time>
      </trkpt>
      <trkpt lat="46.71132" lon="5.82693">
        <ele>653.2</ele>
        <time>2020-02-28T09:22:16Z</time>
      </trkpt>
      <trkpt lat="46.71132" lon="5.82689">
        <ele>653.2</ele>
        <time>2020-02-28T09:22:17Z</time>
      </trkpt>
      <trkpt lat="46.71132" lon="5.82685">
        <ele>653.2</ele>
        <time>2020-02-28T09:22:18Z</time>
      </trkpt>
      <trkpt lat="46.71131" lon="5.82681">
        <ele>653.2</ele>
        <time>2020-02-28T09:22:19Z</time>
      </trkpt>
      <trkpt lat="46.71131" lon="5.82677">
        <ele>653.2</ele>
        <time>2020-02-28T09:22:20Z</time>
      </trkpt>
      <trkpt lat="46.7113" lon="5.82673">
        <ele>653.2</ele>
        <time>2020-02-28T09:22:21Z</time>
      </trkpt>
      <trkpt lat="46.7113" lon="5.8267">
        <ele>653.4</ele>
        <time>2020-02-28T09:22:22Z</time>
      </trkpt>
      <trkpt lat="46.71129" lon="5.82667">
        <ele>653.4</ele>
        <time>2020-02-28T09:22:23Z</time>
      </trkpt>
      <trkpt lat="46.71129" lon="5.82664">
        <ele>653.4</ele>
        <time>2020-02-28T09:22:24Z</time>
      </trkpt>
      <trkpt lat="46.71129" lon="5.8266">
        <ele>653.4</ele>
        <time>2020-02-28T09:22:25Z</time>
      </trkpt>
      <trkpt lat="46.71128" lon="5.82657">
        <ele>653.6</ele>
        <time>2020-02-28T09:22:26Z</time>
      </trkpt>
      <trkpt lat="46.71128" lon="5.82653">
        <ele>653.6</ele>
        <time>2020-02-28T09:22:27Z</time>
      </trkpt>
      <trkpt lat="46.71127" lon="5.8265">
        <ele>653.8</ele>
        <time>2020-02-28T09:22:28Z</time>
      </trkpt>
      <trkpt lat="46.71126" lon="5.82646">
        <ele>653.8</ele>
        <time>2020-02-28T09:22:29Z</time>
      </trkpt>
      <trkpt lat="46.71125" lon="5.82643">
        <ele>654.2</ele>
        <time>2020-02-28T09:22:30Z</time>
      </trkpt>
      <trkpt lat="46.71124" lon="5.82639">
        <ele>654.2</ele>
        <time>2020-02-28T09:22:31Z</time>
      </trkpt>
      <trkpt lat="46.71123" lon="5.82636">
        <ele>654.6</ele>
        <time>2020-02-28T09:22:32Z</time>
      </trkpt>
      <trkpt lat="46.71122" lon="5.82634">
        <ele>654.6</ele>
        <time>2020-02-28T09:22:33Z</time>
      </trkpt>
      <trkpt lat="46.71121" lon="5.82631">
        <ele>654.8</ele>
        <time>2020-02-28T09:22:34Z</time>
      </trkpt>
      <trkpt lat="46.7112" lon="5.82628">
        <ele>654.8</ele>
        <time>2020-02-28T09:22:35Z</time>
      </trkpt>
      <trkpt lat="46.71119" lon="5.82625">
        <ele>655.2</ele>
        <time>2020-02-28T09:22:36Z</time>
      </trkpt>
      <trkpt lat="46.71118" lon="5.82623">
        <ele>655.2</ele>
        <time>2020-02-28T09:22:37Z</time>
      </trkpt>
      <trkpt lat="46.71117" lon="5.8262">
        <ele>655.2</ele>
        <time>2020-02-28T09:22:38Z</time>
      </trkpt>
      <trkpt lat="46.71116" lon="5.82617">
        <ele>655.4</ele>
        <time>2020-02-28T09:22:39Z</time>
      </trkpt>
      <trkpt lat="46.71114" lon="5.82614">
        <ele>655.4</ele>
        <time>2020-02-28T09:22:40Z</time>
      </trkpt>
      <trkpt lat="46.71113" lon="5.82611">
        <ele>655.4</ele>
        <time>2020-02-28T09:22:41Z</time>
      </trkpt>
      <trkpt lat="46.71111" lon="5.82607">
        <ele>655.4</ele>
        <time>2020-02-28T09:22:42Z</time>
      </trkpt>
      <trkpt lat="46.7111" lon="5.82604">
        <ele>655.6</ele>
        <time>2020-02-28T09:22:43Z</time>
      </trkpt>
      <trkpt lat="46.71108" lon="5.82601">
        <ele>655.6</ele>
        <time>2020-02-28T09:22:44Z</time>
      </trkpt>
      <trkpt lat="46.71107" lon="5.82598">
        <ele>655.6</ele>
        <time>2020-02-28T09:22:45Z</time>
      </trkpt>
      <trkpt lat="46.71106" lon="5.82595">
        <ele>655.6</ele>
        <time>2020-02-28T09:22:46Z</time>
      </trkpt>
      <trkpt lat="46.71105" lon="5.82592">
        <ele>655.6</ele>
        <time>2020-02-28T09:22:47Z</time>
      </trkpt>
      <trkpt lat="46.71103" lon="5.82589">
        <ele>655.6</ele>
        <time>2020-02-28T09:22:48Z</time>
      </trkpt>
      <trkpt lat="46.71102" lon="5.82586">
        <ele>655.6</ele>
        <time>2020-02-28T09:22:49Z</time>
      </trkpt>
      <trkpt lat="46.711" lon="5.82582">
        <ele>655.6</ele>
        <time>2020-02-28T09:22:50Z</time>
      </trkpt>
      <trkpt lat="46.71099" lon="5.82578">
        <ele>655.6</ele>
        <time>2020-02-28T09:22:51Z</time>
      </trkpt>
      <trkpt lat="46.71097" lon="5.82574">
        <ele>655.6</ele>
        <time>2020-02-28T09:22:52Z</time>
      </trkpt>
      <trkpt lat="46.71095" lon="5.8257">
        <ele>655.6</ele>
        <time>2020-02-28T09:22:53Z</time>
      </trkpt>
      <trkpt lat="46.71093" lon="5.82566">
        <ele>655.2</ele>
        <time>2020-02-28T09:22:54Z</time>
      </trkpt>
      <trkpt lat="46.71091" lon="5.82561">
        <ele>655.2</ele>
        <time>2020-02-28T09:22:55Z</time>
      </trkpt>
      <trkpt lat="46.7109" lon="5.82556">
        <ele>655.2</ele>
        <time>2020-02-28T09:22:56Z</time>
      </trkpt>
      <trkpt lat="46.71088" lon="5.82552">
        <ele>655</ele>
        <time>2020-02-28T09:22:57Z</time>
      </trkpt>
      <trkpt lat="46.71085" lon="5.82547">
        <ele>654.8</ele>
        <time>2020-02-28T09:22:58Z</time>
      </trkpt>
      <trkpt lat="46.71083" lon="5.82541">
        <ele>654.8</ele>
        <time>2020-02-28T09:22:59Z</time>
      </trkpt>
      <trkpt lat="46.71081" lon="5.82536">
        <ele>654.4</ele>
        <time>2020-02-28T09:23:00Z</time>
      </trkpt>
      <trkpt lat="46.71078" lon="5.8253">
        <ele>654.4</ele>
        <time>2020-02-28T09:23:01Z</time>
      </trkpt>
      <trkpt lat="46.71076" lon="5.82524">
        <ele>654.2</ele>
        <time>2020-02-28T09:23:02Z</time>
      </trkpt>
      <trkpt lat="46.71073" lon="5.82518">
        <ele>654</ele>
        <time>2020-02-28T09:23:03Z</time>
      </trkpt>
      <trkpt lat="46.7107" lon="5.82511">
        <ele>653.6</ele>
        <time>2020-02-28T09:23:04Z</time>
      </trkpt>
      <trkpt lat="46.71068" lon="5.82504">
        <ele>653.2</ele>
        <time>2020-02-28T09:23:05Z</time>
      </trkpt>
      <trkpt lat="46.71065" lon="5.82498">
        <ele>653</ele>
        <time>2020-02-28T09:23:06Z</time>
      </trkpt>
      <trkpt lat="46.71063" lon="5.82491">
        <ele>652.8</ele>
        <time>2020-02-28T09:23:07Z</time>
      </trkpt>
      <trkpt lat="46.71061" lon="5.82485">
        <ele>652.6</ele>
        <time>2020-02-28T09:23:08Z</time>
      </trkpt>
      <trkpt lat="46.71059" lon="5.82478">
        <ele>652.2</ele>
        <time>2020-02-28T09:23:09Z</time>
      </trkpt>
      <trkpt lat="46.71056" lon="5.82472">
        <ele>652.2</ele>
        <time>2020-02-28T09:23:10Z</time>
      </trkpt>
      <trkpt lat="46.71054" lon="5.82465">
        <ele>651.8</ele>
        <time>2020-02-28T09:23:11Z</time>
      </trkpt>
      <trkpt lat="46.71051" lon="5.82458">
        <ele>651.4</ele>
        <time>2020-02-28T09:23:12Z</time>
      </trkpt>
      <trkpt lat="46.71048" lon="5.82452">
        <ele>651.2</ele>
        <time>2020-02-28T09:23:13Z</time>
      </trkpt>
      <trkpt lat="46.71046" lon="5.82445">
        <ele>651</ele>
        <time>2020-02-28T09:23:14Z</time>
      </trkpt>
      <trkpt lat="46.71043" lon="5.82439">
        <ele>651</ele>
        <time>2020-02-28T09:23:15Z</time>
      </trkpt>
      <trkpt lat="46.71041" lon="5.82433">
        <ele>650.6</ele>
        <time>2020-02-28T09:23:16Z</time>
      </trkpt>
      <trkpt lat="46.71039" lon="5.82427">
        <ele>650.6</ele>
        <time>2020-02-28T09:23:17Z</time>
      </trkpt>
      <trkpt lat="46.71036" lon="5.82421">
        <ele>650.4</ele>
        <time>2020-02-28T09:23:18Z</time>
      </trkpt>
      <trkpt lat="46.71034" lon="5.82416">
        <ele>650.4</ele>
        <time>2020-02-28T09:23:19Z</time>
      </trkpt>
      <trkpt lat="46.71032" lon="5.82411">
        <ele>650</ele>
        <time>2020-02-28T09:23:20Z</time>
      </trkpt>
      <trkpt lat="46.7103" lon="5.82405">
        <ele>650</ele>
        <time>2020-02-28T09:23:21Z</time>
      </trkpt>
      <trkpt lat="46.71027" lon="5.82399">
        <ele>649.8</ele>
        <time>2020-02-28T09:23:22Z</time>
      </trkpt>
      <trkpt lat="46.71025" lon="5.82393">
        <ele>649.8</ele>
        <time>2020-02-28T09:23:23Z</time>
      </trkpt>
      <trkpt lat="46.71022" lon="5.82386">
        <ele>649.4</ele>
        <time>2020-02-28T09:23:24Z</time>
      </trkpt>
      <trkpt lat="46.71019" lon="5.8238">
        <ele>649.4</ele>
        <time>2020-02-28T09:23:25Z</time>
      </trkpt>
      <trkpt lat="46.71017" lon="5.82374">
        <ele>649</ele>
        <time>2020-02-28T09:23:26Z</time>
      </trkpt>
      <trkpt lat="46.71014" lon="5.82367">
        <ele>649</ele>
        <time>2020-02-28T09:23:27Z</time>
      </trkpt>
      <trkpt lat="46.71012" lon="5.82361">
        <ele>648.6</ele>
        <time>2020-02-28T09:23:28Z</time>
      </trkpt>
      <trkpt lat="46.71009" lon="5.82354">
        <ele>648.6</ele>
        <time>2020-02-28T09:23:29Z</time>
      </trkpt>
      <trkpt lat="46.71006" lon="5.82347">
        <ele>648.2</ele>
        <time>2020-02-28T09:23:30Z</time>
      </trkpt>
      <trkpt lat="46.71003" lon="5.82339">
        <ele>648</ele>
        <time>2020-02-28T09:23:31Z</time>
      </trkpt>
      <trkpt lat="46.71" lon="5.82332">
        <ele>647.6</ele>
        <time>2020-02-28T09:23:32Z</time>
      </trkpt>
      <trkpt lat="46.70997" lon="5.82324">
        <ele>647.4</ele>
        <time>2020-02-28T09:23:33Z</time>
      </trkpt>
      <trkpt lat="46.70994" lon="5.82316">
        <ele>647</ele>
        <time>2020-02-28T09:23:34Z</time>
      </trkpt>
      <trkpt lat="46.70991" lon="5.82309">
        <ele>646.8</ele>
        <time>2020-02-28T09:23:35Z</time>
      </trkpt>
      <trkpt lat="46.70988" lon="5.82301">
        <ele>646.6</ele>
        <time>2020-02-28T09:23:36Z</time>
      </trkpt>
      <trkpt lat="46.70985" lon="5.82293">
        <ele>646.4</ele>
        <time>2020-02-28T09:23:37Z</time>
      </trkpt>
      <trkpt lat="46.70981" lon="5.82285">
        <ele>646.4</ele>
        <time>2020-02-28T09:23:38Z</time>
      </trkpt>
      <trkpt lat="46.70978" lon="5.82277">
        <ele>646</ele>
        <time>2020-02-28T09:23:39Z</time>
      </trkpt>
      <trkpt lat="46.70975" lon="5.82269">
        <ele>645.6</ele>
        <time>2020-02-28T09:23:40Z</time>
      </trkpt>
      <trkpt lat="46.70971" lon="5.8226">
        <ele>645.4</ele>
        <time>2020-02-28T09:23:41Z</time>
      </trkpt>
      <trkpt lat="46.70967" lon="5.82252">
        <ele>645.2</ele>
        <time>2020-02-28T09:23:42Z</time>
      </trkpt>
      <trkpt lat="46.70964" lon="5.82243">
        <ele>644.8</ele>
        <time>2020-02-28T09:23:43Z</time>
      </trkpt>
      <trkpt lat="46.70961" lon="5.82235">
        <ele>644.6</ele>
        <time>2020-02-28T09:23:44Z</time>
      </trkpt>
      <trkpt lat="46.70957" lon="5.82226">
        <ele>644.4</ele>
        <time>2020-02-28T09:23:45Z</time>
      </trkpt>
      <trkpt lat="46.70954" lon="5.82218">
        <ele>644</ele>
        <time>2020-02-28T09:23:46Z</time>
      </trkpt>
      <trkpt lat="46.70951" lon="5.8221">
        <ele>643.8</ele>
        <time>2020-02-28T09:23:47Z</time>
      </trkpt>
      <trkpt lat="46.70947" lon="5.82201">
        <ele>643.8</ele>
        <time>2020-02-28T09:23:48Z</time>
      </trkpt>
      <trkpt lat="46.70944" lon="5.82193">
        <ele>643.4</ele>
        <time>2020-02-28T09:23:49Z</time>
      </trkpt>
      <trkpt lat="46.70941" lon="5.82185">
        <ele>643.2</ele>
        <time>2020-02-28T09:23:50Z</time>
      </trkpt>
      <trkpt lat="46.70937" lon="5.82176">
        <ele>643</ele>
        <time>2020-02-28T09:23:51Z</time>
      </trkpt>
      <trkpt lat="46.70934" lon="5.82168">
        <ele>643</ele>
        <time>2020-02-28T09:23:52Z</time>
      </trkpt>
      <trkpt lat="46.70931" lon="5.8216">
        <ele>642.6</ele>
        <time>2020-02-28T09:23:53Z</time>
      </trkpt>
      <trkpt lat="46.70927" lon="5.82152">
        <ele>642.6</ele>
        <time>2020-02-28T09:23:54Z</time>
      </trkpt>
      <trkpt lat="46.70924" lon="5.82144">
        <ele>642.2</ele>
        <time>2020-02-28T09:23:55Z</time>
      </trkpt>
      <trkpt lat="46.70921" lon="5.82137">
        <ele>642</ele>
        <time>2020-02-28T09:23:56Z</time>
      </trkpt>
      <trkpt lat="46.70918" lon="5.82129">
        <ele>642</ele>
        <time>2020-02-28T09:23:57Z</time>
      </trkpt>
      <trkpt lat="46.70915" lon="5.82122">
        <ele>641.6</ele>
        <time>2020-02-28T09:23:58Z</time>
      </trkpt>
      <trkpt lat="46.70912" lon="5.82115">
        <ele>641.6</ele>
        <time>2020-02-28T09:23:59Z</time>
      </trkpt>
      <trkpt lat="46.70909" lon="5.82108">
        <ele>641.4</ele>
        <time>2020-02-28T09:24:00Z</time>
      </trkpt>
      <trkpt lat="46.70907" lon="5.82101">
        <ele>641.4</ele>
        <time>2020-02-28T09:24:01Z</time>
      </trkpt>
      <trkpt lat="46.70904" lon="5.82093">
        <ele>641</ele>
        <time>2020-02-28T09:24:02Z</time>
      </trkpt>
      <trkpt lat="46.70901" lon="5.82086">
        <ele>641</ele>
        <time>2020-02-28T09:24:03Z</time>
      </trkpt>
      <trkpt lat="46.70898" lon="5.82079">
        <ele>640.6</ele>
        <time>2020-02-28T09:24:04Z</time>
      </trkpt>
      <trkpt lat="46.70895" lon="5.82071">
        <ele>640.4</ele>
        <time>2020-02-28T09:24:05Z</time>
      </trkpt>
      <trkpt lat="46.70892" lon="5.82064">
        <ele>640.2</ele>
        <time>2020-02-28T09:24:06Z</time>
      </trkpt>
      <trkpt lat="46.70889" lon="5.82056">
        <ele>640.2</ele>
        <time>2020-02-28T09:24:07Z</time>
      </trkpt>
      <trkpt lat="46.70885" lon="5.82048">
        <ele>640</ele>
        <time>2020-02-28T09:24:08Z</time>
      </trkpt>
      <trkpt lat="46.70882" lon="5.82041">
        <ele>639.6</ele>
        <time>2020-02-28T09:24:09Z</time>
      </trkpt>
      <trkpt lat="46.70879" lon="5.82034">
        <ele>639.2</ele>
        <time>2020-02-28T09:24:10Z</time>
      </trkpt>
      <trkpt lat="46.70876" lon="5.82026">
        <ele>639.2</ele>
        <time>2020-02-28T09:24:11Z</time>
      </trkpt>
      <trkpt lat="46.70873" lon="5.82019">
        <ele>639</ele>
        <time>2020-02-28T09:24:12Z</time>
      </trkpt>
      <trkpt lat="46.7087" lon="5.82011">
        <ele>639</ele>
        <time>2020-02-28T09:24:13Z</time>
      </trkpt>
      <trkpt lat="46.70867" lon="5.82004">
        <ele>638.8</ele>
        <time>2020-02-28T09:24:14Z</time>
      </trkpt>
      <trkpt lat="46.70864" lon="5.81997">
        <ele>638.8</ele>
        <time>2020-02-28T09:24:15Z</time>
      </trkpt>
      <trkpt lat="46.70861" lon="5.8199">
        <ele>638.4</ele>
        <time>2020-02-28T09:24:16Z</time>
      </trkpt>
      <trkpt lat="46.70858" lon="5.81983">
        <ele>638.4</ele>
        <time>2020-02-28T09:24:17Z</time>
      </trkpt>
      <trkpt lat="46.70855" lon="5.81976">
        <ele>638</ele>
        <time>2020-02-28T09:24:18Z</time>
      </trkpt>
      <trkpt lat="46.70852" lon="5.81969">
        <ele>638</ele>
        <time>2020-02-28T09:24:19Z</time>
      </trkpt>
      <trkpt lat="46.7085" lon="5.81962">
        <ele>637.8</ele>
        <time>2020-02-28T09:24:20Z</time>
      </trkpt>
      <trkpt lat="46.70847" lon="5.81955">
        <ele>637.8</ele>
        <time>2020-02-28T09:24:21Z</time>
      </trkpt>
      <trkpt lat="46.70844" lon="5.81948">
        <ele>637.4</ele>
        <time>2020-02-28T09:24:22Z</time>
      </trkpt>
      <trkpt lat="46.70841" lon="5.81941">
        <ele>637.4</ele>
        <time>2020-02-28T09:24:23Z</time>
      </trkpt>
      <trkpt lat="46.70839" lon="5.81935">
        <ele>637</ele>
        <time>2020-02-28T09:24:24Z</time>
      </trkpt>
      <trkpt lat="46.70836" lon="5.81928">
        <ele>637</ele>
        <time>2020-02-28T09:24:25Z</time>
      </trkpt>
      <trkpt lat="46.70833" lon="5.81921">
        <ele>636.6</ele>
        <time>2020-02-28T09:24:26Z</time>
      </trkpt>
      <trkpt lat="46.7083" lon="5.81914">
        <ele>636.6</ele>
        <time>2020-02-28T09:24:27Z</time>
      </trkpt>
      <trkpt lat="46.70828" lon="5.81908">
        <ele>636.2</ele>
        <time>2020-02-28T09:24:28Z</time>
      </trkpt>
      <trkpt lat="46.70825" lon="5.81902">
        <ele>636.2</ele>
        <time>2020-02-28T09:24:29Z</time>
      </trkpt>
      <trkpt lat="46.70823" lon="5.81896">
        <ele>636</ele>
        <time>2020-02-28T09:24:30Z</time>
      </trkpt>
      <trkpt lat="46.70821" lon="5.81891">
        <ele>636</ele>
        <time>2020-02-28T09:24:31Z</time>
      </trkpt>
      <trkpt lat="46.70818" lon="5.81886">
        <ele>635.6</ele>
        <time>2020-02-28T09:24:32Z</time>
      </trkpt>
      <trkpt lat="46.70816" lon="5.81883">
        <ele>635.4</ele>
        <time>2020-02-28T09:24:33Z</time>
      </trkpt>
      <trkpt lat="46.70814" lon="5.8188">
        <ele>635.2</ele>
        <time>2020-02-28T09:24:34Z</time>
      </trkpt>
      <trkpt lat="46.70813" lon="5.81877">
        <ele>635.2</ele>
        <time>2020-02-28T09:24:35Z</time>
      </trkpt>
      <trkpt lat="46.70812" lon="5.81875">
        <ele>635.2</ele>
        <time>2020-02-28T09:24:36Z</time>
      </trkpt>
      <trkpt lat="46.70811" lon="5.81875">
        <ele>635.2</ele>
        <time>2020-02-28T09:24:37Z</time>
      </trkpt>
      <trkpt lat="46.70811" lon="5.81875">
        <ele>635.2</ele>
        <time>2020-02-28T09:24:38Z</time>
      </trkpt>
      <trkpt lat="46.70808" lon="5.81868">
        <ele>634.8</ele>
        <time>2020-02-28T09:25:25Z</time>
      </trkpt>
      <trkpt lat="46.70807" lon="5.81865">
        <ele>634.6</ele>
        <time>2020-02-28T09:25:26Z</time>
      </trkpt>
      <trkpt lat="46.70806" lon="5.81861">
        <ele>634.6</ele>
        <time>2020-02-28T09:25:27Z</time>
      </trkpt>
      <trkpt lat="46.70804" lon="5.81857">
        <ele>634.6</ele>
        <time>2020-02-28T09:25:28Z</time>
      </trkpt>
      <trkpt lat="46.70802" lon="5.81853">
        <ele>634.4</ele>
        <time>2020-02-28T09:25:29Z</time>
      </trkpt>
      <trkpt lat="46.70801" lon="5.81848">
        <ele>634.4</ele>
        <time>2020-02-28T09:25:30Z</time>
      </trkpt>
      <trkpt lat="46.70799" lon="5.81844">
        <ele>634.2</ele>
        <time>2020-02-28T09:25:31Z</time>
      </trkpt>
      <trkpt lat="46.70796" lon="5.81839">
        <ele>634.2</ele>
        <time>2020-02-28T09:25:32Z</time>
      </trkpt>
      <trkpt lat="46.70793" lon="5.81832">
        <ele>634.2</ele>
        <time>2020-02-28T09:25:33Z</time>
      </trkpt>
      <trkpt lat="46.70792" lon="5.81829">
        <ele>633.8</ele>
        <time>2020-02-28T09:25:34Z</time>
      </trkpt>
      <trkpt lat="46.70788" lon="5.81821">
        <ele>633.6</ele>
        <time>2020-02-28T09:25:35Z</time>
      </trkpt>
      <trkpt lat="46.70787" lon="5.81818">
        <ele>633.6</ele>
        <time>2020-02-28T09:25:36Z</time>
      </trkpt>
      <trkpt lat="46.70785" lon="5.81812">
        <ele>633.6</ele>
        <time>2020-02-28T09:25:37Z</time>
      </trkpt>
      <trkpt lat="46.70783" lon="5.81807">
        <ele>633.6</ele>
        <time>2020-02-28T09:25:38Z</time>
      </trkpt>
      <trkpt lat="46.7078" lon="5.81801">
        <ele>633.4</ele>
        <time>2020-02-28T09:25:39Z</time>
      </trkpt>
      <trkpt lat="46.70775" lon="5.81793">
        <ele>633.4</ele>
        <time>2020-02-28T09:25:40Z</time>
      </trkpt>
      <trkpt lat="46.70774" lon="5.8179">
        <ele>633</ele>
        <time>2020-02-28T09:25:41Z</time>
      </trkpt>
      <trkpt lat="46.70771" lon="5.81784">
        <ele>633</ele>
        <time>2020-02-28T09:25:42Z</time>
      </trkpt>
      <trkpt lat="46.70768" lon="5.81778">
        <ele>632.6</ele>
        <time>2020-02-28T09:25:43Z</time>
      </trkpt>
      <trkpt lat="46.70766" lon="5.81771">
        <ele>632.6</ele>
        <time>2020-02-28T09:25:44Z</time>
      </trkpt>
      <trkpt lat="46.70763" lon="5.81765">
        <ele>632.4</ele>
        <time>2020-02-28T09:25:45Z</time>
      </trkpt>
      <trkpt lat="46.7076" lon="5.81758">
        <ele>632.4</ele>
        <time>2020-02-28T09:25:46Z</time>
      </trkpt>
      <trkpt lat="46.70757" lon="5.81752">
        <ele>632.2</ele>
        <time>2020-02-28T09:25:47Z</time>
      </trkpt>
      <trkpt lat="46.70754" lon="5.81745">
        <ele>632</ele>
        <time>2020-02-28T09:25:48Z</time>
      </trkpt>
      <trkpt lat="46.70751" lon="5.81739">
        <ele>632</ele>
        <time>2020-02-28T09:25:49Z</time>
      </trkpt>
      <trkpt lat="46.70748" lon="5.81733">
        <ele>631.6</ele>
        <time>2020-02-28T09:25:50Z</time>
      </trkpt>
      <trkpt lat="46.70744" lon="5.81723">
        <ele>631.6</ele>
        <time>2020-02-28T09:25:51Z</time>
      </trkpt>
      <trkpt lat="46.70742" lon="5.8172">
        <ele>631.6</ele>
        <time>2020-02-28T09:25:52Z</time>
      </trkpt>
      <trkpt lat="46.7074" lon="5.81714">
        <ele>631.2</ele>
        <time>2020-02-28T09:25:53Z</time>
      </trkpt>
      <trkpt lat="46.70736" lon="5.81706">
        <ele>631.2</ele>
        <time>2020-02-28T09:25:54Z</time>
      </trkpt>
      <trkpt lat="46.70735" lon="5.81704">
        <ele>631</ele>
        <time>2020-02-28T09:25:55Z</time>
      </trkpt>
      <trkpt lat="46.70733" lon="5.81699">
        <ele>631</ele>
        <time>2020-02-28T09:25:56Z</time>
      </trkpt>
      <trkpt lat="46.70731" lon="5.81694">
        <ele>631</ele>
        <time>2020-02-28T09:25:57Z</time>
      </trkpt>
      <trkpt lat="46.70727" lon="5.81686">
        <ele>631</ele>
        <time>2020-02-28T09:25:58Z</time>
      </trkpt>
      <trkpt lat="46.70726" lon="5.81684">
        <ele>631</ele>
        <time>2020-02-28T09:25:59Z</time>
      </trkpt>
      <trkpt lat="46.70725" lon="5.81679">
        <ele>630.6</ele>
        <time>2020-02-28T09:26:00Z</time>
      </trkpt>
      <trkpt lat="46.70723" lon="5.81674">
        <ele>630.4</ele>
        <time>2020-02-28T09:26:01Z</time>
      </trkpt>
      <trkpt lat="46.70721" lon="5.81668">
        <ele>630.2</ele>
        <time>2020-02-28T09:26:02Z</time>
      </trkpt>
      <trkpt lat="46.7072" lon="5.81663">
        <ele>630</ele>
        <time>2020-02-28T09:26:03Z</time>
      </trkpt>
      <trkpt lat="46.70719" lon="5.81657">
        <ele>629.8</ele>
        <time>2020-02-28T09:26:04Z</time>
      </trkpt>
      <trkpt lat="46.70718" lon="5.81651">
        <ele>629.6</ele>
        <time>2020-02-28T09:26:05Z</time>
      </trkpt>
      <trkpt lat="46.70716" lon="5.81646">
        <ele>629.4</ele>
        <time>2020-02-28T09:26:06Z</time>
      </trkpt>
      <trkpt lat="46.70716" lon="5.8164">
        <ele>629.4</ele>
        <time>2020-02-28T09:26:07Z</time>
      </trkpt>
      <trkpt lat="46.70715" lon="5.81633">
        <ele>628.8</ele>
        <time>2020-02-28T09:26:08Z</time>
      </trkpt>
      <trkpt lat="46.70715" lon="5.81627">
        <ele>628.6</ele>
        <time>2020-02-28T09:26:09Z</time>
      </trkpt>
      <trkpt lat="46.70715" lon="5.81621">
        <ele>628.4</ele>
        <time>2020-02-28T09:26:10Z</time>
      </trkpt>
      <trkpt lat="46.70715" lon="5.81614">
        <ele>628.2</ele>
        <time>2020-02-28T09:26:11Z</time>
      </trkpt>
      <trkpt lat="46.70716" lon="5.81608">
        <ele>628.2</ele>
        <time>2020-02-28T09:26:12Z</time>
      </trkpt>
      <trkpt lat="46.70716" lon="5.81601">
        <ele>627.8</ele>
        <time>2020-02-28T09:26:13Z</time>
      </trkpt>
      <trkpt lat="46.70717" lon="5.81595">
        <ele>627.8</ele>
        <time>2020-02-28T09:26:14Z</time>
      </trkpt>
      <trkpt lat="46.70718" lon="5.81588">
        <ele>627.6</ele>
        <time>2020-02-28T09:26:15Z</time>
      </trkpt>
      <trkpt lat="46.70718" lon="5.81581">
        <ele>627.6</ele>
        <time>2020-02-28T09:26:16Z</time>
      </trkpt>
      <trkpt lat="46.70719" lon="5.81574">
        <ele>627.2</ele>
        <time>2020-02-28T09:26:17Z</time>
      </trkpt>
      <trkpt lat="46.70721" lon="5.81563">
        <ele>627.2</ele>
        <time>2020-02-28T09:26:18Z</time>
      </trkpt>
      <trkpt lat="46.70721" lon="5.81559">
        <ele>627</ele>
        <time>2020-02-28T09:26:19Z</time>
      </trkpt>
      <trkpt lat="46.70722" lon="5.81551">
        <ele>627</ele>
        <time>2020-02-28T09:26:20Z</time>
      </trkpt>
      <trkpt lat="46.70723" lon="5.81544">
        <ele>626.4</ele>
        <time>2020-02-28T09:26:21Z</time>
      </trkpt>
      <trkpt lat="46.70725" lon="5.81533">
        <ele>626.2</ele>
        <time>2020-02-28T09:26:22Z</time>
      </trkpt>
      <trkpt lat="46.70725" lon="5.81529">
        <ele>626</ele>
        <time>2020-02-28T09:26:23Z</time>
      </trkpt>
      <trkpt lat="46.70727" lon="5.81522">
        <ele>625.8</ele>
        <time>2020-02-28T09:26:24Z</time>
      </trkpt>
      <trkpt lat="46.70727" lon="5.81515">
        <ele>625.4</ele>
        <time>2020-02-28T09:26:25Z</time>
      </trkpt>
      <trkpt lat="46.70727" lon="5.81507">
        <ele>625.4</ele>
        <time>2020-02-28T09:26:26Z</time>
      </trkpt>
      <trkpt lat="46.70728" lon="5.81499">
        <ele>625.4</ele>
        <time>2020-02-28T09:26:27Z</time>
      </trkpt>
      <trkpt lat="46.70729" lon="5.81491">
        <ele>625.4</ele>
        <time>2020-02-28T09:26:28Z</time>
      </trkpt>
      <trkpt lat="46.7073" lon="5.81478">
        <ele>625.2</ele>
        <time>2020-02-28T09:26:29Z</time>
      </trkpt>
      <trkpt lat="46.70731" lon="5.81475">
        <ele>625.2</ele>
        <time>2020-02-28T09:26:30Z</time>
      </trkpt>
      <trkpt lat="46.70731" lon="5.81467">
        <ele>624.8</ele>
        <time>2020-02-28T09:26:31Z</time>
      </trkpt>
      <trkpt lat="46.70732" lon="5.81459">
        <ele>624.8</ele>
        <time>2020-02-28T09:26:32Z</time>
      </trkpt>
      <trkpt lat="46.70733" lon="5.81452">
        <ele>624.6</ele>
        <time>2020-02-28T09:26:33Z</time>
      </trkpt>
      <trkpt lat="46.70734" lon="5.81445">
        <ele>624.6</ele>
        <time>2020-02-28T09:26:34Z</time>
      </trkpt>
      <trkpt lat="46.70735" lon="5.81437">
        <ele>624.6</ele>
        <time>2020-02-28T09:26:35Z</time>
      </trkpt>
      <trkpt lat="46.70736" lon="5.8143">
        <ele>624.4</ele>
        <time>2020-02-28T09:26:36Z</time>
      </trkpt>
      <trkpt lat="46.70736" lon="5.81423">
        <ele>624.4</ele>
        <time>2020-02-28T09:26:37Z</time>
      </trkpt>
      <trkpt lat="46.70737" lon="5.81415">
        <ele>624.2</ele>
        <time>2020-02-28T09:26:38Z</time>
      </trkpt>
      <trkpt lat="46.70738" lon="5.81407">
        <ele>624.2</ele>
        <time>2020-02-28T09:26:39Z</time>
      </trkpt>
      <trkpt lat="46.70739" lon="5.81399">
        <ele>623.8</ele>
        <time>2020-02-28T09:26:40Z</time>
      </trkpt>
      <trkpt lat="46.7074" lon="5.81391">
        <ele>623.8</ele>
        <time>2020-02-28T09:26:41Z</time>
      </trkpt>
      <trkpt lat="46.70741" lon="5.81383">
        <ele>623.4</ele>
        <time>2020-02-28T09:26:42Z</time>
      </trkpt>
      <trkpt lat="46.70742" lon="5.81376">
        <ele>623.2</ele>
        <time>2020-02-28T09:26:43Z</time>
      </trkpt>
      <trkpt lat="46.70742" lon="5.81363">
        <ele>623</ele>
        <time>2020-02-28T09:26:44Z</time>
      </trkpt>
      <trkpt lat="46.70742" lon="5.81359">
        <ele>623</ele>
        <time>2020-02-28T09:26:45Z</time>
      </trkpt>
      <trkpt lat="46.70742" lon="5.8135">
        <ele>622.8</ele>
        <time>2020-02-28T09:26:46Z</time>
      </trkpt>
      <trkpt lat="46.70743" lon="5.81342">
        <ele>622.8</ele>
        <time>2020-02-28T09:26:47Z</time>
      </trkpt>
      <trkpt lat="46.70744" lon="5.81334">
        <ele>622.4</ele>
        <time>2020-02-28T09:26:48Z</time>
      </trkpt>
      <trkpt lat="46.70745" lon="5.8132">
        <ele>622.4</ele>
        <time>2020-02-28T09:26:49Z</time>
      </trkpt>
      <trkpt lat="46.70746" lon="5.81315">
        <ele>622</ele>
        <time>2020-02-28T09:26:50Z</time>
      </trkpt>
      <trkpt lat="46.70747" lon="5.81307">
        <ele>621.8</ele>
        <time>2020-02-28T09:26:51Z</time>
      </trkpt>
      <trkpt lat="46.70748" lon="5.81292">
        <ele>621.6</ele>
        <time>2020-02-28T09:26:52Z</time>
      </trkpt>
      <trkpt lat="46.70749" lon="5.81287">
        <ele>621.6</ele>
        <time>2020-02-28T09:26:53Z</time>
      </trkpt>
      <trkpt lat="46.7075" lon="5.81278">
        <ele>621.2</ele>
        <time>2020-02-28T09:26:54Z</time>
      </trkpt>
      <trkpt lat="46.7075" lon="5.81269">
        <ele>621.2</ele>
        <time>2020-02-28T09:26:55Z</time>
      </trkpt>
      <trkpt lat="46.70751" lon="5.81254">
        <ele>621</ele>
        <time>2020-02-28T09:26:56Z</time>
      </trkpt>
      <trkpt lat="46.70752" lon="5.81248">
        <ele>621</ele>
        <time>2020-02-28T09:26:57Z</time>
      </trkpt>
      <trkpt lat="46.70754" lon="5.81236">
        <ele>620.8</ele>
        <time>2020-02-28T09:26:58Z</time>
      </trkpt>
      <trkpt lat="46.70755" lon="5.81224">
        <ele>620.8</ele>
        <time>2020-02-28T09:26:59Z</time>
      </trkpt>
      <trkpt lat="46.70756" lon="5.81214">
        <ele>620.4</ele>
        <time>2020-02-28T09:27:00Z</time>
      </trkpt>
      <trkpt lat="46.70757" lon="5.81204">
        <ele>620.4</ele>
        <time>2020-02-28T09:27:01Z</time>
      </trkpt>
      <trkpt lat="46.70758" lon="5.81194">
        <ele>620.2</ele>
        <time>2020-02-28T09:27:02Z</time>
      </trkpt>
      <trkpt lat="46.70758" lon="5.81185">
        <ele>620.2</ele>
        <time>2020-02-28T09:27:03Z</time>
      </trkpt>
      <trkpt lat="46.7076" lon="5.81175">
        <ele>619.8</ele>
        <time>2020-02-28T09:27:04Z</time>
      </trkpt>
      <trkpt lat="46.70761" lon="5.81166">
        <ele>619.6</ele>
        <time>2020-02-28T09:27:05Z</time>
      </trkpt>
      <trkpt lat="46.70762" lon="5.81157">
        <ele>619.4</ele>
        <time>2020-02-28T09:27:06Z</time>
      </trkpt>
      <trkpt lat="46.70764" lon="5.81144">
        <ele>619.2</ele>
        <time>2020-02-28T09:27:07Z</time>
      </trkpt>
      <trkpt lat="46.70764" lon="5.81139">
        <ele>619</ele>
        <time>2020-02-28T09:27:08Z</time>
      </trkpt>
      <trkpt lat="46.70766" lon="5.81126">
        <ele>618.6</ele>
        <time>2020-02-28T09:27:09Z</time>
      </trkpt>
      <trkpt lat="46.70767" lon="5.81121">
        <ele>618.4</ele>
        <time>2020-02-28T09:27:10Z</time>
      </trkpt>
      <trkpt lat="46.70768" lon="5.81112">
        <ele>618.2</ele>
        <time>2020-02-28T09:27:11Z</time>
      </trkpt>
      <trkpt lat="46.70771" lon="5.81102">
        <ele>617.8</ele>
        <time>2020-02-28T09:27:12Z</time>
      </trkpt>
      <trkpt lat="46.70773" lon="5.81086">
        <ele>617.6</ele>
        <time>2020-02-28T09:27:13Z</time>
      </trkpt>
      <trkpt lat="46.70774" lon="5.81082">
        <ele>617.2</ele>
        <time>2020-02-28T09:27:14Z</time>
      </trkpt>
      <trkpt lat="46.70775" lon="5.81072">
        <ele>617</ele>
        <time>2020-02-28T09:27:15Z</time>
      </trkpt>
      <trkpt lat="46.70776" lon="5.81061">
        <ele>616.8</ele>
        <time>2020-02-28T09:27:16Z</time>
      </trkpt>
      <trkpt lat="46.70777" lon="5.81049">
        <ele>616.6</ele>
        <time>2020-02-28T09:27:17Z</time>
      </trkpt>
      <trkpt lat="46.70778" lon="5.81036">
        <ele>616.2</ele>
        <time>2020-02-28T09:27:18Z</time>
      </trkpt>
      <trkpt lat="46.70778" lon="5.81024">
        <ele>616</ele>
        <time>2020-02-28T09:27:19Z</time>
      </trkpt>
      <trkpt lat="46.7078" lon="5.81012">
        <ele>615.6</ele>
        <time>2020-02-28T09:27:20Z</time>
      </trkpt>
      <trkpt lat="46.7078" lon="5.81001">
        <ele>615.4</ele>
        <time>2020-02-28T09:27:21Z</time>
      </trkpt>
      <trkpt lat="46.70781" lon="5.80989">
        <ele>615</ele>
        <time>2020-02-28T09:27:22Z</time>
      </trkpt>
      <trkpt lat="46.70782" lon="5.80978">
        <ele>614.8</ele>
        <time>2020-02-28T09:27:23Z</time>
      </trkpt>
      <trkpt lat="46.70783" lon="5.80968">
        <ele>614.6</ele>
        <time>2020-02-28T09:27:24Z</time>
      </trkpt>
      <trkpt lat="46.70785" lon="5.80957">
        <ele>614.2</ele>
        <time>2020-02-28T09:27:25Z</time>
      </trkpt>
      <trkpt lat="46.70786" lon="5.80946">
        <ele>614</ele>
        <time>2020-02-28T09:27:26Z</time>
      </trkpt>
      <trkpt lat="46.70787" lon="5.80935">
        <ele>613.8</ele>
        <time>2020-02-28T09:27:27Z</time>
      </trkpt>
      <trkpt lat="46.70789" lon="5.80919">
        <ele>613.4</ele>
        <time>2020-02-28T09:27:28Z</time>
      </trkpt>
      <trkpt lat="46.7079" lon="5.80913">
        <ele>613.2</ele>
        <time>2020-02-28T09:27:29Z</time>
      </trkpt>
      <trkpt lat="46.70791" lon="5.80902">
        <ele>612.8</ele>
        <time>2020-02-28T09:27:30Z</time>
      </trkpt>
      <trkpt lat="46.70792" lon="5.80891">
        <ele>612.8</ele>
        <time>2020-02-28T09:27:31Z</time>
      </trkpt>
      <trkpt lat="46.70794" lon="5.80874">
        <ele>612.4</ele>
        <time>2020-02-28T09:27:32Z</time>
      </trkpt>
      <trkpt lat="46.70795" lon="5.80868">
        <ele>612.2</ele>
        <time>2020-02-28T09:27:33Z</time>
      </trkpt>
      <trkpt lat="46.70797" lon="5.80858">
        <ele>612.2</ele>
        <time>2020-02-28T09:27:34Z</time>
      </trkpt>
      <trkpt lat="46.70799" lon="5.80847">
        <ele>612</ele>
        <time>2020-02-28T09:27:35Z</time>
      </trkpt>
      <trkpt lat="46.70801" lon="5.80837">
        <ele>612</ele>
        <time>2020-02-28T09:27:36Z</time>
      </trkpt>
      <trkpt lat="46.70804" lon="5.80828">
        <ele>612</ele>
        <time>2020-02-28T09:27:37Z</time>
      </trkpt>
      <trkpt lat="46.70806" lon="5.80818">
        <ele>612</ele>
        <time>2020-02-28T09:27:38Z</time>
      </trkpt>
      <trkpt lat="46.70809" lon="5.80809">
        <ele>612</ele>
        <time>2020-02-28T09:27:39Z</time>
      </trkpt>
      <trkpt lat="46.70812" lon="5.808">
        <ele>612</ele>
        <time>2020-02-28T09:27:40Z</time>
      </trkpt>
      <trkpt lat="46.70815" lon="5.80792">
        <ele>612</ele>
        <time>2020-02-28T09:27:41Z</time>
      </trkpt>
      <trkpt lat="46.70818" lon="5.80783">
        <ele>612</ele>
        <time>2020-02-28T09:27:42Z</time>
      </trkpt>
      <trkpt lat="46.70821" lon="5.80775">
        <ele>612</ele>
        <time>2020-02-28T09:27:43Z</time>
      </trkpt>
      <trkpt lat="46.70826" lon="5.80762">
        <ele>612</ele>
        <time>2020-02-28T09:27:44Z</time>
      </trkpt>
      <trkpt lat="46.70827" lon="5.80758">
        <ele>611.8</ele>
        <time>2020-02-28T09:27:45Z</time>
      </trkpt>
      <trkpt lat="46.7083" lon="5.8075">
        <ele>611.8</ele>
        <time>2020-02-28T09:27:46Z</time>
      </trkpt>
      <trkpt lat="46.70832" lon="5.80742">
        <ele>611.8</ele>
        <time>2020-02-28T09:27:47Z</time>
      </trkpt>
      <trkpt lat="46.70835" lon="5.80734">
        <ele>611.8</ele>
        <time>2020-02-28T09:27:48Z</time>
      </trkpt>
      <trkpt lat="46.70838" lon="5.80726">
        <ele>611.6</ele>
        <time>2020-02-28T09:27:49Z</time>
      </trkpt>
      <trkpt lat="46.70841" lon="5.80715">
        <ele>611.6</ele>
        <time>2020-02-28T09:27:50Z</time>
      </trkpt>
      <trkpt lat="46.70842" lon="5.80711">
        <ele>611.6</ele>
        <time>2020-02-28T09:27:51Z</time>
      </trkpt>
      <trkpt lat="46.70845" lon="5.80704">
        <ele>611.6</ele>
        <time>2020-02-28T09:27:52Z</time>
      </trkpt>
      <trkpt lat="46.70847" lon="5.80696">
        <ele>611.6</ele>
        <time>2020-02-28T09:27:53Z</time>
      </trkpt>
      <trkpt lat="46.70849" lon="5.80689">
        <ele>611.6</ele>
        <time>2020-02-28T09:27:54Z</time>
      </trkpt>
      <trkpt lat="46.70851" lon="5.80682">
        <ele>611.6</ele>
        <time>2020-02-28T09:27:55Z</time>
      </trkpt>
      <trkpt lat="46.70853" lon="5.80674">
        <ele>611.6</ele>
        <time>2020-02-28T09:27:56Z</time>
      </trkpt>
      <trkpt lat="46.70854" lon="5.80668">
        <ele>611.6</ele>
        <time>2020-02-28T09:27:57Z</time>
      </trkpt>
      <trkpt lat="46.70856" lon="5.8066">
        <ele>611.4</ele>
        <time>2020-02-28T09:27:58Z</time>
      </trkpt>
      <trkpt lat="46.70858" lon="5.8065">
        <ele>611.4</ele>
        <time>2020-02-28T09:27:59Z</time>
      </trkpt>
      <trkpt lat="46.70859" lon="5.80647">
        <ele>611.4</ele>
        <time>2020-02-28T09:28:00Z</time>
      </trkpt>
      <trkpt lat="46.70861" lon="5.80637">
        <ele>611.4</ele>
        <time>2020-02-28T09:28:01Z</time>
      </trkpt>
      <trkpt lat="46.70862" lon="5.80634">
        <ele>611.4</ele>
        <time>2020-02-28T09:28:02Z</time>
      </trkpt>
      <trkpt lat="46.70863" lon="5.80628">
        <ele>611.4</ele>
        <time>2020-02-28T09:28:03Z</time>
      </trkpt>
      <trkpt lat="46.70864" lon="5.80622">
        <ele>611.4</ele>
        <time>2020-02-28T09:28:04Z</time>
      </trkpt>
      <trkpt lat="46.70866" lon="5.80614">
        <ele>611.4</ele>
        <time>2020-02-28T09:28:05Z</time>
      </trkpt>
      <trkpt lat="46.70866" lon="5.80612">
        <ele>611.4</ele>
        <time>2020-02-28T09:28:06Z</time>
      </trkpt>
      <trkpt lat="46.70868" lon="5.80606">
        <ele>611.4</ele>
        <time>2020-02-28T09:28:07Z</time>
      </trkpt>
      <trkpt lat="46.70869" lon="5.80601">
        <ele>611.4</ele>
        <time>2020-02-28T09:28:08Z</time>
      </trkpt>
      <trkpt lat="46.7087" lon="5.80595">
        <ele>611.4</ele>
        <time>2020-02-28T09:28:09Z</time>
      </trkpt>
      <trkpt lat="46.70872" lon="5.8059">
        <ele>611.4</ele>
        <time>2020-02-28T09:28:10Z</time>
      </trkpt>
      <trkpt lat="46.70873" lon="5.80584">
        <ele>611.4</ele>
        <time>2020-02-28T09:28:11Z</time>
      </trkpt>
      <trkpt lat="46.70874" lon="5.80579">
        <ele>611.4</ele>
        <time>2020-02-28T09:28:12Z</time>
      </trkpt>
      <trkpt lat="46.70875" lon="5.80573">
        <ele>611.4</ele>
        <time>2020-02-28T09:28:13Z</time>
      </trkpt>
      <trkpt lat="46.70876" lon="5.80567">
        <ele>611.4</ele>
        <time>2020-02-28T09:28:14Z</time>
      </trkpt>
      <trkpt lat="46.70878" lon="5.80562">
        <ele>611.4</ele>
        <time>2020-02-28T09:28:15Z</time>
      </trkpt>
      <trkpt lat="46.70879" lon="5.80557">
        <ele>611.4</ele>
        <time>2020-02-28T09:28:16Z</time>
      </trkpt>
      <trkpt lat="46.7088" lon="5.80551">
        <ele>611.2</ele>
        <time>2020-02-28T09:28:17Z</time>
      </trkpt>
      <trkpt lat="46.70881" lon="5.80546">
        <ele>611.2</ele>
        <time>2020-02-28T09:28:18Z</time>
      </trkpt>
      <trkpt lat="46.70882" lon="5.80541">
        <ele>611.2</ele>
        <time>2020-02-28T09:28:19Z</time>
      </trkpt>
      <trkpt lat="46.70884" lon="5.80533">
        <ele>611.2</ele>
        <time>2020-02-28T09:28:20Z</time>
      </trkpt>
      <trkpt lat="46.70885" lon="5.8053">
        <ele>610.8</ele>
        <time>2020-02-28T09:28:21Z</time>
      </trkpt>
      <trkpt lat="46.70886" lon="5.80525">
        <ele>610.8</ele>
        <time>2020-02-28T09:28:22Z</time>
      </trkpt>
      <trkpt lat="46.70888" lon="5.80517">
        <ele>610.8</ele>
        <time>2020-02-28T09:28:23Z</time>
      </trkpt>
      <trkpt lat="46.70888" lon="5.80515">
        <ele>610.8</ele>
        <time>2020-02-28T09:28:24Z</time>
      </trkpt>
      <trkpt lat="46.70889" lon="5.8051">
        <ele>610.4</ele>
        <time>2020-02-28T09:28:25Z</time>
      </trkpt>
      <trkpt lat="46.7089" lon="5.80505">
        <ele>610.4</ele>
        <time>2020-02-28T09:28:26Z</time>
      </trkpt>
      <trkpt lat="46.70892" lon="5.80501">
        <ele>610.2</ele>
        <time>2020-02-28T09:28:27Z</time>
      </trkpt>
      <trkpt lat="46.70893" lon="5.80497">
        <ele>610.2</ele>
        <time>2020-02-28T09:28:28Z</time>
      </trkpt>
      <trkpt lat="46.70894" lon="5.80493">
        <ele>610.2</ele>
        <time>2020-02-28T09:28:29Z</time>
      </trkpt>
      <trkpt lat="46.70895" lon="5.80488">
        <ele>610</ele>
        <time>2020-02-28T09:28:30Z</time>
      </trkpt>
      <trkpt lat="46.70895" lon="5.80481">
        <ele>610</ele>
        <time>2020-02-28T09:28:31Z</time>
      </trkpt>
      <trkpt lat="46.70895" lon="5.80479">
        <ele>610</ele>
        <time>2020-02-28T09:28:32Z</time>
      </trkpt>
      <trkpt lat="46.70895" lon="5.80474">
        <ele>610</ele>
        <time>2020-02-28T09:28:33Z</time>
      </trkpt>
      <trkpt lat="46.70895" lon="5.80469">
        <ele>610</ele>
        <time>2020-02-28T09:28:34Z</time>
      </trkpt>
      <trkpt lat="46.70894" lon="5.80461">
        <ele>610</ele>
        <time>2020-02-28T09:28:35Z</time>
      </trkpt>
      <trkpt lat="46.70894" lon="5.80458">
        <ele>610</ele>
        <time>2020-02-28T09:28:36Z</time>
      </trkpt>
      <trkpt lat="46.70893" lon="5.80452">
        <ele>610</ele>
        <time>2020-02-28T09:28:37Z</time>
      </trkpt>
      <trkpt lat="46.70893" lon="5.80446">
        <ele>609.8</ele>
        <time>2020-02-28T09:28:38Z</time>
      </trkpt>
      <trkpt lat="46.70892" lon="5.8044">
        <ele>609.8</ele>
        <time>2020-02-28T09:28:39Z</time>
      </trkpt>
      <trkpt lat="46.70891" lon="5.80434">
        <ele>609.8</ele>
        <time>2020-02-28T09:28:40Z</time>
      </trkpt>
      <trkpt lat="46.7089" lon="5.80427">
        <ele>609.8</ele>
        <time>2020-02-28T09:28:41Z</time>
      </trkpt>
      <trkpt lat="46.70888" lon="5.80421">
        <ele>609.6</ele>
        <time>2020-02-28T09:28:42Z</time>
      </trkpt>
      <trkpt lat="46.70887" lon="5.80415">
        <ele>609.6</ele>
        <time>2020-02-28T09:28:43Z</time>
      </trkpt>
      <trkpt lat="46.70885" lon="5.80408">
        <ele>609.6</ele>
        <time>2020-02-28T09:28:44Z</time>
      </trkpt>
      <trkpt lat="46.70883" lon="5.80402">
        <ele>609.6</ele>
        <time>2020-02-28T09:28:45Z</time>
      </trkpt>
      <trkpt lat="46.70881" lon="5.80395">
        <ele>609.2</ele>
        <time>2020-02-28T09:28:46Z</time>
      </trkpt>
      <trkpt lat="46.70878" lon="5.80385">
        <ele>609.2</ele>
        <time>2020-02-28T09:28:47Z</time>
      </trkpt>
      <trkpt lat="46.70877" lon="5.80381">
        <ele>609.2</ele>
        <time>2020-02-28T09:28:48Z</time>
      </trkpt>
      <trkpt lat="46.70875" lon="5.80374">
        <ele>609</ele>
        <time>2020-02-28T09:28:49Z</time>
      </trkpt>
      <trkpt lat="46.70874" lon="5.80367">
        <ele>609</ele>
        <time>2020-02-28T09:28:50Z</time>
      </trkpt>
      <trkpt lat="46.70873" lon="5.8036">
        <ele>609</ele>
        <time>2020-02-28T09:28:51Z</time>
      </trkpt>
      <trkpt lat="46.70871" lon="5.80353">
        <ele>608.8</ele>
        <time>2020-02-28T09:28:52Z</time>
      </trkpt>
      <trkpt lat="46.7087" lon="5.80343">
        <ele>608.8</ele>
        <time>2020-02-28T09:28:53Z</time>
      </trkpt>
      <trkpt lat="46.70869" lon="5.8034">
        <ele>608.8</ele>
        <time>2020-02-28T09:28:54Z</time>
      </trkpt>
      <trkpt lat="46.70869" lon="5.80333">
        <ele>608.8</ele>
        <time>2020-02-28T09:28:55Z</time>
      </trkpt>
      <trkpt lat="46.70868" lon="5.80327">
        <ele>608.8</ele>
        <time>2020-02-28T09:28:56Z</time>
      </trkpt>
      <trkpt lat="46.70867" lon="5.80321">
        <ele>608.6</ele>
        <time>2020-02-28T09:28:57Z</time>
      </trkpt>
      <trkpt lat="46.70866" lon="5.80315">
        <ele>608.6</ele>
        <time>2020-02-28T09:28:58Z</time>
      </trkpt>
      <trkpt lat="46.70865" lon="5.80309">
        <ele>608.6</ele>
        <time>2020-02-28T09:28:59Z</time>
      </trkpt>
      <trkpt lat="46.70865" lon="5.80304">
        <ele>608.6</ele>
        <time>2020-02-28T09:29:00Z</time>
      </trkpt>
      <trkpt lat="46.70864" lon="5.80298">
        <ele>608.6</ele>
        <time>2020-02-28T09:29:01Z</time>
      </trkpt>
      <trkpt lat="46.70863" lon="5.80292">
        <ele>608.6</ele>
        <time>2020-02-28T09:29:02Z</time>
      </trkpt>
      <trkpt lat="46.70862" lon="5.80286">
        <ele>608.6</ele>
        <time>2020-02-28T09:29:03Z</time>
      </trkpt>
      <trkpt lat="46.70861" lon="5.8028">
        <ele>608.6</ele>
        <time>2020-02-28T09:29:04Z</time>
      </trkpt>
      <trkpt lat="46.7086" lon="5.80274">
        <ele>608.2</ele>
        <time>2020-02-28T09:29:05Z</time>
      </trkpt>
      <trkpt lat="46.70858" lon="5.80265">
        <ele>608.2</ele>
        <time>2020-02-28T09:29:06Z</time>
      </trkpt>
      <trkpt lat="46.70857" lon="5.80262">
        <ele>608.2</ele>
        <time>2020-02-28T09:29:07Z</time>
      </trkpt>
      <trkpt lat="46.70856" lon="5.80256">
        <ele>608.2</ele>
        <time>2020-02-28T09:29:08Z</time>
      </trkpt>
      <trkpt lat="46.70855" lon="5.8025">
        <ele>608.2</ele>
        <time>2020-02-28T09:29:09Z</time>
      </trkpt>
      <trkpt lat="46.70852" lon="5.8024">
        <ele>608</ele>
        <time>2020-02-28T09:29:10Z</time>
      </trkpt>
      <trkpt lat="46.70851" lon="5.80237">
        <ele>608</ele>
        <time>2020-02-28T09:29:11Z</time>
      </trkpt>
      <trkpt lat="46.70849" lon="5.80227">
        <ele>608</ele>
        <time>2020-02-28T09:29:12Z</time>
      </trkpt>
      <trkpt lat="46.70848" lon="5.80224">
        <ele>608</ele>
        <time>2020-02-28T09:29:13Z</time>
      </trkpt>
      <trkpt lat="46.70847" lon="5.80217">
        <ele>607.6</ele>
        <time>2020-02-28T09:29:14Z</time>
      </trkpt>
      <trkpt lat="46.70846" lon="5.8021">
        <ele>607.6</ele>
        <time>2020-02-28T09:29:15Z</time>
      </trkpt>
      <trkpt lat="46.70844" lon="5.802">
        <ele>607.4</ele>
        <time>2020-02-28T09:29:16Z</time>
      </trkpt>
      <trkpt lat="46.70844" lon="5.80197">
        <ele>607.4</ele>
        <time>2020-02-28T09:29:17Z</time>
      </trkpt>
      <trkpt lat="46.70843" lon="5.8019">
        <ele>607</ele>
        <time>2020-02-28T09:29:18Z</time>
      </trkpt>
      <trkpt lat="46.70843" lon="5.80183">
        <ele>607</ele>
        <time>2020-02-28T09:29:19Z</time>
      </trkpt>
      <trkpt lat="46.70842" lon="5.80176">
        <ele>606.8</ele>
        <time>2020-02-28T09:29:20Z</time>
      </trkpt>
      <trkpt lat="46.70842" lon="5.80168">
        <ele>606.8</ele>
        <time>2020-02-28T09:29:21Z</time>
      </trkpt>
      <trkpt lat="46.70842" lon="5.8016">
        <ele>606.4</ele>
        <time>2020-02-28T09:29:22Z</time>
      </trkpt>
      <trkpt lat="46.70843" lon="5.80151">
        <ele>606.4</ele>
        <time>2020-02-28T09:29:23Z</time>
      </trkpt>
      <trkpt lat="46.70844" lon="5.80137">
        <ele>606</ele>
        <time>2020-02-28T09:29:24Z</time>
      </trkpt>
      <trkpt lat="46.70844" lon="5.80133">
        <ele>606</ele>
        <time>2020-02-28T09:29:25Z</time>
      </trkpt>
      <trkpt lat="46.70845" lon="5.80124">
        <ele>605.6</ele>
        <time>2020-02-28T09:29:26Z</time>
      </trkpt>
      <trkpt lat="46.70846" lon="5.80109">
        <ele>605.6</ele>
        <time>2020-02-28T09:29:27Z</time>
      </trkpt>
      <trkpt lat="46.70846" lon="5.80105">
        <ele>605.4</ele>
        <time>2020-02-28T09:29:28Z</time>
      </trkpt>
      <trkpt lat="46.70847" lon="5.8009">
        <ele>605</ele>
        <time>2020-02-28T09:29:29Z</time>
      </trkpt>
      <trkpt lat="46.70847" lon="5.80085">
        <ele>604.8</ele>
        <time>2020-02-28T09:29:30Z</time>
      </trkpt>
      <trkpt lat="46.70848" lon="5.80076">
        <ele>604.4</ele>
        <time>2020-02-28T09:29:31Z</time>
      </trkpt>
      <trkpt lat="46.70849" lon="5.80066">
        <ele>604.2</ele>
        <time>2020-02-28T09:29:32Z</time>
      </trkpt>
      <trkpt lat="46.70849" lon="5.80056">
        <ele>603.8</ele>
        <time>2020-02-28T09:29:33Z</time>
      </trkpt>
      <trkpt lat="46.70849" lon="5.80047">
        <ele>603.6</ele>
        <time>2020-02-28T09:29:34Z</time>
      </trkpt>
      <trkpt lat="46.7085" lon="5.80035">
        <ele>603.2</ele>
        <time>2020-02-28T09:29:35Z</time>
      </trkpt>
      <trkpt lat="46.7085" lon="5.80031">
        <ele>603</ele>
        <time>2020-02-28T09:29:36Z</time>
      </trkpt>
      <trkpt lat="46.70851" lon="5.8002">
        <ele>602.6</ele>
        <time>2020-02-28T09:29:37Z</time>
      </trkpt>
      <trkpt lat="46.70851" lon="5.80016">
        <ele>602.4</ele>
        <time>2020-02-28T09:29:38Z</time>
      </trkpt>
      <trkpt lat="46.70851" lon="5.80007">
        <ele>602.2</ele>
        <time>2020-02-28T09:29:39Z</time>
      </trkpt>
      <trkpt lat="46.70851" lon="5.80003">
        <ele>602</ele>
        <time>2020-02-28T09:29:40Z</time>
      </trkpt>
      <trkpt lat="46.70852" lon="5.79997">
        <ele>601.8</ele>
        <time>2020-02-28T09:29:41Z</time>
      </trkpt>
      <trkpt lat="46.70853" lon="5.79991">
        <ele>601.4</ele>
        <time>2020-02-28T09:29:42Z</time>
      </trkpt>
      <trkpt lat="46.70853" lon="5.79985">
        <ele>601.2</ele>
        <time>2020-02-28T09:29:43Z</time>
      </trkpt>
      <trkpt lat="46.70854" lon="5.79979">
        <ele>600.8</ele>
        <time>2020-02-28T09:29:44Z</time>
      </trkpt>
      <trkpt lat="46.70854" lon="5.79972">
        <ele>600.6</ele>
        <time>2020-02-28T09:29:45Z</time>
      </trkpt>
      <trkpt lat="46.70854" lon="5.79966">
        <ele>600.2</ele>
        <time>2020-02-28T09:29:46Z</time>
      </trkpt>
      <trkpt lat="46.70855" lon="5.7996">
        <ele>600</ele>
        <time>2020-02-28T09:29:47Z</time>
      </trkpt>
      <trkpt lat="46.70855" lon="5.79954">
        <ele>599.6</ele>
        <time>2020-02-28T09:29:48Z</time>
      </trkpt>
      <trkpt lat="46.70855" lon="5.79948">
        <ele>599.4</ele>
        <time>2020-02-28T09:29:49Z</time>
      </trkpt>
      <trkpt lat="46.70855" lon="5.79943">
        <ele>599.4</ele>
        <time>2020-02-28T09:29:50Z</time>
      </trkpt>
      <trkpt lat="46.70856" lon="5.79936">
        <ele>599.2</ele>
        <time>2020-02-28T09:29:51Z</time>
      </trkpt>
      <trkpt lat="46.70856" lon="5.79933">
        <ele>599.2</ele>
        <time>2020-02-28T09:29:52Z</time>
      </trkpt>
      <trkpt lat="46.70856" lon="5.79926">
        <ele>598.8</ele>
        <time>2020-02-28T09:29:53Z</time>
      </trkpt>
      <trkpt lat="46.70856" lon="5.79923">
        <ele>598.6</ele>
        <time>2020-02-28T09:29:54Z</time>
      </trkpt>
      <trkpt lat="46.70856" lon="5.79918">
        <ele>598.4</ele>
        <time>2020-02-28T09:29:55Z</time>
      </trkpt>
      <trkpt lat="46.70857" lon="5.79914">
        <ele>598.2</ele>
        <time>2020-02-28T09:29:56Z</time>
      </trkpt>
      <trkpt lat="46.70857" lon="5.79908">
        <ele>598.2</ele>
        <time>2020-02-28T09:29:57Z</time>
      </trkpt>
      <trkpt lat="46.70857" lon="5.79906">
        <ele>597.8</ele>
        <time>2020-02-28T09:29:58Z</time>
      </trkpt>
      <trkpt lat="46.70857" lon="5.79903">
        <ele>597.8</ele>
        <time>2020-02-28T09:29:59Z</time>
      </trkpt>
      <trkpt lat="46.70857" lon="5.799">
        <ele>597.4</ele>
        <time>2020-02-28T09:30:00Z</time>
      </trkpt>
      <trkpt lat="46.70857" lon="5.79896">
        <ele>597.4</ele>
        <time>2020-02-28T09:30:01Z</time>
      </trkpt>
      <trkpt lat="46.70857" lon="5.79893">
        <ele>597.2</ele>
        <time>2020-02-28T09:30:02Z</time>
      </trkpt>
      <trkpt lat="46.70856" lon="5.7989">
        <ele>597.2</ele>
        <time>2020-02-28T09:30:03Z</time>
      </trkpt>
      <trkpt lat="46.70856" lon="5.79887">
        <ele>596.8</ele>
        <time>2020-02-28T09:30:04Z</time>
      </trkpt>
      <trkpt lat="46.70855" lon="5.79883">
        <ele>596.8</ele>
        <time>2020-02-28T09:30:05Z</time>
      </trkpt>
      <trkpt lat="46.70854" lon="5.79879">
        <ele>596.4</ele>
        <time>2020-02-28T09:30:06Z</time>
      </trkpt>
      <trkpt lat="46.70853" lon="5.79875">
        <ele>596.4</ele>
        <time>2020-02-28T09:30:07Z</time>
      </trkpt>
      <trkpt lat="46.70851" lon="5.79871">
        <ele>596.2</ele>
        <time>2020-02-28T09:30:08Z</time>
      </trkpt>
      <trkpt lat="46.7085" lon="5.79868">
        <ele>596.2</ele>
        <time>2020-02-28T09:30:09Z</time>
      </trkpt>
      <trkpt lat="46.70848" lon="5.79865">
        <ele>595.8</ele>
        <time>2020-02-28T09:30:10Z</time>
      </trkpt>
      <trkpt lat="46.70846" lon="5.79862">
        <ele>595.6</ele>
        <time>2020-02-28T09:30:11Z</time>
      </trkpt>
      <trkpt lat="46.70843" lon="5.79859">
        <ele>595.2</ele>
        <time>2020-02-28T09:30:12Z</time>
      </trkpt>
      <trkpt lat="46.7084" lon="5.79856">
        <ele>595.2</ele>
        <time>2020-02-28T09:30:13Z</time>
      </trkpt>
      <trkpt lat="46.70836" lon="5.79853">
        <ele>595</ele>
        <time>2020-02-28T09:30:14Z</time>
      </trkpt>
      <trkpt lat="46.70832" lon="5.7985">
        <ele>594.8</ele>
        <time>2020-02-28T09:30:15Z</time>
      </trkpt>
      <trkpt lat="46.70828" lon="5.79848">
        <ele>594.4</ele>
        <time>2020-02-28T09:30:16Z</time>
      </trkpt>
      <trkpt lat="46.70823" lon="5.79847">
        <ele>594.4</ele>
        <time>2020-02-28T09:30:17Z</time>
      </trkpt>
      <trkpt lat="46.70819" lon="5.79845">
        <ele>594.2</ele>
        <time>2020-02-28T09:30:18Z</time>
      </trkpt>
      <trkpt lat="46.70815" lon="5.79845">
        <ele>594.2</ele>
        <time>2020-02-28T09:30:19Z</time>
      </trkpt>
      <trkpt lat="46.7081" lon="5.79843">
        <ele>593.8</ele>
        <time>2020-02-28T09:30:20Z</time>
      </trkpt>
      <trkpt lat="46.70808" lon="5.79843">
        <ele>593.8</ele>
        <time>2020-02-28T09:30:21Z</time>
      </trkpt>
      <trkpt lat="46.70804" lon="5.79842">
        <ele>593.4</ele>
        <time>2020-02-28T09:30:22Z</time>
      </trkpt>
      <trkpt lat="46.708" lon="5.79841">
        <ele>593.4</ele>
        <time>2020-02-28T09:30:23Z</time>
      </trkpt>
      <trkpt lat="46.70795" lon="5.7984">
        <ele>593</ele>
        <time>2020-02-28T09:30:24Z</time>
      </trkpt>
      <trkpt lat="46.70791" lon="5.79839">
        <ele>592.8</ele>
        <time>2020-02-28T09:30:25Z</time>
      </trkpt>
      <trkpt lat="46.70786" lon="5.79837">
        <ele>592.6</ele>
        <time>2020-02-28T09:30:26Z</time>
      </trkpt>
      <trkpt lat="46.70782" lon="5.79836">
        <ele>592.4</ele>
        <time>2020-02-28T09:30:27Z</time>
      </trkpt>
      <trkpt lat="46.70776" lon="5.79834">
        <ele>592</ele>
        <time>2020-02-28T09:30:28Z</time>
      </trkpt>
      <trkpt lat="46.70773" lon="5.79833">
        <ele>591.8</ele>
        <time>2020-02-28T09:30:29Z</time>
      </trkpt>
      <trkpt lat="46.70769" lon="5.79832">
        <ele>591.6</ele>
        <time>2020-02-28T09:30:30Z</time>
      </trkpt>
      <trkpt lat="46.70763" lon="5.79829">
        <ele>591.4</ele>
        <time>2020-02-28T09:30:31Z</time>
      </trkpt>
      <trkpt lat="46.70761" lon="5.79828">
        <ele>591</ele>
        <time>2020-02-28T09:30:32Z</time>
      </trkpt>
      <trkpt lat="46.70757" lon="5.79825">
        <ele>590.8</ele>
        <time>2020-02-28T09:30:33Z</time>
      </trkpt>
      <trkpt lat="46.70753" lon="5.79822">
        <ele>590.6</ele>
        <time>2020-02-28T09:30:34Z</time>
      </trkpt>
      <trkpt lat="46.70749" lon="5.79819">
        <ele>590.4</ele>
        <time>2020-02-28T09:30:35Z</time>
      </trkpt>
      <trkpt lat="46.70745" lon="5.79816">
        <ele>590.2</ele>
        <time>2020-02-28T09:30:36Z</time>
      </trkpt>
      <trkpt lat="46.70741" lon="5.7981">
        <ele>590.2</ele>
        <time>2020-02-28T09:30:37Z</time>
      </trkpt>
      <trkpt lat="46.70739" lon="5.79808">
        <ele>589.6</ele>
        <time>2020-02-28T09:30:38Z</time>
      </trkpt>
      <trkpt lat="46.70737" lon="5.79803">
        <ele>589.4</ele>
        <time>2020-02-28T09:30:39Z</time>
      </trkpt>
      <trkpt lat="46.70735" lon="5.79798">
        <ele>589.2</ele>
        <time>2020-02-28T09:30:40Z</time>
      </trkpt>
      <trkpt lat="46.70733" lon="5.79793">
        <ele>589</ele>
        <time>2020-02-28T09:30:41Z</time>
      </trkpt>
      <trkpt lat="46.70731" lon="5.79787">
        <ele>588.6</ele>
        <time>2020-02-28T09:30:42Z</time>
      </trkpt>
      <trkpt lat="46.70729" lon="5.79782">
        <ele>588.4</ele>
        <time>2020-02-28T09:30:43Z</time>
      </trkpt>
      <trkpt lat="46.70728" lon="5.79776">
        <ele>588.2</ele>
        <time>2020-02-28T09:30:44Z</time>
      </trkpt>
      <trkpt lat="46.70727" lon="5.7977">
        <ele>588.2</ele>
        <time>2020-02-28T09:30:45Z</time>
      </trkpt>
      <trkpt lat="46.70726" lon="5.79764">
        <ele>587.8</ele>
        <time>2020-02-28T09:30:46Z</time>
      </trkpt>
      <trkpt lat="46.70727" lon="5.79759">
        <ele>587.6</ele>
        <time>2020-02-28T09:30:47Z</time>
      </trkpt>
      <trkpt lat="46.70728" lon="5.79751">
        <ele>587.6</ele>
        <time>2020-02-28T09:30:48Z</time>
      </trkpt>
      <trkpt lat="46.70729" lon="5.79748">
        <ele>587.2</ele>
        <time>2020-02-28T09:30:49Z</time>
      </trkpt>
      <trkpt lat="46.7073" lon="5.79742">
        <ele>587</ele>
        <time>2020-02-28T09:30:50Z</time>
      </trkpt>
      <trkpt lat="46.70733" lon="5.79737">
        <ele>586.6</ele>
        <time>2020-02-28T09:30:51Z</time>
      </trkpt>
      <trkpt lat="46.70736" lon="5.79732">
        <ele>586.4</ele>
        <time>2020-02-28T09:30:52Z</time>
      </trkpt>
      <trkpt lat="46.70739" lon="5.79727">
        <ele>586</ele>
        <time>2020-02-28T09:30:53Z</time>
      </trkpt>
      <trkpt lat="46.70746" lon="5.79722">
        <ele>585.8</ele>
        <time>2020-02-28T09:30:54Z</time>
      </trkpt>
      <trkpt lat="46.70748" lon="5.7972">
        <ele>585.4</ele>
        <time>2020-02-28T09:30:55Z</time>
      </trkpt>
      <trkpt lat="46.70755" lon="5.79715">
        <ele>585.2</ele>
        <time>2020-02-28T09:30:56Z</time>
      </trkpt>
      <trkpt lat="46.70758" lon="5.79714">
        <ele>584.8</ele>
        <time>2020-02-28T09:30:57Z</time>
      </trkpt>
      <trkpt lat="46.70763" lon="5.79711">
        <ele>584.4</ele>
        <time>2020-02-28T09:30:58Z</time>
      </trkpt>
      <trkpt lat="46.70771" lon="5.79708">
        <ele>584.2</ele>
        <time>2020-02-28T09:30:59Z</time>
      </trkpt>
      <trkpt lat="46.70774" lon="5.79707">
        <ele>583.8</ele>
        <time>2020-02-28T09:31:00Z</time>
      </trkpt>
      <trkpt lat="46.70779" lon="5.79706">
        <ele>583.4</ele>
        <time>2020-02-28T09:31:01Z</time>
      </trkpt>
      <trkpt lat="46.70784" lon="5.79705">
        <ele>583.2</ele>
        <time>2020-02-28T09:31:02Z</time>
      </trkpt>
      <trkpt lat="46.7079" lon="5.79703">
        <ele>583</ele>
        <time>2020-02-28T09:31:03Z</time>
      </trkpt>
      <trkpt lat="46.70795" lon="5.79702">
        <ele>582.6</ele>
        <time>2020-02-28T09:31:04Z</time>
      </trkpt>
      <trkpt lat="46.70803" lon="5.797">
        <ele>582.4</ele>
        <time>2020-02-28T09:31:05Z</time>
      </trkpt>
      <trkpt lat="46.70805" lon="5.797">
        <ele>582</ele>
        <time>2020-02-28T09:31:06Z</time>
      </trkpt>
      <trkpt lat="46.7081" lon="5.79699">
        <ele>581.8</ele>
        <time>2020-02-28T09:31:07Z</time>
      </trkpt>
      <trkpt lat="46.70815" lon="5.79699">
        <ele>581.4</ele>
        <time>2020-02-28T09:31:08Z</time>
      </trkpt>
      <trkpt lat="46.70821" lon="5.79698">
        <ele>581.2</ele>
        <time>2020-02-28T09:31:09Z</time>
      </trkpt>
      <trkpt lat="46.70826" lon="5.79697">
        <ele>580.8</ele>
        <time>2020-02-28T09:31:10Z</time>
      </trkpt>
      <trkpt lat="46.70831" lon="5.79697">
        <ele>580.4</ele>
        <time>2020-02-28T09:31:11Z</time>
      </trkpt>
      <trkpt lat="46.70836" lon="5.79696">
        <ele>580.2</ele>
        <time>2020-02-28T09:31:12Z</time>
      </trkpt>
      <trkpt lat="46.70841" lon="5.79696">
        <ele>579.8</ele>
        <time>2020-02-28T09:31:13Z</time>
      </trkpt>
      <trkpt lat="46.70846" lon="5.79695">
        <ele>579.4</ele>
        <time>2020-02-28T09:31:14Z</time>
      </trkpt>
      <trkpt lat="46.70853" lon="5.79694">
        <ele>579</ele>
        <time>2020-02-28T09:31:15Z</time>
      </trkpt>
      <trkpt lat="46.70856" lon="5.79694">
        <ele>578.8</ele>
        <time>2020-02-28T09:31:16Z</time>
      </trkpt>
      <trkpt lat="46.70863" lon="5.79692">
        <ele>578.4</ele>
        <time>2020-02-28T09:31:17Z</time>
      </trkpt>
      <trkpt lat="46.70865" lon="5.79692">
        <ele>578</ele>
        <time>2020-02-28T09:31:18Z</time>
      </trkpt>
      <trkpt lat="46.7087" lon="5.79691">
        <ele>577.8</ele>
        <time>2020-02-28T09:31:19Z</time>
      </trkpt>
      <trkpt lat="46.70876" lon="5.79689">
        <ele>577.6</ele>
        <time>2020-02-28T09:31:20Z</time>
      </trkpt>
      <trkpt lat="46.70881" lon="5.79688">
        <ele>577.2</ele>
        <time>2020-02-28T09:31:21Z</time>
      </trkpt>
      <trkpt lat="46.70887" lon="5.79686">
        <ele>577</ele>
        <time>2020-02-28T09:31:22Z</time>
      </trkpt>
      <trkpt lat="46.70895" lon="5.79685">
        <ele>576.6</ele>
        <time>2020-02-28T09:31:23Z</time>
      </trkpt>
      <trkpt lat="46.70898" lon="5.79685">
        <ele>576.4</ele>
        <time>2020-02-28T09:31:24Z</time>
      </trkpt>
      <trkpt lat="46.70904" lon="5.79684">
        <ele>576.2</ele>
        <time>2020-02-28T09:31:25Z</time>
      </trkpt>
      <trkpt lat="46.70909" lon="5.79683">
        <ele>575.8</ele>
        <time>2020-02-28T09:31:26Z</time>
      </trkpt>
      <trkpt lat="46.70915" lon="5.79683">
        <ele>575.4</ele>
        <time>2020-02-28T09:31:27Z</time>
      </trkpt>
      <trkpt lat="46.70922" lon="5.79682">
        <ele>575.2</ele>
        <time>2020-02-28T09:31:28Z</time>
      </trkpt>
      <trkpt lat="46.70924" lon="5.79682">
        <ele>575</ele>
        <time>2020-02-28T09:31:29Z</time>
      </trkpt>
      <trkpt lat="46.70932" lon="5.79682">
        <ele>575</ele>
        <time>2020-02-28T09:31:30Z</time>
      </trkpt>
      <trkpt lat="46.70934" lon="5.79683">
        <ele>574.6</ele>
        <time>2020-02-28T09:31:31Z</time>
      </trkpt>
      <trkpt lat="46.70939" lon="5.79683">
        <ele>574.4</ele>
        <time>2020-02-28T09:31:32Z</time>
      </trkpt>
      <trkpt lat="46.70944" lon="5.79683">
        <ele>574.2</ele>
        <time>2020-02-28T09:31:33Z</time>
      </trkpt>
      <trkpt lat="46.70948" lon="5.79684">
        <ele>573.8</ele>
        <time>2020-02-28T09:31:34Z</time>
      </trkpt>
      <trkpt lat="46.70953" lon="5.79685">
        <ele>573.6</ele>
        <time>2020-02-28T09:31:35Z</time>
      </trkpt>
      <trkpt lat="46.70958" lon="5.79686">
        <ele>573.4</ele>
        <time>2020-02-28T09:31:36Z</time>
      </trkpt>
      <trkpt lat="46.70962" lon="5.79686">
        <ele>573.2</ele>
        <time>2020-02-28T09:31:37Z</time>
      </trkpt>
      <trkpt lat="46.70967" lon="5.79687">
        <ele>573</ele>
        <time>2020-02-28T09:31:38Z</time>
      </trkpt>
      <trkpt lat="46.70973" lon="5.79688">
        <ele>572.6</ele>
        <time>2020-02-28T09:31:39Z</time>
      </trkpt>
      <trkpt lat="46.70976" lon="5.79688">
        <ele>572.4</ele>
        <time>2020-02-28T09:31:40Z</time>
      </trkpt>
      <trkpt lat="46.70981" lon="5.79689">
        <ele>572</ele>
        <time>2020-02-28T09:31:41Z</time>
      </trkpt>
      <trkpt lat="46.70983" lon="5.7969">
        <ele>571.8</ele>
        <time>2020-02-28T09:31:42Z</time>
      </trkpt>
      <trkpt lat="46.70988" lon="5.7969">
        <ele>571.4</ele>
        <time>2020-02-28T09:31:43Z</time>
      </trkpt>
      <trkpt lat="46.70992" lon="5.79691">
        <ele>571</ele>
        <time>2020-02-28T09:31:44Z</time>
      </trkpt>
      <trkpt lat="46.70999" lon="5.79692">
        <ele>570.8</ele>
        <time>2020-02-28T09:31:45Z</time>
      </trkpt>
      <trkpt lat="46.71001" lon="5.79692">
        <ele>570.6</ele>
        <time>2020-02-28T09:31:46Z</time>
      </trkpt>
      <trkpt lat="46.71005" lon="5.79693">
        <ele>570.2</ele>
        <time>2020-02-28T09:31:47Z</time>
      </trkpt>
      <trkpt lat="46.71009" lon="5.79694">
        <ele>570</ele>
        <time>2020-02-28T09:31:48Z</time>
      </trkpt>
      <trkpt lat="46.71013" lon="5.79695">
        <ele>569.8</ele>
        <time>2020-02-28T09:31:49Z</time>
      </trkpt>
      <trkpt lat="46.71017" lon="5.79696">
        <ele>569.4</ele>
        <time>2020-02-28T09:31:50Z</time>
      </trkpt>
      <trkpt lat="46.71023" lon="5.79699">
        <ele>569.2</ele>
        <time>2020-02-28T09:31:51Z</time>
      </trkpt>
      <trkpt lat="46.71025" lon="5.797">
        <ele>568.8</ele>
        <time>2020-02-28T09:31:52Z</time>
      </trkpt>
      <trkpt lat="46.7103" lon="5.79703">
        <ele>568.6</ele>
        <time>2020-02-28T09:31:53Z</time>
      </trkpt>
      <trkpt lat="46.71032" lon="5.79704">
        <ele>568.2</ele>
        <time>2020-02-28T09:31:54Z</time>
      </trkpt>
      <trkpt lat="46.71036" lon="5.79707">
        <ele>568</ele>
        <time>2020-02-28T09:31:55Z</time>
      </trkpt>
      <trkpt lat="46.71039" lon="5.79709">
        <ele>567.8</ele>
        <time>2020-02-28T09:31:56Z</time>
      </trkpt>
      <trkpt lat="46.71042" lon="5.79714">
        <ele>567.4</ele>
        <time>2020-02-28T09:31:57Z</time>
      </trkpt>
      <trkpt lat="46.71046" lon="5.79722">
        <ele>567.2</ele>
        <time>2020-02-28T09:31:58Z</time>
      </trkpt>
      <trkpt lat="46.71047" lon="5.79725">
        <ele>567.2</ele>
        <time>2020-02-28T09:31:59Z</time>
      </trkpt>
      <trkpt lat="46.71048" lon="5.79729">
        <ele>566.8</ele>
        <time>2020-02-28T09:32:00Z</time>
      </trkpt>
      <trkpt lat="46.7105" lon="5.79734">
        <ele>566.8</ele>
        <time>2020-02-28T09:32:01Z</time>
      </trkpt>
      <trkpt lat="46.71052" lon="5.79742">
        <ele>566.4</ele>
        <time>2020-02-28T09:32:02Z</time>
      </trkpt>
      <trkpt lat="46.71053" lon="5.79744">
        <ele>566</ele>
        <time>2020-02-28T09:32:03Z</time>
      </trkpt>
      <trkpt lat="46.71055" lon="5.7975">
        <ele>565.8</ele>
        <time>2020-02-28T09:32:04Z</time>
      </trkpt>
      <trkpt lat="46.71056" lon="5.79761">
        <ele>565.6</ele>
        <time>2020-02-28T09:32:05Z</time>
      </trkpt>
      <trkpt lat="46.71057" lon="5.79764">
        <ele>565.2</ele>
        <time>2020-02-28T09:32:06Z</time>
      </trkpt>
      <trkpt lat="46.71057" lon="5.79775">
        <ele>564.8</ele>
        <time>2020-02-28T09:32:07Z</time>
      </trkpt>
      <trkpt lat="46.71057" lon="5.79779">
        <ele>564.6</ele>
        <time>2020-02-28T09:32:08Z</time>
      </trkpt>
      <trkpt lat="46.71057" lon="5.79786">
        <ele>564.2</ele>
        <time>2020-02-28T09:32:09Z</time>
      </trkpt>
      <trkpt lat="46.71056" lon="5.79793">
        <ele>564</ele>
        <time>2020-02-28T09:32:10Z</time>
      </trkpt>
      <trkpt lat="46.71055" lon="5.79804">
        <ele>563.8</ele>
        <time>2020-02-28T09:32:11Z</time>
      </trkpt>
      <trkpt lat="46.71055" lon="5.79808">
        <ele>563.4</ele>
        <time>2020-02-28T09:32:12Z</time>
      </trkpt>
      <trkpt lat="46.71053" lon="5.79816">
        <ele>563</ele>
        <time>2020-02-28T09:32:13Z</time>
      </trkpt>
      <trkpt lat="46.71052" lon="5.79823">
        <ele>562.6</ele>
        <time>2020-02-28T09:32:14Z</time>
      </trkpt>
      <trkpt lat="46.7105" lon="5.79831">
        <ele>562.2</ele>
        <time>2020-02-28T09:32:15Z</time>
      </trkpt>
      <trkpt lat="46.71048" lon="5.79842">
        <ele>562</ele>
        <time>2020-02-28T09:32:16Z</time>
      </trkpt>
      <trkpt lat="46.71047" lon="5.79846">
        <ele>561.8</ele>
        <time>2020-02-28T09:32:17Z</time>
      </trkpt>
      <trkpt lat="46.71045" lon="5.79853">
        <ele>561.4</ele>
        <time>2020-02-28T09:32:18Z</time>
      </trkpt>
      <trkpt lat="46.71043" lon="5.79861">
        <ele>561</ele>
        <time>2020-02-28T09:32:19Z</time>
      </trkpt>
      <trkpt lat="46.71041" lon="5.79867">
        <ele>560.8</ele>
        <time>2020-02-28T09:32:20Z</time>
      </trkpt>
      <trkpt lat="46.71039" lon="5.79873">
        <ele>560.4</ele>
        <time>2020-02-28T09:32:21Z</time>
      </trkpt>
      <trkpt lat="46.71037" lon="5.79883">
        <ele>560.2</ele>
        <time>2020-02-28T09:32:22Z</time>
      </trkpt>
      <trkpt lat="46.71036" lon="5.79886">
        <ele>560</ele>
        <time>2020-02-28T09:32:23Z</time>
      </trkpt>
      <trkpt lat="46.71034" lon="5.79893">
        <ele>559.6</ele>
        <time>2020-02-28T09:32:24Z</time>
      </trkpt>
      <trkpt lat="46.71033" lon="5.799">
        <ele>559.4</ele>
        <time>2020-02-28T09:32:25Z</time>
      </trkpt>
      <trkpt lat="46.71031" lon="5.79907">
        <ele>559</ele>
        <time>2020-02-28T09:32:26Z</time>
      </trkpt>
      <trkpt lat="46.7103" lon="5.79914">
        <ele>558.8</ele>
        <time>2020-02-28T09:32:27Z</time>
      </trkpt>
      <trkpt lat="46.71028" lon="5.7992">
        <ele>558.4</ele>
        <time>2020-02-28T09:32:28Z</time>
      </trkpt>
      <trkpt lat="46.71026" lon="5.79926">
        <ele>558.2</ele>
        <time>2020-02-28T09:32:29Z</time>
      </trkpt>
      <trkpt lat="46.71025" lon="5.79935">
        <ele>557.8</ele>
        <time>2020-02-28T09:32:30Z</time>
      </trkpt>
      <trkpt lat="46.71024" lon="5.79938">
        <ele>557.6</ele>
        <time>2020-02-28T09:32:31Z</time>
      </trkpt>
      <trkpt lat="46.71023" lon="5.79945">
        <ele>557.4</ele>
        <time>2020-02-28T09:32:32Z</time>
      </trkpt>
      <trkpt lat="46.71023" lon="5.79951">
        <ele>557.4</ele>
        <time>2020-02-28T09:32:33Z</time>
      </trkpt>
      <trkpt lat="46.71023" lon="5.79961">
        <ele>557</ele>
        <time>2020-02-28T09:32:34Z</time>
      </trkpt>
      <trkpt lat="46.71022" lon="5.79965">
        <ele>556.6</ele>
        <time>2020-02-28T09:32:35Z</time>
      </trkpt>
      <trkpt lat="46.71022" lon="5.79971">
        <ele>556.4</ele>
        <time>2020-02-28T09:32:36Z</time>
      </trkpt>
      <trkpt lat="46.7102" lon="5.79977">
        <ele>556</ele>
        <time>2020-02-28T09:32:37Z</time>
      </trkpt>
      <trkpt lat="46.71019" lon="5.79983">
        <ele>555.8</ele>
        <time>2020-02-28T09:32:38Z</time>
      </trkpt>
      <trkpt lat="46.71017" lon="5.7999">
        <ele>555.6</ele>
        <time>2020-02-28T09:32:39Z</time>
      </trkpt>
      <trkpt lat="46.71016" lon="5.79997">
        <ele>555.4</ele>
        <time>2020-02-28T09:32:40Z</time>
      </trkpt>
      <trkpt lat="46.71015" lon="5.80007">
        <ele>555</ele>
        <time>2020-02-28T09:32:41Z</time>
      </trkpt>
      <trkpt lat="46.71014" lon="5.8001">
        <ele>554.8</ele>
        <time>2020-02-28T09:32:42Z</time>
      </trkpt>
      <trkpt lat="46.71013" lon="5.80016">
        <ele>554.4</ele>
        <time>2020-02-28T09:32:43Z</time>
      </trkpt>
      <trkpt lat="46.71012" lon="5.80022">
        <ele>554.2</ele>
        <time>2020-02-28T09:32:44Z</time>
      </trkpt>
      <trkpt lat="46.71011" lon="5.80029">
        <ele>553.8</ele>
        <time>2020-02-28T09:32:45Z</time>
      </trkpt>
      <trkpt lat="46.71009" lon="5.80035">
        <ele>553.6</ele>
        <time>2020-02-28T09:32:46Z</time>
      </trkpt>
      <trkpt lat="46.71008" lon="5.80045">
        <ele>553.4</ele>
        <time>2020-02-28T09:32:47Z</time>
      </trkpt>
      <trkpt lat="46.71007" lon="5.80048">
        <ele>553.4</ele>
        <time>2020-02-28T09:32:48Z</time>
      </trkpt>
      <trkpt lat="46.71006" lon="5.80053">
        <ele>552.8</ele>
        <time>2020-02-28T09:32:49Z</time>
      </trkpt>
      <trkpt lat="46.71006" lon="5.80063">
        <ele>552.6</ele>
        <time>2020-02-28T09:32:50Z</time>
      </trkpt>
      <trkpt lat="46.71006" lon="5.80066">
        <ele>552.4</ele>
        <time>2020-02-28T09:32:51Z</time>
      </trkpt>
      <trkpt lat="46.71005" lon="5.80076">
        <ele>552.2</ele>
        <time>2020-02-28T09:32:52Z</time>
      </trkpt>
      <trkpt lat="46.71004" lon="5.80079">
        <ele>551.8</ele>
        <time>2020-02-28T09:32:53Z</time>
      </trkpt>
      <trkpt lat="46.71004" lon="5.80087">
        <ele>551.6</ele>
        <time>2020-02-28T09:32:54Z</time>
      </trkpt>
      <trkpt lat="46.71004" lon="5.80094">
        <ele>551.6</ele>
        <time>2020-02-28T09:32:55Z</time>
      </trkpt>
      <trkpt lat="46.71004" lon="5.80105">
        <ele>551.2</ele>
        <time>2020-02-28T09:32:56Z</time>
      </trkpt>
      <trkpt lat="46.71004" lon="5.80108">
        <ele>551</ele>
        <time>2020-02-28T09:32:57Z</time>
      </trkpt>
      <trkpt lat="46.71004" lon="5.80116">
        <ele>550.8</ele>
        <time>2020-02-28T09:32:58Z</time>
      </trkpt>
      <trkpt lat="46.71005" lon="5.80123">
        <ele>550.6</ele>
        <time>2020-02-28T09:32:59Z</time>
      </trkpt>
      <trkpt lat="46.71005" lon="5.80131">
        <ele>550.2</ele>
        <time>2020-02-28T09:33:00Z</time>
      </trkpt>
      <trkpt lat="46.71005" lon="5.80138">
        <ele>550</ele>
        <time>2020-02-28T09:33:01Z</time>
      </trkpt>
      <trkpt lat="46.71005" lon="5.8015">
        <ele>549.6</ele>
        <time>2020-02-28T09:33:02Z</time>
      </trkpt>
      <trkpt lat="46.71005" lon="5.80154">
        <ele>549.4</ele>
        <time>2020-02-28T09:33:03Z</time>
      </trkpt>
      <trkpt lat="46.71005" lon="5.80162">
        <ele>549</ele>
        <time>2020-02-28T09:33:04Z</time>
      </trkpt>
      <trkpt lat="46.71006" lon="5.8017">
        <ele>548.6</ele>
        <time>2020-02-28T09:33:05Z</time>
      </trkpt>
      <trkpt lat="46.71005" lon="5.80177">
        <ele>548.4</ele>
        <time>2020-02-28T09:33:06Z</time>
      </trkpt>
      <trkpt lat="46.71005" lon="5.80184">
        <ele>548</ele>
        <time>2020-02-28T09:33:07Z</time>
      </trkpt>
      <trkpt lat="46.71004" lon="5.80195">
        <ele>547.8</ele>
        <time>2020-02-28T09:33:08Z</time>
      </trkpt>
      <trkpt lat="46.71003" lon="5.80199">
        <ele>547.4</ele>
        <time>2020-02-28T09:33:09Z</time>
      </trkpt>
      <trkpt lat="46.71003" lon="5.80206">
        <ele>547.2</ele>
        <time>2020-02-28T09:33:10Z</time>
      </trkpt>
      <trkpt lat="46.71002" lon="5.80214">
        <ele>546.8</ele>
        <time>2020-02-28T09:33:11Z</time>
      </trkpt>
      <trkpt lat="46.71001" lon="5.80221">
        <ele>546.6</ele>
        <time>2020-02-28T09:33:12Z</time>
      </trkpt>
      <trkpt lat="46.71" lon="5.80231">
        <ele>546.2</ele>
        <time>2020-02-28T09:33:13Z</time>
      </trkpt>
      <trkpt lat="46.71" lon="5.80234">
        <ele>546</ele>
        <time>2020-02-28T09:33:14Z</time>
      </trkpt>
      <trkpt lat="46.70999" lon="5.8024">
        <ele>545.6</ele>
        <time>2020-02-28T09:33:15Z</time>
      </trkpt>
      <trkpt lat="46.70998" lon="5.80247">
        <ele>545.4</ele>
        <time>2020-02-28T09:33:16Z</time>
      </trkpt>
      <trkpt lat="46.70998" lon="5.80253">
        <ele>545.4</ele>
        <time>2020-02-28T09:33:17Z</time>
      </trkpt>
      <trkpt lat="46.70997" lon="5.8026">
        <ele>545</ele>
        <time>2020-02-28T09:33:18Z</time>
      </trkpt>
      <trkpt lat="46.70997" lon="5.80266">
        <ele>544.8</ele>
        <time>2020-02-28T09:33:19Z</time>
      </trkpt>
      <trkpt lat="46.70997" lon="5.80272">
        <ele>544.4</ele>
        <time>2020-02-28T09:33:20Z</time>
      </trkpt>
      <trkpt lat="46.70997" lon="5.80278">
        <ele>544.2</ele>
        <time>2020-02-28T09:33:21Z</time>
      </trkpt>
      <trkpt lat="46.70998" lon="5.80284">
        <ele>544.2</ele>
        <time>2020-02-28T09:33:22Z</time>
      </trkpt>
      <trkpt lat="46.70999" lon="5.8029">
        <ele>543.8</ele>
        <time>2020-02-28T09:33:23Z</time>
      </trkpt>
      <trkpt lat="46.71001" lon="5.80296">
        <ele>543.4</ele>
        <time>2020-02-28T09:33:24Z</time>
      </trkpt>
      <trkpt lat="46.71004" lon="5.80301">
        <ele>543.2</ele>
        <time>2020-02-28T09:33:25Z</time>
      </trkpt>
      <trkpt lat="46.71006" lon="5.80305">
        <ele>543</ele>
        <time>2020-02-28T09:33:26Z</time>
      </trkpt>
      <trkpt lat="46.71011" lon="5.80308">
        <ele>542.6</ele>
        <time>2020-02-28T09:33:27Z</time>
      </trkpt>
      <trkpt lat="46.71015" lon="5.80311">
        <ele>542.4</ele>
        <time>2020-02-28T09:33:28Z</time>
      </trkpt>
      <trkpt lat="46.71023" lon="5.80313">
        <ele>542.4</ele>
        <time>2020-02-28T09:33:29Z</time>
      </trkpt>
      <trkpt lat="46.71025" lon="5.80314">
        <ele>542</ele>
        <time>2020-02-28T09:33:30Z</time>
      </trkpt>
      <trkpt lat="46.71031" lon="5.80315">
        <ele>542</ele>
        <time>2020-02-28T09:33:31Z</time>
      </trkpt>
      <trkpt lat="46.71037" lon="5.80314">
        <ele>541.6</ele>
        <time>2020-02-28T09:33:32Z</time>
      </trkpt>
      <trkpt lat="46.71043" lon="5.8031">
        <ele>541.6</ele>
        <time>2020-02-28T09:33:33Z</time>
      </trkpt>
      <trkpt lat="46.71048" lon="5.80305">
        <ele>541.2</ele>
        <time>2020-02-28T09:33:34Z</time>
      </trkpt>
      <trkpt lat="46.71056" lon="5.80297">
        <ele>541</ele>
        <time>2020-02-28T09:33:35Z</time>
      </trkpt>
      <trkpt lat="46.71059" lon="5.80294">
        <ele>540.8</ele>
        <time>2020-02-28T09:33:36Z</time>
      </trkpt>
      <trkpt lat="46.71069" lon="5.80286">
        <ele>540.4</ele>
        <time>2020-02-28T09:33:37Z</time>
      </trkpt>
      <trkpt lat="46.71072" lon="5.80283">
        <ele>540</ele>
        <time>2020-02-28T09:33:38Z</time>
      </trkpt>
      <trkpt lat="46.71077" lon="5.80276">
        <ele>539.8</ele>
        <time>2020-02-28T09:33:39Z</time>
      </trkpt>
      <trkpt lat="46.71082" lon="5.8027">
        <ele>539.4</ele>
        <time>2020-02-28T09:33:40Z</time>
      </trkpt>
      <trkpt lat="46.71088" lon="5.80264">
        <ele>539</ele>
        <time>2020-02-28T09:33:41Z</time>
      </trkpt>
      <trkpt lat="46.71097" lon="5.80253">
        <ele>538.6</ele>
        <time>2020-02-28T09:33:42Z</time>
      </trkpt>
      <trkpt lat="46.711" lon="5.80249">
        <ele>538.2</ele>
        <time>2020-02-28T09:33:43Z</time>
      </trkpt>
      <trkpt lat="46.71106" lon="5.80241">
        <ele>538</ele>
        <time>2020-02-28T09:33:44Z</time>
      </trkpt>
      <trkpt lat="46.71113" lon="5.80233">
        <ele>537.6</ele>
        <time>2020-02-28T09:33:45Z</time>
      </trkpt>
      <trkpt lat="46.71119" lon="5.80225">
        <ele>537.2</ele>
        <time>2020-02-28T09:33:46Z</time>
      </trkpt>
      <trkpt lat="46.71128" lon="5.8021">
        <ele>536.8</ele>
        <time>2020-02-28T09:33:47Z</time>
      </trkpt>
      <trkpt lat="46.71131" lon="5.80204">
        <ele>536.4</ele>
        <time>2020-02-28T09:33:48Z</time>
      </trkpt>
      <trkpt lat="46.71137" lon="5.80193">
        <ele>536</ele>
        <time>2020-02-28T09:33:49Z</time>
      </trkpt>
      <trkpt lat="46.71142" lon="5.80182">
        <ele>535.4</ele>
        <time>2020-02-28T09:33:50Z</time>
      </trkpt>
      <trkpt lat="46.71147" lon="5.8017">
        <ele>534.8</ele>
        <time>2020-02-28T09:33:51Z</time>
      </trkpt>
      <trkpt lat="46.71152" lon="5.80158">
        <ele>534.4</ele>
        <time>2020-02-28T09:33:52Z</time>
      </trkpt>
      <trkpt lat="46.7116" lon="5.8014">
        <ele>533.8</ele>
        <time>2020-02-28T09:33:53Z</time>
      </trkpt>
      <trkpt lat="46.71163" lon="5.80134">
        <ele>533.2</ele>
        <time>2020-02-28T09:33:54Z</time>
      </trkpt>
      <trkpt lat="46.71168" lon="5.80122">
        <ele>532.6</ele>
        <time>2020-02-28T09:33:55Z</time>
      </trkpt>
      <trkpt lat="46.71175" lon="5.80111">
        <ele>532</ele>
        <time>2020-02-28T09:33:56Z</time>
      </trkpt>
      <trkpt lat="46.71181" lon="5.80099">
        <ele>531.4</ele>
        <time>2020-02-28T09:33:57Z</time>
      </trkpt>
      <trkpt lat="46.71192" lon="5.80083">
        <ele>530.8</ele>
        <time>2020-02-28T09:33:58Z</time>
      </trkpt>
      <trkpt lat="46.71196" lon="5.80077">
        <ele>530</ele>
        <time>2020-02-28T09:33:59Z</time>
      </trkpt>
      <trkpt lat="46.71203" lon="5.80067">
        <ele>529.4</ele>
        <time>2020-02-28T09:34:00Z</time>
      </trkpt>
      <trkpt lat="46.71214" lon="5.80051">
        <ele>528.8</ele>
        <time>2020-02-28T09:34:01Z</time>
      </trkpt>
      <trkpt lat="46.71218" lon="5.80046">
        <ele>528</ele>
        <time>2020-02-28T09:34:02Z</time>
      </trkpt>
      <trkpt lat="46.71225" lon="5.80037">
        <ele>527.4</ele>
        <time>2020-02-28T09:34:03Z</time>
      </trkpt>
      <trkpt lat="46.71233" lon="5.80027">
        <ele>526.8</ele>
        <time>2020-02-28T09:34:04Z</time>
      </trkpt>
      <trkpt lat="46.71241" lon="5.80017">
        <ele>526.2</ele>
        <time>2020-02-28T09:34:05Z</time>
      </trkpt>
      <trkpt lat="46.71248" lon="5.80007">
        <ele>525.6</ele>
        <time>2020-02-28T09:34:06Z</time>
      </trkpt>
      <trkpt lat="46.71255" lon="5.79997">
        <ele>524.8</ele>
        <time>2020-02-28T09:34:07Z</time>
      </trkpt>
      <trkpt lat="46.71262" lon="5.79987">
        <ele>524.2</ele>
        <time>2020-02-28T09:34:08Z</time>
      </trkpt>
      <trkpt lat="46.71268" lon="5.79977">
        <ele>523.6</ele>
        <time>2020-02-28T09:34:09Z</time>
      </trkpt>
      <trkpt lat="46.71274" lon="5.79967">
        <ele>522.8</ele>
        <time>2020-02-28T09:34:10Z</time>
      </trkpt>
      <trkpt lat="46.7128" lon="5.79957">
        <ele>522.2</ele>
        <time>2020-02-28T09:34:11Z</time>
      </trkpt>
      <trkpt lat="46.71285" lon="5.79947">
        <ele>521.4</ele>
        <time>2020-02-28T09:34:12Z</time>
      </trkpt>
      <trkpt lat="46.71291" lon="5.79937">
        <ele>520.8</ele>
        <time>2020-02-28T09:34:13Z</time>
      </trkpt>
      <trkpt lat="46.71296" lon="5.79927">
        <ele>520.4</ele>
        <time>2020-02-28T09:34:14Z</time>
      </trkpt>
      <trkpt lat="46.71301" lon="5.79918">
        <ele>519.8</ele>
        <time>2020-02-28T09:34:15Z</time>
      </trkpt>
      <trkpt lat="46.71307" lon="5.79908">
        <ele>519.2</ele>
        <time>2020-02-28T09:34:16Z</time>
      </trkpt>
      <trkpt lat="46.71315" lon="5.79894">
        <ele>518.8</ele>
        <time>2020-02-28T09:34:17Z</time>
      </trkpt>
      <trkpt lat="46.71318" lon="5.79889">
        <ele>518.2</ele>
        <time>2020-02-28T09:34:18Z</time>
      </trkpt>
      <trkpt lat="46.71324" lon="5.7988">
        <ele>517.8</ele>
        <time>2020-02-28T09:34:19Z</time>
      </trkpt>
      <trkpt lat="46.71331" lon="5.79871">
        <ele>517.4</ele>
        <time>2020-02-28T09:34:20Z</time>
      </trkpt>
      <trkpt lat="46.71338" lon="5.79863">
        <ele>516.8</ele>
        <time>2020-02-28T09:34:21Z</time>
      </trkpt>
      <trkpt lat="46.71345" lon="5.79854">
        <ele>516.4</ele>
        <time>2020-02-28T09:34:22Z</time>
      </trkpt>
      <trkpt lat="46.71353" lon="5.79846">
        <ele>515.6</ele>
        <time>2020-02-28T09:34:23Z</time>
      </trkpt>
      <trkpt lat="46.71361" lon="5.79838">
        <ele>515</ele>
        <time>2020-02-28T09:34:24Z</time>
      </trkpt>
      <trkpt lat="46.71369" lon="5.79829">
        <ele>514.4</ele>
        <time>2020-02-28T09:34:25Z</time>
      </trkpt>
      <trkpt lat="46.71377" lon="5.79821">
        <ele>513.6</ele>
        <time>2020-02-28T09:34:26Z</time>
      </trkpt>
      <trkpt lat="46.71389" lon="5.79808">
        <ele>513</ele>
        <time>2020-02-28T09:34:27Z</time>
      </trkpt>
      <trkpt lat="46.71394" lon="5.79804">
        <ele>512.4</ele>
        <time>2020-02-28T09:34:28Z</time>
      </trkpt>
      <trkpt lat="46.71402" lon="5.79795">
        <ele>511.6</ele>
        <time>2020-02-28T09:34:29Z</time>
      </trkpt>
      <trkpt lat="46.71411" lon="5.79787">
        <ele>511</ele>
        <time>2020-02-28T09:34:30Z</time>
      </trkpt>
      <trkpt lat="46.71419" lon="5.79778">
        <ele>510.4</ele>
        <time>2020-02-28T09:34:31Z</time>
      </trkpt>
      <trkpt lat="46.71428" lon="5.7977">
        <ele>509.8</ele>
        <time>2020-02-28T09:34:32Z</time>
      </trkpt>
      <trkpt lat="46.71437" lon="5.79761">
        <ele>509.2</ele>
        <time>2020-02-28T09:34:33Z</time>
      </trkpt>
      <trkpt lat="46.71445" lon="5.79752">
        <ele>508.6</ele>
        <time>2020-02-28T09:34:34Z</time>
      </trkpt>
      <trkpt lat="46.71454" lon="5.79743">
        <ele>508</ele>
        <time>2020-02-28T09:34:35Z</time>
      </trkpt>
      <trkpt lat="46.71462" lon="5.79734">
        <ele>507.4</ele>
        <time>2020-02-28T09:34:36Z</time>
      </trkpt>
      <trkpt lat="46.71471" lon="5.79725">
        <ele>506.8</ele>
        <time>2020-02-28T09:34:37Z</time>
      </trkpt>
      <trkpt lat="46.71479" lon="5.79716">
        <ele>506.2</ele>
        <time>2020-02-28T09:34:38Z</time>
      </trkpt>
      <trkpt lat="46.71486" lon="5.79707">
        <ele>505.8</ele>
        <time>2020-02-28T09:34:39Z</time>
      </trkpt>
      <trkpt lat="46.71494" lon="5.79699">
        <ele>505.4</ele>
        <time>2020-02-28T09:34:40Z</time>
      </trkpt>
      <trkpt lat="46.71501" lon="5.79689">
        <ele>505</ele>
        <time>2020-02-28T09:34:41Z</time>
      </trkpt>
      <trkpt lat="46.71508" lon="5.79681">
        <ele>504.6</ele>
        <time>2020-02-28T09:34:42Z</time>
      </trkpt>
      <trkpt lat="46.71514" lon="5.79674">
        <ele>504.2</ele>
        <time>2020-02-28T09:34:43Z</time>
      </trkpt>
      <trkpt lat="46.71521" lon="5.79667">
        <ele>503.6</ele>
        <time>2020-02-28T09:34:44Z</time>
      </trkpt>
      <trkpt lat="46.71527" lon="5.79661">
        <ele>503.2</ele>
        <time>2020-02-28T09:34:45Z</time>
      </trkpt>
      <trkpt lat="46.71534" lon="5.79656">
        <ele>502.8</ele>
        <time>2020-02-28T09:34:46Z</time>
      </trkpt>
      <trkpt lat="46.71541" lon="5.79652">
        <ele>502.4</ele>
        <time>2020-02-28T09:34:47Z</time>
      </trkpt>
      <trkpt lat="46.71549" lon="5.79649">
        <ele>502.2</ele>
        <time>2020-02-28T09:34:48Z</time>
      </trkpt>
      <trkpt lat="46.71556" lon="5.79647">
        <ele>502</ele>
        <time>2020-02-28T09:34:49Z</time>
      </trkpt>
      <trkpt lat="46.71564" lon="5.79646">
        <ele>501.6</ele>
        <time>2020-02-28T09:34:50Z</time>
      </trkpt>
      <trkpt lat="46.71572" lon="5.79645">
        <ele>501.6</ele>
        <time>2020-02-28T09:34:51Z</time>
      </trkpt>
      <trkpt lat="46.7158" lon="5.79644">
        <ele>501.2</ele>
        <time>2020-02-28T09:34:52Z</time>
      </trkpt>
      <trkpt lat="46.71588" lon="5.79643">
        <ele>501.2</ele>
        <time>2020-02-28T09:34:53Z</time>
      </trkpt>
      <trkpt lat="46.71596" lon="5.79643">
        <ele>500.8</ele>
        <time>2020-02-28T09:34:54Z</time>
      </trkpt>
      <trkpt lat="46.71603" lon="5.79643">
        <ele>500.6</ele>
        <time>2020-02-28T09:34:55Z</time>
      </trkpt>
      <trkpt lat="46.71611" lon="5.79643">
        <ele>500.2</ele>
        <time>2020-02-28T09:34:56Z</time>
      </trkpt>
      <trkpt lat="46.71619" lon="5.79643">
        <ele>500</ele>
        <time>2020-02-28T09:34:57Z</time>
      </trkpt>
      <trkpt lat="46.71627" lon="5.79643">
        <ele>500</ele>
        <time>2020-02-28T09:34:58Z</time>
      </trkpt>
      <trkpt lat="46.71634" lon="5.79642">
        <ele>499.6</ele>
        <time>2020-02-28T09:34:59Z</time>
      </trkpt>
      <trkpt lat="46.71641" lon="5.79641">
        <ele>499.6</ele>
        <time>2020-02-28T09:35:00Z</time>
      </trkpt>
      <trkpt lat="46.71648" lon="5.79639">
        <ele>499.2</ele>
        <time>2020-02-28T09:35:01Z</time>
      </trkpt>
      <trkpt lat="46.71656" lon="5.79636">
        <ele>499</ele>
        <time>2020-02-28T09:35:02Z</time>
      </trkpt>
      <trkpt lat="46.71663" lon="5.79634">
        <ele>499</ele>
        <time>2020-02-28T09:35:03Z</time>
      </trkpt>
      <trkpt lat="46.71673" lon="5.7963">
        <ele>498.6</ele>
        <time>2020-02-28T09:35:04Z</time>
      </trkpt>
      <trkpt lat="46.71676" lon="5.79628">
        <ele>498.6</ele>
        <time>2020-02-28T09:35:05Z</time>
      </trkpt>
      <trkpt lat="46.71683" lon="5.79625">
        <ele>498.4</ele>
        <time>2020-02-28T09:35:06Z</time>
      </trkpt>
      <trkpt lat="46.71689" lon="5.79621">
        <ele>498.4</ele>
        <time>2020-02-28T09:35:07Z</time>
      </trkpt>
      <trkpt lat="46.71699" lon="5.79615">
        <ele>498</ele>
        <time>2020-02-28T09:35:08Z</time>
      </trkpt>
      <trkpt lat="46.71702" lon="5.79612">
        <ele>498</ele>
        <time>2020-02-28T09:35:09Z</time>
      </trkpt>
      <trkpt lat="46.71709" lon="5.79608">
        <ele>497.8</ele>
        <time>2020-02-28T09:35:10Z</time>
      </trkpt>
      <trkpt lat="46.71716" lon="5.79604">
        <ele>497.6</ele>
        <time>2020-02-28T09:35:11Z</time>
      </trkpt>
      <trkpt lat="46.71722" lon="5.796">
        <ele>497.2</ele>
        <time>2020-02-28T09:35:12Z</time>
      </trkpt>
      <trkpt lat="46.71728" lon="5.79596">
        <ele>497.2</ele>
        <time>2020-02-28T09:35:13Z</time>
      </trkpt>
      <trkpt lat="46.71737" lon="5.79589">
        <ele>497</ele>
        <time>2020-02-28T09:35:14Z</time>
      </trkpt>
      <trkpt lat="46.7174" lon="5.79587">
        <ele>496.8</ele>
        <time>2020-02-28T09:35:15Z</time>
      </trkpt>
      <trkpt lat="46.71749" lon="5.79581">
        <ele>496.6</ele>
        <time>2020-02-28T09:35:16Z</time>
      </trkpt>
      <trkpt lat="46.71752" lon="5.79579">
        <ele>496.6</ele>
        <time>2020-02-28T09:35:17Z</time>
      </trkpt>
      <trkpt lat="46.71758" lon="5.79575">
        <ele>496.2</ele>
        <time>2020-02-28T09:35:18Z</time>
      </trkpt>
      <trkpt lat="46.71763" lon="5.79572">
        <ele>496.2</ele>
        <time>2020-02-28T09:35:19Z</time>
      </trkpt>
      <trkpt lat="46.71771" lon="5.79566">
        <ele>496</ele>
        <time>2020-02-28T09:35:20Z</time>
      </trkpt>
      <trkpt lat="46.71774" lon="5.79564">
        <ele>496</ele>
        <time>2020-02-28T09:35:21Z</time>
      </trkpt>
      <trkpt lat="46.71779" lon="5.7956">
        <ele>495.6</ele>
        <time>2020-02-28T09:35:22Z</time>
      </trkpt>
      <trkpt lat="46.71783" lon="5.79556">
        <ele>495.4</ele>
        <time>2020-02-28T09:35:23Z</time>
      </trkpt>
      <trkpt lat="46.71788" lon="5.79552">
        <ele>495.4</ele>
        <time>2020-02-28T09:35:24Z</time>
      </trkpt>
      <trkpt lat="46.71792" lon="5.79547">
        <ele>495.2</ele>
        <time>2020-02-28T09:35:25Z</time>
      </trkpt>
      <trkpt lat="46.71795" lon="5.79544">
        <ele>495.2</ele>
        <time>2020-02-28T09:35:26Z</time>
      </trkpt>
      <trkpt lat="46.718" lon="5.79539">
        <ele>494.8</ele>
        <time>2020-02-28T09:35:27Z</time>
      </trkpt>
      <trkpt lat="46.71802" lon="5.79537">
        <ele>494.8</ele>
        <time>2020-02-28T09:35:28Z</time>
      </trkpt>
      <trkpt lat="46.71807" lon="5.79534">
        <ele>494.8</ele>
        <time>2020-02-28T09:35:29Z</time>
      </trkpt>
      <trkpt lat="46.71809" lon="5.79533">
        <ele>494.6</ele>
        <time>2020-02-28T09:35:30Z</time>
      </trkpt>
      <trkpt lat="46.71812" lon="5.79532">
        <ele>494.6</ele>
        <time>2020-02-28T09:35:31Z</time>
      </trkpt>
      <trkpt lat="46.71816" lon="5.79533">
        <ele>494.6</ele>
        <time>2020-02-28T09:35:32Z</time>
      </trkpt>
      <trkpt lat="46.7182" lon="5.79534">
        <ele>494.6</ele>
        <time>2020-02-28T09:35:33Z</time>
      </trkpt>
      <trkpt lat="46.71824" lon="5.79535">
        <ele>494.4</ele>
        <time>2020-02-28T09:35:34Z</time>
      </trkpt>
      <trkpt lat="46.71828" lon="5.79537">
        <ele>494.4</ele>
        <time>2020-02-28T09:35:35Z</time>
      </trkpt>
      <trkpt lat="46.71832" lon="5.79539">
        <ele>494.4</ele>
        <time>2020-02-28T09:35:36Z</time>
      </trkpt>
      <trkpt lat="46.71836" lon="5.79541">
        <ele>494.4</ele>
        <time>2020-02-28T09:35:37Z</time>
      </trkpt>
      <trkpt lat="46.7184" lon="5.79543">
        <ele>494.4</ele>
        <time>2020-02-28T09:35:38Z</time>
      </trkpt>
      <trkpt lat="46.71844" lon="5.79545">
        <ele>494.2</ele>
        <time>2020-02-28T09:35:39Z</time>
      </trkpt>
      <trkpt lat="46.71848" lon="5.79548">
        <ele>494.2</ele>
        <time>2020-02-28T09:35:40Z</time>
      </trkpt>
      <trkpt lat="46.71852" lon="5.7955">
        <ele>494.2</ele>
        <time>2020-02-28T09:35:41Z</time>
      </trkpt>
      <trkpt lat="46.71857" lon="5.79553">
        <ele>494.2</ele>
        <time>2020-02-28T09:35:42Z</time>
      </trkpt>
      <trkpt lat="46.71861" lon="5.79555">
        <ele>494.2</ele>
        <time>2020-02-28T09:35:43Z</time>
      </trkpt>
      <trkpt lat="46.71866" lon="5.79558">
        <ele>494.2</ele>
        <time>2020-02-28T09:35:44Z</time>
      </trkpt>
      <trkpt lat="46.71871" lon="5.79561">
        <ele>494.2</ele>
        <time>2020-02-28T09:35:45Z</time>
      </trkpt>
      <trkpt lat="46.71875" lon="5.79563">
        <ele>494.2</ele>
        <time>2020-02-28T09:35:46Z</time>
      </trkpt>
      <trkpt lat="46.7188" lon="5.79566">
        <ele>494.2</ele>
        <time>2020-02-28T09:35:47Z</time>
      </trkpt>
      <trkpt lat="46.71885" lon="5.79568">
        <ele>494.2</ele>
        <time>2020-02-28T09:35:48Z</time>
      </trkpt>
      <trkpt lat="46.71892" lon="5.79572">
        <ele>494.4</ele>
        <time>2020-02-28T09:35:49Z</time>
      </trkpt>
      <trkpt lat="46.71895" lon="5.79573">
        <ele>494.4</ele>
        <time>2020-02-28T09:35:50Z</time>
      </trkpt>
      <trkpt lat="46.71899" lon="5.79576">
        <ele>494.4</ele>
        <time>2020-02-28T09:35:51Z</time>
      </trkpt>
      <trkpt lat="46.71904" lon="5.79579">
        <ele>494.4</ele>
        <time>2020-02-28T09:35:52Z</time>
      </trkpt>
      <trkpt lat="46.71909" lon="5.79582">
        <ele>494.4</ele>
        <time>2020-02-28T09:35:53Z</time>
      </trkpt>
      <trkpt lat="46.71916" lon="5.79586">
        <ele>494.8</ele>
        <time>2020-02-28T09:35:54Z</time>
      </trkpt>
      <trkpt lat="46.71918" lon="5.79587">
        <ele>494.8</ele>
        <time>2020-02-28T09:35:55Z</time>
      </trkpt>
      <trkpt lat="46.71923" lon="5.79589">
        <ele>494.8</ele>
        <time>2020-02-28T09:35:56Z</time>
      </trkpt>
      <trkpt lat="46.71928" lon="5.79591">
        <ele>494.8</ele>
        <time>2020-02-28T09:35:57Z</time>
      </trkpt>
      <trkpt lat="46.71933" lon="5.79593">
        <ele>495</ele>
        <time>2020-02-28T09:35:58Z</time>
      </trkpt>
      <trkpt lat="46.71939" lon="5.79593">
        <ele>495</ele>
        <time>2020-02-28T09:35:59Z</time>
      </trkpt>
      <trkpt lat="46.71941" lon="5.79592">
        <ele>495</ele>
        <time>2020-02-28T09:36:00Z</time>
      </trkpt>
      <trkpt lat="46.71946" lon="5.79588">
        <ele>495</ele>
        <time>2020-02-28T09:36:01Z</time>
      </trkpt>
      <trkpt lat="46.71948" lon="5.79586">
        <ele>495.2</ele>
        <time>2020-02-28T09:36:02Z</time>
      </trkpt>
      <trkpt lat="46.7195" lon="5.79581">
        <ele>495.2</ele>
        <time>2020-02-28T09:36:03Z</time>
      </trkpt>
      <trkpt lat="46.71952" lon="5.79576">
        <ele>495.4</ele>
        <time>2020-02-28T09:36:04Z</time>
      </trkpt>
      <trkpt lat="46.71954" lon="5.79572">
        <ele>495.4</ele>
        <time>2020-02-28T09:36:05Z</time>
      </trkpt>
      <trkpt lat="46.71956" lon="5.79567">
        <ele>495.4</ele>
        <time>2020-02-28T09:36:06Z</time>
      </trkpt>
      <trkpt lat="46.71958" lon="5.79562">
        <ele>495.6</ele>
        <time>2020-02-28T09:36:07Z</time>
      </trkpt>
      <trkpt lat="46.7196" lon="5.79557">
        <ele>495.6</ele>
        <time>2020-02-28T09:36:08Z</time>
      </trkpt>
      <trkpt lat="46.71962" lon="5.79551">
        <ele>495.6</ele>
        <time>2020-02-28T09:36:09Z</time>
      </trkpt>
      <trkpt lat="46.71964" lon="5.79546">
        <ele>495.6</ele>
        <time>2020-02-28T09:36:10Z</time>
      </trkpt>
      <trkpt lat="46.71967" lon="5.79542">
        <ele>495.6</ele>
        <time>2020-02-28T09:36:11Z</time>
      </trkpt>
      <trkpt lat="46.71969" lon="5.79536">
        <ele>495.6</ele>
        <time>2020-02-28T09:36:12Z</time>
      </trkpt>
      <trkpt lat="46.71971" lon="5.79531">
        <ele>495.6</ele>
        <time>2020-02-28T09:36:13Z</time>
      </trkpt>
      <trkpt lat="46.71974" lon="5.79525">
        <ele>496</ele>
        <time>2020-02-28T09:36:14Z</time>
      </trkpt>
      <trkpt lat="46.71976" lon="5.79519">
        <ele>496</ele>
        <time>2020-02-28T09:36:15Z</time>
      </trkpt>
      <trkpt lat="46.7198" lon="5.79509">
        <ele>496</ele>
        <time>2020-02-28T09:36:16Z</time>
      </trkpt>
      <trkpt lat="46.71981" lon="5.79506">
        <ele>496</ele>
        <time>2020-02-28T09:36:17Z</time>
      </trkpt>
      <trkpt lat="46.71985" lon="5.79496">
        <ele>496</ele>
        <time>2020-02-28T09:36:18Z</time>
      </trkpt>
      <trkpt lat="46.71987" lon="5.79492">
        <ele>496</ele>
        <time>2020-02-28T09:36:19Z</time>
      </trkpt>
      <trkpt lat="46.7199" lon="5.79486">
        <ele>495.6</ele>
        <time>2020-02-28T09:36:20Z</time>
      </trkpt>
      <trkpt lat="46.71992" lon="5.79479">
        <ele>495.6</ele>
        <time>2020-02-28T09:36:21Z</time>
      </trkpt>
      <trkpt lat="46.71997" lon="5.79469">
        <ele>495.6</ele>
        <time>2020-02-28T09:36:22Z</time>
      </trkpt>
      <trkpt lat="46.71998" lon="5.79465">
        <ele>495.4</ele>
        <time>2020-02-28T09:36:23Z</time>
      </trkpt>
      <trkpt lat="46.72001" lon="5.79458">
        <ele>495.4</ele>
        <time>2020-02-28T09:36:24Z</time>
      </trkpt>
      <trkpt lat="46.72004" lon="5.79451">
        <ele>495.4</ele>
        <time>2020-02-28T09:36:25Z</time>
      </trkpt>
      <trkpt lat="46.72007" lon="5.79444">
        <ele>495.4</ele>
        <time>2020-02-28T09:36:26Z</time>
      </trkpt>
      <trkpt lat="46.72011" lon="5.79436">
        <ele>495.4</ele>
        <time>2020-02-28T09:36:27Z</time>
      </trkpt>
      <trkpt lat="46.72014" lon="5.79429">
        <ele>495.4</ele>
        <time>2020-02-28T09:36:28Z</time>
      </trkpt>
      <trkpt lat="46.72017" lon="5.79421">
        <ele>495.4</ele>
        <time>2020-02-28T09:36:29Z</time>
      </trkpt>
      <trkpt lat="46.72021" lon="5.79413">
        <ele>495.2</ele>
        <time>2020-02-28T09:36:30Z</time>
      </trkpt>
      <trkpt lat="46.72024" lon="5.79405">
        <ele>495.2</ele>
        <time>2020-02-28T09:36:31Z</time>
      </trkpt>
      <trkpt lat="46.72028" lon="5.79397">
        <ele>495</ele>
        <time>2020-02-28T09:36:32Z</time>
      </trkpt>
      <trkpt lat="46.72031" lon="5.79389">
        <ele>495</ele>
        <time>2020-02-28T09:36:33Z</time>
      </trkpt>
      <trkpt lat="46.72034" lon="5.7938">
        <ele>494.6</ele>
        <time>2020-02-28T09:36:34Z</time>
      </trkpt>
      <trkpt lat="46.72038" lon="5.79372">
        <ele>494.6</ele>
        <time>2020-02-28T09:36:35Z</time>
      </trkpt>
      <trkpt lat="46.72042" lon="5.79363">
        <ele>494.6</ele>
        <time>2020-02-28T09:36:36Z</time>
      </trkpt>
      <trkpt lat="46.72045" lon="5.79354">
        <ele>494.6</ele>
        <time>2020-02-28T09:36:37Z</time>
      </trkpt>
      <trkpt lat="46.72049" lon="5.79345">
        <ele>494.6</ele>
        <time>2020-02-28T09:36:38Z</time>
      </trkpt>
      <trkpt lat="46.72052" lon="5.79336">
        <ele>494.6</ele>
        <time>2020-02-28T09:36:39Z</time>
      </trkpt>
      <trkpt lat="46.72058" lon="5.79322">
        <ele>494.4</ele>
        <time>2020-02-28T09:36:40Z</time>
      </trkpt>
      <trkpt lat="46.72059" lon="5.79318">
        <ele>494.4</ele>
        <time>2020-02-28T09:36:41Z</time>
      </trkpt>
      <trkpt lat="46.72063" lon="5.79309">
        <ele>494.4</ele>
        <time>2020-02-28T09:36:42Z</time>
      </trkpt>
      <trkpt lat="46.72066" lon="5.793">
        <ele>494.2</ele>
        <time>2020-02-28T09:36:43Z</time>
      </trkpt>
      <trkpt lat="46.7207" lon="5.79291">
        <ele>494.2</ele>
        <time>2020-02-28T09:36:44Z</time>
      </trkpt>
      <trkpt lat="46.72074" lon="5.79282">
        <ele>493.8</ele>
        <time>2020-02-28T09:36:45Z</time>
      </trkpt>
      <trkpt lat="46.72079" lon="5.79269">
        <ele>493.8</ele>
        <time>2020-02-28T09:36:46Z</time>
      </trkpt>
      <trkpt lat="46.72081" lon="5.79265">
        <ele>493.8</ele>
        <time>2020-02-28T09:36:47Z</time>
      </trkpt>
      <trkpt lat="46.72085" lon="5.79256">
        <ele>493.8</ele>
        <time>2020-02-28T09:36:48Z</time>
      </trkpt>
      <trkpt lat="46.72088" lon="5.79247">
        <ele>493.6</ele>
        <time>2020-02-28T09:36:49Z</time>
      </trkpt>
      <trkpt lat="46.72092" lon="5.79239">
        <ele>493.6</ele>
        <time>2020-02-28T09:36:50Z</time>
      </trkpt>
      <trkpt lat="46.72096" lon="5.7923">
        <ele>493.6</ele>
        <time>2020-02-28T09:36:51Z</time>
      </trkpt>
      <trkpt lat="46.72099" lon="5.7922">
        <ele>493.4</ele>
        <time>2020-02-28T09:36:52Z</time>
      </trkpt>
      <trkpt lat="46.72103" lon="5.79211">
        <ele>493.2</ele>
        <time>2020-02-28T09:36:53Z</time>
      </trkpt>
      <trkpt lat="46.72106" lon="5.79202">
        <ele>493.2</ele>
        <time>2020-02-28T09:36:54Z</time>
      </trkpt>
      <trkpt lat="46.7211" lon="5.79193">
        <ele>493</ele>
        <time>2020-02-28T09:36:55Z</time>
      </trkpt>
      <trkpt lat="46.72114" lon="5.79184">
        <ele>493</ele>
        <time>2020-02-28T09:36:56Z</time>
      </trkpt>
      <trkpt lat="46.72118" lon="5.79175">
        <ele>492.8</ele>
        <time>2020-02-28T09:36:57Z</time>
      </trkpt>
      <trkpt lat="46.72123" lon="5.79167">
        <ele>492.8</ele>
        <time>2020-02-28T09:36:58Z</time>
      </trkpt>
      <trkpt lat="46.72128" lon="5.79158">
        <ele>492.2</ele>
        <time>2020-02-28T09:36:59Z</time>
      </trkpt>
      <trkpt lat="46.72133" lon="5.7915">
        <ele>492</ele>
        <time>2020-02-28T09:37:00Z</time>
      </trkpt>
      <trkpt lat="46.72139" lon="5.79142">
        <ele>491.8</ele>
        <time>2020-02-28T09:37:01Z</time>
      </trkpt>
      <trkpt lat="46.72144" lon="5.79134">
        <ele>491.4</ele>
        <time>2020-02-28T09:37:02Z</time>
      </trkpt>
      <trkpt lat="46.7215" lon="5.79126">
        <ele>491.2</ele>
        <time>2020-02-28T09:37:03Z</time>
      </trkpt>
      <trkpt lat="46.72156" lon="5.79117">
        <ele>490.6</ele>
        <time>2020-02-28T09:37:04Z</time>
      </trkpt>
      <trkpt lat="46.72162" lon="5.79108">
        <ele>490.2</ele>
        <time>2020-02-28T09:37:05Z</time>
      </trkpt>
      <trkpt lat="46.72168" lon="5.79098">
        <ele>489.8</ele>
        <time>2020-02-28T09:37:06Z</time>
      </trkpt>
      <trkpt lat="46.72174" lon="5.79089">
        <ele>489.4</ele>
        <time>2020-02-28T09:37:07Z</time>
      </trkpt>
      <trkpt lat="46.7218" lon="5.79079">
        <ele>488.8</ele>
        <time>2020-02-28T09:37:08Z</time>
      </trkpt>
      <trkpt lat="46.7219" lon="5.79062">
        <ele>488.4</ele>
        <time>2020-02-28T09:37:09Z</time>
      </trkpt>
      <trkpt lat="46.72193" lon="5.79057">
        <ele>487.8</ele>
        <time>2020-02-28T09:37:10Z</time>
      </trkpt>
      <trkpt lat="46.722" lon="5.79047">
        <ele>487.2</ele>
        <time>2020-02-28T09:37:11Z</time>
      </trkpt>
      <trkpt lat="46.72206" lon="5.79037">
        <ele>486.6</ele>
        <time>2020-02-28T09:37:12Z</time>
      </trkpt>
      <trkpt lat="46.72212" lon="5.79028">
        <ele>486.2</ele>
        <time>2020-02-28T09:37:13Z</time>
      </trkpt>
      <trkpt lat="46.72217" lon="5.79019">
        <ele>485.6</ele>
        <time>2020-02-28T09:37:14Z</time>
      </trkpt>
      <trkpt lat="46.72223" lon="5.7901">
        <ele>485</ele>
        <time>2020-02-28T09:37:15Z</time>
      </trkpt>
      <trkpt lat="46.72229" lon="5.79">
        <ele>484.6</ele>
        <time>2020-02-28T09:37:16Z</time>
      </trkpt>
      <trkpt lat="46.72236" lon="5.78983">
        <ele>484</ele>
        <time>2020-02-28T09:37:17Z</time>
      </trkpt>
      <trkpt lat="46.72237" lon="5.78978">
        <ele>483.6</ele>
        <time>2020-02-28T09:37:18Z</time>
      </trkpt>
      <trkpt lat="46.72241" lon="5.78967">
        <ele>483</ele>
        <time>2020-02-28T09:37:19Z</time>
      </trkpt>
      <trkpt lat="46.72244" lon="5.78955">
        <ele>482.6</ele>
        <time>2020-02-28T09:37:20Z</time>
      </trkpt>
      <trkpt lat="46.72247" lon="5.78944">
        <ele>482.2</ele>
        <time>2020-02-28T09:37:21Z</time>
      </trkpt>
      <trkpt lat="46.7225" lon="5.78926">
        <ele>481.6</ele>
        <time>2020-02-28T09:37:22Z</time>
      </trkpt>
      <trkpt lat="46.72251" lon="5.7892">
        <ele>481.4</ele>
        <time>2020-02-28T09:37:23Z</time>
      </trkpt>
      <trkpt lat="46.72253" lon="5.78909">
        <ele>480.8</ele>
        <time>2020-02-28T09:37:24Z</time>
      </trkpt>
      <trkpt lat="46.72255" lon="5.78897">
        <ele>480.6</ele>
        <time>2020-02-28T09:37:25Z</time>
      </trkpt>
      <trkpt lat="46.72258" lon="5.78885">
        <ele>480</ele>
        <time>2020-02-28T09:37:26Z</time>
      </trkpt>
      <trkpt lat="46.72265" lon="5.78867">
        <ele>479.4</ele>
        <time>2020-02-28T09:37:27Z</time>
      </trkpt>
      <trkpt lat="46.72268" lon="5.78862">
        <ele>479</ele>
        <time>2020-02-28T09:37:28Z</time>
      </trkpt>
      <trkpt lat="46.72274" lon="5.78851">
        <ele>478.4</ele>
        <time>2020-02-28T09:37:29Z</time>
      </trkpt>
      <trkpt lat="46.72281" lon="5.78842">
        <ele>478</ele>
        <time>2020-02-28T09:37:30Z</time>
      </trkpt>
      <trkpt lat="46.72289" lon="5.78833">
        <ele>477.4</ele>
        <time>2020-02-28T09:37:31Z</time>
      </trkpt>
      <trkpt lat="46.72296" lon="5.78824">
        <ele>476.8</ele>
        <time>2020-02-28T09:37:32Z</time>
      </trkpt>
      <trkpt lat="46.72305" lon="5.78815">
        <ele>476.4</ele>
        <time>2020-02-28T09:37:33Z</time>
      </trkpt>
      <trkpt lat="46.72314" lon="5.78808">
        <ele>475.8</ele>
        <time>2020-02-28T09:37:34Z</time>
      </trkpt>
      <trkpt lat="46.72323" lon="5.78802">
        <ele>475.2</ele>
        <time>2020-02-28T09:37:35Z</time>
      </trkpt>
      <trkpt lat="46.72338" lon="5.78793">
        <ele>474.6</ele>
        <time>2020-02-28T09:37:36Z</time>
      </trkpt>
      <trkpt lat="46.72342" lon="5.7879">
        <ele>474</ele>
        <time>2020-02-28T09:37:37Z</time>
      </trkpt>
      <trkpt lat="46.72352" lon="5.78783">
        <ele>473.4</ele>
        <time>2020-02-28T09:37:38Z</time>
      </trkpt>
      <trkpt lat="46.72367" lon="5.78774">
        <ele>472.6</ele>
        <time>2020-02-28T09:37:39Z</time>
      </trkpt>
      <trkpt lat="46.72372" lon="5.78771">
        <ele>472.2</ele>
        <time>2020-02-28T09:37:40Z</time>
      </trkpt>
      <trkpt lat="46.72388" lon="5.78763">
        <ele>471.6</ele>
        <time>2020-02-28T09:37:41Z</time>
      </trkpt>
      <trkpt lat="46.72393" lon="5.7876">
        <ele>471.2</ele>
        <time>2020-02-28T09:37:42Z</time>
      </trkpt>
      <trkpt lat="46.72404" lon="5.78754">
        <ele>470.6</ele>
        <time>2020-02-28T09:37:43Z</time>
      </trkpt>
      <trkpt lat="46.72414" lon="5.78749">
        <ele>470.2</ele>
        <time>2020-02-28T09:37:44Z</time>
      </trkpt>
      <trkpt lat="46.72423" lon="5.78743">
        <ele>469.6</ele>
        <time>2020-02-28T09:37:45Z</time>
      </trkpt>
      <trkpt lat="46.72433" lon="5.78736">
        <ele>469.2</ele>
        <time>2020-02-28T09:37:46Z</time>
      </trkpt>
      <trkpt lat="46.72442" lon="5.78731">
        <ele>468.8</ele>
        <time>2020-02-28T09:37:47Z</time>
      </trkpt>
      <trkpt lat="46.7245" lon="5.78724">
        <ele>468.6</ele>
        <time>2020-02-28T09:37:48Z</time>
      </trkpt>
      <trkpt lat="46.72459" lon="5.78719">
        <ele>468.2</ele>
        <time>2020-02-28T09:37:49Z</time>
      </trkpt>
      <trkpt lat="46.72467" lon="5.78714">
        <ele>468.2</ele>
        <time>2020-02-28T09:37:50Z</time>
      </trkpt>
      <trkpt lat="46.72479" lon="5.78704">
        <ele>467.8</ele>
        <time>2020-02-28T09:37:51Z</time>
      </trkpt>
      <trkpt lat="46.72483" lon="5.78701">
        <ele>467.8</ele>
        <time>2020-02-28T09:37:52Z</time>
      </trkpt>
      <trkpt lat="46.72491" lon="5.78694">
        <ele>467.6</ele>
        <time>2020-02-28T09:37:53Z</time>
      </trkpt>
      <trkpt lat="46.72498" lon="5.78687">
        <ele>467.6</ele>
        <time>2020-02-28T09:37:54Z</time>
      </trkpt>
      <trkpt lat="46.72505" lon="5.78681">
        <ele>467.6</ele>
        <time>2020-02-28T09:37:55Z</time>
      </trkpt>
      <trkpt lat="46.72513" lon="5.78675">
        <ele>467.6</ele>
        <time>2020-02-28T09:37:56Z</time>
      </trkpt>
      <trkpt lat="46.72524" lon="5.78667">
        <ele>467.6</ele>
        <time>2020-02-28T09:37:57Z</time>
      </trkpt>
      <trkpt lat="46.72528" lon="5.78664">
        <ele>467.6</ele>
        <time>2020-02-28T09:37:58Z</time>
      </trkpt>
      <trkpt lat="46.72535" lon="5.78658">
        <ele>467.6</ele>
        <time>2020-02-28T09:37:59Z</time>
      </trkpt>
      <trkpt lat="46.72542" lon="5.78653">
        <ele>467.4</ele>
        <time>2020-02-28T09:38:00Z</time>
      </trkpt>
      <trkpt lat="46.72548" lon="5.78648">
        <ele>467.4</ele>
        <time>2020-02-28T09:38:01Z</time>
      </trkpt>
      <trkpt lat="46.72555" lon="5.78642">
        <ele>467.4</ele>
        <time>2020-02-28T09:38:02Z</time>
      </trkpt>
      <trkpt lat="46.72564" lon="5.78634">
        <ele>467.4</ele>
        <time>2020-02-28T09:38:03Z</time>
      </trkpt>
      <trkpt lat="46.72567" lon="5.78632">
        <ele>467.4</ele>
        <time>2020-02-28T09:38:04Z</time>
      </trkpt>
      <trkpt lat="46.72573" lon="5.78627">
        <ele>467.4</ele>
        <time>2020-02-28T09:38:05Z</time>
      </trkpt>
      <trkpt lat="46.72579" lon="5.78622">
        <ele>467.4</ele>
        <time>2020-02-28T09:38:06Z</time>
      </trkpt>
      <trkpt lat="46.72585" lon="5.78619">
        <ele>467.4</ele>
        <time>2020-02-28T09:38:07Z</time>
      </trkpt>
      <trkpt lat="46.72591" lon="5.78617">
        <ele>467</ele>
        <time>2020-02-28T09:38:08Z</time>
      </trkpt>
      <trkpt lat="46.72596" lon="5.78615">
        <ele>467</ele>
        <time>2020-02-28T09:38:09Z</time>
      </trkpt>
      <trkpt lat="46.72602" lon="5.78613">
        <ele>467</ele>
        <time>2020-02-28T09:38:10Z</time>
      </trkpt>
      <trkpt lat="46.72606" lon="5.78612">
        <ele>466.8</ele>
        <time>2020-02-28T09:38:11Z</time>
      </trkpt>
      <trkpt lat="46.7261" lon="5.78612">
        <ele>466.8</ele>
        <time>2020-02-28T09:38:12Z</time>
      </trkpt>
      <trkpt lat="46.72614" lon="5.78613">
        <ele>466.8</ele>
        <time>2020-02-28T09:38:13Z</time>
      </trkpt>
      <trkpt lat="46.72617" lon="5.78614">
        <ele>466.8</ele>
        <time>2020-02-28T09:38:14Z</time>
      </trkpt>
      <trkpt lat="46.7262" lon="5.78615">
        <ele>466.8</ele>
        <time>2020-02-28T09:38:15Z</time>
      </trkpt>
      <trkpt lat="46.72623" lon="5.78616">
        <ele>466.6</ele>
        <time>2020-02-28T09:38:16Z</time>
      </trkpt>
      <trkpt lat="46.72626" lon="5.78618">
        <ele>466.6</ele>
        <time>2020-02-28T09:38:17Z</time>
      </trkpt>
      <trkpt lat="46.72627" lon="5.78619">
        <ele>466.6</ele>
        <time>2020-02-28T09:38:18Z</time>
      </trkpt>
      <trkpt lat="46.72629" lon="5.7862">
        <ele>466.6</ele>
        <time>2020-02-28T09:38:19Z</time>
      </trkpt>
      <trkpt lat="46.72631" lon="5.7862">
        <ele>466.6</ele>
        <time>2020-02-28T09:38:20Z</time>
      </trkpt>
      <trkpt lat="46.72634" lon="5.78619">
        <ele>466.6</ele>
        <time>2020-02-28T09:38:21Z</time>
      </trkpt>
      <trkpt lat="46.72636" lon="5.78617">
        <ele>466.6</ele>
        <time>2020-02-28T09:38:22Z</time>
      </trkpt>
      <trkpt lat="46.72638" lon="5.78614">
        <ele>466.6</ele>
        <time>2020-02-28T09:38:23Z</time>
      </trkpt>
      <trkpt lat="46.7264" lon="5.78608">
        <ele>466.6</ele>
        <time>2020-02-28T09:38:24Z</time>
      </trkpt>
      <trkpt lat="46.7264" lon="5.78605">
        <ele>466.6</ele>
        <time>2020-02-28T09:38:25Z</time>
      </trkpt>
      <trkpt lat="46.72642" lon="5.786">
        <ele>466.4</ele>
        <time>2020-02-28T09:38:26Z</time>
      </trkpt>
      <trkpt lat="46.72643" lon="5.78595">
        <ele>466.4</ele>
        <time>2020-02-28T09:38:27Z</time>
      </trkpt>
      <trkpt lat="46.72645" lon="5.78589">
        <ele>466.4</ele>
        <time>2020-02-28T09:38:28Z</time>
      </trkpt>
      <trkpt lat="46.72646" lon="5.78582">
        <ele>466</ele>
        <time>2020-02-28T09:38:29Z</time>
      </trkpt>
      <trkpt lat="46.72648" lon="5.78575">
        <ele>466</ele>
        <time>2020-02-28T09:38:30Z</time>
      </trkpt>
      <trkpt lat="46.7265" lon="5.78568">
        <ele>465.6</ele>
        <time>2020-02-28T09:38:31Z</time>
      </trkpt>
      <trkpt lat="46.72652" lon="5.7856">
        <ele>465.6</ele>
        <time>2020-02-28T09:38:32Z</time>
      </trkpt>
      <trkpt lat="46.72655" lon="5.78548">
        <ele>465.4</ele>
        <time>2020-02-28T09:38:33Z</time>
      </trkpt>
      <trkpt lat="46.72656" lon="5.78543">
        <ele>465.4</ele>
        <time>2020-02-28T09:38:34Z</time>
      </trkpt>
      <trkpt lat="46.72658" lon="5.78535">
        <ele>465</ele>
        <time>2020-02-28T09:38:35Z</time>
      </trkpt>
      <trkpt lat="46.7266" lon="5.78527">
        <ele>465</ele>
        <time>2020-02-28T09:38:36Z</time>
      </trkpt>
      <trkpt lat="46.72662" lon="5.78518">
        <ele>464.8</ele>
        <time>2020-02-28T09:38:37Z</time>
      </trkpt>
      <trkpt lat="46.72665" lon="5.78509">
        <ele>464.8</ele>
        <time>2020-02-28T09:38:38Z</time>
      </trkpt>
      <trkpt lat="46.72667" lon="5.785">
        <ele>464.8</ele>
        <time>2020-02-28T09:38:39Z</time>
      </trkpt>
      <trkpt lat="46.72669" lon="5.78491">
        <ele>464.6</ele>
        <time>2020-02-28T09:38:40Z</time>
      </trkpt>
      <trkpt lat="46.72672" lon="5.78482">
        <ele>464.6</ele>
        <time>2020-02-28T09:38:41Z</time>
      </trkpt>
      <trkpt lat="46.72674" lon="5.78473">
        <ele>464.6</ele>
        <time>2020-02-28T09:38:42Z</time>
      </trkpt>
      <trkpt lat="46.72678" lon="5.78459">
        <ele>464.2</ele>
        <time>2020-02-28T09:38:43Z</time>
      </trkpt>
      <trkpt lat="46.72679" lon="5.78455">
        <ele>464.2</ele>
        <time>2020-02-28T09:38:44Z</time>
      </trkpt>
      <trkpt lat="46.72682" lon="5.78446">
        <ele>464.2</ele>
        <time>2020-02-28T09:38:45Z</time>
      </trkpt>
      <trkpt lat="46.72685" lon="5.78437">
        <ele>464.2</ele>
        <time>2020-02-28T09:38:46Z</time>
      </trkpt>
      <trkpt lat="46.72688" lon="5.7843">
        <ele>464.4</ele>
        <time>2020-02-28T09:38:47Z</time>
      </trkpt>
      <trkpt lat="46.72691" lon="5.78422">
        <ele>464.4</ele>
        <time>2020-02-28T09:38:48Z</time>
      </trkpt>
      <trkpt lat="46.72694" lon="5.78415">
        <ele>464.8</ele>
        <time>2020-02-28T09:38:49Z</time>
      </trkpt>
      <trkpt lat="46.72696" lon="5.78408">
        <ele>464.8</ele>
        <time>2020-02-28T09:38:50Z</time>
      </trkpt>
      <trkpt lat="46.72699" lon="5.78401">
        <ele>465.2</ele>
        <time>2020-02-28T09:38:51Z</time>
      </trkpt>
      <trkpt lat="46.72703" lon="5.78393">
        <ele>465.4</ele>
        <time>2020-02-28T09:38:52Z</time>
      </trkpt>
      <trkpt lat="46.72704" lon="5.7839">
        <ele>465.6</ele>
        <time>2020-02-28T09:38:53Z</time>
      </trkpt>
      <trkpt lat="46.72706" lon="5.78385">
        <ele>465.6</ele>
        <time>2020-02-28T09:38:54Z</time>
      </trkpt>
      <trkpt lat="46.72709" lon="5.78379">
        <ele>466</ele>
        <time>2020-02-28T09:38:55Z</time>
      </trkpt>
      <trkpt lat="46.72711" lon="5.78374">
        <ele>466.2</ele>
        <time>2020-02-28T09:38:56Z</time>
      </trkpt>
      <trkpt lat="46.72714" lon="5.78369">
        <ele>466.2</ele>
        <time>2020-02-28T09:38:57Z</time>
      </trkpt>
      <trkpt lat="46.72718" lon="5.7836">
        <ele>466.2</ele>
        <time>2020-02-28T09:38:58Z</time>
      </trkpt>
      <trkpt lat="46.72719" lon="5.78357">
        <ele>466.2</ele>
        <time>2020-02-28T09:38:59Z</time>
      </trkpt>
      <trkpt lat="46.72721" lon="5.78351">
        <ele>466.6</ele>
        <time>2020-02-28T09:39:00Z</time>
      </trkpt>
      <trkpt lat="46.72724" lon="5.78345">
        <ele>466.6</ele>
        <time>2020-02-28T09:39:01Z</time>
      </trkpt>
      <trkpt lat="46.72727" lon="5.78338">
        <ele>466.6</ele>
        <time>2020-02-28T09:39:02Z</time>
      </trkpt>
      <trkpt lat="46.7273" lon="5.78331">
        <ele>466.6</ele>
        <time>2020-02-28T09:39:03Z</time>
      </trkpt>
      <trkpt lat="46.72733" lon="5.78323">
        <ele>466.2</ele>
        <time>2020-02-28T09:39:04Z</time>
      </trkpt>
      <trkpt lat="46.72736" lon="5.78314">
        <ele>466</ele>
        <time>2020-02-28T09:39:05Z</time>
      </trkpt>
      <trkpt lat="46.72739" lon="5.78305">
        <ele>465.8</ele>
        <time>2020-02-28T09:39:06Z</time>
      </trkpt>
      <trkpt lat="46.7274" lon="5.78291">
        <ele>465.8</ele>
        <time>2020-02-28T09:39:07Z</time>
      </trkpt>
      <trkpt lat="46.72741" lon="5.78286">
        <ele>465.4</ele>
        <time>2020-02-28T09:39:08Z</time>
      </trkpt>
      <trkpt lat="46.72742" lon="5.78276">
        <ele>465.4</ele>
        <time>2020-02-28T09:39:09Z</time>
      </trkpt>
      <trkpt lat="46.72742" lon="5.78267">
        <ele>465.2</ele>
        <time>2020-02-28T09:39:10Z</time>
      </trkpt>
      <trkpt lat="46.72742" lon="5.78258">
        <ele>465.2</ele>
        <time>2020-02-28T09:39:11Z</time>
      </trkpt>
      <trkpt lat="46.72742" lon="5.78249">
        <ele>465.2</ele>
        <time>2020-02-28T09:39:12Z</time>
      </trkpt>
      <trkpt lat="46.72741" lon="5.78239">
        <ele>465.2</ele>
        <time>2020-02-28T09:39:13Z</time>
      </trkpt>
      <trkpt lat="46.72739" lon="5.7823">
        <ele>465.2</ele>
        <time>2020-02-28T09:39:14Z</time>
      </trkpt>
      <trkpt lat="46.72737" lon="5.78222">
        <ele>465.2</ele>
        <time>2020-02-28T09:39:15Z</time>
      </trkpt>
      <trkpt lat="46.72735" lon="5.78213">
        <ele>465.2</ele>
        <time>2020-02-28T09:39:16Z</time>
      </trkpt>
      <trkpt lat="46.72733" lon="5.78204">
        <ele>465.4</ele>
        <time>2020-02-28T09:39:17Z</time>
      </trkpt>
      <trkpt lat="46.72731" lon="5.78196">
        <ele>465.4</ele>
        <time>2020-02-28T09:39:18Z</time>
      </trkpt>
      <trkpt lat="46.72728" lon="5.78188">
        <ele>465.4</ele>
        <time>2020-02-28T09:39:19Z</time>
      </trkpt>
      <trkpt lat="46.72724" lon="5.78176">
        <ele>465.6</ele>
        <time>2020-02-28T09:39:20Z</time>
      </trkpt>
      <trkpt lat="46.72723" lon="5.78172">
        <ele>465.6</ele>
        <time>2020-02-28T09:39:21Z</time>
      </trkpt>
      <trkpt lat="46.7272" lon="5.78165">
        <ele>466.2</ele>
        <time>2020-02-28T09:39:22Z</time>
      </trkpt>
      <trkpt lat="46.72718" lon="5.78158">
        <ele>466.2</ele>
        <time>2020-02-28T09:39:23Z</time>
      </trkpt>
      <trkpt lat="46.72715" lon="5.78152">
        <ele>466.4</ele>
        <time>2020-02-28T09:39:24Z</time>
      </trkpt>
      <trkpt lat="46.72713" lon="5.78146">
        <ele>466.4</ele>
        <time>2020-02-28T09:39:25Z</time>
      </trkpt>
      <trkpt lat="46.7271" lon="5.78139">
        <ele>466.6</ele>
        <time>2020-02-28T09:39:26Z</time>
      </trkpt>
      <trkpt lat="46.72706" lon="5.7813">
        <ele>466.6</ele>
        <time>2020-02-28T09:39:27Z</time>
      </trkpt>
      <trkpt lat="46.72705" lon="5.78127">
        <ele>467</ele>
        <time>2020-02-28T09:39:28Z</time>
      </trkpt>
      <trkpt lat="46.72703" lon="5.78121">
        <ele>467</ele>
        <time>2020-02-28T09:39:29Z</time>
      </trkpt>
      <trkpt lat="46.72701" lon="5.78115">
        <ele>467.2</ele>
        <time>2020-02-28T09:39:30Z</time>
      </trkpt>
      <trkpt lat="46.72698" lon="5.78109">
        <ele>467.2</ele>
        <time>2020-02-28T09:39:31Z</time>
      </trkpt>
      <trkpt lat="46.72696" lon="5.78104">
        <ele>467.4</ele>
        <time>2020-02-28T09:39:32Z</time>
      </trkpt>
      <trkpt lat="46.72694" lon="5.78098">
        <ele>467.4</ele>
        <time>2020-02-28T09:39:33Z</time>
      </trkpt>
      <trkpt lat="46.72692" lon="5.78093">
        <ele>467.4</ele>
        <time>2020-02-28T09:39:34Z</time>
      </trkpt>
      <trkpt lat="46.7269" lon="5.78088">
        <ele>467.4</ele>
        <time>2020-02-28T09:39:35Z</time>
      </trkpt>
      <trkpt lat="46.7269" lon="5.78082">
        <ele>467.8</ele>
        <time>2020-02-28T09:39:36Z</time>
      </trkpt>
      <trkpt lat="46.72691" lon="5.78077">
        <ele>467.8</ele>
        <time>2020-02-28T09:39:37Z</time>
      </trkpt>
      <trkpt lat="46.72692" lon="5.78072">
        <ele>467.8</ele>
        <time>2020-02-28T09:39:38Z</time>
      </trkpt>
      <trkpt lat="46.72695" lon="5.78069">
        <ele>468</ele>
        <time>2020-02-28T09:39:39Z</time>
      </trkpt>
      <trkpt lat="46.72698" lon="5.78067">
        <ele>468</ele>
        <time>2020-02-28T09:39:40Z</time>
      </trkpt>
      <trkpt lat="46.72701" lon="5.78066">
        <ele>468.4</ele>
        <time>2020-02-28T09:39:41Z</time>
      </trkpt>
      <trkpt lat="46.72704" lon="5.78066">
        <ele>468.4</ele>
        <time>2020-02-28T09:39:42Z</time>
      </trkpt>
      <trkpt lat="46.72707" lon="5.78066">
        <ele>468.6</ele>
        <time>2020-02-28T09:39:43Z</time>
      </trkpt>
      <trkpt lat="46.72711" lon="5.78067">
        <ele>468.6</ele>
        <time>2020-02-28T09:39:44Z</time>
      </trkpt>
      <trkpt lat="46.72712" lon="5.78067">
        <ele>469</ele>
        <time>2020-02-28T09:39:45Z</time>
      </trkpt>
      <trkpt lat="46.72715" lon="5.78068">
        <ele>469</ele>
        <time>2020-02-28T09:39:46Z</time>
      </trkpt>
      <trkpt lat="46.72719" lon="5.78069">
        <ele>469.6</ele>
        <time>2020-02-28T09:39:47Z</time>
      </trkpt>
      <trkpt lat="46.7272" lon="5.7807">
        <ele>469.8</ele>
        <time>2020-02-28T09:39:48Z</time>
      </trkpt>
      <trkpt lat="46.72723" lon="5.78071">
        <ele>469.8</ele>
        <time>2020-02-28T09:39:49Z</time>
      </trkpt>
      <trkpt lat="46.72726" lon="5.78072">
        <ele>470.2</ele>
        <time>2020-02-28T09:39:50Z</time>
      </trkpt>
      <trkpt lat="46.72729" lon="5.78074">
        <ele>470.2</ele>
        <time>2020-02-28T09:39:51Z</time>
      </trkpt>
      <trkpt lat="46.72732" lon="5.78076">
        <ele>470.6</ele>
        <time>2020-02-28T09:39:52Z</time>
      </trkpt>
      <trkpt lat="46.72735" lon="5.78078">
        <ele>470.6</ele>
        <time>2020-02-28T09:39:53Z</time>
      </trkpt>
      <trkpt lat="46.72737" lon="5.78079">
        <ele>471</ele>
        <time>2020-02-28T09:39:54Z</time>
      </trkpt>
      <trkpt lat="46.7274" lon="5.78081">
        <ele>471.2</ele>
        <time>2020-02-28T09:39:55Z</time>
      </trkpt>
      <trkpt lat="46.72743" lon="5.78082">
        <ele>471.4</ele>
        <time>2020-02-28T09:39:56Z</time>
      </trkpt>
      <trkpt lat="46.72746" lon="5.78084">
        <ele>471.8</ele>
        <time>2020-02-28T09:39:57Z</time>
      </trkpt>
      <trkpt lat="46.7275" lon="5.78087">
        <ele>472</ele>
        <time>2020-02-28T09:39:58Z</time>
      </trkpt>
      <trkpt lat="46.72751" lon="5.78087">
        <ele>472.2</ele>
        <time>2020-02-28T09:39:59Z</time>
      </trkpt>
      <trkpt lat="46.72753" lon="5.78089">
        <ele>472.4</ele>
        <time>2020-02-28T09:40:00Z</time>
      </trkpt>
      <trkpt lat="46.72756" lon="5.78091">
        <ele>472.4</ele>
        <time>2020-02-28T09:40:01Z</time>
      </trkpt>
      <trkpt lat="46.72758" lon="5.78093">
        <ele>472.8</ele>
        <time>2020-02-28T09:40:02Z</time>
      </trkpt>
      <trkpt lat="46.7276" lon="5.78094">
        <ele>472.8</ele>
        <time>2020-02-28T09:40:03Z</time>
      </trkpt>
      <trkpt lat="46.72763" lon="5.78095">
        <ele>473.2</ele>
        <time>2020-02-28T09:40:04Z</time>
      </trkpt>
      <trkpt lat="46.72766" lon="5.78096">
        <ele>473.2</ele>
        <time>2020-02-28T09:40:05Z</time>
      </trkpt>
      <trkpt lat="46.72768" lon="5.78096">
        <ele>473.4</ele>
        <time>2020-02-28T09:40:06Z</time>
      </trkpt>
      <trkpt lat="46.72771" lon="5.78097">
        <ele>473.8</ele>
        <time>2020-02-28T09:40:07Z</time>
      </trkpt>
      <trkpt lat="46.72774" lon="5.78097">
        <ele>474</ele>
        <time>2020-02-28T09:40:08Z</time>
      </trkpt>
      <trkpt lat="46.72779" lon="5.78097">
        <ele>474.2</ele>
        <time>2020-02-28T09:40:09Z</time>
      </trkpt>
      <trkpt lat="46.72781" lon="5.78097">
        <ele>474.2</ele>
        <time>2020-02-28T09:40:10Z</time>
      </trkpt>
      <trkpt lat="46.72784" lon="5.78097">
        <ele>474.4</ele>
        <time>2020-02-28T09:40:11Z</time>
      </trkpt>
      <trkpt lat="46.72787" lon="5.78095">
        <ele>474.8</ele>
        <time>2020-02-28T09:40:12Z</time>
      </trkpt>
      <trkpt lat="46.7279" lon="5.78094">
        <ele>475</ele>
        <time>2020-02-28T09:40:13Z</time>
      </trkpt>
      <trkpt lat="46.72794" lon="5.78091">
        <ele>475.2</ele>
        <time>2020-02-28T09:40:14Z</time>
      </trkpt>
      <trkpt lat="46.72797" lon="5.78089">
        <ele>475.2</ele>
        <time>2020-02-28T09:40:15Z</time>
      </trkpt>
      <trkpt lat="46.728" lon="5.78087">
        <ele>475.4</ele>
        <time>2020-02-28T09:40:16Z</time>
      </trkpt>
      <trkpt lat="46.72803" lon="5.78084">
        <ele>475.4</ele>
        <time>2020-02-28T09:40:17Z</time>
      </trkpt>
      <trkpt lat="46.72806" lon="5.78082">
        <ele>475.8</ele>
        <time>2020-02-28T09:40:18Z</time>
      </trkpt>
      <trkpt lat="46.72809" lon="5.78079">
        <ele>475.8</ele>
        <time>2020-02-28T09:40:19Z</time>
      </trkpt>
      <trkpt lat="46.72812" lon="5.78075">
        <ele>476.2</ele>
        <time>2020-02-28T09:40:20Z</time>
      </trkpt>
      <trkpt lat="46.72817" lon="5.78071">
        <ele>476.2</ele>
        <time>2020-02-28T09:40:21Z</time>
      </trkpt>
      <trkpt lat="46.72818" lon="5.78069">
        <ele>476.4</ele>
        <time>2020-02-28T09:40:22Z</time>
      </trkpt>
      <trkpt lat="46.72821" lon="5.78065">
        <ele>476.4</ele>
        <time>2020-02-28T09:40:23Z</time>
      </trkpt>
      <trkpt lat="46.72823" lon="5.78061">
        <ele>476.8</ele>
        <time>2020-02-28T09:40:24Z</time>
      </trkpt>
      <trkpt lat="46.72826" lon="5.78058">
        <ele>477</ele>
        <time>2020-02-28T09:40:25Z</time>
      </trkpt>
      <trkpt lat="46.72828" lon="5.78054">
        <ele>477.2</ele>
        <time>2020-02-28T09:40:26Z</time>
      </trkpt>
      <trkpt lat="46.7283" lon="5.7805">
        <ele>477.2</ele>
        <time>2020-02-28T09:40:27Z</time>
      </trkpt>
      <trkpt lat="46.72833" lon="5.78047">
        <ele>477.6</ele>
        <time>2020-02-28T09:40:28Z</time>
      </trkpt>
      <trkpt lat="46.72835" lon="5.78043">
        <ele>477.6</ele>
        <time>2020-02-28T09:40:29Z</time>
      </trkpt>
      <trkpt lat="46.72838" lon="5.7804">
        <ele>477.8</ele>
        <time>2020-02-28T09:40:30Z</time>
      </trkpt>
      <trkpt lat="46.72841" lon="5.78036">
        <ele>477.8</ele>
        <time>2020-02-28T09:40:31Z</time>
      </trkpt>
      <trkpt lat="46.72844" lon="5.78032">
        <ele>477.8</ele>
        <time>2020-02-28T09:40:32Z</time>
      </trkpt>
      <trkpt lat="46.72848" lon="5.78029">
        <ele>478.2</ele>
        <time>2020-02-28T09:40:33Z</time>
      </trkpt>
      <trkpt lat="46.72853" lon="5.78025">
        <ele>478.2</ele>
        <time>2020-02-28T09:40:34Z</time>
      </trkpt>
      <trkpt lat="46.72855" lon="5.78024">
        <ele>478.2</ele>
        <time>2020-02-28T09:40:35Z</time>
      </trkpt>
      <trkpt lat="46.72858" lon="5.78022">
        <ele>478.4</ele>
        <time>2020-02-28T09:40:36Z</time>
      </trkpt>
      <trkpt lat="46.72861" lon="5.78021">
        <ele>478.4</ele>
        <time>2020-02-28T09:40:37Z</time>
      </trkpt>
      <trkpt lat="46.72865" lon="5.78021">
        <ele>478.8</ele>
        <time>2020-02-28T09:40:38Z</time>
      </trkpt>
      <trkpt lat="46.72868" lon="5.78021">
        <ele>478.8</ele>
        <time>2020-02-28T09:40:39Z</time>
      </trkpt>
      <trkpt lat="46.72871" lon="5.78021">
        <ele>479.2</ele>
        <time>2020-02-28T09:40:40Z</time>
      </trkpt>
      <trkpt lat="46.72873" lon="5.78022">
        <ele>479.4</ele>
        <time>2020-02-28T09:40:41Z</time>
      </trkpt>
      <trkpt lat="46.72876" lon="5.78022">
        <ele>479.6</ele>
        <time>2020-02-28T09:40:42Z</time>
      </trkpt>
      <trkpt lat="46.72879" lon="5.78022">
        <ele>479.8</ele>
        <time>2020-02-28T09:40:43Z</time>
      </trkpt>
      <trkpt lat="46.72881" lon="5.78023">
        <ele>479.8</ele>
        <time>2020-02-28T09:40:44Z</time>
      </trkpt>
      <trkpt lat="46.72884" lon="5.78023">
        <ele>480.2</ele>
        <time>2020-02-28T09:40:45Z</time>
      </trkpt>
      <trkpt lat="46.72887" lon="5.78024">
        <ele>480.4</ele>
        <time>2020-02-28T09:40:46Z</time>
      </trkpt>
      <trkpt lat="46.7289" lon="5.78024">
        <ele>480.8</ele>
        <time>2020-02-28T09:40:47Z</time>
      </trkpt>
      <trkpt lat="46.72893" lon="5.78025">
        <ele>481</ele>
        <time>2020-02-28T09:40:48Z</time>
      </trkpt>
      <trkpt lat="46.72896" lon="5.78025">
        <ele>481.2</ele>
        <time>2020-02-28T09:40:49Z</time>
      </trkpt>
      <trkpt lat="46.72898" lon="5.78025">
        <ele>481.2</ele>
        <time>2020-02-28T09:40:50Z</time>
      </trkpt>
      <trkpt lat="46.72901" lon="5.78026">
        <ele>481.6</ele>
        <time>2020-02-28T09:40:51Z</time>
      </trkpt>
      <trkpt lat="46.72904" lon="5.78026">
        <ele>481.6</ele>
        <time>2020-02-28T09:40:52Z</time>
      </trkpt>
      <trkpt lat="46.72907" lon="5.78027">
        <ele>482</ele>
        <time>2020-02-28T09:40:53Z</time>
      </trkpt>
      <trkpt lat="46.7291" lon="5.78027">
        <ele>482</ele>
        <time>2020-02-28T09:40:54Z</time>
      </trkpt>
      <trkpt lat="46.72913" lon="5.78027">
        <ele>482.4</ele>
        <time>2020-02-28T09:40:55Z</time>
      </trkpt>
      <trkpt lat="46.72916" lon="5.78026">
        <ele>482.4</ele>
        <time>2020-02-28T09:40:56Z</time>
      </trkpt>
      <trkpt lat="46.72919" lon="5.78026">
        <ele>482.8</ele>
        <time>2020-02-28T09:40:57Z</time>
      </trkpt>
      <trkpt lat="46.72924" lon="5.78027">
        <ele>483</ele>
        <time>2020-02-28T09:40:58Z</time>
      </trkpt>
      <trkpt lat="46.72925" lon="5.78027">
        <ele>483</ele>
        <time>2020-02-28T09:40:59Z</time>
      </trkpt>
      <trkpt lat="46.72928" lon="5.78028">
        <ele>483.4</ele>
        <time>2020-02-28T09:41:00Z</time>
      </trkpt>
      <trkpt lat="46.72931" lon="5.78029">
        <ele>483.4</ele>
        <time>2020-02-28T09:41:01Z</time>
      </trkpt>
      <trkpt lat="46.72934" lon="5.78029">
        <ele>483.8</ele>
        <time>2020-02-28T09:41:02Z</time>
      </trkpt>
      <trkpt lat="46.72937" lon="5.7803">
        <ele>483.8</ele>
        <time>2020-02-28T09:41:03Z</time>
      </trkpt>
      <trkpt lat="46.7294" lon="5.78031">
        <ele>483.8</ele>
        <time>2020-02-28T09:41:04Z</time>
      </trkpt>
      <trkpt lat="46.72943" lon="5.78031">
        <ele>484.2</ele>
        <time>2020-02-28T09:41:05Z</time>
      </trkpt>
      <trkpt lat="46.72946" lon="5.78032">
        <ele>484.2</ele>
        <time>2020-02-28T09:41:06Z</time>
      </trkpt>
      <trkpt lat="46.72949" lon="5.78033">
        <ele>484.6</ele>
        <time>2020-02-28T09:41:07Z</time>
      </trkpt>
      <trkpt lat="46.72954" lon="5.78034">
        <ele>484.6</ele>
        <time>2020-02-28T09:41:08Z</time>
      </trkpt>
      <trkpt lat="46.72955" lon="5.78035">
        <ele>485</ele>
        <time>2020-02-28T09:41:09Z</time>
      </trkpt>
      <trkpt lat="46.72958" lon="5.78035">
        <ele>485.2</ele>
        <time>2020-02-28T09:41:10Z</time>
      </trkpt>
      <trkpt lat="46.72962" lon="5.78036">
        <ele>485.2</ele>
        <time>2020-02-28T09:41:11Z</time>
      </trkpt>
      <trkpt lat="46.72965" lon="5.78037">
        <ele>485.4</ele>
        <time>2020-02-28T09:41:12Z</time>
      </trkpt>
      <trkpt lat="46.72968" lon="5.78037">
        <ele>485.6</ele>
        <time>2020-02-28T09:41:13Z</time>
      </trkpt>
      <trkpt lat="46.72972" lon="5.78038">
        <ele>485.6</ele>
        <time>2020-02-28T09:41:14Z</time>
      </trkpt>
      <trkpt lat="46.72974" lon="5.78039">
        <ele>486.2</ele>
        <time>2020-02-28T09:41:15Z</time>
      </trkpt>
      <trkpt lat="46.72978" lon="5.7804">
        <ele>486.4</ele>
        <time>2020-02-28T09:41:16Z</time>
      </trkpt>
      <trkpt lat="46.7298" lon="5.78041">
        <ele>486.4</ele>
        <time>2020-02-28T09:41:17Z</time>
      </trkpt>
      <trkpt lat="46.72983" lon="5.78041">
        <ele>486.8</ele>
        <time>2020-02-28T09:41:18Z</time>
      </trkpt>
      <trkpt lat="46.72987" lon="5.78042">
        <ele>486.8</ele>
        <time>2020-02-28T09:41:19Z</time>
      </trkpt>
      <trkpt lat="46.7299" lon="5.78043">
        <ele>487.2</ele>
        <time>2020-02-28T09:41:20Z</time>
      </trkpt>
      <trkpt lat="46.72993" lon="5.78044">
        <ele>487.2</ele>
        <time>2020-02-28T09:41:21Z</time>
      </trkpt>
      <trkpt lat="46.72996" lon="5.78044">
        <ele>487.4</ele>
        <time>2020-02-28T09:41:22Z</time>
      </trkpt>
      <trkpt lat="46.72999" lon="5.78045">
        <ele>487.8</ele>
        <time>2020-02-28T09:41:23Z</time>
      </trkpt>
      <trkpt lat="46.73002" lon="5.78045">
        <ele>488</ele>
        <time>2020-02-28T09:41:24Z</time>
      </trkpt>
      <trkpt lat="46.73005" lon="5.78045">
        <ele>488</ele>
        <time>2020-02-28T09:41:25Z</time>
      </trkpt>
      <trkpt lat="46.73008" lon="5.78045">
        <ele>488.4</ele>
        <time>2020-02-28T09:41:26Z</time>
      </trkpt>
      <trkpt lat="46.73011" lon="5.78046">
        <ele>488.6</ele>
        <time>2020-02-28T09:41:27Z</time>
      </trkpt>
      <trkpt lat="46.73014" lon="5.78046">
        <ele>488.6</ele>
        <time>2020-02-28T09:41:28Z</time>
      </trkpt>
      <trkpt lat="46.73017" lon="5.78047">
        <ele>488.8</ele>
        <time>2020-02-28T09:41:29Z</time>
      </trkpt>
      <trkpt lat="46.73019" lon="5.78047">
        <ele>488.8</ele>
        <time>2020-02-28T09:41:30Z</time>
      </trkpt>
      <trkpt lat="46.73023" lon="5.78048">
        <ele>489.2</ele>
        <time>2020-02-28T09:41:31Z</time>
      </trkpt>
      <trkpt lat="46.73025" lon="5.78049">
        <ele>489.2</ele>
        <time>2020-02-28T09:41:32Z</time>
      </trkpt>
      <trkpt lat="46.73028" lon="5.78049">
        <ele>489.6</ele>
        <time>2020-02-28T09:41:33Z</time>
      </trkpt>
      <trkpt lat="46.7303" lon="5.7805">
        <ele>489.6</ele>
        <time>2020-02-28T09:41:34Z</time>
      </trkpt>
      <trkpt lat="46.73033" lon="5.78051">
        <ele>489.8</ele>
        <time>2020-02-28T09:41:35Z</time>
      </trkpt>
      <trkpt lat="46.73036" lon="5.78051">
        <ele>489.8</ele>
        <time>2020-02-28T09:41:36Z</time>
      </trkpt>
      <trkpt lat="46.7304" lon="5.78052">
        <ele>490.2</ele>
        <time>2020-02-28T09:41:37Z</time>
      </trkpt>
      <trkpt lat="46.73042" lon="5.78052">
        <ele>490.2</ele>
        <time>2020-02-28T09:41:38Z</time>
      </trkpt>
      <trkpt lat="46.73044" lon="5.78052">
        <ele>490.6</ele>
        <time>2020-02-28T09:41:39Z</time>
      </trkpt>
      <trkpt lat="46.73047" lon="5.78052">
        <ele>490.6</ele>
        <time>2020-02-28T09:41:40Z</time>
      </trkpt>
      <trkpt lat="46.73049" lon="5.78053">
        <ele>491</ele>
        <time>2020-02-28T09:41:41Z</time>
      </trkpt>
      <trkpt lat="46.73052" lon="5.78053">
        <ele>491.2</ele>
        <time>2020-02-28T09:41:42Z</time>
      </trkpt>
      <trkpt lat="46.73056" lon="5.78053">
        <ele>491.2</ele>
        <time>2020-02-28T09:41:43Z</time>
      </trkpt>
      <trkpt lat="46.73057" lon="5.78053">
        <ele>491.4</ele>
        <time>2020-02-28T09:41:44Z</time>
      </trkpt>
      <trkpt lat="46.7306" lon="5.78054">
        <ele>491.4</ele>
        <time>2020-02-28T09:41:45Z</time>
      </trkpt>
      <trkpt lat="46.73063" lon="5.78054">
        <ele>491.8</ele>
        <time>2020-02-28T09:41:46Z</time>
      </trkpt>
      <trkpt lat="46.73065" lon="5.78054">
        <ele>491.8</ele>
        <time>2020-02-28T09:41:47Z</time>
      </trkpt>
      <trkpt lat="46.73068" lon="5.78054">
        <ele>492</ele>
        <time>2020-02-28T09:41:48Z</time>
      </trkpt>
      <trkpt lat="46.7307" lon="5.78054">
        <ele>492</ele>
        <time>2020-02-28T09:41:49Z</time>
      </trkpt>
      <trkpt lat="46.73073" lon="5.78055">
        <ele>492.4</ele>
        <time>2020-02-28T09:41:50Z</time>
      </trkpt>
      <trkpt lat="46.73076" lon="5.78055">
        <ele>492.4</ele>
        <time>2020-02-28T09:41:51Z</time>
      </trkpt>
      <trkpt lat="46.73078" lon="5.78055">
        <ele>492.8</ele>
        <time>2020-02-28T09:41:52Z</time>
      </trkpt>
      <trkpt lat="46.7308" lon="5.78055">
        <ele>492.8</ele>
        <time>2020-02-28T09:41:53Z</time>
      </trkpt>
      <trkpt lat="46.73082" lon="5.78055">
        <ele>493</ele>
        <time>2020-02-28T09:41:54Z</time>
      </trkpt>
      <trkpt lat="46.73085" lon="5.78056">
        <ele>493</ele>
        <time>2020-02-28T09:41:55Z</time>
      </trkpt>
      <trkpt lat="46.73086" lon="5.78057">
        <ele>493.2</ele>
        <time>2020-02-28T09:41:56Z</time>
      </trkpt>
      <trkpt lat="46.73088" lon="5.78057">
        <ele>493.4</ele>
        <time>2020-02-28T09:41:57Z</time>
      </trkpt>
      <trkpt lat="46.7309" lon="5.78057">
        <ele>493.4</ele>
        <time>2020-02-28T09:41:58Z</time>
      </trkpt>
      <trkpt lat="46.73093" lon="5.78057">
        <ele>493.6</ele>
        <time>2020-02-28T09:41:59Z</time>
      </trkpt>
      <trkpt lat="46.73095" lon="5.78058">
        <ele>493.6</ele>
        <time>2020-02-28T09:42:00Z</time>
      </trkpt>
      <trkpt lat="46.73099" lon="5.78058">
        <ele>493.8</ele>
        <time>2020-02-28T09:42:01Z</time>
      </trkpt>
      <trkpt lat="46.731" lon="5.78059">
        <ele>493.8</ele>
        <time>2020-02-28T09:42:02Z</time>
      </trkpt>
      <trkpt lat="46.73102" lon="5.78059">
        <ele>494.2</ele>
        <time>2020-02-28T09:42:03Z</time>
      </trkpt>
      <trkpt lat="46.73104" lon="5.78059">
        <ele>494.4</ele>
        <time>2020-02-28T09:42:04Z</time>
      </trkpt>
      <trkpt lat="46.73106" lon="5.78059">
        <ele>494.4</ele>
        <time>2020-02-28T09:42:05Z</time>
      </trkpt>
      <trkpt lat="46.73108" lon="5.7806">
        <ele>494.8</ele>
        <time>2020-02-28T09:42:06Z</time>
      </trkpt>
      <trkpt lat="46.7311" lon="5.7806">
        <ele>494.8</ele>
        <time>2020-02-28T09:42:07Z</time>
      </trkpt>
      <trkpt lat="46.73112" lon="5.78061">
        <ele>495.2</ele>
        <time>2020-02-28T09:42:08Z</time>
      </trkpt>
      <trkpt lat="46.73115" lon="5.78062">
        <ele>495.2</ele>
        <time>2020-02-28T09:42:09Z</time>
      </trkpt>
      <trkpt lat="46.73117" lon="5.78062">
        <ele>495.6</ele>
        <time>2020-02-28T09:42:10Z</time>
      </trkpt>
      <trkpt lat="46.7312" lon="5.78062">
        <ele>495.6</ele>
        <time>2020-02-28T09:42:11Z</time>
      </trkpt>
      <trkpt lat="46.73122" lon="5.78062">
        <ele>495.8</ele>
        <time>2020-02-28T09:42:12Z</time>
      </trkpt>
      <trkpt lat="46.73125" lon="5.78062">
        <ele>495.8</ele>
        <time>2020-02-28T09:42:13Z</time>
      </trkpt>
      <trkpt lat="46.73127" lon="5.78062">
        <ele>496.2</ele>
        <time>2020-02-28T09:42:14Z</time>
      </trkpt>
      <trkpt lat="46.7313" lon="5.78062">
        <ele>496.2</ele>
        <time>2020-02-28T09:42:15Z</time>
      </trkpt>
      <trkpt lat="46.73134" lon="5.78063">
        <ele>496.6</ele>
        <time>2020-02-28T09:42:16Z</time>
      </trkpt>
      <trkpt lat="46.73136" lon="5.78063">
        <ele>496.6</ele>
        <time>2020-02-28T09:42:17Z</time>
      </trkpt>
      <trkpt lat="46.73139" lon="5.78063">
        <ele>496.8</ele>
        <time>2020-02-28T09:42:18Z</time>
      </trkpt>
      <trkpt lat="46.73142" lon="5.78064">
        <ele>496.8</ele>
        <time>2020-02-28T09:42:19Z</time>
      </trkpt>
      <trkpt lat="46.73145" lon="5.78065">
        <ele>497.2</ele>
        <time>2020-02-28T09:42:20Z</time>
      </trkpt>
      <trkpt lat="46.73147" lon="5.78065">
        <ele>497.2</ele>
        <time>2020-02-28T09:42:21Z</time>
      </trkpt>
      <trkpt lat="46.7315" lon="5.78065">
        <ele>497.6</ele>
        <time>2020-02-28T09:42:22Z</time>
      </trkpt>
      <trkpt lat="46.73153" lon="5.78066">
        <ele>497.6</ele>
        <time>2020-02-28T09:42:23Z</time>
      </trkpt>
      <trkpt lat="46.73155" lon="5.78066">
        <ele>497.8</ele>
        <time>2020-02-28T09:42:24Z</time>
      </trkpt>
      <trkpt lat="46.73157" lon="5.78067">
        <ele>497.8</ele>
        <time>2020-02-28T09:42:25Z</time>
      </trkpt>
      <trkpt lat="46.7316" lon="5.78067">
        <ele>498.2</ele>
        <time>2020-02-28T09:42:26Z</time>
      </trkpt>
      <trkpt lat="46.73163" lon="5.78067">
        <ele>498.4</ele>
        <time>2020-02-28T09:42:27Z</time>
      </trkpt>
      <trkpt lat="46.73167" lon="5.78068">
        <ele>498.8</ele>
        <time>2020-02-28T09:42:28Z</time>
      </trkpt>
      <trkpt lat="46.73168" lon="5.78068">
        <ele>499</ele>
        <time>2020-02-28T09:42:29Z</time>
      </trkpt>
      <trkpt lat="46.73172" lon="5.78069">
        <ele>499.2</ele>
        <time>2020-02-28T09:42:30Z</time>
      </trkpt>
      <trkpt lat="46.73174" lon="5.78069">
        <ele>499.4</ele>
        <time>2020-02-28T09:42:31Z</time>
      </trkpt>
      <trkpt lat="46.73176" lon="5.7807">
        <ele>499.6</ele>
        <time>2020-02-28T09:42:32Z</time>
      </trkpt>
      <trkpt lat="46.7318" lon="5.78071">
        <ele>499.6</ele>
        <time>2020-02-28T09:42:33Z</time>
      </trkpt>
      <trkpt lat="46.73181" lon="5.78072">
        <ele>500.2</ele>
        <time>2020-02-28T09:42:34Z</time>
      </trkpt>
      <trkpt lat="46.73183" lon="5.78072">
        <ele>500.2</ele>
        <time>2020-02-28T09:42:35Z</time>
      </trkpt>
      <trkpt lat="46.73186" lon="5.78073">
        <ele>500.4</ele>
        <time>2020-02-28T09:42:36Z</time>
      </trkpt>
      <trkpt lat="46.73189" lon="5.78074">
        <ele>500.4</ele>
        <time>2020-02-28T09:42:37Z</time>
      </trkpt>
      <trkpt lat="46.73191" lon="5.78075">
        <ele>500.8</ele>
        <time>2020-02-28T09:42:38Z</time>
      </trkpt>
      <trkpt lat="46.73194" lon="5.78076">
        <ele>501</ele>
        <time>2020-02-28T09:42:39Z</time>
      </trkpt>
      <trkpt lat="46.73196" lon="5.78077">
        <ele>501</ele>
        <time>2020-02-28T09:42:40Z</time>
      </trkpt>
      <trkpt lat="46.732" lon="5.78079">
        <ele>501.2</ele>
        <time>2020-02-28T09:42:41Z</time>
      </trkpt>
      <trkpt lat="46.73201" lon="5.7808">
        <ele>501.2</ele>
        <time>2020-02-28T09:42:42Z</time>
      </trkpt>
      <trkpt lat="46.73204" lon="5.78081">
        <ele>501.4</ele>
        <time>2020-02-28T09:42:43Z</time>
      </trkpt>
      <trkpt lat="46.73207" lon="5.78082">
        <ele>501.4</ele>
        <time>2020-02-28T09:42:44Z</time>
      </trkpt>
      <trkpt lat="46.73209" lon="5.78082">
        <ele>501.8</ele>
        <time>2020-02-28T09:42:45Z</time>
      </trkpt>
      <trkpt lat="46.73212" lon="5.78083">
        <ele>501.8</ele>
        <time>2020-02-28T09:42:46Z</time>
      </trkpt>
      <trkpt lat="46.73214" lon="5.78084">
        <ele>502</ele>
        <time>2020-02-28T09:42:47Z</time>
      </trkpt>
      <trkpt lat="46.73217" lon="5.78085">
        <ele>502</ele>
        <time>2020-02-28T09:42:48Z</time>
      </trkpt>
      <trkpt lat="46.7322" lon="5.78087">
        <ele>502.4</ele>
        <time>2020-02-28T09:42:49Z</time>
      </trkpt>
      <trkpt lat="46.73223" lon="5.78088">
        <ele>502.4</ele>
        <time>2020-02-28T09:42:50Z</time>
      </trkpt>
      <trkpt lat="46.73226" lon="5.78089">
        <ele>502.8</ele>
        <time>2020-02-28T09:42:51Z</time>
      </trkpt>
      <trkpt lat="46.73227" lon="5.7809">
        <ele>503</ele>
        <time>2020-02-28T09:42:52Z</time>
      </trkpt>
      <trkpt lat="46.7323" lon="5.78091">
        <ele>503</ele>
        <time>2020-02-28T09:42:53Z</time>
      </trkpt>
      <trkpt lat="46.73232" lon="5.78092">
        <ele>503.2</ele>
        <time>2020-02-28T09:42:54Z</time>
      </trkpt>
      <trkpt lat="46.73234" lon="5.78093">
        <ele>503.2</ele>
        <time>2020-02-28T09:42:55Z</time>
      </trkpt>
      <trkpt lat="46.73237" lon="5.78095">
        <ele>503.6</ele>
        <time>2020-02-28T09:42:56Z</time>
      </trkpt>
      <trkpt lat="46.7324" lon="5.78096">
        <ele>503.6</ele>
        <time>2020-02-28T09:42:57Z</time>
      </trkpt>
      <trkpt lat="46.73242" lon="5.78098">
        <ele>503.8</ele>
        <time>2020-02-28T09:42:58Z</time>
      </trkpt>
      <trkpt lat="46.73245" lon="5.78099">
        <ele>503.8</ele>
        <time>2020-02-28T09:42:59Z</time>
      </trkpt>
      <trkpt lat="46.73248" lon="5.78101">
        <ele>504</ele>
        <time>2020-02-28T09:43:00Z</time>
      </trkpt>
      <trkpt lat="46.7325" lon="5.78102">
        <ele>504</ele>
        <time>2020-02-28T09:43:01Z</time>
      </trkpt>
      <trkpt lat="46.73254" lon="5.78104">
        <ele>504.4</ele>
        <time>2020-02-28T09:43:02Z</time>
      </trkpt>
      <trkpt lat="46.73255" lon="5.78105">
        <ele>504.4</ele>
        <time>2020-02-28T09:43:03Z</time>
      </trkpt>
      <trkpt lat="46.73258" lon="5.78107">
        <ele>504.6</ele>
        <time>2020-02-28T09:43:04Z</time>
      </trkpt>
      <trkpt lat="46.73261" lon="5.78108">
        <ele>504.6</ele>
        <time>2020-02-28T09:43:05Z</time>
      </trkpt>
      <trkpt lat="46.73263" lon="5.7811">
        <ele>505</ele>
        <time>2020-02-28T09:43:06Z</time>
      </trkpt>
      <trkpt lat="46.73265" lon="5.78112">
        <ele>505.2</ele>
        <time>2020-02-28T09:43:07Z</time>
      </trkpt>
      <trkpt lat="46.73268" lon="5.78113">
        <ele>505.2</ele>
        <time>2020-02-28T09:43:08Z</time>
      </trkpt>
      <trkpt lat="46.73272" lon="5.78115">
        <ele>505.6</ele>
        <time>2020-02-28T09:43:09Z</time>
      </trkpt>
      <trkpt lat="46.73273" lon="5.78115">
        <ele>505.6</ele>
        <time>2020-02-28T09:43:10Z</time>
      </trkpt>
      <trkpt lat="46.73275" lon="5.78117">
        <ele>505.8</ele>
        <time>2020-02-28T09:43:11Z</time>
      </trkpt>
      <trkpt lat="46.73278" lon="5.78118">
        <ele>505.8</ele>
        <time>2020-02-28T09:43:12Z</time>
      </trkpt>
      <trkpt lat="46.7328" lon="5.78119">
        <ele>506.2</ele>
        <time>2020-02-28T09:43:13Z</time>
      </trkpt>
      <trkpt lat="46.73284" lon="5.78121">
        <ele>506.2</ele>
        <time>2020-02-28T09:43:14Z</time>
      </trkpt>
      <trkpt lat="46.73285" lon="5.78122">
        <ele>506.4</ele>
        <time>2020-02-28T09:43:15Z</time>
      </trkpt>
      <trkpt lat="46.73287" lon="5.78123">
        <ele>506.4</ele>
        <time>2020-02-28T09:43:16Z</time>
      </trkpt>
      <trkpt lat="46.7329" lon="5.78124">
        <ele>506.8</ele>
        <time>2020-02-28T09:43:17Z</time>
      </trkpt>
      <trkpt lat="46.73292" lon="5.78126">
        <ele>506.8</ele>
        <time>2020-02-28T09:43:18Z</time>
      </trkpt>
      <trkpt lat="46.73296" lon="5.78128">
        <ele>507</ele>
        <time>2020-02-28T09:43:19Z</time>
      </trkpt>
      <trkpt lat="46.73298" lon="5.78129">
        <ele>507</ele>
        <time>2020-02-28T09:43:20Z</time>
      </trkpt>
      <trkpt lat="46.733" lon="5.78131">
        <ele>507.2</ele>
        <time>2020-02-28T09:43:21Z</time>
      </trkpt>
      <trkpt lat="46.73302" lon="5.78132">
        <ele>507.6</ele>
        <time>2020-02-28T09:43:22Z</time>
      </trkpt>
      <trkpt lat="46.73305" lon="5.78133">
        <ele>507.6</ele>
        <time>2020-02-28T09:43:23Z</time>
      </trkpt>
      <trkpt lat="46.73307" lon="5.78134">
        <ele>508</ele>
        <time>2020-02-28T09:43:24Z</time>
      </trkpt>
      <trkpt lat="46.73309" lon="5.78135">
        <ele>508.2</ele>
        <time>2020-02-28T09:43:25Z</time>
      </trkpt>
      <trkpt lat="46.73312" lon="5.78136">
        <ele>508.2</ele>
        <time>2020-02-28T09:43:26Z</time>
      </trkpt>
      <trkpt lat="46.73314" lon="5.78138">
        <ele>508.4</ele>
        <time>2020-02-28T09:43:27Z</time>
      </trkpt>
      <trkpt lat="46.73317" lon="5.7814">
        <ele>508.4</ele>
        <time>2020-02-28T09:43:28Z</time>
      </trkpt>
      <trkpt lat="46.7332" lon="5.78141">
        <ele>508.8</ele>
        <time>2020-02-28T09:43:29Z</time>
      </trkpt>
      <trkpt lat="46.73323" lon="5.78143">
        <ele>509</ele>
        <time>2020-02-28T09:43:30Z</time>
      </trkpt>
      <trkpt lat="46.73325" lon="5.78144">
        <ele>509</ele>
        <time>2020-02-28T09:43:31Z</time>
      </trkpt>
      <trkpt lat="46.73329" lon="5.78146">
        <ele>509.2</ele>
        <time>2020-02-28T09:43:32Z</time>
      </trkpt>
      <trkpt lat="46.7333" lon="5.78147">
        <ele>509.2</ele>
        <time>2020-02-28T09:43:33Z</time>
      </trkpt>
      <trkpt lat="46.73333" lon="5.78148">
        <ele>509.6</ele>
        <time>2020-02-28T09:43:34Z</time>
      </trkpt>
      <trkpt lat="46.73335" lon="5.78149">
        <ele>509.6</ele>
        <time>2020-02-28T09:43:35Z</time>
      </trkpt>
      <trkpt lat="46.73337" lon="5.7815">
        <ele>509.8</ele>
        <time>2020-02-28T09:43:36Z</time>
      </trkpt>
      <trkpt lat="46.73341" lon="5.78152">
        <ele>510</ele>
        <time>2020-02-28T09:43:37Z</time>
      </trkpt>
      <trkpt lat="46.73342" lon="5.78152">
        <ele>510.2</ele>
        <time>2020-02-28T09:43:38Z</time>
      </trkpt>
      <trkpt lat="46.73345" lon="5.78154">
        <ele>510.4</ele>
        <time>2020-02-28T09:43:39Z</time>
      </trkpt>
      <trkpt lat="46.73348" lon="5.78155">
        <ele>510.4</ele>
        <time>2020-02-28T09:43:40Z</time>
      </trkpt>
      <trkpt lat="46.73351" lon="5.78156">
        <ele>510.8</ele>
        <time>2020-02-28T09:43:41Z</time>
      </trkpt>
      <trkpt lat="46.73354" lon="5.78157">
        <ele>510.8</ele>
        <time>2020-02-28T09:43:42Z</time>
      </trkpt>
      <trkpt lat="46.73357" lon="5.78158">
        <ele>511.2</ele>
        <time>2020-02-28T09:43:43Z</time>
      </trkpt>
      <trkpt lat="46.7336" lon="5.78159">
        <ele>511.2</ele>
        <time>2020-02-28T09:43:44Z</time>
      </trkpt>
      <trkpt lat="46.73363" lon="5.7816">
        <ele>511.6</ele>
        <time>2020-02-28T09:43:45Z</time>
      </trkpt>
      <trkpt lat="46.73365" lon="5.78161">
        <ele>511.6</ele>
        <time>2020-02-28T09:43:46Z</time>
      </trkpt>
      <trkpt lat="46.73368" lon="5.78162">
        <ele>511.6</ele>
        <time>2020-02-28T09:43:47Z</time>
      </trkpt>
      <trkpt lat="46.7337" lon="5.78163">
        <ele>511.8</ele>
        <time>2020-02-28T09:43:48Z</time>
      </trkpt>
      <trkpt lat="46.73373" lon="5.78164">
        <ele>511.8</ele>
        <time>2020-02-28T09:43:49Z</time>
      </trkpt>
      <trkpt lat="46.73376" lon="5.78166">
        <ele>512.2</ele>
        <time>2020-02-28T09:43:50Z</time>
      </trkpt>
      <trkpt lat="46.73378" lon="5.78167">
        <ele>512.2</ele>
        <time>2020-02-28T09:43:51Z</time>
      </trkpt>
      <trkpt lat="46.73381" lon="5.78169">
        <ele>512.4</ele>
        <time>2020-02-28T09:43:52Z</time>
      </trkpt>
      <trkpt lat="46.73385" lon="5.78171">
        <ele>512.6</ele>
        <time>2020-02-28T09:43:53Z</time>
      </trkpt>
      <trkpt lat="46.73386" lon="5.78172">
        <ele>512.6</ele>
        <time>2020-02-28T09:43:54Z</time>
      </trkpt>
      <trkpt lat="46.73389" lon="5.78173">
        <ele>513</ele>
        <time>2020-02-28T09:43:55Z</time>
      </trkpt>
      <trkpt lat="46.73391" lon="5.78174">
        <ele>513</ele>
        <time>2020-02-28T09:43:56Z</time>
      </trkpt>
      <trkpt lat="46.73394" lon="5.78175">
        <ele>513.2</ele>
        <time>2020-02-28T09:43:57Z</time>
      </trkpt>
      <trkpt lat="46.73396" lon="5.78177">
        <ele>513.4</ele>
        <time>2020-02-28T09:43:58Z</time>
      </trkpt>
      <trkpt lat="46.73399" lon="5.78178">
        <ele>513.4</ele>
        <time>2020-02-28T09:43:59Z</time>
      </trkpt>
      <trkpt lat="46.73403" lon="5.78181">
        <ele>513.8</ele>
        <time>2020-02-28T09:44:00Z</time>
      </trkpt>
      <trkpt lat="46.73405" lon="5.78181">
        <ele>513.8</ele>
        <time>2020-02-28T09:44:01Z</time>
      </trkpt>
      <trkpt lat="46.73407" lon="5.78183">
        <ele>514.2</ele>
        <time>2020-02-28T09:44:02Z</time>
      </trkpt>
      <trkpt lat="46.7341" lon="5.78184">
        <ele>514.4</ele>
        <time>2020-02-28T09:44:03Z</time>
      </trkpt>
      <trkpt lat="46.73413" lon="5.78186">
        <ele>514.4</ele>
        <time>2020-02-28T09:44:04Z</time>
      </trkpt>
      <trkpt lat="46.73416" lon="5.78187">
        <ele>514.6</ele>
        <time>2020-02-28T09:44:05Z</time>
      </trkpt>
      <trkpt lat="46.73419" lon="5.78189">
        <ele>514.6</ele>
        <time>2020-02-28T09:44:06Z</time>
      </trkpt>
      <trkpt lat="46.73421" lon="5.7819">
        <ele>515</ele>
        <time>2020-02-28T09:44:07Z</time>
      </trkpt>
      <trkpt lat="46.73424" lon="5.78191">
        <ele>515</ele>
        <time>2020-02-28T09:44:08Z</time>
      </trkpt>
      <trkpt lat="46.73427" lon="5.78192">
        <ele>515</ele>
        <time>2020-02-28T09:44:09Z</time>
      </trkpt>
      <trkpt lat="46.7343" lon="5.78194">
        <ele>515.4</ele>
        <time>2020-02-28T09:44:10Z</time>
      </trkpt>
      <trkpt lat="46.73432" lon="5.78195">
        <ele>515.4</ele>
        <time>2020-02-28T09:44:11Z</time>
      </trkpt>
      <trkpt lat="46.73434" lon="5.78196">
        <ele>515.6</ele>
        <time>2020-02-28T09:44:12Z</time>
      </trkpt>
      <trkpt lat="46.73438" lon="5.78197">
        <ele>515.6</ele>
        <time>2020-02-28T09:44:13Z</time>
      </trkpt>
      <trkpt lat="46.7344" lon="5.78198">
        <ele>516</ele>
        <time>2020-02-28T09:44:14Z</time>
      </trkpt>
      <trkpt lat="46.73442" lon="5.78199">
        <ele>516</ele>
        <time>2020-02-28T09:44:15Z</time>
      </trkpt>
      <trkpt lat="46.73446" lon="5.78201">
        <ele>516.2</ele>
        <time>2020-02-28T09:44:16Z</time>
      </trkpt>
      <trkpt lat="46.73448" lon="5.78202">
        <ele>516.2</ele>
        <time>2020-02-28T09:44:17Z</time>
      </trkpt>
      <trkpt lat="46.7345" lon="5.78203">
        <ele>516.6</ele>
        <time>2020-02-28T09:44:18Z</time>
      </trkpt>
      <trkpt lat="46.73453" lon="5.78204">
        <ele>516.6</ele>
        <time>2020-02-28T09:44:19Z</time>
      </trkpt>
      <trkpt lat="46.73456" lon="5.78204">
        <ele>517</ele>
        <time>2020-02-28T09:44:20Z</time>
      </trkpt>
      <trkpt lat="46.73459" lon="5.78205">
        <ele>517</ele>
        <time>2020-02-28T09:44:21Z</time>
      </trkpt>
      <trkpt lat="46.73463" lon="5.78206">
        <ele>517.2</ele>
        <time>2020-02-28T09:44:22Z</time>
      </trkpt>
      <trkpt lat="46.73464" lon="5.78207">
        <ele>517.2</ele>
        <time>2020-02-28T09:44:23Z</time>
      </trkpt>
      <trkpt lat="46.73467" lon="5.78208">
        <ele>517.6</ele>
        <time>2020-02-28T09:44:24Z</time>
      </trkpt>
      <trkpt lat="46.73469" lon="5.78209">
        <ele>517.6</ele>
        <time>2020-02-28T09:44:25Z</time>
      </trkpt>
      <trkpt lat="46.73472" lon="5.7821">
        <ele>517.8</ele>
        <time>2020-02-28T09:44:26Z</time>
      </trkpt>
      <trkpt lat="46.73475" lon="5.78212">
        <ele>517.8</ele>
        <time>2020-02-28T09:44:27Z</time>
      </trkpt>
      <trkpt lat="46.73477" lon="5.78213">
        <ele>518.2</ele>
        <time>2020-02-28T09:44:28Z</time>
      </trkpt>
      <trkpt lat="46.7348" lon="5.78215">
        <ele>518.2</ele>
        <time>2020-02-28T09:44:29Z</time>
      </trkpt>
      <trkpt lat="46.73483" lon="5.78216">
        <ele>518.2</ele>
        <time>2020-02-28T09:44:30Z</time>
      </trkpt>
      <trkpt lat="46.73485" lon="5.78218">
        <ele>518.4</ele>
        <time>2020-02-28T09:44:31Z</time>
      </trkpt>
      <trkpt lat="46.73488" lon="5.7822">
        <ele>518.4</ele>
        <time>2020-02-28T09:44:32Z</time>
      </trkpt>
      <trkpt lat="46.7349" lon="5.78222">
        <ele>518.4</ele>
        <time>2020-02-28T09:44:33Z</time>
      </trkpt>
      <trkpt lat="46.73493" lon="5.78224">
        <ele>518.8</ele>
        <time>2020-02-28T09:44:34Z</time>
      </trkpt>
      <trkpt lat="46.73496" lon="5.78226">
        <ele>518.8</ele>
        <time>2020-02-28T09:44:35Z</time>
      </trkpt>
      <trkpt lat="46.73498" lon="5.78228">
        <ele>519.2</ele>
        <time>2020-02-28T09:44:36Z</time>
      </trkpt>
      <trkpt lat="46.73501" lon="5.7823">
        <ele>519.2</ele>
        <time>2020-02-28T09:44:37Z</time>
      </trkpt>
      <trkpt lat="46.73504" lon="5.78232">
        <ele>519.6</ele>
        <time>2020-02-28T09:44:38Z</time>
      </trkpt>
      <trkpt lat="46.73508" lon="5.78235">
        <ele>519.6</ele>
        <time>2020-02-28T09:44:39Z</time>
      </trkpt>
      <trkpt lat="46.73509" lon="5.78236">
        <ele>519.6</ele>
        <time>2020-02-28T09:44:40Z</time>
      </trkpt>
      <trkpt lat="46.73511" lon="5.78238">
        <ele>519.8</ele>
        <time>2020-02-28T09:44:41Z</time>
      </trkpt>
      <trkpt lat="46.73514" lon="5.7824">
        <ele>519.8</ele>
        <time>2020-02-28T09:44:42Z</time>
      </trkpt>
      <trkpt lat="46.73516" lon="5.78241">
        <ele>520.2</ele>
        <time>2020-02-28T09:44:43Z</time>
      </trkpt>
      <trkpt lat="46.7352" lon="5.78244">
        <ele>520.2</ele>
        <time>2020-02-28T09:44:44Z</time>
      </trkpt>
      <trkpt lat="46.73522" lon="5.78245">
        <ele>520.4</ele>
        <time>2020-02-28T09:44:45Z</time>
      </trkpt>
      <trkpt lat="46.73526" lon="5.78248">
        <ele>520.6</ele>
        <time>2020-02-28T09:44:46Z</time>
      </trkpt>
      <trkpt lat="46.73528" lon="5.78249">
        <ele>520.6</ele>
        <time>2020-02-28T09:44:47Z</time>
      </trkpt>
      <trkpt lat="46.73531" lon="5.78251">
        <ele>521</ele>
        <time>2020-02-28T09:44:48Z</time>
      </trkpt>
      <trkpt lat="46.73533" lon="5.78253">
        <ele>521.4</ele>
        <time>2020-02-28T09:44:49Z</time>
      </trkpt>
      <trkpt lat="46.73535" lon="5.78256">
        <ele>521.4</ele>
        <time>2020-02-28T09:44:50Z</time>
      </trkpt>
      <trkpt lat="46.73538" lon="5.78258">
        <ele>521.6</ele>
        <time>2020-02-28T09:44:51Z</time>
      </trkpt>
      <trkpt lat="46.7354" lon="5.78259">
        <ele>521.6</ele>
        <time>2020-02-28T09:44:52Z</time>
      </trkpt>
      <trkpt lat="46.73543" lon="5.78261">
        <ele>521.6</ele>
        <time>2020-02-28T09:44:53Z</time>
      </trkpt>
      <trkpt lat="46.73546" lon="5.78262">
        <ele>521.8</ele>
        <time>2020-02-28T09:44:54Z</time>
      </trkpt>
      <trkpt lat="46.73548" lon="5.78263">
        <ele>521.8</ele>
        <time>2020-02-28T09:44:55Z</time>
      </trkpt>
      <trkpt lat="46.73552" lon="5.78265">
        <ele>522</ele>
        <time>2020-02-28T09:44:56Z</time>
      </trkpt>
      <trkpt lat="46.73553" lon="5.78266">
        <ele>522</ele>
        <time>2020-02-28T09:44:57Z</time>
      </trkpt>
      <trkpt lat="46.73557" lon="5.78268">
        <ele>522</ele>
        <time>2020-02-28T09:44:58Z</time>
      </trkpt>
      <trkpt lat="46.73558" lon="5.78268">
        <ele>522.4</ele>
        <time>2020-02-28T09:44:59Z</time>
      </trkpt>
      <trkpt lat="46.7356" lon="5.7827">
        <ele>522.4</ele>
        <time>2020-02-28T09:45:00Z</time>
      </trkpt>
      <trkpt lat="46.73564" lon="5.78272">
        <ele>522.6</ele>
        <time>2020-02-28T09:45:01Z</time>
      </trkpt>
      <trkpt lat="46.73565" lon="5.78272">
        <ele>522.6</ele>
        <time>2020-02-28T09:45:02Z</time>
      </trkpt>
      <trkpt lat="46.73568" lon="5.78273">
        <ele>523</ele>
        <time>2020-02-28T09:45:03Z</time>
      </trkpt>
      <trkpt lat="46.7357" lon="5.78274">
        <ele>523</ele>
        <time>2020-02-28T09:45:04Z</time>
      </trkpt>
      <trkpt lat="46.73573" lon="5.78275">
        <ele>523.2</ele>
        <time>2020-02-28T09:45:05Z</time>
      </trkpt>
      <trkpt lat="46.73575" lon="5.78277">
        <ele>523.2</ele>
        <time>2020-02-28T09:45:06Z</time>
      </trkpt>
      <trkpt lat="46.73577" lon="5.78278">
        <ele>523.6</ele>
        <time>2020-02-28T09:45:07Z</time>
      </trkpt>
      <trkpt lat="46.73581" lon="5.7828">
        <ele>523.6</ele>
        <time>2020-02-28T09:45:08Z</time>
      </trkpt>
      <trkpt lat="46.73582" lon="5.7828">
        <ele>523.8</ele>
        <time>2020-02-28T09:45:09Z</time>
      </trkpt>
      <trkpt lat="46.73584" lon="5.78281">
        <ele>524</ele>
        <time>2020-02-28T09:45:10Z</time>
      </trkpt>
      <trkpt lat="46.73587" lon="5.78282">
        <ele>524.4</ele>
        <time>2020-02-28T09:45:11Z</time>
      </trkpt>
      <trkpt lat="46.73589" lon="5.78283">
        <ele>524.4</ele>
        <time>2020-02-28T09:45:12Z</time>
      </trkpt>
      <trkpt lat="46.73591" lon="5.78284">
        <ele>524.6</ele>
        <time>2020-02-28T09:45:13Z</time>
      </trkpt>
      <trkpt lat="46.73594" lon="5.78285">
        <ele>524.6</ele>
        <time>2020-02-28T09:45:14Z</time>
      </trkpt>
      <trkpt lat="46.73596" lon="5.78286">
        <ele>524.8</ele>
        <time>2020-02-28T09:45:15Z</time>
      </trkpt>
      <trkpt lat="46.736" lon="5.78287">
        <ele>525</ele>
        <time>2020-02-28T09:45:16Z</time>
      </trkpt>
      <trkpt lat="46.73601" lon="5.78288">
        <ele>525.2</ele>
        <time>2020-02-28T09:45:17Z</time>
      </trkpt>
      <trkpt lat="46.73604" lon="5.78289">
        <ele>525.2</ele>
        <time>2020-02-28T09:45:18Z</time>
      </trkpt>
      <trkpt lat="46.73608" lon="5.7829">
        <ele>525.2</ele>
        <time>2020-02-28T09:45:19Z</time>
      </trkpt>
      <trkpt lat="46.7361" lon="5.78291">
        <ele>525.4</ele>
        <time>2020-02-28T09:45:20Z</time>
      </trkpt>
      <trkpt lat="46.73612" lon="5.78292">
        <ele>525.4</ele>
        <time>2020-02-28T09:45:21Z</time>
      </trkpt>
      <trkpt lat="46.73615" lon="5.78293">
        <ele>525.8</ele>
        <time>2020-02-28T09:45:22Z</time>
      </trkpt>
      <trkpt lat="46.73617" lon="5.78293">
        <ele>526.2</ele>
        <time>2020-02-28T09:45:23Z</time>
      </trkpt>
      <trkpt lat="46.7362" lon="5.78294">
        <ele>526.4</ele>
        <time>2020-02-28T09:45:24Z</time>
      </trkpt>
      <trkpt lat="46.73622" lon="5.78295">
        <ele>526.4</ele>
        <time>2020-02-28T09:45:25Z</time>
      </trkpt>
      <trkpt lat="46.73625" lon="5.78296">
        <ele>526.4</ele>
        <time>2020-02-28T09:45:26Z</time>
      </trkpt>
      <trkpt lat="46.73627" lon="5.78297">
        <ele>526.8</ele>
        <time>2020-02-28T09:45:27Z</time>
      </trkpt>
      <trkpt lat="46.7363" lon="5.78297">
        <ele>527</ele>
        <time>2020-02-28T09:45:28Z</time>
      </trkpt>
      <trkpt lat="46.73632" lon="5.78298">
        <ele>527</ele>
        <time>2020-02-28T09:45:29Z</time>
      </trkpt>
      <trkpt lat="46.73635" lon="5.78298">
        <ele>527.4</ele>
        <time>2020-02-28T09:45:30Z</time>
      </trkpt>
      <trkpt lat="46.73639" lon="5.78299">
        <ele>527.4</ele>
        <time>2020-02-28T09:45:31Z</time>
      </trkpt>
      <trkpt lat="46.7364" lon="5.78299">
        <ele>527.6</ele>
        <time>2020-02-28T09:45:32Z</time>
      </trkpt>
      <trkpt lat="46.73642" lon="5.783">
        <ele>527.6</ele>
        <time>2020-02-28T09:45:33Z</time>
      </trkpt>
      <trkpt lat="46.73644" lon="5.783">
        <ele>528</ele>
        <time>2020-02-28T09:45:34Z</time>
      </trkpt>
      <trkpt lat="46.73646" lon="5.783">
        <ele>528</ele>
        <time>2020-02-28T09:45:35Z</time>
      </trkpt>
      <trkpt lat="46.73649" lon="5.783">
        <ele>528</ele>
        <time>2020-02-28T09:45:36Z</time>
      </trkpt>
      <trkpt lat="46.73651" lon="5.78301">
        <ele>528.2</ele>
        <time>2020-02-28T09:45:37Z</time>
      </trkpt>
      <trkpt lat="46.73653" lon="5.78301">
        <ele>528.2</ele>
        <time>2020-02-28T09:45:38Z</time>
      </trkpt>
      <trkpt lat="46.73656" lon="5.78302">
        <ele>528.2</ele>
        <time>2020-02-28T09:45:39Z</time>
      </trkpt>
      <trkpt lat="46.73658" lon="5.78303">
        <ele>528.4</ele>
        <time>2020-02-28T09:45:40Z</time>
      </trkpt>
      <trkpt lat="46.7366" lon="5.78304">
        <ele>528.4</ele>
        <time>2020-02-28T09:45:41Z</time>
      </trkpt>
      <trkpt lat="46.73662" lon="5.78305">
        <ele>528.8</ele>
        <time>2020-02-28T09:45:42Z</time>
      </trkpt>
      <trkpt lat="46.73666" lon="5.78306">
        <ele>528.8</ele>
        <time>2020-02-28T09:45:43Z</time>
      </trkpt>
      <trkpt lat="46.73667" lon="5.78306">
        <ele>529.2</ele>
        <time>2020-02-28T09:45:44Z</time>
      </trkpt>
      <trkpt lat="46.7367" lon="5.78307">
        <ele>529.2</ele>
        <time>2020-02-28T09:45:45Z</time>
      </trkpt>
      <trkpt lat="46.73672" lon="5.78308">
        <ele>529.6</ele>
        <time>2020-02-28T09:45:46Z</time>
      </trkpt>
      <trkpt lat="46.73674" lon="5.78308">
        <ele>529.8</ele>
        <time>2020-02-28T09:45:47Z</time>
      </trkpt>
      <trkpt lat="46.73677" lon="5.78309">
        <ele>530</ele>
        <time>2020-02-28T09:45:48Z</time>
      </trkpt>
      <trkpt lat="46.73679" lon="5.7831">
        <ele>530</ele>
        <time>2020-02-28T09:45:49Z</time>
      </trkpt>
      <trkpt lat="46.73681" lon="5.78311">
        <ele>530.2</ele>
        <time>2020-02-28T09:45:50Z</time>
      </trkpt>
      <trkpt lat="46.73683" lon="5.78312">
        <ele>530.2</ele>
        <time>2020-02-28T09:45:51Z</time>
      </trkpt>
      <trkpt lat="46.73686" lon="5.78313">
        <ele>530.6</ele>
        <time>2020-02-28T09:45:52Z</time>
      </trkpt>
      <trkpt lat="46.73688" lon="5.78314">
        <ele>530.6</ele>
        <time>2020-02-28T09:45:53Z</time>
      </trkpt>
      <trkpt lat="46.73691" lon="5.78315">
        <ele>531</ele>
        <time>2020-02-28T09:45:54Z</time>
      </trkpt>
      <trkpt lat="46.73694" lon="5.78315">
        <ele>531</ele>
        <time>2020-02-28T09:45:55Z</time>
      </trkpt>
      <trkpt lat="46.73696" lon="5.78316">
        <ele>531.2</ele>
        <time>2020-02-28T09:45:56Z</time>
      </trkpt>
      <trkpt lat="46.73699" lon="5.78317">
        <ele>531.2</ele>
        <time>2020-02-28T09:45:57Z</time>
      </trkpt>
      <trkpt lat="46.73701" lon="5.78318">
        <ele>531.2</ele>
        <time>2020-02-28T09:45:58Z</time>
      </trkpt>
      <trkpt lat="46.73703" lon="5.78318">
        <ele>531.4</ele>
        <time>2020-02-28T09:45:59Z</time>
      </trkpt>
      <trkpt lat="46.73705" lon="5.78319">
        <ele>531.4</ele>
        <time>2020-02-28T09:46:00Z</time>
      </trkpt>
      <trkpt lat="46.73707" lon="5.7832">
        <ele>531.6</ele>
        <time>2020-02-28T09:46:01Z</time>
      </trkpt>
      <trkpt lat="46.7371" lon="5.7832">
        <ele>531.6</ele>
        <time>2020-02-28T09:46:02Z</time>
      </trkpt>
      <trkpt lat="46.73713" lon="5.78321">
        <ele>532</ele>
        <time>2020-02-28T09:46:03Z</time>
      </trkpt>
      <trkpt lat="46.73715" lon="5.78322">
        <ele>532</ele>
        <time>2020-02-28T09:46:04Z</time>
      </trkpt>
      <trkpt lat="46.73717" lon="5.78322">
        <ele>532.2</ele>
        <time>2020-02-28T09:46:05Z</time>
      </trkpt>
      <trkpt lat="46.73719" lon="5.78323">
        <ele>532.4</ele>
        <time>2020-02-28T09:46:06Z</time>
      </trkpt>
      <trkpt lat="46.73721" lon="5.78324">
        <ele>532.4</ele>
        <time>2020-02-28T09:46:07Z</time>
      </trkpt>
      <trkpt lat="46.73724" lon="5.78325">
        <ele>532.6</ele>
        <time>2020-02-28T09:46:08Z</time>
      </trkpt>
      <trkpt lat="46.73726" lon="5.78326">
        <ele>532.6</ele>
        <time>2020-02-28T09:46:09Z</time>
      </trkpt>
      <trkpt lat="46.73729" lon="5.78327">
        <ele>533</ele>
        <time>2020-02-28T09:46:10Z</time>
      </trkpt>
      <trkpt lat="46.73732" lon="5.78328">
        <ele>533</ele>
        <time>2020-02-28T09:46:11Z</time>
      </trkpt>
      <trkpt lat="46.73734" lon="5.78329">
        <ele>533.2</ele>
        <time>2020-02-28T09:46:12Z</time>
      </trkpt>
      <trkpt lat="46.73737" lon="5.7833">
        <ele>533.2</ele>
        <time>2020-02-28T09:46:13Z</time>
      </trkpt>
      <trkpt lat="46.73739" lon="5.7833">
        <ele>533.6</ele>
        <time>2020-02-28T09:46:14Z</time>
      </trkpt>
      <trkpt lat="46.73742" lon="5.78331">
        <ele>533.8</ele>
        <time>2020-02-28T09:46:15Z</time>
      </trkpt>
      <trkpt lat="46.73744" lon="5.78331">
        <ele>533.8</ele>
        <time>2020-02-28T09:46:16Z</time>
      </trkpt>
      <trkpt lat="46.73746" lon="5.78333">
        <ele>534.2</ele>
        <time>2020-02-28T09:46:17Z</time>
      </trkpt>
      <trkpt lat="46.73748" lon="5.78333">
        <ele>534.2</ele>
        <time>2020-02-28T09:46:18Z</time>
      </trkpt>
      <trkpt lat="46.73751" lon="5.78334">
        <ele>534.6</ele>
        <time>2020-02-28T09:46:19Z</time>
      </trkpt>
      <trkpt lat="46.73753" lon="5.78335">
        <ele>534.6</ele>
        <time>2020-02-28T09:46:20Z</time>
      </trkpt>
      <trkpt lat="46.73756" lon="5.78336">
        <ele>534.8</ele>
        <time>2020-02-28T09:46:21Z</time>
      </trkpt>
      <trkpt lat="46.73758" lon="5.78336">
        <ele>534.8</ele>
        <time>2020-02-28T09:46:22Z</time>
      </trkpt>
      <trkpt lat="46.73761" lon="5.78337">
        <ele>535</ele>
        <time>2020-02-28T09:46:23Z</time>
      </trkpt>
      <trkpt lat="46.73764" lon="5.78338">
        <ele>535</ele>
        <time>2020-02-28T09:46:24Z</time>
      </trkpt>
      <trkpt lat="46.73766" lon="5.78338">
        <ele>535.4</ele>
        <time>2020-02-28T09:46:25Z</time>
      </trkpt>
      <trkpt lat="46.73768" lon="5.78338">
        <ele>535.4</ele>
        <time>2020-02-28T09:46:26Z</time>
      </trkpt>
      <trkpt lat="46.73771" lon="5.78338">
        <ele>535.6</ele>
        <time>2020-02-28T09:46:27Z</time>
      </trkpt>
      <trkpt lat="46.73774" lon="5.78338">
        <ele>535.6</ele>
        <time>2020-02-28T09:46:28Z</time>
      </trkpt>
      <trkpt lat="46.73777" lon="5.78338">
        <ele>536</ele>
        <time>2020-02-28T09:46:29Z</time>
      </trkpt>
      <trkpt lat="46.7378" lon="5.78338">
        <ele>536.2</ele>
        <time>2020-02-28T09:46:30Z</time>
      </trkpt>
      <trkpt lat="46.73783" lon="5.78338">
        <ele>536.2</ele>
        <time>2020-02-28T09:46:31Z</time>
      </trkpt>
      <trkpt lat="46.73786" lon="5.78338">
        <ele>536.6</ele>
        <time>2020-02-28T09:46:32Z</time>
      </trkpt>
      <trkpt lat="46.73788" lon="5.78337">
        <ele>536.6</ele>
        <time>2020-02-28T09:46:33Z</time>
      </trkpt>
      <trkpt lat="46.73791" lon="5.78337">
        <ele>536.8</ele>
        <time>2020-02-28T09:46:34Z</time>
      </trkpt>
      <trkpt lat="46.73793" lon="5.78337">
        <ele>536.8</ele>
        <time>2020-02-28T09:46:35Z</time>
      </trkpt>
      <trkpt lat="46.73796" lon="5.78337">
        <ele>537.2</ele>
        <time>2020-02-28T09:46:36Z</time>
      </trkpt>
      <trkpt lat="46.73799" lon="5.78337">
        <ele>537.2</ele>
        <time>2020-02-28T09:46:37Z</time>
      </trkpt>
      <trkpt lat="46.73802" lon="5.78337">
        <ele>537.4</ele>
        <time>2020-02-28T09:46:38Z</time>
      </trkpt>
      <trkpt lat="46.73805" lon="5.78337">
        <ele>537.4</ele>
        <time>2020-02-28T09:46:39Z</time>
      </trkpt>
      <trkpt lat="46.73808" lon="5.78336">
        <ele>537.6</ele>
        <time>2020-02-28T09:46:40Z</time>
      </trkpt>
      <trkpt lat="46.73811" lon="5.78337">
        <ele>537.6</ele>
        <time>2020-02-28T09:46:41Z</time>
      </trkpt>
      <trkpt lat="46.73813" lon="5.78337">
        <ele>538</ele>
        <time>2020-02-28T09:46:42Z</time>
      </trkpt>
      <trkpt lat="46.73816" lon="5.78336">
        <ele>538</ele>
        <time>2020-02-28T09:46:43Z</time>
      </trkpt>
      <trkpt lat="46.73819" lon="5.78336">
        <ele>538.2</ele>
        <time>2020-02-28T09:46:44Z</time>
      </trkpt>
      <trkpt lat="46.73822" lon="5.78336">
        <ele>538.2</ele>
        <time>2020-02-28T09:46:45Z</time>
      </trkpt>
      <trkpt lat="46.73824" lon="5.78335">
        <ele>538.6</ele>
        <time>2020-02-28T09:46:46Z</time>
      </trkpt>
      <trkpt lat="46.73826" lon="5.78335">
        <ele>538.6</ele>
        <time>2020-02-28T09:46:47Z</time>
      </trkpt>
      <trkpt lat="46.73828" lon="5.78334">
        <ele>539</ele>
        <time>2020-02-28T09:46:48Z</time>
      </trkpt>
      <trkpt lat="46.73831" lon="5.78334">
        <ele>539</ele>
        <time>2020-02-28T09:46:49Z</time>
      </trkpt>
      <trkpt lat="46.73833" lon="5.78334">
        <ele>539.2</ele>
        <time>2020-02-28T09:46:50Z</time>
      </trkpt>
      <trkpt lat="46.73836" lon="5.78334">
        <ele>539.2</ele>
        <time>2020-02-28T09:46:51Z</time>
      </trkpt>
      <trkpt lat="46.73839" lon="5.78334">
        <ele>539.4</ele>
        <time>2020-02-28T09:46:52Z</time>
      </trkpt>
      <trkpt lat="46.73841" lon="5.78333">
        <ele>539.4</ele>
        <time>2020-02-28T09:46:53Z</time>
      </trkpt>
      <trkpt lat="46.73844" lon="5.78333">
        <ele>539.6</ele>
        <time>2020-02-28T09:46:54Z</time>
      </trkpt>
      <trkpt lat="46.73847" lon="5.78333">
        <ele>539.8</ele>
        <time>2020-02-28T09:46:55Z</time>
      </trkpt>
      <trkpt lat="46.7385" lon="5.78333">
        <ele>539.8</ele>
        <time>2020-02-28T09:46:56Z</time>
      </trkpt>
      <trkpt lat="46.73853" lon="5.78333">
        <ele>540</ele>
        <time>2020-02-28T09:46:57Z</time>
      </trkpt>
      <trkpt lat="46.73856" lon="5.78333">
        <ele>540.4</ele>
        <time>2020-02-28T09:46:58Z</time>
      </trkpt>
      <trkpt lat="46.73859" lon="5.78333">
        <ele>540.6</ele>
        <time>2020-02-28T09:46:59Z</time>
      </trkpt>
      <trkpt lat="46.73862" lon="5.78333">
        <ele>540.8</ele>
        <time>2020-02-28T09:47:00Z</time>
      </trkpt>
      <trkpt lat="46.73865" lon="5.78333">
        <ele>540.8</ele>
        <time>2020-02-28T09:47:01Z</time>
      </trkpt>
      <trkpt lat="46.73869" lon="5.78333">
        <ele>541.2</ele>
        <time>2020-02-28T09:47:02Z</time>
      </trkpt>
      <trkpt lat="46.7387" lon="5.78332">
        <ele>541.2</ele>
        <time>2020-02-28T09:47:03Z</time>
      </trkpt>
      <trkpt lat="46.73873" lon="5.78332">
        <ele>541.2</ele>
        <time>2020-02-28T09:47:04Z</time>
      </trkpt>
      <trkpt lat="46.73875" lon="5.78331">
        <ele>541.4</ele>
        <time>2020-02-28T09:47:05Z</time>
      </trkpt>
      <trkpt lat="46.73878" lon="5.78331">
        <ele>541.4</ele>
        <time>2020-02-28T09:47:06Z</time>
      </trkpt>
      <trkpt lat="46.73881" lon="5.7833">
        <ele>541.8</ele>
        <time>2020-02-28T09:47:07Z</time>
      </trkpt>
      <trkpt lat="46.73884" lon="5.78329">
        <ele>541.8</ele>
        <time>2020-02-28T09:47:08Z</time>
      </trkpt>
      <trkpt lat="46.73886" lon="5.78328">
        <ele>542</ele>
        <time>2020-02-28T09:47:09Z</time>
      </trkpt>
      <trkpt lat="46.73889" lon="5.78327">
        <ele>542</ele>
        <time>2020-02-28T09:47:10Z</time>
      </trkpt>
      <trkpt lat="46.73892" lon="5.78326">
        <ele>542.4</ele>
        <time>2020-02-28T09:47:11Z</time>
      </trkpt>
      <trkpt lat="46.73896" lon="5.78326">
        <ele>542.4</ele>
        <time>2020-02-28T09:47:12Z</time>
      </trkpt>
      <trkpt lat="46.73899" lon="5.78325">
        <ele>542.4</ele>
        <time>2020-02-28T09:47:13Z</time>
      </trkpt>
      <trkpt lat="46.73901" lon="5.78325">
        <ele>542.4</ele>
        <time>2020-02-28T09:47:14Z</time>
      </trkpt>
      <trkpt lat="46.73904" lon="5.78324">
        <ele>542.6</ele>
        <time>2020-02-28T09:47:15Z</time>
      </trkpt>
      <trkpt lat="46.73907" lon="5.78324">
        <ele>542.6</ele>
        <time>2020-02-28T09:47:16Z</time>
      </trkpt>
      <trkpt lat="46.7391" lon="5.78323">
        <ele>543</ele>
        <time>2020-02-28T09:47:17Z</time>
      </trkpt>
      <trkpt lat="46.73913" lon="5.78323">
        <ele>543</ele>
        <time>2020-02-28T09:47:18Z</time>
      </trkpt>
      <trkpt lat="46.73915" lon="5.78322">
        <ele>543</ele>
        <time>2020-02-28T09:47:19Z</time>
      </trkpt>
      <trkpt lat="46.73918" lon="5.78322">
        <ele>543.2</ele>
        <time>2020-02-28T09:47:20Z</time>
      </trkpt>
      <trkpt lat="46.73921" lon="5.78321">
        <ele>543.2</ele>
        <time>2020-02-28T09:47:21Z</time>
      </trkpt>
      <trkpt lat="46.73924" lon="5.78321">
        <ele>543.6</ele>
        <time>2020-02-28T09:47:22Z</time>
      </trkpt>
      <trkpt lat="46.73926" lon="5.78321">
        <ele>543.6</ele>
        <time>2020-02-28T09:47:23Z</time>
      </trkpt>
      <trkpt lat="46.73929" lon="5.7832">
        <ele>543.8</ele>
        <time>2020-02-28T09:47:24Z</time>
      </trkpt>
      <trkpt lat="46.73932" lon="5.78319">
        <ele>543.8</ele>
        <time>2020-02-28T09:47:25Z</time>
      </trkpt>
      <trkpt lat="46.73934" lon="5.78318">
        <ele>544.2</ele>
        <time>2020-02-28T09:47:26Z</time>
      </trkpt>
      <trkpt lat="46.73937" lon="5.78318">
        <ele>544.2</ele>
        <time>2020-02-28T09:47:27Z</time>
      </trkpt>
      <trkpt lat="46.73939" lon="5.78318">
        <ele>544.4</ele>
        <time>2020-02-28T09:47:28Z</time>
      </trkpt>
      <trkpt lat="46.73942" lon="5.78317">
        <ele>544.4</ele>
        <time>2020-02-28T09:47:29Z</time>
      </trkpt>
      <trkpt lat="46.73944" lon="5.78316">
        <ele>544.8</ele>
        <time>2020-02-28T09:47:30Z</time>
      </trkpt>
      <trkpt lat="46.73945" lon="5.78316">
        <ele>544.8</ele>
        <time>2020-02-28T09:47:31Z</time>
      </trkpt>
      <trkpt lat="46.73949" lon="5.78315">
        <ele>545.2</ele>
        <time>2020-02-28T09:47:32Z</time>
      </trkpt>
      <trkpt lat="46.7395" lon="5.78315">
        <ele>545.2</ele>
        <time>2020-02-28T09:47:33Z</time>
      </trkpt>
      <trkpt lat="46.73952" lon="5.78315">
        <ele>545.4</ele>
        <time>2020-02-28T09:47:34Z</time>
      </trkpt>
      <trkpt lat="46.73955" lon="5.78315">
        <ele>545.4</ele>
        <time>2020-02-28T09:47:35Z</time>
      </trkpt>
      <trkpt lat="46.73958" lon="5.78314">
        <ele>545.8</ele>
        <time>2020-02-28T09:47:36Z</time>
      </trkpt>
      <trkpt lat="46.73959" lon="5.78314">
        <ele>545.8</ele>
        <time>2020-02-28T09:47:37Z</time>
      </trkpt>
      <trkpt lat="46.73961" lon="5.78314">
        <ele>546</ele>
        <time>2020-02-28T09:47:38Z</time>
      </trkpt>
      <trkpt lat="46.73963" lon="5.78313">
        <ele>546</ele>
        <time>2020-02-28T09:47:39Z</time>
      </trkpt>
      <trkpt lat="46.73965" lon="5.78313">
        <ele>546.4</ele>
        <time>2020-02-28T09:47:40Z</time>
      </trkpt>
      <trkpt lat="46.73969" lon="5.78313">
        <ele>546.4</ele>
        <time>2020-02-28T09:47:41Z</time>
      </trkpt>
      <trkpt lat="46.7397" lon="5.78313">
        <ele>546.6</ele>
        <time>2020-02-28T09:47:42Z</time>
      </trkpt>
      <trkpt lat="46.73972" lon="5.78313">
        <ele>546.6</ele>
        <time>2020-02-28T09:47:43Z</time>
      </trkpt>
      <trkpt lat="46.73975" lon="5.78312">
        <ele>546.8</ele>
        <time>2020-02-28T09:47:44Z</time>
      </trkpt>
      <trkpt lat="46.73979" lon="5.78312">
        <ele>546.8</ele>
        <time>2020-02-28T09:47:45Z</time>
      </trkpt>
      <trkpt lat="46.73981" lon="5.78312">
        <ele>546.8</ele>
        <time>2020-02-28T09:47:46Z</time>
      </trkpt>
      <trkpt lat="46.73985" lon="5.78312">
        <ele>547.2</ele>
        <time>2020-02-28T09:47:47Z</time>
      </trkpt>
      <trkpt lat="46.73986" lon="5.78312">
        <ele>547.2</ele>
        <time>2020-02-28T09:47:48Z</time>
      </trkpt>
      <trkpt lat="46.73989" lon="5.78312">
        <ele>547.4</ele>
        <time>2020-02-28T09:47:49Z</time>
      </trkpt>
      <trkpt lat="46.73991" lon="5.78312">
        <ele>547.6</ele>
        <time>2020-02-28T09:47:50Z</time>
      </trkpt>
      <trkpt lat="46.73993" lon="5.78312">
        <ele>547.6</ele>
        <time>2020-02-28T09:47:51Z</time>
      </trkpt>
      <trkpt lat="46.73996" lon="5.78312">
        <ele>548</ele>
        <time>2020-02-28T09:47:52Z</time>
      </trkpt>
      <trkpt lat="46.73999" lon="5.78313">
        <ele>548</ele>
        <time>2020-02-28T09:47:53Z</time>
      </trkpt>
      <trkpt lat="46.74001" lon="5.78313">
        <ele>548.4</ele>
        <time>2020-02-28T09:47:54Z</time>
      </trkpt>
      <trkpt lat="46.74004" lon="5.78314">
        <ele>548.4</ele>
        <time>2020-02-28T09:47:55Z</time>
      </trkpt>
      <trkpt lat="46.74008" lon="5.78314">
        <ele>548.8</ele>
        <time>2020-02-28T09:47:56Z</time>
      </trkpt>
      <trkpt lat="46.7401" lon="5.78315">
        <ele>548.8</ele>
        <time>2020-02-28T09:47:57Z</time>
      </trkpt>
      <trkpt lat="46.74014" lon="5.78316">
        <ele>549.2</ele>
        <time>2020-02-28T09:47:58Z</time>
      </trkpt>
      <trkpt lat="46.74017" lon="5.78316">
        <ele>549.2</ele>
        <time>2020-02-28T09:47:59Z</time>
      </trkpt>
      <trkpt lat="46.7402" lon="5.78317">
        <ele>549.6</ele>
        <time>2020-02-28T09:48:00Z</time>
      </trkpt>
      <trkpt lat="46.74022" lon="5.78318">
        <ele>549.8</ele>
        <time>2020-02-28T09:48:01Z</time>
      </trkpt>
      <trkpt lat="46.74025" lon="5.78319">
        <ele>549.8</ele>
        <time>2020-02-28T09:48:02Z</time>
      </trkpt>
      <trkpt lat="46.74029" lon="5.78319">
        <ele>550</ele>
        <time>2020-02-28T09:48:03Z</time>
      </trkpt>
      <trkpt lat="46.74032" lon="5.7832">
        <ele>550</ele>
        <time>2020-02-28T09:48:04Z</time>
      </trkpt>
      <trkpt lat="46.74035" lon="5.78321">
        <ele>550.4</ele>
        <time>2020-02-28T09:48:05Z</time>
      </trkpt>
      <trkpt lat="46.74037" lon="5.78322">
        <ele>550.4</ele>
        <time>2020-02-28T09:48:06Z</time>
      </trkpt>
      <trkpt lat="46.7404" lon="5.78322">
        <ele>550.6</ele>
        <time>2020-02-28T09:48:07Z</time>
      </trkpt>
      <trkpt lat="46.74044" lon="5.78323">
        <ele>550.6</ele>
        <time>2020-02-28T09:48:08Z</time>
      </trkpt>
      <trkpt lat="46.74046" lon="5.78323">
        <ele>551</ele>
        <time>2020-02-28T09:48:09Z</time>
      </trkpt>
      <trkpt lat="46.74049" lon="5.78323">
        <ele>551</ele>
        <time>2020-02-28T09:48:10Z</time>
      </trkpt>
      <trkpt lat="46.74051" lon="5.78324">
        <ele>551.2</ele>
        <time>2020-02-28T09:48:11Z</time>
      </trkpt>
      <trkpt lat="46.74053" lon="5.78324">
        <ele>551.2</ele>
        <time>2020-02-28T09:48:12Z</time>
      </trkpt>
      <trkpt lat="46.74056" lon="5.78324">
        <ele>551.4</ele>
        <time>2020-02-28T09:48:13Z</time>
      </trkpt>
      <trkpt lat="46.7406" lon="5.78325">
        <ele>551.4</ele>
        <time>2020-02-28T09:48:14Z</time>
      </trkpt>
      <trkpt lat="46.74062" lon="5.78325">
        <ele>551.4</ele>
        <time>2020-02-28T09:48:15Z</time>
      </trkpt>
      <trkpt lat="46.74065" lon="5.78326">
        <ele>551.8</ele>
        <time>2020-02-28T09:48:16Z</time>
      </trkpt>
      <trkpt lat="46.74067" lon="5.78326">
        <ele>551.8</ele>
        <time>2020-02-28T09:48:17Z</time>
      </trkpt>
      <trkpt lat="46.7407" lon="5.78326">
        <ele>552</ele>
        <time>2020-02-28T09:48:18Z</time>
      </trkpt>
      <trkpt lat="46.74072" lon="5.78326">
        <ele>552</ele>
        <time>2020-02-28T09:48:19Z</time>
      </trkpt>
      <trkpt lat="46.74075" lon="5.78326">
        <ele>552.4</ele>
        <time>2020-02-28T09:48:20Z</time>
      </trkpt>
      <trkpt lat="46.74077" lon="5.78327">
        <ele>552.4</ele>
        <time>2020-02-28T09:48:21Z</time>
      </trkpt>
      <trkpt lat="46.7408" lon="5.78327">
        <ele>552.4</ele>
        <time>2020-02-28T09:48:22Z</time>
      </trkpt>
      <trkpt lat="46.74083" lon="5.78328">
        <ele>552.8</ele>
        <time>2020-02-28T09:48:23Z</time>
      </trkpt>
      <trkpt lat="46.74086" lon="5.78328">
        <ele>553</ele>
        <time>2020-02-28T09:48:24Z</time>
      </trkpt>
      <trkpt lat="46.74088" lon="5.78328">
        <ele>553</ele>
        <time>2020-02-28T09:48:25Z</time>
      </trkpt>
      <trkpt lat="46.74091" lon="5.78328">
        <ele>553.4</ele>
        <time>2020-02-28T09:48:26Z</time>
      </trkpt>
      <trkpt lat="46.74092" lon="5.78329">
        <ele>553.4</ele>
        <time>2020-02-28T09:48:27Z</time>
      </trkpt>
      <trkpt lat="46.74095" lon="5.78329">
        <ele>553.6</ele>
        <time>2020-02-28T09:48:28Z</time>
      </trkpt>
      <trkpt lat="46.74097" lon="5.78329">
        <ele>553.6</ele>
        <time>2020-02-28T09:48:29Z</time>
      </trkpt>
      <trkpt lat="46.74099" lon="5.7833">
        <ele>553.8</ele>
        <time>2020-02-28T09:48:30Z</time>
      </trkpt>
      <trkpt lat="46.74102" lon="5.78331">
        <ele>553.8</ele>
        <time>2020-02-28T09:48:31Z</time>
      </trkpt>
      <trkpt lat="46.74104" lon="5.78331">
        <ele>554</ele>
        <time>2020-02-28T09:48:32Z</time>
      </trkpt>
      <trkpt lat="46.74107" lon="5.78332">
        <ele>554</ele>
        <time>2020-02-28T09:48:33Z</time>
      </trkpt>
      <trkpt lat="46.7411" lon="5.78333">
        <ele>554.4</ele>
        <time>2020-02-28T09:48:34Z</time>
      </trkpt>
      <trkpt lat="46.74111" lon="5.78334">
        <ele>554.4</ele>
        <time>2020-02-28T09:48:35Z</time>
      </trkpt>
      <trkpt lat="46.74113" lon="5.78334">
        <ele>554.4</ele>
        <time>2020-02-28T09:48:36Z</time>
      </trkpt>
      <trkpt lat="46.74115" lon="5.78334">
        <ele>554.8</ele>
        <time>2020-02-28T09:48:37Z</time>
      </trkpt>
      <trkpt lat="46.74119" lon="5.78335">
        <ele>555</ele>
        <time>2020-02-28T09:48:38Z</time>
      </trkpt>
      <trkpt lat="46.7412" lon="5.78335">
        <ele>555.4</ele>
        <time>2020-02-28T09:48:39Z</time>
      </trkpt>
      <trkpt lat="46.74122" lon="5.78335">
        <ele>555.4</ele>
        <time>2020-02-28T09:48:40Z</time>
      </trkpt>
      <trkpt lat="46.74125" lon="5.78336">
        <ele>555.6</ele>
        <time>2020-02-28T09:48:41Z</time>
      </trkpt>
      <trkpt lat="46.74127" lon="5.78336">
        <ele>555.6</ele>
        <time>2020-02-28T09:48:42Z</time>
      </trkpt>
      <trkpt lat="46.7413" lon="5.78337">
        <ele>555.8</ele>
        <time>2020-02-28T09:48:43Z</time>
      </trkpt>
      <trkpt lat="46.74132" lon="5.78338">
        <ele>555.8</ele>
        <time>2020-02-28T09:48:44Z</time>
      </trkpt>
      <trkpt lat="46.74135" lon="5.78338">
        <ele>556.2</ele>
        <time>2020-02-28T09:48:45Z</time>
      </trkpt>
      <trkpt lat="46.74137" lon="5.78339">
        <ele>556.2</ele>
        <time>2020-02-28T09:48:46Z</time>
      </trkpt>
      <trkpt lat="46.7414" lon="5.7834">
        <ele>556.6</ele>
        <time>2020-02-28T09:48:47Z</time>
      </trkpt>
      <trkpt lat="46.74142" lon="5.7834">
        <ele>556.8</ele>
        <time>2020-02-28T09:48:48Z</time>
      </trkpt>
      <trkpt lat="46.74145" lon="5.78341">
        <ele>556.8</ele>
        <time>2020-02-28T09:48:49Z</time>
      </trkpt>
      <trkpt lat="46.74147" lon="5.78342">
        <ele>556.8</ele>
        <time>2020-02-28T09:48:50Z</time>
      </trkpt>
      <trkpt lat="46.74149" lon="5.78343">
        <ele>556.8</ele>
        <time>2020-02-28T09:48:51Z</time>
      </trkpt>
      <trkpt lat="46.74151" lon="5.78343">
        <ele>557</ele>
        <time>2020-02-28T09:48:52Z</time>
      </trkpt>
      <trkpt lat="46.74154" lon="5.78344">
        <ele>557</ele>
        <time>2020-02-28T09:48:53Z</time>
      </trkpt>
      <trkpt lat="46.74156" lon="5.78345">
        <ele>557.4</ele>
        <time>2020-02-28T09:48:54Z</time>
      </trkpt>
      <trkpt lat="46.74159" lon="5.78346">
        <ele>557.4</ele>
        <time>2020-02-28T09:48:55Z</time>
      </trkpt>
      <trkpt lat="46.74161" lon="5.78346">
        <ele>557.6</ele>
        <time>2020-02-28T09:48:56Z</time>
      </trkpt>
      <trkpt lat="46.74163" lon="5.78347">
        <ele>558</ele>
        <time>2020-02-28T09:48:57Z</time>
      </trkpt>
      <trkpt lat="46.74165" lon="5.78347">
        <ele>558</ele>
        <time>2020-02-28T09:48:58Z</time>
      </trkpt>
      <trkpt lat="46.74168" lon="5.78348">
        <ele>558.4</ele>
        <time>2020-02-28T09:48:59Z</time>
      </trkpt>
      <trkpt lat="46.7417" lon="5.78348">
        <ele>558.4</ele>
        <time>2020-02-28T09:49:00Z</time>
      </trkpt>
      <trkpt lat="46.74172" lon="5.78349">
        <ele>558.6</ele>
        <time>2020-02-28T09:49:01Z</time>
      </trkpt>
      <trkpt lat="46.74175" lon="5.7835">
        <ele>558.8</ele>
        <time>2020-02-28T09:49:02Z</time>
      </trkpt>
      <trkpt lat="46.74177" lon="5.78351">
        <ele>558.8</ele>
        <time>2020-02-28T09:49:03Z</time>
      </trkpt>
      <trkpt lat="46.7418" lon="5.78352">
        <ele>558.8</ele>
        <time>2020-02-28T09:49:04Z</time>
      </trkpt>
      <trkpt lat="46.74184" lon="5.78353">
        <ele>558.8</ele>
        <time>2020-02-28T09:49:05Z</time>
      </trkpt>
      <trkpt lat="46.74186" lon="5.78354">
        <ele>559.2</ele>
        <time>2020-02-28T09:49:06Z</time>
      </trkpt>
      <trkpt lat="46.74189" lon="5.78355">
        <ele>559.4</ele>
        <time>2020-02-28T09:49:07Z</time>
      </trkpt>
      <trkpt lat="46.74192" lon="5.78356">
        <ele>559.4</ele>
        <time>2020-02-28T09:49:08Z</time>
      </trkpt>
      <trkpt lat="46.74195" lon="5.78357">
        <ele>559.8</ele>
        <time>2020-02-28T09:49:09Z</time>
      </trkpt>
      <trkpt lat="46.74197" lon="5.78358">
        <ele>559.8</ele>
        <time>2020-02-28T09:49:10Z</time>
      </trkpt>
      <trkpt lat="46.742" lon="5.78358">
        <ele>559.8</ele>
        <time>2020-02-28T09:49:11Z</time>
      </trkpt>
      <trkpt lat="46.74202" lon="5.78359">
        <ele>560.2</ele>
        <time>2020-02-28T09:49:12Z</time>
      </trkpt>
      <trkpt lat="46.74206" lon="5.7836">
        <ele>560.2</ele>
        <time>2020-02-28T09:49:13Z</time>
      </trkpt>
      <trkpt lat="46.74208" lon="5.78361">
        <ele>560.4</ele>
        <time>2020-02-28T09:49:14Z</time>
      </trkpt>
      <trkpt lat="46.74211" lon="5.78362">
        <ele>560.4</ele>
        <time>2020-02-28T09:49:15Z</time>
      </trkpt>
      <trkpt lat="46.74213" lon="5.78362">
        <ele>560.6</ele>
        <time>2020-02-28T09:49:16Z</time>
      </trkpt>
      <trkpt lat="46.74216" lon="5.78363">
        <ele>561</ele>
        <time>2020-02-28T09:49:17Z</time>
      </trkpt>
      <trkpt lat="46.74218" lon="5.78364">
        <ele>561</ele>
        <time>2020-02-28T09:49:18Z</time>
      </trkpt>
      <trkpt lat="46.74221" lon="5.78365">
        <ele>561.2</ele>
        <time>2020-02-28T09:49:19Z</time>
      </trkpt>
      <trkpt lat="46.74224" lon="5.78365">
        <ele>561.2</ele>
        <time>2020-02-28T09:49:20Z</time>
      </trkpt>
      <trkpt lat="46.74227" lon="5.78366">
        <ele>561.6</ele>
        <time>2020-02-28T09:49:21Z</time>
      </trkpt>
      <trkpt lat="46.7423" lon="5.78367">
        <ele>561.6</ele>
        <time>2020-02-28T09:49:22Z</time>
      </trkpt>
      <trkpt lat="46.74232" lon="5.78368">
        <ele>561.8</ele>
        <time>2020-02-28T09:49:23Z</time>
      </trkpt>
      <trkpt lat="46.74235" lon="5.7837">
        <ele>561.8</ele>
        <time>2020-02-28T09:49:24Z</time>
      </trkpt>
      <trkpt lat="46.74237" lon="5.78371">
        <ele>562</ele>
        <time>2020-02-28T09:49:25Z</time>
      </trkpt>
      <trkpt lat="46.74239" lon="5.78372">
        <ele>562</ele>
        <time>2020-02-28T09:49:26Z</time>
      </trkpt>
      <trkpt lat="46.74243" lon="5.78373">
        <ele>562.4</ele>
        <time>2020-02-28T09:49:27Z</time>
      </trkpt>
      <trkpt lat="46.74244" lon="5.78374">
        <ele>562.4</ele>
        <time>2020-02-28T09:49:28Z</time>
      </trkpt>
      <trkpt lat="46.74246" lon="5.78375">
        <ele>562.4</ele>
        <time>2020-02-28T09:49:29Z</time>
      </trkpt>
      <trkpt lat="46.74249" lon="5.78376">
        <ele>562.6</ele>
        <time>2020-02-28T09:49:30Z</time>
      </trkpt>
      <trkpt lat="46.74252" lon="5.78377">
        <ele>562.6</ele>
        <time>2020-02-28T09:49:31Z</time>
      </trkpt>
      <trkpt lat="46.74253" lon="5.78377">
        <ele>563</ele>
        <time>2020-02-28T09:49:32Z</time>
      </trkpt>
      <trkpt lat="46.74255" lon="5.78378">
        <ele>563</ele>
        <time>2020-02-28T09:49:33Z</time>
      </trkpt>
      <trkpt lat="46.74258" lon="5.78379">
        <ele>563.2</ele>
        <time>2020-02-28T09:49:34Z</time>
      </trkpt>
      <trkpt lat="46.7426" lon="5.7838">
        <ele>563.2</ele>
        <time>2020-02-28T09:49:35Z</time>
      </trkpt>
      <trkpt lat="46.74263" lon="5.78381">
        <ele>563.6</ele>
        <time>2020-02-28T09:49:36Z</time>
      </trkpt>
      <trkpt lat="46.74264" lon="5.78382">
        <ele>563.6</ele>
        <time>2020-02-28T09:49:37Z</time>
      </trkpt>
      <trkpt lat="46.74266" lon="5.78383">
        <ele>564</ele>
        <time>2020-02-28T09:49:38Z</time>
      </trkpt>
      <trkpt lat="46.74269" lon="5.78384">
        <ele>564</ele>
        <time>2020-02-28T09:49:39Z</time>
      </trkpt>
      <trkpt lat="46.74271" lon="5.78385">
        <ele>564</ele>
        <time>2020-02-28T09:49:40Z</time>
      </trkpt>
      <trkpt lat="46.74273" lon="5.78386">
        <ele>564.2</ele>
        <time>2020-02-28T09:49:41Z</time>
      </trkpt>
      <trkpt lat="46.74277" lon="5.78387">
        <ele>564.2</ele>
        <time>2020-02-28T09:49:42Z</time>
      </trkpt>
      <trkpt lat="46.74278" lon="5.78388">
        <ele>564.6</ele>
        <time>2020-02-28T09:49:43Z</time>
      </trkpt>
      <trkpt lat="46.7428" lon="5.78389">
        <ele>564.6</ele>
        <time>2020-02-28T09:49:44Z</time>
      </trkpt>
      <trkpt lat="46.74283" lon="5.7839">
        <ele>564.8</ele>
        <time>2020-02-28T09:49:45Z</time>
      </trkpt>
      <trkpt lat="46.74285" lon="5.78391">
        <ele>564.8</ele>
        <time>2020-02-28T09:49:46Z</time>
      </trkpt>
      <trkpt lat="46.74287" lon="5.78392">
        <ele>565.2</ele>
        <time>2020-02-28T09:49:47Z</time>
      </trkpt>
      <trkpt lat="46.74289" lon="5.78393">
        <ele>565.2</ele>
        <time>2020-02-28T09:49:48Z</time>
      </trkpt>
      <trkpt lat="46.74291" lon="5.78394">
        <ele>565.6</ele>
        <time>2020-02-28T09:49:49Z</time>
      </trkpt>
      <trkpt lat="46.74293" lon="5.78395">
        <ele>565.6</ele>
        <time>2020-02-28T09:49:50Z</time>
      </trkpt>
      <trkpt lat="46.74296" lon="5.78396">
        <ele>566</ele>
        <time>2020-02-28T09:49:51Z</time>
      </trkpt>
      <trkpt lat="46.74298" lon="5.78397">
        <ele>566</ele>
        <time>2020-02-28T09:49:52Z</time>
      </trkpt>
      <trkpt lat="46.743" lon="5.78397">
        <ele>566.2</ele>
        <time>2020-02-28T09:49:53Z</time>
      </trkpt>
      <trkpt lat="46.74303" lon="5.78398">
        <ele>566.2</ele>
        <time>2020-02-28T09:49:54Z</time>
      </trkpt>
      <trkpt lat="46.74306" lon="5.78398">
        <ele>566.2</ele>
        <time>2020-02-28T09:49:55Z</time>
      </trkpt>
      <trkpt lat="46.74308" lon="5.78399">
        <ele>566.4</ele>
        <time>2020-02-28T09:49:56Z</time>
      </trkpt>
      <trkpt lat="46.74311" lon="5.78399">
        <ele>566.4</ele>
        <time>2020-02-28T09:49:57Z</time>
      </trkpt>
      <trkpt lat="46.74314" lon="5.784">
        <ele>566.4</ele>
        <time>2020-02-28T09:49:58Z</time>
      </trkpt>
      <trkpt lat="46.74316" lon="5.78401">
        <ele>566.8</ele>
        <time>2020-02-28T09:49:59Z</time>
      </trkpt>
      <trkpt lat="46.74319" lon="5.78402">
        <ele>566.8</ele>
        <time>2020-02-28T09:50:00Z</time>
      </trkpt>
      <trkpt lat="46.74319" lon="5.78403">
        <ele>567</ele>
        <time>2020-02-28T09:50:01Z</time>
      </trkpt>
      <trkpt lat="46.74322" lon="5.78404">
        <ele>567</ele>
        <time>2020-02-28T09:50:02Z</time>
      </trkpt>
      <trkpt lat="46.74323" lon="5.78404">
        <ele>567.4</ele>
        <time>2020-02-28T09:50:03Z</time>
      </trkpt>
      <trkpt lat="46.74326" lon="5.78404">
        <ele>567.4</ele>
        <time>2020-02-28T09:50:04Z</time>
      </trkpt>
      <trkpt lat="46.74328" lon="5.78404">
        <ele>567.6</ele>
        <time>2020-02-28T09:50:05Z</time>
      </trkpt>
      <trkpt lat="46.74332" lon="5.78405">
        <ele>568</ele>
        <time>2020-02-28T09:50:06Z</time>
      </trkpt>
      <trkpt lat="46.74333" lon="5.78405">
        <ele>568</ele>
        <time>2020-02-28T09:50:07Z</time>
      </trkpt>
      <trkpt lat="46.74335" lon="5.78407">
        <ele>568.2</ele>
        <time>2020-02-28T09:50:08Z</time>
      </trkpt>
      <trkpt lat="46.74337" lon="5.78408">
        <ele>568.2</ele>
        <time>2020-02-28T09:50:09Z</time>
      </trkpt>
      <trkpt lat="46.7434" lon="5.78408">
        <ele>568.6</ele>
        <time>2020-02-28T09:50:10Z</time>
      </trkpt>
      <trkpt lat="46.74342" lon="5.78409">
        <ele>568.6</ele>
        <time>2020-02-28T09:50:11Z</time>
      </trkpt>
      <trkpt lat="46.74344" lon="5.7841">
        <ele>568.8</ele>
        <time>2020-02-28T09:50:12Z</time>
      </trkpt>
      <trkpt lat="46.74347" lon="5.78411">
        <ele>568.8</ele>
        <time>2020-02-28T09:50:13Z</time>
      </trkpt>
      <trkpt lat="46.74348" lon="5.78412">
        <ele>569.2</ele>
        <time>2020-02-28T09:50:14Z</time>
      </trkpt>
      <trkpt lat="46.74351" lon="5.78412">
        <ele>569.2</ele>
        <time>2020-02-28T09:50:15Z</time>
      </trkpt>
      <trkpt lat="46.74354" lon="5.78413">
        <ele>569.4</ele>
        <time>2020-02-28T09:50:16Z</time>
      </trkpt>
      <trkpt lat="46.74356" lon="5.78414">
        <ele>569.4</ele>
        <time>2020-02-28T09:50:17Z</time>
      </trkpt>
      <trkpt lat="46.74358" lon="5.78415">
        <ele>569.8</ele>
        <time>2020-02-28T09:50:18Z</time>
      </trkpt>
      <trkpt lat="46.74361" lon="5.78416">
        <ele>569.8</ele>
        <time>2020-02-28T09:50:19Z</time>
      </trkpt>
      <trkpt lat="46.74363" lon="5.78417">
        <ele>570</ele>
        <time>2020-02-28T09:50:20Z</time>
      </trkpt>
      <trkpt lat="46.74366" lon="5.78418">
        <ele>570</ele>
        <time>2020-02-28T09:50:21Z</time>
      </trkpt>
      <trkpt lat="46.74369" lon="5.78419">
        <ele>570</ele>
        <time>2020-02-28T09:50:22Z</time>
      </trkpt>
      <trkpt lat="46.74372" lon="5.7842">
        <ele>570.4</ele>
        <time>2020-02-28T09:50:23Z</time>
      </trkpt>
      <trkpt lat="46.74374" lon="5.78421">
        <ele>570.4</ele>
        <time>2020-02-28T09:50:24Z</time>
      </trkpt>
      <trkpt lat="46.74376" lon="5.78422">
        <ele>570.6</ele>
        <time>2020-02-28T09:50:25Z</time>
      </trkpt>
      <trkpt lat="46.74378" lon="5.78422">
        <ele>570.6</ele>
        <time>2020-02-28T09:50:26Z</time>
      </trkpt>
      <trkpt lat="46.74381" lon="5.78423">
        <ele>571</ele>
        <time>2020-02-28T09:50:27Z</time>
      </trkpt>
      <trkpt lat="46.74383" lon="5.78424">
        <ele>571</ele>
        <time>2020-02-28T09:50:28Z</time>
      </trkpt>
      <trkpt lat="46.74385" lon="5.78425">
        <ele>571.4</ele>
        <time>2020-02-28T09:50:29Z</time>
      </trkpt>
      <trkpt lat="46.74388" lon="5.78426">
        <ele>571.4</ele>
        <time>2020-02-28T09:50:30Z</time>
      </trkpt>
      <trkpt lat="46.74391" lon="5.78427">
        <ele>571.6</ele>
        <time>2020-02-28T09:50:31Z</time>
      </trkpt>
      <trkpt lat="46.74393" lon="5.78428">
        <ele>571.8</ele>
        <time>2020-02-28T09:50:32Z</time>
      </trkpt>
      <trkpt lat="46.74396" lon="5.78429">
        <ele>571.8</ele>
        <time>2020-02-28T09:50:33Z</time>
      </trkpt>
      <trkpt lat="46.74398" lon="5.7843">
        <ele>572.2</ele>
        <time>2020-02-28T09:50:34Z</time>
      </trkpt>
      <trkpt lat="46.744" lon="5.7843">
        <ele>572.2</ele>
        <time>2020-02-28T09:50:35Z</time>
      </trkpt>
      <trkpt lat="46.74403" lon="5.78431">
        <ele>572.4</ele>
        <time>2020-02-28T09:50:36Z</time>
      </trkpt>
      <trkpt lat="46.74405" lon="5.78431">
        <ele>572.4</ele>
        <time>2020-02-28T09:50:37Z</time>
      </trkpt>
      <trkpt lat="46.74407" lon="5.78432">
        <ele>572.6</ele>
        <time>2020-02-28T09:50:38Z</time>
      </trkpt>
      <trkpt lat="46.74409" lon="5.78433">
        <ele>572.6</ele>
        <time>2020-02-28T09:50:39Z</time>
      </trkpt>
      <trkpt lat="46.74412" lon="5.78434">
        <ele>573</ele>
        <time>2020-02-28T09:50:40Z</time>
      </trkpt>
      <trkpt lat="46.74415" lon="5.78435">
        <ele>573</ele>
        <time>2020-02-28T09:50:41Z</time>
      </trkpt>
      <trkpt lat="46.74418" lon="5.78436">
        <ele>573</ele>
        <time>2020-02-28T09:50:42Z</time>
      </trkpt>
      <trkpt lat="46.74421" lon="5.78437">
        <ele>573.2</ele>
        <time>2020-02-28T09:50:43Z</time>
      </trkpt>
      <trkpt lat="46.74424" lon="5.78438">
        <ele>573.2</ele>
        <time>2020-02-28T09:50:44Z</time>
      </trkpt>
      <trkpt lat="46.74426" lon="5.7844">
        <ele>573.2</ele>
        <time>2020-02-28T09:50:45Z</time>
      </trkpt>
      <trkpt lat="46.74429" lon="5.7844">
        <ele>573.4</ele>
        <time>2020-02-28T09:50:46Z</time>
      </trkpt>
      <trkpt lat="46.74433" lon="5.78441">
        <ele>573.4</ele>
        <time>2020-02-28T09:50:47Z</time>
      </trkpt>
      <trkpt lat="46.74437" lon="5.78442">
        <ele>573.4</ele>
        <time>2020-02-28T09:50:48Z</time>
      </trkpt>
      <trkpt lat="46.74441" lon="5.78443">
        <ele>573.6</ele>
        <time>2020-02-28T09:50:49Z</time>
      </trkpt>
      <trkpt lat="46.74443" lon="5.78443">
        <ele>573.6</ele>
        <time>2020-02-28T09:50:50Z</time>
      </trkpt>
      <trkpt lat="46.74445" lon="5.78444">
        <ele>573.6</ele>
        <time>2020-02-28T09:50:51Z</time>
      </trkpt>
      <trkpt lat="46.74448" lon="5.78445">
        <ele>574</ele>
        <time>2020-02-28T09:50:52Z</time>
      </trkpt>
      <trkpt lat="46.74452" lon="5.78447">
        <ele>574</ele>
        <time>2020-02-28T09:50:53Z</time>
      </trkpt>
      <trkpt lat="46.74454" lon="5.78448">
        <ele>574.2</ele>
        <time>2020-02-28T09:50:54Z</time>
      </trkpt>
      <trkpt lat="46.74456" lon="5.78449">
        <ele>574.2</ele>
        <time>2020-02-28T09:50:55Z</time>
      </trkpt>
      <trkpt lat="46.74458" lon="5.7845">
        <ele>574.4</ele>
        <time>2020-02-28T09:50:56Z</time>
      </trkpt>
      <trkpt lat="46.74461" lon="5.78452">
        <ele>574.4</ele>
        <time>2020-02-28T09:50:57Z</time>
      </trkpt>
      <trkpt lat="46.74464" lon="5.78454">
        <ele>574.4</ele>
        <time>2020-02-28T09:50:58Z</time>
      </trkpt>
      <trkpt lat="46.74466" lon="5.78456">
        <ele>574.8</ele>
        <time>2020-02-28T09:50:59Z</time>
      </trkpt>
      <trkpt lat="46.74468" lon="5.78457">
        <ele>574.8</ele>
        <time>2020-02-28T09:51:00Z</time>
      </trkpt>
      <trkpt lat="46.7447" lon="5.7846">
        <ele>575</ele>
        <time>2020-02-28T09:51:01Z</time>
      </trkpt>
      <trkpt lat="46.74471" lon="5.78461">
        <ele>575</ele>
        <time>2020-02-28T09:51:02Z</time>
      </trkpt>
      <trkpt lat="46.74473" lon="5.78462">
        <ele>575.2</ele>
        <time>2020-02-28T09:51:03Z</time>
      </trkpt>
      <trkpt lat="46.74475" lon="5.78463">
        <ele>575.2</ele>
        <time>2020-02-28T09:51:04Z</time>
      </trkpt>
      <trkpt lat="46.74477" lon="5.78465">
        <ele>575.4</ele>
        <time>2020-02-28T09:51:05Z</time>
      </trkpt>
      <trkpt lat="46.74478" lon="5.78466">
        <ele>575.4</ele>
        <time>2020-02-28T09:51:06Z</time>
      </trkpt>
      <trkpt lat="46.7448" lon="5.78467">
        <ele>575.4</ele>
        <time>2020-02-28T09:51:07Z</time>
      </trkpt>
      <trkpt lat="46.74483" lon="5.78469">
        <ele>575.8</ele>
        <time>2020-02-28T09:51:08Z</time>
      </trkpt>
      <trkpt lat="46.74485" lon="5.7847">
        <ele>575.8</ele>
        <time>2020-02-28T09:51:09Z</time>
      </trkpt>
      <trkpt lat="46.74488" lon="5.78471">
        <ele>576</ele>
        <time>2020-02-28T09:51:10Z</time>
      </trkpt>
      <trkpt lat="46.7449" lon="5.78473">
        <ele>576</ele>
        <time>2020-02-28T09:51:11Z</time>
      </trkpt>
      <trkpt lat="46.74492" lon="5.78474">
        <ele>576.2</ele>
        <time>2020-02-28T09:51:12Z</time>
      </trkpt>
      <trkpt lat="46.74494" lon="5.78475">
        <ele>576.6</ele>
        <time>2020-02-28T09:51:13Z</time>
      </trkpt>
      <trkpt lat="46.74495" lon="5.78477">
        <ele>576.6</ele>
        <time>2020-02-28T09:51:14Z</time>
      </trkpt>
      <trkpt lat="46.74498" lon="5.78479">
        <ele>576.8</ele>
        <time>2020-02-28T09:51:15Z</time>
      </trkpt>
      <trkpt lat="46.745" lon="5.78481">
        <ele>576.8</ele>
        <time>2020-02-28T09:51:16Z</time>
      </trkpt>
      <trkpt lat="46.74501" lon="5.78482">
        <ele>577</ele>
        <time>2020-02-28T09:51:17Z</time>
      </trkpt>
      <trkpt lat="46.74503" lon="5.78483">
        <ele>577</ele>
        <time>2020-02-28T09:51:18Z</time>
      </trkpt>
      <trkpt lat="46.74507" lon="5.78486">
        <ele>577</ele>
        <time>2020-02-28T09:51:19Z</time>
      </trkpt>
      <trkpt lat="46.7451" lon="5.78489">
        <ele>577.4</ele>
        <time>2020-02-28T09:51:20Z</time>
      </trkpt>
      <trkpt lat="46.74514" lon="5.78492">
        <ele>577.4</ele>
        <time>2020-02-28T09:51:21Z</time>
      </trkpt>
      <trkpt lat="46.74515" lon="5.78493">
        <ele>577.8</ele>
        <time>2020-02-28T09:51:22Z</time>
      </trkpt>
      <trkpt lat="46.74517" lon="5.78495">
        <ele>577.8</ele>
        <time>2020-02-28T09:51:23Z</time>
      </trkpt>
      <trkpt lat="46.7452" lon="5.78496">
        <ele>578.2</ele>
        <time>2020-02-28T09:51:24Z</time>
      </trkpt>
      <trkpt lat="46.74522" lon="5.78498">
        <ele>578.4</ele>
        <time>2020-02-28T09:51:25Z</time>
      </trkpt>
      <trkpt lat="46.74524" lon="5.78499">
        <ele>578.4</ele>
        <time>2020-02-28T09:51:26Z</time>
      </trkpt>
      <trkpt lat="46.74528" lon="5.78502">
        <ele>578.4</ele>
        <time>2020-02-28T09:51:27Z</time>
      </trkpt>
      <trkpt lat="46.74529" lon="5.78503">
        <ele>578.8</ele>
        <time>2020-02-28T09:51:28Z</time>
      </trkpt>
      <trkpt lat="46.74534" lon="5.78506">
        <ele>579</ele>
        <time>2020-02-28T09:51:29Z</time>
      </trkpt>
      <trkpt lat="46.74535" lon="5.78507">
        <ele>579</ele>
        <time>2020-02-28T09:51:30Z</time>
      </trkpt>
      <trkpt lat="46.74538" lon="5.78508">
        <ele>579.2</ele>
        <time>2020-02-28T09:51:31Z</time>
      </trkpt>
      <trkpt lat="46.74541" lon="5.7851">
        <ele>579.2</ele>
        <time>2020-02-28T09:51:32Z</time>
      </trkpt>
      <trkpt lat="46.74544" lon="5.78513">
        <ele>579.4</ele>
        <time>2020-02-28T09:51:33Z</time>
      </trkpt>
      <trkpt lat="46.74547" lon="5.78514">
        <ele>579.6</ele>
        <time>2020-02-28T09:51:34Z</time>
      </trkpt>
      <trkpt lat="46.7455" lon="5.78516">
        <ele>579.6</ele>
        <time>2020-02-28T09:51:35Z</time>
      </trkpt>
      <trkpt lat="46.74552" lon="5.78517">
        <ele>580</ele>
        <time>2020-02-28T09:51:36Z</time>
      </trkpt>
      <trkpt lat="46.74555" lon="5.78519">
        <ele>580.2</ele>
        <time>2020-02-28T09:51:37Z</time>
      </trkpt>
      <trkpt lat="46.74557" lon="5.7852">
        <ele>580.2</ele>
        <time>2020-02-28T09:51:38Z</time>
      </trkpt>
      <trkpt lat="46.7456" lon="5.78521">
        <ele>580.4</ele>
        <time>2020-02-28T09:51:39Z</time>
      </trkpt>
      <trkpt lat="46.74562" lon="5.78521">
        <ele>580.4</ele>
        <time>2020-02-28T09:51:40Z</time>
      </trkpt>
      <trkpt lat="46.74565" lon="5.78522">
        <ele>580.8</ele>
        <time>2020-02-28T09:51:41Z</time>
      </trkpt>
      <trkpt lat="46.74568" lon="5.78524">
        <ele>580.8</ele>
        <time>2020-02-28T09:51:42Z</time>
      </trkpt>
      <trkpt lat="46.7457" lon="5.78524">
        <ele>581</ele>
        <time>2020-02-28T09:51:43Z</time>
      </trkpt>
      <trkpt lat="46.74572" lon="5.78525">
        <ele>581</ele>
        <time>2020-02-28T09:51:44Z</time>
      </trkpt>
      <trkpt lat="46.74575" lon="5.78526">
        <ele>581.4</ele>
        <time>2020-02-28T09:51:45Z</time>
      </trkpt>
      <trkpt lat="46.74577" lon="5.78526">
        <ele>581.4</ele>
        <time>2020-02-28T09:51:46Z</time>
      </trkpt>
      <trkpt lat="46.7458" lon="5.78527">
        <ele>581.8</ele>
        <time>2020-02-28T09:51:47Z</time>
      </trkpt>
      <trkpt lat="46.74582" lon="5.78529">
        <ele>582</ele>
        <time>2020-02-28T09:51:48Z</time>
      </trkpt>
      <trkpt lat="46.74585" lon="5.7853">
        <ele>582</ele>
        <time>2020-02-28T09:51:49Z</time>
      </trkpt>
      <trkpt lat="46.74588" lon="5.78531">
        <ele>582.2</ele>
        <time>2020-02-28T09:51:50Z</time>
      </trkpt>
      <trkpt lat="46.74593" lon="5.78533">
        <ele>582.2</ele>
        <time>2020-02-28T09:51:51Z</time>
      </trkpt>
      <trkpt lat="46.74595" lon="5.78533">
        <ele>582.6</ele>
        <time>2020-02-28T09:51:52Z</time>
      </trkpt>
      <trkpt lat="46.74598" lon="5.78535">
        <ele>582.6</ele>
        <time>2020-02-28T09:51:53Z</time>
      </trkpt>
      <trkpt lat="46.74601" lon="5.78535">
        <ele>583</ele>
        <time>2020-02-28T09:51:54Z</time>
      </trkpt>
      <trkpt lat="46.74604" lon="5.78536">
        <ele>583</ele>
        <time>2020-02-28T09:51:55Z</time>
      </trkpt>
      <trkpt lat="46.74606" lon="5.78537">
        <ele>583.2</ele>
        <time>2020-02-28T09:51:56Z</time>
      </trkpt>
      <trkpt lat="46.74609" lon="5.78539">
        <ele>583.2</ele>
        <time>2020-02-28T09:51:57Z</time>
      </trkpt>
      <trkpt lat="46.74612" lon="5.7854">
        <ele>583.4</ele>
        <time>2020-02-28T09:51:58Z</time>
      </trkpt>
      <trkpt lat="46.74616" lon="5.78542">
        <ele>583.4</ele>
        <time>2020-02-28T09:51:59Z</time>
      </trkpt>
      <trkpt lat="46.74619" lon="5.78543">
        <ele>583.8</ele>
        <time>2020-02-28T09:52:00Z</time>
      </trkpt>
      <trkpt lat="46.74622" lon="5.78544">
        <ele>583.8</ele>
        <time>2020-02-28T09:52:01Z</time>
      </trkpt>
      <trkpt lat="46.74625" lon="5.78546">
        <ele>584.2</ele>
        <time>2020-02-28T09:52:02Z</time>
      </trkpt>
      <trkpt lat="46.74629" lon="5.78547">
        <ele>584.2</ele>
        <time>2020-02-28T09:52:03Z</time>
      </trkpt>
      <trkpt lat="46.74631" lon="5.78548">
        <ele>584.4</ele>
        <time>2020-02-28T09:52:04Z</time>
      </trkpt>
      <trkpt lat="46.74634" lon="5.78549">
        <ele>584.4</ele>
        <time>2020-02-28T09:52:05Z</time>
      </trkpt>
      <trkpt lat="46.74637" lon="5.7855">
        <ele>584.8</ele>
        <time>2020-02-28T09:52:06Z</time>
      </trkpt>
      <trkpt lat="46.7464" lon="5.7855">
        <ele>584.8</ele>
        <time>2020-02-28T09:52:07Z</time>
      </trkpt>
      <trkpt lat="46.74642" lon="5.78551">
        <ele>585</ele>
        <time>2020-02-28T09:52:08Z</time>
      </trkpt>
      <trkpt lat="46.74645" lon="5.78552">
        <ele>585.4</ele>
        <time>2020-02-28T09:52:09Z</time>
      </trkpt>
      <trkpt lat="46.74648" lon="5.78553">
        <ele>585.4</ele>
        <time>2020-02-28T09:52:10Z</time>
      </trkpt>
      <trkpt lat="46.74651" lon="5.78554">
        <ele>585.4</ele>
        <time>2020-02-28T09:52:11Z</time>
      </trkpt>
      <trkpt lat="46.74654" lon="5.78555">
        <ele>586</ele>
        <time>2020-02-28T09:52:12Z</time>
      </trkpt>
      <trkpt lat="46.74657" lon="5.78555">
        <ele>586</ele>
        <time>2020-02-28T09:52:13Z</time>
      </trkpt>
      <trkpt lat="46.7466" lon="5.78556">
        <ele>586</ele>
        <time>2020-02-28T09:52:14Z</time>
      </trkpt>
      <trkpt lat="46.74663" lon="5.78557">
        <ele>586.2</ele>
        <time>2020-02-28T09:52:15Z</time>
      </trkpt>
      <trkpt lat="46.74665" lon="5.78558">
        <ele>586.2</ele>
        <time>2020-02-28T09:52:16Z</time>
      </trkpt>
      <trkpt lat="46.74668" lon="5.78558">
        <ele>586.2</ele>
        <time>2020-02-28T09:52:17Z</time>
      </trkpt>
      <trkpt lat="46.74671" lon="5.78559">
        <ele>586.6</ele>
        <time>2020-02-28T09:52:18Z</time>
      </trkpt>
      <trkpt lat="46.74673" lon="5.7856">
        <ele>586.6</ele>
        <time>2020-02-28T09:52:19Z</time>
      </trkpt>
      <trkpt lat="46.74675" lon="5.78562">
        <ele>586.8</ele>
        <time>2020-02-28T09:52:20Z</time>
      </trkpt>
      <trkpt lat="46.74679" lon="5.78563">
        <ele>586.8</ele>
        <time>2020-02-28T09:52:21Z</time>
      </trkpt>
      <trkpt lat="46.7468" lon="5.78564">
        <ele>587.2</ele>
        <time>2020-02-28T09:52:22Z</time>
      </trkpt>
      <trkpt lat="46.74682" lon="5.78564">
        <ele>587.2</ele>
        <time>2020-02-28T09:52:23Z</time>
      </trkpt>
      <trkpt lat="46.74684" lon="5.78565">
        <ele>587.2</ele>
        <time>2020-02-28T09:52:24Z</time>
      </trkpt>
      <trkpt lat="46.74687" lon="5.78567">
        <ele>587.6</ele>
        <time>2020-02-28T09:52:25Z</time>
      </trkpt>
      <trkpt lat="46.74689" lon="5.78568">
        <ele>587.6</ele>
        <time>2020-02-28T09:52:26Z</time>
      </trkpt>
      <trkpt lat="46.74691" lon="5.7857">
        <ele>587.6</ele>
        <time>2020-02-28T09:52:27Z</time>
      </trkpt>
      <trkpt lat="46.74694" lon="5.78571">
        <ele>587.8</ele>
        <time>2020-02-28T09:52:28Z</time>
      </trkpt>
      <trkpt lat="46.74696" lon="5.78572">
        <ele>587.8</ele>
        <time>2020-02-28T09:52:29Z</time>
      </trkpt>
      <trkpt lat="46.74698" lon="5.78574">
        <ele>587.8</ele>
        <time>2020-02-28T09:52:30Z</time>
      </trkpt>
      <trkpt lat="46.74701" lon="5.78575">
        <ele>588.2</ele>
        <time>2020-02-28T09:52:31Z</time>
      </trkpt>
      <trkpt lat="46.74703" lon="5.78576">
        <ele>588.2</ele>
        <time>2020-02-28T09:52:32Z</time>
      </trkpt>
      <trkpt lat="46.74706" lon="5.78578">
        <ele>588.4</ele>
        <time>2020-02-28T09:52:33Z</time>
      </trkpt>
      <trkpt lat="46.74708" lon="5.7858">
        <ele>588.4</ele>
        <time>2020-02-28T09:52:34Z</time>
      </trkpt>
      <trkpt lat="46.7471" lon="5.78582">
        <ele>588.6</ele>
        <time>2020-02-28T09:52:35Z</time>
      </trkpt>
      <trkpt lat="46.74712" lon="5.78583">
        <ele>588.6</ele>
        <time>2020-02-28T09:52:36Z</time>
      </trkpt>
      <trkpt lat="46.74715" lon="5.78585">
        <ele>589</ele>
        <time>2020-02-28T09:52:37Z</time>
      </trkpt>
      <trkpt lat="46.74719" lon="5.78588">
        <ele>589</ele>
        <time>2020-02-28T09:52:38Z</time>
      </trkpt>
      <trkpt lat="46.7472" lon="5.78589">
        <ele>589.2</ele>
        <time>2020-02-28T09:52:39Z</time>
      </trkpt>
      <trkpt lat="46.74723" lon="5.7859">
        <ele>589.2</ele>
        <time>2020-02-28T09:52:40Z</time>
      </trkpt>
      <trkpt lat="46.74725" lon="5.78592">
        <ele>589.4</ele>
        <time>2020-02-28T09:52:41Z</time>
      </trkpt>
      <trkpt lat="46.74728" lon="5.78594">
        <ele>589.4</ele>
        <time>2020-02-28T09:52:42Z</time>
      </trkpt>
      <trkpt lat="46.7473" lon="5.78596">
        <ele>589.6</ele>
        <time>2020-02-28T09:52:43Z</time>
      </trkpt>
      <trkpt lat="46.74733" lon="5.78597">
        <ele>589.6</ele>
        <time>2020-02-28T09:52:44Z</time>
      </trkpt>
      <trkpt lat="46.74735" lon="5.78598">
        <ele>589.6</ele>
        <time>2020-02-28T09:52:45Z</time>
      </trkpt>
      <trkpt lat="46.74737" lon="5.78599">
        <ele>590</ele>
        <time>2020-02-28T09:52:46Z</time>
      </trkpt>
      <trkpt lat="46.7474" lon="5.78601">
        <ele>590</ele>
        <time>2020-02-28T09:52:47Z</time>
      </trkpt>
      <trkpt lat="46.74742" lon="5.78602">
        <ele>590.4</ele>
        <time>2020-02-28T09:52:48Z</time>
      </trkpt>
      <trkpt lat="46.74744" lon="5.78604">
        <ele>590.6</ele>
        <time>2020-02-28T09:52:49Z</time>
      </trkpt>
      <trkpt lat="46.74747" lon="5.78605">
        <ele>590.6</ele>
        <time>2020-02-28T09:52:50Z</time>
      </trkpt>
      <trkpt lat="46.74749" lon="5.78606">
        <ele>591</ele>
        <time>2020-02-28T09:52:51Z</time>
      </trkpt>
      <trkpt lat="46.74751" lon="5.78607">
        <ele>591</ele>
        <time>2020-02-28T09:52:52Z</time>
      </trkpt>
      <trkpt lat="46.74753" lon="5.78609">
        <ele>591.4</ele>
        <time>2020-02-28T09:52:53Z</time>
      </trkpt>
      <trkpt lat="46.74755" lon="5.7861">
        <ele>591.4</ele>
        <time>2020-02-28T09:52:54Z</time>
      </trkpt>
      <trkpt lat="46.74757" lon="5.78612">
        <ele>591.6</ele>
        <time>2020-02-28T09:52:55Z</time>
      </trkpt>
      <trkpt lat="46.7476" lon="5.78614">
        <ele>591.6</ele>
        <time>2020-02-28T09:52:56Z</time>
      </trkpt>
      <trkpt lat="46.74761" lon="5.78615">
        <ele>591.8</ele>
        <time>2020-02-28T09:52:57Z</time>
      </trkpt>
      <trkpt lat="46.74763" lon="5.78616">
        <ele>591.8</ele>
        <time>2020-02-28T09:52:58Z</time>
      </trkpt>
      <trkpt lat="46.74765" lon="5.78617">
        <ele>592.2</ele>
        <time>2020-02-28T09:52:59Z</time>
      </trkpt>
      <trkpt lat="46.74767" lon="5.78618">
        <ele>592.2</ele>
        <time>2020-02-28T09:53:00Z</time>
      </trkpt>
      <trkpt lat="46.74769" lon="5.78619">
        <ele>592.4</ele>
        <time>2020-02-28T09:53:01Z</time>
      </trkpt>
      <trkpt lat="46.74771" lon="5.7862">
        <ele>592.4</ele>
        <time>2020-02-28T09:53:02Z</time>
      </trkpt>
      <trkpt lat="46.74773" lon="5.7862">
        <ele>592.8</ele>
        <time>2020-02-28T09:53:03Z</time>
      </trkpt>
      <trkpt lat="46.74775" lon="5.78621">
        <ele>592.8</ele>
        <time>2020-02-28T09:53:04Z</time>
      </trkpt>
      <trkpt lat="46.74777" lon="5.78622">
        <ele>593</ele>
        <time>2020-02-28T09:53:05Z</time>
      </trkpt>
      <trkpt lat="46.74779" lon="5.78624">
        <ele>593</ele>
        <time>2020-02-28T09:53:06Z</time>
      </trkpt>
      <trkpt lat="46.74782" lon="5.78625">
        <ele>593</ele>
        <time>2020-02-28T09:53:07Z</time>
      </trkpt>
      <trkpt lat="46.74783" lon="5.78626">
        <ele>593.2</ele>
        <time>2020-02-28T09:53:08Z</time>
      </trkpt>
      <trkpt lat="46.74785" lon="5.78627">
        <ele>593.2</ele>
        <time>2020-02-28T09:53:09Z</time>
      </trkpt>
      <trkpt lat="46.74787" lon="5.78628">
        <ele>593.4</ele>
        <time>2020-02-28T09:53:10Z</time>
      </trkpt>
      <trkpt lat="46.74788" lon="5.78629">
        <ele>593.4</ele>
        <time>2020-02-28T09:53:11Z</time>
      </trkpt>
      <trkpt lat="46.7479" lon="5.78629">
        <ele>593.8</ele>
        <time>2020-02-28T09:53:12Z</time>
      </trkpt>
      <trkpt lat="46.74791" lon="5.7863">
        <ele>593.8</ele>
        <time>2020-02-28T09:53:13Z</time>
      </trkpt>
      <trkpt lat="46.74793" lon="5.78631">
        <ele>594</ele>
        <time>2020-02-28T09:53:14Z</time>
      </trkpt>
      <trkpt lat="46.74795" lon="5.78631">
        <ele>594</ele>
        <time>2020-02-28T09:53:15Z</time>
      </trkpt>
      <trkpt lat="46.74798" lon="5.78633">
        <ele>594.2</ele>
        <time>2020-02-28T09:53:16Z</time>
      </trkpt>
      <trkpt lat="46.74802" lon="5.78634">
        <ele>594.4</ele>
        <time>2020-02-28T09:53:17Z</time>
      </trkpt>
      <trkpt lat="46.74803" lon="5.78634">
        <ele>594.4</ele>
        <time>2020-02-28T09:53:18Z</time>
      </trkpt>
      <trkpt lat="46.74807" lon="5.78635">
        <ele>594.8</ele>
        <time>2020-02-28T09:53:19Z</time>
      </trkpt>
      <trkpt lat="46.7481" lon="5.78635">
        <ele>594.8</ele>
        <time>2020-02-28T09:53:20Z</time>
      </trkpt>
      <trkpt lat="46.74813" lon="5.78635">
        <ele>595.2</ele>
        <time>2020-02-28T09:53:21Z</time>
      </trkpt>
      <trkpt lat="46.74815" lon="5.78636">
        <ele>595.2</ele>
        <time>2020-02-28T09:53:22Z</time>
      </trkpt>
      <trkpt lat="46.74818" lon="5.78636">
        <ele>595.4</ele>
        <time>2020-02-28T09:53:23Z</time>
      </trkpt>
      <trkpt lat="46.7482" lon="5.78636">
        <ele>595.4</ele>
        <time>2020-02-28T09:53:24Z</time>
      </trkpt>
      <trkpt lat="46.74823" lon="5.78636">
        <ele>595.6</ele>
        <time>2020-02-28T09:53:25Z</time>
      </trkpt>
      <trkpt lat="46.74826" lon="5.78635">
        <ele>595.6</ele>
        <time>2020-02-28T09:53:26Z</time>
      </trkpt>
      <trkpt lat="46.74829" lon="5.78635">
        <ele>596</ele>
        <time>2020-02-28T09:53:27Z</time>
      </trkpt>
      <trkpt lat="46.74832" lon="5.78634">
        <ele>596</ele>
        <time>2020-02-28T09:53:28Z</time>
      </trkpt>
      <trkpt lat="46.74835" lon="5.78634">
        <ele>596.2</ele>
        <time>2020-02-28T09:53:29Z</time>
      </trkpt>
      <trkpt lat="46.74838" lon="5.78633">
        <ele>596.2</ele>
        <time>2020-02-28T09:53:30Z</time>
      </trkpt>
      <trkpt lat="46.74841" lon="5.78632">
        <ele>596.6</ele>
        <time>2020-02-28T09:53:31Z</time>
      </trkpt>
      <trkpt lat="46.74844" lon="5.78631">
        <ele>596.6</ele>
        <time>2020-02-28T09:53:32Z</time>
      </trkpt>
      <trkpt lat="46.74847" lon="5.78631">
        <ele>596.8</ele>
        <time>2020-02-28T09:53:33Z</time>
      </trkpt>
      <trkpt lat="46.74851" lon="5.7863">
        <ele>596.8</ele>
        <time>2020-02-28T09:53:34Z</time>
      </trkpt>
      <trkpt lat="46.74854" lon="5.78628">
        <ele>597.2</ele>
        <time>2020-02-28T09:53:35Z</time>
      </trkpt>
      <trkpt lat="46.74857" lon="5.78626">
        <ele>597.4</ele>
        <time>2020-02-28T09:53:36Z</time>
      </trkpt>
      <trkpt lat="46.74859" lon="5.78624">
        <ele>597.4</ele>
        <time>2020-02-28T09:53:37Z</time>
      </trkpt>
      <trkpt lat="46.74861" lon="5.78623">
        <ele>597.4</ele>
        <time>2020-02-28T09:53:38Z</time>
      </trkpt>
      <trkpt lat="46.74864" lon="5.78621">
        <ele>597.6</ele>
        <time>2020-02-28T09:53:39Z</time>
      </trkpt>
      <trkpt lat="46.74866" lon="5.78619">
        <ele>597.6</ele>
        <time>2020-02-28T09:53:40Z</time>
      </trkpt>
      <trkpt lat="46.74869" lon="5.78617">
        <ele>598</ele>
        <time>2020-02-28T09:53:41Z</time>
      </trkpt>
      <trkpt lat="46.74871" lon="5.78615">
        <ele>598</ele>
        <time>2020-02-28T09:53:42Z</time>
      </trkpt>
      <trkpt lat="46.74873" lon="5.78613">
        <ele>598.4</ele>
        <time>2020-02-28T09:53:43Z</time>
      </trkpt>
      <trkpt lat="46.74875" lon="5.7861">
        <ele>598.4</ele>
        <time>2020-02-28T09:53:44Z</time>
      </trkpt>
      <trkpt lat="46.74877" lon="5.78607">
        <ele>598.8</ele>
        <time>2020-02-28T09:53:45Z</time>
      </trkpt>
      <trkpt lat="46.74879" lon="5.78604">
        <ele>599.2</ele>
        <time>2020-02-28T09:53:46Z</time>
      </trkpt>
      <trkpt lat="46.7488" lon="5.78602">
        <ele>599.2</ele>
        <time>2020-02-28T09:53:47Z</time>
      </trkpt>
      <trkpt lat="46.74882" lon="5.78599">
        <ele>599.4</ele>
        <time>2020-02-28T09:53:48Z</time>
      </trkpt>
      <trkpt lat="46.74884" lon="5.78596">
        <ele>599.4</ele>
        <time>2020-02-28T09:53:49Z</time>
      </trkpt>
      <trkpt lat="46.74885" lon="5.78594">
        <ele>600</ele>
        <time>2020-02-28T09:53:50Z</time>
      </trkpt>
      <trkpt lat="46.74886" lon="5.78591">
        <ele>600.2</ele>
        <time>2020-02-28T09:53:51Z</time>
      </trkpt>
      <trkpt lat="46.74888" lon="5.78589">
        <ele>600.2</ele>
        <time>2020-02-28T09:53:52Z</time>
      </trkpt>
      <trkpt lat="46.7489" lon="5.78586">
        <ele>600.4</ele>
        <time>2020-02-28T09:53:53Z</time>
      </trkpt>
      <trkpt lat="46.74891" lon="5.78584">
        <ele>600.4</ele>
        <time>2020-02-28T09:53:54Z</time>
      </trkpt>
      <trkpt lat="46.74892" lon="5.78582">
        <ele>600.6</ele>
        <time>2020-02-28T09:53:55Z</time>
      </trkpt>
      <trkpt lat="46.74894" lon="5.7858">
        <ele>600.6</ele>
        <time>2020-02-28T09:53:56Z</time>
      </trkpt>
      <trkpt lat="46.74896" lon="5.78577">
        <ele>600.8</ele>
        <time>2020-02-28T09:53:57Z</time>
      </trkpt>
      <trkpt lat="46.74897" lon="5.78574">
        <ele>600.8</ele>
        <time>2020-02-28T09:53:58Z</time>
      </trkpt>
      <trkpt lat="46.74899" lon="5.78572">
        <ele>600.8</ele>
        <time>2020-02-28T09:53:59Z</time>
      </trkpt>
      <trkpt lat="46.74901" lon="5.7857">
        <ele>601.2</ele>
        <time>2020-02-28T09:54:00Z</time>
      </trkpt>
      <trkpt lat="46.74902" lon="5.78567">
        <ele>601.2</ele>
        <time>2020-02-28T09:54:01Z</time>
      </trkpt>
      <trkpt lat="46.74904" lon="5.78564">
        <ele>601.6</ele>
        <time>2020-02-28T09:54:02Z</time>
      </trkpt>
      <trkpt lat="46.74906" lon="5.78561">
        <ele>601.6</ele>
        <time>2020-02-28T09:54:03Z</time>
      </trkpt>
      <trkpt lat="46.74909" lon="5.78556">
        <ele>601.8</ele>
        <time>2020-02-28T09:54:04Z</time>
      </trkpt>
      <trkpt lat="46.7491" lon="5.78554">
        <ele>601.8</ele>
        <time>2020-02-28T09:54:05Z</time>
      </trkpt>
      <trkpt lat="46.74911" lon="5.7855">
        <ele>602.2</ele>
        <time>2020-02-28T09:54:06Z</time>
      </trkpt>
      <trkpt lat="46.74914" lon="5.78546">
        <ele>602.2</ele>
        <time>2020-02-28T09:54:07Z</time>
      </trkpt>
      <trkpt lat="46.74915" lon="5.78545">
        <ele>602.4</ele>
        <time>2020-02-28T09:54:08Z</time>
      </trkpt>
      <trkpt lat="46.74917" lon="5.78543">
        <ele>602.4</ele>
        <time>2020-02-28T09:54:09Z</time>
      </trkpt>
      <trkpt lat="46.74919" lon="5.7854">
        <ele>602.8</ele>
        <time>2020-02-28T09:54:10Z</time>
      </trkpt>
      <trkpt lat="46.74921" lon="5.78537">
        <ele>602.8</ele>
        <time>2020-02-28T09:54:11Z</time>
      </trkpt>
      <trkpt lat="46.74923" lon="5.78535">
        <ele>603</ele>
        <time>2020-02-28T09:54:12Z</time>
      </trkpt>
      <trkpt lat="46.74924" lon="5.78532">
        <ele>603</ele>
        <time>2020-02-28T09:54:13Z</time>
      </trkpt>
      <trkpt lat="46.74928" lon="5.78529">
        <ele>603.4</ele>
        <time>2020-02-28T09:54:14Z</time>
      </trkpt>
      <trkpt lat="46.74929" lon="5.78528">
        <ele>603.4</ele>
        <time>2020-02-28T09:54:15Z</time>
      </trkpt>
      <trkpt lat="46.74931" lon="5.78525">
        <ele>603.8</ele>
        <time>2020-02-28T09:54:16Z</time>
      </trkpt>
      <trkpt lat="46.74933" lon="5.78523">
        <ele>603.8</ele>
        <time>2020-02-28T09:54:17Z</time>
      </trkpt>
      <trkpt lat="46.74936" lon="5.7852">
        <ele>604</ele>
        <time>2020-02-28T09:54:18Z</time>
      </trkpt>
      <trkpt lat="46.74936" lon="5.78519">
        <ele>604.2</ele>
        <time>2020-02-28T09:54:19Z</time>
      </trkpt>
      <trkpt lat="46.74938" lon="5.78517">
        <ele>604.2</ele>
        <time>2020-02-28T09:54:20Z</time>
      </trkpt>
      <trkpt lat="46.74939" lon="5.78515">
        <ele>604.6</ele>
        <time>2020-02-28T09:54:21Z</time>
      </trkpt>
      <trkpt lat="46.74941" lon="5.78514">
        <ele>604.6</ele>
        <time>2020-02-28T09:54:22Z</time>
      </trkpt>
      <trkpt lat="46.74943" lon="5.78513">
        <ele>605</ele>
        <time>2020-02-28T09:54:23Z</time>
      </trkpt>
      <trkpt lat="46.74945" lon="5.78512">
        <ele>605</ele>
        <time>2020-02-28T09:54:24Z</time>
      </trkpt>
      <trkpt lat="46.74947" lon="5.78511">
        <ele>605.2</ele>
        <time>2020-02-28T09:54:25Z</time>
      </trkpt>
      <trkpt lat="46.7495" lon="5.78509">
        <ele>605.2</ele>
        <time>2020-02-28T09:54:26Z</time>
      </trkpt>
      <trkpt lat="46.74953" lon="5.78508">
        <ele>605.2</ele>
        <time>2020-02-28T09:54:27Z</time>
      </trkpt>
      <trkpt lat="46.74955" lon="5.78506">
        <ele>605.4</ele>
        <time>2020-02-28T09:54:28Z</time>
      </trkpt>
      <trkpt lat="46.74957" lon="5.78504">
        <ele>605.4</ele>
        <time>2020-02-28T09:54:29Z</time>
      </trkpt>
      <trkpt lat="46.74959" lon="5.78502">
        <ele>605.4</ele>
        <time>2020-02-28T09:54:30Z</time>
      </trkpt>
      <trkpt lat="46.74962" lon="5.785">
        <ele>605.4</ele>
        <time>2020-02-28T09:54:31Z</time>
      </trkpt>
      <trkpt lat="46.74965" lon="5.78498">
        <ele>605.4</ele>
        <time>2020-02-28T09:54:32Z</time>
      </trkpt>
      <trkpt lat="46.74967" lon="5.78497">
        <ele>605.4</ele>
        <time>2020-02-28T09:54:33Z</time>
      </trkpt>
      <trkpt lat="46.74971" lon="5.78496">
        <ele>605.4</ele>
        <time>2020-02-28T09:54:34Z</time>
      </trkpt>
      <trkpt lat="46.74974" lon="5.78494">
        <ele>605.4</ele>
        <time>2020-02-28T09:54:35Z</time>
      </trkpt>
      <trkpt lat="46.74978" lon="5.78492">
        <ele>605.4</ele>
        <time>2020-02-28T09:54:36Z</time>
      </trkpt>
      <trkpt lat="46.7498" lon="5.7849">
        <ele>605</ele>
        <time>2020-02-28T09:54:37Z</time>
      </trkpt>
      <trkpt lat="46.74986" lon="5.78486">
        <ele>605</ele>
        <time>2020-02-28T09:54:38Z</time>
      </trkpt>
      <trkpt lat="46.74987" lon="5.78484">
        <ele>604.8</ele>
        <time>2020-02-28T09:54:39Z</time>
      </trkpt>
      <trkpt lat="46.74991" lon="5.78482">
        <ele>604.8</ele>
        <time>2020-02-28T09:54:40Z</time>
      </trkpt>
      <trkpt lat="46.74994" lon="5.78479">
        <ele>604.6</ele>
        <time>2020-02-28T09:54:41Z</time>
      </trkpt>
      <trkpt lat="46.74998" lon="5.78476">
        <ele>604.6</ele>
        <time>2020-02-28T09:54:42Z</time>
      </trkpt>
      <trkpt lat="46.75002" lon="5.78474">
        <ele>604.4</ele>
        <time>2020-02-28T09:54:43Z</time>
      </trkpt>
      <trkpt lat="46.75006" lon="5.78471">
        <ele>604.4</ele>
        <time>2020-02-28T09:54:44Z</time>
      </trkpt>
      <trkpt lat="46.7501" lon="5.78468">
        <ele>604.4</ele>
        <time>2020-02-28T09:54:45Z</time>
      </trkpt>
      <trkpt lat="46.75015" lon="5.78465">
        <ele>604.4</ele>
        <time>2020-02-28T09:54:46Z</time>
      </trkpt>
      <trkpt lat="46.75017" lon="5.78464">
        <ele>604.4</ele>
        <time>2020-02-28T09:54:47Z</time>
      </trkpt>
      <trkpt lat="46.75021" lon="5.78462">
        <ele>604.4</ele>
        <time>2020-02-28T09:54:48Z</time>
      </trkpt>
      <trkpt lat="46.75024" lon="5.78459">
        <ele>604.4</ele>
        <time>2020-02-28T09:54:49Z</time>
      </trkpt>
      <trkpt lat="46.75028" lon="5.78457">
        <ele>604.4</ele>
        <time>2020-02-28T09:54:50Z</time>
      </trkpt>
      <trkpt lat="46.75031" lon="5.78455">
        <ele>604</ele>
        <time>2020-02-28T09:54:51Z</time>
      </trkpt>
      <trkpt lat="46.75035" lon="5.78452">
        <ele>604</ele>
        <time>2020-02-28T09:54:52Z</time>
      </trkpt>
      <trkpt lat="46.75039" lon="5.7845">
        <ele>603.8</ele>
        <time>2020-02-28T09:54:53Z</time>
      </trkpt>
      <trkpt lat="46.75043" lon="5.78447">
        <ele>603.8</ele>
        <time>2020-02-28T09:54:54Z</time>
      </trkpt>
      <trkpt lat="46.75048" lon="5.78444">
        <ele>603.8</ele>
        <time>2020-02-28T09:54:55Z</time>
      </trkpt>
      <trkpt lat="46.75052" lon="5.78442">
        <ele>603.8</ele>
        <time>2020-02-28T09:54:56Z</time>
      </trkpt>
      <trkpt lat="46.75056" lon="5.7844">
        <ele>603.4</ele>
        <time>2020-02-28T09:54:57Z</time>
      </trkpt>
      <trkpt lat="46.75061" lon="5.78438">
        <ele>603.4</ele>
        <time>2020-02-28T09:54:58Z</time>
      </trkpt>
      <trkpt lat="46.75065" lon="5.78435">
        <ele>603.4</ele>
        <time>2020-02-28T09:54:59Z</time>
      </trkpt>
      <trkpt lat="46.75069" lon="5.78433">
        <ele>603.2</ele>
        <time>2020-02-28T09:55:00Z</time>
      </trkpt>
      <trkpt lat="46.75073" lon="5.78429">
        <ele>603.2</ele>
        <time>2020-02-28T09:55:01Z</time>
      </trkpt>
      <trkpt lat="46.75077" lon="5.78426">
        <ele>603.2</ele>
        <time>2020-02-28T09:55:02Z</time>
      </trkpt>
      <trkpt lat="46.75083" lon="5.78421">
        <ele>603.2</ele>
        <time>2020-02-28T09:55:03Z</time>
      </trkpt>
      <trkpt lat="46.75085" lon="5.7842">
        <ele>603</ele>
        <time>2020-02-28T09:55:04Z</time>
      </trkpt>
      <trkpt lat="46.75089" lon="5.78417">
        <ele>603</ele>
        <time>2020-02-28T09:55:05Z</time>
      </trkpt>
      <trkpt lat="46.75093" lon="5.78413">
        <ele>603</ele>
        <time>2020-02-28T09:55:06Z</time>
      </trkpt>
      <trkpt lat="46.75097" lon="5.78408">
        <ele>602.8</ele>
        <time>2020-02-28T09:55:07Z</time>
      </trkpt>
      <trkpt lat="46.751" lon="5.78403">
        <ele>602.8</ele>
        <time>2020-02-28T09:55:08Z</time>
      </trkpt>
      <trkpt lat="46.75103" lon="5.78398">
        <ele>602.4</ele>
        <time>2020-02-28T09:55:09Z</time>
      </trkpt>
      <trkpt lat="46.75106" lon="5.78393">
        <ele>602.4</ele>
        <time>2020-02-28T09:55:10Z</time>
      </trkpt>
      <trkpt lat="46.7511" lon="5.78384">
        <ele>602.2</ele>
        <time>2020-02-28T09:55:11Z</time>
      </trkpt>
      <trkpt lat="46.75111" lon="5.78381">
        <ele>602.2</ele>
        <time>2020-02-28T09:55:12Z</time>
      </trkpt>
      <trkpt lat="46.75115" lon="5.78373">
        <ele>602</ele>
        <time>2020-02-28T09:55:13Z</time>
      </trkpt>
      <trkpt lat="46.75116" lon="5.78371">
        <ele>602</ele>
        <time>2020-02-28T09:55:14Z</time>
      </trkpt>
      <trkpt lat="46.75118" lon="5.78366">
        <ele>601.6</ele>
        <time>2020-02-28T09:55:15Z</time>
      </trkpt>
      <trkpt lat="46.75121" lon="5.7836">
        <ele>601.6</ele>
        <time>2020-02-28T09:55:16Z</time>
      </trkpt>
      <trkpt lat="46.75124" lon="5.78353">
        <ele>601.4</ele>
        <time>2020-02-28T09:55:17Z</time>
      </trkpt>
      <trkpt lat="46.75125" lon="5.78351">
        <ele>601.2</ele>
        <time>2020-02-28T09:55:18Z</time>
      </trkpt>
      <trkpt lat="46.75127" lon="5.78345">
        <ele>601.2</ele>
        <time>2020-02-28T09:55:19Z</time>
      </trkpt>
      <trkpt lat="46.7513" lon="5.7834">
        <ele>600.8</ele>
        <time>2020-02-28T09:55:20Z</time>
      </trkpt>
      <trkpt lat="46.75133" lon="5.78335">
        <ele>600.8</ele>
        <time>2020-02-28T09:55:21Z</time>
      </trkpt>
      <trkpt lat="46.75136" lon="5.78331">
        <ele>600.4</ele>
        <time>2020-02-28T09:55:22Z</time>
      </trkpt>
      <trkpt lat="46.7514" lon="5.78326">
        <ele>600.4</ele>
        <time>2020-02-28T09:55:23Z</time>
      </trkpt>
      <trkpt lat="46.75145" lon="5.78323">
        <ele>600</ele>
        <time>2020-02-28T09:55:24Z</time>
      </trkpt>
      <trkpt lat="46.75149" lon="5.78319">
        <ele>599.8</ele>
        <time>2020-02-28T09:55:25Z</time>
      </trkpt>
      <trkpt lat="46.75156" lon="5.78314">
        <ele>599.8</ele>
        <time>2020-02-28T09:55:26Z</time>
      </trkpt>
      <trkpt lat="46.75159" lon="5.78312">
        <ele>599.4</ele>
        <time>2020-02-28T09:55:27Z</time>
      </trkpt>
      <trkpt lat="46.75163" lon="5.78309">
        <ele>599.4</ele>
        <time>2020-02-28T09:55:28Z</time>
      </trkpt>
      <trkpt lat="46.75168" lon="5.78305">
        <ele>599.2</ele>
        <time>2020-02-28T09:55:29Z</time>
      </trkpt>
      <trkpt lat="46.75173" lon="5.78302">
        <ele>599.2</ele>
        <time>2020-02-28T09:55:30Z</time>
      </trkpt>
      <trkpt lat="46.75177" lon="5.78298">
        <ele>599.2</ele>
        <time>2020-02-28T09:55:31Z</time>
      </trkpt>
      <trkpt lat="46.75182" lon="5.78295">
        <ele>599</ele>
        <time>2020-02-28T09:55:32Z</time>
      </trkpt>
      <trkpt lat="46.75186" lon="5.78292">
        <ele>599</ele>
        <time>2020-02-28T09:55:33Z</time>
      </trkpt>
      <trkpt lat="46.75191" lon="5.78288">
        <ele>598.6</ele>
        <time>2020-02-28T09:55:34Z</time>
      </trkpt>
      <trkpt lat="46.75195" lon="5.78285">
        <ele>598.6</ele>
        <time>2020-02-28T09:55:35Z</time>
      </trkpt>
      <trkpt lat="46.75201" lon="5.7828">
        <ele>598.6</ele>
        <time>2020-02-28T09:55:36Z</time>
      </trkpt>
      <trkpt lat="46.75203" lon="5.78279">
        <ele>598.4</ele>
        <time>2020-02-28T09:55:37Z</time>
      </trkpt>
      <trkpt lat="46.75208" lon="5.78276">
        <ele>598.4</ele>
        <time>2020-02-28T09:55:38Z</time>
      </trkpt>
      <trkpt lat="46.75212" lon="5.78273">
        <ele>598.4</ele>
        <time>2020-02-28T09:55:39Z</time>
      </trkpt>
      <trkpt lat="46.75216" lon="5.7827">
        <ele>598.2</ele>
        <time>2020-02-28T09:55:40Z</time>
      </trkpt>
      <trkpt lat="46.7522" lon="5.78267">
        <ele>598.2</ele>
        <time>2020-02-28T09:55:41Z</time>
      </trkpt>
      <trkpt lat="46.75224" lon="5.78264">
        <ele>598.2</ele>
        <time>2020-02-28T09:55:42Z</time>
      </trkpt>
      <trkpt lat="46.75228" lon="5.78261">
        <ele>598.2</ele>
        <time>2020-02-28T09:55:43Z</time>
      </trkpt>
      <trkpt lat="46.75232" lon="5.78259">
        <ele>598.2</ele>
        <time>2020-02-28T09:55:44Z</time>
      </trkpt>
      <trkpt lat="46.75236" lon="5.78256">
        <ele>598.2</ele>
        <time>2020-02-28T09:55:45Z</time>
      </trkpt>
      <trkpt lat="46.7524" lon="5.78254">
        <ele>598.2</ele>
        <time>2020-02-28T09:55:46Z</time>
      </trkpt>
      <trkpt lat="46.75244" lon="5.78252">
        <ele>598</ele>
        <time>2020-02-28T09:55:47Z</time>
      </trkpt>
      <trkpt lat="46.75249" lon="5.78249">
        <ele>598</ele>
        <time>2020-02-28T09:55:48Z</time>
      </trkpt>
      <trkpt lat="46.75253" lon="5.78248">
        <ele>598</ele>
        <time>2020-02-28T09:55:49Z</time>
      </trkpt>
      <trkpt lat="46.75257" lon="5.78247">
        <ele>597.6</ele>
        <time>2020-02-28T09:55:50Z</time>
      </trkpt>
      <trkpt lat="46.75262" lon="5.78246">
        <ele>597.6</ele>
        <time>2020-02-28T09:55:51Z</time>
      </trkpt>
      <trkpt lat="46.75266" lon="5.78245">
        <ele>597.4</ele>
        <time>2020-02-28T09:55:52Z</time>
      </trkpt>
      <trkpt lat="46.7527" lon="5.78244">
        <ele>597.4</ele>
        <time>2020-02-28T09:55:53Z</time>
      </trkpt>
      <trkpt lat="46.75275" lon="5.78243">
        <ele>597.2</ele>
        <time>2020-02-28T09:55:54Z</time>
      </trkpt>
      <trkpt lat="46.7528" lon="5.78242">
        <ele>597.2</ele>
        <time>2020-02-28T09:55:55Z</time>
      </trkpt>
      <trkpt lat="46.75285" lon="5.78242">
        <ele>597</ele>
        <time>2020-02-28T09:55:56Z</time>
      </trkpt>
      <trkpt lat="46.7529" lon="5.78243">
        <ele>597</ele>
        <time>2020-02-28T09:55:57Z</time>
      </trkpt>
      <trkpt lat="46.75294" lon="5.78244">
        <ele>596.6</ele>
        <time>2020-02-28T09:55:58Z</time>
      </trkpt>
      <trkpt lat="46.75299" lon="5.78244">
        <ele>596.4</ele>
        <time>2020-02-28T09:55:59Z</time>
      </trkpt>
      <trkpt lat="46.75304" lon="5.78245">
        <ele>596.4</ele>
        <time>2020-02-28T09:56:00Z</time>
      </trkpt>
      <trkpt lat="46.75308" lon="5.78245">
        <ele>596</ele>
        <time>2020-02-28T09:56:01Z</time>
      </trkpt>
      <trkpt lat="46.75313" lon="5.78246">
        <ele>596</ele>
        <time>2020-02-28T09:56:02Z</time>
      </trkpt>
      <trkpt lat="46.75317" lon="5.78247">
        <ele>595.6</ele>
        <time>2020-02-28T09:56:03Z</time>
      </trkpt>
      <trkpt lat="46.75321" lon="5.78248">
        <ele>595.6</ele>
        <time>2020-02-28T09:56:04Z</time>
      </trkpt>
      <trkpt lat="46.75324" lon="5.78249">
        <ele>595.4</ele>
        <time>2020-02-28T09:56:05Z</time>
      </trkpt>
      <trkpt lat="46.75327" lon="5.7825">
        <ele>595.4</ele>
        <time>2020-02-28T09:56:06Z</time>
      </trkpt>
      <trkpt lat="46.7533" lon="5.78251">
        <ele>595.2</ele>
        <time>2020-02-28T09:56:07Z</time>
      </trkpt>
      <trkpt lat="46.75333" lon="5.7825">
        <ele>595.2</ele>
        <time>2020-02-28T09:56:08Z</time>
      </trkpt>
      <trkpt lat="46.75336" lon="5.78251">
        <ele>595.2</ele>
        <time>2020-02-28T09:56:09Z</time>
      </trkpt>
      <trkpt lat="46.75339" lon="5.78251">
        <ele>595</ele>
        <time>2020-02-28T09:56:10Z</time>
      </trkpt>
      <trkpt lat="46.75341" lon="5.7825">
        <ele>595</ele>
        <time>2020-02-28T09:56:11Z</time>
      </trkpt>
      <trkpt lat="46.75343" lon="5.7825">
        <ele>595</ele>
        <time>2020-02-28T09:56:12Z</time>
      </trkpt>
      <trkpt lat="46.75346" lon="5.7825">
        <ele>594.8</ele>
        <time>2020-02-28T09:56:13Z</time>
      </trkpt>
      <trkpt lat="46.75349" lon="5.78251">
        <ele>594.8</ele>
        <time>2020-02-28T09:56:14Z</time>
      </trkpt>
      <trkpt lat="46.75351" lon="5.78252">
        <ele>594.6</ele>
        <time>2020-02-28T09:56:15Z</time>
      </trkpt>
      <trkpt lat="46.75354" lon="5.78252">
        <ele>594.6</ele>
        <time>2020-02-28T09:56:16Z</time>
      </trkpt>
      <trkpt lat="46.75356" lon="5.78253">
        <ele>594.2</ele>
        <time>2020-02-28T09:56:17Z</time>
      </trkpt>
      <trkpt lat="46.7536" lon="5.78253">
        <ele>594.2</ele>
        <time>2020-02-28T09:56:18Z</time>
      </trkpt>
      <trkpt lat="46.75363" lon="5.78254">
        <ele>594.2</ele>
        <time>2020-02-28T09:56:19Z</time>
      </trkpt>
      <trkpt lat="46.75366" lon="5.78255">
        <ele>594.2</ele>
        <time>2020-02-28T09:56:20Z</time>
      </trkpt>
      <trkpt lat="46.7537" lon="5.78255">
        <ele>593.8</ele>
        <time>2020-02-28T09:56:21Z</time>
      </trkpt>
      <trkpt lat="46.75373" lon="5.78256">
        <ele>593.6</ele>
        <time>2020-02-28T09:56:22Z</time>
      </trkpt>
      <trkpt lat="46.75377" lon="5.78257">
        <ele>593.6</ele>
        <time>2020-02-28T09:56:23Z</time>
      </trkpt>
      <trkpt lat="46.75381" lon="5.78259">
        <ele>593.4</ele>
        <time>2020-02-28T09:56:24Z</time>
      </trkpt>
      <trkpt lat="46.75386" lon="5.7826">
        <ele>593.4</ele>
        <time>2020-02-28T09:56:25Z</time>
      </trkpt>
      <trkpt lat="46.7539" lon="5.78262">
        <ele>593.2</ele>
        <time>2020-02-28T09:56:26Z</time>
      </trkpt>
      <trkpt lat="46.75395" lon="5.78262">
        <ele>593.2</ele>
        <time>2020-02-28T09:56:27Z</time>
      </trkpt>
      <trkpt lat="46.75399" lon="5.78263">
        <ele>592.8</ele>
        <time>2020-02-28T09:56:28Z</time>
      </trkpt>
      <trkpt lat="46.75406" lon="5.78264">
        <ele>592.8</ele>
        <time>2020-02-28T09:56:29Z</time>
      </trkpt>
      <trkpt lat="46.75408" lon="5.78265">
        <ele>592.4</ele>
        <time>2020-02-28T09:56:30Z</time>
      </trkpt>
      <trkpt lat="46.75412" lon="5.78266">
        <ele>592.2</ele>
        <time>2020-02-28T09:56:31Z</time>
      </trkpt>
      <trkpt lat="46.75417" lon="5.78267">
        <ele>592</ele>
        <time>2020-02-28T09:56:32Z</time>
      </trkpt>
      <trkpt lat="46.75422" lon="5.78268">
        <ele>592</ele>
        <time>2020-02-28T09:56:33Z</time>
      </trkpt>
      <trkpt lat="46.75427" lon="5.7827">
        <ele>591.6</ele>
        <time>2020-02-28T09:56:34Z</time>
      </trkpt>
      <trkpt lat="46.75432" lon="5.78271">
        <ele>591.4</ele>
        <time>2020-02-28T09:56:35Z</time>
      </trkpt>
      <trkpt lat="46.75437" lon="5.78273">
        <ele>591.2</ele>
        <time>2020-02-28T09:56:36Z</time>
      </trkpt>
      <trkpt lat="46.75442" lon="5.78275">
        <ele>591</ele>
        <time>2020-02-28T09:56:37Z</time>
      </trkpt>
      <trkpt lat="46.75447" lon="5.78276">
        <ele>590.8</ele>
        <time>2020-02-28T09:56:38Z</time>
      </trkpt>
      <trkpt lat="46.75452" lon="5.78277">
        <ele>590.6</ele>
        <time>2020-02-28T09:56:39Z</time>
      </trkpt>
      <trkpt lat="46.75457" lon="5.78278">
        <ele>590.6</ele>
        <time>2020-02-28T09:56:40Z</time>
      </trkpt>
      <trkpt lat="46.75462" lon="5.78278">
        <ele>590.2</ele>
        <time>2020-02-28T09:56:41Z</time>
      </trkpt>
      <trkpt lat="46.75467" lon="5.78279">
        <ele>590</ele>
        <time>2020-02-28T09:56:42Z</time>
      </trkpt>
      <trkpt lat="46.75472" lon="5.78281">
        <ele>590</ele>
        <time>2020-02-28T09:56:43Z</time>
      </trkpt>
      <trkpt lat="46.75476" lon="5.78282">
        <ele>589.6</ele>
        <time>2020-02-28T09:56:44Z</time>
      </trkpt>
      <trkpt lat="46.75481" lon="5.78284">
        <ele>589.6</ele>
        <time>2020-02-28T09:56:45Z</time>
      </trkpt>
      <trkpt lat="46.75486" lon="5.78285">
        <ele>589.2</ele>
        <time>2020-02-28T09:56:46Z</time>
      </trkpt>
      <trkpt lat="46.7549" lon="5.78287">
        <ele>589</ele>
        <time>2020-02-28T09:56:47Z</time>
      </trkpt>
      <trkpt lat="46.75494" lon="5.78289">
        <ele>588.8</ele>
        <time>2020-02-28T09:56:48Z</time>
      </trkpt>
      <trkpt lat="46.75498" lon="5.78291">
        <ele>588.6</ele>
        <time>2020-02-28T09:56:49Z</time>
      </trkpt>
      <trkpt lat="46.75502" lon="5.78293">
        <ele>588.6</ele>
        <time>2020-02-28T09:56:50Z</time>
      </trkpt>
      <trkpt lat="46.75506" lon="5.78295">
        <ele>588.2</ele>
        <time>2020-02-28T09:56:51Z</time>
      </trkpt>
      <trkpt lat="46.7551" lon="5.78297">
        <ele>588.2</ele>
        <time>2020-02-28T09:56:52Z</time>
      </trkpt>
      <trkpt lat="46.75514" lon="5.78301">
        <ele>587.8</ele>
        <time>2020-02-28T09:56:53Z</time>
      </trkpt>
      <trkpt lat="46.75519" lon="5.78304">
        <ele>587.8</ele>
        <time>2020-02-28T09:56:54Z</time>
      </trkpt>
      <trkpt lat="46.75523" lon="5.78308">
        <ele>587.6</ele>
        <time>2020-02-28T09:56:55Z</time>
      </trkpt>
      <trkpt lat="46.75526" lon="5.78312">
        <ele>587.6</ele>
        <time>2020-02-28T09:56:56Z</time>
      </trkpt>
      <trkpt lat="46.7553" lon="5.78316">
        <ele>587.2</ele>
        <time>2020-02-28T09:56:57Z</time>
      </trkpt>
      <trkpt lat="46.75534" lon="5.78321">
        <ele>587.2</ele>
        <time>2020-02-28T09:56:58Z</time>
      </trkpt>
      <trkpt lat="46.75538" lon="5.78326">
        <ele>586.8</ele>
        <time>2020-02-28T09:56:59Z</time>
      </trkpt>
      <trkpt lat="46.75542" lon="5.78331">
        <ele>586.4</ele>
        <time>2020-02-28T09:57:00Z</time>
      </trkpt>
      <trkpt lat="46.75545" lon="5.78336">
        <ele>586.2</ele>
        <time>2020-02-28T09:57:01Z</time>
      </trkpt>
      <trkpt lat="46.75547" lon="5.7834">
        <ele>586</ele>
        <time>2020-02-28T09:57:02Z</time>
      </trkpt>
      <trkpt lat="46.7555" lon="5.78345">
        <ele>586</ele>
        <time>2020-02-28T09:57:03Z</time>
      </trkpt>
      <trkpt lat="46.75553" lon="5.7835">
        <ele>585.4</ele>
        <time>2020-02-28T09:57:04Z</time>
      </trkpt>
      <trkpt lat="46.75556" lon="5.78355">
        <ele>585.2</ele>
        <time>2020-02-28T09:57:05Z</time>
      </trkpt>
      <trkpt lat="46.7556" lon="5.78359">
        <ele>584.8</ele>
        <time>2020-02-28T09:57:06Z</time>
      </trkpt>
      <trkpt lat="46.75564" lon="5.78364">
        <ele>584.6</ele>
        <time>2020-02-28T09:57:07Z</time>
      </trkpt>
      <trkpt lat="46.75567" lon="5.78369">
        <ele>584.2</ele>
        <time>2020-02-28T09:57:08Z</time>
      </trkpt>
      <trkpt lat="46.75571" lon="5.78374">
        <ele>584</ele>
        <time>2020-02-28T09:57:09Z</time>
      </trkpt>
      <trkpt lat="46.75575" lon="5.78379">
        <ele>583.8</ele>
        <time>2020-02-28T09:57:10Z</time>
      </trkpt>
      <trkpt lat="46.75581" lon="5.78384">
        <ele>583.6</ele>
        <time>2020-02-28T09:57:11Z</time>
      </trkpt>
      <trkpt lat="46.75586" lon="5.78389">
        <ele>583.4</ele>
        <time>2020-02-28T09:57:12Z</time>
      </trkpt>
      <trkpt lat="46.7559" lon="5.78394">
        <ele>583</ele>
        <time>2020-02-28T09:57:13Z</time>
      </trkpt>
      <trkpt lat="46.75595" lon="5.784">
        <ele>583</ele>
        <time>2020-02-28T09:57:14Z</time>
      </trkpt>
      <trkpt lat="46.756" lon="5.78407">
        <ele>582.8</ele>
        <time>2020-02-28T09:57:15Z</time>
      </trkpt>
      <trkpt lat="46.75604" lon="5.78411">
        <ele>582.8</ele>
        <time>2020-02-28T09:57:16Z</time>
      </trkpt>
      <trkpt lat="46.75609" lon="5.78416">
        <ele>582.2</ele>
        <time>2020-02-28T09:57:17Z</time>
      </trkpt>
      <trkpt lat="46.75615" lon="5.78423">
        <ele>582</ele>
        <time>2020-02-28T09:57:18Z</time>
      </trkpt>
      <trkpt lat="46.75616" lon="5.78425">
        <ele>581.6</ele>
        <time>2020-02-28T09:57:19Z</time>
      </trkpt>
      <trkpt lat="46.7562" lon="5.7843">
        <ele>581.4</ele>
        <time>2020-02-28T09:57:20Z</time>
      </trkpt>
      <trkpt lat="46.75624" lon="5.78434">
        <ele>581.4</ele>
        <time>2020-02-28T09:57:21Z</time>
      </trkpt>
      <trkpt lat="46.75627" lon="5.78437">
        <ele>581.2</ele>
        <time>2020-02-28T09:57:22Z</time>
      </trkpt>
      <trkpt lat="46.75631" lon="5.78441">
        <ele>581</ele>
        <time>2020-02-28T09:57:23Z</time>
      </trkpt>
      <trkpt lat="46.75634" lon="5.78445">
        <ele>580.6</ele>
        <time>2020-02-28T09:57:24Z</time>
      </trkpt>
      <trkpt lat="46.75638" lon="5.78449">
        <ele>580.4</ele>
        <time>2020-02-28T09:57:25Z</time>
      </trkpt>
      <trkpt lat="46.75642" lon="5.78452">
        <ele>580.2</ele>
        <time>2020-02-28T09:57:26Z</time>
      </trkpt>
      <trkpt lat="46.75647" lon="5.78455">
        <ele>579.8</ele>
        <time>2020-02-28T09:57:27Z</time>
      </trkpt>
      <trkpt lat="46.7565" lon="5.78459">
        <ele>579.6</ele>
        <time>2020-02-28T09:57:28Z</time>
      </trkpt>
      <trkpt lat="46.75653" lon="5.78463">
        <ele>579.6</ele>
        <time>2020-02-28T09:57:29Z</time>
      </trkpt>
      <trkpt lat="46.75657" lon="5.78466">
        <ele>579.2</ele>
        <time>2020-02-28T09:57:30Z</time>
      </trkpt>
      <trkpt lat="46.7566" lon="5.7847">
        <ele>579</ele>
        <time>2020-02-28T09:57:31Z</time>
      </trkpt>
      <trkpt lat="46.75663" lon="5.78473">
        <ele>578.8</ele>
        <time>2020-02-28T09:57:32Z</time>
      </trkpt>
      <trkpt lat="46.75666" lon="5.78476">
        <ele>578.4</ele>
        <time>2020-02-28T09:57:33Z</time>
      </trkpt>
      <trkpt lat="46.75671" lon="5.78482">
        <ele>578.2</ele>
        <time>2020-02-28T09:57:34Z</time>
      </trkpt>
      <trkpt lat="46.75675" lon="5.78487">
        <ele>577.8</ele>
        <time>2020-02-28T09:57:35Z</time>
      </trkpt>
      <trkpt lat="46.75679" lon="5.78493">
        <ele>577.6</ele>
        <time>2020-02-28T09:57:36Z</time>
      </trkpt>
      <trkpt lat="46.75681" lon="5.78495">
        <ele>577.4</ele>
        <time>2020-02-28T09:57:37Z</time>
      </trkpt>
      <trkpt lat="46.75686" lon="5.78498">
        <ele>577.4</ele>
        <time>2020-02-28T09:57:38Z</time>
      </trkpt>
      <trkpt lat="46.75689" lon="5.78503">
        <ele>577</ele>
        <time>2020-02-28T09:57:39Z</time>
      </trkpt>
      <trkpt lat="46.75692" lon="5.78507">
        <ele>577</ele>
        <time>2020-02-28T09:57:40Z</time>
      </trkpt>
      <trkpt lat="46.75695" lon="5.78511">
        <ele>576.4</ele>
        <time>2020-02-28T09:57:41Z</time>
      </trkpt>
      <trkpt lat="46.757" lon="5.78518">
        <ele>576.2</ele>
        <time>2020-02-28T09:57:42Z</time>
      </trkpt>
      <trkpt lat="46.75701" lon="5.78519">
        <ele>575.8</ele>
        <time>2020-02-28T09:57:43Z</time>
      </trkpt>
      <trkpt lat="46.75705" lon="5.78523">
        <ele>575.6</ele>
        <time>2020-02-28T09:57:44Z</time>
      </trkpt>
      <trkpt lat="46.7571" lon="5.78529">
        <ele>575.4</ele>
        <time>2020-02-28T09:57:45Z</time>
      </trkpt>
      <trkpt lat="46.75712" lon="5.78531">
        <ele>575.2</ele>
        <time>2020-02-28T09:57:46Z</time>
      </trkpt>
      <trkpt lat="46.75714" lon="5.78534">
        <ele>575</ele>
        <time>2020-02-28T09:57:47Z</time>
      </trkpt>
      <trkpt lat="46.75717" lon="5.78538">
        <ele>575</ele>
        <time>2020-02-28T09:57:48Z</time>
      </trkpt>
      <trkpt lat="46.75722" lon="5.78543">
        <ele>574.6</ele>
        <time>2020-02-28T09:57:49Z</time>
      </trkpt>
      <trkpt lat="46.75725" lon="5.78546">
        <ele>574.6</ele>
        <time>2020-02-28T09:57:50Z</time>
      </trkpt>
      <trkpt lat="46.75728" lon="5.7855">
        <ele>574.2</ele>
        <time>2020-02-28T09:57:51Z</time>
      </trkpt>
      <trkpt lat="46.75732" lon="5.78554">
        <ele>574.2</ele>
        <time>2020-02-28T09:57:52Z</time>
      </trkpt>
      <trkpt lat="46.75736" lon="5.78558">
        <ele>574</ele>
        <time>2020-02-28T09:57:53Z</time>
      </trkpt>
      <trkpt lat="46.7574" lon="5.78562">
        <ele>574</ele>
        <time>2020-02-28T09:57:54Z</time>
      </trkpt>
      <trkpt lat="46.75744" lon="5.78567">
        <ele>573.6</ele>
        <time>2020-02-28T09:57:55Z</time>
      </trkpt>
      <trkpt lat="46.75751" lon="5.78572">
        <ele>573.4</ele>
        <time>2020-02-28T09:57:56Z</time>
      </trkpt>
      <trkpt lat="46.75757" lon="5.78577">
        <ele>573.4</ele>
        <time>2020-02-28T09:57:57Z</time>
      </trkpt>
      <trkpt lat="46.75763" lon="5.78581">
        <ele>573</ele>
        <time>2020-02-28T09:57:58Z</time>
      </trkpt>
      <trkpt lat="46.75767" lon="5.78584">
        <ele>572.6</ele>
        <time>2020-02-28T09:57:59Z</time>
      </trkpt>
      <trkpt lat="46.75772" lon="5.78586">
        <ele>572.4</ele>
        <time>2020-02-28T09:58:00Z</time>
      </trkpt>
      <trkpt lat="46.75776" lon="5.78588">
        <ele>572.2</ele>
        <time>2020-02-28T09:58:01Z</time>
      </trkpt>
      <trkpt lat="46.7578" lon="5.78589">
        <ele>572</ele>
        <time>2020-02-28T09:58:02Z</time>
      </trkpt>
      <trkpt lat="46.75784" lon="5.7859">
        <ele>571.8</ele>
        <time>2020-02-28T09:58:03Z</time>
      </trkpt>
      <trkpt lat="46.75789" lon="5.78591">
        <ele>571.6</ele>
        <time>2020-02-28T09:58:04Z</time>
      </trkpt>
      <trkpt lat="46.75795" lon="5.78592">
        <ele>571.2</ele>
        <time>2020-02-28T09:58:05Z</time>
      </trkpt>
      <trkpt lat="46.75801" lon="5.78593">
        <ele>571</ele>
        <time>2020-02-28T09:58:06Z</time>
      </trkpt>
      <trkpt lat="46.75807" lon="5.78593">
        <ele>570.6</ele>
        <time>2020-02-28T09:58:07Z</time>
      </trkpt>
      <trkpt lat="46.75814" lon="5.78594">
        <ele>570.4</ele>
        <time>2020-02-28T09:58:08Z</time>
      </trkpt>
      <trkpt lat="46.75821" lon="5.78594">
        <ele>570</ele>
        <time>2020-02-28T09:58:09Z</time>
      </trkpt>
      <trkpt lat="46.75828" lon="5.78594">
        <ele>569.8</ele>
        <time>2020-02-28T09:58:10Z</time>
      </trkpt>
      <trkpt lat="46.75835" lon="5.78593">
        <ele>569.6</ele>
        <time>2020-02-28T09:58:11Z</time>
      </trkpt>
      <trkpt lat="46.75843" lon="5.78592">
        <ele>569.2</ele>
        <time>2020-02-28T09:58:12Z</time>
      </trkpt>
      <trkpt lat="46.7585" lon="5.78591">
        <ele>569</ele>
        <time>2020-02-28T09:58:13Z</time>
      </trkpt>
      <trkpt lat="46.75858" lon="5.7859">
        <ele>568.6</ele>
        <time>2020-02-28T09:58:14Z</time>
      </trkpt>
      <trkpt lat="46.75866" lon="5.78587">
        <ele>568.4</ele>
        <time>2020-02-28T09:58:15Z</time>
      </trkpt>
      <trkpt lat="46.75874" lon="5.78584">
        <ele>568</ele>
        <time>2020-02-28T09:58:16Z</time>
      </trkpt>
      <trkpt lat="46.75882" lon="5.78581">
        <ele>567.6</ele>
        <time>2020-02-28T09:58:17Z</time>
      </trkpt>
      <trkpt lat="46.7589" lon="5.78578">
        <ele>567</ele>
        <time>2020-02-28T09:58:18Z</time>
      </trkpt>
      <trkpt lat="46.75899" lon="5.78574">
        <ele>566.8</ele>
        <time>2020-02-28T09:58:19Z</time>
      </trkpt>
      <trkpt lat="46.75908" lon="5.78571">
        <ele>566.4</ele>
        <time>2020-02-28T09:58:20Z</time>
      </trkpt>
      <trkpt lat="46.75917" lon="5.78567">
        <ele>566</ele>
        <time>2020-02-28T09:58:21Z</time>
      </trkpt>
      <trkpt lat="46.75925" lon="5.78564">
        <ele>565.6</ele>
        <time>2020-02-28T09:58:22Z</time>
      </trkpt>
      <trkpt lat="46.75934" lon="5.78559">
        <ele>565.2</ele>
        <time>2020-02-28T09:58:23Z</time>
      </trkpt>
      <trkpt lat="46.75943" lon="5.78555">
        <ele>564.6</ele>
        <time>2020-02-28T09:58:24Z</time>
      </trkpt>
      <trkpt lat="46.75952" lon="5.7855">
        <ele>564.2</ele>
        <time>2020-02-28T09:58:25Z</time>
      </trkpt>
      <trkpt lat="46.75961" lon="5.78546">
        <ele>563.8</ele>
        <time>2020-02-28T09:58:26Z</time>
      </trkpt>
      <trkpt lat="46.75969" lon="5.78542">
        <ele>563.4</ele>
        <time>2020-02-28T09:58:27Z</time>
      </trkpt>
      <trkpt lat="46.75979" lon="5.78538">
        <ele>563</ele>
        <time>2020-02-28T09:58:28Z</time>
      </trkpt>
      <trkpt lat="46.75988" lon="5.78533">
        <ele>562.6</ele>
        <time>2020-02-28T09:58:29Z</time>
      </trkpt>
      <trkpt lat="46.75997" lon="5.78529">
        <ele>562.4</ele>
        <time>2020-02-28T09:58:30Z</time>
      </trkpt>
      <trkpt lat="46.76007" lon="5.78527">
        <ele>562.2</ele>
        <time>2020-02-28T09:58:31Z</time>
      </trkpt>
      <trkpt lat="46.76018" lon="5.78524">
        <ele>561.8</ele>
        <time>2020-02-28T09:58:32Z</time>
      </trkpt>
      <trkpt lat="46.76027" lon="5.7852">
        <ele>561.6</ele>
        <time>2020-02-28T09:58:33Z</time>
      </trkpt>
      <trkpt lat="46.76037" lon="5.78517">
        <ele>561.4</ele>
        <time>2020-02-28T09:58:34Z</time>
      </trkpt>
      <trkpt lat="46.76046" lon="5.78514">
        <ele>561.2</ele>
        <time>2020-02-28T09:58:35Z</time>
      </trkpt>
      <trkpt lat="46.76055" lon="5.7851">
        <ele>561</ele>
        <time>2020-02-28T09:58:36Z</time>
      </trkpt>
      <trkpt lat="46.76064" lon="5.78506">
        <ele>560.8</ele>
        <time>2020-02-28T09:58:37Z</time>
      </trkpt>
      <trkpt lat="46.76072" lon="5.78502">
        <ele>560.4</ele>
        <time>2020-02-28T09:58:38Z</time>
      </trkpt>
      <trkpt lat="46.76079" lon="5.78497">
        <ele>560.4</ele>
        <time>2020-02-28T09:58:39Z</time>
      </trkpt>
      <trkpt lat="46.76087" lon="5.78493">
        <ele>560</ele>
        <time>2020-02-28T09:58:40Z</time>
      </trkpt>
      <trkpt lat="46.76094" lon="5.78489">
        <ele>560</ele>
        <time>2020-02-28T09:58:41Z</time>
      </trkpt>
      <trkpt lat="46.76101" lon="5.78484">
        <ele>559.6</ele>
        <time>2020-02-28T09:58:42Z</time>
      </trkpt>
      <trkpt lat="46.76109" lon="5.7848">
        <ele>559.6</ele>
        <time>2020-02-28T09:58:43Z</time>
      </trkpt>
      <trkpt lat="46.76117" lon="5.78476">
        <ele>559.4</ele>
        <time>2020-02-28T09:58:44Z</time>
      </trkpt>
      <trkpt lat="46.76124" lon="5.78473">
        <ele>559.4</ele>
        <time>2020-02-28T09:58:45Z</time>
      </trkpt>
      <trkpt lat="46.76132" lon="5.7847">
        <ele>559.4</ele>
        <time>2020-02-28T09:58:46Z</time>
      </trkpt>
      <trkpt lat="46.76139" lon="5.78467">
        <ele>559.4</ele>
        <time>2020-02-28T09:58:47Z</time>
      </trkpt>
      <trkpt lat="46.76146" lon="5.78464">
        <ele>559.4</ele>
        <time>2020-02-28T09:58:48Z</time>
      </trkpt>
      <trkpt lat="46.76153" lon="5.78462">
        <ele>559.4</ele>
        <time>2020-02-28T09:58:49Z</time>
      </trkpt>
      <trkpt lat="46.7616" lon="5.78459">
        <ele>559.4</ele>
        <time>2020-02-28T09:58:50Z</time>
      </trkpt>
      <trkpt lat="46.76171" lon="5.78455">
        <ele>559.4</ele>
        <time>2020-02-28T09:58:51Z</time>
      </trkpt>
      <trkpt lat="46.76175" lon="5.78454">
        <ele>559.4</ele>
        <time>2020-02-28T09:58:52Z</time>
      </trkpt>
      <trkpt lat="46.76182" lon="5.78451">
        <ele>559.4</ele>
        <time>2020-02-28T09:58:53Z</time>
      </trkpt>
      <trkpt lat="46.76189" lon="5.78448">
        <ele>559.4</ele>
        <time>2020-02-28T09:58:54Z</time>
      </trkpt>
      <trkpt lat="46.76196" lon="5.78446">
        <ele>559.4</ele>
        <time>2020-02-28T09:58:55Z</time>
      </trkpt>
      <trkpt lat="46.76203" lon="5.78445">
        <ele>559.4</ele>
        <time>2020-02-28T09:58:56Z</time>
      </trkpt>
      <trkpt lat="46.76213" lon="5.78441">
        <ele>559.4</ele>
        <time>2020-02-28T09:58:57Z</time>
      </trkpt>
      <trkpt lat="46.76217" lon="5.7844">
        <ele>559.2</ele>
        <time>2020-02-28T09:58:58Z</time>
      </trkpt>
      <trkpt lat="46.76223" lon="5.78438">
        <ele>559.2</ele>
        <time>2020-02-28T09:58:59Z</time>
      </trkpt>
      <trkpt lat="46.7623" lon="5.78436">
        <ele>559.2</ele>
        <time>2020-02-28T09:59:00Z</time>
      </trkpt>
      <trkpt lat="46.76236" lon="5.78433">
        <ele>559.2</ele>
        <time>2020-02-28T09:59:01Z</time>
      </trkpt>
      <trkpt lat="46.76243" lon="5.78432">
        <ele>559.2</ele>
        <time>2020-02-28T09:59:02Z</time>
      </trkpt>
      <trkpt lat="46.7625" lon="5.7843">
        <ele>559.2</ele>
        <time>2020-02-28T09:59:03Z</time>
      </trkpt>
      <trkpt lat="46.76257" lon="5.78429">
        <ele>559.2</ele>
        <time>2020-02-28T09:59:04Z</time>
      </trkpt>
      <trkpt lat="46.76263" lon="5.78426">
        <ele>559.2</ele>
        <time>2020-02-28T09:59:05Z</time>
      </trkpt>
      <trkpt lat="46.7627" lon="5.78425">
        <ele>559.2</ele>
        <time>2020-02-28T09:59:06Z</time>
      </trkpt>
      <trkpt lat="46.76277" lon="5.78424">
        <ele>559.2</ele>
        <time>2020-02-28T09:59:07Z</time>
      </trkpt>
      <trkpt lat="46.76283" lon="5.78422">
        <ele>559.2</ele>
        <time>2020-02-28T09:59:08Z</time>
      </trkpt>
      <trkpt lat="46.7629" lon="5.78421">
        <ele>559.2</ele>
        <time>2020-02-28T09:59:09Z</time>
      </trkpt>
      <trkpt lat="46.76296" lon="5.78419">
        <ele>559.2</ele>
        <time>2020-02-28T09:59:10Z</time>
      </trkpt>
      <trkpt lat="46.76302" lon="5.78417">
        <ele>559.2</ele>
        <time>2020-02-28T09:59:11Z</time>
      </trkpt>
      <trkpt lat="46.76308" lon="5.78415">
        <ele>559.4</ele>
        <time>2020-02-28T09:59:12Z</time>
      </trkpt>
      <trkpt lat="46.76314" lon="5.78414">
        <ele>559.4</ele>
        <time>2020-02-28T09:59:13Z</time>
      </trkpt>
      <trkpt lat="46.7632" lon="5.78412">
        <ele>559.4</ele>
        <time>2020-02-28T09:59:14Z</time>
      </trkpt>
      <trkpt lat="46.76327" lon="5.7841">
        <ele>559.4</ele>
        <time>2020-02-28T09:59:15Z</time>
      </trkpt>
      <trkpt lat="46.76333" lon="5.78409">
        <ele>559.4</ele>
        <time>2020-02-28T09:59:16Z</time>
      </trkpt>
      <trkpt lat="46.76339" lon="5.78407">
        <ele>559.4</ele>
        <time>2020-02-28T09:59:17Z</time>
      </trkpt>
      <trkpt lat="46.76345" lon="5.78405">
        <ele>559.4</ele>
        <time>2020-02-28T09:59:18Z</time>
      </trkpt>
      <trkpt lat="46.76351" lon="5.78404">
        <ele>559.4</ele>
        <time>2020-02-28T09:59:19Z</time>
      </trkpt>
      <trkpt lat="46.76356" lon="5.78402">
        <ele>559.4</ele>
        <time>2020-02-28T09:59:20Z</time>
      </trkpt>
      <trkpt lat="46.76362" lon="5.78401">
        <ele>559.4</ele>
        <time>2020-02-28T09:59:21Z</time>
      </trkpt>
      <trkpt lat="46.76367" lon="5.78399">
        <ele>559.4</ele>
        <time>2020-02-28T09:59:22Z</time>
      </trkpt>
      <trkpt lat="46.76373" lon="5.78398">
        <ele>559.8</ele>
        <time>2020-02-28T09:59:23Z</time>
      </trkpt>
      <trkpt lat="46.76378" lon="5.78396">
        <ele>559.8</ele>
        <time>2020-02-28T09:59:24Z</time>
      </trkpt>
      <trkpt lat="46.76384" lon="5.78395">
        <ele>559.8</ele>
        <time>2020-02-28T09:59:25Z</time>
      </trkpt>
      <trkpt lat="46.7639" lon="5.78393">
        <ele>559.8</ele>
        <time>2020-02-28T09:59:26Z</time>
      </trkpt>
      <trkpt lat="46.76395" lon="5.78392">
        <ele>559.8</ele>
        <time>2020-02-28T09:59:27Z</time>
      </trkpt>
      <trkpt lat="46.764" lon="5.7839">
        <ele>559.8</ele>
        <time>2020-02-28T09:59:28Z</time>
      </trkpt>
      <trkpt lat="46.76406" lon="5.78389">
        <ele>559.8</ele>
        <time>2020-02-28T09:59:29Z</time>
      </trkpt>
      <trkpt lat="46.76411" lon="5.78387">
        <ele>559.8</ele>
        <time>2020-02-28T09:59:30Z</time>
      </trkpt>
      <trkpt lat="46.76417" lon="5.78385">
        <ele>559.8</ele>
        <time>2020-02-28T09:59:31Z</time>
      </trkpt>
      <trkpt lat="46.76422" lon="5.78383">
        <ele>559.8</ele>
        <time>2020-02-28T09:59:32Z</time>
      </trkpt>
      <trkpt lat="46.76428" lon="5.78382">
        <ele>559.8</ele>
        <time>2020-02-28T09:59:33Z</time>
      </trkpt>
      <trkpt lat="46.76434" lon="5.7838">
        <ele>559.8</ele>
        <time>2020-02-28T09:59:34Z</time>
      </trkpt>
      <trkpt lat="46.76439" lon="5.78378">
        <ele>559.8</ele>
        <time>2020-02-28T09:59:35Z</time>
      </trkpt>
      <trkpt lat="46.76445" lon="5.78377">
        <ele>559.8</ele>
        <time>2020-02-28T09:59:36Z</time>
      </trkpt>
      <trkpt lat="46.7645" lon="5.78375">
        <ele>559.8</ele>
        <time>2020-02-28T09:59:37Z</time>
      </trkpt>
      <trkpt lat="46.76456" lon="5.78374">
        <ele>559.4</ele>
        <time>2020-02-28T09:59:38Z</time>
      </trkpt>
      <trkpt lat="46.76462" lon="5.78372">
        <ele>559.4</ele>
        <time>2020-02-28T09:59:39Z</time>
      </trkpt>
      <trkpt lat="46.76468" lon="5.78371">
        <ele>559.4</ele>
        <time>2020-02-28T09:59:40Z</time>
      </trkpt>
      <trkpt lat="46.76474" lon="5.78369">
        <ele>559.2</ele>
        <time>2020-02-28T09:59:41Z</time>
      </trkpt>
      <trkpt lat="46.7648" lon="5.78368">
        <ele>559.2</ele>
        <time>2020-02-28T09:59:42Z</time>
      </trkpt>
      <trkpt lat="46.76486" lon="5.78366">
        <ele>558.8</ele>
        <time>2020-02-28T09:59:43Z</time>
      </trkpt>
      <trkpt lat="46.76492" lon="5.78364">
        <ele>558.8</ele>
        <time>2020-02-28T09:59:44Z</time>
      </trkpt>
      <trkpt lat="46.76498" lon="5.78363">
        <ele>558.6</ele>
        <time>2020-02-28T09:59:45Z</time>
      </trkpt>
      <trkpt lat="46.76504" lon="5.78361">
        <ele>558.6</ele>
        <time>2020-02-28T09:59:46Z</time>
      </trkpt>
      <trkpt lat="46.7651" lon="5.78359">
        <ele>558.4</ele>
        <time>2020-02-28T09:59:47Z</time>
      </trkpt>
      <trkpt lat="46.76516" lon="5.78358">
        <ele>558.4</ele>
        <time>2020-02-28T09:59:48Z</time>
      </trkpt>
      <trkpt lat="46.76522" lon="5.78356">
        <ele>558</ele>
        <time>2020-02-28T09:59:49Z</time>
      </trkpt>
      <trkpt lat="46.76529" lon="5.78355">
        <ele>558</ele>
        <time>2020-02-28T09:59:50Z</time>
      </trkpt>
      <trkpt lat="46.76535" lon="5.78353">
        <ele>557.8</ele>
        <time>2020-02-28T09:59:51Z</time>
      </trkpt>
      <trkpt lat="46.76541" lon="5.78352">
        <ele>557.8</ele>
        <time>2020-02-28T09:59:52Z</time>
      </trkpt>
      <trkpt lat="46.76547" lon="5.7835">
        <ele>557.6</ele>
        <time>2020-02-28T09:59:53Z</time>
      </trkpt>
      <trkpt lat="46.76554" lon="5.78349">
        <ele>557.6</ele>
        <time>2020-02-28T09:59:54Z</time>
      </trkpt>
      <trkpt lat="46.7656" lon="5.78347">
        <ele>557.2</ele>
        <time>2020-02-28T09:59:55Z</time>
      </trkpt>
      <trkpt lat="46.76566" lon="5.78345">
        <ele>557</ele>
        <time>2020-02-28T09:59:56Z</time>
      </trkpt>
      <trkpt lat="46.76572" lon="5.78344">
        <ele>557</ele>
        <time>2020-02-28T09:59:57Z</time>
      </trkpt>
      <trkpt lat="46.76578" lon="5.78343">
        <ele>557</ele>
        <time>2020-02-28T09:59:58Z</time>
      </trkpt>
      <trkpt lat="46.76584" lon="5.78341">
        <ele>557</ele>
        <time>2020-02-28T09:59:59Z</time>
      </trkpt>
      <trkpt lat="46.76589" lon="5.7834">
        <ele>557</ele>
        <time>2020-02-28T10:00:00Z</time>
      </trkpt>
      <trkpt lat="46.76595" lon="5.78338">
        <ele>557</ele>
        <time>2020-02-28T10:00:01Z</time>
      </trkpt>
      <trkpt lat="46.76601" lon="5.78337">
        <ele>557</ele>
        <time>2020-02-28T10:00:02Z</time>
      </trkpt>
      <trkpt lat="46.76606" lon="5.78335">
        <ele>557</ele>
        <time>2020-02-28T10:00:03Z</time>
      </trkpt>
      <trkpt lat="46.76612" lon="5.78333">
        <ele>557</ele>
        <time>2020-02-28T10:00:04Z</time>
      </trkpt>
      <trkpt lat="46.76617" lon="5.78331">
        <ele>557</ele>
        <time>2020-02-28T10:00:05Z</time>
      </trkpt>
      <trkpt lat="46.76623" lon="5.7833">
        <ele>557</ele>
        <time>2020-02-28T10:00:06Z</time>
      </trkpt>
      <trkpt lat="46.76631" lon="5.78328">
        <ele>557</ele>
        <time>2020-02-28T10:00:07Z</time>
      </trkpt>
      <trkpt lat="46.76633" lon="5.78327">
        <ele>557</ele>
        <time>2020-02-28T10:00:08Z</time>
      </trkpt>
      <trkpt lat="46.76639" lon="5.78326">
        <ele>557</ele>
        <time>2020-02-28T10:00:09Z</time>
      </trkpt>
      <trkpt lat="46.76644" lon="5.78325">
        <ele>557</ele>
        <time>2020-02-28T10:00:10Z</time>
      </trkpt>
      <trkpt lat="46.7665" lon="5.78323">
        <ele>557</ele>
        <time>2020-02-28T10:00:11Z</time>
      </trkpt>
      <trkpt lat="46.76655" lon="5.78322">
        <ele>557</ele>
        <time>2020-02-28T10:00:12Z</time>
      </trkpt>
      <trkpt lat="46.7666" lon="5.78321">
        <ele>557</ele>
        <time>2020-02-28T10:00:13Z</time>
      </trkpt>
      <trkpt lat="46.76665" lon="5.78319">
        <ele>557</ele>
        <time>2020-02-28T10:00:14Z</time>
      </trkpt>
      <trkpt lat="46.7667" lon="5.78318">
        <ele>557</ele>
        <time>2020-02-28T10:00:15Z</time>
      </trkpt>
      <trkpt lat="46.76675" lon="5.78316">
        <ele>557</ele>
        <time>2020-02-28T10:00:16Z</time>
      </trkpt>
      <trkpt lat="46.7668" lon="5.78315">
        <ele>557</ele>
        <time>2020-02-28T10:00:17Z</time>
      </trkpt>
      <trkpt lat="46.76685" lon="5.78313">
        <ele>557</ele>
        <time>2020-02-28T10:00:18Z</time>
      </trkpt>
      <trkpt lat="46.7669" lon="5.78312">
        <ele>556.8</ele>
        <time>2020-02-28T10:00:19Z</time>
      </trkpt>
      <trkpt lat="46.76694" lon="5.78311">
        <ele>556.8</ele>
        <time>2020-02-28T10:00:20Z</time>
      </trkpt>
      <trkpt lat="46.76699" lon="5.78309">
        <ele>556.8</ele>
        <time>2020-02-28T10:00:21Z</time>
      </trkpt>
      <trkpt lat="46.76704" lon="5.78308">
        <ele>556.8</ele>
        <time>2020-02-28T10:00:22Z</time>
      </trkpt>
      <trkpt lat="46.76709" lon="5.78307">
        <ele>556.8</ele>
        <time>2020-02-28T10:00:23Z</time>
      </trkpt>
      <trkpt lat="46.76714" lon="5.78306">
        <ele>556.8</ele>
        <time>2020-02-28T10:00:24Z</time>
      </trkpt>
      <trkpt lat="46.76718" lon="5.78304">
        <ele>556.6</ele>
        <time>2020-02-28T10:00:25Z</time>
      </trkpt>
      <trkpt lat="46.76723" lon="5.78303">
        <ele>556.6</ele>
        <time>2020-02-28T10:00:26Z</time>
      </trkpt>
      <trkpt lat="46.76728" lon="5.78302">
        <ele>556.6</ele>
        <time>2020-02-28T10:00:27Z</time>
      </trkpt>
      <trkpt lat="46.76733" lon="5.78301">
        <ele>556.6</ele>
        <time>2020-02-28T10:00:28Z</time>
      </trkpt>
      <trkpt lat="46.76739" lon="5.78299">
        <ele>556.4</ele>
        <time>2020-02-28T10:00:29Z</time>
      </trkpt>
      <trkpt lat="46.76744" lon="5.78298">
        <ele>556.4</ele>
        <time>2020-02-28T10:00:30Z</time>
      </trkpt>
      <trkpt lat="46.76749" lon="5.78297">
        <ele>556.4</ele>
        <time>2020-02-28T10:00:31Z</time>
      </trkpt>
      <trkpt lat="46.76754" lon="5.78296">
        <ele>556.4</ele>
        <time>2020-02-28T10:00:32Z</time>
      </trkpt>
      <trkpt lat="46.76759" lon="5.78294">
        <ele>556.4</ele>
        <time>2020-02-28T10:00:33Z</time>
      </trkpt>
      <trkpt lat="46.76764" lon="5.78293">
        <ele>556.2</ele>
        <time>2020-02-28T10:00:34Z</time>
      </trkpt>
      <trkpt lat="46.76769" lon="5.78291">
        <ele>556.2</ele>
        <time>2020-02-28T10:00:35Z</time>
      </trkpt>
      <trkpt lat="46.76774" lon="5.7829">
        <ele>556.2</ele>
        <time>2020-02-28T10:00:36Z</time>
      </trkpt>
      <trkpt lat="46.7678" lon="5.78289">
        <ele>556.2</ele>
        <time>2020-02-28T10:00:37Z</time>
      </trkpt>
      <trkpt lat="46.76785" lon="5.78288">
        <ele>556.2</ele>
        <time>2020-02-28T10:00:38Z</time>
      </trkpt>
      <trkpt lat="46.7679" lon="5.78287">
        <ele>556.2</ele>
        <time>2020-02-28T10:00:39Z</time>
      </trkpt>
      <trkpt lat="46.76795" lon="5.78285">
        <ele>555.8</ele>
        <time>2020-02-28T10:00:40Z</time>
      </trkpt>
      <trkpt lat="46.768" lon="5.78284">
        <ele>555.8</ele>
        <time>2020-02-28T10:00:41Z</time>
      </trkpt>
      <trkpt lat="46.76805" lon="5.78283">
        <ele>555.8</ele>
        <time>2020-02-28T10:00:42Z</time>
      </trkpt>
      <trkpt lat="46.7681" lon="5.78282">
        <ele>555.8</ele>
        <time>2020-02-28T10:00:43Z</time>
      </trkpt>
      <trkpt lat="46.76815" lon="5.7828">
        <ele>556</ele>
        <time>2020-02-28T10:00:44Z</time>
      </trkpt>
      <trkpt lat="46.7682" lon="5.78279">
        <ele>556</ele>
        <time>2020-02-28T10:00:45Z</time>
      </trkpt>
      <trkpt lat="46.76824" lon="5.78278">
        <ele>556</ele>
        <time>2020-02-28T10:00:46Z</time>
      </trkpt>
      <trkpt lat="46.76828" lon="5.78277">
        <ele>556</ele>
        <time>2020-02-28T10:00:47Z</time>
      </trkpt>
      <trkpt lat="46.76833" lon="5.78275">
        <ele>556</ele>
        <time>2020-02-28T10:00:48Z</time>
      </trkpt>
      <trkpt lat="46.76837" lon="5.78274">
        <ele>556</ele>
        <time>2020-02-28T10:00:49Z</time>
      </trkpt>
      <trkpt lat="46.76842" lon="5.78273">
        <ele>556</ele>
        <time>2020-02-28T10:00:50Z</time>
      </trkpt>
      <trkpt lat="46.76847" lon="5.78271">
        <ele>556</ele>
        <time>2020-02-28T10:00:51Z</time>
      </trkpt>
      <trkpt lat="46.76852" lon="5.7827">
        <ele>556</ele>
        <time>2020-02-28T10:00:52Z</time>
      </trkpt>
      <trkpt lat="46.76857" lon="5.78268">
        <ele>555.8</ele>
        <time>2020-02-28T10:00:53Z</time>
      </trkpt>
      <trkpt lat="46.76862" lon="5.78266">
        <ele>555.8</ele>
        <time>2020-02-28T10:00:54Z</time>
      </trkpt>
      <trkpt lat="46.76867" lon="5.78264">
        <ele>555.8</ele>
        <time>2020-02-28T10:00:55Z</time>
      </trkpt>
      <trkpt lat="46.76871" lon="5.78262">
        <ele>555.8</ele>
        <time>2020-02-28T10:00:56Z</time>
      </trkpt>
      <trkpt lat="46.76876" lon="5.78261">
        <ele>555.8</ele>
        <time>2020-02-28T10:00:57Z</time>
      </trkpt>
      <trkpt lat="46.7688" lon="5.78259">
        <ele>555.8</ele>
        <time>2020-02-28T10:00:58Z</time>
      </trkpt>
      <trkpt lat="46.76885" lon="5.78257">
        <ele>555.8</ele>
        <time>2020-02-28T10:00:59Z</time>
      </trkpt>
      <trkpt lat="46.7689" lon="5.78256">
        <ele>555.8</ele>
        <time>2020-02-28T10:01:00Z</time>
      </trkpt>
      <trkpt lat="46.76895" lon="5.78253">
        <ele>555.6</ele>
        <time>2020-02-28T10:01:01Z</time>
      </trkpt>
      <trkpt lat="46.76899" lon="5.78251">
        <ele>555.6</ele>
        <time>2020-02-28T10:01:02Z</time>
      </trkpt>
      <trkpt lat="46.76903" lon="5.78248">
        <ele>555.6</ele>
        <time>2020-02-28T10:01:03Z</time>
      </trkpt>
      <trkpt lat="46.76908" lon="5.78247">
        <ele>555.6</ele>
        <time>2020-02-28T10:01:04Z</time>
      </trkpt>
      <trkpt lat="46.76912" lon="5.78244">
        <ele>555.6</ele>
        <time>2020-02-28T10:01:05Z</time>
      </trkpt>
      <trkpt lat="46.76916" lon="5.78243">
        <ele>555.6</ele>
        <time>2020-02-28T10:01:06Z</time>
      </trkpt>
      <trkpt lat="46.76921" lon="5.78241">
        <ele>555.6</ele>
        <time>2020-02-28T10:01:07Z</time>
      </trkpt>
      <trkpt lat="46.76925" lon="5.78239">
        <ele>555.4</ele>
        <time>2020-02-28T10:01:08Z</time>
      </trkpt>
      <trkpt lat="46.7693" lon="5.78237">
        <ele>555.4</ele>
        <time>2020-02-28T10:01:09Z</time>
      </trkpt>
      <trkpt lat="46.76935" lon="5.78235">
        <ele>555.4</ele>
        <time>2020-02-28T10:01:10Z</time>
      </trkpt>
      <trkpt lat="46.76939" lon="5.78234">
        <ele>555.2</ele>
        <time>2020-02-28T10:01:11Z</time>
      </trkpt>
      <trkpt lat="46.76944" lon="5.78232">
        <ele>555.2</ele>
        <time>2020-02-28T10:01:12Z</time>
      </trkpt>
      <trkpt lat="46.76948" lon="5.78231">
        <ele>555.2</ele>
        <time>2020-02-28T10:01:13Z</time>
      </trkpt>
      <trkpt lat="46.76952" lon="5.78229">
        <ele>555.2</ele>
        <time>2020-02-28T10:01:14Z</time>
      </trkpt>
      <trkpt lat="46.76957" lon="5.78228">
        <ele>554.8</ele>
        <time>2020-02-28T10:01:15Z</time>
      </trkpt>
      <trkpt lat="46.76962" lon="5.78226">
        <ele>554.8</ele>
        <time>2020-02-28T10:01:16Z</time>
      </trkpt>
      <trkpt lat="46.76966" lon="5.78225">
        <ele>554.6</ele>
        <time>2020-02-28T10:01:17Z</time>
      </trkpt>
      <trkpt lat="46.76971" lon="5.78223">
        <ele>554.4</ele>
        <time>2020-02-28T10:01:18Z</time>
      </trkpt>
      <trkpt lat="46.76976" lon="5.78222">
        <ele>554.2</ele>
        <time>2020-02-28T10:01:19Z</time>
      </trkpt>
      <trkpt lat="46.76981" lon="5.78221">
        <ele>554.2</ele>
        <time>2020-02-28T10:01:20Z</time>
      </trkpt>
      <trkpt lat="46.76986" lon="5.7822">
        <ele>553.8</ele>
        <time>2020-02-28T10:01:21Z</time>
      </trkpt>
      <trkpt lat="46.76992" lon="5.78219">
        <ele>553.4</ele>
        <time>2020-02-28T10:01:22Z</time>
      </trkpt>
      <trkpt lat="46.76997" lon="5.78218">
        <ele>553.2</ele>
        <time>2020-02-28T10:01:23Z</time>
      </trkpt>
      <trkpt lat="46.77003" lon="5.78218">
        <ele>552.8</ele>
        <time>2020-02-28T10:01:24Z</time>
      </trkpt>
      <trkpt lat="46.77009" lon="5.78216">
        <ele>552.6</ele>
        <time>2020-02-28T10:01:25Z</time>
      </trkpt>
      <trkpt lat="46.77014" lon="5.78215">
        <ele>552.2</ele>
        <time>2020-02-28T10:01:26Z</time>
      </trkpt>
      <trkpt lat="46.7702" lon="5.78213">
        <ele>551.8</ele>
        <time>2020-02-28T10:01:27Z</time>
      </trkpt>
      <trkpt lat="46.77025" lon="5.78211">
        <ele>551.6</ele>
        <time>2020-02-28T10:01:28Z</time>
      </trkpt>
      <trkpt lat="46.77031" lon="5.78209">
        <ele>551.2</ele>
        <time>2020-02-28T10:01:29Z</time>
      </trkpt>
      <trkpt lat="46.77037" lon="5.78207">
        <ele>550.8</ele>
        <time>2020-02-28T10:01:30Z</time>
      </trkpt>
      <trkpt lat="46.77043" lon="5.78206">
        <ele>550.6</ele>
        <time>2020-02-28T10:01:31Z</time>
      </trkpt>
      <trkpt lat="46.77048" lon="5.78205">
        <ele>550.2</ele>
        <time>2020-02-28T10:01:32Z</time>
      </trkpt>
      <trkpt lat="46.77054" lon="5.78204">
        <ele>549.8</ele>
        <time>2020-02-28T10:01:33Z</time>
      </trkpt>
      <trkpt lat="46.77059" lon="5.78203">
        <ele>549.6</ele>
        <time>2020-02-28T10:01:34Z</time>
      </trkpt>
      <trkpt lat="46.77065" lon="5.78202">
        <ele>549.2</ele>
        <time>2020-02-28T10:01:35Z</time>
      </trkpt>
      <trkpt lat="46.77071" lon="5.78202">
        <ele>548.8</ele>
        <time>2020-02-28T10:01:36Z</time>
      </trkpt>
      <trkpt lat="46.77078" lon="5.782">
        <ele>548.6</ele>
        <time>2020-02-28T10:01:37Z</time>
      </trkpt>
      <trkpt lat="46.77084" lon="5.78199">
        <ele>548.2</ele>
        <time>2020-02-28T10:01:38Z</time>
      </trkpt>
      <trkpt lat="46.77089" lon="5.78197">
        <ele>548</ele>
        <time>2020-02-28T10:01:39Z</time>
      </trkpt>
      <trkpt lat="46.77095" lon="5.78196">
        <ele>547.8</ele>
        <time>2020-02-28T10:01:40Z</time>
      </trkpt>
      <trkpt lat="46.771" lon="5.78196">
        <ele>547.6</ele>
        <time>2020-02-28T10:01:41Z</time>
      </trkpt>
      <trkpt lat="46.77106" lon="5.78196">
        <ele>547.4</ele>
        <time>2020-02-28T10:01:42Z</time>
      </trkpt>
      <trkpt lat="46.77111" lon="5.78196">
        <ele>547</ele>
        <time>2020-02-28T10:01:43Z</time>
      </trkpt>
      <trkpt lat="46.77115" lon="5.78194">
        <ele>546.8</ele>
        <time>2020-02-28T10:01:44Z</time>
      </trkpt>
      <trkpt lat="46.7712" lon="5.78193">
        <ele>546.6</ele>
        <time>2020-02-28T10:01:45Z</time>
      </trkpt>
      <trkpt lat="46.77125" lon="5.78193">
        <ele>546.4</ele>
        <time>2020-02-28T10:01:46Z</time>
      </trkpt>
      <trkpt lat="46.7713" lon="5.78192">
        <ele>546.2</ele>
        <time>2020-02-28T10:01:47Z</time>
      </trkpt>
      <trkpt lat="46.77134" lon="5.7819">
        <ele>545.8</ele>
        <time>2020-02-28T10:01:48Z</time>
      </trkpt>
      <trkpt lat="46.77139" lon="5.78189">
        <ele>545.6</ele>
        <time>2020-02-28T10:01:49Z</time>
      </trkpt>
      <trkpt lat="46.77144" lon="5.78188">
        <ele>545.4</ele>
        <time>2020-02-28T10:01:50Z</time>
      </trkpt>
      <trkpt lat="46.77149" lon="5.78187">
        <ele>545.4</ele>
        <time>2020-02-28T10:01:51Z</time>
      </trkpt>
      <trkpt lat="46.77153" lon="5.78185">
        <ele>545.2</ele>
        <time>2020-02-28T10:01:52Z</time>
      </trkpt>
      <trkpt lat="46.77156" lon="5.78185">
        <ele>545.2</ele>
        <time>2020-02-28T10:01:53Z</time>
      </trkpt>
      <trkpt lat="46.7716" lon="5.78184">
        <ele>545.2</ele>
        <time>2020-02-28T10:01:54Z</time>
      </trkpt>
      <trkpt lat="46.77163" lon="5.78185">
        <ele>545.2</ele>
        <time>2020-02-28T10:01:55Z</time>
      </trkpt>
      <trkpt lat="46.77165" lon="5.78185">
        <ele>545.2</ele>
        <time>2020-02-28T10:01:56Z</time>
      </trkpt>
      <trkpt lat="46.77167" lon="5.78184">
        <ele>545.2</ele>
        <time>2020-02-28T10:01:57Z</time>
      </trkpt>
      <trkpt lat="46.7717" lon="5.78184">
        <ele>545.2</ele>
        <time>2020-02-28T10:01:58Z</time>
      </trkpt>
      <trkpt lat="46.77172" lon="5.78184">
        <ele>545.2</ele>
        <time>2020-02-28T10:01:59Z</time>
      </trkpt>
      <trkpt lat="46.77174" lon="5.78184">
        <ele>545.2</ele>
        <time>2020-02-28T10:02:00Z</time>
      </trkpt>
      <trkpt lat="46.77176" lon="5.78183">
        <ele>545.2</ele>
        <time>2020-02-28T10:02:01Z</time>
      </trkpt>
      <trkpt lat="46.77178" lon="5.78183">
        <ele>545.2</ele>
        <time>2020-02-28T10:02:02Z</time>
      </trkpt>
      <trkpt lat="46.77181" lon="5.78183">
        <ele>544.8</ele>
        <time>2020-02-28T10:02:03Z</time>
      </trkpt>
      <trkpt lat="46.77183" lon="5.78182">
        <ele>544.8</ele>
        <time>2020-02-28T10:02:04Z</time>
      </trkpt>
      <trkpt lat="46.77185" lon="5.78182">
        <ele>544.8</ele>
        <time>2020-02-28T10:02:05Z</time>
      </trkpt>
      <trkpt lat="46.77187" lon="5.78181">
        <ele>544.6</ele>
        <time>2020-02-28T10:02:28Z</time>
      </trkpt>
      <trkpt lat="46.77189" lon="5.78181">
        <ele>544.6</ele>
        <time>2020-02-28T10:02:29Z</time>
      </trkpt>
      <trkpt lat="46.77191" lon="5.78181">
        <ele>544.6</ele>
        <time>2020-02-28T10:02:30Z</time>
      </trkpt>
      <trkpt lat="46.77194" lon="5.78182">
        <ele>544.4</ele>
        <time>2020-02-28T10:02:31Z</time>
      </trkpt>
      <trkpt lat="46.77198" lon="5.78183">
        <ele>544.4</ele>
        <time>2020-02-28T10:02:32Z</time>
      </trkpt>
      <trkpt lat="46.77202" lon="5.78183">
        <ele>544</ele>
        <time>2020-02-28T10:02:33Z</time>
      </trkpt>
      <trkpt lat="46.77205" lon="5.78183">
        <ele>544</ele>
        <time>2020-02-28T10:02:34Z</time>
      </trkpt>
      <trkpt lat="46.77209" lon="5.78183">
        <ele>543.6</ele>
        <time>2020-02-28T10:02:35Z</time>
      </trkpt>
      <trkpt lat="46.77213" lon="5.78183">
        <ele>543.6</ele>
        <time>2020-02-28T10:02:36Z</time>
      </trkpt>
      <trkpt lat="46.77217" lon="5.78182">
        <ele>543.2</ele>
        <time>2020-02-28T10:02:37Z</time>
      </trkpt>
      <trkpt lat="46.7722" lon="5.78181">
        <ele>542.8</ele>
        <time>2020-02-28T10:02:38Z</time>
      </trkpt>
      <trkpt lat="46.77223" lon="5.7818">
        <ele>542.6</ele>
        <time>2020-02-28T10:02:39Z</time>
      </trkpt>
      <trkpt lat="46.77226" lon="5.7818">
        <ele>542.4</ele>
        <time>2020-02-28T10:02:40Z</time>
      </trkpt>
      <trkpt lat="46.77229" lon="5.78179">
        <ele>542.2</ele>
        <time>2020-02-28T10:02:41Z</time>
      </trkpt>
      <trkpt lat="46.77233" lon="5.78178">
        <ele>541.8</ele>
        <time>2020-02-28T10:02:42Z</time>
      </trkpt>
      <trkpt lat="46.77237" lon="5.78178">
        <ele>541.6</ele>
        <time>2020-02-28T10:02:43Z</time>
      </trkpt>
      <trkpt lat="46.77242" lon="5.78177">
        <ele>541.2</ele>
        <time>2020-02-28T10:02:44Z</time>
      </trkpt>
      <trkpt lat="46.77247" lon="5.78177">
        <ele>541</ele>
        <time>2020-02-28T10:02:45Z</time>
      </trkpt>
      <trkpt lat="46.77252" lon="5.78177">
        <ele>540.6</ele>
        <time>2020-02-28T10:02:46Z</time>
      </trkpt>
      <trkpt lat="46.77259" lon="5.78177">
        <ele>540.2</ele>
        <time>2020-02-28T10:02:47Z</time>
      </trkpt>
      <trkpt lat="46.77265" lon="5.78177">
        <ele>539.6</ele>
        <time>2020-02-28T10:02:48Z</time>
      </trkpt>
      <trkpt lat="46.77272" lon="5.78177">
        <ele>539.2</ele>
        <time>2020-02-28T10:02:49Z</time>
      </trkpt>
      <trkpt lat="46.77279" lon="5.78177">
        <ele>539</ele>
        <time>2020-02-28T10:02:50Z</time>
      </trkpt>
      <trkpt lat="46.77287" lon="5.78177">
        <ele>538.6</ele>
        <time>2020-02-28T10:02:51Z</time>
      </trkpt>
      <trkpt lat="46.77294" lon="5.78176">
        <ele>538.2</ele>
        <time>2020-02-28T10:02:52Z</time>
      </trkpt>
      <trkpt lat="46.773" lon="5.78175">
        <ele>537.8</ele>
        <time>2020-02-28T10:02:53Z</time>
      </trkpt>
      <trkpt lat="46.77306" lon="5.78175">
        <ele>537.2</ele>
        <time>2020-02-28T10:02:54Z</time>
      </trkpt>
      <trkpt lat="46.77313" lon="5.78174">
        <ele>536.8</ele>
        <time>2020-02-28T10:02:55Z</time>
      </trkpt>
      <trkpt lat="46.7732" lon="5.78173">
        <ele>536.2</ele>
        <time>2020-02-28T10:02:56Z</time>
      </trkpt>
      <trkpt lat="46.77326" lon="5.78172">
        <ele>535.8</ele>
        <time>2020-02-28T10:02:57Z</time>
      </trkpt>
      <trkpt lat="46.77332" lon="5.78171">
        <ele>535.4</ele>
        <time>2020-02-28T10:02:58Z</time>
      </trkpt>
      <trkpt lat="46.77339" lon="5.7817">
        <ele>534.8</ele>
        <time>2020-02-28T10:02:59Z</time>
      </trkpt>
      <trkpt lat="46.77344" lon="5.7817">
        <ele>534.6</ele>
        <time>2020-02-28T10:03:00Z</time>
      </trkpt>
      <trkpt lat="46.7735" lon="5.78169">
        <ele>534.2</ele>
        <time>2020-02-28T10:03:01Z</time>
      </trkpt>
      <trkpt lat="46.77357" lon="5.78168">
        <ele>533.6</ele>
        <time>2020-02-28T10:03:02Z</time>
      </trkpt>
      <trkpt lat="46.77363" lon="5.78167">
        <ele>533.2</ele>
        <time>2020-02-28T10:03:03Z</time>
      </trkpt>
      <trkpt lat="46.77368" lon="5.78166">
        <ele>532.8</ele>
        <time>2020-02-28T10:03:04Z</time>
      </trkpt>
      <trkpt lat="46.77374" lon="5.78166">
        <ele>532.2</ele>
        <time>2020-02-28T10:03:05Z</time>
      </trkpt>
      <trkpt lat="46.77381" lon="5.78165">
        <ele>531.8</ele>
        <time>2020-02-28T10:03:06Z</time>
      </trkpt>
      <trkpt lat="46.77387" lon="5.78164">
        <ele>531.4</ele>
        <time>2020-02-28T10:03:07Z</time>
      </trkpt>
      <trkpt lat="46.77392" lon="5.78164">
        <ele>531</ele>
        <time>2020-02-28T10:03:08Z</time>
      </trkpt>
      <trkpt lat="46.77399" lon="5.78163">
        <ele>530.6</ele>
        <time>2020-02-28T10:03:09Z</time>
      </trkpt>
      <trkpt lat="46.77404" lon="5.78162">
        <ele>530.2</ele>
        <time>2020-02-28T10:03:10Z</time>
      </trkpt>
      <trkpt lat="46.77412" lon="5.78162">
        <ele>529.8</ele>
        <time>2020-02-28T10:03:11Z</time>
      </trkpt>
      <trkpt lat="46.7742" lon="5.78162">
        <ele>529.4</ele>
        <time>2020-02-28T10:03:12Z</time>
      </trkpt>
      <trkpt lat="46.77428" lon="5.78164">
        <ele>528.8</ele>
        <time>2020-02-28T10:03:13Z</time>
      </trkpt>
      <trkpt lat="46.77436" lon="5.78168">
        <ele>528.4</ele>
        <time>2020-02-28T10:03:14Z</time>
      </trkpt>
      <trkpt lat="46.77444" lon="5.78174">
        <ele>527.8</ele>
        <time>2020-02-28T10:03:15Z</time>
      </trkpt>
      <trkpt lat="46.77454" lon="5.78182">
        <ele>527.4</ele>
        <time>2020-02-28T10:03:16Z</time>
      </trkpt>
      <trkpt lat="46.77461" lon="5.78191">
        <ele>526.8</ele>
        <time>2020-02-28T10:03:17Z</time>
      </trkpt>
      <trkpt lat="46.77467" lon="5.78202">
        <ele>526.4</ele>
        <time>2020-02-28T10:03:18Z</time>
      </trkpt>
      <trkpt lat="46.77471" lon="5.78214">
        <ele>525.8</ele>
        <time>2020-02-28T10:03:19Z</time>
      </trkpt>
      <trkpt lat="46.77475" lon="5.78226">
        <ele>525.4</ele>
        <time>2020-02-28T10:03:20Z</time>
      </trkpt>
      <trkpt lat="46.77478" lon="5.78239">
        <ele>525</ele>
        <time>2020-02-28T10:03:21Z</time>
      </trkpt>
      <trkpt lat="46.77481" lon="5.78251">
        <ele>524.4</ele>
        <time>2020-02-28T10:03:22Z</time>
      </trkpt>
      <trkpt lat="46.77484" lon="5.78264">
        <ele>524</ele>
        <time>2020-02-28T10:03:23Z</time>
      </trkpt>
      <trkpt lat="46.77487" lon="5.78276">
        <ele>523.6</ele>
        <time>2020-02-28T10:03:24Z</time>
      </trkpt>
      <trkpt lat="46.7749" lon="5.78289">
        <ele>523.2</ele>
        <time>2020-02-28T10:03:25Z</time>
      </trkpt>
      <trkpt lat="46.77493" lon="5.78302">
        <ele>522.8</ele>
        <time>2020-02-28T10:03:26Z</time>
      </trkpt>
      <trkpt lat="46.77497" lon="5.78315">
        <ele>522.4</ele>
        <time>2020-02-28T10:03:27Z</time>
      </trkpt>
      <trkpt lat="46.77502" lon="5.78328">
        <ele>522.2</ele>
        <time>2020-02-28T10:03:28Z</time>
      </trkpt>
      <trkpt lat="46.77506" lon="5.78342">
        <ele>521.8</ele>
        <time>2020-02-28T10:03:29Z</time>
      </trkpt>
      <trkpt lat="46.77508" lon="5.78354">
        <ele>521.6</ele>
        <time>2020-02-28T10:03:30Z</time>
      </trkpt>
      <trkpt lat="46.77511" lon="5.78367">
        <ele>521.4</ele>
        <time>2020-02-28T10:03:31Z</time>
      </trkpt>
      <trkpt lat="46.77513" lon="5.7838">
        <ele>521.4</ele>
        <time>2020-02-28T10:03:32Z</time>
      </trkpt>
      <trkpt lat="46.77515" lon="5.78392">
        <ele>521</ele>
        <time>2020-02-28T10:03:33Z</time>
      </trkpt>
      <trkpt lat="46.77517" lon="5.78404">
        <ele>521</ele>
        <time>2020-02-28T10:03:34Z</time>
      </trkpt>
      <trkpt lat="46.77519" lon="5.78416">
        <ele>521</ele>
        <time>2020-02-28T10:03:35Z</time>
      </trkpt>
      <trkpt lat="46.77521" lon="5.78427">
        <ele>521</ele>
        <time>2020-02-28T10:03:36Z</time>
      </trkpt>
      <trkpt lat="46.77523" lon="5.78438">
        <ele>521</ele>
        <time>2020-02-28T10:03:37Z</time>
      </trkpt>
      <trkpt lat="46.77525" lon="5.78449">
        <ele>521</ele>
        <time>2020-02-28T10:03:38Z</time>
      </trkpt>
      <trkpt lat="46.77527" lon="5.7846">
        <ele>521</ele>
        <time>2020-02-28T10:03:39Z</time>
      </trkpt>
      <trkpt lat="46.7753" lon="5.78471">
        <ele>521</ele>
        <time>2020-02-28T10:03:40Z</time>
      </trkpt>
      <trkpt lat="46.77533" lon="5.78481">
        <ele>521</ele>
        <time>2020-02-28T10:03:41Z</time>
      </trkpt>
      <trkpt lat="46.77537" lon="5.78491">
        <ele>521</ele>
        <time>2020-02-28T10:03:42Z</time>
      </trkpt>
      <trkpt lat="46.77542" lon="5.785">
        <ele>521</ele>
        <time>2020-02-28T10:03:43Z</time>
      </trkpt>
      <trkpt lat="46.77547" lon="5.78508">
        <ele>521</ele>
        <time>2020-02-28T10:03:44Z</time>
      </trkpt>
      <trkpt lat="46.77553" lon="5.78516">
        <ele>521.2</ele>
        <time>2020-02-28T10:03:45Z</time>
      </trkpt>
      <trkpt lat="46.77559" lon="5.78523">
        <ele>521.2</ele>
        <time>2020-02-28T10:03:46Z</time>
      </trkpt>
      <trkpt lat="46.77565" lon="5.7853">
        <ele>521.2</ele>
        <time>2020-02-28T10:03:47Z</time>
      </trkpt>
      <trkpt lat="46.77571" lon="5.78537">
        <ele>521.2</ele>
        <time>2020-02-28T10:03:48Z</time>
      </trkpt>
      <trkpt lat="46.77577" lon="5.78544">
        <ele>521.2</ele>
        <time>2020-02-28T10:03:49Z</time>
      </trkpt>
      <trkpt lat="46.77583" lon="5.78551">
        <ele>521.2</ele>
        <time>2020-02-28T10:03:50Z</time>
      </trkpt>
      <trkpt lat="46.77589" lon="5.78558">
        <ele>521.2</ele>
        <time>2020-02-28T10:03:51Z</time>
      </trkpt>
      <trkpt lat="46.77595" lon="5.78566">
        <ele>521.2</ele>
        <time>2020-02-28T10:03:52Z</time>
      </trkpt>
      <trkpt lat="46.776" lon="5.78573">
        <ele>521.2</ele>
        <time>2020-02-28T10:03:53Z</time>
      </trkpt>
      <trkpt lat="46.77606" lon="5.78579">
        <ele>521.2</ele>
        <time>2020-02-28T10:03:54Z</time>
      </trkpt>
      <trkpt lat="46.77612" lon="5.78586">
        <ele>521.2</ele>
        <time>2020-02-28T10:03:55Z</time>
      </trkpt>
      <trkpt lat="46.77618" lon="5.78593">
        <ele>521.2</ele>
        <time>2020-02-28T10:03:56Z</time>
      </trkpt>
      <trkpt lat="46.77624" lon="5.786">
        <ele>521.2</ele>
        <time>2020-02-28T10:03:57Z</time>
      </trkpt>
      <trkpt lat="46.7763" lon="5.78607">
        <ele>521.2</ele>
        <time>2020-02-28T10:03:58Z</time>
      </trkpt>
      <trkpt lat="46.77635" lon="5.78614">
        <ele>521.2</ele>
        <time>2020-02-28T10:03:59Z</time>
      </trkpt>
      <trkpt lat="46.77641" lon="5.7862">
        <ele>521.2</ele>
        <time>2020-02-28T10:04:00Z</time>
      </trkpt>
      <trkpt lat="46.77647" lon="5.78627">
        <ele>521.2</ele>
        <time>2020-02-28T10:04:01Z</time>
      </trkpt>
      <trkpt lat="46.77652" lon="5.78634">
        <ele>521.2</ele>
        <time>2020-02-28T10:04:02Z</time>
      </trkpt>
      <trkpt lat="46.77658" lon="5.78641">
        <ele>521.2</ele>
        <time>2020-02-28T10:04:03Z</time>
      </trkpt>
      <trkpt lat="46.77664" lon="5.78647">
        <ele>521.2</ele>
        <time>2020-02-28T10:04:04Z</time>
      </trkpt>
      <trkpt lat="46.77669" lon="5.78654">
        <ele>521.2</ele>
        <time>2020-02-28T10:04:05Z</time>
      </trkpt>
      <trkpt lat="46.77675" lon="5.7866">
        <ele>521.2</ele>
        <time>2020-02-28T10:04:06Z</time>
      </trkpt>
      <trkpt lat="46.7768" lon="5.78667">
        <ele>521.2</ele>
        <time>2020-02-28T10:04:07Z</time>
      </trkpt>
      <trkpt lat="46.77686" lon="5.78674">
        <ele>521.2</ele>
        <time>2020-02-28T10:04:08Z</time>
      </trkpt>
      <trkpt lat="46.77691" lon="5.7868">
        <ele>521.2</ele>
        <time>2020-02-28T10:04:09Z</time>
      </trkpt>
      <trkpt lat="46.77697" lon="5.78687">
        <ele>521.2</ele>
        <time>2020-02-28T10:04:10Z</time>
      </trkpt>
      <trkpt lat="46.77702" lon="5.78693">
        <ele>521.2</ele>
        <time>2020-02-28T10:04:11Z</time>
      </trkpt>
      <trkpt lat="46.77708" lon="5.78699">
        <ele>521.2</ele>
        <time>2020-02-28T10:04:12Z</time>
      </trkpt>
      <trkpt lat="46.77713" lon="5.78706">
        <ele>521</ele>
        <time>2020-02-28T10:04:13Z</time>
      </trkpt>
      <trkpt lat="46.77719" lon="5.78713">
        <ele>521</ele>
        <time>2020-02-28T10:04:14Z</time>
      </trkpt>
      <trkpt lat="46.77724" lon="5.7872">
        <ele>521</ele>
        <time>2020-02-28T10:04:15Z</time>
      </trkpt>
      <trkpt lat="46.77729" lon="5.78727">
        <ele>521</ele>
        <time>2020-02-28T10:04:16Z</time>
      </trkpt>
      <trkpt lat="46.77734" lon="5.78735">
        <ele>521</ele>
        <time>2020-02-28T10:04:17Z</time>
      </trkpt>
      <trkpt lat="46.77739" lon="5.78742">
        <ele>521</ele>
        <time>2020-02-28T10:04:18Z</time>
      </trkpt>
      <trkpt lat="46.77744" lon="5.78749">
        <ele>521</ele>
        <time>2020-02-28T10:04:19Z</time>
      </trkpt>
      <trkpt lat="46.77749" lon="5.78757">
        <ele>521</ele>
        <time>2020-02-28T10:04:20Z</time>
      </trkpt>
      <trkpt lat="46.77754" lon="5.78764">
        <ele>521.2</ele>
        <time>2020-02-28T10:04:21Z</time>
      </trkpt>
      <trkpt lat="46.77759" lon="5.78772">
        <ele>521.2</ele>
        <time>2020-02-28T10:04:22Z</time>
      </trkpt>
      <trkpt lat="46.77764" lon="5.78779">
        <ele>521.2</ele>
        <time>2020-02-28T10:04:23Z</time>
      </trkpt>
      <trkpt lat="46.77769" lon="5.78787">
        <ele>521.2</ele>
        <time>2020-02-28T10:04:24Z</time>
      </trkpt>
      <trkpt lat="46.77774" lon="5.78794">
        <ele>521.2</ele>
        <time>2020-02-28T10:04:25Z</time>
      </trkpt>
      <trkpt lat="46.77779" lon="5.78802">
        <ele>521.2</ele>
        <time>2020-02-28T10:04:26Z</time>
      </trkpt>
      <trkpt lat="46.77784" lon="5.78809">
        <ele>521.2</ele>
        <time>2020-02-28T10:04:27Z</time>
      </trkpt>
      <trkpt lat="46.77789" lon="5.78817">
        <ele>521.2</ele>
        <time>2020-02-28T10:04:28Z</time>
      </trkpt>
      <trkpt lat="46.77794" lon="5.78824">
        <ele>521.2</ele>
        <time>2020-02-28T10:04:29Z</time>
      </trkpt>
      <trkpt lat="46.77798" lon="5.78831">
        <ele>521.2</ele>
        <time>2020-02-28T10:04:30Z</time>
      </trkpt>
      <trkpt lat="46.77803" lon="5.78838">
        <ele>521.6</ele>
        <time>2020-02-28T10:04:31Z</time>
      </trkpt>
      <trkpt lat="46.77808" lon="5.78845">
        <ele>521.6</ele>
        <time>2020-02-28T10:04:32Z</time>
      </trkpt>
      <trkpt lat="46.77812" lon="5.78852">
        <ele>521.8</ele>
        <time>2020-02-28T10:04:33Z</time>
      </trkpt>
      <trkpt lat="46.77817" lon="5.78859">
        <ele>521.8</ele>
        <time>2020-02-28T10:04:34Z</time>
      </trkpt>
      <trkpt lat="46.77822" lon="5.78865">
        <ele>521.8</ele>
        <time>2020-02-28T10:04:35Z</time>
      </trkpt>
      <trkpt lat="46.77826" lon="5.78872">
        <ele>522.2</ele>
        <time>2020-02-28T10:04:36Z</time>
      </trkpt>
      <trkpt lat="46.7783" lon="5.78879">
        <ele>522.2</ele>
        <time>2020-02-28T10:04:37Z</time>
      </trkpt>
      <trkpt lat="46.77834" lon="5.78885">
        <ele>522.2</ele>
        <time>2020-02-28T10:04:38Z</time>
      </trkpt>
      <trkpt lat="46.77839" lon="5.78892">
        <ele>522.4</ele>
        <time>2020-02-28T10:04:39Z</time>
      </trkpt>
      <trkpt lat="46.77843" lon="5.78898">
        <ele>522.4</ele>
        <time>2020-02-28T10:04:40Z</time>
      </trkpt>
      <trkpt lat="46.77847" lon="5.78904">
        <ele>522.8</ele>
        <time>2020-02-28T10:04:41Z</time>
      </trkpt>
      <trkpt lat="46.77851" lon="5.7891">
        <ele>522.8</ele>
        <time>2020-02-28T10:04:42Z</time>
      </trkpt>
      <trkpt lat="46.77856" lon="5.78916">
        <ele>522.8</ele>
        <time>2020-02-28T10:04:43Z</time>
      </trkpt>
      <trkpt lat="46.7786" lon="5.78922">
        <ele>522.8</ele>
        <time>2020-02-28T10:04:44Z</time>
      </trkpt>
      <trkpt lat="46.77864" lon="5.78928">
        <ele>522.8</ele>
        <time>2020-02-28T10:04:45Z</time>
      </trkpt>
      <trkpt lat="46.77868" lon="5.78935">
        <ele>522.8</ele>
        <time>2020-02-28T10:04:46Z</time>
      </trkpt>
      <trkpt lat="46.77873" lon="5.78941">
        <ele>522.8</ele>
        <time>2020-02-28T10:04:47Z</time>
      </trkpt>
      <trkpt lat="46.77877" lon="5.78946">
        <ele>522.8</ele>
        <time>2020-02-28T10:04:48Z</time>
      </trkpt>
      <trkpt lat="46.77881" lon="5.78952">
        <ele>522.8</ele>
        <time>2020-02-28T10:04:49Z</time>
      </trkpt>
      <trkpt lat="46.77886" lon="5.78958">
        <ele>523</ele>
        <time>2020-02-28T10:04:50Z</time>
      </trkpt>
      <trkpt lat="46.77891" lon="5.78963">
        <ele>523</ele>
        <time>2020-02-28T10:04:51Z</time>
      </trkpt>
      <trkpt lat="46.77895" lon="5.78968">
        <ele>523</ele>
        <time>2020-02-28T10:04:52Z</time>
      </trkpt>
      <trkpt lat="46.779" lon="5.78973">
        <ele>523</ele>
        <time>2020-02-28T10:04:53Z</time>
      </trkpt>
      <trkpt lat="46.77905" lon="5.78978">
        <ele>523</ele>
        <time>2020-02-28T10:04:54Z</time>
      </trkpt>
      <trkpt lat="46.7791" lon="5.78983">
        <ele>523.2</ele>
        <time>2020-02-28T10:04:55Z</time>
      </trkpt>
      <trkpt lat="46.77916" lon="5.78987">
        <ele>523.2</ele>
        <time>2020-02-28T10:04:56Z</time>
      </trkpt>
      <trkpt lat="46.77922" lon="5.78991">
        <ele>523.2</ele>
        <time>2020-02-28T10:04:57Z</time>
      </trkpt>
      <trkpt lat="46.77927" lon="5.78995">
        <ele>523.2</ele>
        <time>2020-02-28T10:04:58Z</time>
      </trkpt>
      <trkpt lat="46.77933" lon="5.78999">
        <ele>523.2</ele>
        <time>2020-02-28T10:04:59Z</time>
      </trkpt>
      <trkpt lat="46.77939" lon="5.79002">
        <ele>523.2</ele>
        <time>2020-02-28T10:05:00Z</time>
      </trkpt>
      <trkpt lat="46.77946" lon="5.79005">
        <ele>523.2</ele>
        <time>2020-02-28T10:05:01Z</time>
      </trkpt>
      <trkpt lat="46.77952" lon="5.79009">
        <ele>523.2</ele>
        <time>2020-02-28T10:05:02Z</time>
      </trkpt>
      <trkpt lat="46.77958" lon="5.79012">
        <ele>523.2</ele>
        <time>2020-02-28T10:05:03Z</time>
      </trkpt>
      <trkpt lat="46.77964" lon="5.79015">
        <ele>523.2</ele>
        <time>2020-02-28T10:05:04Z</time>
      </trkpt>
      <trkpt lat="46.7797" lon="5.79019">
        <ele>523.2</ele>
        <time>2020-02-28T10:05:05Z</time>
      </trkpt>
      <trkpt lat="46.77975" lon="5.79024">
        <ele>523.2</ele>
        <time>2020-02-28T10:05:06Z</time>
      </trkpt>
      <trkpt lat="46.77981" lon="5.79028">
        <ele>523.4</ele>
        <time>2020-02-28T10:05:07Z</time>
      </trkpt>
      <trkpt lat="46.77987" lon="5.79033">
        <ele>523.4</ele>
        <time>2020-02-28T10:05:08Z</time>
      </trkpt>
      <trkpt lat="46.77992" lon="5.79037">
        <ele>523.4</ele>
        <time>2020-02-28T10:05:09Z</time>
      </trkpt>
      <trkpt lat="46.77998" lon="5.79042">
        <ele>523.4</ele>
        <time>2020-02-28T10:05:10Z</time>
      </trkpt>
      <trkpt lat="46.78003" lon="5.79048">
        <ele>523.4</ele>
        <time>2020-02-28T10:05:11Z</time>
      </trkpt>
      <trkpt lat="46.78009" lon="5.79053">
        <ele>523.6</ele>
        <time>2020-02-28T10:05:12Z</time>
      </trkpt>
      <trkpt lat="46.78014" lon="5.79059">
        <ele>523.6</ele>
        <time>2020-02-28T10:05:13Z</time>
      </trkpt>
      <trkpt lat="46.7802" lon="5.79065">
        <ele>523.6</ele>
        <time>2020-02-28T10:05:14Z</time>
      </trkpt>
      <trkpt lat="46.78025" lon="5.79071">
        <ele>523.6</ele>
        <time>2020-02-28T10:05:15Z</time>
      </trkpt>
      <trkpt lat="46.7803" lon="5.79077">
        <ele>523.2</ele>
        <time>2020-02-28T10:05:16Z</time>
      </trkpt>
      <trkpt lat="46.78036" lon="5.79083">
        <ele>523.2</ele>
        <time>2020-02-28T10:05:17Z</time>
      </trkpt>
      <trkpt lat="46.78041" lon="5.79089">
        <ele>523.2</ele>
        <time>2020-02-28T10:05:18Z</time>
      </trkpt>
      <trkpt lat="46.78047" lon="5.79094">
        <ele>523.2</ele>
        <time>2020-02-28T10:05:19Z</time>
      </trkpt>
      <trkpt lat="46.78053" lon="5.791">
        <ele>523</ele>
        <time>2020-02-28T10:05:20Z</time>
      </trkpt>
      <trkpt lat="46.78059" lon="5.79106">
        <ele>523</ele>
        <time>2020-02-28T10:05:21Z</time>
      </trkpt>
      <trkpt lat="46.78065" lon="5.79112">
        <ele>522.8</ele>
        <time>2020-02-28T10:05:22Z</time>
      </trkpt>
      <trkpt lat="46.78071" lon="5.79118">
        <ele>522.8</ele>
        <time>2020-02-28T10:05:23Z</time>
      </trkpt>
      <trkpt lat="46.78077" lon="5.79124">
        <ele>522.6</ele>
        <time>2020-02-28T10:05:24Z</time>
      </trkpt>
      <trkpt lat="46.78083" lon="5.7913">
        <ele>522.6</ele>
        <time>2020-02-28T10:05:25Z</time>
      </trkpt>
      <trkpt lat="46.7809" lon="5.79135">
        <ele>522.2</ele>
        <time>2020-02-28T10:05:26Z</time>
      </trkpt>
      <trkpt lat="46.78096" lon="5.79141">
        <ele>522.2</ele>
        <time>2020-02-28T10:05:27Z</time>
      </trkpt>
      <trkpt lat="46.78103" lon="5.79147">
        <ele>522</ele>
        <time>2020-02-28T10:05:28Z</time>
      </trkpt>
      <trkpt lat="46.78109" lon="5.79152">
        <ele>522</ele>
        <time>2020-02-28T10:05:29Z</time>
      </trkpt>
      <trkpt lat="46.78115" lon="5.79158">
        <ele>522</ele>
        <time>2020-02-28T10:05:30Z</time>
      </trkpt>
      <trkpt lat="46.78121" lon="5.79163">
        <ele>522</ele>
        <time>2020-02-28T10:05:31Z</time>
      </trkpt>
      <trkpt lat="46.78128" lon="5.79168">
        <ele>522</ele>
        <time>2020-02-28T10:05:32Z</time>
      </trkpt>
      <trkpt lat="46.78134" lon="5.79173">
        <ele>522</ele>
        <time>2020-02-28T10:05:33Z</time>
      </trkpt>
      <trkpt lat="46.7814" lon="5.79178">
        <ele>522</ele>
        <time>2020-02-28T10:05:34Z</time>
      </trkpt>
      <trkpt lat="46.78145" lon="5.79183">
        <ele>522</ele>
        <time>2020-02-28T10:05:35Z</time>
      </trkpt>
      <trkpt lat="46.78151" lon="5.79189">
        <ele>522</ele>
        <time>2020-02-28T10:05:36Z</time>
      </trkpt>
      <trkpt lat="46.78157" lon="5.79193">
        <ele>522.2</ele>
        <time>2020-02-28T10:05:37Z</time>
      </trkpt>
      <trkpt lat="46.78163" lon="5.79198">
        <ele>522.2</ele>
        <time>2020-02-28T10:05:38Z</time>
      </trkpt>
      <trkpt lat="46.78169" lon="5.79202">
        <ele>522.2</ele>
        <time>2020-02-28T10:05:39Z</time>
      </trkpt>
      <trkpt lat="46.78175" lon="5.79206">
        <ele>522.2</ele>
        <time>2020-02-28T10:05:40Z</time>
      </trkpt>
      <trkpt lat="46.78182" lon="5.79211">
        <ele>522.2</ele>
        <time>2020-02-28T10:05:41Z</time>
      </trkpt>
      <trkpt lat="46.78188" lon="5.79216">
        <ele>522.2</ele>
        <time>2020-02-28T10:05:42Z</time>
      </trkpt>
      <trkpt lat="46.78194" lon="5.79221">
        <ele>522.2</ele>
        <time>2020-02-28T10:05:43Z</time>
      </trkpt>
      <trkpt lat="46.78201" lon="5.79226">
        <ele>522.2</ele>
        <time>2020-02-28T10:05:44Z</time>
      </trkpt>
      <trkpt lat="46.78208" lon="5.7923">
        <ele>521.8</ele>
        <time>2020-02-28T10:05:45Z</time>
      </trkpt>
      <trkpt lat="46.78214" lon="5.79235">
        <ele>521.8</ele>
        <time>2020-02-28T10:05:46Z</time>
      </trkpt>
      <trkpt lat="46.7822" lon="5.7924">
        <ele>521.8</ele>
        <time>2020-02-28T10:05:47Z</time>
      </trkpt>
      <trkpt lat="46.78226" lon="5.79244">
        <ele>521.8</ele>
        <time>2020-02-28T10:05:48Z</time>
      </trkpt>
      <trkpt lat="46.78231" lon="5.79248">
        <ele>521.8</ele>
        <time>2020-02-28T10:05:49Z</time>
      </trkpt>
      <trkpt lat="46.78237" lon="5.79253">
        <ele>521.8</ele>
        <time>2020-02-28T10:05:50Z</time>
      </trkpt>
      <trkpt lat="46.78243" lon="5.79257">
        <ele>522.2</ele>
        <time>2020-02-28T10:05:51Z</time>
      </trkpt>
      <trkpt lat="46.78248" lon="5.79261">
        <ele>522.2</ele>
        <time>2020-02-28T10:05:52Z</time>
      </trkpt>
      <trkpt lat="46.78254" lon="5.79266">
        <ele>522.2</ele>
        <time>2020-02-28T10:05:53Z</time>
      </trkpt>
      <trkpt lat="46.7826" lon="5.79271">
        <ele>522.4</ele>
        <time>2020-02-28T10:05:54Z</time>
      </trkpt>
      <trkpt lat="46.78266" lon="5.79275">
        <ele>522.4</ele>
        <time>2020-02-28T10:05:55Z</time>
      </trkpt>
      <trkpt lat="46.78271" lon="5.7928">
        <ele>522.4</ele>
        <time>2020-02-28T10:05:56Z</time>
      </trkpt>
      <trkpt lat="46.78276" lon="5.79286">
        <ele>522.4</ele>
        <time>2020-02-28T10:05:57Z</time>
      </trkpt>
      <trkpt lat="46.78282" lon="5.79291">
        <ele>522.6</ele>
        <time>2020-02-28T10:05:58Z</time>
      </trkpt>
      <trkpt lat="46.78287" lon="5.79296">
        <ele>522.6</ele>
        <time>2020-02-28T10:05:59Z</time>
      </trkpt>
      <trkpt lat="46.78292" lon="5.79301">
        <ele>522.6</ele>
        <time>2020-02-28T10:06:00Z</time>
      </trkpt>
      <trkpt lat="46.78297" lon="5.79306">
        <ele>522.6</ele>
        <time>2020-02-28T10:06:01Z</time>
      </trkpt>
      <trkpt lat="46.78303" lon="5.7931">
        <ele>522.8</ele>
        <time>2020-02-28T10:06:02Z</time>
      </trkpt>
      <trkpt lat="46.78308" lon="5.79315">
        <ele>523</ele>
        <time>2020-02-28T10:06:03Z</time>
      </trkpt>
      <trkpt lat="46.78313" lon="5.7932">
        <ele>523.2</ele>
        <time>2020-02-28T10:06:04Z</time>
      </trkpt>
      <trkpt lat="46.78319" lon="5.79324">
        <ele>523.4</ele>
        <time>2020-02-28T10:06:05Z</time>
      </trkpt>
      <trkpt lat="46.78324" lon="5.79328">
        <ele>523.6</ele>
        <time>2020-02-28T10:06:06Z</time>
      </trkpt>
      <trkpt lat="46.78329" lon="5.79332">
        <ele>523.6</ele>
        <time>2020-02-28T10:06:07Z</time>
      </trkpt>
      <trkpt lat="46.78334" lon="5.79336">
        <ele>524</ele>
        <time>2020-02-28T10:06:08Z</time>
      </trkpt>
      <trkpt lat="46.78339" lon="5.79339">
        <ele>524.2</ele>
        <time>2020-02-28T10:06:09Z</time>
      </trkpt>
      <trkpt lat="46.78344" lon="5.79342">
        <ele>524.2</ele>
        <time>2020-02-28T10:06:10Z</time>
      </trkpt>
      <trkpt lat="46.7835" lon="5.79345">
        <ele>524.6</ele>
        <time>2020-02-28T10:06:11Z</time>
      </trkpt>
      <trkpt lat="46.78355" lon="5.79347">
        <ele>524.6</ele>
        <time>2020-02-28T10:06:12Z</time>
      </trkpt>
      <trkpt lat="46.7836" lon="5.79351">
        <ele>525</ele>
        <time>2020-02-28T10:06:13Z</time>
      </trkpt>
      <trkpt lat="46.78365" lon="5.79354">
        <ele>525</ele>
        <time>2020-02-28T10:06:14Z</time>
      </trkpt>
      <trkpt lat="46.7837" lon="5.79357">
        <ele>525.4</ele>
        <time>2020-02-28T10:06:15Z</time>
      </trkpt>
      <trkpt lat="46.78374" lon="5.79361">
        <ele>525.6</ele>
        <time>2020-02-28T10:06:16Z</time>
      </trkpt>
      <trkpt lat="46.78379" lon="5.79365">
        <ele>525.6</ele>
        <time>2020-02-28T10:06:17Z</time>
      </trkpt>
      <trkpt lat="46.78383" lon="5.79369">
        <ele>525.8</ele>
        <time>2020-02-28T10:06:18Z</time>
      </trkpt>
      <trkpt lat="46.78387" lon="5.79372">
        <ele>526</ele>
        <time>2020-02-28T10:06:19Z</time>
      </trkpt>
      <trkpt lat="46.78392" lon="5.79375">
        <ele>526.4</ele>
        <time>2020-02-28T10:06:20Z</time>
      </trkpt>
      <trkpt lat="46.78396" lon="5.79379">
        <ele>526.6</ele>
        <time>2020-02-28T10:06:21Z</time>
      </trkpt>
      <trkpt lat="46.78401" lon="5.79383">
        <ele>526.6</ele>
        <time>2020-02-28T10:06:22Z</time>
      </trkpt>
      <trkpt lat="46.78405" lon="5.79386">
        <ele>526.8</ele>
        <time>2020-02-28T10:06:23Z</time>
      </trkpt>
      <trkpt lat="46.78409" lon="5.7939">
        <ele>526.8</ele>
        <time>2020-02-28T10:06:24Z</time>
      </trkpt>
      <trkpt lat="46.78414" lon="5.79393">
        <ele>526.8</ele>
        <time>2020-02-28T10:06:25Z</time>
      </trkpt>
      <trkpt lat="46.78419" lon="5.79397">
        <ele>527.2</ele>
        <time>2020-02-28T10:06:26Z</time>
      </trkpt>
      <trkpt lat="46.78423" lon="5.794">
        <ele>527.2</ele>
        <time>2020-02-28T10:06:27Z</time>
      </trkpt>
      <trkpt lat="46.78427" lon="5.79404">
        <ele>527.4</ele>
        <time>2020-02-28T10:06:28Z</time>
      </trkpt>
      <trkpt lat="46.78432" lon="5.79408">
        <ele>527.4</ele>
        <time>2020-02-28T10:06:29Z</time>
      </trkpt>
      <trkpt lat="46.78436" lon="5.79411">
        <ele>527.8</ele>
        <time>2020-02-28T10:06:30Z</time>
      </trkpt>
      <trkpt lat="46.7844" lon="5.79415">
        <ele>527.8</ele>
        <time>2020-02-28T10:06:31Z</time>
      </trkpt>
      <trkpt lat="46.78444" lon="5.79418">
        <ele>528</ele>
        <time>2020-02-28T10:06:32Z</time>
      </trkpt>
      <trkpt lat="46.78448" lon="5.79422">
        <ele>528</ele>
        <time>2020-02-28T10:06:33Z</time>
      </trkpt>
      <trkpt lat="46.78452" lon="5.79425">
        <ele>528.4</ele>
        <time>2020-02-28T10:06:34Z</time>
      </trkpt>
      <trkpt lat="46.78456" lon="5.79429">
        <ele>528.4</ele>
        <time>2020-02-28T10:06:35Z</time>
      </trkpt>
      <trkpt lat="46.7846" lon="5.79432">
        <ele>528.4</ele>
        <time>2020-02-28T10:06:36Z</time>
      </trkpt>
      <trkpt lat="46.78464" lon="5.79435">
        <ele>528.6</ele>
        <time>2020-02-28T10:06:37Z</time>
      </trkpt>
      <trkpt lat="46.78468" lon="5.79438">
        <ele>528.6</ele>
        <time>2020-02-28T10:06:38Z</time>
      </trkpt>
      <trkpt lat="46.78472" lon="5.7944">
        <ele>528.8</ele>
        <time>2020-02-28T10:06:39Z</time>
      </trkpt>
      <trkpt lat="46.78476" lon="5.79442">
        <ele>528.8</ele>
        <time>2020-02-28T10:06:40Z</time>
      </trkpt>
      <trkpt lat="46.78481" lon="5.79444">
        <ele>529.2</ele>
        <time>2020-02-28T10:06:41Z</time>
      </trkpt>
      <trkpt lat="46.78485" lon="5.79445">
        <ele>529.2</ele>
        <time>2020-02-28T10:06:42Z</time>
      </trkpt>
      <trkpt lat="46.78489" lon="5.79446">
        <ele>529.4</ele>
        <time>2020-02-28T10:06:43Z</time>
      </trkpt>
      <trkpt lat="46.78493" lon="5.79447">
        <ele>529.6</ele>
        <time>2020-02-28T10:06:44Z</time>
      </trkpt>
      <trkpt lat="46.78498" lon="5.79448">
        <ele>529.6</ele>
        <time>2020-02-28T10:06:45Z</time>
      </trkpt>
      <trkpt lat="46.78502" lon="5.79448">
        <ele>530</ele>
        <time>2020-02-28T10:06:46Z</time>
      </trkpt>
      <trkpt lat="46.78506" lon="5.79448">
        <ele>530</ele>
        <time>2020-02-28T10:06:47Z</time>
      </trkpt>
      <trkpt lat="46.7851" lon="5.79447">
        <ele>530.4</ele>
        <time>2020-02-28T10:06:48Z</time>
      </trkpt>
      <trkpt lat="46.78514" lon="5.79447">
        <ele>530.4</ele>
        <time>2020-02-28T10:06:49Z</time>
      </trkpt>
      <trkpt lat="46.78518" lon="5.79447">
        <ele>530.6</ele>
        <time>2020-02-28T10:06:50Z</time>
      </trkpt>
      <trkpt lat="46.78522" lon="5.79448">
        <ele>530.6</ele>
        <time>2020-02-28T10:06:51Z</time>
      </trkpt>
      <trkpt lat="46.78525" lon="5.79448">
        <ele>530.8</ele>
        <time>2020-02-28T10:06:52Z</time>
      </trkpt>
      <trkpt lat="46.78529" lon="5.79447">
        <ele>530.8</ele>
        <time>2020-02-28T10:06:53Z</time>
      </trkpt>
      <trkpt lat="46.78533" lon="5.79447">
        <ele>531.2</ele>
        <time>2020-02-28T10:06:54Z</time>
      </trkpt>
      <trkpt lat="46.78536" lon="5.79444">
        <ele>531.2</ele>
        <time>2020-02-28T10:06:55Z</time>
      </trkpt>
      <trkpt lat="46.7854" lon="5.79442">
        <ele>531.4</ele>
        <time>2020-02-28T10:06:56Z</time>
      </trkpt>
      <trkpt lat="46.78543" lon="5.79439">
        <ele>531.4</ele>
        <time>2020-02-28T10:06:57Z</time>
      </trkpt>
      <trkpt lat="46.78546" lon="5.79435">
        <ele>531.4</ele>
        <time>2020-02-28T10:06:58Z</time>
      </trkpt>
      <trkpt lat="46.78549" lon="5.79431">
        <ele>531.8</ele>
        <time>2020-02-28T10:06:59Z</time>
      </trkpt>
      <trkpt lat="46.78552" lon="5.79426">
        <ele>531.8</ele>
        <time>2020-02-28T10:07:00Z</time>
      </trkpt>
      <trkpt lat="46.78554" lon="5.79421">
        <ele>531.8</ele>
        <time>2020-02-28T10:07:01Z</time>
      </trkpt>
      <trkpt lat="46.78556" lon="5.79415">
        <ele>531.8</ele>
        <time>2020-02-28T10:07:02Z</time>
      </trkpt>
      <trkpt lat="46.78558" lon="5.79409">
        <ele>531.8</ele>
        <time>2020-02-28T10:07:03Z</time>
      </trkpt>
      <trkpt lat="46.7856" lon="5.79404">
        <ele>531.8</ele>
        <time>2020-02-28T10:07:04Z</time>
      </trkpt>
      <trkpt lat="46.78562" lon="5.79398">
        <ele>532</ele>
        <time>2020-02-28T10:07:05Z</time>
      </trkpt>
      <trkpt lat="46.78564" lon="5.79392">
        <ele>532</ele>
        <time>2020-02-28T10:07:06Z</time>
      </trkpt>
      <trkpt lat="46.78565" lon="5.79386">
        <ele>532</ele>
        <time>2020-02-28T10:07:07Z</time>
      </trkpt>
      <trkpt lat="46.78566" lon="5.79379">
        <ele>532</ele>
        <time>2020-02-28T10:07:08Z</time>
      </trkpt>
      <trkpt lat="46.78568" lon="5.79373">
        <ele>532</ele>
        <time>2020-02-28T10:07:09Z</time>
      </trkpt>
      <trkpt lat="46.78569" lon="5.79367">
        <ele>532</ele>
        <time>2020-02-28T10:07:10Z</time>
      </trkpt>
      <trkpt lat="46.7857" lon="5.79361">
        <ele>532.2</ele>
        <time>2020-02-28T10:07:11Z</time>
      </trkpt>
      <trkpt lat="46.78571" lon="5.79355">
        <ele>532.2</ele>
        <time>2020-02-28T10:07:12Z</time>
      </trkpt>
      <trkpt lat="46.78572" lon="5.79348">
        <ele>532.2</ele>
        <time>2020-02-28T10:07:13Z</time>
      </trkpt>
      <trkpt lat="46.78573" lon="5.79342">
        <ele>532.2</ele>
        <time>2020-02-28T10:07:14Z</time>
      </trkpt>
      <trkpt lat="46.78573" lon="5.79335">
        <ele>532.2</ele>
        <time>2020-02-28T10:07:15Z</time>
      </trkpt>
      <trkpt lat="46.78573" lon="5.79329">
        <ele>532.2</ele>
        <time>2020-02-28T10:07:16Z</time>
      </trkpt>
      <trkpt lat="46.78574" lon="5.79322">
        <ele>532.2</ele>
        <time>2020-02-28T10:07:17Z</time>
      </trkpt>
      <trkpt lat="46.78575" lon="5.79315">
        <ele>532.2</ele>
        <time>2020-02-28T10:07:18Z</time>
      </trkpt>
      <trkpt lat="46.78576" lon="5.79308">
        <ele>532</ele>
        <time>2020-02-28T10:07:19Z</time>
      </trkpt>
      <trkpt lat="46.78578" lon="5.79302">
        <ele>532</ele>
        <time>2020-02-28T10:07:20Z</time>
      </trkpt>
      <trkpt lat="46.7858" lon="5.79295">
        <ele>532</ele>
        <time>2020-02-28T10:07:21Z</time>
      </trkpt>
      <trkpt lat="46.78583" lon="5.79289">
        <ele>531.8</ele>
        <time>2020-02-28T10:07:22Z</time>
      </trkpt>
      <trkpt lat="46.78586" lon="5.79284">
        <ele>531.8</ele>
        <time>2020-02-28T10:07:23Z</time>
      </trkpt>
      <trkpt lat="46.7859" lon="5.79279">
        <ele>531.8</ele>
        <time>2020-02-28T10:07:24Z</time>
      </trkpt>
      <trkpt lat="46.78594" lon="5.79275">
        <ele>531.8</ele>
        <time>2020-02-28T10:07:25Z</time>
      </trkpt>
      <trkpt lat="46.78599" lon="5.79272">
        <ele>531.8</ele>
        <time>2020-02-28T10:07:26Z</time>
      </trkpt>
      <trkpt lat="46.78604" lon="5.79269">
        <ele>531.8</ele>
        <time>2020-02-28T10:07:27Z</time>
      </trkpt>
      <trkpt lat="46.78609" lon="5.79266">
        <ele>531.8</ele>
        <time>2020-02-28T10:07:28Z</time>
      </trkpt>
      <trkpt lat="46.78614" lon="5.79264">
        <ele>531.8</ele>
        <time>2020-02-28T10:07:29Z</time>
      </trkpt>
      <trkpt lat="46.7862" lon="5.79262">
        <ele>531.6</ele>
        <time>2020-02-28T10:07:30Z</time>
      </trkpt>
      <trkpt lat="46.78625" lon="5.7926">
        <ele>531.6</ele>
        <time>2020-02-28T10:07:31Z</time>
      </trkpt>
      <trkpt lat="46.7863" lon="5.79258">
        <ele>531.6</ele>
        <time>2020-02-28T10:07:32Z</time>
      </trkpt>
      <trkpt lat="46.78636" lon="5.79256">
        <ele>531.6</ele>
        <time>2020-02-28T10:07:33Z</time>
      </trkpt>
      <trkpt lat="46.78641" lon="5.79254">
        <ele>531.6</ele>
        <time>2020-02-28T10:07:34Z</time>
      </trkpt>
      <trkpt lat="46.78647" lon="5.79251">
        <ele>531.6</ele>
        <time>2020-02-28T10:07:35Z</time>
      </trkpt>
      <trkpt lat="46.78652" lon="5.79249">
        <ele>531.6</ele>
        <time>2020-02-28T10:07:36Z</time>
      </trkpt>
      <trkpt lat="46.78658" lon="5.79246">
        <ele>531.6</ele>
        <time>2020-02-28T10:07:37Z</time>
      </trkpt>
      <trkpt lat="46.78663" lon="5.79243">
        <ele>531.6</ele>
        <time>2020-02-28T10:07:38Z</time>
      </trkpt>
      <trkpt lat="46.78669" lon="5.7924">
        <ele>531.6</ele>
        <time>2020-02-28T10:07:39Z</time>
      </trkpt>
      <trkpt lat="46.78675" lon="5.79237">
        <ele>531.6</ele>
        <time>2020-02-28T10:07:40Z</time>
      </trkpt>
      <trkpt lat="46.7868" lon="5.79234">
        <ele>531.6</ele>
        <time>2020-02-28T10:07:41Z</time>
      </trkpt>
      <trkpt lat="46.78686" lon="5.79231">
        <ele>531.6</ele>
        <time>2020-02-28T10:07:42Z</time>
      </trkpt>
      <trkpt lat="46.78692" lon="5.79228">
        <ele>531.6</ele>
        <time>2020-02-28T10:07:43Z</time>
      </trkpt>
      <trkpt lat="46.78697" lon="5.79225">
        <ele>531.6</ele>
        <time>2020-02-28T10:07:44Z</time>
      </trkpt>
      <trkpt lat="46.78702" lon="5.79222">
        <ele>531.6</ele>
        <time>2020-02-28T10:07:45Z</time>
      </trkpt>
      <trkpt lat="46.78708" lon="5.79219">
        <ele>531.6</ele>
        <time>2020-02-28T10:07:46Z</time>
      </trkpt>
      <trkpt lat="46.78713" lon="5.79216">
        <ele>531.6</ele>
        <time>2020-02-28T10:07:47Z</time>
      </trkpt>
      <trkpt lat="46.78718" lon="5.79213">
        <ele>531.4</ele>
        <time>2020-02-28T10:07:48Z</time>
      </trkpt>
      <trkpt lat="46.78723" lon="5.7921">
        <ele>531.4</ele>
        <time>2020-02-28T10:07:49Z</time>
      </trkpt>
      <trkpt lat="46.78728" lon="5.79206">
        <ele>531.4</ele>
        <time>2020-02-28T10:07:50Z</time>
      </trkpt>
      <trkpt lat="46.78733" lon="5.79202">
        <ele>531.4</ele>
        <time>2020-02-28T10:07:51Z</time>
      </trkpt>
      <trkpt lat="46.78738" lon="5.79197">
        <ele>531.2</ele>
        <time>2020-02-28T10:07:52Z</time>
      </trkpt>
      <trkpt lat="46.78742" lon="5.79192">
        <ele>531.2</ele>
        <time>2020-02-28T10:07:53Z</time>
      </trkpt>
      <trkpt lat="46.78746" lon="5.79187">
        <ele>530.8</ele>
        <time>2020-02-28T10:07:54Z</time>
      </trkpt>
      <trkpt lat="46.78751" lon="5.79181">
        <ele>530.6</ele>
        <time>2020-02-28T10:07:55Z</time>
      </trkpt>
      <trkpt lat="46.78756" lon="5.79175">
        <ele>530.4</ele>
        <time>2020-02-28T10:07:56Z</time>
      </trkpt>
      <trkpt lat="46.7876" lon="5.79169">
        <ele>530.4</ele>
        <time>2020-02-28T10:07:57Z</time>
      </trkpt>
      <trkpt lat="46.78765" lon="5.79163">
        <ele>530</ele>
        <time>2020-02-28T10:07:58Z</time>
      </trkpt>
      <trkpt lat="46.7877" lon="5.79157">
        <ele>529.8</ele>
        <time>2020-02-28T10:07:59Z</time>
      </trkpt>
      <trkpt lat="46.78776" lon="5.79151">
        <ele>529.4</ele>
        <time>2020-02-28T10:08:00Z</time>
      </trkpt>
      <trkpt lat="46.78782" lon="5.79146">
        <ele>529.2</ele>
        <time>2020-02-28T10:08:01Z</time>
      </trkpt>
      <trkpt lat="46.78789" lon="5.79141">
        <ele>528.8</ele>
        <time>2020-02-28T10:08:02Z</time>
      </trkpt>
      <trkpt lat="46.78796" lon="5.79137">
        <ele>528.4</ele>
        <time>2020-02-28T10:08:03Z</time>
      </trkpt>
      <trkpt lat="46.78804" lon="5.79134">
        <ele>528</ele>
        <time>2020-02-28T10:08:04Z</time>
      </trkpt>
      <trkpt lat="46.78812" lon="5.7913">
        <ele>527.4</ele>
        <time>2020-02-28T10:08:05Z</time>
      </trkpt>
      <trkpt lat="46.7882" lon="5.79127">
        <ele>527</ele>
        <time>2020-02-28T10:08:06Z</time>
      </trkpt>
      <trkpt lat="46.78827" lon="5.79125">
        <ele>526.6</ele>
        <time>2020-02-28T10:08:07Z</time>
      </trkpt>
      <trkpt lat="46.78834" lon="5.79122">
        <ele>526.2</ele>
        <time>2020-02-28T10:08:08Z</time>
      </trkpt>
      <trkpt lat="46.78841" lon="5.7912">
        <ele>525.8</ele>
        <time>2020-02-28T10:08:09Z</time>
      </trkpt>
      <trkpt lat="46.78848" lon="5.79118">
        <ele>525.4</ele>
        <time>2020-02-28T10:08:10Z</time>
      </trkpt>
      <trkpt lat="46.78855" lon="5.79116">
        <ele>525.2</ele>
        <time>2020-02-28T10:08:11Z</time>
      </trkpt>
      <trkpt lat="46.78861" lon="5.79115">
        <ele>525.2</ele>
        <time>2020-02-28T10:08:12Z</time>
      </trkpt>
      <trkpt lat="46.78868" lon="5.79114">
        <ele>524.8</ele>
        <time>2020-02-28T10:08:13Z</time>
      </trkpt>
      <trkpt lat="46.78875" lon="5.79113">
        <ele>524.4</ele>
        <time>2020-02-28T10:08:14Z</time>
      </trkpt>
      <trkpt lat="46.78883" lon="5.79113">
        <ele>524.2</ele>
        <time>2020-02-28T10:08:15Z</time>
      </trkpt>
      <trkpt lat="46.7889" lon="5.79113">
        <ele>524</ele>
        <time>2020-02-28T10:08:16Z</time>
      </trkpt>
      <trkpt lat="46.78897" lon="5.79113">
        <ele>524</ele>
        <time>2020-02-28T10:08:17Z</time>
      </trkpt>
      <trkpt lat="46.78903" lon="5.79114">
        <ele>523.6</ele>
        <time>2020-02-28T10:08:18Z</time>
      </trkpt>
      <trkpt lat="46.7891" lon="5.79115">
        <ele>523.6</ele>
        <time>2020-02-28T10:08:19Z</time>
      </trkpt>
      <trkpt lat="46.78917" lon="5.79115">
        <ele>523.6</ele>
        <time>2020-02-28T10:08:20Z</time>
      </trkpt>
      <trkpt lat="46.78924" lon="5.79116">
        <ele>523.6</ele>
        <time>2020-02-28T10:08:21Z</time>
      </trkpt>
      <trkpt lat="46.78931" lon="5.79116">
        <ele>523.6</ele>
        <time>2020-02-28T10:08:22Z</time>
      </trkpt>
      <trkpt lat="46.78937" lon="5.79117">
        <ele>523.6</ele>
        <time>2020-02-28T10:08:23Z</time>
      </trkpt>
      <trkpt lat="46.78944" lon="5.79117">
        <ele>523.6</ele>
        <time>2020-02-28T10:08:24Z</time>
      </trkpt>
      <trkpt lat="46.78951" lon="5.79118">
        <ele>523.6</ele>
        <time>2020-02-28T10:08:25Z</time>
      </trkpt>
      <trkpt lat="46.78957" lon="5.79118">
        <ele>523.6</ele>
        <time>2020-02-28T10:08:26Z</time>
      </trkpt>
      <trkpt lat="46.78964" lon="5.79119">
        <ele>523.6</ele>
        <time>2020-02-28T10:08:27Z</time>
      </trkpt>
      <trkpt lat="46.7897" lon="5.7912">
        <ele>523.6</ele>
        <time>2020-02-28T10:08:28Z</time>
      </trkpt>
      <trkpt lat="46.78976" lon="5.7912">
        <ele>523.6</ele>
        <time>2020-02-28T10:08:29Z</time>
      </trkpt>
      <trkpt lat="46.78982" lon="5.79119">
        <ele>523.6</ele>
        <time>2020-02-28T10:08:30Z</time>
      </trkpt>
      <trkpt lat="46.78987" lon="5.79117">
        <ele>523.8</ele>
        <time>2020-02-28T10:08:31Z</time>
      </trkpt>
      <trkpt lat="46.78993" lon="5.79115">
        <ele>523.8</ele>
        <time>2020-02-28T10:08:32Z</time>
      </trkpt>
      <trkpt lat="46.78998" lon="5.79112">
        <ele>524</ele>
        <time>2020-02-28T10:08:33Z</time>
      </trkpt>
      <trkpt lat="46.79003" lon="5.79109">
        <ele>524</ele>
        <time>2020-02-28T10:08:34Z</time>
      </trkpt>
      <trkpt lat="46.79008" lon="5.79104">
        <ele>524</ele>
        <time>2020-02-28T10:08:35Z</time>
      </trkpt>
      <trkpt lat="46.79012" lon="5.79097">
        <ele>524</ele>
        <time>2020-02-28T10:08:36Z</time>
      </trkpt>
      <trkpt lat="46.79016" lon="5.7909">
        <ele>524</ele>
        <time>2020-02-28T10:08:37Z</time>
      </trkpt>
      <trkpt lat="46.7902" lon="5.79083">
        <ele>524.4</ele>
        <time>2020-02-28T10:08:38Z</time>
      </trkpt>
      <trkpt lat="46.79023" lon="5.79075">
        <ele>524.4</ele>
        <time>2020-02-28T10:08:39Z</time>
      </trkpt>
      <trkpt lat="46.79027" lon="5.79067">
        <ele>524.4</ele>
        <time>2020-02-28T10:08:40Z</time>
      </trkpt>
      <trkpt lat="46.7903" lon="5.79059">
        <ele>524.4</ele>
        <time>2020-02-28T10:08:41Z</time>
      </trkpt>
      <trkpt lat="46.79033" lon="5.7905">
        <ele>524.4</ele>
        <time>2020-02-28T10:08:42Z</time>
      </trkpt>
      <trkpt lat="46.79037" lon="5.79042">
        <ele>524.4</ele>
        <time>2020-02-28T10:08:43Z</time>
      </trkpt>
      <trkpt lat="46.79041" lon="5.79033">
        <ele>524</ele>
        <time>2020-02-28T10:08:44Z</time>
      </trkpt>
      <trkpt lat="46.79044" lon="5.79025">
        <ele>524</ele>
        <time>2020-02-28T10:08:45Z</time>
      </trkpt>
      <trkpt lat="46.79048" lon="5.79017">
        <ele>524</ele>
        <time>2020-02-28T10:08:46Z</time>
      </trkpt>
      <trkpt lat="46.79051" lon="5.79008">
        <ele>524</ele>
        <time>2020-02-28T10:08:47Z</time>
      </trkpt>
      <trkpt lat="46.79055" lon="5.79">
        <ele>524</ele>
        <time>2020-02-28T10:08:48Z</time>
      </trkpt>
      <trkpt lat="46.79059" lon="5.78992">
        <ele>524</ele>
        <time>2020-02-28T10:08:49Z</time>
      </trkpt>
      <trkpt lat="46.79062" lon="5.78984">
        <ele>524</ele>
        <time>2020-02-28T10:08:50Z</time>
      </trkpt>
      <trkpt lat="46.79066" lon="5.78976">
        <ele>524</ele>
        <time>2020-02-28T10:08:51Z</time>
      </trkpt>
      <trkpt lat="46.79069" lon="5.78968">
        <ele>524</ele>
        <time>2020-02-28T10:08:52Z</time>
      </trkpt>
      <trkpt lat="46.79072" lon="5.7896">
        <ele>524</ele>
        <time>2020-02-28T10:08:53Z</time>
      </trkpt>
      <trkpt lat="46.79075" lon="5.78952">
        <ele>524</ele>
        <time>2020-02-28T10:08:54Z</time>
      </trkpt>
      <trkpt lat="46.79079" lon="5.78944">
        <ele>524</ele>
        <time>2020-02-28T10:08:55Z</time>
      </trkpt>
      <trkpt lat="46.79082" lon="5.78936">
        <ele>524</ele>
        <time>2020-02-28T10:08:56Z</time>
      </trkpt>
      <trkpt lat="46.79086" lon="5.78928">
        <ele>524</ele>
        <time>2020-02-28T10:08:57Z</time>
      </trkpt>
      <trkpt lat="46.7909" lon="5.7892">
        <ele>524</ele>
        <time>2020-02-28T10:08:58Z</time>
      </trkpt>
      <trkpt lat="46.79093" lon="5.78911">
        <ele>524</ele>
        <time>2020-02-28T10:08:59Z</time>
      </trkpt>
      <trkpt lat="46.79097" lon="5.78903">
        <ele>524</ele>
        <time>2020-02-28T10:09:00Z</time>
      </trkpt>
      <trkpt lat="46.79101" lon="5.78894">
        <ele>524</ele>
        <time>2020-02-28T10:09:01Z</time>
      </trkpt>
      <trkpt lat="46.79105" lon="5.78885">
        <ele>524</ele>
        <time>2020-02-28T10:09:02Z</time>
      </trkpt>
      <trkpt lat="46.79108" lon="5.78876">
        <ele>524</ele>
        <time>2020-02-28T10:09:03Z</time>
      </trkpt>
      <trkpt lat="46.79112" lon="5.78867">
        <ele>524</ele>
        <time>2020-02-28T10:09:04Z</time>
      </trkpt>
      <trkpt lat="46.79116" lon="5.78858">
        <ele>524</ele>
        <time>2020-02-28T10:09:05Z</time>
      </trkpt>
      <trkpt lat="46.7912" lon="5.78849">
        <ele>524</ele>
        <time>2020-02-28T10:09:06Z</time>
      </trkpt>
      <trkpt lat="46.79124" lon="5.7884">
        <ele>524</ele>
        <time>2020-02-28T10:09:07Z</time>
      </trkpt>
      <trkpt lat="46.79127" lon="5.7883">
        <ele>524</ele>
        <time>2020-02-28T10:09:08Z</time>
      </trkpt>
      <trkpt lat="46.79131" lon="5.78821">
        <ele>524</ele>
        <time>2020-02-28T10:09:09Z</time>
      </trkpt>
      <trkpt lat="46.79135" lon="5.78812">
        <ele>524</ele>
        <time>2020-02-28T10:09:10Z</time>
      </trkpt>
      <trkpt lat="46.79139" lon="5.78802">
        <ele>523.8</ele>
        <time>2020-02-28T10:09:11Z</time>
      </trkpt>
      <trkpt lat="46.79143" lon="5.78793">
        <ele>523.6</ele>
        <time>2020-02-28T10:09:12Z</time>
      </trkpt>
      <trkpt lat="46.79147" lon="5.78783">
        <ele>523.6</ele>
        <time>2020-02-28T10:09:13Z</time>
      </trkpt>
      <trkpt lat="46.79151" lon="5.78774">
        <ele>523.2</ele>
        <time>2020-02-28T10:09:14Z</time>
      </trkpt>
      <trkpt lat="46.79155" lon="5.78764">
        <ele>523.2</ele>
        <time>2020-02-28T10:09:15Z</time>
      </trkpt>
      <trkpt lat="46.79159" lon="5.78754">
        <ele>523</ele>
        <time>2020-02-28T10:09:16Z</time>
      </trkpt>
      <trkpt lat="46.79163" lon="5.78744">
        <ele>523</ele>
        <time>2020-02-28T10:09:17Z</time>
      </trkpt>
      <trkpt lat="46.79167" lon="5.78734">
        <ele>522.8</ele>
        <time>2020-02-28T10:09:18Z</time>
      </trkpt>
      <trkpt lat="46.79171" lon="5.78724">
        <ele>522.8</ele>
        <time>2020-02-28T10:09:19Z</time>
      </trkpt>
      <trkpt lat="46.79175" lon="5.78714">
        <ele>522.6</ele>
        <time>2020-02-28T10:09:20Z</time>
      </trkpt>
      <trkpt lat="46.7918" lon="5.78705">
        <ele>522.6</ele>
        <time>2020-02-28T10:09:21Z</time>
      </trkpt>
      <trkpt lat="46.79185" lon="5.78696">
        <ele>522.2</ele>
        <time>2020-02-28T10:09:22Z</time>
      </trkpt>
      <trkpt lat="46.7919" lon="5.78688">
        <ele>522.2</ele>
        <time>2020-02-28T10:09:23Z</time>
      </trkpt>
      <trkpt lat="46.79196" lon="5.78679">
        <ele>522.2</ele>
        <time>2020-02-28T10:09:24Z</time>
      </trkpt>
      <trkpt lat="46.79201" lon="5.78672">
        <ele>522.2</ele>
        <time>2020-02-28T10:09:25Z</time>
      </trkpt>
      <trkpt lat="46.79207" lon="5.78664">
        <ele>522.2</ele>
        <time>2020-02-28T10:09:26Z</time>
      </trkpt>
      <trkpt lat="46.79212" lon="5.78657">
        <ele>522.2</ele>
        <time>2020-02-28T10:09:27Z</time>
      </trkpt>
      <trkpt lat="46.79218" lon="5.7865">
        <ele>522.2</ele>
        <time>2020-02-28T10:09:28Z</time>
      </trkpt>
      <trkpt lat="46.79224" lon="5.78643">
        <ele>522.2</ele>
        <time>2020-02-28T10:09:29Z</time>
      </trkpt>
      <trkpt lat="46.79229" lon="5.78636">
        <ele>522.6</ele>
        <time>2020-02-28T10:09:30Z</time>
      </trkpt>
      <trkpt lat="46.79234" lon="5.78628">
        <ele>522.6</ele>
        <time>2020-02-28T10:09:31Z</time>
      </trkpt>
      <trkpt lat="46.79238" lon="5.78621">
        <ele>523</ele>
        <time>2020-02-28T10:09:32Z</time>
      </trkpt>
      <trkpt lat="46.79243" lon="5.78615">
        <ele>523.2</ele>
        <time>2020-02-28T10:09:33Z</time>
      </trkpt>
      <trkpt lat="46.79247" lon="5.78608">
        <ele>523.4</ele>
        <time>2020-02-28T10:09:34Z</time>
      </trkpt>
      <trkpt lat="46.79251" lon="5.78602">
        <ele>523.8</ele>
        <time>2020-02-28T10:09:35Z</time>
      </trkpt>
      <trkpt lat="46.79255" lon="5.78597">
        <ele>524.2</ele>
        <time>2020-02-28T10:09:36Z</time>
      </trkpt>
      <trkpt lat="46.79259" lon="5.78591">
        <ele>524.4</ele>
        <time>2020-02-28T10:09:37Z</time>
      </trkpt>
      <trkpt lat="46.79263" lon="5.78585">
        <ele>524.6</ele>
        <time>2020-02-28T10:09:38Z</time>
      </trkpt>
      <trkpt lat="46.79267" lon="5.7858">
        <ele>524.8</ele>
        <time>2020-02-28T10:09:39Z</time>
      </trkpt>
      <trkpt lat="46.7927" lon="5.78575">
        <ele>525.2</ele>
        <time>2020-02-28T10:09:40Z</time>
      </trkpt>
      <trkpt lat="46.79274" lon="5.7857">
        <ele>525.4</ele>
        <time>2020-02-28T10:09:41Z</time>
      </trkpt>
      <trkpt lat="46.79277" lon="5.78565">
        <ele>525.8</ele>
        <time>2020-02-28T10:09:42Z</time>
      </trkpt>
      <trkpt lat="46.79281" lon="5.78561">
        <ele>526</ele>
        <time>2020-02-28T10:09:43Z</time>
      </trkpt>
      <trkpt lat="46.79284" lon="5.78556">
        <ele>526</ele>
        <time>2020-02-28T10:09:44Z</time>
      </trkpt>
      <trkpt lat="46.79287" lon="5.78551">
        <ele>526.4</ele>
        <time>2020-02-28T10:09:45Z</time>
      </trkpt>
      <trkpt lat="46.7929" lon="5.78546">
        <ele>526.6</ele>
        <time>2020-02-28T10:09:46Z</time>
      </trkpt>
      <trkpt lat="46.79293" lon="5.78542">
        <ele>526.6</ele>
        <time>2020-02-28T10:09:47Z</time>
      </trkpt>
      <trkpt lat="46.79297" lon="5.78537">
        <ele>527</ele>
        <time>2020-02-28T10:09:48Z</time>
      </trkpt>
      <trkpt lat="46.793" lon="5.78532">
        <ele>527.2</ele>
        <time>2020-02-28T10:09:49Z</time>
      </trkpt>
      <trkpt lat="46.79303" lon="5.78528">
        <ele>527.4</ele>
        <time>2020-02-28T10:09:50Z</time>
      </trkpt>
      <trkpt lat="46.79306" lon="5.78523">
        <ele>527.8</ele>
        <time>2020-02-28T10:09:51Z</time>
      </trkpt>
      <trkpt lat="46.79309" lon="5.78519">
        <ele>528</ele>
        <time>2020-02-28T10:09:52Z</time>
      </trkpt>
      <trkpt lat="46.79312" lon="5.78514">
        <ele>528.2</ele>
        <time>2020-02-28T10:09:53Z</time>
      </trkpt>
      <trkpt lat="46.79315" lon="5.78509">
        <ele>528.6</ele>
        <time>2020-02-28T10:09:54Z</time>
      </trkpt>
      <trkpt lat="46.79318" lon="5.78505">
        <ele>528.8</ele>
        <time>2020-02-28T10:09:55Z</time>
      </trkpt>
      <trkpt lat="46.79321" lon="5.78501">
        <ele>529</ele>
        <time>2020-02-28T10:09:56Z</time>
      </trkpt>
      <trkpt lat="46.79324" lon="5.78497">
        <ele>529.4</ele>
        <time>2020-02-28T10:09:57Z</time>
      </trkpt>
      <trkpt lat="46.79327" lon="5.78493">
        <ele>529.6</ele>
        <time>2020-02-28T10:09:58Z</time>
      </trkpt>
      <trkpt lat="46.79331" lon="5.78489">
        <ele>529.8</ele>
        <time>2020-02-28T10:09:59Z</time>
      </trkpt>
      <trkpt lat="46.79334" lon="5.78485">
        <ele>530.2</ele>
        <time>2020-02-28T10:10:00Z</time>
      </trkpt>
      <trkpt lat="46.79337" lon="5.78482">
        <ele>530.2</ele>
        <time>2020-02-28T10:10:01Z</time>
      </trkpt>
      <trkpt lat="46.79341" lon="5.78478">
        <ele>530.6</ele>
        <time>2020-02-28T10:10:02Z</time>
      </trkpt>
      <trkpt lat="46.79344" lon="5.78475">
        <ele>530.6</ele>
        <time>2020-02-28T10:10:03Z</time>
      </trkpt>
      <trkpt lat="46.79348" lon="5.78471">
        <ele>530.8</ele>
        <time>2020-02-28T10:10:04Z</time>
      </trkpt>
      <trkpt lat="46.79351" lon="5.78468">
        <ele>530.8</ele>
        <time>2020-02-28T10:10:05Z</time>
      </trkpt>
      <trkpt lat="46.79355" lon="5.78466">
        <ele>531.2</ele>
        <time>2020-02-28T10:10:06Z</time>
      </trkpt>
      <trkpt lat="46.79359" lon="5.78463">
        <ele>531.2</ele>
        <time>2020-02-28T10:10:07Z</time>
      </trkpt>
      <trkpt lat="46.79363" lon="5.78461">
        <ele>531.4</ele>
        <time>2020-02-28T10:10:08Z</time>
      </trkpt>
      <trkpt lat="46.79367" lon="5.78459">
        <ele>531.4</ele>
        <time>2020-02-28T10:10:09Z</time>
      </trkpt>
      <trkpt lat="46.7937" lon="5.78456">
        <ele>531.6</ele>
        <time>2020-02-28T10:10:10Z</time>
      </trkpt>
      <trkpt lat="46.79374" lon="5.78454">
        <ele>531.6</ele>
        <time>2020-02-28T10:10:11Z</time>
      </trkpt>
      <trkpt lat="46.79378" lon="5.78451">
        <ele>531.8</ele>
        <time>2020-02-28T10:10:12Z</time>
      </trkpt>
      <trkpt lat="46.79381" lon="5.78449">
        <ele>531.8</ele>
        <time>2020-02-28T10:10:13Z</time>
      </trkpt>
      <trkpt lat="46.79385" lon="5.78447">
        <ele>532.2</ele>
        <time>2020-02-28T10:10:14Z</time>
      </trkpt>
      <trkpt lat="46.79388" lon="5.78445">
        <ele>532.2</ele>
        <time>2020-02-28T10:10:15Z</time>
      </trkpt>
      <trkpt lat="46.79392" lon="5.78443">
        <ele>532.2</ele>
        <time>2020-02-28T10:10:16Z</time>
      </trkpt>
      <trkpt lat="46.79395" lon="5.7844">
        <ele>532.4</ele>
        <time>2020-02-28T10:10:17Z</time>
      </trkpt>
      <trkpt lat="46.79399" lon="5.78439">
        <ele>532.4</ele>
        <time>2020-02-28T10:10:18Z</time>
      </trkpt>
      <trkpt lat="46.79403" lon="5.78436">
        <ele>532.6</ele>
        <time>2020-02-28T10:10:19Z</time>
      </trkpt>
      <trkpt lat="46.79406" lon="5.78434">
        <ele>532.6</ele>
        <time>2020-02-28T10:10:20Z</time>
      </trkpt>
      <trkpt lat="46.7941" lon="5.78432">
        <ele>533</ele>
        <time>2020-02-28T10:10:21Z</time>
      </trkpt>
      <trkpt lat="46.79413" lon="5.7843">
        <ele>533</ele>
        <time>2020-02-28T10:10:22Z</time>
      </trkpt>
      <trkpt lat="46.79417" lon="5.78428">
        <ele>533.4</ele>
        <time>2020-02-28T10:10:23Z</time>
      </trkpt>
      <trkpt lat="46.79421" lon="5.78426">
        <ele>533.4</ele>
        <time>2020-02-28T10:10:24Z</time>
      </trkpt>
      <trkpt lat="46.79424" lon="5.78425">
        <ele>533.8</ele>
        <time>2020-02-28T10:10:25Z</time>
      </trkpt>
      <trkpt lat="46.79428" lon="5.78423">
        <ele>533.8</ele>
        <time>2020-02-28T10:10:26Z</time>
      </trkpt>
      <trkpt lat="46.79432" lon="5.78421">
        <ele>534</ele>
        <time>2020-02-28T10:10:27Z</time>
      </trkpt>
      <trkpt lat="46.79436" lon="5.78419">
        <ele>534</ele>
        <time>2020-02-28T10:10:28Z</time>
      </trkpt>
      <trkpt lat="46.7944" lon="5.78417">
        <ele>534.4</ele>
        <time>2020-02-28T10:10:29Z</time>
      </trkpt>
      <trkpt lat="46.79444" lon="5.78415">
        <ele>534.4</ele>
        <time>2020-02-28T10:10:30Z</time>
      </trkpt>
      <trkpt lat="46.79447" lon="5.78413">
        <ele>534.6</ele>
        <time>2020-02-28T10:10:31Z</time>
      </trkpt>
      <trkpt lat="46.79451" lon="5.78411">
        <ele>534.6</ele>
        <time>2020-02-28T10:10:32Z</time>
      </trkpt>
      <trkpt lat="46.79455" lon="5.78409">
        <ele>534.8</ele>
        <time>2020-02-28T10:10:33Z</time>
      </trkpt>
      <trkpt lat="46.79459" lon="5.78407">
        <ele>534.8</ele>
        <time>2020-02-28T10:10:34Z</time>
      </trkpt>
      <trkpt lat="46.79462" lon="5.78405">
        <ele>535.2</ele>
        <time>2020-02-28T10:10:35Z</time>
      </trkpt>
      <trkpt lat="46.79466" lon="5.78402">
        <ele>535.2</ele>
        <time>2020-02-28T10:10:36Z</time>
      </trkpt>
      <trkpt lat="46.79469" lon="5.784">
        <ele>535.6</ele>
        <time>2020-02-28T10:10:37Z</time>
      </trkpt>
      <trkpt lat="46.79473" lon="5.78398">
        <ele>535.8</ele>
        <time>2020-02-28T10:10:38Z</time>
      </trkpt>
      <trkpt lat="46.79476" lon="5.78396">
        <ele>535.8</ele>
        <time>2020-02-28T10:10:39Z</time>
      </trkpt>
      <trkpt lat="46.79479" lon="5.78394">
        <ele>536</ele>
        <time>2020-02-28T10:10:40Z</time>
      </trkpt>
      <trkpt lat="46.79483" lon="5.78393">
        <ele>536</ele>
        <time>2020-02-28T10:10:41Z</time>
      </trkpt>
      <trkpt lat="46.79487" lon="5.78391">
        <ele>536.2</ele>
        <time>2020-02-28T10:10:42Z</time>
      </trkpt>
      <trkpt lat="46.7949" lon="5.7839">
        <ele>536.2</ele>
        <time>2020-02-28T10:10:43Z</time>
      </trkpt>
      <trkpt lat="46.79493" lon="5.78388">
        <ele>536.2</ele>
        <time>2020-02-28T10:10:44Z</time>
      </trkpt>
      <trkpt lat="46.79497" lon="5.78386">
        <ele>536.4</ele>
        <time>2020-02-28T10:10:45Z</time>
      </trkpt>
      <trkpt lat="46.795" lon="5.78385">
        <ele>536.4</ele>
        <time>2020-02-28T10:10:46Z</time>
      </trkpt>
      <trkpt lat="46.79504" lon="5.78383">
        <ele>536.6</ele>
        <time>2020-02-28T10:10:47Z</time>
      </trkpt>
      <trkpt lat="46.79507" lon="5.78381">
        <ele>536.6</ele>
        <time>2020-02-28T10:10:48Z</time>
      </trkpt>
      <trkpt lat="46.7951" lon="5.78379">
        <ele>537</ele>
        <time>2020-02-28T10:10:49Z</time>
      </trkpt>
      <trkpt lat="46.79513" lon="5.78378">
        <ele>537</ele>
        <time>2020-02-28T10:10:50Z</time>
      </trkpt>
      <trkpt lat="46.79517" lon="5.78376">
        <ele>537.2</ele>
        <time>2020-02-28T10:10:51Z</time>
      </trkpt>
      <trkpt lat="46.7952" lon="5.78375">
        <ele>537.2</ele>
        <time>2020-02-28T10:10:52Z</time>
      </trkpt>
      <trkpt lat="46.79524" lon="5.78373">
        <ele>537.6</ele>
        <time>2020-02-28T10:10:53Z</time>
      </trkpt>
      <trkpt lat="46.79527" lon="5.78371">
        <ele>537.8</ele>
        <time>2020-02-28T10:10:54Z</time>
      </trkpt>
      <trkpt lat="46.7953" lon="5.78369">
        <ele>537.8</ele>
        <time>2020-02-28T10:10:55Z</time>
      </trkpt>
      <trkpt lat="46.79534" lon="5.78367">
        <ele>538</ele>
        <time>2020-02-28T10:10:56Z</time>
      </trkpt>
      <trkpt lat="46.79537" lon="5.78365">
        <ele>538</ele>
        <time>2020-02-28T10:10:57Z</time>
      </trkpt>
      <trkpt lat="46.7954" lon="5.78363">
        <ele>538.2</ele>
        <time>2020-02-28T10:10:58Z</time>
      </trkpt>
      <trkpt lat="46.79543" lon="5.78361">
        <ele>538.2</ele>
        <time>2020-02-28T10:10:59Z</time>
      </trkpt>
      <trkpt lat="46.79547" lon="5.78359">
        <ele>538.6</ele>
        <time>2020-02-28T10:11:00Z</time>
      </trkpt>
      <trkpt lat="46.7955" lon="5.78357">
        <ele>538.6</ele>
        <time>2020-02-28T10:11:01Z</time>
      </trkpt>
      <trkpt lat="46.79554" lon="5.78356">
        <ele>538.6</ele>
        <time>2020-02-28T10:11:02Z</time>
      </trkpt>
      <trkpt lat="46.79557" lon="5.78354">
        <ele>538.8</ele>
        <time>2020-02-28T10:11:03Z</time>
      </trkpt>
      <trkpt lat="46.7956" lon="5.78352">
        <ele>538.8</ele>
        <time>2020-02-28T10:11:04Z</time>
      </trkpt>
      <trkpt lat="46.79564" lon="5.7835">
        <ele>538.8</ele>
        <time>2020-02-28T10:11:05Z</time>
      </trkpt>
      <trkpt lat="46.79567" lon="5.78349">
        <ele>539</ele>
        <time>2020-02-28T10:11:06Z</time>
      </trkpt>
      <trkpt lat="46.7957" lon="5.78347">
        <ele>539</ele>
        <time>2020-02-28T10:11:07Z</time>
      </trkpt>
      <trkpt lat="46.79573" lon="5.78345">
        <ele>539.4</ele>
        <time>2020-02-28T10:11:08Z</time>
      </trkpt>
      <trkpt lat="46.79577" lon="5.78343">
        <ele>539.6</ele>
        <time>2020-02-28T10:11:09Z</time>
      </trkpt>
      <trkpt lat="46.79579" lon="5.7834">
        <ele>539.8</ele>
        <time>2020-02-28T10:11:10Z</time>
      </trkpt>
      <trkpt lat="46.79582" lon="5.78338">
        <ele>539.8</ele>
        <time>2020-02-28T10:11:11Z</time>
      </trkpt>
      <trkpt lat="46.79585" lon="5.78336">
        <ele>539.8</ele>
        <time>2020-02-28T10:11:12Z</time>
      </trkpt>
      <trkpt lat="46.79589" lon="5.78335">
        <ele>540</ele>
        <time>2020-02-28T10:11:13Z</time>
      </trkpt>
      <trkpt lat="46.79592" lon="5.78332">
        <ele>540</ele>
        <time>2020-02-28T10:11:14Z</time>
      </trkpt>
      <trkpt lat="46.79596" lon="5.7833">
        <ele>540.2</ele>
        <time>2020-02-28T10:11:15Z</time>
      </trkpt>
      <trkpt lat="46.79599" lon="5.78328">
        <ele>540.2</ele>
        <time>2020-02-28T10:11:16Z</time>
      </trkpt>
      <trkpt lat="46.79602" lon="5.78327">
        <ele>540.6</ele>
        <time>2020-02-28T10:11:17Z</time>
      </trkpt>
      <trkpt lat="46.79606" lon="5.78325">
        <ele>540.6</ele>
        <time>2020-02-28T10:11:18Z</time>
      </trkpt>
      <trkpt lat="46.79609" lon="5.78323">
        <ele>540.6</ele>
        <time>2020-02-28T10:11:19Z</time>
      </trkpt>
      <trkpt lat="46.79613" lon="5.78322">
        <ele>540.8</ele>
        <time>2020-02-28T10:11:20Z</time>
      </trkpt>
      <trkpt lat="46.79616" lon="5.7832">
        <ele>540.8</ele>
        <time>2020-02-28T10:11:21Z</time>
      </trkpt>
      <trkpt lat="46.7962" lon="5.78318">
        <ele>541.2</ele>
        <time>2020-02-28T10:11:22Z</time>
      </trkpt>
      <trkpt lat="46.79623" lon="5.78315">
        <ele>541.2</ele>
        <time>2020-02-28T10:11:23Z</time>
      </trkpt>
      <trkpt lat="46.79627" lon="5.78313">
        <ele>541.4</ele>
        <time>2020-02-28T10:11:24Z</time>
      </trkpt>
      <trkpt lat="46.7963" lon="5.78311">
        <ele>541.4</ele>
        <time>2020-02-28T10:11:25Z</time>
      </trkpt>
      <trkpt lat="46.79634" lon="5.7831">
        <ele>541.6</ele>
        <time>2020-02-28T10:11:26Z</time>
      </trkpt>
      <trkpt lat="46.79638" lon="5.78308">
        <ele>541.8</ele>
        <time>2020-02-28T10:11:27Z</time>
      </trkpt>
      <trkpt lat="46.79642" lon="5.78307">
        <ele>541.8</ele>
        <time>2020-02-28T10:11:28Z</time>
      </trkpt>
      <trkpt lat="46.79646" lon="5.78305">
        <ele>542</ele>
        <time>2020-02-28T10:11:29Z</time>
      </trkpt>
      <trkpt lat="46.7965" lon="5.78303">
        <ele>542</ele>
        <time>2020-02-28T10:11:30Z</time>
      </trkpt>
      <trkpt lat="46.79653" lon="5.78301">
        <ele>542</ele>
        <time>2020-02-28T10:11:31Z</time>
      </trkpt>
      <trkpt lat="46.79656" lon="5.783">
        <ele>542.4</ele>
        <time>2020-02-28T10:11:32Z</time>
      </trkpt>
      <trkpt lat="46.7966" lon="5.78298">
        <ele>542.4</ele>
        <time>2020-02-28T10:11:33Z</time>
      </trkpt>
      <trkpt lat="46.79664" lon="5.78297">
        <ele>542.6</ele>
        <time>2020-02-28T10:11:34Z</time>
      </trkpt>
      <trkpt lat="46.79668" lon="5.78294">
        <ele>542.6</ele>
        <time>2020-02-28T10:11:35Z</time>
      </trkpt>
      <trkpt lat="46.79671" lon="5.78292">
        <ele>542.6</ele>
        <time>2020-02-28T10:11:36Z</time>
      </trkpt>
      <trkpt lat="46.79674" lon="5.78291">
        <ele>543</ele>
        <time>2020-02-28T10:11:37Z</time>
      </trkpt>
      <trkpt lat="46.79678" lon="5.78289">
        <ele>543</ele>
        <time>2020-02-28T10:11:38Z</time>
      </trkpt>
      <trkpt lat="46.79681" lon="5.78287">
        <ele>543</ele>
        <time>2020-02-28T10:11:39Z</time>
      </trkpt>
      <trkpt lat="46.79684" lon="5.78286">
        <ele>543</ele>
        <time>2020-02-28T10:11:40Z</time>
      </trkpt>
      <trkpt lat="46.79688" lon="5.78284">
        <ele>543.2</ele>
        <time>2020-02-28T10:11:41Z</time>
      </trkpt>
      <trkpt lat="46.79691" lon="5.78283">
        <ele>543.2</ele>
        <time>2020-02-28T10:11:42Z</time>
      </trkpt>
      <trkpt lat="46.79694" lon="5.78281">
        <ele>543.4</ele>
        <time>2020-02-28T10:11:43Z</time>
      </trkpt>
      <trkpt lat="46.79698" lon="5.78279">
        <ele>543.4</ele>
        <time>2020-02-28T10:11:44Z</time>
      </trkpt>
      <trkpt lat="46.79701" lon="5.78278">
        <ele>543.8</ele>
        <time>2020-02-28T10:11:45Z</time>
      </trkpt>
      <trkpt lat="46.79704" lon="5.78276">
        <ele>543.8</ele>
        <time>2020-02-28T10:11:46Z</time>
      </trkpt>
      <trkpt lat="46.79708" lon="5.78275">
        <ele>544.2</ele>
        <time>2020-02-28T10:11:47Z</time>
      </trkpt>
      <trkpt lat="46.79711" lon="5.78274">
        <ele>544.2</ele>
        <time>2020-02-28T10:11:48Z</time>
      </trkpt>
      <trkpt lat="46.79715" lon="5.78273">
        <ele>544.4</ele>
        <time>2020-02-28T10:11:49Z</time>
      </trkpt>
      <trkpt lat="46.79719" lon="5.78272">
        <ele>544.4</ele>
        <time>2020-02-28T10:11:50Z</time>
      </trkpt>
      <trkpt lat="46.79722" lon="5.7827">
        <ele>544.4</ele>
        <time>2020-02-28T10:11:51Z</time>
      </trkpt>
      <trkpt lat="46.79726" lon="5.78268">
        <ele>544.8</ele>
        <time>2020-02-28T10:11:52Z</time>
      </trkpt>
      <trkpt lat="46.79729" lon="5.78267">
        <ele>544.8</ele>
        <time>2020-02-28T10:11:53Z</time>
      </trkpt>
      <trkpt lat="46.79732" lon="5.78264">
        <ele>545</ele>
        <time>2020-02-28T10:11:54Z</time>
      </trkpt>
      <trkpt lat="46.79736" lon="5.78262">
        <ele>545</ele>
        <time>2020-02-28T10:11:55Z</time>
      </trkpt>
      <trkpt lat="46.79739" lon="5.78261">
        <ele>545.4</ele>
        <time>2020-02-28T10:11:56Z</time>
      </trkpt>
      <trkpt lat="46.79742" lon="5.78259">
        <ele>545.4</ele>
        <time>2020-02-28T10:11:57Z</time>
      </trkpt>
      <trkpt lat="46.79746" lon="5.78257">
        <ele>545.6</ele>
        <time>2020-02-28T10:11:58Z</time>
      </trkpt>
      <trkpt lat="46.79749" lon="5.78255">
        <ele>545.6</ele>
        <time>2020-02-28T10:11:59Z</time>
      </trkpt>
      <trkpt lat="46.79753" lon="5.78253">
        <ele>545.8</ele>
        <time>2020-02-28T10:12:00Z</time>
      </trkpt>
      <trkpt lat="46.79756" lon="5.78252">
        <ele>545.8</ele>
        <time>2020-02-28T10:12:01Z</time>
      </trkpt>
      <trkpt lat="46.7976" lon="5.7825">
        <ele>546.2</ele>
        <time>2020-02-28T10:12:02Z</time>
      </trkpt>
      <trkpt lat="46.79764" lon="5.78249">
        <ele>546.2</ele>
        <time>2020-02-28T10:12:03Z</time>
      </trkpt>
      <trkpt lat="46.79767" lon="5.78247">
        <ele>546.2</ele>
        <time>2020-02-28T10:12:04Z</time>
      </trkpt>
      <trkpt lat="46.79771" lon="5.78245">
        <ele>546.4</ele>
        <time>2020-02-28T10:12:05Z</time>
      </trkpt>
      <trkpt lat="46.79774" lon="5.78243">
        <ele>546.4</ele>
        <time>2020-02-28T10:12:06Z</time>
      </trkpt>
      <trkpt lat="46.79778" lon="5.7824">
        <ele>546.4</ele>
        <time>2020-02-28T10:12:07Z</time>
      </trkpt>
      <trkpt lat="46.79781" lon="5.78238">
        <ele>546.6</ele>
        <time>2020-02-28T10:12:08Z</time>
      </trkpt>
      <trkpt lat="46.79785" lon="5.78236">
        <ele>546.6</ele>
        <time>2020-02-28T10:12:09Z</time>
      </trkpt>
      <trkpt lat="46.79789" lon="5.78234">
        <ele>546.6</ele>
        <time>2020-02-28T10:12:10Z</time>
      </trkpt>
      <trkpt lat="46.79792" lon="5.78231">
        <ele>547</ele>
        <time>2020-02-28T10:12:11Z</time>
      </trkpt>
      <trkpt lat="46.79796" lon="5.78229">
        <ele>547</ele>
        <time>2020-02-28T10:12:12Z</time>
      </trkpt>
      <trkpt lat="46.798" lon="5.78227">
        <ele>547.2</ele>
        <time>2020-02-28T10:12:13Z</time>
      </trkpt>
      <trkpt lat="46.79804" lon="5.78224">
        <ele>547.2</ele>
        <time>2020-02-28T10:12:14Z</time>
      </trkpt>
      <trkpt lat="46.79807" lon="5.78222">
        <ele>547.2</ele>
        <time>2020-02-28T10:12:15Z</time>
      </trkpt>
      <trkpt lat="46.79811" lon="5.7822">
        <ele>547.2</ele>
        <time>2020-02-28T10:12:16Z</time>
      </trkpt>
      <trkpt lat="46.79815" lon="5.78218">
        <ele>547.2</ele>
        <time>2020-02-28T10:12:17Z</time>
      </trkpt>
      <trkpt lat="46.7982" lon="5.78216">
        <ele>547.2</ele>
        <time>2020-02-28T10:12:18Z</time>
      </trkpt>
      <trkpt lat="46.79824" lon="5.78213">
        <ele>547.2</ele>
        <time>2020-02-28T10:12:19Z</time>
      </trkpt>
      <trkpt lat="46.79827" lon="5.7821">
        <ele>547.2</ele>
        <time>2020-02-28T10:12:20Z</time>
      </trkpt>
      <trkpt lat="46.79831" lon="5.78208">
        <ele>547.2</ele>
        <time>2020-02-28T10:12:21Z</time>
      </trkpt>
      <trkpt lat="46.79835" lon="5.78206">
        <ele>547.4</ele>
        <time>2020-02-28T10:12:22Z</time>
      </trkpt>
      <trkpt lat="46.79839" lon="5.78204">
        <ele>547.4</ele>
        <time>2020-02-28T10:12:23Z</time>
      </trkpt>
      <trkpt lat="46.79844" lon="5.78202">
        <ele>547.4</ele>
        <time>2020-02-28T10:12:24Z</time>
      </trkpt>
      <trkpt lat="46.79847" lon="5.782">
        <ele>547.4</ele>
        <time>2020-02-28T10:12:25Z</time>
      </trkpt>
      <trkpt lat="46.79851" lon="5.78198">
        <ele>547.6</ele>
        <time>2020-02-28T10:12:26Z</time>
      </trkpt>
      <trkpt lat="46.79855" lon="5.78195">
        <ele>547.6</ele>
        <time>2020-02-28T10:12:27Z</time>
      </trkpt>
      <trkpt lat="46.7986" lon="5.78193">
        <ele>547.6</ele>
        <time>2020-02-28T10:12:28Z</time>
      </trkpt>
      <trkpt lat="46.79864" lon="5.78191">
        <ele>547.6</ele>
        <time>2020-02-28T10:12:29Z</time>
      </trkpt>
      <trkpt lat="46.79868" lon="5.78189">
        <ele>548</ele>
        <time>2020-02-28T10:12:30Z</time>
      </trkpt>
      <trkpt lat="46.79872" lon="5.78187">
        <ele>548</ele>
        <time>2020-02-28T10:12:31Z</time>
      </trkpt>
      <trkpt lat="46.79876" lon="5.78185">
        <ele>548</ele>
        <time>2020-02-28T10:12:32Z</time>
      </trkpt>
      <trkpt lat="46.7988" lon="5.78184">
        <ele>548.2</ele>
        <time>2020-02-28T10:12:33Z</time>
      </trkpt>
      <trkpt lat="46.79884" lon="5.78182">
        <ele>548.2</ele>
        <time>2020-02-28T10:12:34Z</time>
      </trkpt>
      <trkpt lat="46.79888" lon="5.7818">
        <ele>548.4</ele>
        <time>2020-02-28T10:12:35Z</time>
      </trkpt>
      <trkpt lat="46.79892" lon="5.78178">
        <ele>548.4</ele>
        <time>2020-02-28T10:12:36Z</time>
      </trkpt>
      <trkpt lat="46.79896" lon="5.78176">
        <ele>548.4</ele>
        <time>2020-02-28T10:12:37Z</time>
      </trkpt>
      <trkpt lat="46.799" lon="5.78174">
        <ele>548.8</ele>
        <time>2020-02-28T10:12:38Z</time>
      </trkpt>
      <trkpt lat="46.79905" lon="5.78172">
        <ele>548.8</ele>
        <time>2020-02-28T10:12:39Z</time>
      </trkpt>
      <trkpt lat="46.79909" lon="5.7817">
        <ele>548.8</ele>
        <time>2020-02-28T10:12:40Z</time>
      </trkpt>
      <trkpt lat="46.79913" lon="5.78168">
        <ele>549</ele>
        <time>2020-02-28T10:12:41Z</time>
      </trkpt>
      <trkpt lat="46.79917" lon="5.78165">
        <ele>549.2</ele>
        <time>2020-02-28T10:12:42Z</time>
      </trkpt>
      <trkpt lat="46.79921" lon="5.78163">
        <ele>549.2</ele>
        <time>2020-02-28T10:12:43Z</time>
      </trkpt>
      <trkpt lat="46.79926" lon="5.78161">
        <ele>549.6</ele>
        <time>2020-02-28T10:12:44Z</time>
      </trkpt>
      <trkpt lat="46.7993" lon="5.78158">
        <ele>549.6</ele>
        <time>2020-02-28T10:12:45Z</time>
      </trkpt>
      <trkpt lat="46.79934" lon="5.78156">
        <ele>550</ele>
        <time>2020-02-28T10:12:46Z</time>
      </trkpt>
      <trkpt lat="46.79937" lon="5.78155">
        <ele>550</ele>
        <time>2020-02-28T10:12:47Z</time>
      </trkpt>
      <trkpt lat="46.79941" lon="5.78153">
        <ele>550.2</ele>
        <time>2020-02-28T10:12:48Z</time>
      </trkpt>
      <trkpt lat="46.79945" lon="5.78151">
        <ele>550.2</ele>
        <time>2020-02-28T10:12:49Z</time>
      </trkpt>
      <trkpt lat="46.79949" lon="5.78149">
        <ele>550.6</ele>
        <time>2020-02-28T10:12:50Z</time>
      </trkpt>
      <trkpt lat="46.79952" lon="5.78147">
        <ele>550.8</ele>
        <time>2020-02-28T10:12:51Z</time>
      </trkpt>
      <trkpt lat="46.79956" lon="5.78145">
        <ele>551</ele>
        <time>2020-02-28T10:12:52Z</time>
      </trkpt>
      <trkpt lat="46.7996" lon="5.78144">
        <ele>551.2</ele>
        <time>2020-02-28T10:12:53Z</time>
      </trkpt>
      <trkpt lat="46.79963" lon="5.78142">
        <ele>551.2</ele>
        <time>2020-02-28T10:12:54Z</time>
      </trkpt>
      <trkpt lat="46.79967" lon="5.7814">
        <ele>551.6</ele>
        <time>2020-02-28T10:12:55Z</time>
      </trkpt>
      <trkpt lat="46.7997" lon="5.78138">
        <ele>551.6</ele>
        <time>2020-02-28T10:12:56Z</time>
      </trkpt>
      <trkpt lat="46.79974" lon="5.78137">
        <ele>551.6</ele>
        <time>2020-02-28T10:12:57Z</time>
      </trkpt>
      <trkpt lat="46.79978" lon="5.78135">
        <ele>551.8</ele>
        <time>2020-02-28T10:12:58Z</time>
      </trkpt>
      <trkpt lat="46.79981" lon="5.78133">
        <ele>551.8</ele>
        <time>2020-02-28T10:12:59Z</time>
      </trkpt>
      <trkpt lat="46.79985" lon="5.78132">
        <ele>552</ele>
        <time>2020-02-28T10:13:00Z</time>
      </trkpt>
      <trkpt lat="46.79989" lon="5.7813">
        <ele>552</ele>
        <time>2020-02-28T10:13:01Z</time>
      </trkpt>
      <trkpt lat="46.79992" lon="5.78128">
        <ele>552</ele>
        <time>2020-02-28T10:13:02Z</time>
      </trkpt>
      <trkpt lat="46.79996" lon="5.78127">
        <ele>552.4</ele>
        <time>2020-02-28T10:13:03Z</time>
      </trkpt>
      <trkpt lat="46.8" lon="5.78126">
        <ele>552.4</ele>
        <time>2020-02-28T10:13:04Z</time>
      </trkpt>
      <trkpt lat="46.80003" lon="5.78125">
        <ele>552.8</ele>
        <time>2020-02-28T10:13:05Z</time>
      </trkpt>
      <trkpt lat="46.80006" lon="5.78123">
        <ele>552.8</ele>
        <time>2020-02-28T10:13:06Z</time>
      </trkpt>
      <trkpt lat="46.8001" lon="5.78122">
        <ele>553</ele>
        <time>2020-02-28T10:13:07Z</time>
      </trkpt>
      <trkpt lat="46.80014" lon="5.78121">
        <ele>553</ele>
        <time>2020-02-28T10:13:08Z</time>
      </trkpt>
      <trkpt lat="46.80017" lon="5.7812">
        <ele>553</ele>
        <time>2020-02-28T10:13:09Z</time>
      </trkpt>
      <trkpt lat="46.8002" lon="5.78119">
        <ele>553.2</ele>
        <time>2020-02-28T10:13:10Z</time>
      </trkpt>
      <trkpt lat="46.80024" lon="5.78118">
        <ele>553.2</ele>
        <time>2020-02-28T10:13:11Z</time>
      </trkpt>
      <trkpt lat="46.80027" lon="5.78117">
        <ele>553.2</ele>
        <time>2020-02-28T10:13:12Z</time>
      </trkpt>
      <trkpt lat="46.8003" lon="5.78117">
        <ele>553.4</ele>
        <time>2020-02-28T10:13:13Z</time>
      </trkpt>
      <trkpt lat="46.80034" lon="5.78115">
        <ele>553.4</ele>
        <time>2020-02-28T10:13:14Z</time>
      </trkpt>
      <trkpt lat="46.80037" lon="5.78114">
        <ele>553.8</ele>
        <time>2020-02-28T10:13:15Z</time>
      </trkpt>
      <trkpt lat="46.8004" lon="5.78113">
        <ele>553.8</ele>
        <time>2020-02-28T10:13:16Z</time>
      </trkpt>
      <trkpt lat="46.80043" lon="5.78111">
        <ele>554</ele>
        <time>2020-02-28T10:13:17Z</time>
      </trkpt>
      <trkpt lat="46.80046" lon="5.7811">
        <ele>554</ele>
        <time>2020-02-28T10:13:18Z</time>
      </trkpt>
      <trkpt lat="46.80049" lon="5.78109">
        <ele>554.2</ele>
        <time>2020-02-28T10:13:19Z</time>
      </trkpt>
      <trkpt lat="46.80052" lon="5.78108">
        <ele>554.2</ele>
        <time>2020-02-28T10:13:20Z</time>
      </trkpt>
      <trkpt lat="46.80055" lon="5.78107">
        <ele>554.2</ele>
        <time>2020-02-28T10:13:21Z</time>
      </trkpt>
      <trkpt lat="46.80058" lon="5.78107">
        <ele>554.4</ele>
        <time>2020-02-28T10:13:22Z</time>
      </trkpt>
      <trkpt lat="46.80062" lon="5.78108">
        <ele>554.4</ele>
        <time>2020-02-28T10:13:23Z</time>
      </trkpt>
      <trkpt lat="46.80067" lon="5.78108">
        <ele>554.4</ele>
        <time>2020-02-28T10:13:24Z</time>
      </trkpt>
      <trkpt lat="46.80071" lon="5.78107">
        <ele>554.4</ele>
        <time>2020-02-28T10:13:25Z</time>
      </trkpt>
      <trkpt lat="46.80076" lon="5.78106">
        <ele>554.4</ele>
        <time>2020-02-28T10:13:26Z</time>
      </trkpt>
      <trkpt lat="46.8008" lon="5.78105">
        <ele>554.4</ele>
        <time>2020-02-28T10:13:27Z</time>
      </trkpt>
      <trkpt lat="46.80083" lon="5.78104">
        <ele>554.4</ele>
        <time>2020-02-28T10:13:28Z</time>
      </trkpt>
      <trkpt lat="46.80088" lon="5.78104">
        <ele>554.4</ele>
        <time>2020-02-28T10:13:29Z</time>
      </trkpt>
      <trkpt lat="46.80093" lon="5.78105">
        <ele>554.4</ele>
        <time>2020-02-28T10:13:30Z</time>
      </trkpt>
      <trkpt lat="46.80099" lon="5.78107">
        <ele>554.6</ele>
        <time>2020-02-28T10:13:31Z</time>
      </trkpt>
      <trkpt lat="46.80103" lon="5.78107">
        <ele>554.6</ele>
        <time>2020-02-28T10:13:32Z</time>
      </trkpt>
      <trkpt lat="46.80108" lon="5.78107">
        <ele>554.6</ele>
        <time>2020-02-28T10:13:33Z</time>
      </trkpt>
      <trkpt lat="46.80113" lon="5.78106">
        <ele>554.6</ele>
        <time>2020-02-28T10:13:34Z</time>
      </trkpt>
      <trkpt lat="46.80118" lon="5.78105">
        <ele>554.6</ele>
        <time>2020-02-28T10:13:35Z</time>
      </trkpt>
      <trkpt lat="46.80122" lon="5.78104">
        <ele>554.6</ele>
        <time>2020-02-28T10:13:36Z</time>
      </trkpt>
      <trkpt lat="46.80126" lon="5.78103">
        <ele>554.6</ele>
        <time>2020-02-28T10:13:37Z</time>
      </trkpt>
      <trkpt lat="46.80131" lon="5.78103">
        <ele>554.6</ele>
        <time>2020-02-28T10:13:38Z</time>
      </trkpt>
      <trkpt lat="46.80136" lon="5.78103">
        <ele>554.6</ele>
        <time>2020-02-28T10:13:39Z</time>
      </trkpt>
      <trkpt lat="46.8014" lon="5.78102">
        <ele>554.6</ele>
        <time>2020-02-28T10:13:40Z</time>
      </trkpt>
      <trkpt lat="46.80145" lon="5.78102">
        <ele>554.6</ele>
        <time>2020-02-28T10:13:41Z</time>
      </trkpt>
      <trkpt lat="46.8015" lon="5.78101">
        <ele>554.6</ele>
        <time>2020-02-28T10:13:42Z</time>
      </trkpt>
      <trkpt lat="46.80154" lon="5.781">
        <ele>554.6</ele>
        <time>2020-02-28T10:13:43Z</time>
      </trkpt>
      <trkpt lat="46.80158" lon="5.781">
        <ele>554.6</ele>
        <time>2020-02-28T10:13:44Z</time>
      </trkpt>
      <trkpt lat="46.80163" lon="5.78099">
        <ele>554.6</ele>
        <time>2020-02-28T10:13:45Z</time>
      </trkpt>
      <trkpt lat="46.80168" lon="5.781">
        <ele>554.6</ele>
        <time>2020-02-28T10:13:46Z</time>
      </trkpt>
      <trkpt lat="46.80172" lon="5.781">
        <ele>554.6</ele>
        <time>2020-02-28T10:13:47Z</time>
      </trkpt>
      <trkpt lat="46.80177" lon="5.78099">
        <ele>554.6</ele>
        <time>2020-02-28T10:13:48Z</time>
      </trkpt>
      <trkpt lat="46.80181" lon="5.78098">
        <ele>554.6</ele>
        <time>2020-02-28T10:13:49Z</time>
      </trkpt>
      <trkpt lat="46.80186" lon="5.78098">
        <ele>554.6</ele>
        <time>2020-02-28T10:13:50Z</time>
      </trkpt>
      <trkpt lat="46.80191" lon="5.78097">
        <ele>554.6</ele>
        <time>2020-02-28T10:13:51Z</time>
      </trkpt>
      <trkpt lat="46.80196" lon="5.78096">
        <ele>554.6</ele>
        <time>2020-02-28T10:13:52Z</time>
      </trkpt>
      <trkpt lat="46.802" lon="5.78096">
        <ele>554.6</ele>
        <time>2020-02-28T10:13:53Z</time>
      </trkpt>
      <trkpt lat="46.80204" lon="5.78095">
        <ele>554.6</ele>
        <time>2020-02-28T10:13:54Z</time>
      </trkpt>
      <trkpt lat="46.80209" lon="5.78094">
        <ele>554.6</ele>
        <time>2020-02-28T10:13:55Z</time>
      </trkpt>
      <trkpt lat="46.80213" lon="5.78093">
        <ele>554.6</ele>
        <time>2020-02-28T10:13:56Z</time>
      </trkpt>
      <trkpt lat="46.80217" lon="5.78092">
        <ele>554.8</ele>
        <time>2020-02-28T10:13:57Z</time>
      </trkpt>
      <trkpt lat="46.80221" lon="5.78092">
        <ele>554.8</ele>
        <time>2020-02-28T10:13:58Z</time>
      </trkpt>
      <trkpt lat="46.80225" lon="5.78091">
        <ele>554.8</ele>
        <time>2020-02-28T10:13:59Z</time>
      </trkpt>
      <trkpt lat="46.80229" lon="5.7809">
        <ele>555.2</ele>
        <time>2020-02-28T10:14:00Z</time>
      </trkpt>
      <trkpt lat="46.80234" lon="5.7809">
        <ele>555.2</ele>
        <time>2020-02-28T10:14:01Z</time>
      </trkpt>
      <trkpt lat="46.80238" lon="5.78091">
        <ele>555.4</ele>
        <time>2020-02-28T10:14:02Z</time>
      </trkpt>
      <trkpt lat="46.80243" lon="5.7809">
        <ele>555.4</ele>
        <time>2020-02-28T10:14:03Z</time>
      </trkpt>
      <trkpt lat="46.80247" lon="5.78088">
        <ele>555.6</ele>
        <time>2020-02-28T10:14:04Z</time>
      </trkpt>
      <trkpt lat="46.80251" lon="5.78086">
        <ele>555.6</ele>
        <time>2020-02-28T10:14:05Z</time>
      </trkpt>
      <trkpt lat="46.80255" lon="5.78084">
        <ele>555.8</ele>
        <time>2020-02-28T10:14:06Z</time>
      </trkpt>
      <trkpt lat="46.80259" lon="5.78081">
        <ele>555.8</ele>
        <time>2020-02-28T10:14:07Z</time>
      </trkpt>
      <trkpt lat="46.80263" lon="5.78078">
        <ele>555.8</ele>
        <time>2020-02-28T10:14:08Z</time>
      </trkpt>
      <trkpt lat="46.80267" lon="5.78074">
        <ele>556</ele>
        <time>2020-02-28T10:14:09Z</time>
      </trkpt>
      <trkpt lat="46.80271" lon="5.7807">
        <ele>556</ele>
        <time>2020-02-28T10:14:10Z</time>
      </trkpt>
      <trkpt lat="46.80275" lon="5.78066">
        <ele>556.4</ele>
        <time>2020-02-28T10:14:11Z</time>
      </trkpt>
      <trkpt lat="46.80279" lon="5.78063">
        <ele>556.4</ele>
        <time>2020-02-28T10:14:12Z</time>
      </trkpt>
      <trkpt lat="46.80283" lon="5.78059">
        <ele>556.4</ele>
        <time>2020-02-28T10:14:13Z</time>
      </trkpt>
      <trkpt lat="46.80287" lon="5.78056">
        <ele>556.6</ele>
        <time>2020-02-28T10:14:14Z</time>
      </trkpt>
      <trkpt lat="46.80291" lon="5.78052">
        <ele>556.6</ele>
        <time>2020-02-28T10:14:15Z</time>
      </trkpt>
      <trkpt lat="46.80294" lon="5.78048">
        <ele>556.6</ele>
        <time>2020-02-28T10:14:16Z</time>
      </trkpt>
      <trkpt lat="46.80298" lon="5.78044">
        <ele>556.6</ele>
        <time>2020-02-28T10:14:17Z</time>
      </trkpt>
      <trkpt lat="46.80301" lon="5.7804">
        <ele>556.6</ele>
        <time>2020-02-28T10:14:18Z</time>
      </trkpt>
      <trkpt lat="46.80305" lon="5.78037">
        <ele>556.6</ele>
        <time>2020-02-28T10:14:19Z</time>
      </trkpt>
      <trkpt lat="46.8031" lon="5.78034">
        <ele>556.6</ele>
        <time>2020-02-28T10:14:20Z</time>
      </trkpt>
      <trkpt lat="46.80314" lon="5.7803">
        <ele>556.6</ele>
        <time>2020-02-28T10:14:21Z</time>
      </trkpt>
      <trkpt lat="46.80318" lon="5.78027">
        <ele>556.8</ele>
        <time>2020-02-28T10:14:22Z</time>
      </trkpt>
      <trkpt lat="46.80323" lon="5.78025">
        <ele>556.8</ele>
        <time>2020-02-28T10:14:23Z</time>
      </trkpt>
      <trkpt lat="46.80328" lon="5.78022">
        <ele>556.8</ele>
        <time>2020-02-28T10:14:24Z</time>
      </trkpt>
      <trkpt lat="46.80333" lon="5.7802">
        <ele>556.8</ele>
        <time>2020-02-28T10:14:25Z</time>
      </trkpt>
      <trkpt lat="46.80339" lon="5.78018">
        <ele>556.8</ele>
        <time>2020-02-28T10:14:26Z</time>
      </trkpt>
      <trkpt lat="46.80344" lon="5.78016">
        <ele>556.8</ele>
        <time>2020-02-28T10:14:27Z</time>
      </trkpt>
      <trkpt lat="46.80349" lon="5.78014">
        <ele>556.8</ele>
        <time>2020-02-28T10:14:28Z</time>
      </trkpt>
      <trkpt lat="46.80355" lon="5.78012">
        <ele>556.8</ele>
        <time>2020-02-28T10:14:29Z</time>
      </trkpt>
      <trkpt lat="46.8036" lon="5.7801">
        <ele>556.6</ele>
        <time>2020-02-28T10:14:30Z</time>
      </trkpt>
      <trkpt lat="46.80365" lon="5.78008">
        <ele>556.6</ele>
        <time>2020-02-28T10:14:31Z</time>
      </trkpt>
      <trkpt lat="46.80371" lon="5.78006">
        <ele>556.6</ele>
        <time>2020-02-28T10:14:32Z</time>
      </trkpt>
      <trkpt lat="46.80376" lon="5.78004">
        <ele>556.6</ele>
        <time>2020-02-28T10:14:33Z</time>
      </trkpt>
      <trkpt lat="46.80381" lon="5.78002">
        <ele>556.6</ele>
        <time>2020-02-28T10:14:34Z</time>
      </trkpt>
      <trkpt lat="46.80386" lon="5.78001">
        <ele>556.6</ele>
        <time>2020-02-28T10:14:35Z</time>
      </trkpt>
      <trkpt lat="46.80391" lon="5.77998">
        <ele>556.6</ele>
        <time>2020-02-28T10:14:36Z</time>
      </trkpt>
      <trkpt lat="46.80396" lon="5.77996">
        <ele>556.6</ele>
        <time>2020-02-28T10:14:37Z</time>
      </trkpt>
      <trkpt lat="46.80402" lon="5.77994">
        <ele>556.6</ele>
        <time>2020-02-28T10:14:38Z</time>
      </trkpt>
      <trkpt lat="46.80407" lon="5.77992">
        <ele>556.6</ele>
        <time>2020-02-28T10:14:39Z</time>
      </trkpt>
      <trkpt lat="46.80413" lon="5.77991">
        <ele>556.6</ele>
        <time>2020-02-28T10:14:40Z</time>
      </trkpt>
      <trkpt lat="46.80419" lon="5.7799">
        <ele>556.6</ele>
        <time>2020-02-28T10:14:41Z</time>
      </trkpt>
      <trkpt lat="46.80424" lon="5.77988">
        <ele>556.6</ele>
        <time>2020-02-28T10:14:42Z</time>
      </trkpt>
      <trkpt lat="46.80429" lon="5.77986">
        <ele>556.6</ele>
        <time>2020-02-28T10:14:43Z</time>
      </trkpt>
      <trkpt lat="46.80435" lon="5.77984">
        <ele>556.6</ele>
        <time>2020-02-28T10:14:44Z</time>
      </trkpt>
      <trkpt lat="46.8044" lon="5.77982">
        <ele>556.6</ele>
        <time>2020-02-28T10:14:45Z</time>
      </trkpt>
      <trkpt lat="46.80445" lon="5.7798">
        <ele>556.6</ele>
        <time>2020-02-28T10:14:46Z</time>
      </trkpt>
      <trkpt lat="46.8045" lon="5.77978">
        <ele>556.6</ele>
        <time>2020-02-28T10:14:47Z</time>
      </trkpt>
      <trkpt lat="46.80456" lon="5.77977">
        <ele>556.8</ele>
        <time>2020-02-28T10:14:48Z</time>
      </trkpt>
      <trkpt lat="46.80461" lon="5.77974">
        <ele>556.8</ele>
        <time>2020-02-28T10:14:49Z</time>
      </trkpt>
      <trkpt lat="46.80465" lon="5.77973">
        <ele>556.8</ele>
        <time>2020-02-28T10:14:50Z</time>
      </trkpt>
      <trkpt lat="46.8047" lon="5.77971">
        <ele>556.8</ele>
        <time>2020-02-28T10:14:51Z</time>
      </trkpt>
      <trkpt lat="46.80475" lon="5.77969">
        <ele>556.8</ele>
        <time>2020-02-28T10:14:52Z</time>
      </trkpt>
      <trkpt lat="46.8048" lon="5.77968">
        <ele>556.8</ele>
        <time>2020-02-28T10:14:53Z</time>
      </trkpt>
      <trkpt lat="46.80484" lon="5.77966">
        <ele>556.8</ele>
        <time>2020-02-28T10:14:54Z</time>
      </trkpt>
      <trkpt lat="46.8049" lon="5.77965">
        <ele>556.8</ele>
        <time>2020-02-28T10:14:55Z</time>
      </trkpt>
      <trkpt lat="46.80495" lon="5.77965">
        <ele>556.8</ele>
        <time>2020-02-28T10:14:56Z</time>
      </trkpt>
      <trkpt lat="46.805" lon="5.77965">
        <ele>556.8</ele>
        <time>2020-02-28T10:14:57Z</time>
      </trkpt>
      <trkpt lat="46.80505" lon="5.77964">
        <ele>556.8</ele>
        <time>2020-02-28T10:14:58Z</time>
      </trkpt>
      <trkpt lat="46.8051" lon="5.77964">
        <ele>557.2</ele>
        <time>2020-02-28T10:14:59Z</time>
      </trkpt>
      <trkpt lat="46.80517" lon="5.77963">
        <ele>557.2</ele>
        <time>2020-02-28T10:15:00Z</time>
      </trkpt>
      <trkpt lat="46.80524" lon="5.77963">
        <ele>557.2</ele>
        <time>2020-02-28T10:15:01Z</time>
      </trkpt>
      <trkpt lat="46.8053" lon="5.77962">
        <ele>557.2</ele>
        <time>2020-02-28T10:15:02Z</time>
      </trkpt>
      <trkpt lat="46.80536" lon="5.77962">
        <ele>557.4</ele>
        <time>2020-02-28T10:15:03Z</time>
      </trkpt>
      <trkpt lat="46.80542" lon="5.77962">
        <ele>557.4</ele>
        <time>2020-02-28T10:15:04Z</time>
      </trkpt>
      <trkpt lat="46.80548" lon="5.77961">
        <ele>557.6</ele>
        <time>2020-02-28T10:15:05Z</time>
      </trkpt>
      <trkpt lat="46.80555" lon="5.77961">
        <ele>557.6</ele>
        <time>2020-02-28T10:15:06Z</time>
      </trkpt>
      <trkpt lat="46.80561" lon="5.77961">
        <ele>558</ele>
        <time>2020-02-28T10:15:07Z</time>
      </trkpt>
      <trkpt lat="46.80567" lon="5.77962">
        <ele>558</ele>
        <time>2020-02-28T10:15:08Z</time>
      </trkpt>
      <trkpt lat="46.80573" lon="5.77961">
        <ele>558</ele>
        <time>2020-02-28T10:15:09Z</time>
      </trkpt>
      <trkpt lat="46.80578" lon="5.77961">
        <ele>558.2</ele>
        <time>2020-02-28T10:15:10Z</time>
      </trkpt>
      <trkpt lat="46.80583" lon="5.77961">
        <ele>558.2</ele>
        <time>2020-02-28T10:15:11Z</time>
      </trkpt>
      <trkpt lat="46.80588" lon="5.77961">
        <ele>558.2</ele>
        <time>2020-02-28T10:15:12Z</time>
      </trkpt>
      <trkpt lat="46.80593" lon="5.77962">
        <ele>558.4</ele>
        <time>2020-02-28T10:15:13Z</time>
      </trkpt>
      <trkpt lat="46.80597" lon="5.77962">
        <ele>558.4</ele>
        <time>2020-02-28T10:15:14Z</time>
      </trkpt>
      <trkpt lat="46.80601" lon="5.77962">
        <ele>558.8</ele>
        <time>2020-02-28T10:15:15Z</time>
      </trkpt>
      <trkpt lat="46.80605" lon="5.77961">
        <ele>558.8</ele>
        <time>2020-02-28T10:15:16Z</time>
      </trkpt>
      <trkpt lat="46.8061" lon="5.77962">
        <ele>559.2</ele>
        <time>2020-02-28T10:15:17Z</time>
      </trkpt>
      <trkpt lat="46.80614" lon="5.77963">
        <ele>559.2</ele>
        <time>2020-02-28T10:15:18Z</time>
      </trkpt>
      <trkpt lat="46.80617" lon="5.77964">
        <ele>559.4</ele>
        <time>2020-02-28T10:15:19Z</time>
      </trkpt>
      <trkpt lat="46.80622" lon="5.77965">
        <ele>559.4</ele>
        <time>2020-02-28T10:15:20Z</time>
      </trkpt>
      <trkpt lat="46.80626" lon="5.77966">
        <ele>559.6</ele>
        <time>2020-02-28T10:15:21Z</time>
      </trkpt>
      <trkpt lat="46.80629" lon="5.77966">
        <ele>559.6</ele>
        <time>2020-02-28T10:15:22Z</time>
      </trkpt>
      <trkpt lat="46.80633" lon="5.77966">
        <ele>560.2</ele>
        <time>2020-02-28T10:15:23Z</time>
      </trkpt>
      <trkpt lat="46.80637" lon="5.77966">
        <ele>560.2</ele>
        <time>2020-02-28T10:15:24Z</time>
      </trkpt>
      <trkpt lat="46.80642" lon="5.77966">
        <ele>560.4</ele>
        <time>2020-02-28T10:15:25Z</time>
      </trkpt>
      <trkpt lat="46.80646" lon="5.77965">
        <ele>560.4</ele>
        <time>2020-02-28T10:15:26Z</time>
      </trkpt>
      <trkpt lat="46.80649" lon="5.77965">
        <ele>560.6</ele>
        <time>2020-02-28T10:15:27Z</time>
      </trkpt>
      <trkpt lat="46.80652" lon="5.77965">
        <ele>560.6</ele>
        <time>2020-02-28T10:15:28Z</time>
      </trkpt>
      <trkpt lat="46.80657" lon="5.77965">
        <ele>560.8</ele>
        <time>2020-02-28T10:15:29Z</time>
      </trkpt>
      <trkpt lat="46.80662" lon="5.77964">
        <ele>560.8</ele>
        <time>2020-02-28T10:15:30Z</time>
      </trkpt>
      <trkpt lat="46.80666" lon="5.77964">
        <ele>561</ele>
        <time>2020-02-28T10:15:31Z</time>
      </trkpt>
      <trkpt lat="46.80669" lon="5.77964">
        <ele>561</ele>
        <time>2020-02-28T10:15:32Z</time>
      </trkpt>
      <trkpt lat="46.80673" lon="5.77963">
        <ele>561.4</ele>
        <time>2020-02-28T10:15:33Z</time>
      </trkpt>
      <trkpt lat="46.80676" lon="5.77962">
        <ele>561.4</ele>
        <time>2020-02-28T10:15:34Z</time>
      </trkpt>
      <trkpt lat="46.8068" lon="5.77961">
        <ele>561.6</ele>
        <time>2020-02-28T10:15:35Z</time>
      </trkpt>
      <trkpt lat="46.80685" lon="5.7796">
        <ele>561.6</ele>
        <time>2020-02-28T10:15:36Z</time>
      </trkpt>
      <trkpt lat="46.8069" lon="5.77959">
        <ele>561.6</ele>
        <time>2020-02-28T10:15:37Z</time>
      </trkpt>
      <trkpt lat="46.80694" lon="5.77958">
        <ele>561.8</ele>
        <time>2020-02-28T10:15:38Z</time>
      </trkpt>
      <trkpt lat="46.80698" lon="5.77957">
        <ele>561.8</ele>
        <time>2020-02-28T10:15:39Z</time>
      </trkpt>
      <trkpt lat="46.80702" lon="5.77955">
        <ele>561.8</ele>
        <time>2020-02-28T10:15:40Z</time>
      </trkpt>
      <trkpt lat="46.80706" lon="5.77955">
        <ele>561.8</ele>
        <time>2020-02-28T10:15:41Z</time>
      </trkpt>
      <trkpt lat="46.8071" lon="5.77954">
        <ele>562</ele>
        <time>2020-02-28T10:15:42Z</time>
      </trkpt>
      <trkpt lat="46.80715" lon="5.77953">
        <ele>562.2</ele>
        <time>2020-02-28T10:15:43Z</time>
      </trkpt>
      <trkpt lat="46.80719" lon="5.77952">
        <ele>562.2</ele>
        <time>2020-02-28T10:15:44Z</time>
      </trkpt>
      <trkpt lat="46.80724" lon="5.77951">
        <ele>562.6</ele>
        <time>2020-02-28T10:15:45Z</time>
      </trkpt>
      <trkpt lat="46.80729" lon="5.77952">
        <ele>562.8</ele>
        <time>2020-02-28T10:15:46Z</time>
      </trkpt>
      <trkpt lat="46.80734" lon="5.77952">
        <ele>562.8</ele>
        <time>2020-02-28T10:15:47Z</time>
      </trkpt>
      <trkpt lat="46.80738" lon="5.77951">
        <ele>563</ele>
        <time>2020-02-28T10:15:48Z</time>
      </trkpt>
      <trkpt lat="46.80742" lon="5.7795">
        <ele>563</ele>
        <time>2020-02-28T10:15:49Z</time>
      </trkpt>
      <trkpt lat="46.80746" lon="5.77949">
        <ele>563</ele>
        <time>2020-02-28T10:15:50Z</time>
      </trkpt>
      <trkpt lat="46.80751" lon="5.77947">
        <ele>563.2</ele>
        <time>2020-02-28T10:15:51Z</time>
      </trkpt>
      <trkpt lat="46.80755" lon="5.77946">
        <ele>563.2</ele>
        <time>2020-02-28T10:15:52Z</time>
      </trkpt>
      <trkpt lat="46.80759" lon="5.77945">
        <ele>563.6</ele>
        <time>2020-02-28T10:15:53Z</time>
      </trkpt>
      <trkpt lat="46.80763" lon="5.77944">
        <ele>563.6</ele>
        <time>2020-02-28T10:15:54Z</time>
      </trkpt>
      <trkpt lat="46.80767" lon="5.77944">
        <ele>564</ele>
        <time>2020-02-28T10:15:55Z</time>
      </trkpt>
      <trkpt lat="46.80771" lon="5.77943">
        <ele>564</ele>
        <time>2020-02-28T10:15:56Z</time>
      </trkpt>
      <trkpt lat="46.80775" lon="5.77942">
        <ele>564.2</ele>
        <time>2020-02-28T10:15:57Z</time>
      </trkpt>
      <trkpt lat="46.80779" lon="5.7794">
        <ele>564.4</ele>
        <time>2020-02-28T10:15:58Z</time>
      </trkpt>
      <trkpt lat="46.80783" lon="5.77939">
        <ele>564.6</ele>
        <time>2020-02-28T10:15:59Z</time>
      </trkpt>
      <trkpt lat="46.80787" lon="5.77939">
        <ele>564.6</ele>
        <time>2020-02-28T10:16:00Z</time>
      </trkpt>
      <trkpt lat="46.80791" lon="5.77938">
        <ele>565</ele>
        <time>2020-02-28T10:16:01Z</time>
      </trkpt>
      <trkpt lat="46.80796" lon="5.77937">
        <ele>565</ele>
        <time>2020-02-28T10:16:02Z</time>
      </trkpt>
      <trkpt lat="46.808" lon="5.77936">
        <ele>565.2</ele>
        <time>2020-02-28T10:16:03Z</time>
      </trkpt>
      <trkpt lat="46.80804" lon="5.77935">
        <ele>565.2</ele>
        <time>2020-02-28T10:16:04Z</time>
      </trkpt>
      <trkpt lat="46.80808" lon="5.77933">
        <ele>565.4</ele>
        <time>2020-02-28T10:16:05Z</time>
      </trkpt>
      <trkpt lat="46.80812" lon="5.77932">
        <ele>565.4</ele>
        <time>2020-02-28T10:16:06Z</time>
      </trkpt>
      <trkpt lat="46.80815" lon="5.77932">
        <ele>565.4</ele>
        <time>2020-02-28T10:16:07Z</time>
      </trkpt>
      <trkpt lat="46.80819" lon="5.77931">
        <ele>565.8</ele>
        <time>2020-02-28T10:16:08Z</time>
      </trkpt>
      <trkpt lat="46.80823" lon="5.7793">
        <ele>565.8</ele>
        <time>2020-02-28T10:16:09Z</time>
      </trkpt>
      <trkpt lat="46.80826" lon="5.77929">
        <ele>566.2</ele>
        <time>2020-02-28T10:16:10Z</time>
      </trkpt>
      <trkpt lat="46.80829" lon="5.77927">
        <ele>566.2</ele>
        <time>2020-02-28T10:16:11Z</time>
      </trkpt>
      <trkpt lat="46.80833" lon="5.77927">
        <ele>566.4</ele>
        <time>2020-02-28T10:16:12Z</time>
      </trkpt>
      <trkpt lat="46.80836" lon="5.77925">
        <ele>566.4</ele>
        <time>2020-02-28T10:16:13Z</time>
      </trkpt>
      <trkpt lat="46.8084" lon="5.77924">
        <ele>566.4</ele>
        <time>2020-02-28T10:16:14Z</time>
      </trkpt>
      <trkpt lat="46.80844" lon="5.77923">
        <ele>566.8</ele>
        <time>2020-02-28T10:16:15Z</time>
      </trkpt>
      <trkpt lat="46.80848" lon="5.77922">
        <ele>566.8</ele>
        <time>2020-02-28T10:16:16Z</time>
      </trkpt>
      <trkpt lat="46.80852" lon="5.77921">
        <ele>566.8</ele>
        <time>2020-02-28T10:16:17Z</time>
      </trkpt>
      <trkpt lat="46.80856" lon="5.7792">
        <ele>567</ele>
        <time>2020-02-28T10:16:18Z</time>
      </trkpt>
      <trkpt lat="46.8086" lon="5.77919">
        <ele>567</ele>
        <time>2020-02-28T10:16:19Z</time>
      </trkpt>
      <trkpt lat="46.80863" lon="5.77918">
        <ele>567</ele>
        <time>2020-02-28T10:16:20Z</time>
      </trkpt>
      <trkpt lat="46.80866" lon="5.77917">
        <ele>567.2</ele>
        <time>2020-02-28T10:16:21Z</time>
      </trkpt>
      <trkpt lat="46.80869" lon="5.77917">
        <ele>567.2</ele>
        <time>2020-02-28T10:16:22Z</time>
      </trkpt>
      <trkpt lat="46.80873" lon="5.77916">
        <ele>567.4</ele>
        <time>2020-02-28T10:16:23Z</time>
      </trkpt>
      <trkpt lat="46.80877" lon="5.77915">
        <ele>567.4</ele>
        <time>2020-02-28T10:16:24Z</time>
      </trkpt>
      <trkpt lat="46.80881" lon="5.77914">
        <ele>567.4</ele>
        <time>2020-02-28T10:16:25Z</time>
      </trkpt>
      <trkpt lat="46.80886" lon="5.77913">
        <ele>567.6</ele>
        <time>2020-02-28T10:16:26Z</time>
      </trkpt>
      <trkpt lat="46.8089" lon="5.77912">
        <ele>567.6</ele>
        <time>2020-02-28T10:16:27Z</time>
      </trkpt>
      <trkpt lat="46.80895" lon="5.77912">
        <ele>567.6</ele>
        <time>2020-02-28T10:16:28Z</time>
      </trkpt>
      <trkpt lat="46.809" lon="5.77911">
        <ele>568</ele>
        <time>2020-02-28T10:16:29Z</time>
      </trkpt>
      <trkpt lat="46.80904" lon="5.7791">
        <ele>568</ele>
        <time>2020-02-28T10:16:30Z</time>
      </trkpt>
      <trkpt lat="46.80909" lon="5.77909">
        <ele>568.2</ele>
        <time>2020-02-28T10:16:31Z</time>
      </trkpt>
      <trkpt lat="46.80913" lon="5.77908">
        <ele>568.2</ele>
        <time>2020-02-28T10:16:32Z</time>
      </trkpt>
      <trkpt lat="46.80918" lon="5.77907">
        <ele>568.4</ele>
        <time>2020-02-28T10:16:33Z</time>
      </trkpt>
      <trkpt lat="46.80921" lon="5.77905">
        <ele>568.4</ele>
        <time>2020-02-28T10:16:34Z</time>
      </trkpt>
      <trkpt lat="46.80925" lon="5.77904">
        <ele>568.8</ele>
        <time>2020-02-28T10:16:35Z</time>
      </trkpt>
      <trkpt lat="46.8093" lon="5.77902">
        <ele>568.8</ele>
        <time>2020-02-28T10:16:36Z</time>
      </trkpt>
      <trkpt lat="46.80934" lon="5.77901">
        <ele>569</ele>
        <time>2020-02-28T10:16:37Z</time>
      </trkpt>
      <trkpt lat="46.80938" lon="5.77899">
        <ele>569</ele>
        <time>2020-02-28T10:16:38Z</time>
      </trkpt>
      <trkpt lat="46.80941" lon="5.77899">
        <ele>569</ele>
        <time>2020-02-28T10:16:39Z</time>
      </trkpt>
      <trkpt lat="46.80945" lon="5.77898">
        <ele>569.2</ele>
        <time>2020-02-28T10:16:40Z</time>
      </trkpt>
      <trkpt lat="46.80949" lon="5.77896">
        <ele>569.2</ele>
        <time>2020-02-28T10:16:41Z</time>
      </trkpt>
      <trkpt lat="46.80953" lon="5.77896">
        <ele>569.2</ele>
        <time>2020-02-28T10:16:42Z</time>
      </trkpt>
      <trkpt lat="46.80958" lon="5.77895">
        <ele>569.4</ele>
        <time>2020-02-28T10:16:43Z</time>
      </trkpt>
      <trkpt lat="46.80963" lon="5.77893">
        <ele>569.4</ele>
        <time>2020-02-28T10:16:44Z</time>
      </trkpt>
      <trkpt lat="46.80968" lon="5.77892">
        <ele>569.8</ele>
        <time>2020-02-28T10:16:45Z</time>
      </trkpt>
      <trkpt lat="46.80975" lon="5.77891">
        <ele>569.8</ele>
        <time>2020-02-28T10:16:46Z</time>
      </trkpt>
      <trkpt lat="46.80979" lon="5.7789">
        <ele>570</ele>
        <time>2020-02-28T10:16:47Z</time>
      </trkpt>
      <trkpt lat="46.80983" lon="5.77889">
        <ele>570</ele>
        <time>2020-02-28T10:16:48Z</time>
      </trkpt>
      <trkpt lat="46.80987" lon="5.77888">
        <ele>570.2</ele>
        <time>2020-02-28T10:16:49Z</time>
      </trkpt>
      <trkpt lat="46.80991" lon="5.77887">
        <ele>570.2</ele>
        <time>2020-02-28T10:16:50Z</time>
      </trkpt>
      <trkpt lat="46.80996" lon="5.77885">
        <ele>570.2</ele>
        <time>2020-02-28T10:16:51Z</time>
      </trkpt>
      <trkpt lat="46.81001" lon="5.77884">
        <ele>570.6</ele>
        <time>2020-02-28T10:16:52Z</time>
      </trkpt>
      <trkpt lat="46.81007" lon="5.77883">
        <ele>570.6</ele>
        <time>2020-02-28T10:16:53Z</time>
      </trkpt>
      <trkpt lat="46.81013" lon="5.77881">
        <ele>570.6</ele>
        <time>2020-02-28T10:16:54Z</time>
      </trkpt>
      <trkpt lat="46.81019" lon="5.77879">
        <ele>570.8</ele>
        <time>2020-02-28T10:16:55Z</time>
      </trkpt>
      <trkpt lat="46.81023" lon="5.77878">
        <ele>570.8</ele>
        <time>2020-02-28T10:16:56Z</time>
      </trkpt>
      <trkpt lat="46.81027" lon="5.77877">
        <ele>570.8</ele>
        <time>2020-02-28T10:16:57Z</time>
      </trkpt>
      <trkpt lat="46.8103" lon="5.77876">
        <ele>571</ele>
        <time>2020-02-28T10:16:58Z</time>
      </trkpt>
      <trkpt lat="46.81035" lon="5.77875">
        <ele>571</ele>
        <time>2020-02-28T10:16:59Z</time>
      </trkpt>
      <trkpt lat="46.8104" lon="5.77873">
        <ele>571.2</ele>
        <time>2020-02-28T10:17:00Z</time>
      </trkpt>
      <trkpt lat="46.81044" lon="5.77871">
        <ele>571.2</ele>
        <time>2020-02-28T10:17:01Z</time>
      </trkpt>
      <trkpt lat="46.81049" lon="5.77869">
        <ele>571.6</ele>
        <time>2020-02-28T10:17:02Z</time>
      </trkpt>
      <trkpt lat="46.81053" lon="5.77866">
        <ele>571.6</ele>
        <time>2020-02-28T10:17:03Z</time>
      </trkpt>
      <trkpt lat="46.81058" lon="5.77864">
        <ele>571.6</ele>
        <time>2020-02-28T10:17:04Z</time>
      </trkpt>
      <trkpt lat="46.81063" lon="5.77861">
        <ele>571.8</ele>
        <time>2020-02-28T10:17:05Z</time>
      </trkpt>
      <trkpt lat="46.81067" lon="5.77858">
        <ele>571.8</ele>
        <time>2020-02-28T10:17:06Z</time>
      </trkpt>
      <trkpt lat="46.81071" lon="5.77855">
        <ele>571.8</ele>
        <time>2020-02-28T10:17:07Z</time>
      </trkpt>
      <trkpt lat="46.81076" lon="5.77852">
        <ele>571.8</ele>
        <time>2020-02-28T10:17:08Z</time>
      </trkpt>
      <trkpt lat="46.81081" lon="5.77848">
        <ele>572</ele>
        <time>2020-02-28T10:17:09Z</time>
      </trkpt>
      <trkpt lat="46.81086" lon="5.77846">
        <ele>572</ele>
        <time>2020-02-28T10:17:10Z</time>
      </trkpt>
      <trkpt lat="46.81091" lon="5.77843">
        <ele>572</ele>
        <time>2020-02-28T10:17:11Z</time>
      </trkpt>
      <trkpt lat="46.81096" lon="5.77841">
        <ele>572</ele>
        <time>2020-02-28T10:17:12Z</time>
      </trkpt>
      <trkpt lat="46.811" lon="5.77839">
        <ele>572</ele>
        <time>2020-02-28T10:17:13Z</time>
      </trkpt>
      <trkpt lat="46.81105" lon="5.77837">
        <ele>572</ele>
        <time>2020-02-28T10:17:14Z</time>
      </trkpt>
      <trkpt lat="46.8111" lon="5.77835">
        <ele>572.2</ele>
        <time>2020-02-28T10:17:15Z</time>
      </trkpt>
      <trkpt lat="46.81114" lon="5.77834">
        <ele>572.2</ele>
        <time>2020-02-28T10:17:16Z</time>
      </trkpt>
      <trkpt lat="46.81119" lon="5.77833">
        <ele>572.2</ele>
        <time>2020-02-28T10:17:17Z</time>
      </trkpt>
      <trkpt lat="46.81124" lon="5.77831">
        <ele>572.2</ele>
        <time>2020-02-28T10:17:18Z</time>
      </trkpt>
      <trkpt lat="46.81128" lon="5.7783">
        <ele>572.4</ele>
        <time>2020-02-28T10:17:19Z</time>
      </trkpt>
      <trkpt lat="46.81133" lon="5.77828">
        <ele>572.4</ele>
        <time>2020-02-28T10:17:20Z</time>
      </trkpt>
      <trkpt lat="46.81138" lon="5.77827">
        <ele>572.4</ele>
        <time>2020-02-28T10:17:21Z</time>
      </trkpt>
      <trkpt lat="46.81143" lon="5.77827">
        <ele>572.6</ele>
        <time>2020-02-28T10:17:22Z</time>
      </trkpt>
      <trkpt lat="46.81148" lon="5.77827">
        <ele>572.6</ele>
        <time>2020-02-28T10:17:23Z</time>
      </trkpt>
      <trkpt lat="46.81153" lon="5.77827">
        <ele>572.6</ele>
        <time>2020-02-28T10:17:24Z</time>
      </trkpt>
      <trkpt lat="46.81158" lon="5.77826">
        <ele>572.6</ele>
        <time>2020-02-28T10:17:25Z</time>
      </trkpt>
      <trkpt lat="46.81164" lon="5.77826">
        <ele>572.6</ele>
        <time>2020-02-28T10:17:26Z</time>
      </trkpt>
      <trkpt lat="46.81168" lon="5.77825">
        <ele>572.6</ele>
        <time>2020-02-28T10:17:27Z</time>
      </trkpt>
      <trkpt lat="46.81174" lon="5.77825">
        <ele>572.6</ele>
        <time>2020-02-28T10:17:28Z</time>
      </trkpt>
      <trkpt lat="46.81179" lon="5.77825">
        <ele>572.6</ele>
        <time>2020-02-28T10:17:29Z</time>
      </trkpt>
      <trkpt lat="46.81184" lon="5.77825">
        <ele>572.6</ele>
        <time>2020-02-28T10:17:30Z</time>
      </trkpt>
      <trkpt lat="46.81188" lon="5.77824">
        <ele>572.6</ele>
        <time>2020-02-28T10:17:31Z</time>
      </trkpt>
      <trkpt lat="46.81193" lon="5.77824">
        <ele>572.6</ele>
        <time>2020-02-28T10:17:32Z</time>
      </trkpt>
      <trkpt lat="46.81197" lon="5.77823">
        <ele>572.6</ele>
        <time>2020-02-28T10:17:33Z</time>
      </trkpt>
      <trkpt lat="46.81202" lon="5.77823">
        <ele>572.6</ele>
        <time>2020-02-28T10:17:34Z</time>
      </trkpt>
      <trkpt lat="46.81207" lon="5.77823">
        <ele>572.4</ele>
        <time>2020-02-28T10:17:35Z</time>
      </trkpt>
      <trkpt lat="46.81211" lon="5.77823">
        <ele>572.4</ele>
        <time>2020-02-28T10:17:36Z</time>
      </trkpt>
      <trkpt lat="46.81216" lon="5.77822">
        <ele>572.4</ele>
        <time>2020-02-28T10:17:37Z</time>
      </trkpt>
      <trkpt lat="46.8122" lon="5.77822">
        <ele>572.4</ele>
        <time>2020-02-28T10:17:38Z</time>
      </trkpt>
      <trkpt lat="46.81224" lon="5.77821">
        <ele>572.4</ele>
        <time>2020-02-28T10:17:39Z</time>
      </trkpt>
      <trkpt lat="46.81228" lon="5.77821">
        <ele>572.4</ele>
        <time>2020-02-28T10:17:40Z</time>
      </trkpt>
      <trkpt lat="46.81233" lon="5.77821">
        <ele>572.4</ele>
        <time>2020-02-28T10:17:41Z</time>
      </trkpt>
      <trkpt lat="46.81238" lon="5.7782">
        <ele>572.4</ele>
        <time>2020-02-28T10:17:42Z</time>
      </trkpt>
      <trkpt lat="46.81242" lon="5.7782">
        <ele>572.4</ele>
        <time>2020-02-28T10:17:43Z</time>
      </trkpt>
      <trkpt lat="46.81246" lon="5.77819">
        <ele>572.4</ele>
        <time>2020-02-28T10:17:44Z</time>
      </trkpt>
      <trkpt lat="46.8125" lon="5.77817">
        <ele>572.4</ele>
        <time>2020-02-28T10:17:45Z</time>
      </trkpt>
      <trkpt lat="46.81254" lon="5.77817">
        <ele>572.4</ele>
        <time>2020-02-28T10:17:46Z</time>
      </trkpt>
      <trkpt lat="46.81259" lon="5.77816">
        <ele>572.4</ele>
        <time>2020-02-28T10:17:47Z</time>
      </trkpt>
      <trkpt lat="46.81264" lon="5.77816">
        <ele>572.6</ele>
        <time>2020-02-28T10:17:48Z</time>
      </trkpt>
      <trkpt lat="46.81269" lon="5.77816">
        <ele>572.6</ele>
        <time>2020-02-28T10:17:49Z</time>
      </trkpt>
      <trkpt lat="46.81274" lon="5.77815">
        <ele>572.6</ele>
        <time>2020-02-28T10:17:50Z</time>
      </trkpt>
      <trkpt lat="46.81279" lon="5.77815">
        <ele>572.6</ele>
        <time>2020-02-28T10:17:51Z</time>
      </trkpt>
      <trkpt lat="46.81283" lon="5.77815">
        <ele>572.6</ele>
        <time>2020-02-28T10:17:52Z</time>
      </trkpt>
      <trkpt lat="46.81288" lon="5.77814">
        <ele>572.6</ele>
        <time>2020-02-28T10:17:53Z</time>
      </trkpt>
      <trkpt lat="46.81292" lon="5.77813">
        <ele>572.6</ele>
        <time>2020-02-28T10:17:54Z</time>
      </trkpt>
      <trkpt lat="46.81296" lon="5.77812">
        <ele>572.6</ele>
        <time>2020-02-28T10:17:55Z</time>
      </trkpt>
      <trkpt lat="46.81301" lon="5.77812">
        <ele>572.8</ele>
        <time>2020-02-28T10:17:56Z</time>
      </trkpt>
      <trkpt lat="46.81304" lon="5.77812">
        <ele>572.8</ele>
        <time>2020-02-28T10:17:57Z</time>
      </trkpt>
      <trkpt lat="46.81309" lon="5.77811">
        <ele>572.8</ele>
        <time>2020-02-28T10:17:58Z</time>
      </trkpt>
      <trkpt lat="46.81313" lon="5.77811">
        <ele>572.8</ele>
        <time>2020-02-28T10:17:59Z</time>
      </trkpt>
      <trkpt lat="46.81317" lon="5.77811">
        <ele>572.8</ele>
        <time>2020-02-28T10:18:00Z</time>
      </trkpt>
      <trkpt lat="46.81322" lon="5.77811">
        <ele>572.8</ele>
        <time>2020-02-28T10:18:01Z</time>
      </trkpt>
      <trkpt lat="46.81326" lon="5.7781">
        <ele>572.8</ele>
        <time>2020-02-28T10:18:02Z</time>
      </trkpt>
      <trkpt lat="46.81331" lon="5.7781">
        <ele>572.8</ele>
        <time>2020-02-28T10:18:03Z</time>
      </trkpt>
      <trkpt lat="46.81337" lon="5.7781">
        <ele>572.8</ele>
        <time>2020-02-28T10:18:04Z</time>
      </trkpt>
      <trkpt lat="46.81342" lon="5.7781">
        <ele>572.8</ele>
        <time>2020-02-28T10:18:05Z</time>
      </trkpt>
      <trkpt lat="46.81347" lon="5.77809">
        <ele>572.8</ele>
        <time>2020-02-28T10:18:06Z</time>
      </trkpt>
      <trkpt lat="46.81352" lon="5.77809">
        <ele>572.8</ele>
        <time>2020-02-28T10:18:07Z</time>
      </trkpt>
      <trkpt lat="46.81358" lon="5.77808">
        <ele>572.8</ele>
        <time>2020-02-28T10:18:08Z</time>
      </trkpt>
      <trkpt lat="46.81364" lon="5.77807">
        <ele>572.8</ele>
        <time>2020-02-28T10:18:09Z</time>
      </trkpt>
      <trkpt lat="46.81369" lon="5.77806">
        <ele>572.8</ele>
        <time>2020-02-28T10:18:10Z</time>
      </trkpt>
      <trkpt lat="46.81374" lon="5.77806">
        <ele>572.8</ele>
        <time>2020-02-28T10:18:11Z</time>
      </trkpt>
      <trkpt lat="46.81379" lon="5.77805">
        <ele>572.8</ele>
        <time>2020-02-28T10:18:12Z</time>
      </trkpt>
      <trkpt lat="46.81384" lon="5.77805">
        <ele>572.8</ele>
        <time>2020-02-28T10:18:13Z</time>
      </trkpt>
      <trkpt lat="46.8139" lon="5.77805">
        <ele>572.8</ele>
        <time>2020-02-28T10:18:14Z</time>
      </trkpt>
      <trkpt lat="46.81394" lon="5.77804">
        <ele>572.8</ele>
        <time>2020-02-28T10:18:15Z</time>
      </trkpt>
      <trkpt lat="46.81398" lon="5.77804">
        <ele>572.8</ele>
        <time>2020-02-28T10:18:16Z</time>
      </trkpt>
      <trkpt lat="46.81402" lon="5.77804">
        <ele>572.8</ele>
        <time>2020-02-28T10:18:17Z</time>
      </trkpt>
      <trkpt lat="46.81406" lon="5.77804">
        <ele>572.8</ele>
        <time>2020-02-28T10:18:18Z</time>
      </trkpt>
      <trkpt lat="46.8141" lon="5.77803">
        <ele>572.8</ele>
        <time>2020-02-28T10:18:19Z</time>
      </trkpt>
      <trkpt lat="46.81414" lon="5.77804">
        <ele>572.8</ele>
        <time>2020-02-28T10:18:20Z</time>
      </trkpt>
      <trkpt lat="46.81418" lon="5.77804">
        <ele>572.8</ele>
        <time>2020-02-28T10:18:21Z</time>
      </trkpt>
      <trkpt lat="46.81422" lon="5.77804">
        <ele>572.8</ele>
        <time>2020-02-28T10:18:22Z</time>
      </trkpt>
      <trkpt lat="46.81427" lon="5.77804">
        <ele>573.2</ele>
        <time>2020-02-28T10:18:23Z</time>
      </trkpt>
      <trkpt lat="46.81432" lon="5.77805">
        <ele>573.2</ele>
        <time>2020-02-28T10:18:24Z</time>
      </trkpt>
      <trkpt lat="46.81437" lon="5.77805">
        <ele>573.2</ele>
        <time>2020-02-28T10:18:25Z</time>
      </trkpt>
      <trkpt lat="46.81442" lon="5.77805">
        <ele>573.2</ele>
        <time>2020-02-28T10:18:26Z</time>
      </trkpt>
      <trkpt lat="46.81447" lon="5.77804">
        <ele>573.4</ele>
        <time>2020-02-28T10:18:27Z</time>
      </trkpt>
      <trkpt lat="46.81452" lon="5.77804">
        <ele>573.4</ele>
        <time>2020-02-28T10:18:28Z</time>
      </trkpt>
      <trkpt lat="46.81457" lon="5.77803">
        <ele>573.6</ele>
        <time>2020-02-28T10:18:29Z</time>
      </trkpt>
      <trkpt lat="46.81462" lon="5.77803">
        <ele>573.6</ele>
        <time>2020-02-28T10:18:30Z</time>
      </trkpt>
      <trkpt lat="46.81467" lon="5.77803">
        <ele>573.6</ele>
        <time>2020-02-28T10:18:31Z</time>
      </trkpt>
      <trkpt lat="46.81472" lon="5.77802">
        <ele>573.8</ele>
        <time>2020-02-28T10:18:32Z</time>
      </trkpt>
      <trkpt lat="46.81477" lon="5.77801">
        <ele>573.8</ele>
        <time>2020-02-28T10:18:33Z</time>
      </trkpt>
      <trkpt lat="46.81482" lon="5.778">
        <ele>574</ele>
        <time>2020-02-28T10:18:34Z</time>
      </trkpt>
      <trkpt lat="46.81487" lon="5.77801">
        <ele>574</ele>
        <time>2020-02-28T10:18:35Z</time>
      </trkpt>
      <trkpt lat="46.81491" lon="5.77801">
        <ele>574</ele>
        <time>2020-02-28T10:18:36Z</time>
      </trkpt>
      <trkpt lat="46.81496" lon="5.77801">
        <ele>574</ele>
        <time>2020-02-28T10:18:37Z</time>
      </trkpt>
      <trkpt lat="46.815" lon="5.77801">
        <ele>574</ele>
        <time>2020-02-28T10:18:38Z</time>
      </trkpt>
      <trkpt lat="46.81503" lon="5.778">
        <ele>574</ele>
        <time>2020-02-28T10:18:39Z</time>
      </trkpt>
      <trkpt lat="46.81507" lon="5.778">
        <ele>574</ele>
        <time>2020-02-28T10:18:40Z</time>
      </trkpt>
      <trkpt lat="46.8151" lon="5.778">
        <ele>574.4</ele>
        <time>2020-02-28T10:18:41Z</time>
      </trkpt>
      <trkpt lat="46.81514" lon="5.778">
        <ele>574.4</ele>
        <time>2020-02-28T10:18:42Z</time>
      </trkpt>
      <trkpt lat="46.81517" lon="5.778">
        <ele>574.4</ele>
        <time>2020-02-28T10:18:43Z</time>
      </trkpt>
      <trkpt lat="46.81521" lon="5.77799">
        <ele>574.6</ele>
        <time>2020-02-28T10:18:44Z</time>
      </trkpt>
      <trkpt lat="46.81524" lon="5.77799">
        <ele>574.6</ele>
        <time>2020-02-28T10:18:45Z</time>
      </trkpt>
      <trkpt lat="46.81526" lon="5.77799">
        <ele>574.6</ele>
        <time>2020-02-28T10:18:46Z</time>
      </trkpt>
      <trkpt lat="46.81529" lon="5.77798">
        <ele>574.8</ele>
        <time>2020-02-28T10:18:47Z</time>
      </trkpt>
      <trkpt lat="46.81532" lon="5.77798">
        <ele>574.8</ele>
        <time>2020-02-28T10:18:48Z</time>
      </trkpt>
      <trkpt lat="46.81535" lon="5.77798">
        <ele>574.8</ele>
        <time>2020-02-28T10:18:49Z</time>
      </trkpt>
      <trkpt lat="46.81537" lon="5.77797">
        <ele>574.8</ele>
        <time>2020-02-28T10:18:50Z</time>
      </trkpt>
      <trkpt lat="46.8154" lon="5.77797">
        <ele>575</ele>
        <time>2020-02-28T10:18:51Z</time>
      </trkpt>
      <trkpt lat="46.81542" lon="5.77797">
        <ele>575</ele>
        <time>2020-02-28T10:18:52Z</time>
      </trkpt>
      <trkpt lat="46.81545" lon="5.77796">
        <ele>575.4</ele>
        <time>2020-02-28T10:18:53Z</time>
      </trkpt>
      <trkpt lat="46.81548" lon="5.77796">
        <ele>575.4</ele>
        <time>2020-02-28T10:18:54Z</time>
      </trkpt>
      <trkpt lat="46.8155" lon="5.77794">
        <ele>575.6</ele>
        <time>2020-02-28T10:18:55Z</time>
      </trkpt>
      <trkpt lat="46.81552" lon="5.77791">
        <ele>575.6</ele>
        <time>2020-02-28T10:18:56Z</time>
      </trkpt>
      <trkpt lat="46.81554" lon="5.77786">
        <ele>576</ele>
        <time>2020-02-28T10:18:57Z</time>
      </trkpt>
      <trkpt lat="46.81555" lon="5.77781">
        <ele>576</ele>
        <time>2020-02-28T10:18:58Z</time>
      </trkpt>
      <trkpt lat="46.81556" lon="5.77776">
        <ele>576</ele>
        <time>2020-02-28T10:18:59Z</time>
      </trkpt>
      <trkpt lat="46.81558" lon="5.77771">
        <ele>576.2</ele>
        <time>2020-02-28T10:19:00Z</time>
      </trkpt>
      <trkpt lat="46.81559" lon="5.77766">
        <ele>576.2</ele>
        <time>2020-02-28T10:19:01Z</time>
      </trkpt>
      <trkpt lat="46.8156" lon="5.77761">
        <ele>576.6</ele>
        <time>2020-02-28T10:19:02Z</time>
      </trkpt>
      <trkpt lat="46.81561" lon="5.77756">
        <ele>576.6</ele>
        <time>2020-02-28T10:19:03Z</time>
      </trkpt>
      <trkpt lat="46.81563" lon="5.77751">
        <ele>576.8</ele>
        <time>2020-02-28T10:19:04Z</time>
      </trkpt>
      <trkpt lat="46.81564" lon="5.77745">
        <ele>576.8</ele>
        <time>2020-02-28T10:19:05Z</time>
      </trkpt>
      <trkpt lat="46.81566" lon="5.7774">
        <ele>577</ele>
        <time>2020-02-28T10:19:06Z</time>
      </trkpt>
      <trkpt lat="46.81567" lon="5.77734">
        <ele>577</ele>
        <time>2020-02-28T10:19:07Z</time>
      </trkpt>
      <trkpt lat="46.81569" lon="5.77728">
        <ele>577.4</ele>
        <time>2020-02-28T10:19:08Z</time>
      </trkpt>
      <trkpt lat="46.8157" lon="5.77722">
        <ele>577.4</ele>
        <time>2020-02-28T10:19:09Z</time>
      </trkpt>
      <trkpt lat="46.81571" lon="5.77715">
        <ele>577.6</ele>
        <time>2020-02-28T10:19:10Z</time>
      </trkpt>
      <trkpt lat="46.81573" lon="5.77709">
        <ele>578</ele>
        <time>2020-02-28T10:19:11Z</time>
      </trkpt>
      <trkpt lat="46.81575" lon="5.77703">
        <ele>578</ele>
        <time>2020-02-28T10:19:12Z</time>
      </trkpt>
      <trkpt lat="46.81576" lon="5.77696">
        <ele>578.2</ele>
        <time>2020-02-28T10:19:13Z</time>
      </trkpt>
      <trkpt lat="46.81578" lon="5.7769">
        <ele>578.2</ele>
        <time>2020-02-28T10:19:14Z</time>
      </trkpt>
      <trkpt lat="46.81579" lon="5.77683">
        <ele>578.2</ele>
        <time>2020-02-28T10:19:15Z</time>
      </trkpt>
      <trkpt lat="46.8158" lon="5.77677">
        <ele>578.6</ele>
        <time>2020-02-28T10:19:16Z</time>
      </trkpt>
      <trkpt lat="46.81582" lon="5.7767">
        <ele>578.6</ele>
        <time>2020-02-28T10:19:17Z</time>
      </trkpt>
      <trkpt lat="46.81583" lon="5.77664">
        <ele>578.6</ele>
        <time>2020-02-28T10:19:18Z</time>
      </trkpt>
      <trkpt lat="46.81585" lon="5.77658">
        <ele>578.8</ele>
        <time>2020-02-28T10:19:19Z</time>
      </trkpt>
      <trkpt lat="46.81587" lon="5.77651">
        <ele>578.8</ele>
        <time>2020-02-28T10:19:20Z</time>
      </trkpt>
      <trkpt lat="46.81588" lon="5.77645">
        <ele>579.2</ele>
        <time>2020-02-28T10:19:21Z</time>
      </trkpt>
      <trkpt lat="46.81589" lon="5.77639">
        <ele>579.2</ele>
        <time>2020-02-28T10:19:22Z</time>
      </trkpt>
      <trkpt lat="46.8159" lon="5.77632">
        <ele>579.6</ele>
        <time>2020-02-28T10:19:23Z</time>
      </trkpt>
      <trkpt lat="46.81592" lon="5.77626">
        <ele>579.6</ele>
        <time>2020-02-28T10:19:24Z</time>
      </trkpt>
      <trkpt lat="46.81594" lon="5.7762">
        <ele>579.8</ele>
        <time>2020-02-28T10:19:25Z</time>
      </trkpt>
      <trkpt lat="46.81595" lon="5.77613">
        <ele>579.8</ele>
        <time>2020-02-28T10:19:26Z</time>
      </trkpt>
      <trkpt lat="46.81597" lon="5.77607">
        <ele>579.8</ele>
        <time>2020-02-28T10:19:27Z</time>
      </trkpt>
      <trkpt lat="46.81598" lon="5.77601">
        <ele>580</ele>
        <time>2020-02-28T10:19:28Z</time>
      </trkpt>
      <trkpt lat="46.81599" lon="5.77594">
        <ele>580</ele>
        <time>2020-02-28T10:19:29Z</time>
      </trkpt>
      <trkpt lat="46.81601" lon="5.77588">
        <ele>580.2</ele>
        <time>2020-02-28T10:19:30Z</time>
      </trkpt>
      <trkpt lat="46.81603" lon="5.77582">
        <ele>580.2</ele>
        <time>2020-02-28T10:19:31Z</time>
      </trkpt>
      <trkpt lat="46.81604" lon="5.77575">
        <ele>580.6</ele>
        <time>2020-02-28T10:19:32Z</time>
      </trkpt>
      <trkpt lat="46.81606" lon="5.77569">
        <ele>580.6</ele>
        <time>2020-02-28T10:19:33Z</time>
      </trkpt>
      <trkpt lat="46.81608" lon="5.77562">
        <ele>580.8</ele>
        <time>2020-02-28T10:19:34Z</time>
      </trkpt>
      <trkpt lat="46.8161" lon="5.77556">
        <ele>580.8</ele>
        <time>2020-02-28T10:19:35Z</time>
      </trkpt>
      <trkpt lat="46.81611" lon="5.77549">
        <ele>581.2</ele>
        <time>2020-02-28T10:19:36Z</time>
      </trkpt>
      <trkpt lat="46.81613" lon="5.77543">
        <ele>581.2</ele>
        <time>2020-02-28T10:19:37Z</time>
      </trkpt>
      <trkpt lat="46.81614" lon="5.77537">
        <ele>581.6</ele>
        <time>2020-02-28T10:19:38Z</time>
      </trkpt>
      <trkpt lat="46.81616" lon="5.7753">
        <ele>581.6</ele>
        <time>2020-02-28T10:19:39Z</time>
      </trkpt>
      <trkpt lat="46.81617" lon="5.77524">
        <ele>581.6</ele>
        <time>2020-02-28T10:19:40Z</time>
      </trkpt>
      <trkpt lat="46.81619" lon="5.77517">
        <ele>582</ele>
        <time>2020-02-28T10:19:41Z</time>
      </trkpt>
      <trkpt lat="46.8162" lon="5.77511">
        <ele>582.2</ele>
        <time>2020-02-28T10:19:42Z</time>
      </trkpt>
      <trkpt lat="46.81622" lon="5.77505">
        <ele>582.2</ele>
        <time>2020-02-28T10:19:43Z</time>
      </trkpt>
      <trkpt lat="46.81623" lon="5.77498">
        <ele>582.6</ele>
        <time>2020-02-28T10:19:44Z</time>
      </trkpt>
      <trkpt lat="46.81625" lon="5.77492">
        <ele>582.8</ele>
        <time>2020-02-28T10:19:45Z</time>
      </trkpt>
      <trkpt lat="46.81627" lon="5.77486">
        <ele>582.8</ele>
        <time>2020-02-28T10:19:46Z</time>
      </trkpt>
      <trkpt lat="46.81628" lon="5.77479">
        <ele>583.2</ele>
        <time>2020-02-28T10:19:47Z</time>
      </trkpt>
      <trkpt lat="46.8163" lon="5.77473">
        <ele>583.4</ele>
        <time>2020-02-28T10:19:48Z</time>
      </trkpt>
      <trkpt lat="46.81631" lon="5.77467">
        <ele>583.8</ele>
        <time>2020-02-28T10:19:49Z</time>
      </trkpt>
      <trkpt lat="46.81632" lon="5.7746">
        <ele>584</ele>
        <time>2020-02-28T10:19:50Z</time>
      </trkpt>
      <trkpt lat="46.81634" lon="5.77454">
        <ele>584.2</ele>
        <time>2020-02-28T10:19:51Z</time>
      </trkpt>
      <trkpt lat="46.81636" lon="5.77448">
        <ele>584.2</ele>
        <time>2020-02-28T10:19:52Z</time>
      </trkpt>
      <trkpt lat="46.81637" lon="5.77442">
        <ele>584.4</ele>
        <time>2020-02-28T10:19:53Z</time>
      </trkpt>
      <trkpt lat="46.81639" lon="5.77435">
        <ele>584.4</ele>
        <time>2020-02-28T10:19:54Z</time>
      </trkpt>
      <trkpt lat="46.8164" lon="5.77429">
        <ele>584.8</ele>
        <time>2020-02-28T10:19:55Z</time>
      </trkpt>
      <trkpt lat="46.81641" lon="5.77422">
        <ele>585</ele>
        <time>2020-02-28T10:19:56Z</time>
      </trkpt>
      <trkpt lat="46.81642" lon="5.77416">
        <ele>585.2</ele>
        <time>2020-02-28T10:19:57Z</time>
      </trkpt>
      <trkpt lat="46.81644" lon="5.7741">
        <ele>585.4</ele>
        <time>2020-02-28T10:19:58Z</time>
      </trkpt>
      <trkpt lat="46.81646" lon="5.77404">
        <ele>585.4</ele>
        <time>2020-02-28T10:19:59Z</time>
      </trkpt>
      <trkpt lat="46.81647" lon="5.77398">
        <ele>585.8</ele>
        <time>2020-02-28T10:20:00Z</time>
      </trkpt>
      <trkpt lat="46.81648" lon="5.77391">
        <ele>585.8</ele>
        <time>2020-02-28T10:20:01Z</time>
      </trkpt>
      <trkpt lat="46.8165" lon="5.77384">
        <ele>585.8</ele>
        <time>2020-02-28T10:20:02Z</time>
      </trkpt>
      <trkpt lat="46.81651" lon="5.77376">
        <ele>586</ele>
        <time>2020-02-28T10:20:03Z</time>
      </trkpt>
      <trkpt lat="46.81653" lon="5.77369">
        <ele>586</ele>
        <time>2020-02-28T10:20:04Z</time>
      </trkpt>
      <trkpt lat="46.81654" lon="5.77361">
        <ele>586</ele>
        <time>2020-02-28T10:20:05Z</time>
      </trkpt>
      <trkpt lat="46.81656" lon="5.77353">
        <ele>586</ele>
        <time>2020-02-28T10:20:06Z</time>
      </trkpt>
      <trkpt lat="46.81658" lon="5.77345">
        <ele>586</ele>
        <time>2020-02-28T10:20:07Z</time>
      </trkpt>
      <trkpt lat="46.8166" lon="5.77336">
        <ele>586</ele>
        <time>2020-02-28T10:20:08Z</time>
      </trkpt>
      <trkpt lat="46.81661" lon="5.77328">
        <ele>586</ele>
        <time>2020-02-28T10:20:09Z</time>
      </trkpt>
      <trkpt lat="46.81663" lon="5.77319">
        <ele>586</ele>
        <time>2020-02-28T10:20:10Z</time>
      </trkpt>
      <trkpt lat="46.81665" lon="5.7731">
        <ele>585.8</ele>
        <time>2020-02-28T10:20:11Z</time>
      </trkpt>
      <trkpt lat="46.81668" lon="5.77301">
        <ele>585.8</ele>
        <time>2020-02-28T10:20:12Z</time>
      </trkpt>
      <trkpt lat="46.8167" lon="5.77291">
        <ele>585.4</ele>
        <time>2020-02-28T10:20:13Z</time>
      </trkpt>
      <trkpt lat="46.81672" lon="5.77281">
        <ele>585.2</ele>
        <time>2020-02-28T10:20:14Z</time>
      </trkpt>
      <trkpt lat="46.81673" lon="5.77271">
        <ele>585.2</ele>
        <time>2020-02-28T10:20:15Z</time>
      </trkpt>
      <trkpt lat="46.81675" lon="5.7726">
        <ele>585</ele>
        <time>2020-02-28T10:20:16Z</time>
      </trkpt>
      <trkpt lat="46.81676" lon="5.7725">
        <ele>584.6</ele>
        <time>2020-02-28T10:20:17Z</time>
      </trkpt>
      <trkpt lat="46.81678" lon="5.77238">
        <ele>584.6</ele>
        <time>2020-02-28T10:20:18Z</time>
      </trkpt>
      <trkpt lat="46.81679" lon="5.77226">
        <ele>584.2</ele>
        <time>2020-02-28T10:20:19Z</time>
      </trkpt>
      <trkpt lat="46.8168" lon="5.77214">
        <ele>583.8</ele>
        <time>2020-02-28T10:20:20Z</time>
      </trkpt>
      <trkpt lat="46.81681" lon="5.77201">
        <ele>583.2</ele>
        <time>2020-02-28T10:20:21Z</time>
      </trkpt>
      <trkpt lat="46.81681" lon="5.77187">
        <ele>582.6</ele>
        <time>2020-02-28T10:20:22Z</time>
      </trkpt>
      <trkpt lat="46.8168" lon="5.77173">
        <ele>582</ele>
        <time>2020-02-28T10:20:23Z</time>
      </trkpt>
      <trkpt lat="46.8168" lon="5.77158">
        <ele>581.4</ele>
        <time>2020-02-28T10:20:24Z</time>
      </trkpt>
      <trkpt lat="46.81679" lon="5.77144">
        <ele>581</ele>
        <time>2020-02-28T10:20:25Z</time>
      </trkpt>
      <trkpt lat="46.81677" lon="5.77129">
        <ele>580.4</ele>
        <time>2020-02-28T10:20:26Z</time>
      </trkpt>
      <trkpt lat="46.81675" lon="5.77115">
        <ele>579.6</ele>
        <time>2020-02-28T10:20:27Z</time>
      </trkpt>
      <trkpt lat="46.81672" lon="5.77101">
        <ele>579.2</ele>
        <time>2020-02-28T10:20:28Z</time>
      </trkpt>
      <trkpt lat="46.81669" lon="5.77087">
        <ele>578.8</ele>
        <time>2020-02-28T10:20:29Z</time>
      </trkpt>
      <trkpt lat="46.81665" lon="5.77074">
        <ele>578.2</ele>
        <time>2020-02-28T10:20:30Z</time>
      </trkpt>
      <trkpt lat="46.81661" lon="5.77061">
        <ele>577.8</ele>
        <time>2020-02-28T10:20:31Z</time>
      </trkpt>
      <trkpt lat="46.81656" lon="5.77049">
        <ele>577.4</ele>
        <time>2020-02-28T10:20:32Z</time>
      </trkpt>
      <trkpt lat="46.8165" lon="5.77035">
        <ele>577</ele>
        <time>2020-02-28T10:20:33Z</time>
      </trkpt>
      <trkpt lat="46.81644" lon="5.77022">
        <ele>576.4</ele>
        <time>2020-02-28T10:20:34Z</time>
      </trkpt>
      <trkpt lat="46.81637" lon="5.7701">
        <ele>575.8</ele>
        <time>2020-02-28T10:20:35Z</time>
      </trkpt>
      <trkpt lat="46.81628" lon="5.76998">
        <ele>575</ele>
        <time>2020-02-28T10:20:36Z</time>
      </trkpt>
      <trkpt lat="46.8162" lon="5.76986">
        <ele>574.2</ele>
        <time>2020-02-28T10:20:37Z</time>
      </trkpt>
      <trkpt lat="46.81612" lon="5.76974">
        <ele>573.4</ele>
        <time>2020-02-28T10:20:38Z</time>
      </trkpt>
      <trkpt lat="46.81604" lon="5.76961">
        <ele>572.6</ele>
        <time>2020-02-28T10:20:39Z</time>
      </trkpt>
      <trkpt lat="46.81597" lon="5.76946">
        <ele>571.8</ele>
        <time>2020-02-28T10:20:40Z</time>
      </trkpt>
      <trkpt lat="46.8159" lon="5.76931">
        <ele>571.2</ele>
        <time>2020-02-28T10:20:41Z</time>
      </trkpt>
      <trkpt lat="46.81584" lon="5.76913">
        <ele>570.4</ele>
        <time>2020-02-28T10:20:42Z</time>
      </trkpt>
      <trkpt lat="46.8158" lon="5.76896">
        <ele>569.6</ele>
        <time>2020-02-28T10:20:43Z</time>
      </trkpt>
      <trkpt lat="46.81577" lon="5.76878">
        <ele>569</ele>
        <time>2020-02-28T10:20:44Z</time>
      </trkpt>
      <trkpt lat="46.81573" lon="5.7686">
        <ele>568.2</ele>
        <time>2020-02-28T10:20:45Z</time>
      </trkpt>
      <trkpt lat="46.81574" lon="5.76841">
        <ele>567.8</ele>
        <time>2020-02-28T10:20:46Z</time>
      </trkpt>
      <trkpt lat="46.81575" lon="5.76824">
        <ele>567.6</ele>
        <time>2020-02-28T10:20:47Z</time>
      </trkpt>
      <trkpt lat="46.81575" lon="5.76808">
        <ele>567.6</ele>
        <time>2020-02-28T10:20:48Z</time>
      </trkpt>
      <trkpt lat="46.81576" lon="5.76793">
        <ele>567.2</ele>
        <time>2020-02-28T10:20:49Z</time>
      </trkpt>
      <trkpt lat="46.81577" lon="5.76779">
        <ele>567.2</ele>
        <time>2020-02-28T10:20:50Z</time>
      </trkpt>
      <trkpt lat="46.81578" lon="5.76765">
        <ele>567.6</ele>
        <time>2020-02-28T10:20:51Z</time>
      </trkpt>
      <trkpt lat="46.81578" lon="5.76754">
        <ele>567.8</ele>
        <time>2020-02-28T10:20:52Z</time>
      </trkpt>
      <trkpt lat="46.81579" lon="5.76741">
        <ele>568.2</ele>
        <time>2020-02-28T10:20:53Z</time>
      </trkpt>
      <trkpt lat="46.81579" lon="5.76729">
        <ele>568.6</ele>
        <time>2020-02-28T10:20:54Z</time>
      </trkpt>
      <trkpt lat="46.81579" lon="5.76717">
        <ele>569</ele>
        <time>2020-02-28T10:20:55Z</time>
      </trkpt>
      <trkpt lat="46.81579" lon="5.76705">
        <ele>569.4</ele>
        <time>2020-02-28T10:20:56Z</time>
      </trkpt>
      <trkpt lat="46.8158" lon="5.76694">
        <ele>569.8</ele>
        <time>2020-02-28T10:20:57Z</time>
      </trkpt>
      <trkpt lat="46.81581" lon="5.76683">
        <ele>570</ele>
        <time>2020-02-28T10:20:58Z</time>
      </trkpt>
      <trkpt lat="46.81582" lon="5.76672">
        <ele>570.2</ele>
        <time>2020-02-28T10:20:59Z</time>
      </trkpt>
      <trkpt lat="46.81582" lon="5.76661">
        <ele>570.8</ele>
        <time>2020-02-28T10:21:00Z</time>
      </trkpt>
      <trkpt lat="46.81582" lon="5.7665">
        <ele>571</ele>
        <time>2020-02-28T10:21:01Z</time>
      </trkpt>
      <trkpt lat="46.81583" lon="5.76639">
        <ele>571.4</ele>
        <time>2020-02-28T10:21:02Z</time>
      </trkpt>
      <trkpt lat="46.81584" lon="5.76628">
        <ele>571.6</ele>
        <time>2020-02-28T10:21:03Z</time>
      </trkpt>
      <trkpt lat="46.81585" lon="5.76617">
        <ele>571.8</ele>
        <time>2020-02-28T10:21:04Z</time>
      </trkpt>
      <trkpt lat="46.81586" lon="5.76606">
        <ele>572</ele>
        <time>2020-02-28T10:21:05Z</time>
      </trkpt>
      <trkpt lat="46.81586" lon="5.76595">
        <ele>572</ele>
        <time>2020-02-28T10:21:06Z</time>
      </trkpt>
      <trkpt lat="46.81587" lon="5.76583">
        <ele>572.2</ele>
        <time>2020-02-28T10:21:07Z</time>
      </trkpt>
      <trkpt lat="46.81588" lon="5.76571">
        <ele>572.2</ele>
        <time>2020-02-28T10:21:08Z</time>
      </trkpt>
      <trkpt lat="46.81589" lon="5.76558">
        <ele>572</ele>
        <time>2020-02-28T10:21:09Z</time>
      </trkpt>
      <trkpt lat="46.8159" lon="5.76546">
        <ele>572</ele>
        <time>2020-02-28T10:21:10Z</time>
      </trkpt>
      <trkpt lat="46.81591" lon="5.76534">
        <ele>571.8</ele>
        <time>2020-02-28T10:21:11Z</time>
      </trkpt>
      <trkpt lat="46.81592" lon="5.76521">
        <ele>571.4</ele>
        <time>2020-02-28T10:21:12Z</time>
      </trkpt>
      <trkpt lat="46.81593" lon="5.76509">
        <ele>571.2</ele>
        <time>2020-02-28T10:21:13Z</time>
      </trkpt>
      <trkpt lat="46.81594" lon="5.76497">
        <ele>571.2</ele>
        <time>2020-02-28T10:21:14Z</time>
      </trkpt>
      <trkpt lat="46.81595" lon="5.76485">
        <ele>570.6</ele>
        <time>2020-02-28T10:21:15Z</time>
      </trkpt>
      <trkpt lat="46.81596" lon="5.76472">
        <ele>570.6</ele>
        <time>2020-02-28T10:21:16Z</time>
      </trkpt>
      <trkpt lat="46.81597" lon="5.7646">
        <ele>570.4</ele>
        <time>2020-02-28T10:21:17Z</time>
      </trkpt>
      <trkpt lat="46.81598" lon="5.76448">
        <ele>570.4</ele>
        <time>2020-02-28T10:21:18Z</time>
      </trkpt>
      <trkpt lat="46.81599" lon="5.76436">
        <ele>570.4</ele>
        <time>2020-02-28T10:21:19Z</time>
      </trkpt>
      <trkpt lat="46.81599" lon="5.76424">
        <ele>570</ele>
        <time>2020-02-28T10:21:20Z</time>
      </trkpt>
      <trkpt lat="46.816" lon="5.76413">
        <ele>570</ele>
        <time>2020-02-28T10:21:21Z</time>
      </trkpt>
      <trkpt lat="46.81601" lon="5.76401">
        <ele>570</ele>
        <time>2020-02-28T10:21:22Z</time>
      </trkpt>
      <trkpt lat="46.81602" lon="5.7639">
        <ele>570</ele>
        <time>2020-02-28T10:21:23Z</time>
      </trkpt>
      <trkpt lat="46.81602" lon="5.76378">
        <ele>570</ele>
        <time>2020-02-28T10:21:24Z</time>
      </trkpt>
      <trkpt lat="46.81603" lon="5.76366">
        <ele>570</ele>
        <time>2020-02-28T10:21:25Z</time>
      </trkpt>
      <trkpt lat="46.81605" lon="5.76355">
        <ele>569.6</ele>
        <time>2020-02-28T10:21:26Z</time>
      </trkpt>
      <trkpt lat="46.81606" lon="5.76343">
        <ele>569.2</ele>
        <time>2020-02-28T10:21:27Z</time>
      </trkpt>
      <trkpt lat="46.81606" lon="5.76331">
        <ele>569.2</ele>
        <time>2020-02-28T10:21:28Z</time>
      </trkpt>
      <trkpt lat="46.81607" lon="5.7632">
        <ele>568.8</ele>
        <time>2020-02-28T10:21:29Z</time>
      </trkpt>
      <trkpt lat="46.81608" lon="5.76309">
        <ele>569.2</ele>
        <time>2020-02-28T10:21:30Z</time>
      </trkpt>
      <trkpt lat="46.81609" lon="5.76297">
        <ele>569.2</ele>
        <time>2020-02-28T10:21:31Z</time>
      </trkpt>
      <trkpt lat="46.81609" lon="5.76285">
        <ele>569.2</ele>
        <time>2020-02-28T10:21:32Z</time>
      </trkpt>
      <trkpt lat="46.8161" lon="5.76274">
        <ele>569.2</ele>
        <time>2020-02-28T10:21:33Z</time>
      </trkpt>
      <trkpt lat="46.8161" lon="5.76263">
        <ele>568.8</ele>
        <time>2020-02-28T10:21:34Z</time>
      </trkpt>
      <trkpt lat="46.81611" lon="5.76252">
        <ele>568.6</ele>
        <time>2020-02-28T10:21:35Z</time>
      </trkpt>
      <trkpt lat="46.81612" lon="5.76241">
        <ele>568.6</ele>
        <time>2020-02-28T10:21:36Z</time>
      </trkpt>
      <trkpt lat="46.81613" lon="5.76229">
        <ele>568.6</ele>
        <time>2020-02-28T10:21:37Z</time>
      </trkpt>
      <trkpt lat="46.81614" lon="5.76217">
        <ele>568.6</ele>
        <time>2020-02-28T10:21:38Z</time>
      </trkpt>
      <trkpt lat="46.81615" lon="5.76206">
        <ele>568.2</ele>
        <time>2020-02-28T10:21:39Z</time>
      </trkpt>
      <trkpt lat="46.81616" lon="5.76194">
        <ele>568.2</ele>
        <time>2020-02-28T10:21:40Z</time>
      </trkpt>
      <trkpt lat="46.81617" lon="5.76182">
        <ele>568</ele>
        <time>2020-02-28T10:21:41Z</time>
      </trkpt>
      <trkpt lat="46.81618" lon="5.76171">
        <ele>568.4</ele>
        <time>2020-02-28T10:21:42Z</time>
      </trkpt>
      <trkpt lat="46.81619" lon="5.76159">
        <ele>568</ele>
        <time>2020-02-28T10:21:43Z</time>
      </trkpt>
      <trkpt lat="46.81619" lon="5.76147">
        <ele>567.8</ele>
        <time>2020-02-28T10:21:44Z</time>
      </trkpt>
      <trkpt lat="46.8162" lon="5.76135">
        <ele>567.8</ele>
        <time>2020-02-28T10:21:45Z</time>
      </trkpt>
      <trkpt lat="46.8162" lon="5.76122">
        <ele>567.6</ele>
        <time>2020-02-28T10:21:46Z</time>
      </trkpt>
      <trkpt lat="46.81621" lon="5.76109">
        <ele>567.2</ele>
        <time>2020-02-28T10:21:47Z</time>
      </trkpt>
      <trkpt lat="46.81621" lon="5.76095">
        <ele>567</ele>
        <time>2020-02-28T10:21:48Z</time>
      </trkpt>
      <trkpt lat="46.81621" lon="5.7608">
        <ele>566.8</ele>
        <time>2020-02-28T10:21:49Z</time>
      </trkpt>
      <trkpt lat="46.81622" lon="5.76067">
        <ele>566.8</ele>
        <time>2020-02-28T10:21:50Z</time>
      </trkpt>
      <trkpt lat="46.81622" lon="5.76054">
        <ele>566.4</ele>
        <time>2020-02-28T10:21:51Z</time>
      </trkpt>
      <trkpt lat="46.81623" lon="5.76041">
        <ele>566</ele>
        <time>2020-02-28T10:21:52Z</time>
      </trkpt>
      <trkpt lat="46.81624" lon="5.76028">
        <ele>565.6</ele>
        <time>2020-02-28T10:21:53Z</time>
      </trkpt>
      <trkpt lat="46.81625" lon="5.76016">
        <ele>565.4</ele>
        <time>2020-02-28T10:21:54Z</time>
      </trkpt>
      <trkpt lat="46.81626" lon="5.76003">
        <ele>565</ele>
        <time>2020-02-28T10:21:55Z</time>
      </trkpt>
      <trkpt lat="46.81627" lon="5.7599">
        <ele>564.8</ele>
        <time>2020-02-28T10:21:56Z</time>
      </trkpt>
      <trkpt lat="46.81628" lon="5.75977">
        <ele>564.4</ele>
        <time>2020-02-28T10:21:57Z</time>
      </trkpt>
      <trkpt lat="46.81629" lon="5.75964">
        <ele>564.4</ele>
        <time>2020-02-28T10:21:58Z</time>
      </trkpt>
      <trkpt lat="46.8163" lon="5.75951">
        <ele>564</ele>
        <time>2020-02-28T10:21:59Z</time>
      </trkpt>
      <trkpt lat="46.81631" lon="5.75939">
        <ele>564</ele>
        <time>2020-02-28T10:22:00Z</time>
      </trkpt>
      <trkpt lat="46.81632" lon="5.75926">
        <ele>563.8</ele>
        <time>2020-02-28T10:22:01Z</time>
      </trkpt>
      <trkpt lat="46.81632" lon="5.75913">
        <ele>563.8</ele>
        <time>2020-02-28T10:22:02Z</time>
      </trkpt>
      <trkpt lat="46.81633" lon="5.75899">
        <ele>563.4</ele>
        <time>2020-02-28T10:22:03Z</time>
      </trkpt>
      <trkpt lat="46.81633" lon="5.75887">
        <ele>563.4</ele>
        <time>2020-02-28T10:22:04Z</time>
      </trkpt>
      <trkpt lat="46.81634" lon="5.75874">
        <ele>563.4</ele>
        <time>2020-02-28T10:22:05Z</time>
      </trkpt>
      <trkpt lat="46.81635" lon="5.75861">
        <ele>563</ele>
        <time>2020-02-28T10:22:06Z</time>
      </trkpt>
      <trkpt lat="46.81635" lon="5.75849">
        <ele>563</ele>
        <time>2020-02-28T10:22:07Z</time>
      </trkpt>
      <trkpt lat="46.81636" lon="5.75837">
        <ele>563</ele>
        <time>2020-02-28T10:22:08Z</time>
      </trkpt>
      <trkpt lat="46.81637" lon="5.75824">
        <ele>562.8</ele>
        <time>2020-02-28T10:22:09Z</time>
      </trkpt>
      <trkpt lat="46.81637" lon="5.75811">
        <ele>562.8</ele>
        <time>2020-02-28T10:22:10Z</time>
      </trkpt>
      <trkpt lat="46.81638" lon="5.75798">
        <ele>562.8</ele>
        <time>2020-02-28T10:22:11Z</time>
      </trkpt>
      <trkpt lat="46.81638" lon="5.75785">
        <ele>562.6</ele>
        <time>2020-02-28T10:22:12Z</time>
      </trkpt>
      <trkpt lat="46.81638" lon="5.75772">
        <ele>562.6</ele>
        <time>2020-02-28T10:22:13Z</time>
      </trkpt>
      <trkpt lat="46.81639" lon="5.75759">
        <ele>562.6</ele>
        <time>2020-02-28T10:22:14Z</time>
      </trkpt>
      <trkpt lat="46.8164" lon="5.75746">
        <ele>562.4</ele>
        <time>2020-02-28T10:22:15Z</time>
      </trkpt>
      <trkpt lat="46.81641" lon="5.75732">
        <ele>562.4</ele>
        <time>2020-02-28T10:22:16Z</time>
      </trkpt>
      <trkpt lat="46.81641" lon="5.75719">
        <ele>562</ele>
        <time>2020-02-28T10:22:17Z</time>
      </trkpt>
      <trkpt lat="46.81642" lon="5.75706">
        <ele>562</ele>
        <time>2020-02-28T10:22:18Z</time>
      </trkpt>
      <trkpt lat="46.81643" lon="5.75693">
        <ele>561.8</ele>
        <time>2020-02-28T10:22:19Z</time>
      </trkpt>
      <trkpt lat="46.81645" lon="5.75681">
        <ele>561.8</ele>
        <time>2020-02-28T10:22:20Z</time>
      </trkpt>
      <trkpt lat="46.81646" lon="5.75669">
        <ele>561.8</ele>
        <time>2020-02-28T10:22:21Z</time>
      </trkpt>
      <trkpt lat="46.81647" lon="5.75657">
        <ele>561.8</ele>
        <time>2020-02-28T10:22:22Z</time>
      </trkpt>
      <trkpt lat="46.81647" lon="5.75645">
        <ele>561.8</ele>
        <time>2020-02-28T10:22:23Z</time>
      </trkpt>
      <trkpt lat="46.81648" lon="5.75633">
        <ele>561.8</ele>
        <time>2020-02-28T10:22:24Z</time>
      </trkpt>
      <trkpt lat="46.81649" lon="5.75622">
        <ele>561.8</ele>
        <time>2020-02-28T10:22:25Z</time>
      </trkpt>
      <trkpt lat="46.8165" lon="5.75611">
        <ele>561.8</ele>
        <time>2020-02-28T10:22:26Z</time>
      </trkpt>
      <trkpt lat="46.8165" lon="5.756">
        <ele>562</ele>
        <time>2020-02-28T10:22:27Z</time>
      </trkpt>
      <trkpt lat="46.81651" lon="5.75589">
        <ele>562</ele>
        <time>2020-02-28T10:22:28Z</time>
      </trkpt>
      <trkpt lat="46.81652" lon="5.75579">
        <ele>562.2</ele>
        <time>2020-02-28T10:22:29Z</time>
      </trkpt>
      <trkpt lat="46.81653" lon="5.75569">
        <ele>562.2</ele>
        <time>2020-02-28T10:22:30Z</time>
      </trkpt>
      <trkpt lat="46.81653" lon="5.75559">
        <ele>562.2</ele>
        <time>2020-02-28T10:22:31Z</time>
      </trkpt>
      <trkpt lat="46.81654" lon="5.7555">
        <ele>562.4</ele>
        <time>2020-02-28T10:22:32Z</time>
      </trkpt>
      <trkpt lat="46.81655" lon="5.75541">
        <ele>562.4</ele>
        <time>2020-02-28T10:22:33Z</time>
      </trkpt>
      <trkpt lat="46.81655" lon="5.75532">
        <ele>562.4</ele>
        <time>2020-02-28T10:22:34Z</time>
      </trkpt>
      <trkpt lat="46.81656" lon="5.75523">
        <ele>562.8</ele>
        <time>2020-02-28T10:22:35Z</time>
      </trkpt>
      <trkpt lat="46.81656" lon="5.75514">
        <ele>562.8</ele>
        <time>2020-02-28T10:22:36Z</time>
      </trkpt>
      <trkpt lat="46.81657" lon="5.75506">
        <ele>563</ele>
        <time>2020-02-28T10:22:37Z</time>
      </trkpt>
      <trkpt lat="46.81657" lon="5.75497">
        <ele>563</ele>
        <time>2020-02-28T10:22:38Z</time>
      </trkpt>
      <trkpt lat="46.81658" lon="5.75488">
        <ele>563</ele>
        <time>2020-02-28T10:22:39Z</time>
      </trkpt>
      <trkpt lat="46.81659" lon="5.75479">
        <ele>563</ele>
        <time>2020-02-28T10:22:40Z</time>
      </trkpt>
      <trkpt lat="46.81659" lon="5.7547">
        <ele>563</ele>
        <time>2020-02-28T10:22:41Z</time>
      </trkpt>
      <trkpt lat="46.81659" lon="5.75461">
        <ele>563</ele>
        <time>2020-02-28T10:22:42Z</time>
      </trkpt>
      <trkpt lat="46.8166" lon="5.75452">
        <ele>563</ele>
        <time>2020-02-28T10:22:43Z</time>
      </trkpt>
      <trkpt lat="46.8166" lon="5.75443">
        <ele>563</ele>
        <time>2020-02-28T10:22:44Z</time>
      </trkpt>
      <trkpt lat="46.81661" lon="5.75433">
        <ele>563</ele>
        <time>2020-02-28T10:22:45Z</time>
      </trkpt>
      <trkpt lat="46.81661" lon="5.75424">
        <ele>562.8</ele>
        <time>2020-02-28T10:22:46Z</time>
      </trkpt>
      <trkpt lat="46.81662" lon="5.75414">
        <ele>562.8</ele>
        <time>2020-02-28T10:22:47Z</time>
      </trkpt>
      <trkpt lat="46.81662" lon="5.75405">
        <ele>562.8</ele>
        <time>2020-02-28T10:22:48Z</time>
      </trkpt>
      <trkpt lat="46.81663" lon="5.75396">
        <ele>562.8</ele>
        <time>2020-02-28T10:22:49Z</time>
      </trkpt>
      <trkpt lat="46.81663" lon="5.75386">
        <ele>562.8</ele>
        <time>2020-02-28T10:22:50Z</time>
      </trkpt>
      <trkpt lat="46.81664" lon="5.75377">
        <ele>562.8</ele>
        <time>2020-02-28T10:22:51Z</time>
      </trkpt>
      <trkpt lat="46.81664" lon="5.75367">
        <ele>562.8</ele>
        <time>2020-02-28T10:22:52Z</time>
      </trkpt>
      <trkpt lat="46.81665" lon="5.75358">
        <ele>562.6</ele>
        <time>2020-02-28T10:22:53Z</time>
      </trkpt>
      <trkpt lat="46.81666" lon="5.75348">
        <ele>562.6</ele>
        <time>2020-02-28T10:22:54Z</time>
      </trkpt>
      <trkpt lat="46.81666" lon="5.75339">
        <ele>562.6</ele>
        <time>2020-02-28T10:22:55Z</time>
      </trkpt>
      <trkpt lat="46.81667" lon="5.75329">
        <ele>562.6</ele>
        <time>2020-02-28T10:22:56Z</time>
      </trkpt>
      <trkpt lat="46.81667" lon="5.7532">
        <ele>562.6</ele>
        <time>2020-02-28T10:22:57Z</time>
      </trkpt>
      <trkpt lat="46.81668" lon="5.7531">
        <ele>562.4</ele>
        <time>2020-02-28T10:22:58Z</time>
      </trkpt>
      <trkpt lat="46.81669" lon="5.753">
        <ele>562.8</ele>
        <time>2020-02-28T10:22:59Z</time>
      </trkpt>
      <trkpt lat="46.81669" lon="5.7529">
        <ele>562.6</ele>
        <time>2020-02-28T10:23:00Z</time>
      </trkpt>
      <trkpt lat="46.8167" lon="5.7528">
        <ele>562.6</ele>
        <time>2020-02-28T10:23:01Z</time>
      </trkpt>
      <trkpt lat="46.8167" lon="5.7527">
        <ele>562.6</ele>
        <time>2020-02-28T10:23:02Z</time>
      </trkpt>
      <trkpt lat="46.81671" lon="5.7526">
        <ele>562.2</ele>
        <time>2020-02-28T10:23:03Z</time>
      </trkpt>
      <trkpt lat="46.81671" lon="5.7525">
        <ele>562.2</ele>
        <time>2020-02-28T10:23:04Z</time>
      </trkpt>
      <trkpt lat="46.81672" lon="5.7524">
        <ele>562.2</ele>
        <time>2020-02-28T10:23:05Z</time>
      </trkpt>
      <trkpt lat="46.81672" lon="5.7523">
        <ele>562.2</ele>
        <time>2020-02-28T10:23:06Z</time>
      </trkpt>
      <trkpt lat="46.81673" lon="5.7522">
        <ele>562.2</ele>
        <time>2020-02-28T10:23:07Z</time>
      </trkpt>
      <trkpt lat="46.81673" lon="5.75209">
        <ele>562.2</ele>
        <time>2020-02-28T10:23:08Z</time>
      </trkpt>
      <trkpt lat="46.81674" lon="5.75199">
        <ele>562.2</ele>
        <time>2020-02-28T10:23:09Z</time>
      </trkpt>
      <trkpt lat="46.81675" lon="5.75189">
        <ele>562.2</ele>
        <time>2020-02-28T10:23:10Z</time>
      </trkpt>
      <trkpt lat="46.81675" lon="5.75179">
        <ele>562</ele>
        <time>2020-02-28T10:23:11Z</time>
      </trkpt>
      <trkpt lat="46.81676" lon="5.75168">
        <ele>562</ele>
        <time>2020-02-28T10:23:12Z</time>
      </trkpt>
      <trkpt lat="46.81677" lon="5.75158">
        <ele>562</ele>
        <time>2020-02-28T10:23:13Z</time>
      </trkpt>
      <trkpt lat="46.81678" lon="5.75148">
        <ele>562</ele>
        <time>2020-02-28T10:23:14Z</time>
      </trkpt>
      <trkpt lat="46.81678" lon="5.75138">
        <ele>562</ele>
        <time>2020-02-28T10:23:15Z</time>
      </trkpt>
      <trkpt lat="46.81679" lon="5.75127">
        <ele>562</ele>
        <time>2020-02-28T10:23:16Z</time>
      </trkpt>
      <trkpt lat="46.8168" lon="5.75117">
        <ele>562</ele>
        <time>2020-02-28T10:23:17Z</time>
      </trkpt>
      <trkpt lat="46.8168" lon="5.75107">
        <ele>562.2</ele>
        <time>2020-02-28T10:23:18Z</time>
      </trkpt>
      <trkpt lat="46.81681" lon="5.75097">
        <ele>562.2</ele>
        <time>2020-02-28T10:23:19Z</time>
      </trkpt>
      <trkpt lat="46.81681" lon="5.75087">
        <ele>562.2</ele>
        <time>2020-02-28T10:23:20Z</time>
      </trkpt>
      <trkpt lat="46.81682" lon="5.75078">
        <ele>562.2</ele>
        <time>2020-02-28T10:23:21Z</time>
      </trkpt>
      <trkpt lat="46.81683" lon="5.75068">
        <ele>562.2</ele>
        <time>2020-02-28T10:23:22Z</time>
      </trkpt>
      <trkpt lat="46.81683" lon="5.75059">
        <ele>562.4</ele>
        <time>2020-02-28T10:23:23Z</time>
      </trkpt>
      <trkpt lat="46.81684" lon="5.75049">
        <ele>562.6</ele>
        <time>2020-02-28T10:23:24Z</time>
      </trkpt>
      <trkpt lat="46.81684" lon="5.7504">
        <ele>562.6</ele>
        <time>2020-02-28T10:23:25Z</time>
      </trkpt>
      <trkpt lat="46.81684" lon="5.75032">
        <ele>563.2</ele>
        <time>2020-02-28T10:23:26Z</time>
      </trkpt>
      <trkpt lat="46.81685" lon="5.75023">
        <ele>563.2</ele>
        <time>2020-02-28T10:23:27Z</time>
      </trkpt>
      <trkpt lat="46.81686" lon="5.75015">
        <ele>563.4</ele>
        <time>2020-02-28T10:23:28Z</time>
      </trkpt>
      <trkpt lat="46.81687" lon="5.75007">
        <ele>563.4</ele>
        <time>2020-02-28T10:23:29Z</time>
      </trkpt>
      <trkpt lat="46.81687" lon="5.74999">
        <ele>563.8</ele>
        <time>2020-02-28T10:23:30Z</time>
      </trkpt>
      <trkpt lat="46.81687" lon="5.74991">
        <ele>563.8</ele>
        <time>2020-02-28T10:23:31Z</time>
      </trkpt>
      <trkpt lat="46.81688" lon="5.74983">
        <ele>563.8</ele>
        <time>2020-02-28T10:23:32Z</time>
      </trkpt>
      <trkpt lat="46.81688" lon="5.74976">
        <ele>564</ele>
        <time>2020-02-28T10:23:33Z</time>
      </trkpt>
      <trkpt lat="46.81689" lon="5.74968">
        <ele>564</ele>
        <time>2020-02-28T10:23:34Z</time>
      </trkpt>
      <trkpt lat="46.8169" lon="5.74961">
        <ele>564</ele>
        <time>2020-02-28T10:23:35Z</time>
      </trkpt>
      <trkpt lat="46.8169" lon="5.74954">
        <ele>564.2</ele>
        <time>2020-02-28T10:23:36Z</time>
      </trkpt>
      <trkpt lat="46.81691" lon="5.74947">
        <ele>564.2</ele>
        <time>2020-02-28T10:23:37Z</time>
      </trkpt>
      <trkpt lat="46.81692" lon="5.7494">
        <ele>564.4</ele>
        <time>2020-02-28T10:23:38Z</time>
      </trkpt>
      <trkpt lat="46.81693" lon="5.74933">
        <ele>564.4</ele>
        <time>2020-02-28T10:23:39Z</time>
      </trkpt>
      <trkpt lat="46.81694" lon="5.74926">
        <ele>564.8</ele>
        <time>2020-02-28T10:23:40Z</time>
      </trkpt>
      <trkpt lat="46.81694" lon="5.7492">
        <ele>564.8</ele>
        <time>2020-02-28T10:23:41Z</time>
      </trkpt>
      <trkpt lat="46.81695" lon="5.74913">
        <ele>565</ele>
        <time>2020-02-28T10:23:42Z</time>
      </trkpt>
      <trkpt lat="46.81695" lon="5.74907">
        <ele>565</ele>
        <time>2020-02-28T10:23:43Z</time>
      </trkpt>
      <trkpt lat="46.81695" lon="5.749">
        <ele>565</ele>
        <time>2020-02-28T10:23:44Z</time>
      </trkpt>
      <trkpt lat="46.81696" lon="5.74894">
        <ele>565</ele>
        <time>2020-02-28T10:23:45Z</time>
      </trkpt>
      <trkpt lat="46.81696" lon="5.74888">
        <ele>565.4</ele>
        <time>2020-02-28T10:23:46Z</time>
      </trkpt>
      <trkpt lat="46.81697" lon="5.74882">
        <ele>565.4</ele>
        <time>2020-02-28T10:23:47Z</time>
      </trkpt>
      <trkpt lat="46.81697" lon="5.74876">
        <ele>565.4</ele>
        <time>2020-02-28T10:23:48Z</time>
      </trkpt>
      <trkpt lat="46.81698" lon="5.74869">
        <ele>565.4</ele>
        <time>2020-02-28T10:23:49Z</time>
      </trkpt>
      <trkpt lat="46.81699" lon="5.74863">
        <ele>565.8</ele>
        <time>2020-02-28T10:23:50Z</time>
      </trkpt>
      <trkpt lat="46.81699" lon="5.74856">
        <ele>565.8</ele>
        <time>2020-02-28T10:23:51Z</time>
      </trkpt>
      <trkpt lat="46.817" lon="5.74849">
        <ele>565.8</ele>
        <time>2020-02-28T10:23:52Z</time>
      </trkpt>
      <trkpt lat="46.817" lon="5.74842">
        <ele>565.8</ele>
        <time>2020-02-28T10:23:53Z</time>
      </trkpt>
      <trkpt lat="46.81701" lon="5.74835">
        <ele>566</ele>
        <time>2020-02-28T10:23:54Z</time>
      </trkpt>
      <trkpt lat="46.81701" lon="5.74828">
        <ele>566</ele>
        <time>2020-02-28T10:23:55Z</time>
      </trkpt>
      <trkpt lat="46.81701" lon="5.74821">
        <ele>566</ele>
        <time>2020-02-28T10:23:56Z</time>
      </trkpt>
      <trkpt lat="46.81702" lon="5.74814">
        <ele>566</ele>
        <time>2020-02-28T10:23:57Z</time>
      </trkpt>
      <trkpt lat="46.81703" lon="5.74807">
        <ele>566</ele>
        <time>2020-02-28T10:23:58Z</time>
      </trkpt>
      <trkpt lat="46.81703" lon="5.74799">
        <ele>566</ele>
        <time>2020-02-28T10:23:59Z</time>
      </trkpt>
      <trkpt lat="46.81705" lon="5.74792">
        <ele>566</ele>
        <time>2020-02-28T10:24:00Z</time>
      </trkpt>
      <trkpt lat="46.81706" lon="5.74785">
        <ele>566.2</ele>
        <time>2020-02-28T10:24:01Z</time>
      </trkpt>
      <trkpt lat="46.81706" lon="5.74779">
        <ele>566.6</ele>
        <time>2020-02-28T10:24:02Z</time>
      </trkpt>
      <trkpt lat="46.81707" lon="5.74772">
        <ele>566.6</ele>
        <time>2020-02-28T10:24:03Z</time>
      </trkpt>
      <trkpt lat="46.81708" lon="5.74765">
        <ele>566.6</ele>
        <time>2020-02-28T10:24:04Z</time>
      </trkpt>
      <trkpt lat="46.81709" lon="5.74758">
        <ele>566.6</ele>
        <time>2020-02-28T10:24:05Z</time>
      </trkpt>
      <trkpt lat="46.8171" lon="5.74751">
        <ele>566.6</ele>
        <time>2020-02-28T10:24:06Z</time>
      </trkpt>
      <trkpt lat="46.81711" lon="5.74744">
        <ele>566.6</ele>
        <time>2020-02-28T10:24:07Z</time>
      </trkpt>
      <trkpt lat="46.81711" lon="5.74737">
        <ele>566.6</ele>
        <time>2020-02-28T10:24:08Z</time>
      </trkpt>
      <trkpt lat="46.81712" lon="5.74731">
        <ele>566.4</ele>
        <time>2020-02-28T10:24:09Z</time>
      </trkpt>
      <trkpt lat="46.81712" lon="5.74723">
        <ele>566.4</ele>
        <time>2020-02-28T10:24:10Z</time>
      </trkpt>
      <trkpt lat="46.81713" lon="5.74716">
        <ele>566.4</ele>
        <time>2020-02-28T10:24:11Z</time>
      </trkpt>
      <trkpt lat="46.81713" lon="5.74709">
        <ele>566.4</ele>
        <time>2020-02-28T10:24:12Z</time>
      </trkpt>
      <trkpt lat="46.81715" lon="5.74701">
        <ele>566</ele>
        <time>2020-02-28T10:24:13Z</time>
      </trkpt>
      <trkpt lat="46.81716" lon="5.74693">
        <ele>566</ele>
        <time>2020-02-28T10:24:14Z</time>
      </trkpt>
      <trkpt lat="46.81717" lon="5.74684">
        <ele>565.6</ele>
        <time>2020-02-28T10:24:15Z</time>
      </trkpt>
      <trkpt lat="46.81718" lon="5.74674">
        <ele>565.4</ele>
        <time>2020-02-28T10:24:16Z</time>
      </trkpt>
      <trkpt lat="46.81719" lon="5.74664">
        <ele>565.2</ele>
        <time>2020-02-28T10:24:17Z</time>
      </trkpt>
      <trkpt lat="46.8172" lon="5.74654">
        <ele>564.8</ele>
        <time>2020-02-28T10:24:18Z</time>
      </trkpt>
      <trkpt lat="46.81719" lon="5.74642">
        <ele>564.6</ele>
        <time>2020-02-28T10:24:19Z</time>
      </trkpt>
      <trkpt lat="46.81719" lon="5.7463">
        <ele>564.2</ele>
        <time>2020-02-28T10:24:20Z</time>
      </trkpt>
      <trkpt lat="46.81719" lon="5.74618">
        <ele>563.8</ele>
        <time>2020-02-28T10:24:21Z</time>
      </trkpt>
      <trkpt lat="46.81719" lon="5.74606">
        <ele>563.2</ele>
        <time>2020-02-28T10:24:22Z</time>
      </trkpt>
      <trkpt lat="46.81719" lon="5.74593">
        <ele>562.8</ele>
        <time>2020-02-28T10:24:23Z</time>
      </trkpt>
      <trkpt lat="46.8172" lon="5.7458">
        <ele>562.2</ele>
        <time>2020-02-28T10:24:24Z</time>
      </trkpt>
      <trkpt lat="46.8172" lon="5.74566">
        <ele>561.6</ele>
        <time>2020-02-28T10:24:25Z</time>
      </trkpt>
      <trkpt lat="46.81721" lon="5.7455">
        <ele>561</ele>
        <time>2020-02-28T10:24:26Z</time>
      </trkpt>
      <trkpt lat="46.8172" lon="5.7453">
        <ele>560.4</ele>
        <time>2020-02-28T10:24:27Z</time>
      </trkpt>
      <trkpt lat="46.81718" lon="5.7451">
        <ele>559.6</ele>
        <time>2020-02-28T10:24:28Z</time>
      </trkpt>
      <trkpt lat="46.81716" lon="5.74491">
        <ele>559</ele>
        <time>2020-02-28T10:24:29Z</time>
      </trkpt>
      <trkpt lat="46.81718" lon="5.74474">
        <ele>558.4</ele>
        <time>2020-02-28T10:24:30Z</time>
      </trkpt>
      <trkpt lat="46.81718" lon="5.7446">
        <ele>558</ele>
        <time>2020-02-28T10:24:31Z</time>
      </trkpt>
      <trkpt lat="46.81719" lon="5.74446">
        <ele>557.8</ele>
        <time>2020-02-28T10:24:32Z</time>
      </trkpt>
      <trkpt lat="46.81721" lon="5.74434">
        <ele>557.8</ele>
        <time>2020-02-28T10:24:33Z</time>
      </trkpt>
      <trkpt lat="46.81721" lon="5.74419">
        <ele>557.4</ele>
        <time>2020-02-28T10:24:34Z</time>
      </trkpt>
      <trkpt lat="46.81722" lon="5.74407">
        <ele>557.4</ele>
        <time>2020-02-28T10:24:35Z</time>
      </trkpt>
      <trkpt lat="46.81724" lon="5.74393">
        <ele>557.4</ele>
        <time>2020-02-28T10:24:36Z</time>
      </trkpt>
      <trkpt lat="46.81725" lon="5.7438">
        <ele>557.4</ele>
        <time>2020-02-28T10:24:37Z</time>
      </trkpt>
      <trkpt lat="46.81727" lon="5.74369">
        <ele>557.8</ele>
        <time>2020-02-28T10:24:38Z</time>
      </trkpt>
      <trkpt lat="46.81728" lon="5.74358">
        <ele>558</ele>
        <time>2020-02-28T10:24:39Z</time>
      </trkpt>
      <trkpt lat="46.81729" lon="5.74347">
        <ele>558.2</ele>
        <time>2020-02-28T10:24:40Z</time>
      </trkpt>
      <trkpt lat="46.81729" lon="5.74337">
        <ele>558.2</ele>
        <time>2020-02-28T10:24:41Z</time>
      </trkpt>
      <trkpt lat="46.8173" lon="5.74327">
        <ele>558.6</ele>
        <time>2020-02-28T10:24:42Z</time>
      </trkpt>
      <trkpt lat="46.81731" lon="5.74317">
        <ele>558.8</ele>
        <time>2020-02-28T10:24:43Z</time>
      </trkpt>
      <trkpt lat="46.81732" lon="5.74308">
        <ele>559</ele>
        <time>2020-02-28T10:24:44Z</time>
      </trkpt>
      <trkpt lat="46.81733" lon="5.74299">
        <ele>559</ele>
        <time>2020-02-28T10:24:45Z</time>
      </trkpt>
      <trkpt lat="46.81734" lon="5.7429">
        <ele>559.4</ele>
        <time>2020-02-28T10:24:46Z</time>
      </trkpt>
      <trkpt lat="46.81734" lon="5.74281">
        <ele>559.4</ele>
        <time>2020-02-28T10:24:47Z</time>
      </trkpt>
      <trkpt lat="46.81735" lon="5.74273">
        <ele>559.6</ele>
        <time>2020-02-28T10:24:48Z</time>
      </trkpt>
      <trkpt lat="46.81736" lon="5.74264">
        <ele>559.6</ele>
        <time>2020-02-28T10:24:49Z</time>
      </trkpt>
      <trkpt lat="46.81738" lon="5.74256">
        <ele>560.2</ele>
        <time>2020-02-28T10:24:50Z</time>
      </trkpt>
      <trkpt lat="46.81739" lon="5.74248">
        <ele>560.2</ele>
        <time>2020-02-28T10:24:51Z</time>
      </trkpt>
      <trkpt lat="46.8174" lon="5.7424">
        <ele>560.4</ele>
        <time>2020-02-28T10:24:52Z</time>
      </trkpt>
      <trkpt lat="46.81741" lon="5.74232">
        <ele>560.4</ele>
        <time>2020-02-28T10:24:53Z</time>
      </trkpt>
      <trkpt lat="46.81742" lon="5.74224">
        <ele>560.8</ele>
        <time>2020-02-28T10:24:54Z</time>
      </trkpt>
      <trkpt lat="46.81743" lon="5.74216">
        <ele>560.8</ele>
        <time>2020-02-28T10:24:55Z</time>
      </trkpt>
      <trkpt lat="46.81743" lon="5.74209">
        <ele>561.2</ele>
        <time>2020-02-28T10:24:56Z</time>
      </trkpt>
      <trkpt lat="46.81744" lon="5.74201">
        <ele>561.2</ele>
        <time>2020-02-28T10:24:57Z</time>
      </trkpt>
      <trkpt lat="46.81744" lon="5.74194">
        <ele>561.2</ele>
        <time>2020-02-28T10:24:58Z</time>
      </trkpt>
      <trkpt lat="46.81745" lon="5.74187">
        <ele>561.4</ele>
        <time>2020-02-28T10:24:59Z</time>
      </trkpt>
      <trkpt lat="46.81745" lon="5.7418">
        <ele>561.4</ele>
        <time>2020-02-28T10:25:00Z</time>
      </trkpt>
      <trkpt lat="46.81746" lon="5.74173">
        <ele>561.6</ele>
        <time>2020-02-28T10:25:01Z</time>
      </trkpt>
      <trkpt lat="46.81746" lon="5.74166">
        <ele>561.6</ele>
        <time>2020-02-28T10:25:02Z</time>
      </trkpt>
      <trkpt lat="46.81746" lon="5.74159">
        <ele>561.6</ele>
        <time>2020-02-28T10:25:03Z</time>
      </trkpt>
      <trkpt lat="46.81746" lon="5.74152">
        <ele>562</ele>
        <time>2020-02-28T10:25:04Z</time>
      </trkpt>
      <trkpt lat="46.81747" lon="5.74146">
        <ele>562</ele>
        <time>2020-02-28T10:25:05Z</time>
      </trkpt>
      <trkpt lat="46.81747" lon="5.7414">
        <ele>562</ele>
        <time>2020-02-28T10:25:06Z</time>
      </trkpt>
      <trkpt lat="46.81748" lon="5.74133">
        <ele>562</ele>
        <time>2020-02-28T10:25:07Z</time>
      </trkpt>
      <trkpt lat="46.81748" lon="5.74126">
        <ele>562</ele>
        <time>2020-02-28T10:25:08Z</time>
      </trkpt>
      <trkpt lat="46.81748" lon="5.74119">
        <ele>562</ele>
        <time>2020-02-28T10:25:09Z</time>
      </trkpt>
      <trkpt lat="46.81749" lon="5.74112">
        <ele>562</ele>
        <time>2020-02-28T10:25:10Z</time>
      </trkpt>
      <trkpt lat="46.81749" lon="5.74105">
        <ele>562</ele>
        <time>2020-02-28T10:25:11Z</time>
      </trkpt>
      <trkpt lat="46.81749" lon="5.74098">
        <ele>562</ele>
        <time>2020-02-28T10:25:12Z</time>
      </trkpt>
      <trkpt lat="46.8175" lon="5.74092">
        <ele>562</ele>
        <time>2020-02-28T10:25:13Z</time>
      </trkpt>
      <trkpt lat="46.8175" lon="5.74086">
        <ele>562.4</ele>
        <time>2020-02-28T10:25:14Z</time>
      </trkpt>
      <trkpt lat="46.81749" lon="5.74079">
        <ele>562.4</ele>
        <time>2020-02-28T10:25:15Z</time>
      </trkpt>
      <trkpt lat="46.81749" lon="5.74073">
        <ele>562.4</ele>
        <time>2020-02-28T10:25:16Z</time>
      </trkpt>
      <trkpt lat="46.81749" lon="5.74066">
        <ele>562.4</ele>
        <time>2020-02-28T10:25:17Z</time>
      </trkpt>
      <trkpt lat="46.8175" lon="5.74059">
        <ele>562.4</ele>
        <time>2020-02-28T10:25:18Z</time>
      </trkpt>
      <trkpt lat="46.81751" lon="5.74051">
        <ele>562.4</ele>
        <time>2020-02-28T10:25:19Z</time>
      </trkpt>
      <trkpt lat="46.81751" lon="5.74043">
        <ele>562</ele>
        <time>2020-02-28T10:25:20Z</time>
      </trkpt>
      <trkpt lat="46.81751" lon="5.74035">
        <ele>562</ele>
        <time>2020-02-28T10:25:21Z</time>
      </trkpt>
      <trkpt lat="46.81752" lon="5.74027">
        <ele>562</ele>
        <time>2020-02-28T10:25:22Z</time>
      </trkpt>
      <trkpt lat="46.81752" lon="5.74019">
        <ele>561.8</ele>
        <time>2020-02-28T10:25:23Z</time>
      </trkpt>
      <trkpt lat="46.81752" lon="5.74011">
        <ele>561.8</ele>
        <time>2020-02-28T10:25:24Z</time>
      </trkpt>
      <trkpt lat="46.81751" lon="5.74005">
        <ele>561.6</ele>
        <time>2020-02-28T10:25:25Z</time>
      </trkpt>
      <trkpt lat="46.81749" lon="5.73999">
        <ele>561.6</ele>
        <time>2020-02-28T10:25:26Z</time>
      </trkpt>
      <trkpt lat="46.81746" lon="5.73994">
        <ele>561.6</ele>
        <time>2020-02-28T10:25:27Z</time>
      </trkpt>
      <trkpt lat="46.81742" lon="5.7399">
        <ele>561.6</ele>
        <time>2020-02-28T10:25:28Z</time>
      </trkpt>
      <trkpt lat="46.81737" lon="5.73986">
        <ele>561.6</ele>
        <time>2020-02-28T10:25:29Z</time>
      </trkpt>
      <trkpt lat="46.81733" lon="5.73984">
        <ele>561.6</ele>
        <time>2020-02-28T10:25:30Z</time>
      </trkpt>
      <trkpt lat="46.81729" lon="5.73981">
        <ele>561.6</ele>
        <time>2020-02-28T10:25:31Z</time>
      </trkpt>
      <trkpt lat="46.81725" lon="5.7398">
        <ele>561.8</ele>
        <time>2020-02-28T10:25:32Z</time>
      </trkpt>
      <trkpt lat="46.81722" lon="5.73979">
        <ele>562</ele>
        <time>2020-02-28T10:25:33Z</time>
      </trkpt>
      <trkpt lat="46.81719" lon="5.73979">
        <ele>562.4</ele>
        <time>2020-02-28T10:25:34Z</time>
      </trkpt>
      <trkpt lat="46.81717" lon="5.7398">
        <ele>562.8</ele>
        <time>2020-02-28T10:25:35Z</time>
      </trkpt>
      <trkpt lat="46.81715" lon="5.7398">
        <ele>563</ele>
        <time>2020-02-28T10:25:36Z</time>
      </trkpt>
      <trkpt lat="46.81713" lon="5.73979">
        <ele>563.4</ele>
        <time>2020-02-28T10:25:37Z</time>
      </trkpt>
      <trkpt lat="46.81711" lon="5.73979">
        <ele>563.8</ele>
        <time>2020-02-28T10:25:38Z</time>
      </trkpt>
      <trkpt lat="46.81708" lon="5.73978">
        <ele>564</ele>
        <time>2020-02-28T10:25:39Z</time>
      </trkpt>
      <trkpt lat="46.81706" lon="5.73978">
        <ele>564.2</ele>
        <time>2020-02-28T10:25:40Z</time>
      </trkpt>
      <trkpt lat="46.81704" lon="5.73977">
        <ele>564.4</ele>
        <time>2020-02-28T10:25:41Z</time>
      </trkpt>
      <trkpt lat="46.81702" lon="5.73976">
        <ele>564.6</ele>
        <time>2020-02-28T10:25:42Z</time>
      </trkpt>
      <trkpt lat="46.81699" lon="5.73974">
        <ele>564.6</ele>
        <time>2020-02-28T10:25:43Z</time>
      </trkpt>
      <trkpt lat="46.81696" lon="5.73972">
        <ele>565</ele>
        <time>2020-02-28T10:25:44Z</time>
      </trkpt>
      <trkpt lat="46.81694" lon="5.73971">
        <ele>565</ele>
        <time>2020-02-28T10:25:45Z</time>
      </trkpt>
      <trkpt lat="46.81692" lon="5.73968">
        <ele>565.2</ele>
        <time>2020-02-28T10:25:46Z</time>
      </trkpt>
      <trkpt lat="46.8169" lon="5.73966">
        <ele>565.2</ele>
        <time>2020-02-28T10:25:47Z</time>
      </trkpt>
      <trkpt lat="46.81688" lon="5.73963">
        <ele>565.4</ele>
        <time>2020-02-28T10:25:48Z</time>
      </trkpt>
      <trkpt lat="46.81686" lon="5.7396">
        <ele>565.4</ele>
        <time>2020-02-28T10:25:49Z</time>
      </trkpt>
      <trkpt lat="46.81684" lon="5.73957">
        <ele>565.8</ele>
        <time>2020-02-28T10:25:50Z</time>
      </trkpt>
      <trkpt lat="46.81683" lon="5.73954">
        <ele>565.8</ele>
        <time>2020-02-28T10:25:51Z</time>
      </trkpt>
      <trkpt lat="46.81681" lon="5.73951">
        <ele>565.8</ele>
        <time>2020-02-28T10:25:52Z</time>
      </trkpt>
      <trkpt lat="46.81679" lon="5.73948">
        <ele>566</ele>
        <time>2020-02-28T10:25:53Z</time>
      </trkpt>
      <trkpt lat="46.81678" lon="5.73945">
        <ele>566</ele>
        <time>2020-02-28T10:25:54Z</time>
      </trkpt>
      <trkpt lat="46.81676" lon="5.73941">
        <ele>566.2</ele>
        <time>2020-02-28T10:25:55Z</time>
      </trkpt>
      <trkpt lat="46.81675" lon="5.73938">
        <ele>566.2</ele>
        <time>2020-02-28T10:25:56Z</time>
      </trkpt>
      <trkpt lat="46.81673" lon="5.73934">
        <ele>566.2</ele>
        <time>2020-02-28T10:25:57Z</time>
      </trkpt>
      <trkpt lat="46.81671" lon="5.7393">
        <ele>566.2</ele>
        <time>2020-02-28T10:25:58Z</time>
      </trkpt>
      <trkpt lat="46.81669" lon="5.73926">
        <ele>566.2</ele>
        <time>2020-02-28T10:25:59Z</time>
      </trkpt>
      <trkpt lat="46.81668" lon="5.73921">
        <ele>566.2</ele>
        <time>2020-02-28T10:26:00Z</time>
      </trkpt>
      <trkpt lat="46.81666" lon="5.73916">
        <ele>566.2</ele>
        <time>2020-02-28T10:26:01Z</time>
      </trkpt>
      <trkpt lat="46.81663" lon="5.73911">
        <ele>566.2</ele>
        <time>2020-02-28T10:26:02Z</time>
      </trkpt>
      <trkpt lat="46.81661" lon="5.73906">
        <ele>566.2</ele>
        <time>2020-02-28T10:26:03Z</time>
      </trkpt>
      <trkpt lat="46.81659" lon="5.73901">
        <ele>566.2</ele>
        <time>2020-02-28T10:26:04Z</time>
      </trkpt>
      <trkpt lat="46.81657" lon="5.73895">
        <ele>566.2</ele>
        <time>2020-02-28T10:26:05Z</time>
      </trkpt>
      <trkpt lat="46.81655" lon="5.7389">
        <ele>566.2</ele>
        <time>2020-02-28T10:26:06Z</time>
      </trkpt>
      <trkpt lat="46.81651" lon="5.73886">
        <ele>566</ele>
        <time>2020-02-28T10:26:07Z</time>
      </trkpt>
      <trkpt lat="46.81647" lon="5.73881">
        <ele>565.8</ele>
        <time>2020-02-28T10:26:08Z</time>
      </trkpt>
      <trkpt lat="46.81643" lon="5.73877">
        <ele>565.6</ele>
        <time>2020-02-28T10:26:09Z</time>
      </trkpt>
      <trkpt lat="46.81637" lon="5.73873">
        <ele>565.2</ele>
        <time>2020-02-28T10:26:10Z</time>
      </trkpt>
      <trkpt lat="46.81631" lon="5.7387">
        <ele>564.8</ele>
        <time>2020-02-28T10:26:11Z</time>
      </trkpt>
      <trkpt lat="46.81625" lon="5.73867">
        <ele>564.2</ele>
        <time>2020-02-28T10:26:12Z</time>
      </trkpt>
      <trkpt lat="46.81618" lon="5.73863">
        <ele>563.6</ele>
        <time>2020-02-28T10:26:13Z</time>
      </trkpt>
      <trkpt lat="46.81611" lon="5.7386">
        <ele>563</ele>
        <time>2020-02-28T10:26:14Z</time>
      </trkpt>
      <trkpt lat="46.81604" lon="5.73856">
        <ele>562.4</ele>
        <time>2020-02-28T10:26:15Z</time>
      </trkpt>
      <trkpt lat="46.81596" lon="5.73853">
        <ele>562</ele>
        <time>2020-02-28T10:26:16Z</time>
      </trkpt>
      <trkpt lat="46.81588" lon="5.73849">
        <ele>561.4</ele>
        <time>2020-02-28T10:26:17Z</time>
      </trkpt>
      <trkpt lat="46.81581" lon="5.73846">
        <ele>561</ele>
        <time>2020-02-28T10:26:18Z</time>
      </trkpt>
      <trkpt lat="46.81573" lon="5.73842">
        <ele>560.6</ele>
        <time>2020-02-28T10:26:19Z</time>
      </trkpt>
      <trkpt lat="46.81565" lon="5.73837">
        <ele>560</ele>
        <time>2020-02-28T10:26:20Z</time>
      </trkpt>
      <trkpt lat="46.81556" lon="5.73831">
        <ele>559.6</ele>
        <time>2020-02-28T10:26:21Z</time>
      </trkpt>
      <trkpt lat="46.81549" lon="5.73825">
        <ele>559</ele>
        <time>2020-02-28T10:26:22Z</time>
      </trkpt>
      <trkpt lat="46.81541" lon="5.73818">
        <ele>558.6</ele>
        <time>2020-02-28T10:26:23Z</time>
      </trkpt>
      <trkpt lat="46.81534" lon="5.7381">
        <ele>558.4</ele>
        <time>2020-02-28T10:26:24Z</time>
      </trkpt>
      <trkpt lat="46.81528" lon="5.73803">
        <ele>558.2</ele>
        <time>2020-02-28T10:26:25Z</time>
      </trkpt>
      <trkpt lat="46.81522" lon="5.73795">
        <ele>558.2</ele>
        <time>2020-02-28T10:26:26Z</time>
      </trkpt>
      <trkpt lat="46.81516" lon="5.73787">
        <ele>557.8</ele>
        <time>2020-02-28T10:26:27Z</time>
      </trkpt>
      <trkpt lat="46.81512" lon="5.73778">
        <ele>557.8</ele>
        <time>2020-02-28T10:26:28Z</time>
      </trkpt>
      <trkpt lat="46.81508" lon="5.73769">
        <ele>557.8</ele>
        <time>2020-02-28T10:26:29Z</time>
      </trkpt>
      <trkpt lat="46.81505" lon="5.73759">
        <ele>557.8</ele>
        <time>2020-02-28T10:26:30Z</time>
      </trkpt>
      <trkpt lat="46.81503" lon="5.73749">
        <ele>557.8</ele>
        <time>2020-02-28T10:26:31Z</time>
      </trkpt>
      <trkpt lat="46.81503" lon="5.73738">
        <ele>557.6</ele>
        <time>2020-02-28T10:26:32Z</time>
      </trkpt>
      <trkpt lat="46.81502" lon="5.73726">
        <ele>557.6</ele>
        <time>2020-02-28T10:26:33Z</time>
      </trkpt>
      <trkpt lat="46.81503" lon="5.73714">
        <ele>557.4</ele>
        <time>2020-02-28T10:26:34Z</time>
      </trkpt>
      <trkpt lat="46.81504" lon="5.73702">
        <ele>557.4</ele>
        <time>2020-02-28T10:26:35Z</time>
      </trkpt>
      <trkpt lat="46.81505" lon="5.7369">
        <ele>556.8</ele>
        <time>2020-02-28T10:26:36Z</time>
      </trkpt>
      <trkpt lat="46.81507" lon="5.73677">
        <ele>556.4</ele>
        <time>2020-02-28T10:26:37Z</time>
      </trkpt>
      <trkpt lat="46.81508" lon="5.73664">
        <ele>556.2</ele>
        <time>2020-02-28T10:26:38Z</time>
      </trkpt>
      <trkpt lat="46.81509" lon="5.73651">
        <ele>555.8</ele>
        <time>2020-02-28T10:26:39Z</time>
      </trkpt>
      <trkpt lat="46.81511" lon="5.73638">
        <ele>555.4</ele>
        <time>2020-02-28T10:26:40Z</time>
      </trkpt>
      <trkpt lat="46.81512" lon="5.73625">
        <ele>555</ele>
        <time>2020-02-28T10:26:41Z</time>
      </trkpt>
      <trkpt lat="46.81513" lon="5.73609">
        <ele>554.8</ele>
        <time>2020-02-28T10:26:42Z</time>
      </trkpt>
      <trkpt lat="46.81513" lon="5.73595">
        <ele>554.6</ele>
        <time>2020-02-28T10:26:43Z</time>
      </trkpt>
      <trkpt lat="46.81514" lon="5.73582">
        <ele>554.2</ele>
        <time>2020-02-28T10:26:44Z</time>
      </trkpt>
      <trkpt lat="46.81514" lon="5.73569">
        <ele>554</ele>
        <time>2020-02-28T10:26:45Z</time>
      </trkpt>
      <trkpt lat="46.81515" lon="5.73556">
        <ele>554</ele>
        <time>2020-02-28T10:26:46Z</time>
      </trkpt>
      <trkpt lat="46.81516" lon="5.73544">
        <ele>554</ele>
        <time>2020-02-28T10:26:47Z</time>
      </trkpt>
      <trkpt lat="46.81517" lon="5.73533">
        <ele>554</ele>
        <time>2020-02-28T10:26:48Z</time>
      </trkpt>
      <trkpt lat="46.81519" lon="5.73522">
        <ele>554</ele>
        <time>2020-02-28T10:26:49Z</time>
      </trkpt>
      <trkpt lat="46.81522" lon="5.73511">
        <ele>554</ele>
        <time>2020-02-28T10:26:50Z</time>
      </trkpt>
      <trkpt lat="46.81525" lon="5.73503">
        <ele>554</ele>
        <time>2020-02-28T10:26:51Z</time>
      </trkpt>
      <trkpt lat="46.81529" lon="5.73495">
        <ele>554.4</ele>
        <time>2020-02-28T10:26:52Z</time>
      </trkpt>
      <trkpt lat="46.81533" lon="5.73489">
        <ele>554.8</ele>
        <time>2020-02-28T10:26:53Z</time>
      </trkpt>
      <trkpt lat="46.81538" lon="5.73483">
        <ele>555</ele>
        <time>2020-02-28T10:26:54Z</time>
      </trkpt>
      <trkpt lat="46.81542" lon="5.73477">
        <ele>555.2</ele>
        <time>2020-02-28T10:26:55Z</time>
      </trkpt>
      <trkpt lat="46.81546" lon="5.73473">
        <ele>555.6</ele>
        <time>2020-02-28T10:26:56Z</time>
      </trkpt>
      <trkpt lat="46.8155" lon="5.73468">
        <ele>555.6</ele>
        <time>2020-02-28T10:26:57Z</time>
      </trkpt>
      <trkpt lat="46.81553" lon="5.73463">
        <ele>555.8</ele>
        <time>2020-02-28T10:26:58Z</time>
      </trkpt>
      <trkpt lat="46.81556" lon="5.73458">
        <ele>555.8</ele>
        <time>2020-02-28T10:26:59Z</time>
      </trkpt>
      <trkpt lat="46.81559" lon="5.73454">
        <ele>556.2</ele>
        <time>2020-02-28T10:27:00Z</time>
      </trkpt>
      <trkpt lat="46.81561" lon="5.7345">
        <ele>556.2</ele>
        <time>2020-02-28T10:27:01Z</time>
      </trkpt>
      <trkpt lat="46.81563" lon="5.73446">
        <ele>556.6</ele>
        <time>2020-02-28T10:27:02Z</time>
      </trkpt>
      <trkpt lat="46.81564" lon="5.73442">
        <ele>556.6</ele>
        <time>2020-02-28T10:27:03Z</time>
      </trkpt>
      <trkpt lat="46.81566" lon="5.73438">
        <ele>557</ele>
        <time>2020-02-28T10:27:04Z</time>
      </trkpt>
      <trkpt lat="46.81567" lon="5.73434">
        <ele>557.2</ele>
        <time>2020-02-28T10:27:05Z</time>
      </trkpt>
      <trkpt lat="46.81568" lon="5.73432">
        <ele>557.2</ele>
        <time>2020-02-28T10:27:06Z</time>
      </trkpt>
      <trkpt lat="46.81569" lon="5.7343">
        <ele>557.4</ele>
        <time>2020-02-28T10:27:07Z</time>
      </trkpt>
      <trkpt lat="46.81569" lon="5.73428">
        <ele>557.4</ele>
        <time>2020-02-28T10:27:08Z</time>
      </trkpt>
      <trkpt lat="46.8157" lon="5.73428">
        <ele>557.6</ele>
        <time>2020-02-28T10:27:09Z</time>
      </trkpt>
      <trkpt lat="46.81573" lon="5.73411">
        <ele>558.8</ele>
        <time>2020-02-28T10:28:20Z</time>
      </trkpt>
      <trkpt lat="46.81573" lon="5.7341">
        <ele>559</ele>
        <time>2020-02-28T10:28:21Z</time>
      </trkpt>
      <trkpt lat="46.81574" lon="5.73408">
        <ele>559</ele>
        <time>2020-02-28T10:28:22Z</time>
      </trkpt>
      <trkpt lat="46.81574" lon="5.73407">
        <ele>559</ele>
        <time>2020-02-28T10:28:23Z</time>
      </trkpt>
      <trkpt lat="46.81574" lon="5.73405">
        <ele>559</ele>
        <time>2020-02-28T10:28:24Z</time>
      </trkpt>
      <trkpt lat="46.81577" lon="5.73389">
        <ele>559.8</ele>
        <time>2020-02-28T10:29:59Z</time>
      </trkpt>
      <trkpt lat="46.81577" lon="5.73388">
        <ele>559.8</ele>
        <time>2020-02-28T10:30:00Z</time>
      </trkpt>
      <trkpt lat="46.81578" lon="5.73384">
        <ele>559.8</ele>
        <time>2020-02-28T10:30:01Z</time>
      </trkpt>
      <trkpt lat="46.81578" lon="5.73381">
        <ele>560</ele>
        <time>2020-02-28T10:30:04Z</time>
      </trkpt>
      <trkpt lat="46.81578" lon="5.73378">
        <ele>560</ele>
        <time>2020-02-28T10:30:05Z</time>
      </trkpt>
      <trkpt lat="46.81579" lon="5.73375">
        <ele>560</ele>
        <time>2020-02-28T10:30:06Z</time>
      </trkpt>
      <trkpt lat="46.81579" lon="5.73373">
        <ele>560</ele>
        <time>2020-02-28T10:30:07Z</time>
      </trkpt>
      <trkpt lat="46.81579" lon="5.73369">
        <ele>560</ele>
        <time>2020-02-28T10:30:08Z</time>
      </trkpt>
      <trkpt lat="46.8158" lon="5.73364">
        <ele>560.2</ele>
        <time>2020-02-28T10:30:09Z</time>
      </trkpt>
      <trkpt lat="46.8158" lon="5.73363">
        <ele>560.2</ele>
        <time>2020-02-28T10:30:10Z</time>
      </trkpt>
      <trkpt lat="46.81581" lon="5.73359">
        <ele>560.2</ele>
        <time>2020-02-28T10:30:11Z</time>
      </trkpt>
      <trkpt lat="46.81581" lon="5.73355">
        <ele>560.4</ele>
        <time>2020-02-28T10:30:12Z</time>
      </trkpt>
      <trkpt lat="46.81582" lon="5.73351">
        <ele>560.4</ele>
        <time>2020-02-28T10:30:13Z</time>
      </trkpt>
      <trkpt lat="46.81583" lon="5.73346">
        <ele>560.4</ele>
        <time>2020-02-28T10:30:14Z</time>
      </trkpt>
      <trkpt lat="46.81583" lon="5.73341">
        <ele>560.4</ele>
        <time>2020-02-28T10:30:15Z</time>
      </trkpt>
      <trkpt lat="46.81584" lon="5.73337">
        <ele>560.4</ele>
        <time>2020-02-28T10:30:16Z</time>
      </trkpt>
      <trkpt lat="46.81584" lon="5.73332">
        <ele>560.8</ele>
        <time>2020-02-28T10:30:17Z</time>
      </trkpt>
      <trkpt lat="46.81585" lon="5.73327">
        <ele>560.8</ele>
        <time>2020-02-28T10:30:18Z</time>
      </trkpt>
      <trkpt lat="46.81585" lon="5.73321">
        <ele>561</ele>
        <time>2020-02-28T10:30:19Z</time>
      </trkpt>
      <trkpt lat="46.81585" lon="5.73316">
        <ele>561</ele>
        <time>2020-02-28T10:30:20Z</time>
      </trkpt>
      <trkpt lat="46.81586" lon="5.73311">
        <ele>561</ele>
        <time>2020-02-28T10:30:21Z</time>
      </trkpt>
      <trkpt lat="46.81586" lon="5.73306">
        <ele>561.2</ele>
        <time>2020-02-28T10:30:22Z</time>
      </trkpt>
      <trkpt lat="46.81587" lon="5.73301">
        <ele>561.2</ele>
        <time>2020-02-28T10:30:23Z</time>
      </trkpt>
      <trkpt lat="46.81587" lon="5.73296">
        <ele>561.4</ele>
        <time>2020-02-28T10:30:24Z</time>
      </trkpt>
      <trkpt lat="46.81587" lon="5.73291">
        <ele>561.4</ele>
        <time>2020-02-28T10:30:25Z</time>
      </trkpt>
      <trkpt lat="46.81587" lon="5.73286">
        <ele>561.4</ele>
        <time>2020-02-28T10:30:26Z</time>
      </trkpt>
      <trkpt lat="46.81586" lon="5.7328">
        <ele>561.4</ele>
        <time>2020-02-28T10:30:27Z</time>
      </trkpt>
      <trkpt lat="46.81586" lon="5.73278">
        <ele>561.8</ele>
        <time>2020-02-28T10:30:28Z</time>
      </trkpt>
      <trkpt lat="46.81586" lon="5.73274">
        <ele>561.8</ele>
        <time>2020-02-28T10:30:29Z</time>
      </trkpt>
      <trkpt lat="46.81585" lon="5.7327">
        <ele>561.8</ele>
        <time>2020-02-28T10:30:30Z</time>
      </trkpt>
      <trkpt lat="46.81585" lon="5.73267">
        <ele>561.8</ele>
        <time>2020-02-28T10:30:31Z</time>
      </trkpt>
      <trkpt lat="46.81584" lon="5.73262">
        <ele>561.8</ele>
        <time>2020-02-28T10:30:32Z</time>
      </trkpt>
      <trkpt lat="46.81583" lon="5.73258">
        <ele>561.8</ele>
        <time>2020-02-28T10:30:33Z</time>
      </trkpt>
      <trkpt lat="46.81582" lon="5.73253">
        <ele>561.8</ele>
        <time>2020-02-28T10:30:34Z</time>
      </trkpt>
      <trkpt lat="46.81581" lon="5.73248">
        <ele>561.8</ele>
        <time>2020-02-28T10:30:35Z</time>
      </trkpt>
      <trkpt lat="46.81579" lon="5.73243">
        <ele>561.4</ele>
        <time>2020-02-28T10:30:36Z</time>
      </trkpt>
      <trkpt lat="46.81577" lon="5.73237">
        <ele>561.4</ele>
        <time>2020-02-28T10:30:37Z</time>
      </trkpt>
      <trkpt lat="46.81575" lon="5.73231">
        <ele>561.2</ele>
        <time>2020-02-28T10:30:38Z</time>
      </trkpt>
      <trkpt lat="46.81573" lon="5.73225">
        <ele>561.2</ele>
        <time>2020-02-28T10:30:39Z</time>
      </trkpt>
      <trkpt lat="46.8157" lon="5.73218">
        <ele>560.8</ele>
        <time>2020-02-28T10:30:40Z</time>
      </trkpt>
      <trkpt lat="46.81567" lon="5.73211">
        <ele>560.6</ele>
        <time>2020-02-28T10:30:41Z</time>
      </trkpt>
      <trkpt lat="46.81565" lon="5.73204">
        <ele>560.6</ele>
        <time>2020-02-28T10:30:42Z</time>
      </trkpt>
      <trkpt lat="46.81563" lon="5.73197">
        <ele>560.2</ele>
        <time>2020-02-28T10:30:43Z</time>
      </trkpt>
      <trkpt lat="46.8156" lon="5.7319">
        <ele>560.2</ele>
        <time>2020-02-28T10:30:44Z</time>
      </trkpt>
      <trkpt lat="46.81557" lon="5.73182">
        <ele>560</ele>
        <time>2020-02-28T10:30:45Z</time>
      </trkpt>
      <trkpt lat="46.81554" lon="5.73175">
        <ele>559.8</ele>
        <time>2020-02-28T10:30:46Z</time>
      </trkpt>
      <trkpt lat="46.81551" lon="5.73167">
        <ele>559.4</ele>
        <time>2020-02-28T10:30:47Z</time>
      </trkpt>
      <trkpt lat="46.81546" lon="5.73155">
        <ele>559.2</ele>
        <time>2020-02-28T10:30:48Z</time>
      </trkpt>
      <trkpt lat="46.81545" lon="5.73151">
        <ele>558.8</ele>
        <time>2020-02-28T10:30:49Z</time>
      </trkpt>
      <trkpt lat="46.81542" lon="5.73143">
        <ele>558.8</ele>
        <time>2020-02-28T10:30:50Z</time>
      </trkpt>
      <trkpt lat="46.81539" lon="5.73135">
        <ele>558.6</ele>
        <time>2020-02-28T10:30:51Z</time>
      </trkpt>
      <trkpt lat="46.81536" lon="5.73126">
        <ele>558.6</ele>
        <time>2020-02-28T10:30:52Z</time>
      </trkpt>
      <trkpt lat="46.81533" lon="5.73117">
        <ele>558.2</ele>
        <time>2020-02-28T10:30:53Z</time>
      </trkpt>
      <trkpt lat="46.81529" lon="5.73104">
        <ele>557.8</ele>
        <time>2020-02-28T10:30:54Z</time>
      </trkpt>
      <trkpt lat="46.81527" lon="5.73099">
        <ele>557.6</ele>
        <time>2020-02-28T10:30:55Z</time>
      </trkpt>
      <trkpt lat="46.81525" lon="5.7309">
        <ele>557.4</ele>
        <time>2020-02-28T10:30:56Z</time>
      </trkpt>
      <trkpt lat="46.81522" lon="5.7308">
        <ele>557</ele>
        <time>2020-02-28T10:30:57Z</time>
      </trkpt>
      <trkpt lat="46.8152" lon="5.7307">
        <ele>557</ele>
        <time>2020-02-28T10:30:58Z</time>
      </trkpt>
      <trkpt lat="46.81518" lon="5.7306">
        <ele>556.6</ele>
        <time>2020-02-28T10:30:59Z</time>
      </trkpt>
      <trkpt lat="46.81516" lon="5.7305">
        <ele>556.4</ele>
        <time>2020-02-28T10:31:00Z</time>
      </trkpt>
      <trkpt lat="46.81514" lon="5.7304">
        <ele>556.4</ele>
        <time>2020-02-28T10:31:01Z</time>
      </trkpt>
      <trkpt lat="46.81512" lon="5.7303">
        <ele>556.2</ele>
        <time>2020-02-28T10:31:02Z</time>
      </trkpt>
      <trkpt lat="46.8151" lon="5.7302">
        <ele>556.2</ele>
        <time>2020-02-28T10:31:03Z</time>
      </trkpt>
      <trkpt lat="46.81508" lon="5.7301">
        <ele>556.2</ele>
        <time>2020-02-28T10:31:04Z</time>
      </trkpt>
      <trkpt lat="46.81506" lon="5.73">
        <ele>555.8</ele>
        <time>2020-02-28T10:31:05Z</time>
      </trkpt>
      <trkpt lat="46.81504" lon="5.72991">
        <ele>555.8</ele>
        <time>2020-02-28T10:31:06Z</time>
      </trkpt>
      <trkpt lat="46.81502" lon="5.72981">
        <ele>555.8</ele>
        <time>2020-02-28T10:31:07Z</time>
      </trkpt>
      <trkpt lat="46.815" lon="5.72971">
        <ele>555.6</ele>
        <time>2020-02-28T10:31:08Z</time>
      </trkpt>
      <trkpt lat="46.81498" lon="5.72962">
        <ele>555.6</ele>
        <time>2020-02-28T10:31:09Z</time>
      </trkpt>
      <trkpt lat="46.81496" lon="5.72952">
        <ele>555.6</ele>
        <time>2020-02-28T10:31:10Z</time>
      </trkpt>
      <trkpt lat="46.81494" lon="5.72938">
        <ele>555.2</ele>
        <time>2020-02-28T10:31:11Z</time>
      </trkpt>
      <trkpt lat="46.81493" lon="5.72934">
        <ele>555.2</ele>
        <time>2020-02-28T10:31:12Z</time>
      </trkpt>
      <trkpt lat="46.81491" lon="5.72925">
        <ele>555</ele>
        <time>2020-02-28T10:31:13Z</time>
      </trkpt>
      <trkpt lat="46.81489" lon="5.72916">
        <ele>555</ele>
        <time>2020-02-28T10:31:14Z</time>
      </trkpt>
      <trkpt lat="46.81487" lon="5.72907">
        <ele>555</ele>
        <time>2020-02-28T10:31:15Z</time>
      </trkpt>
      <trkpt lat="46.81486" lon="5.72899">
        <ele>554.8</ele>
        <time>2020-02-28T10:31:16Z</time>
      </trkpt>
      <trkpt lat="46.81484" lon="5.72891">
        <ele>554.8</ele>
        <time>2020-02-28T10:31:17Z</time>
      </trkpt>
      <trkpt lat="46.81483" lon="5.72883">
        <ele>554.8</ele>
        <time>2020-02-28T10:31:18Z</time>
      </trkpt>
      <trkpt lat="46.81481" lon="5.72875">
        <ele>554.4</ele>
        <time>2020-02-28T10:31:19Z</time>
      </trkpt>
      <trkpt lat="46.81479" lon="5.72867">
        <ele>554.4</ele>
        <time>2020-02-28T10:31:20Z</time>
      </trkpt>
      <trkpt lat="46.81477" lon="5.72859">
        <ele>554.4</ele>
        <time>2020-02-28T10:31:21Z</time>
      </trkpt>
      <trkpt lat="46.81475" lon="5.72852">
        <ele>554.4</ele>
        <time>2020-02-28T10:31:22Z</time>
      </trkpt>
      <trkpt lat="46.81473" lon="5.72845">
        <ele>554.4</ele>
        <time>2020-02-28T10:31:23Z</time>
      </trkpt>
      <trkpt lat="46.81469" lon="5.72836">
        <ele>554.4</ele>
        <time>2020-02-28T10:31:24Z</time>
      </trkpt>
      <trkpt lat="46.81468" lon="5.72833">
        <ele>554.4</ele>
        <time>2020-02-28T10:31:25Z</time>
      </trkpt>
      <trkpt lat="46.81466" lon="5.72827">
        <ele>554.4</ele>
        <time>2020-02-28T10:31:26Z</time>
      </trkpt>
      <trkpt lat="46.81463" lon="5.72821">
        <ele>554.4</ele>
        <time>2020-02-28T10:31:27Z</time>
      </trkpt>
      <trkpt lat="46.8146" lon="5.72816">
        <ele>554.4</ele>
        <time>2020-02-28T10:31:28Z</time>
      </trkpt>
      <trkpt lat="46.81458" lon="5.72811">
        <ele>554.4</ele>
        <time>2020-02-28T10:31:29Z</time>
      </trkpt>
      <trkpt lat="46.81456" lon="5.72805">
        <ele>554.4</ele>
        <time>2020-02-28T10:31:30Z</time>
      </trkpt>
      <trkpt lat="46.81453" lon="5.728">
        <ele>554.4</ele>
        <time>2020-02-28T10:31:31Z</time>
      </trkpt>
      <trkpt lat="46.81451" lon="5.72794">
        <ele>554.4</ele>
        <time>2020-02-28T10:31:32Z</time>
      </trkpt>
      <trkpt lat="46.81449" lon="5.72788">
        <ele>554.4</ele>
        <time>2020-02-28T10:31:33Z</time>
      </trkpt>
      <trkpt lat="46.81447" lon="5.72783">
        <ele>554.4</ele>
        <time>2020-02-28T10:31:34Z</time>
      </trkpt>
      <trkpt lat="46.81444" lon="5.72777">
        <ele>554.4</ele>
        <time>2020-02-28T10:31:35Z</time>
      </trkpt>
      <trkpt lat="46.81442" lon="5.7277">
        <ele>554.4</ele>
        <time>2020-02-28T10:31:36Z</time>
      </trkpt>
      <trkpt lat="46.81439" lon="5.72764">
        <ele>554.4</ele>
        <time>2020-02-28T10:31:37Z</time>
      </trkpt>
      <trkpt lat="46.81436" lon="5.72758">
        <ele>554.4</ele>
        <time>2020-02-28T10:31:38Z</time>
      </trkpt>
      <trkpt lat="46.81433" lon="5.72751">
        <ele>554.4</ele>
        <time>2020-02-28T10:31:39Z</time>
      </trkpt>
      <trkpt lat="46.8143" lon="5.72745">
        <ele>554.4</ele>
        <time>2020-02-28T10:31:40Z</time>
      </trkpt>
      <trkpt lat="46.81428" lon="5.72738">
        <ele>554.4</ele>
        <time>2020-02-28T10:31:41Z</time>
      </trkpt>
      <trkpt lat="46.81424" lon="5.72732">
        <ele>554.4</ele>
        <time>2020-02-28T10:31:42Z</time>
      </trkpt>
      <trkpt lat="46.81421" lon="5.72725">
        <ele>554.4</ele>
        <time>2020-02-28T10:31:43Z</time>
      </trkpt>
      <trkpt lat="46.81418" lon="5.72719">
        <ele>554.4</ele>
        <time>2020-02-28T10:31:44Z</time>
      </trkpt>
      <trkpt lat="46.81415" lon="5.72712">
        <ele>554.4</ele>
        <time>2020-02-28T10:31:45Z</time>
      </trkpt>
      <trkpt lat="46.81412" lon="5.72705">
        <ele>554.4</ele>
        <time>2020-02-28T10:31:46Z</time>
      </trkpt>
      <trkpt lat="46.81409" lon="5.72698">
        <ele>554.2</ele>
        <time>2020-02-28T10:31:47Z</time>
      </trkpt>
      <trkpt lat="46.81406" lon="5.7269">
        <ele>554.2</ele>
        <time>2020-02-28T10:31:48Z</time>
      </trkpt>
      <trkpt lat="46.81403" lon="5.72683">
        <ele>554.2</ele>
        <time>2020-02-28T10:31:49Z</time>
      </trkpt>
      <trkpt lat="46.81401" lon="5.72675">
        <ele>554.2</ele>
        <time>2020-02-28T10:31:50Z</time>
      </trkpt>
      <trkpt lat="46.81399" lon="5.72668">
        <ele>554.4</ele>
        <time>2020-02-28T10:31:51Z</time>
      </trkpt>
      <trkpt lat="46.81396" lon="5.7266">
        <ele>554.4</ele>
        <time>2020-02-28T10:31:52Z</time>
      </trkpt>
      <trkpt lat="46.81394" lon="5.72652">
        <ele>554.4</ele>
        <time>2020-02-28T10:31:53Z</time>
      </trkpt>
      <trkpt lat="46.81392" lon="5.72645">
        <ele>554.4</ele>
        <time>2020-02-28T10:31:54Z</time>
      </trkpt>
      <trkpt lat="46.8139" lon="5.72637">
        <ele>554.4</ele>
        <time>2020-02-28T10:31:55Z</time>
      </trkpt>
      <trkpt lat="46.81387" lon="5.72627">
        <ele>554.4</ele>
        <time>2020-02-28T10:31:56Z</time>
      </trkpt>
      <trkpt lat="46.81386" lon="5.72623">
        <ele>554.8</ele>
        <time>2020-02-28T10:31:57Z</time>
      </trkpt>
      <trkpt lat="46.81385" lon="5.72616">
        <ele>554.8</ele>
        <time>2020-02-28T10:31:58Z</time>
      </trkpt>
      <trkpt lat="46.81383" lon="5.72609">
        <ele>555</ele>
        <time>2020-02-28T10:31:59Z</time>
      </trkpt>
      <trkpt lat="46.81382" lon="5.72602">
        <ele>555</ele>
        <time>2020-02-28T10:32:00Z</time>
      </trkpt>
      <trkpt lat="46.81381" lon="5.72596">
        <ele>555</ele>
        <time>2020-02-28T10:32:01Z</time>
      </trkpt>
      <trkpt lat="46.8138" lon="5.7259">
        <ele>555.4</ele>
        <time>2020-02-28T10:32:02Z</time>
      </trkpt>
      <trkpt lat="46.81379" lon="5.72583">
        <ele>555.4</ele>
        <time>2020-02-28T10:32:03Z</time>
      </trkpt>
      <trkpt lat="46.81378" lon="5.72577">
        <ele>555.6</ele>
        <time>2020-02-28T10:32:04Z</time>
      </trkpt>
      <trkpt lat="46.81377" lon="5.72571">
        <ele>555.6</ele>
        <time>2020-02-28T10:32:05Z</time>
      </trkpt>
      <trkpt lat="46.81376" lon="5.72565">
        <ele>555.8</ele>
        <time>2020-02-28T10:32:06Z</time>
      </trkpt>
      <trkpt lat="46.81375" lon="5.72559">
        <ele>555.8</ele>
        <time>2020-02-28T10:32:07Z</time>
      </trkpt>
      <trkpt lat="46.81374" lon="5.72553">
        <ele>555.8</ele>
        <time>2020-02-28T10:32:08Z</time>
      </trkpt>
      <trkpt lat="46.81374" lon="5.72548">
        <ele>556.2</ele>
        <time>2020-02-28T10:32:09Z</time>
      </trkpt>
      <trkpt lat="46.81373" lon="5.72542">
        <ele>556.2</ele>
        <time>2020-02-28T10:32:10Z</time>
      </trkpt>
      <trkpt lat="46.81373" lon="5.72535">
        <ele>556.4</ele>
        <time>2020-02-28T10:32:11Z</time>
      </trkpt>
      <trkpt lat="46.81373" lon="5.72529">
        <ele>556.4</ele>
        <time>2020-02-28T10:32:12Z</time>
      </trkpt>
      <trkpt lat="46.81372" lon="5.72523">
        <ele>556.8</ele>
        <time>2020-02-28T10:32:13Z</time>
      </trkpt>
      <trkpt lat="46.81372" lon="5.72517">
        <ele>557</ele>
        <time>2020-02-28T10:32:14Z</time>
      </trkpt>
      <trkpt lat="46.81371" lon="5.72511">
        <ele>557</ele>
        <time>2020-02-28T10:32:15Z</time>
      </trkpt>
      <trkpt lat="46.81371" lon="5.72504">
        <ele>557</ele>
        <time>2020-02-28T10:32:16Z</time>
      </trkpt>
      <trkpt lat="46.81371" lon="5.72498">
        <ele>557.2</ele>
        <time>2020-02-28T10:32:17Z</time>
      </trkpt>
      <trkpt lat="46.81371" lon="5.72492">
        <ele>557.2</ele>
        <time>2020-02-28T10:32:18Z</time>
      </trkpt>
      <trkpt lat="46.81371" lon="5.72485">
        <ele>557.4</ele>
        <time>2020-02-28T10:32:19Z</time>
      </trkpt>
      <trkpt lat="46.8137" lon="5.72478">
        <ele>557.4</ele>
        <time>2020-02-28T10:32:20Z</time>
      </trkpt>
      <trkpt lat="46.8137" lon="5.72472">
        <ele>557.4</ele>
        <time>2020-02-28T10:32:21Z</time>
      </trkpt>
      <trkpt lat="46.8137" lon="5.72466">
        <ele>557.4</ele>
        <time>2020-02-28T10:32:22Z</time>
      </trkpt>
      <trkpt lat="46.81369" lon="5.7246">
        <ele>557.6</ele>
        <time>2020-02-28T10:32:23Z</time>
      </trkpt>
      <trkpt lat="46.81369" lon="5.72454">
        <ele>557.6</ele>
        <time>2020-02-28T10:32:24Z</time>
      </trkpt>
      <trkpt lat="46.81369" lon="5.72448">
        <ele>557.6</ele>
        <time>2020-02-28T10:32:25Z</time>
      </trkpt>
      <trkpt lat="46.81369" lon="5.72443">
        <ele>558</ele>
        <time>2020-02-28T10:32:26Z</time>
      </trkpt>
      <trkpt lat="46.81368" lon="5.72437">
        <ele>558</ele>
        <time>2020-02-28T10:32:27Z</time>
      </trkpt>
      <trkpt lat="46.81368" lon="5.72431">
        <ele>558</ele>
        <time>2020-02-28T10:32:28Z</time>
      </trkpt>
      <trkpt lat="46.81368" lon="5.72425">
        <ele>558.2</ele>
        <time>2020-02-28T10:32:29Z</time>
      </trkpt>
      <trkpt lat="46.81369" lon="5.7242">
        <ele>558.2</ele>
        <time>2020-02-28T10:32:30Z</time>
      </trkpt>
      <trkpt lat="46.81369" lon="5.72414">
        <ele>558.4</ele>
        <time>2020-02-28T10:32:31Z</time>
      </trkpt>
      <trkpt lat="46.8137" lon="5.72409">
        <ele>558.4</ele>
        <time>2020-02-28T10:32:32Z</time>
      </trkpt>
      <trkpt lat="46.81372" lon="5.72404">
        <ele>558.4</ele>
        <time>2020-02-28T10:32:33Z</time>
      </trkpt>
      <trkpt lat="46.81373" lon="5.724">
        <ele>558.8</ele>
        <time>2020-02-28T10:32:34Z</time>
      </trkpt>
      <trkpt lat="46.81374" lon="5.72395">
        <ele>559</ele>
        <time>2020-02-28T10:32:35Z</time>
      </trkpt>
      <trkpt lat="46.81374" lon="5.7239">
        <ele>559</ele>
        <time>2020-02-28T10:32:36Z</time>
      </trkpt>
      <trkpt lat="46.81374" lon="5.72385">
        <ele>559</ele>
        <time>2020-02-28T10:32:37Z</time>
      </trkpt>
      <trkpt lat="46.81373" lon="5.7238">
        <ele>559</ele>
        <time>2020-02-28T10:32:38Z</time>
      </trkpt>
      <trkpt lat="46.81372" lon="5.72375">
        <ele>559.2</ele>
        <time>2020-02-28T10:32:39Z</time>
      </trkpt>
      <trkpt lat="46.8137" lon="5.7237">
        <ele>559.2</ele>
        <time>2020-02-28T10:32:40Z</time>
      </trkpt>
      <trkpt lat="46.81369" lon="5.72365">
        <ele>559.6</ele>
        <time>2020-02-28T10:32:41Z</time>
      </trkpt>
      <trkpt lat="46.81368" lon="5.7236">
        <ele>559.8</ele>
        <time>2020-02-28T10:32:42Z</time>
      </trkpt>
      <trkpt lat="46.81367" lon="5.72355">
        <ele>559.8</ele>
        <time>2020-02-28T10:32:43Z</time>
      </trkpt>
      <trkpt lat="46.81366" lon="5.7235">
        <ele>560</ele>
        <time>2020-02-28T10:32:44Z</time>
      </trkpt>
      <trkpt lat="46.81365" lon="5.72345">
        <ele>560</ele>
        <time>2020-02-28T10:32:45Z</time>
      </trkpt>
      <trkpt lat="46.81364" lon="5.72341">
        <ele>560.2</ele>
        <time>2020-02-28T10:32:46Z</time>
      </trkpt>
      <trkpt lat="46.81364" lon="5.72336">
        <ele>560.2</ele>
        <time>2020-02-28T10:32:47Z</time>
      </trkpt>
      <trkpt lat="46.81363" lon="5.72332">
        <ele>560.6</ele>
        <time>2020-02-28T10:32:48Z</time>
      </trkpt>
      <trkpt lat="46.81362" lon="5.72327">
        <ele>560.6</ele>
        <time>2020-02-28T10:32:49Z</time>
      </trkpt>
      <trkpt lat="46.81361" lon="5.72323">
        <ele>561</ele>
        <time>2020-02-28T10:32:50Z</time>
      </trkpt>
      <trkpt lat="46.8136" lon="5.72319">
        <ele>561</ele>
        <time>2020-02-28T10:32:51Z</time>
      </trkpt>
      <trkpt lat="46.81359" lon="5.72314">
        <ele>561.2</ele>
        <time>2020-02-28T10:32:52Z</time>
      </trkpt>
      <trkpt lat="46.81358" lon="5.7231">
        <ele>561.2</ele>
        <time>2020-02-28T10:32:53Z</time>
      </trkpt>
      <trkpt lat="46.81356" lon="5.72306">
        <ele>561.6</ele>
        <time>2020-02-28T10:32:54Z</time>
      </trkpt>
      <trkpt lat="46.81355" lon="5.72302">
        <ele>561.6</ele>
        <time>2020-02-28T10:32:55Z</time>
      </trkpt>
      <trkpt lat="46.81353" lon="5.72298">
        <ele>561.8</ele>
        <time>2020-02-28T10:32:56Z</time>
      </trkpt>
      <trkpt lat="46.81352" lon="5.72295">
        <ele>561.8</ele>
        <time>2020-02-28T10:32:57Z</time>
      </trkpt>
      <trkpt lat="46.81351" lon="5.72291">
        <ele>562.2</ele>
        <time>2020-02-28T10:32:58Z</time>
      </trkpt>
      <trkpt lat="46.8135" lon="5.72287">
        <ele>562.2</ele>
        <time>2020-02-28T10:32:59Z</time>
      </trkpt>
      <trkpt lat="46.81348" lon="5.72283">
        <ele>562.2</ele>
        <time>2020-02-28T10:33:00Z</time>
      </trkpt>
      <trkpt lat="46.81347" lon="5.7228">
        <ele>562.4</ele>
        <time>2020-02-28T10:33:01Z</time>
      </trkpt>
      <trkpt lat="46.81346" lon="5.72277">
        <ele>562.4</ele>
        <time>2020-02-28T10:33:02Z</time>
      </trkpt>
      <trkpt lat="46.81344" lon="5.72273">
        <ele>562.8</ele>
        <time>2020-02-28T10:33:03Z</time>
      </trkpt>
      <trkpt lat="46.81343" lon="5.72269">
        <ele>563.2</ele>
        <time>2020-02-28T10:33:04Z</time>
      </trkpt>
      <trkpt lat="46.81342" lon="5.72265">
        <ele>563.2</ele>
        <time>2020-02-28T10:33:05Z</time>
      </trkpt>
      <trkpt lat="46.81341" lon="5.72261">
        <ele>563.4</ele>
        <time>2020-02-28T10:33:06Z</time>
      </trkpt>
      <trkpt lat="46.8134" lon="5.72258">
        <ele>563.4</ele>
        <time>2020-02-28T10:33:07Z</time>
      </trkpt>
      <trkpt lat="46.81339" lon="5.72254">
        <ele>563.8</ele>
        <time>2020-02-28T10:33:08Z</time>
      </trkpt>
      <trkpt lat="46.81337" lon="5.72251">
        <ele>563.8</ele>
        <time>2020-02-28T10:33:09Z</time>
      </trkpt>
      <trkpt lat="46.81336" lon="5.72248">
        <ele>564.2</ele>
        <time>2020-02-28T10:33:10Z</time>
      </trkpt>
      <trkpt lat="46.81335" lon="5.72244">
        <ele>564.2</ele>
        <time>2020-02-28T10:33:11Z</time>
      </trkpt>
      <trkpt lat="46.81334" lon="5.72241">
        <ele>564.4</ele>
        <time>2020-02-28T10:33:12Z</time>
      </trkpt>
      <trkpt lat="46.81333" lon="5.72238">
        <ele>564.4</ele>
        <time>2020-02-28T10:33:13Z</time>
      </trkpt>
      <trkpt lat="46.81332" lon="5.72234">
        <ele>564.8</ele>
        <time>2020-02-28T10:33:14Z</time>
      </trkpt>
      <trkpt lat="46.8133" lon="5.72231">
        <ele>565</ele>
        <time>2020-02-28T10:33:15Z</time>
      </trkpt>
      <trkpt lat="46.81329" lon="5.72227">
        <ele>565.2</ele>
        <time>2020-02-28T10:33:16Z</time>
      </trkpt>
      <trkpt lat="46.81328" lon="5.72224">
        <ele>565.2</ele>
        <time>2020-02-28T10:33:17Z</time>
      </trkpt>
      <trkpt lat="46.81327" lon="5.7222">
        <ele>565.6</ele>
        <time>2020-02-28T10:33:18Z</time>
      </trkpt>
      <trkpt lat="46.81325" lon="5.72217">
        <ele>565.6</ele>
        <time>2020-02-28T10:33:19Z</time>
      </trkpt>
      <trkpt lat="46.81324" lon="5.72214">
        <ele>566</ele>
        <time>2020-02-28T10:33:20Z</time>
      </trkpt>
      <trkpt lat="46.81322" lon="5.7221">
        <ele>566</ele>
        <time>2020-02-28T10:33:21Z</time>
      </trkpt>
      <trkpt lat="46.81321" lon="5.72207">
        <ele>566.4</ele>
        <time>2020-02-28T10:33:22Z</time>
      </trkpt>
      <trkpt lat="46.81319" lon="5.72203">
        <ele>566.4</ele>
        <time>2020-02-28T10:33:23Z</time>
      </trkpt>
      <trkpt lat="46.81318" lon="5.722">
        <ele>566.8</ele>
        <time>2020-02-28T10:33:24Z</time>
      </trkpt>
      <trkpt lat="46.81316" lon="5.72196">
        <ele>566.8</ele>
        <time>2020-02-28T10:33:25Z</time>
      </trkpt>
      <trkpt lat="46.81314" lon="5.72193">
        <ele>567.2</ele>
        <time>2020-02-28T10:33:26Z</time>
      </trkpt>
      <trkpt lat="46.81313" lon="5.7219">
        <ele>567.2</ele>
        <time>2020-02-28T10:33:27Z</time>
      </trkpt>
      <trkpt lat="46.81312" lon="5.72186">
        <ele>567.4</ele>
        <time>2020-02-28T10:33:28Z</time>
      </trkpt>
      <trkpt lat="46.8131" lon="5.72183">
        <ele>567.6</ele>
        <time>2020-02-28T10:33:29Z</time>
      </trkpt>
      <trkpt lat="46.81308" lon="5.72179">
        <ele>567.6</ele>
        <time>2020-02-28T10:33:30Z</time>
      </trkpt>
      <trkpt lat="46.81306" lon="5.72176">
        <ele>568</ele>
        <time>2020-02-28T10:33:31Z</time>
      </trkpt>
      <trkpt lat="46.81305" lon="5.72173">
        <ele>568</ele>
        <time>2020-02-28T10:33:32Z</time>
      </trkpt>
      <trkpt lat="46.81303" lon="5.7217">
        <ele>568.2</ele>
        <time>2020-02-28T10:33:33Z</time>
      </trkpt>
      <trkpt lat="46.81302" lon="5.72167">
        <ele>568.2</ele>
        <time>2020-02-28T10:33:34Z</time>
      </trkpt>
      <trkpt lat="46.813" lon="5.72163">
        <ele>568.6</ele>
        <time>2020-02-28T10:33:35Z</time>
      </trkpt>
      <trkpt lat="46.81299" lon="5.7216">
        <ele>568.6</ele>
        <time>2020-02-28T10:33:36Z</time>
      </trkpt>
      <trkpt lat="46.81297" lon="5.72157">
        <ele>569</ele>
        <time>2020-02-28T10:33:37Z</time>
      </trkpt>
      <trkpt lat="46.81295" lon="5.72154">
        <ele>569</ele>
        <time>2020-02-28T10:33:38Z</time>
      </trkpt>
      <trkpt lat="46.81294" lon="5.72151">
        <ele>569</ele>
        <time>2020-02-28T10:33:39Z</time>
      </trkpt>
      <trkpt lat="46.81292" lon="5.72147">
        <ele>569.4</ele>
        <time>2020-02-28T10:33:40Z</time>
      </trkpt>
      <trkpt lat="46.81291" lon="5.72144">
        <ele>569.4</ele>
        <time>2020-02-28T10:33:41Z</time>
      </trkpt>
      <trkpt lat="46.81289" lon="5.7214">
        <ele>569.4</ele>
        <time>2020-02-28T10:33:42Z</time>
      </trkpt>
      <trkpt lat="46.81288" lon="5.72137">
        <ele>569.6</ele>
        <time>2020-02-28T10:33:43Z</time>
      </trkpt>
      <trkpt lat="46.81286" lon="5.72133">
        <ele>569.6</ele>
        <time>2020-02-28T10:33:44Z</time>
      </trkpt>
      <trkpt lat="46.81285" lon="5.72129">
        <ele>569.8</ele>
        <time>2020-02-28T10:33:45Z</time>
      </trkpt>
      <trkpt lat="46.81283" lon="5.72125">
        <ele>569.8</ele>
        <time>2020-02-28T10:33:46Z</time>
      </trkpt>
      <trkpt lat="46.81281" lon="5.72121">
        <ele>570.2</ele>
        <time>2020-02-28T10:33:47Z</time>
      </trkpt>
      <trkpt lat="46.8128" lon="5.72118">
        <ele>570.2</ele>
        <time>2020-02-28T10:33:48Z</time>
      </trkpt>
      <trkpt lat="46.81279" lon="5.72114">
        <ele>570.2</ele>
        <time>2020-02-28T10:33:49Z</time>
      </trkpt>
      <trkpt lat="46.81277" lon="5.7211">
        <ele>570.4</ele>
        <time>2020-02-28T10:33:50Z</time>
      </trkpt>
      <trkpt lat="46.81276" lon="5.72107">
        <ele>570.4</ele>
        <time>2020-02-28T10:33:51Z</time>
      </trkpt>
      <trkpt lat="46.81274" lon="5.72102">
        <ele>570.4</ele>
        <time>2020-02-28T10:33:52Z</time>
      </trkpt>
      <trkpt lat="46.81272" lon="5.72098">
        <ele>570.4</ele>
        <time>2020-02-28T10:33:53Z</time>
      </trkpt>
      <trkpt lat="46.8127" lon="5.72093">
        <ele>570.6</ele>
        <time>2020-02-28T10:33:54Z</time>
      </trkpt>
      <trkpt lat="46.81269" lon="5.72088">
        <ele>570.6</ele>
        <time>2020-02-28T10:33:55Z</time>
      </trkpt>
      <trkpt lat="46.81267" lon="5.72084">
        <ele>570.6</ele>
        <time>2020-02-28T10:33:56Z</time>
      </trkpt>
      <trkpt lat="46.81266" lon="5.72079">
        <ele>570.6</ele>
        <time>2020-02-28T10:33:57Z</time>
      </trkpt>
      <trkpt lat="46.81265" lon="5.72073">
        <ele>571</ele>
        <time>2020-02-28T10:33:58Z</time>
      </trkpt>
      <trkpt lat="46.81264" lon="5.72068">
        <ele>571</ele>
        <time>2020-02-28T10:33:59Z</time>
      </trkpt>
      <trkpt lat="46.81263" lon="5.72063">
        <ele>571.2</ele>
        <time>2020-02-28T10:34:00Z</time>
      </trkpt>
      <trkpt lat="46.81262" lon="5.72058">
        <ele>571.2</ele>
        <time>2020-02-28T10:34:01Z</time>
      </trkpt>
      <trkpt lat="46.81261" lon="5.72053">
        <ele>571.2</ele>
        <time>2020-02-28T10:34:02Z</time>
      </trkpt>
      <trkpt lat="46.8126" lon="5.72048">
        <ele>571.4</ele>
        <time>2020-02-28T10:34:03Z</time>
      </trkpt>
      <trkpt lat="46.81259" lon="5.72042">
        <ele>571.4</ele>
        <time>2020-02-28T10:34:04Z</time>
      </trkpt>
      <trkpt lat="46.81258" lon="5.72037">
        <ele>571.4</ele>
        <time>2020-02-28T10:34:05Z</time>
      </trkpt>
      <trkpt lat="46.81257" lon="5.72032">
        <ele>571.4</ele>
        <time>2020-02-28T10:34:06Z</time>
      </trkpt>
      <trkpt lat="46.81256" lon="5.72027">
        <ele>571.6</ele>
        <time>2020-02-28T10:34:07Z</time>
      </trkpt>
      <trkpt lat="46.81256" lon="5.72022">
        <ele>571.6</ele>
        <time>2020-02-28T10:34:08Z</time>
      </trkpt>
      <trkpt lat="46.81255" lon="5.72016">
        <ele>571.8</ele>
        <time>2020-02-28T10:34:09Z</time>
      </trkpt>
      <trkpt lat="46.81254" lon="5.72011">
        <ele>571.8</ele>
        <time>2020-02-28T10:34:10Z</time>
      </trkpt>
      <trkpt lat="46.81253" lon="5.72005">
        <ele>571.8</ele>
        <time>2020-02-28T10:34:11Z</time>
      </trkpt>
      <trkpt lat="46.81252" lon="5.71999">
        <ele>572.2</ele>
        <time>2020-02-28T10:34:12Z</time>
      </trkpt>
      <trkpt lat="46.81251" lon="5.71994">
        <ele>572.2</ele>
        <time>2020-02-28T10:34:13Z</time>
      </trkpt>
      <trkpt lat="46.8125" lon="5.71988">
        <ele>572.4</ele>
        <time>2020-02-28T10:34:14Z</time>
      </trkpt>
      <trkpt lat="46.81249" lon="5.71982">
        <ele>572.4</ele>
        <time>2020-02-28T10:34:15Z</time>
      </trkpt>
      <trkpt lat="46.81248" lon="5.71977">
        <ele>572.6</ele>
        <time>2020-02-28T10:34:16Z</time>
      </trkpt>
      <trkpt lat="46.81247" lon="5.71971">
        <ele>572.6</ele>
        <time>2020-02-28T10:34:17Z</time>
      </trkpt>
      <trkpt lat="46.81246" lon="5.71965">
        <ele>572.6</ele>
        <time>2020-02-28T10:34:18Z</time>
      </trkpt>
      <trkpt lat="46.81245" lon="5.71959">
        <ele>572.6</ele>
        <time>2020-02-28T10:34:19Z</time>
      </trkpt>
      <trkpt lat="46.81244" lon="5.71953">
        <ele>572.6</ele>
        <time>2020-02-28T10:34:20Z</time>
      </trkpt>
      <trkpt lat="46.81243" lon="5.71946">
        <ele>572.6</ele>
        <time>2020-02-28T10:34:21Z</time>
      </trkpt>
      <trkpt lat="46.81242" lon="5.71939">
        <ele>572.6</ele>
        <time>2020-02-28T10:34:22Z</time>
      </trkpt>
      <trkpt lat="46.81241" lon="5.71933">
        <ele>572.6</ele>
        <time>2020-02-28T10:34:23Z</time>
      </trkpt>
      <trkpt lat="46.8124" lon="5.71925">
        <ele>572.6</ele>
        <time>2020-02-28T10:34:24Z</time>
      </trkpt>
      <trkpt lat="46.81239" lon="5.71918">
        <ele>572.6</ele>
        <time>2020-02-28T10:34:25Z</time>
      </trkpt>
      <trkpt lat="46.81239" lon="5.71911">
        <ele>572.6</ele>
        <time>2020-02-28T10:34:26Z</time>
      </trkpt>
      <trkpt lat="46.81238" lon="5.71903">
        <ele>572.6</ele>
        <time>2020-02-28T10:34:27Z</time>
      </trkpt>
      <trkpt lat="46.81237" lon="5.71896">
        <ele>572.6</ele>
        <time>2020-02-28T10:34:28Z</time>
      </trkpt>
      <trkpt lat="46.81237" lon="5.71888">
        <ele>572.6</ele>
        <time>2020-02-28T10:34:29Z</time>
      </trkpt>
      <trkpt lat="46.81236" lon="5.7188">
        <ele>572.6</ele>
        <time>2020-02-28T10:34:30Z</time>
      </trkpt>
      <trkpt lat="46.81235" lon="5.71872">
        <ele>572.6</ele>
        <time>2020-02-28T10:34:31Z</time>
      </trkpt>
      <trkpt lat="46.81235" lon="5.71864">
        <ele>572.6</ele>
        <time>2020-02-28T10:34:32Z</time>
      </trkpt>
      <trkpt lat="46.81234" lon="5.71856">
        <ele>572.6</ele>
        <time>2020-02-28T10:34:33Z</time>
      </trkpt>
      <trkpt lat="46.81234" lon="5.71848">
        <ele>572.4</ele>
        <time>2020-02-28T10:34:34Z</time>
      </trkpt>
      <trkpt lat="46.81234" lon="5.71841">
        <ele>572.4</ele>
        <time>2020-02-28T10:34:35Z</time>
      </trkpt>
      <trkpt lat="46.81233" lon="5.71832">
        <ele>572.4</ele>
        <time>2020-02-28T10:34:36Z</time>
      </trkpt>
      <trkpt lat="46.81232" lon="5.71824">
        <ele>572.4</ele>
        <time>2020-02-28T10:34:37Z</time>
      </trkpt>
      <trkpt lat="46.81232" lon="5.71816">
        <ele>572.4</ele>
        <time>2020-02-28T10:34:38Z</time>
      </trkpt>
      <trkpt lat="46.81231" lon="5.71808">
        <ele>572.4</ele>
        <time>2020-02-28T10:34:39Z</time>
      </trkpt>
      <trkpt lat="46.81231" lon="5.718">
        <ele>572.2</ele>
        <time>2020-02-28T10:34:40Z</time>
      </trkpt>
      <trkpt lat="46.8123" lon="5.71791">
        <ele>572.2</ele>
        <time>2020-02-28T10:34:41Z</time>
      </trkpt>
      <trkpt lat="46.81229" lon="5.71783">
        <ele>572.2</ele>
        <time>2020-02-28T10:34:42Z</time>
      </trkpt>
      <trkpt lat="46.81228" lon="5.71774">
        <ele>572.2</ele>
        <time>2020-02-28T10:34:43Z</time>
      </trkpt>
      <trkpt lat="46.81227" lon="5.71766">
        <ele>572.2</ele>
        <time>2020-02-28T10:34:44Z</time>
      </trkpt>
      <trkpt lat="46.81225" lon="5.71757">
        <ele>572.2</ele>
        <time>2020-02-28T10:34:45Z</time>
      </trkpt>
      <trkpt lat="46.81224" lon="5.71749">
        <ele>572.2</ele>
        <time>2020-02-28T10:34:46Z</time>
      </trkpt>
      <trkpt lat="46.81222" lon="5.71741">
        <ele>571.8</ele>
        <time>2020-02-28T10:34:47Z</time>
      </trkpt>
      <trkpt lat="46.8122" lon="5.71733">
        <ele>571.8</ele>
        <time>2020-02-28T10:34:48Z</time>
      </trkpt>
      <trkpt lat="46.81218" lon="5.71725">
        <ele>571.8</ele>
        <time>2020-02-28T10:34:49Z</time>
      </trkpt>
      <trkpt lat="46.81216" lon="5.71717">
        <ele>571.6</ele>
        <time>2020-02-28T10:34:50Z</time>
      </trkpt>
      <trkpt lat="46.81213" lon="5.7171">
        <ele>571.6</ele>
        <time>2020-02-28T10:34:51Z</time>
      </trkpt>
      <trkpt lat="46.81211" lon="5.71703">
        <ele>571.6</ele>
        <time>2020-02-28T10:34:52Z</time>
      </trkpt>
      <trkpt lat="46.81206" lon="5.71692">
        <ele>571.6</ele>
        <time>2020-02-28T10:34:53Z</time>
      </trkpt>
      <trkpt lat="46.81205" lon="5.71689">
        <ele>571.6</ele>
        <time>2020-02-28T10:34:54Z</time>
      </trkpt>
      <trkpt lat="46.81202" lon="5.71682">
        <ele>571.6</ele>
        <time>2020-02-28T10:34:55Z</time>
      </trkpt>
      <trkpt lat="46.81199" lon="5.71676">
        <ele>571.6</ele>
        <time>2020-02-28T10:34:56Z</time>
      </trkpt>
      <trkpt lat="46.81196" lon="5.7167">
        <ele>571.6</ele>
        <time>2020-02-28T10:34:57Z</time>
      </trkpt>
      <trkpt lat="46.81193" lon="5.71664">
        <ele>571.6</ele>
        <time>2020-02-28T10:34:58Z</time>
      </trkpt>
      <trkpt lat="46.8119" lon="5.71658">
        <ele>571.8</ele>
        <time>2020-02-28T10:34:59Z</time>
      </trkpt>
      <trkpt lat="46.81187" lon="5.71653">
        <ele>571.8</ele>
        <time>2020-02-28T10:35:00Z</time>
      </trkpt>
      <trkpt lat="46.81184" lon="5.71648">
        <ele>572.2</ele>
        <time>2020-02-28T10:35:01Z</time>
      </trkpt>
      <trkpt lat="46.81182" lon="5.71643">
        <ele>572.2</ele>
        <time>2020-02-28T10:35:02Z</time>
      </trkpt>
      <trkpt lat="46.81179" lon="5.71638">
        <ele>572.4</ele>
        <time>2020-02-28T10:35:03Z</time>
      </trkpt>
      <trkpt lat="46.81177" lon="5.71633">
        <ele>572.4</ele>
        <time>2020-02-28T10:35:04Z</time>
      </trkpt>
      <trkpt lat="46.81174" lon="5.71628">
        <ele>572.4</ele>
        <time>2020-02-28T10:35:05Z</time>
      </trkpt>
      <trkpt lat="46.81172" lon="5.71623">
        <ele>572.6</ele>
        <time>2020-02-28T10:35:06Z</time>
      </trkpt>
      <trkpt lat="46.8117" lon="5.71619">
        <ele>572.6</ele>
        <time>2020-02-28T10:35:07Z</time>
      </trkpt>
      <trkpt lat="46.81169" lon="5.71613">
        <ele>572.8</ele>
        <time>2020-02-28T10:35:08Z</time>
      </trkpt>
      <trkpt lat="46.81167" lon="5.71607">
        <ele>572.8</ele>
        <time>2020-02-28T10:35:09Z</time>
      </trkpt>
      <trkpt lat="46.81166" lon="5.716">
        <ele>572.8</ele>
        <time>2020-02-28T10:35:10Z</time>
      </trkpt>
      <trkpt lat="46.81165" lon="5.71593">
        <ele>572.8</ele>
        <time>2020-02-28T10:35:11Z</time>
      </trkpt>
      <trkpt lat="46.81163" lon="5.71585">
        <ele>572.8</ele>
        <time>2020-02-28T10:35:12Z</time>
      </trkpt>
      <trkpt lat="46.81162" lon="5.71577">
        <ele>572.6</ele>
        <time>2020-02-28T10:35:13Z</time>
      </trkpt>
      <trkpt lat="46.81162" lon="5.71569">
        <ele>572.4</ele>
        <time>2020-02-28T10:35:14Z</time>
      </trkpt>
      <trkpt lat="46.81161" lon="5.71559">
        <ele>572.4</ele>
        <time>2020-02-28T10:35:15Z</time>
      </trkpt>
      <trkpt lat="46.8116" lon="5.7155">
        <ele>572</ele>
        <time>2020-02-28T10:35:16Z</time>
      </trkpt>
      <trkpt lat="46.81159" lon="5.7154">
        <ele>571.6</ele>
        <time>2020-02-28T10:35:17Z</time>
      </trkpt>
      <trkpt lat="46.81158" lon="5.7153">
        <ele>571.2</ele>
        <time>2020-02-28T10:35:18Z</time>
      </trkpt>
      <trkpt lat="46.81157" lon="5.71519">
        <ele>570.8</ele>
        <time>2020-02-28T10:35:19Z</time>
      </trkpt>
      <trkpt lat="46.81156" lon="5.71508">
        <ele>570.4</ele>
        <time>2020-02-28T10:35:20Z</time>
      </trkpt>
      <trkpt lat="46.81156" lon="5.71497">
        <ele>569.8</ele>
        <time>2020-02-28T10:35:21Z</time>
      </trkpt>
      <trkpt lat="46.81156" lon="5.71486">
        <ele>569.2</ele>
        <time>2020-02-28T10:35:22Z</time>
      </trkpt>
      <trkpt lat="46.81157" lon="5.71474">
        <ele>569</ele>
        <time>2020-02-28T10:35:23Z</time>
      </trkpt>
      <trkpt lat="46.81159" lon="5.71462">
        <ele>568.4</ele>
        <time>2020-02-28T10:35:24Z</time>
      </trkpt>
      <trkpt lat="46.8116" lon="5.71449">
        <ele>568</ele>
        <time>2020-02-28T10:35:25Z</time>
      </trkpt>
      <trkpt lat="46.81162" lon="5.71436">
        <ele>567.6</ele>
        <time>2020-02-28T10:35:26Z</time>
      </trkpt>
      <trkpt lat="46.81165" lon="5.71421">
        <ele>567</ele>
        <time>2020-02-28T10:35:27Z</time>
      </trkpt>
      <trkpt lat="46.81167" lon="5.71408">
        <ele>566.4</ele>
        <time>2020-02-28T10:35:28Z</time>
      </trkpt>
      <trkpt lat="46.81169" lon="5.71393">
        <ele>565.8</ele>
        <time>2020-02-28T10:35:29Z</time>
      </trkpt>
      <trkpt lat="46.81171" lon="5.7138">
        <ele>565.2</ele>
        <time>2020-02-28T10:35:30Z</time>
      </trkpt>
      <trkpt lat="46.81173" lon="5.71365">
        <ele>564.6</ele>
        <time>2020-02-28T10:35:31Z</time>
      </trkpt>
      <trkpt lat="46.81175" lon="5.71351">
        <ele>564</ele>
        <time>2020-02-28T10:35:32Z</time>
      </trkpt>
      <trkpt lat="46.81177" lon="5.71337">
        <ele>563.4</ele>
        <time>2020-02-28T10:35:33Z</time>
      </trkpt>
      <trkpt lat="46.81179" lon="5.71322">
        <ele>562.8</ele>
        <time>2020-02-28T10:35:34Z</time>
      </trkpt>
      <trkpt lat="46.8118" lon="5.71307">
        <ele>562.2</ele>
        <time>2020-02-28T10:35:35Z</time>
      </trkpt>
      <trkpt lat="46.8118" lon="5.71292">
        <ele>561.6</ele>
        <time>2020-02-28T10:35:36Z</time>
      </trkpt>
      <trkpt lat="46.8118" lon="5.71277">
        <ele>561</ele>
        <time>2020-02-28T10:35:37Z</time>
      </trkpt>
      <trkpt lat="46.81179" lon="5.71263">
        <ele>560.8</ele>
        <time>2020-02-28T10:35:38Z</time>
      </trkpt>
      <trkpt lat="46.81179" lon="5.71249">
        <ele>560.6</ele>
        <time>2020-02-28T10:35:39Z</time>
      </trkpt>
      <trkpt lat="46.81179" lon="5.71237">
        <ele>560.6</ele>
        <time>2020-02-28T10:35:40Z</time>
      </trkpt>
      <trkpt lat="46.81178" lon="5.71225">
        <ele>560.6</ele>
        <time>2020-02-28T10:35:41Z</time>
      </trkpt>
      <trkpt lat="46.81177" lon="5.71213">
        <ele>560.6</ele>
        <time>2020-02-28T10:35:42Z</time>
      </trkpt>
      <trkpt lat="46.81177" lon="5.71201">
        <ele>560.8</ele>
        <time>2020-02-28T10:35:43Z</time>
      </trkpt>
      <trkpt lat="46.81176" lon="5.7119">
        <ele>560.8</ele>
        <time>2020-02-28T10:35:44Z</time>
      </trkpt>
      <trkpt lat="46.81175" lon="5.7118">
        <ele>561.2</ele>
        <time>2020-02-28T10:35:45Z</time>
      </trkpt>
      <trkpt lat="46.81175" lon="5.7117">
        <ele>561.4</ele>
        <time>2020-02-28T10:35:46Z</time>
      </trkpt>
      <trkpt lat="46.81173" lon="5.71156">
        <ele>561.6</ele>
        <time>2020-02-28T10:35:47Z</time>
      </trkpt>
      <trkpt lat="46.81172" lon="5.71152">
        <ele>562</ele>
        <time>2020-02-28T10:35:48Z</time>
      </trkpt>
      <trkpt lat="46.81171" lon="5.71143">
        <ele>562.2</ele>
        <time>2020-02-28T10:35:49Z</time>
      </trkpt>
      <trkpt lat="46.81169" lon="5.71135">
        <ele>562.2</ele>
        <time>2020-02-28T10:35:50Z</time>
      </trkpt>
      <trkpt lat="46.81167" lon="5.71128">
        <ele>562.6</ele>
        <time>2020-02-28T10:35:51Z</time>
      </trkpt>
      <trkpt lat="46.81166" lon="5.71121">
        <ele>563</ele>
        <time>2020-02-28T10:35:52Z</time>
      </trkpt>
      <trkpt lat="46.81164" lon="5.71115">
        <ele>563.2</ele>
        <time>2020-02-28T10:35:53Z</time>
      </trkpt>
      <trkpt lat="46.81162" lon="5.71108">
        <ele>563.4</ele>
        <time>2020-02-28T10:35:54Z</time>
      </trkpt>
      <trkpt lat="46.8116" lon="5.71102">
        <ele>563.4</ele>
        <time>2020-02-28T10:35:55Z</time>
      </trkpt>
      <trkpt lat="46.81158" lon="5.71096">
        <ele>563.8</ele>
        <time>2020-02-28T10:35:56Z</time>
      </trkpt>
      <trkpt lat="46.81156" lon="5.7109">
        <ele>563.8</ele>
        <time>2020-02-28T10:35:57Z</time>
      </trkpt>
      <trkpt lat="46.81154" lon="5.71084">
        <ele>564.2</ele>
        <time>2020-02-28T10:35:58Z</time>
      </trkpt>
      <trkpt lat="46.81152" lon="5.71078">
        <ele>564.6</ele>
        <time>2020-02-28T10:35:59Z</time>
      </trkpt>
      <trkpt lat="46.8115" lon="5.71072">
        <ele>564.6</ele>
        <time>2020-02-28T10:36:00Z</time>
      </trkpt>
      <trkpt lat="46.81148" lon="5.71067">
        <ele>565</ele>
        <time>2020-02-28T10:36:01Z</time>
      </trkpt>
      <trkpt lat="46.81146" lon="5.71061">
        <ele>565</ele>
        <time>2020-02-28T10:36:02Z</time>
      </trkpt>
      <trkpt lat="46.81143" lon="5.71053">
        <ele>565.4</ele>
        <time>2020-02-28T10:36:03Z</time>
      </trkpt>
      <trkpt lat="46.81142" lon="5.7105">
        <ele>565.6</ele>
        <time>2020-02-28T10:36:04Z</time>
      </trkpt>
      <trkpt lat="46.8114" lon="5.71044">
        <ele>566</ele>
        <time>2020-02-28T10:36:05Z</time>
      </trkpt>
      <trkpt lat="46.81138" lon="5.71039">
        <ele>566.2</ele>
        <time>2020-02-28T10:36:06Z</time>
      </trkpt>
      <trkpt lat="46.81136" lon="5.71034">
        <ele>566.4</ele>
        <time>2020-02-28T10:36:07Z</time>
      </trkpt>
      <trkpt lat="46.81134" lon="5.71028">
        <ele>566.6</ele>
        <time>2020-02-28T10:36:08Z</time>
      </trkpt>
      <trkpt lat="46.81132" lon="5.71023">
        <ele>566.6</ele>
        <time>2020-02-28T10:36:09Z</time>
      </trkpt>
      <trkpt lat="46.81131" lon="5.71017">
        <ele>567</ele>
        <time>2020-02-28T10:36:10Z</time>
      </trkpt>
      <trkpt lat="46.81129" lon="5.71012">
        <ele>567.2</ele>
        <time>2020-02-28T10:36:11Z</time>
      </trkpt>
      <trkpt lat="46.81127" lon="5.71007">
        <ele>567.2</ele>
        <time>2020-02-28T10:36:12Z</time>
      </trkpt>
      <trkpt lat="46.81126" lon="5.71002">
        <ele>567.6</ele>
        <time>2020-02-28T10:36:13Z</time>
      </trkpt>
      <trkpt lat="46.81124" lon="5.70997">
        <ele>568</ele>
        <time>2020-02-28T10:36:14Z</time>
      </trkpt>
      <trkpt lat="46.81122" lon="5.70992">
        <ele>568.2</ele>
        <time>2020-02-28T10:36:15Z</time>
      </trkpt>
      <trkpt lat="46.8112" lon="5.70987">
        <ele>568.2</ele>
        <time>2020-02-28T10:36:16Z</time>
      </trkpt>
      <trkpt lat="46.81119" lon="5.70982">
        <ele>568.6</ele>
        <time>2020-02-28T10:36:17Z</time>
      </trkpt>
      <trkpt lat="46.81117" lon="5.70977">
        <ele>568.6</ele>
        <time>2020-02-28T10:36:18Z</time>
      </trkpt>
      <trkpt lat="46.81116" lon="5.70972">
        <ele>569</ele>
        <time>2020-02-28T10:36:19Z</time>
      </trkpt>
      <trkpt lat="46.81114" lon="5.70968">
        <ele>569.4</ele>
        <time>2020-02-28T10:36:20Z</time>
      </trkpt>
      <trkpt lat="46.81112" lon="5.70963">
        <ele>569.6</ele>
        <time>2020-02-28T10:36:21Z</time>
      </trkpt>
      <trkpt lat="46.81111" lon="5.70958">
        <ele>569.8</ele>
        <time>2020-02-28T10:36:22Z</time>
      </trkpt>
      <trkpt lat="46.81109" lon="5.70954">
        <ele>570</ele>
        <time>2020-02-28T10:36:23Z</time>
      </trkpt>
      <trkpt lat="46.81108" lon="5.70949">
        <ele>570.2</ele>
        <time>2020-02-28T10:36:24Z</time>
      </trkpt>
      <trkpt lat="46.81106" lon="5.70944">
        <ele>570.4</ele>
        <time>2020-02-28T10:36:25Z</time>
      </trkpt>
      <trkpt lat="46.81105" lon="5.7094">
        <ele>570.4</ele>
        <time>2020-02-28T10:36:26Z</time>
      </trkpt>
      <trkpt lat="46.81103" lon="5.70935">
        <ele>570.8</ele>
        <time>2020-02-28T10:36:27Z</time>
      </trkpt>
      <trkpt lat="46.81102" lon="5.70931">
        <ele>571</ele>
        <time>2020-02-28T10:36:28Z</time>
      </trkpt>
      <trkpt lat="46.811" lon="5.70926">
        <ele>571.2</ele>
        <time>2020-02-28T10:36:29Z</time>
      </trkpt>
      <trkpt lat="46.81099" lon="5.70922">
        <ele>571.4</ele>
        <time>2020-02-28T10:36:30Z</time>
      </trkpt>
      <trkpt lat="46.81098" lon="5.70918">
        <ele>571.4</ele>
        <time>2020-02-28T10:36:31Z</time>
      </trkpt>
      <trkpt lat="46.81096" lon="5.70913">
        <ele>571.8</ele>
        <time>2020-02-28T10:36:32Z</time>
      </trkpt>
      <trkpt lat="46.81095" lon="5.70909">
        <ele>572</ele>
        <time>2020-02-28T10:36:33Z</time>
      </trkpt>
      <trkpt lat="46.81094" lon="5.70905">
        <ele>572</ele>
        <time>2020-02-28T10:36:34Z</time>
      </trkpt>
      <trkpt lat="46.81092" lon="5.70901">
        <ele>572.4</ele>
        <time>2020-02-28T10:36:35Z</time>
      </trkpt>
      <trkpt lat="46.81091" lon="5.70896">
        <ele>572.4</ele>
        <time>2020-02-28T10:36:36Z</time>
      </trkpt>
      <trkpt lat="46.8109" lon="5.70892">
        <ele>572.8</ele>
        <time>2020-02-28T10:36:37Z</time>
      </trkpt>
      <trkpt lat="46.81089" lon="5.70888">
        <ele>572.8</ele>
        <time>2020-02-28T10:36:38Z</time>
      </trkpt>
      <trkpt lat="46.81088" lon="5.70884">
        <ele>573</ele>
        <time>2020-02-28T10:36:39Z</time>
      </trkpt>
      <trkpt lat="46.81086" lon="5.7088">
        <ele>573</ele>
        <time>2020-02-28T10:36:40Z</time>
      </trkpt>
      <trkpt lat="46.81085" lon="5.70876">
        <ele>573.6</ele>
        <time>2020-02-28T10:36:41Z</time>
      </trkpt>
      <trkpt lat="46.81084" lon="5.70873">
        <ele>573.6</ele>
        <time>2020-02-28T10:36:42Z</time>
      </trkpt>
      <trkpt lat="46.81083" lon="5.70869">
        <ele>573.8</ele>
        <time>2020-02-28T10:36:43Z</time>
      </trkpt>
      <trkpt lat="46.81081" lon="5.70865">
        <ele>573.8</ele>
        <time>2020-02-28T10:36:44Z</time>
      </trkpt>
      <trkpt lat="46.8108" lon="5.70861">
        <ele>574.2</ele>
        <time>2020-02-28T10:36:45Z</time>
      </trkpt>
      <trkpt lat="46.81079" lon="5.70858">
        <ele>574.2</ele>
        <time>2020-02-28T10:36:46Z</time>
      </trkpt>
      <trkpt lat="46.81078" lon="5.70854">
        <ele>574.6</ele>
        <time>2020-02-28T10:36:47Z</time>
      </trkpt>
      <trkpt lat="46.81076" lon="5.70851">
        <ele>574.8</ele>
        <time>2020-02-28T10:36:48Z</time>
      </trkpt>
      <trkpt lat="46.81075" lon="5.70847">
        <ele>574.8</ele>
        <time>2020-02-28T10:36:49Z</time>
      </trkpt>
      <trkpt lat="46.81073" lon="5.70844">
        <ele>575.2</ele>
        <time>2020-02-28T10:36:50Z</time>
      </trkpt>
      <trkpt lat="46.81072" lon="5.7084">
        <ele>575.2</ele>
        <time>2020-02-28T10:36:51Z</time>
      </trkpt>
      <trkpt lat="46.81072" lon="5.70836">
        <ele>575.6</ele>
        <time>2020-02-28T10:36:52Z</time>
      </trkpt>
      <trkpt lat="46.81071" lon="5.70832">
        <ele>575.6</ele>
        <time>2020-02-28T10:36:53Z</time>
      </trkpt>
      <trkpt lat="46.8107" lon="5.70829">
        <ele>576</ele>
        <time>2020-02-28T10:36:54Z</time>
      </trkpt>
      <trkpt lat="46.81068" lon="5.70825">
        <ele>576</ele>
        <time>2020-02-28T10:36:55Z</time>
      </trkpt>
      <trkpt lat="46.81067" lon="5.70821">
        <ele>576.4</ele>
        <time>2020-02-28T10:36:56Z</time>
      </trkpt>
      <trkpt lat="46.81066" lon="5.70817">
        <ele>576.4</ele>
        <time>2020-02-28T10:36:57Z</time>
      </trkpt>
      <trkpt lat="46.81065" lon="5.70813">
        <ele>576.6</ele>
        <time>2020-02-28T10:36:58Z</time>
      </trkpt>
      <trkpt lat="46.81063" lon="5.7081">
        <ele>576.8</ele>
        <time>2020-02-28T10:36:59Z</time>
      </trkpt>
      <trkpt lat="46.81062" lon="5.70806">
        <ele>577</ele>
        <time>2020-02-28T10:37:00Z</time>
      </trkpt>
      <trkpt lat="46.8106" lon="5.70803">
        <ele>577</ele>
        <time>2020-02-28T10:37:01Z</time>
      </trkpt>
      <trkpt lat="46.81059" lon="5.70799">
        <ele>577.4</ele>
        <time>2020-02-28T10:37:02Z</time>
      </trkpt>
      <trkpt lat="46.81058" lon="5.70796">
        <ele>577.4</ele>
        <time>2020-02-28T10:37:03Z</time>
      </trkpt>
      <trkpt lat="46.81057" lon="5.70792">
        <ele>577.6</ele>
        <time>2020-02-28T10:37:04Z</time>
      </trkpt>
      <trkpt lat="46.81056" lon="5.70788">
        <ele>577.6</ele>
        <time>2020-02-28T10:37:05Z</time>
      </trkpt>
      <trkpt lat="46.81054" lon="5.70785">
        <ele>577.6</ele>
        <time>2020-02-28T10:37:06Z</time>
      </trkpt>
      <trkpt lat="46.81053" lon="5.70781">
        <ele>577.8</ele>
        <time>2020-02-28T10:37:07Z</time>
      </trkpt>
      <trkpt lat="46.81052" lon="5.70778">
        <ele>577.8</ele>
        <time>2020-02-28T10:37:08Z</time>
      </trkpt>
      <trkpt lat="46.81052" lon="5.70774">
        <ele>578</ele>
        <time>2020-02-28T10:37:09Z</time>
      </trkpt>
      <trkpt lat="46.81051" lon="5.7077">
        <ele>578</ele>
        <time>2020-02-28T10:37:10Z</time>
      </trkpt>
      <trkpt lat="46.8105" lon="5.70767">
        <ele>578</ele>
        <time>2020-02-28T10:37:11Z</time>
      </trkpt>
      <trkpt lat="46.81049" lon="5.70763">
        <ele>578</ele>
        <time>2020-02-28T10:37:12Z</time>
      </trkpt>
      <trkpt lat="46.81048" lon="5.70759">
        <ele>578</ele>
        <time>2020-02-28T10:37:13Z</time>
      </trkpt>
      <trkpt lat="46.81047" lon="5.70756">
        <ele>578</ele>
        <time>2020-02-28T10:37:14Z</time>
      </trkpt>
      <trkpt lat="46.81045" lon="5.70752">
        <ele>578</ele>
        <time>2020-02-28T10:37:15Z</time>
      </trkpt>
      <trkpt lat="46.81043" lon="5.70748">
        <ele>578</ele>
        <time>2020-02-28T10:37:16Z</time>
      </trkpt>
      <trkpt lat="46.81041" lon="5.70744">
        <ele>578</ele>
        <time>2020-02-28T10:37:17Z</time>
      </trkpt>
      <trkpt lat="46.8104" lon="5.70739">
        <ele>578</ele>
        <time>2020-02-28T10:37:18Z</time>
      </trkpt>
      <trkpt lat="46.81038" lon="5.70734">
        <ele>578</ele>
        <time>2020-02-28T10:37:19Z</time>
      </trkpt>
      <trkpt lat="46.81035" lon="5.70728">
        <ele>577.6</ele>
        <time>2020-02-28T10:37:20Z</time>
      </trkpt>
      <trkpt lat="46.81033" lon="5.70722">
        <ele>577.6</ele>
        <time>2020-02-28T10:37:21Z</time>
      </trkpt>
      <trkpt lat="46.81031" lon="5.70716">
        <ele>577.6</ele>
        <time>2020-02-28T10:37:22Z</time>
      </trkpt>
      <trkpt lat="46.81029" lon="5.70709">
        <ele>577.4</ele>
        <time>2020-02-28T10:37:23Z</time>
      </trkpt>
      <trkpt lat="46.81027" lon="5.70702">
        <ele>577.2</ele>
        <time>2020-02-28T10:37:24Z</time>
      </trkpt>
      <trkpt lat="46.81025" lon="5.70694">
        <ele>576.8</ele>
        <time>2020-02-28T10:37:25Z</time>
      </trkpt>
      <trkpt lat="46.81022" lon="5.70686">
        <ele>576.6</ele>
        <time>2020-02-28T10:37:26Z</time>
      </trkpt>
      <trkpt lat="46.8102" lon="5.70676">
        <ele>576.2</ele>
        <time>2020-02-28T10:37:27Z</time>
      </trkpt>
      <trkpt lat="46.81018" lon="5.70667">
        <ele>575.8</ele>
        <time>2020-02-28T10:37:28Z</time>
      </trkpt>
      <trkpt lat="46.81016" lon="5.70656">
        <ele>575.4</ele>
        <time>2020-02-28T10:37:29Z</time>
      </trkpt>
      <trkpt lat="46.81014" lon="5.70646">
        <ele>575</ele>
        <time>2020-02-28T10:37:30Z</time>
      </trkpt>
      <trkpt lat="46.81012" lon="5.70635">
        <ele>574.4</ele>
        <time>2020-02-28T10:37:31Z</time>
      </trkpt>
      <trkpt lat="46.81011" lon="5.70623">
        <ele>573.8</ele>
        <time>2020-02-28T10:37:32Z</time>
      </trkpt>
      <trkpt lat="46.81009" lon="5.70611">
        <ele>573.4</ele>
        <time>2020-02-28T10:37:33Z</time>
      </trkpt>
      <trkpt lat="46.81008" lon="5.70598">
        <ele>572.6</ele>
        <time>2020-02-28T10:37:34Z</time>
      </trkpt>
      <trkpt lat="46.81006" lon="5.70578">
        <ele>572.2</ele>
        <time>2020-02-28T10:37:35Z</time>
      </trkpt>
      <trkpt lat="46.81005" lon="5.70571">
        <ele>571.6</ele>
        <time>2020-02-28T10:37:36Z</time>
      </trkpt>
      <trkpt lat="46.81003" lon="5.70556">
        <ele>571</ele>
        <time>2020-02-28T10:37:37Z</time>
      </trkpt>
      <trkpt lat="46.81001" lon="5.70542">
        <ele>570.4</ele>
        <time>2020-02-28T10:37:38Z</time>
      </trkpt>
      <trkpt lat="46.80999" lon="5.70528">
        <ele>569.8</ele>
        <time>2020-02-28T10:37:39Z</time>
      </trkpt>
      <trkpt lat="46.80997" lon="5.70514">
        <ele>569.2</ele>
        <time>2020-02-28T10:37:40Z</time>
      </trkpt>
      <trkpt lat="46.80995" lon="5.70501">
        <ele>568.6</ele>
        <time>2020-02-28T10:37:41Z</time>
      </trkpt>
      <trkpt lat="46.80993" lon="5.70488">
        <ele>568.2</ele>
        <time>2020-02-28T10:37:42Z</time>
      </trkpt>
      <trkpt lat="46.80991" lon="5.70474">
        <ele>568</ele>
        <time>2020-02-28T10:37:43Z</time>
      </trkpt>
      <trkpt lat="46.80988" lon="5.70462">
        <ele>567.6</ele>
        <time>2020-02-28T10:37:44Z</time>
      </trkpt>
      <trkpt lat="46.80983" lon="5.70444">
        <ele>567.4</ele>
        <time>2020-02-28T10:37:45Z</time>
      </trkpt>
      <trkpt lat="46.80981" lon="5.70438">
        <ele>567.2</ele>
        <time>2020-02-28T10:37:46Z</time>
      </trkpt>
      <trkpt lat="46.80977" lon="5.70427">
        <ele>567.2</ele>
        <time>2020-02-28T10:37:47Z</time>
      </trkpt>
      <trkpt lat="46.80972" lon="5.70417">
        <ele>566.6</ele>
        <time>2020-02-28T10:37:48Z</time>
      </trkpt>
      <trkpt lat="46.80967" lon="5.70407">
        <ele>566.4</ele>
        <time>2020-02-28T10:37:49Z</time>
      </trkpt>
      <trkpt lat="46.80961" lon="5.70397">
        <ele>566.4</ele>
        <time>2020-02-28T10:37:50Z</time>
      </trkpt>
      <trkpt lat="46.80952" lon="5.70383">
        <ele>566.4</ele>
        <time>2020-02-28T10:37:51Z</time>
      </trkpt>
      <trkpt lat="46.80949" lon="5.70379">
        <ele>566.2</ele>
        <time>2020-02-28T10:37:52Z</time>
      </trkpt>
      <trkpt lat="46.80944" lon="5.70371">
        <ele>566.2</ele>
        <time>2020-02-28T10:37:53Z</time>
      </trkpt>
      <trkpt lat="46.80938" lon="5.70363">
        <ele>566.2</ele>
        <time>2020-02-28T10:37:54Z</time>
      </trkpt>
      <trkpt lat="46.80932" lon="5.70355">
        <ele>566.2</ele>
        <time>2020-02-28T10:37:55Z</time>
      </trkpt>
      <trkpt lat="46.80926" lon="5.70347">
        <ele>566.4</ele>
        <time>2020-02-28T10:37:56Z</time>
      </trkpt>
      <trkpt lat="46.80921" lon="5.70339">
        <ele>566.4</ele>
        <time>2020-02-28T10:37:57Z</time>
      </trkpt>
      <trkpt lat="46.80915" lon="5.70332">
        <ele>566.4</ele>
        <time>2020-02-28T10:37:58Z</time>
      </trkpt>
      <trkpt lat="46.8091" lon="5.70324">
        <ele>566.8</ele>
        <time>2020-02-28T10:37:59Z</time>
      </trkpt>
      <trkpt lat="46.80904" lon="5.70317">
        <ele>566.8</ele>
        <time>2020-02-28T10:38:00Z</time>
      </trkpt>
      <trkpt lat="46.80898" lon="5.70309">
        <ele>566.8</ele>
        <time>2020-02-28T10:38:01Z</time>
      </trkpt>
      <trkpt lat="46.80893" lon="5.70302">
        <ele>566.8</ele>
        <time>2020-02-28T10:38:02Z</time>
      </trkpt>
      <trkpt lat="46.80887" lon="5.70294">
        <ele>566.8</ele>
        <time>2020-02-28T10:38:03Z</time>
      </trkpt>
      <trkpt lat="46.80881" lon="5.70287">
        <ele>566.8</ele>
        <time>2020-02-28T10:38:04Z</time>
      </trkpt>
      <trkpt lat="46.80875" lon="5.7028">
        <ele>566.8</ele>
        <time>2020-02-28T10:38:05Z</time>
      </trkpt>
      <trkpt lat="46.8087" lon="5.70273">
        <ele>566.8</ele>
        <time>2020-02-28T10:38:06Z</time>
      </trkpt>
      <trkpt lat="46.80864" lon="5.70266">
        <ele>566.8</ele>
        <time>2020-02-28T10:38:07Z</time>
      </trkpt>
      <trkpt lat="46.80858" lon="5.70259">
        <ele>566.4</ele>
        <time>2020-02-28T10:38:08Z</time>
      </trkpt>
      <trkpt lat="46.80852" lon="5.70252">
        <ele>566.4</ele>
        <time>2020-02-28T10:38:09Z</time>
      </trkpt>
      <trkpt lat="46.80846" lon="5.70245">
        <ele>566.4</ele>
        <time>2020-02-28T10:38:10Z</time>
      </trkpt>
      <trkpt lat="46.8084" lon="5.70239">
        <ele>566.4</ele>
        <time>2020-02-28T10:38:11Z</time>
      </trkpt>
      <trkpt lat="46.80834" lon="5.70235">
        <ele>566.8</ele>
        <time>2020-02-28T10:38:12Z</time>
      </trkpt>
      <trkpt lat="46.80827" lon="5.7023">
        <ele>566.8</ele>
        <time>2020-02-28T10:38:13Z</time>
      </trkpt>
      <trkpt lat="46.80821" lon="5.70226">
        <ele>567.2</ele>
        <time>2020-02-28T10:38:14Z</time>
      </trkpt>
      <trkpt lat="46.80815" lon="5.70223">
        <ele>567.2</ele>
        <time>2020-02-28T10:38:15Z</time>
      </trkpt>
      <trkpt lat="46.80808" lon="5.70221">
        <ele>567.4</ele>
        <time>2020-02-28T10:38:16Z</time>
      </trkpt>
      <trkpt lat="46.80801" lon="5.70219">
        <ele>567.4</ele>
        <time>2020-02-28T10:38:17Z</time>
      </trkpt>
      <trkpt lat="46.80794" lon="5.70218">
        <ele>567.4</ele>
        <time>2020-02-28T10:38:18Z</time>
      </trkpt>
      <trkpt lat="46.80787" lon="5.70216">
        <ele>567.4</ele>
        <time>2020-02-28T10:38:19Z</time>
      </trkpt>
      <trkpt lat="46.80779" lon="5.70215">
        <ele>567.2</ele>
        <time>2020-02-28T10:38:20Z</time>
      </trkpt>
      <trkpt lat="46.80772" lon="5.70215">
        <ele>567.2</ele>
        <time>2020-02-28T10:38:21Z</time>
      </trkpt>
      <trkpt lat="46.8076" lon="5.70214">
        <ele>566.8</ele>
        <time>2020-02-28T10:38:22Z</time>
      </trkpt>
      <trkpt lat="46.80756" lon="5.70214">
        <ele>566.6</ele>
        <time>2020-02-28T10:38:23Z</time>
      </trkpt>
      <trkpt lat="46.80748" lon="5.70213">
        <ele>566.2</ele>
        <time>2020-02-28T10:38:24Z</time>
      </trkpt>
      <trkpt lat="46.8074" lon="5.70213">
        <ele>566</ele>
        <time>2020-02-28T10:38:25Z</time>
      </trkpt>
      <trkpt lat="46.80732" lon="5.70211">
        <ele>565.8</ele>
        <time>2020-02-28T10:38:26Z</time>
      </trkpt>
      <trkpt lat="46.80725" lon="5.70209">
        <ele>565.4</ele>
        <time>2020-02-28T10:38:27Z</time>
      </trkpt>
      <trkpt lat="46.80717" lon="5.70206">
        <ele>565.2</ele>
        <time>2020-02-28T10:38:28Z</time>
      </trkpt>
      <trkpt lat="46.8071" lon="5.70203">
        <ele>564.8</ele>
        <time>2020-02-28T10:38:29Z</time>
      </trkpt>
      <trkpt lat="46.80702" lon="5.70199">
        <ele>564.4</ele>
        <time>2020-02-28T10:38:30Z</time>
      </trkpt>
      <trkpt lat="46.80695" lon="5.70196">
        <ele>564.2</ele>
        <time>2020-02-28T10:38:31Z</time>
      </trkpt>
      <trkpt lat="46.80688" lon="5.70191">
        <ele>564.2</ele>
        <time>2020-02-28T10:38:32Z</time>
      </trkpt>
      <trkpt lat="46.80682" lon="5.70187">
        <ele>563.8</ele>
        <time>2020-02-28T10:38:33Z</time>
      </trkpt>
      <trkpt lat="46.80675" lon="5.70182">
        <ele>563.8</ele>
        <time>2020-02-28T10:38:34Z</time>
      </trkpt>
      <trkpt lat="46.80669" lon="5.70178">
        <ele>563.6</ele>
        <time>2020-02-28T10:38:35Z</time>
      </trkpt>
      <trkpt lat="46.80662" lon="5.70173">
        <ele>563.2</ele>
        <time>2020-02-28T10:38:36Z</time>
      </trkpt>
      <trkpt lat="46.80655" lon="5.70169">
        <ele>563.2</ele>
        <time>2020-02-28T10:38:37Z</time>
      </trkpt>
      <trkpt lat="46.80649" lon="5.70165">
        <ele>563</ele>
        <time>2020-02-28T10:38:38Z</time>
      </trkpt>
      <trkpt lat="46.80642" lon="5.7016">
        <ele>562.8</ele>
        <time>2020-02-28T10:38:39Z</time>
      </trkpt>
      <trkpt lat="46.80636" lon="5.70156">
        <ele>562.8</ele>
        <time>2020-02-28T10:38:40Z</time>
      </trkpt>
      <trkpt lat="46.80629" lon="5.70152">
        <ele>562.4</ele>
        <time>2020-02-28T10:38:41Z</time>
      </trkpt>
      <trkpt lat="46.80622" lon="5.70148">
        <ele>562</ele>
        <time>2020-02-28T10:38:42Z</time>
      </trkpt>
      <trkpt lat="46.80616" lon="5.70143">
        <ele>562</ele>
        <time>2020-02-28T10:38:43Z</time>
      </trkpt>
      <trkpt lat="46.80606" lon="5.70137">
        <ele>561.8</ele>
        <time>2020-02-28T10:38:44Z</time>
      </trkpt>
      <trkpt lat="46.80603" lon="5.70135">
        <ele>561.8</ele>
        <time>2020-02-28T10:38:45Z</time>
      </trkpt>
      <trkpt lat="46.80596" lon="5.70131">
        <ele>561.4</ele>
        <time>2020-02-28T10:38:46Z</time>
      </trkpt>
      <trkpt lat="46.8059" lon="5.70126">
        <ele>561.4</ele>
        <time>2020-02-28T10:38:47Z</time>
      </trkpt>
      <trkpt lat="46.80583" lon="5.70122">
        <ele>561.4</ele>
        <time>2020-02-28T10:38:48Z</time>
      </trkpt>
      <trkpt lat="46.80576" lon="5.70118">
        <ele>561.2</ele>
        <time>2020-02-28T10:38:49Z</time>
      </trkpt>
      <trkpt lat="46.8057" lon="5.70114">
        <ele>561.2</ele>
        <time>2020-02-28T10:38:50Z</time>
      </trkpt>
      <trkpt lat="46.80564" lon="5.7011">
        <ele>561.2</ele>
        <time>2020-02-28T10:38:51Z</time>
      </trkpt>
      <trkpt lat="46.80557" lon="5.70106">
        <ele>561.2</ele>
        <time>2020-02-28T10:38:52Z</time>
      </trkpt>
      <trkpt lat="46.80551" lon="5.70102">
        <ele>561.2</ele>
        <time>2020-02-28T10:38:53Z</time>
      </trkpt>
      <trkpt lat="46.80545" lon="5.70098">
        <ele>561.2</ele>
        <time>2020-02-28T10:38:54Z</time>
      </trkpt>
      <trkpt lat="46.80539" lon="5.70094">
        <ele>561.2</ele>
        <time>2020-02-28T10:38:55Z</time>
      </trkpt>
      <trkpt lat="46.80533" lon="5.7009">
        <ele>561.2</ele>
        <time>2020-02-28T10:38:56Z</time>
      </trkpt>
      <trkpt lat="46.80527" lon="5.70087">
        <ele>561.4</ele>
        <time>2020-02-28T10:38:57Z</time>
      </trkpt>
      <trkpt lat="46.80521" lon="5.70082">
        <ele>561.4</ele>
        <time>2020-02-28T10:38:58Z</time>
      </trkpt>
      <trkpt lat="46.80514" lon="5.70078">
        <ele>561.4</ele>
        <time>2020-02-28T10:38:59Z</time>
      </trkpt>
      <trkpt lat="46.80508" lon="5.70075">
        <ele>561.4</ele>
        <time>2020-02-28T10:39:00Z</time>
      </trkpt>
      <trkpt lat="46.80502" lon="5.70071">
        <ele>561.4</ele>
        <time>2020-02-28T10:39:01Z</time>
      </trkpt>
      <trkpt lat="46.80496" lon="5.70067">
        <ele>561.2</ele>
        <time>2020-02-28T10:39:02Z</time>
      </trkpt>
      <trkpt lat="46.80491" lon="5.70063">
        <ele>561.2</ele>
        <time>2020-02-28T10:39:03Z</time>
      </trkpt>
      <trkpt lat="46.80485" lon="5.7006">
        <ele>561.2</ele>
        <time>2020-02-28T10:39:04Z</time>
      </trkpt>
      <trkpt lat="46.80479" lon="5.70056">
        <ele>561</ele>
        <time>2020-02-28T10:39:05Z</time>
      </trkpt>
      <trkpt lat="46.80473" lon="5.70053">
        <ele>561</ele>
        <time>2020-02-28T10:39:06Z</time>
      </trkpt>
      <trkpt lat="46.80467" lon="5.70049">
        <ele>561</ele>
        <time>2020-02-28T10:39:07Z</time>
      </trkpt>
      <trkpt lat="46.80462" lon="5.70045">
        <ele>561</ele>
        <time>2020-02-28T10:39:08Z</time>
      </trkpt>
      <trkpt lat="46.80456" lon="5.70042">
        <ele>561</ele>
        <time>2020-02-28T10:39:09Z</time>
      </trkpt>
      <trkpt lat="46.80451" lon="5.70039">
        <ele>561</ele>
        <time>2020-02-28T10:39:10Z</time>
      </trkpt>
      <trkpt lat="46.80446" lon="5.70035">
        <ele>561</ele>
        <time>2020-02-28T10:39:11Z</time>
      </trkpt>
      <trkpt lat="46.80441" lon="5.70032">
        <ele>560.6</ele>
        <time>2020-02-28T10:39:12Z</time>
      </trkpt>
      <trkpt lat="46.80436" lon="5.70028">
        <ele>560.6</ele>
        <time>2020-02-28T10:39:13Z</time>
      </trkpt>
      <trkpt lat="46.80431" lon="5.70025">
        <ele>560.6</ele>
        <time>2020-02-28T10:39:14Z</time>
      </trkpt>
      <trkpt lat="46.80425" lon="5.70022">
        <ele>560.6</ele>
        <time>2020-02-28T10:39:15Z</time>
      </trkpt>
      <trkpt lat="46.8042" lon="5.7002">
        <ele>560.6</ele>
        <time>2020-02-28T10:39:16Z</time>
      </trkpt>
      <trkpt lat="46.80415" lon="5.70017">
        <ele>560.6</ele>
        <time>2020-02-28T10:39:17Z</time>
      </trkpt>
      <trkpt lat="46.8041" lon="5.70013">
        <ele>560.6</ele>
        <time>2020-02-28T10:39:18Z</time>
      </trkpt>
      <trkpt lat="46.80405" lon="5.7001">
        <ele>560.6</ele>
        <time>2020-02-28T10:39:19Z</time>
      </trkpt>
      <trkpt lat="46.804" lon="5.70007">
        <ele>560.4</ele>
        <time>2020-02-28T10:39:20Z</time>
      </trkpt>
      <trkpt lat="46.80395" lon="5.70004">
        <ele>560.4</ele>
        <time>2020-02-28T10:39:21Z</time>
      </trkpt>
      <trkpt lat="46.8039" lon="5.70001">
        <ele>560.4</ele>
        <time>2020-02-28T10:39:22Z</time>
      </trkpt>
      <trkpt lat="46.80385" lon="5.69997">
        <ele>560.4</ele>
        <time>2020-02-28T10:39:23Z</time>
      </trkpt>
      <trkpt lat="46.8038" lon="5.69994">
        <ele>560.4</ele>
        <time>2020-02-28T10:39:24Z</time>
      </trkpt>
      <trkpt lat="46.80376" lon="5.69992">
        <ele>560.4</ele>
        <time>2020-02-28T10:39:25Z</time>
      </trkpt>
      <trkpt lat="46.80371" lon="5.69989">
        <ele>560.4</ele>
        <time>2020-02-28T10:39:26Z</time>
      </trkpt>
      <trkpt lat="46.80367" lon="5.69986">
        <ele>560.4</ele>
        <time>2020-02-28T10:39:27Z</time>
      </trkpt>
      <trkpt lat="46.80363" lon="5.69983">
        <ele>560.8</ele>
        <time>2020-02-28T10:39:28Z</time>
      </trkpt>
      <trkpt lat="46.80359" lon="5.69981">
        <ele>560.8</ele>
        <time>2020-02-28T10:39:29Z</time>
      </trkpt>
      <trkpt lat="46.80355" lon="5.69978">
        <ele>560.8</ele>
        <time>2020-02-28T10:39:30Z</time>
      </trkpt>
      <trkpt lat="46.80351" lon="5.69976">
        <ele>560.8</ele>
        <time>2020-02-28T10:39:31Z</time>
      </trkpt>
      <trkpt lat="46.80347" lon="5.69974">
        <ele>560.8</ele>
        <time>2020-02-28T10:39:32Z</time>
      </trkpt>
      <trkpt lat="46.80344" lon="5.69972">
        <ele>561</ele>
        <time>2020-02-28T10:39:33Z</time>
      </trkpt>
      <trkpt lat="46.8034" lon="5.6997">
        <ele>561</ele>
        <time>2020-02-28T10:39:34Z</time>
      </trkpt>
      <trkpt lat="46.80337" lon="5.69968">
        <ele>561.4</ele>
        <time>2020-02-28T10:39:35Z</time>
      </trkpt>
      <trkpt lat="46.80331" lon="5.69965">
        <ele>561.4</ele>
        <time>2020-02-28T10:39:36Z</time>
      </trkpt>
      <trkpt lat="46.8033" lon="5.69963">
        <ele>561.6</ele>
        <time>2020-02-28T10:39:37Z</time>
      </trkpt>
      <trkpt lat="46.80326" lon="5.69961">
        <ele>561.6</ele>
        <time>2020-02-28T10:39:38Z</time>
      </trkpt>
      <trkpt lat="46.80322" lon="5.69958">
        <ele>561.6</ele>
        <time>2020-02-28T10:39:39Z</time>
      </trkpt>
      <trkpt lat="46.80318" lon="5.69955">
        <ele>561.6</ele>
        <time>2020-02-28T10:39:40Z</time>
      </trkpt>
      <trkpt lat="46.80314" lon="5.69953">
        <ele>561.6</ele>
        <time>2020-02-28T10:39:41Z</time>
      </trkpt>
      <trkpt lat="46.8031" lon="5.6995">
        <ele>561.6</ele>
        <time>2020-02-28T10:39:42Z</time>
      </trkpt>
      <trkpt lat="46.80306" lon="5.69947">
        <ele>561.6</ele>
        <time>2020-02-28T10:39:43Z</time>
      </trkpt>
      <trkpt lat="46.80302" lon="5.69944">
        <ele>561.6</ele>
        <time>2020-02-28T10:39:44Z</time>
      </trkpt>
      <trkpt lat="46.80298" lon="5.6994">
        <ele>561.6</ele>
        <time>2020-02-28T10:39:45Z</time>
      </trkpt>
      <trkpt lat="46.80293" lon="5.69937">
        <ele>561.6</ele>
        <time>2020-02-28T10:39:46Z</time>
      </trkpt>
      <trkpt lat="46.80289" lon="5.69933">
        <ele>561.6</ele>
        <time>2020-02-28T10:39:47Z</time>
      </trkpt>
      <trkpt lat="46.80284" lon="5.69929">
        <ele>561.2</ele>
        <time>2020-02-28T10:39:48Z</time>
      </trkpt>
      <trkpt lat="46.8028" lon="5.69925">
        <ele>561.2</ele>
        <time>2020-02-28T10:39:49Z</time>
      </trkpt>
      <trkpt lat="46.80275" lon="5.69921">
        <ele>561.2</ele>
        <time>2020-02-28T10:39:50Z</time>
      </trkpt>
      <trkpt lat="46.8027" lon="5.69917">
        <ele>561</ele>
        <time>2020-02-28T10:39:51Z</time>
      </trkpt>
      <trkpt lat="46.80266" lon="5.69912">
        <ele>561</ele>
        <time>2020-02-28T10:39:52Z</time>
      </trkpt>
      <trkpt lat="46.80261" lon="5.69908">
        <ele>560.6</ele>
        <time>2020-02-28T10:39:53Z</time>
      </trkpt>
      <trkpt lat="46.80256" lon="5.69903">
        <ele>560.6</ele>
        <time>2020-02-28T10:39:54Z</time>
      </trkpt>
      <trkpt lat="46.80252" lon="5.69899">
        <ele>560.6</ele>
        <time>2020-02-28T10:39:55Z</time>
      </trkpt>
      <trkpt lat="46.80248" lon="5.69893">
        <ele>560.6</ele>
        <time>2020-02-28T10:39:56Z</time>
      </trkpt>
      <trkpt lat="46.80244" lon="5.69888">
        <ele>560.6</ele>
        <time>2020-02-28T10:39:57Z</time>
      </trkpt>
      <trkpt lat="46.8024" lon="5.69883">
        <ele>560.6</ele>
        <time>2020-02-28T10:39:58Z</time>
      </trkpt>
      <trkpt lat="46.80237" lon="5.69878">
        <ele>560.6</ele>
        <time>2020-02-28T10:39:59Z</time>
      </trkpt>
      <trkpt lat="46.80234" lon="5.69873">
        <ele>561</ele>
        <time>2020-02-28T10:40:00Z</time>
      </trkpt>
      <trkpt lat="46.80232" lon="5.69868">
        <ele>561.2</ele>
        <time>2020-02-28T10:40:01Z</time>
      </trkpt>
      <trkpt lat="46.8023" lon="5.69863">
        <ele>561.2</ele>
        <time>2020-02-28T10:40:02Z</time>
      </trkpt>
      <trkpt lat="46.80227" lon="5.69859">
        <ele>561.2</ele>
        <time>2020-02-28T10:40:03Z</time>
      </trkpt>
      <trkpt lat="46.80225" lon="5.69855">
        <ele>561.4</ele>
        <time>2020-02-28T10:40:04Z</time>
      </trkpt>
      <trkpt lat="46.80223" lon="5.69851">
        <ele>561.4</ele>
        <time>2020-02-28T10:40:05Z</time>
      </trkpt>
      <trkpt lat="46.8022" lon="5.69847">
        <ele>561.4</ele>
        <time>2020-02-28T10:40:06Z</time>
      </trkpt>
      <trkpt lat="46.80218" lon="5.69843">
        <ele>561.6</ele>
        <time>2020-02-28T10:40:07Z</time>
      </trkpt>
      <trkpt lat="46.80216" lon="5.69839">
        <ele>561.6</ele>
        <time>2020-02-28T10:40:08Z</time>
      </trkpt>
      <trkpt lat="46.80214" lon="5.69835">
        <ele>561.6</ele>
        <time>2020-02-28T10:40:09Z</time>
      </trkpt>
      <trkpt lat="46.80212" lon="5.69831">
        <ele>561.6</ele>
        <time>2020-02-28T10:40:10Z</time>
      </trkpt>
      <trkpt lat="46.8021" lon="5.69827">
        <ele>562</ele>
        <time>2020-02-28T10:40:11Z</time>
      </trkpt>
      <trkpt lat="46.80208" lon="5.69823">
        <ele>562</ele>
        <time>2020-02-28T10:40:12Z</time>
      </trkpt>
      <trkpt lat="46.80206" lon="5.6982">
        <ele>562</ele>
        <time>2020-02-28T10:40:13Z</time>
      </trkpt>
      <trkpt lat="46.80203" lon="5.69816">
        <ele>562</ele>
        <time>2020-02-28T10:40:14Z</time>
      </trkpt>
      <trkpt lat="46.80201" lon="5.69813">
        <ele>562</ele>
        <time>2020-02-28T10:40:15Z</time>
      </trkpt>
      <trkpt lat="46.80199" lon="5.69809">
        <ele>562</ele>
        <time>2020-02-28T10:40:16Z</time>
      </trkpt>
      <trkpt lat="46.80197" lon="5.69805">
        <ele>562</ele>
        <time>2020-02-28T10:40:17Z</time>
      </trkpt>
      <trkpt lat="46.80195" lon="5.69801">
        <ele>562.2</ele>
        <time>2020-02-28T10:40:18Z</time>
      </trkpt>
      <trkpt lat="46.80193" lon="5.69796">
        <ele>562.2</ele>
        <time>2020-02-28T10:40:19Z</time>
      </trkpt>
      <trkpt lat="46.80191" lon="5.69792">
        <ele>562.2</ele>
        <time>2020-02-28T10:40:20Z</time>
      </trkpt>
      <trkpt lat="46.8019" lon="5.69787">
        <ele>562.2</ele>
        <time>2020-02-28T10:40:21Z</time>
      </trkpt>
      <trkpt lat="46.80187" lon="5.69783">
        <ele>562.4</ele>
        <time>2020-02-28T10:40:22Z</time>
      </trkpt>
      <trkpt lat="46.80185" lon="5.69779">
        <ele>562.4</ele>
        <time>2020-02-28T10:40:23Z</time>
      </trkpt>
      <trkpt lat="46.80182" lon="5.69774">
        <ele>562.4</ele>
        <time>2020-02-28T10:40:24Z</time>
      </trkpt>
      <trkpt lat="46.80179" lon="5.6977">
        <ele>562.8</ele>
        <time>2020-02-28T10:40:25Z</time>
      </trkpt>
      <trkpt lat="46.80176" lon="5.69766">
        <ele>562.8</ele>
        <time>2020-02-28T10:40:26Z</time>
      </trkpt>
      <trkpt lat="46.80173" lon="5.69762">
        <ele>562.8</ele>
        <time>2020-02-28T10:40:27Z</time>
      </trkpt>
      <trkpt lat="46.8017" lon="5.69758">
        <ele>562.8</ele>
        <time>2020-02-28T10:40:28Z</time>
      </trkpt>
      <trkpt lat="46.80168" lon="5.69753">
        <ele>562.8</ele>
        <time>2020-02-28T10:40:29Z</time>
      </trkpt>
      <trkpt lat="46.80165" lon="5.69748">
        <ele>562.8</ele>
        <time>2020-02-28T10:40:30Z</time>
      </trkpt>
      <trkpt lat="46.80161" lon="5.69743">
        <ele>562.8</ele>
        <time>2020-02-28T10:40:31Z</time>
      </trkpt>
      <trkpt lat="46.80158" lon="5.69738">
        <ele>562.8</ele>
        <time>2020-02-28T10:40:32Z</time>
      </trkpt>
      <trkpt lat="46.80154" lon="5.69733">
        <ele>562.8</ele>
        <time>2020-02-28T10:40:33Z</time>
      </trkpt>
      <trkpt lat="46.80151" lon="5.69727">
        <ele>562.6</ele>
        <time>2020-02-28T10:40:34Z</time>
      </trkpt>
      <trkpt lat="46.80148" lon="5.69721">
        <ele>562.6</ele>
        <time>2020-02-28T10:40:35Z</time>
      </trkpt>
      <trkpt lat="46.80144" lon="5.69716">
        <ele>562.6</ele>
        <time>2020-02-28T10:40:36Z</time>
      </trkpt>
      <trkpt lat="46.8014" lon="5.6971">
        <ele>562.6</ele>
        <time>2020-02-28T10:40:37Z</time>
      </trkpt>
      <trkpt lat="46.80136" lon="5.69704">
        <ele>562.6</ele>
        <time>2020-02-28T10:40:38Z</time>
      </trkpt>
      <trkpt lat="46.80133" lon="5.69698">
        <ele>562.4</ele>
        <time>2020-02-28T10:40:39Z</time>
      </trkpt>
      <trkpt lat="46.80129" lon="5.69692">
        <ele>562.4</ele>
        <time>2020-02-28T10:40:40Z</time>
      </trkpt>
      <trkpt lat="46.80125" lon="5.69686">
        <ele>562.4</ele>
        <time>2020-02-28T10:40:41Z</time>
      </trkpt>
      <trkpt lat="46.80121" lon="5.6968">
        <ele>562.4</ele>
        <time>2020-02-28T10:40:42Z</time>
      </trkpt>
      <trkpt lat="46.80115" lon="5.6967">
        <ele>562.4</ele>
        <time>2020-02-28T10:40:43Z</time>
      </trkpt>
      <trkpt lat="46.80113" lon="5.69667">
        <ele>562.4</ele>
        <time>2020-02-28T10:40:44Z</time>
      </trkpt>
      <trkpt lat="46.8011" lon="5.6966">
        <ele>562.4</ele>
        <time>2020-02-28T10:40:45Z</time>
      </trkpt>
      <trkpt lat="46.80106" lon="5.69654">
        <ele>562.4</ele>
        <time>2020-02-28T10:40:46Z</time>
      </trkpt>
      <trkpt lat="46.80102" lon="5.69647">
        <ele>562</ele>
        <time>2020-02-28T10:40:47Z</time>
      </trkpt>
      <trkpt lat="46.80098" lon="5.69641">
        <ele>562</ele>
        <time>2020-02-28T10:40:48Z</time>
      </trkpt>
      <trkpt lat="46.80094" lon="5.69635">
        <ele>562</ele>
        <time>2020-02-28T10:40:49Z</time>
      </trkpt>
      <trkpt lat="46.8009" lon="5.69628">
        <ele>562</ele>
        <time>2020-02-28T10:40:50Z</time>
      </trkpt>
      <trkpt lat="46.80086" lon="5.69622">
        <ele>562</ele>
        <time>2020-02-28T10:40:51Z</time>
      </trkpt>
      <trkpt lat="46.80082" lon="5.69616">
        <ele>562</ele>
        <time>2020-02-28T10:40:52Z</time>
      </trkpt>
      <trkpt lat="46.80079" lon="5.6961">
        <ele>562.2</ele>
        <time>2020-02-28T10:40:53Z</time>
      </trkpt>
      <trkpt lat="46.80076" lon="5.69603">
        <ele>562.2</ele>
        <time>2020-02-28T10:40:54Z</time>
      </trkpt>
      <trkpt lat="46.80074" lon="5.69597">
        <ele>562.4</ele>
        <time>2020-02-28T10:40:55Z</time>
      </trkpt>
      <trkpt lat="46.80072" lon="5.6959">
        <ele>562.4</ele>
        <time>2020-02-28T10:40:56Z</time>
      </trkpt>
      <trkpt lat="46.8007" lon="5.69583">
        <ele>562.4</ele>
        <time>2020-02-28T10:40:57Z</time>
      </trkpt>
      <trkpt lat="46.80069" lon="5.69576">
        <ele>562.6</ele>
        <time>2020-02-28T10:40:58Z</time>
      </trkpt>
      <trkpt lat="46.80068" lon="5.69569">
        <ele>562.6</ele>
        <time>2020-02-28T10:40:59Z</time>
      </trkpt>
      <trkpt lat="46.80067" lon="5.69562">
        <ele>562.6</ele>
        <time>2020-02-28T10:41:00Z</time>
      </trkpt>
      <trkpt lat="46.80066" lon="5.69556">
        <ele>562.6</ele>
        <time>2020-02-28T10:41:01Z</time>
      </trkpt>
      <trkpt lat="46.80066" lon="5.69549">
        <ele>562.6</ele>
        <time>2020-02-28T10:41:02Z</time>
      </trkpt>
      <trkpt lat="46.80065" lon="5.69542">
        <ele>562.6</ele>
        <time>2020-02-28T10:41:03Z</time>
      </trkpt>
      <trkpt lat="46.80064" lon="5.69535">
        <ele>562.6</ele>
        <time>2020-02-28T10:41:04Z</time>
      </trkpt>
      <trkpt lat="46.80063" lon="5.69527">
        <ele>562.6</ele>
        <time>2020-02-28T10:41:05Z</time>
      </trkpt>
      <trkpt lat="46.80062" lon="5.6952">
        <ele>562.6</ele>
        <time>2020-02-28T10:41:06Z</time>
      </trkpt>
      <trkpt lat="46.8006" lon="5.69512">
        <ele>562.6</ele>
        <time>2020-02-28T10:41:07Z</time>
      </trkpt>
      <trkpt lat="46.80057" lon="5.69505">
        <ele>562.6</ele>
        <time>2020-02-28T10:41:08Z</time>
      </trkpt>
      <trkpt lat="46.80054" lon="5.69498">
        <ele>562.6</ele>
        <time>2020-02-28T10:41:09Z</time>
      </trkpt>
      <trkpt lat="46.80051" lon="5.69491">
        <ele>562.6</ele>
        <time>2020-02-28T10:41:10Z</time>
      </trkpt>
      <trkpt lat="46.80048" lon="5.69484">
        <ele>562.6</ele>
        <time>2020-02-28T10:41:11Z</time>
      </trkpt>
      <trkpt lat="46.80045" lon="5.69477">
        <ele>562.4</ele>
        <time>2020-02-28T10:41:12Z</time>
      </trkpt>
      <trkpt lat="46.80041" lon="5.6947">
        <ele>562.4</ele>
        <time>2020-02-28T10:41:13Z</time>
      </trkpt>
      <trkpt lat="46.80039" lon="5.69463">
        <ele>562.4</ele>
        <time>2020-02-28T10:41:14Z</time>
      </trkpt>
      <trkpt lat="46.80036" lon="5.69456">
        <ele>562.4</ele>
        <time>2020-02-28T10:41:15Z</time>
      </trkpt>
      <trkpt lat="46.80033" lon="5.6945">
        <ele>562.4</ele>
        <time>2020-02-28T10:41:16Z</time>
      </trkpt>
      <trkpt lat="46.80031" lon="5.69444">
        <ele>562.6</ele>
        <time>2020-02-28T10:41:17Z</time>
      </trkpt>
      <trkpt lat="46.80029" lon="5.69438">
        <ele>562.6</ele>
        <time>2020-02-28T10:41:18Z</time>
      </trkpt>
      <trkpt lat="46.80027" lon="5.69432">
        <ele>563</ele>
        <time>2020-02-28T10:41:19Z</time>
      </trkpt>
      <trkpt lat="46.80025" lon="5.69427">
        <ele>563.2</ele>
        <time>2020-02-28T10:41:20Z</time>
      </trkpt>
      <trkpt lat="46.80023" lon="5.69422">
        <ele>563.6</ele>
        <time>2020-02-28T10:41:21Z</time>
      </trkpt>
      <trkpt lat="46.80021" lon="5.69418">
        <ele>563.8</ele>
        <time>2020-02-28T10:41:22Z</time>
      </trkpt>
      <trkpt lat="46.8002" lon="5.69413">
        <ele>564</ele>
        <time>2020-02-28T10:41:23Z</time>
      </trkpt>
      <trkpt lat="46.80018" lon="5.69407">
        <ele>564.4</ele>
        <time>2020-02-28T10:41:24Z</time>
      </trkpt>
      <trkpt lat="46.80017" lon="5.69402">
        <ele>564.6</ele>
        <time>2020-02-28T10:41:25Z</time>
      </trkpt>
      <trkpt lat="46.80016" lon="5.69397">
        <ele>565</ele>
        <time>2020-02-28T10:41:26Z</time>
      </trkpt>
      <trkpt lat="46.80015" lon="5.69393">
        <ele>565.2</ele>
        <time>2020-02-28T10:41:27Z</time>
      </trkpt>
      <trkpt lat="46.80014" lon="5.69388">
        <ele>565.4</ele>
        <time>2020-02-28T10:41:28Z</time>
      </trkpt>
      <trkpt lat="46.80014" lon="5.69383">
        <ele>565.8</ele>
        <time>2020-02-28T10:41:29Z</time>
      </trkpt>
      <trkpt lat="46.80014" lon="5.69378">
        <ele>566</ele>
        <time>2020-02-28T10:41:30Z</time>
      </trkpt>
      <trkpt lat="46.80013" lon="5.69373">
        <ele>566</ele>
        <time>2020-02-28T10:41:31Z</time>
      </trkpt>
      <trkpt lat="46.80013" lon="5.69366">
        <ele>566.4</ele>
        <time>2020-02-28T10:41:32Z</time>
      </trkpt>
      <trkpt lat="46.80012" lon="5.69364">
        <ele>566.4</ele>
        <time>2020-02-28T10:41:33Z</time>
      </trkpt>
      <trkpt lat="46.80012" lon="5.69359">
        <ele>566.8</ele>
        <time>2020-02-28T10:41:34Z</time>
      </trkpt>
      <trkpt lat="46.80011" lon="5.69355">
        <ele>566.8</ele>
        <time>2020-02-28T10:41:35Z</time>
      </trkpt>
      <trkpt lat="46.80011" lon="5.6935">
        <ele>566.8</ele>
        <time>2020-02-28T10:41:36Z</time>
      </trkpt>
      <trkpt lat="46.80011" lon="5.69346">
        <ele>567</ele>
        <time>2020-02-28T10:41:37Z</time>
      </trkpt>
      <trkpt lat="46.8001" lon="5.69339">
        <ele>567</ele>
        <time>2020-02-28T10:41:38Z</time>
      </trkpt>
      <trkpt lat="46.8001" lon="5.69337">
        <ele>567.2</ele>
        <time>2020-02-28T10:41:39Z</time>
      </trkpt>
      <trkpt lat="46.80009" lon="5.69333">
        <ele>567.2</ele>
        <time>2020-02-28T10:41:40Z</time>
      </trkpt>
      <trkpt lat="46.80008" lon="5.69328">
        <ele>567.4</ele>
        <time>2020-02-28T10:41:41Z</time>
      </trkpt>
      <trkpt lat="46.80008" lon="5.69323">
        <ele>567.4</ele>
        <time>2020-02-28T10:41:42Z</time>
      </trkpt>
      <trkpt lat="46.80008" lon="5.69319">
        <ele>567.4</ele>
        <time>2020-02-28T10:41:43Z</time>
      </trkpt>
      <trkpt lat="46.80007" lon="5.69314">
        <ele>567.4</ele>
        <time>2020-02-28T10:41:44Z</time>
      </trkpt>
      <trkpt lat="46.80007" lon="5.69309">
        <ele>567.6</ele>
        <time>2020-02-28T10:41:45Z</time>
      </trkpt>
      <trkpt lat="46.80007" lon="5.69304">
        <ele>567.6</ele>
        <time>2020-02-28T10:41:46Z</time>
      </trkpt>
      <trkpt lat="46.80006" lon="5.69299">
        <ele>567.6</ele>
        <time>2020-02-28T10:41:47Z</time>
      </trkpt>
      <trkpt lat="46.80006" lon="5.69294">
        <ele>567.6</ele>
        <time>2020-02-28T10:41:48Z</time>
      </trkpt>
      <trkpt lat="46.80005" lon="5.69288">
        <ele>567.6</ele>
        <time>2020-02-28T10:41:49Z</time>
      </trkpt>
      <trkpt lat="46.80005" lon="5.69283">
        <ele>567.6</ele>
        <time>2020-02-28T10:41:50Z</time>
      </trkpt>
      <trkpt lat="46.80004" lon="5.69277">
        <ele>567.6</ele>
        <time>2020-02-28T10:41:51Z</time>
      </trkpt>
      <trkpt lat="46.80003" lon="5.69268">
        <ele>567.4</ele>
        <time>2020-02-28T10:41:52Z</time>
      </trkpt>
      <trkpt lat="46.80003" lon="5.69265">
        <ele>567.4</ele>
        <time>2020-02-28T10:41:53Z</time>
      </trkpt>
      <trkpt lat="46.80002" lon="5.69258">
        <ele>567.4</ele>
        <time>2020-02-28T10:41:54Z</time>
      </trkpt>
      <trkpt lat="46.80001" lon="5.69252">
        <ele>567.2</ele>
        <time>2020-02-28T10:41:55Z</time>
      </trkpt>
      <trkpt lat="46.80001" lon="5.69245">
        <ele>567.2</ele>
        <time>2020-02-28T10:41:56Z</time>
      </trkpt>
      <trkpt lat="46.8" lon="5.69239">
        <ele>567.2</ele>
        <time>2020-02-28T10:41:57Z</time>
      </trkpt>
      <trkpt lat="46.8" lon="5.69232">
        <ele>567.2</ele>
        <time>2020-02-28T10:41:58Z</time>
      </trkpt>
      <trkpt lat="46.79999" lon="5.69225">
        <ele>567.2</ele>
        <time>2020-02-28T10:41:59Z</time>
      </trkpt>
      <trkpt lat="46.79998" lon="5.69218">
        <ele>567.2</ele>
        <time>2020-02-28T10:42:00Z</time>
      </trkpt>
      <trkpt lat="46.79998" lon="5.69211">
        <ele>567.2</ele>
        <time>2020-02-28T10:42:01Z</time>
      </trkpt>
      <trkpt lat="46.79997" lon="5.69203">
        <ele>567</ele>
        <time>2020-02-28T10:42:02Z</time>
      </trkpt>
      <trkpt lat="46.79996" lon="5.69195">
        <ele>567</ele>
        <time>2020-02-28T10:42:03Z</time>
      </trkpt>
      <trkpt lat="46.79995" lon="5.69183">
        <ele>567</ele>
        <time>2020-02-28T10:42:04Z</time>
      </trkpt>
      <trkpt lat="46.79995" lon="5.69179">
        <ele>566.6</ele>
        <time>2020-02-28T10:42:05Z</time>
      </trkpt>
      <trkpt lat="46.79994" lon="5.69171">
        <ele>566.6</ele>
        <time>2020-02-28T10:42:06Z</time>
      </trkpt>
      <trkpt lat="46.79994" lon="5.69163">
        <ele>566.6</ele>
        <time>2020-02-28T10:42:07Z</time>
      </trkpt>
      <trkpt lat="46.79993" lon="5.69156">
        <ele>566.6</ele>
        <time>2020-02-28T10:42:08Z</time>
      </trkpt>
      <trkpt lat="46.79993" lon="5.69149">
        <ele>566.6</ele>
        <time>2020-02-28T10:42:09Z</time>
      </trkpt>
      <trkpt lat="46.79993" lon="5.69142">
        <ele>566.6</ele>
        <time>2020-02-28T10:42:10Z</time>
      </trkpt>
      <trkpt lat="46.79993" lon="5.69135">
        <ele>567</ele>
        <time>2020-02-28T10:42:11Z</time>
      </trkpt>
      <trkpt lat="46.79992" lon="5.69128">
        <ele>567</ele>
        <time>2020-02-28T10:42:12Z</time>
      </trkpt>
      <trkpt lat="46.79992" lon="5.69122">
        <ele>567</ele>
        <time>2020-02-28T10:42:13Z</time>
      </trkpt>
      <trkpt lat="46.79992" lon="5.69116">
        <ele>567.2</ele>
        <time>2020-02-28T10:42:14Z</time>
      </trkpt>
      <trkpt lat="46.79992" lon="5.69109">
        <ele>567.2</ele>
        <time>2020-02-28T10:42:15Z</time>
      </trkpt>
      <trkpt lat="46.79992" lon="5.69101">
        <ele>567.2</ele>
        <time>2020-02-28T10:42:16Z</time>
      </trkpt>
      <trkpt lat="46.79992" lon="5.69098">
        <ele>567.6</ele>
        <time>2020-02-28T10:42:17Z</time>
      </trkpt>
      <trkpt lat="46.79992" lon="5.69092">
        <ele>567.6</ele>
        <time>2020-02-28T10:42:18Z</time>
      </trkpt>
      <trkpt lat="46.79992" lon="5.69087">
        <ele>567.8</ele>
        <time>2020-02-28T10:42:19Z</time>
      </trkpt>
      <trkpt lat="46.79992" lon="5.69081">
        <ele>567.8</ele>
        <time>2020-02-28T10:42:20Z</time>
      </trkpt>
      <trkpt lat="46.79992" lon="5.69075">
        <ele>568</ele>
        <time>2020-02-28T10:42:21Z</time>
      </trkpt>
      <trkpt lat="46.79992" lon="5.69066">
        <ele>568</ele>
        <time>2020-02-28T10:42:22Z</time>
      </trkpt>
      <trkpt lat="46.79992" lon="5.69063">
        <ele>568</ele>
        <time>2020-02-28T10:42:23Z</time>
      </trkpt>
      <trkpt lat="46.79993" lon="5.69057">
        <ele>568</ele>
        <time>2020-02-28T10:42:24Z</time>
      </trkpt>
      <trkpt lat="46.79994" lon="5.69051">
        <ele>568</ele>
        <time>2020-02-28T10:42:25Z</time>
      </trkpt>
      <trkpt lat="46.79995" lon="5.69045">
        <ele>568</ele>
        <time>2020-02-28T10:42:26Z</time>
      </trkpt>
      <trkpt lat="46.79996" lon="5.6904">
        <ele>568.4</ele>
        <time>2020-02-28T10:42:27Z</time>
      </trkpt>
      <trkpt lat="46.79998" lon="5.69035">
        <ele>568.4</ele>
        <time>2020-02-28T10:42:28Z</time>
      </trkpt>
      <trkpt lat="46.8" lon="5.6903">
        <ele>568.8</ele>
        <time>2020-02-28T10:42:29Z</time>
      </trkpt>
      <trkpt lat="46.80002" lon="5.69026">
        <ele>568.8</ele>
        <time>2020-02-28T10:42:30Z</time>
      </trkpt>
      <trkpt lat="46.80005" lon="5.69019">
        <ele>569.2</ele>
        <time>2020-02-28T10:42:31Z</time>
      </trkpt>
      <trkpt lat="46.80006" lon="5.69017">
        <ele>569.2</ele>
        <time>2020-02-28T10:42:32Z</time>
      </trkpt>
      <trkpt lat="46.80007" lon="5.69012">
        <ele>569.6</ele>
        <time>2020-02-28T10:42:33Z</time>
      </trkpt>
      <trkpt lat="46.80009" lon="5.69007">
        <ele>569.8</ele>
        <time>2020-02-28T10:42:34Z</time>
      </trkpt>
      <trkpt lat="46.80011" lon="5.69003">
        <ele>570</ele>
        <time>2020-02-28T10:42:35Z</time>
      </trkpt>
      <trkpt lat="46.80013" lon="5.68996">
        <ele>570.2</ele>
        <time>2020-02-28T10:42:36Z</time>
      </trkpt>
      <trkpt lat="46.80014" lon="5.68994">
        <ele>570.4</ele>
        <time>2020-02-28T10:42:37Z</time>
      </trkpt>
      <trkpt lat="46.80016" lon="5.68989">
        <ele>570.6</ele>
        <time>2020-02-28T10:42:38Z</time>
      </trkpt>
      <trkpt lat="46.80017" lon="5.68986">
        <ele>570.6</ele>
        <time>2020-02-28T10:42:39Z</time>
      </trkpt>
      <trkpt lat="46.8002" lon="5.6898">
        <ele>571</ele>
        <time>2020-02-28T10:42:40Z</time>
      </trkpt>
      <trkpt lat="46.8002" lon="5.68978">
        <ele>571.2</ele>
        <time>2020-02-28T10:42:41Z</time>
      </trkpt>
      <trkpt lat="46.80022" lon="5.68974">
        <ele>571.2</ele>
        <time>2020-02-28T10:42:42Z</time>
      </trkpt>
      <trkpt lat="46.80024" lon="5.68968">
        <ele>571.6</ele>
        <time>2020-02-28T10:42:43Z</time>
      </trkpt>
      <trkpt lat="46.80024" lon="5.68966">
        <ele>571.6</ele>
        <time>2020-02-28T10:42:44Z</time>
      </trkpt>
      <trkpt lat="46.80026" lon="5.68962">
        <ele>571.8</ele>
        <time>2020-02-28T10:42:45Z</time>
      </trkpt>
      <trkpt lat="46.80027" lon="5.68958">
        <ele>572</ele>
        <time>2020-02-28T10:42:46Z</time>
      </trkpt>
      <trkpt lat="46.80028" lon="5.68954">
        <ele>572</ele>
        <time>2020-02-28T10:42:47Z</time>
      </trkpt>
      <trkpt lat="46.80029" lon="5.6895">
        <ele>572.4</ele>
        <time>2020-02-28T10:42:48Z</time>
      </trkpt>
      <trkpt lat="46.80031" lon="5.68945">
        <ele>572.4</ele>
        <time>2020-02-28T10:42:49Z</time>
      </trkpt>
      <trkpt lat="46.80032" lon="5.68941">
        <ele>572.6</ele>
        <time>2020-02-28T10:42:50Z</time>
      </trkpt>
      <trkpt lat="46.80033" lon="5.68937">
        <ele>572.6</ele>
        <time>2020-02-28T10:42:51Z</time>
      </trkpt>
      <trkpt lat="46.80034" lon="5.68933">
        <ele>573</ele>
        <time>2020-02-28T10:42:52Z</time>
      </trkpt>
      <trkpt lat="46.80035" lon="5.68929">
        <ele>573</ele>
        <time>2020-02-28T10:42:53Z</time>
      </trkpt>
      <trkpt lat="46.80036" lon="5.68925">
        <ele>573.2</ele>
        <time>2020-02-28T10:42:54Z</time>
      </trkpt>
      <trkpt lat="46.80036" lon="5.68921">
        <ele>573.2</ele>
        <time>2020-02-28T10:42:55Z</time>
      </trkpt>
      <trkpt lat="46.80037" lon="5.68917">
        <ele>573.6</ele>
        <time>2020-02-28T10:42:56Z</time>
      </trkpt>
      <trkpt lat="46.80038" lon="5.68914">
        <ele>573.8</ele>
        <time>2020-02-28T10:42:57Z</time>
      </trkpt>
      <trkpt lat="46.80039" lon="5.6891">
        <ele>573.8</ele>
        <time>2020-02-28T10:42:58Z</time>
      </trkpt>
      <trkpt lat="46.80039" lon="5.68906">
        <ele>574</ele>
        <time>2020-02-28T10:42:59Z</time>
      </trkpt>
      <trkpt lat="46.8004" lon="5.68902">
        <ele>574</ele>
        <time>2020-02-28T10:43:00Z</time>
      </trkpt>
      <trkpt lat="46.80041" lon="5.68898">
        <ele>574.4</ele>
        <time>2020-02-28T10:43:01Z</time>
      </trkpt>
      <trkpt lat="46.80042" lon="5.68894">
        <ele>574.6</ele>
        <time>2020-02-28T10:43:02Z</time>
      </trkpt>
      <trkpt lat="46.80042" lon="5.6889">
        <ele>574.6</ele>
        <time>2020-02-28T10:43:03Z</time>
      </trkpt>
      <trkpt lat="46.80043" lon="5.68887">
        <ele>575</ele>
        <time>2020-02-28T10:43:04Z</time>
      </trkpt>
      <trkpt lat="46.80044" lon="5.68883">
        <ele>575</ele>
        <time>2020-02-28T10:43:05Z</time>
      </trkpt>
      <trkpt lat="46.80044" lon="5.68879">
        <ele>575.2</ele>
        <time>2020-02-28T10:43:06Z</time>
      </trkpt>
      <trkpt lat="46.80044" lon="5.68875">
        <ele>575.4</ele>
        <time>2020-02-28T10:43:07Z</time>
      </trkpt>
      <trkpt lat="46.80045" lon="5.68871">
        <ele>575.6</ele>
        <time>2020-02-28T10:43:08Z</time>
      </trkpt>
      <trkpt lat="46.80046" lon="5.68868">
        <ele>575.8</ele>
        <time>2020-02-28T10:43:09Z</time>
      </trkpt>
      <trkpt lat="46.80046" lon="5.68864">
        <ele>575.8</ele>
        <time>2020-02-28T10:43:10Z</time>
      </trkpt>
      <trkpt lat="46.80047" lon="5.6886">
        <ele>576.2</ele>
        <time>2020-02-28T10:43:11Z</time>
      </trkpt>
      <trkpt lat="46.80047" lon="5.68856">
        <ele>576.4</ele>
        <time>2020-02-28T10:43:12Z</time>
      </trkpt>
      <trkpt lat="46.80048" lon="5.68852">
        <ele>576.8</ele>
        <time>2020-02-28T10:43:13Z</time>
      </trkpt>
      <trkpt lat="46.80048" lon="5.68848">
        <ele>576.8</ele>
        <time>2020-02-28T10:43:14Z</time>
      </trkpt>
      <trkpt lat="46.80049" lon="5.68842">
        <ele>577</ele>
        <time>2020-02-28T10:43:15Z</time>
      </trkpt>
      <trkpt lat="46.80049" lon="5.6884">
        <ele>577</ele>
        <time>2020-02-28T10:43:16Z</time>
      </trkpt>
      <trkpt lat="46.8005" lon="5.68836">
        <ele>577.4</ele>
        <time>2020-02-28T10:43:17Z</time>
      </trkpt>
      <trkpt lat="46.80051" lon="5.68832">
        <ele>577.4</ele>
        <time>2020-02-28T10:43:18Z</time>
      </trkpt>
      <trkpt lat="46.80052" lon="5.68828">
        <ele>577.8</ele>
        <time>2020-02-28T10:43:19Z</time>
      </trkpt>
      <trkpt lat="46.80052" lon="5.68824">
        <ele>577.8</ele>
        <time>2020-02-28T10:43:20Z</time>
      </trkpt>
      <trkpt lat="46.80053" lon="5.68821">
        <ele>578</ele>
        <time>2020-02-28T10:43:21Z</time>
      </trkpt>
      <trkpt lat="46.80054" lon="5.68817">
        <ele>578</ele>
        <time>2020-02-28T10:43:22Z</time>
      </trkpt>
      <trkpt lat="46.80054" lon="5.68811">
        <ele>578.2</ele>
        <time>2020-02-28T10:43:23Z</time>
      </trkpt>
      <trkpt lat="46.80055" lon="5.6881">
        <ele>578.6</ele>
        <time>2020-02-28T10:43:24Z</time>
      </trkpt>
      <trkpt lat="46.80055" lon="5.68806">
        <ele>578.6</ele>
        <time>2020-02-28T10:43:25Z</time>
      </trkpt>
      <trkpt lat="46.80056" lon="5.68802">
        <ele>578.8</ele>
        <time>2020-02-28T10:43:26Z</time>
      </trkpt>
      <trkpt lat="46.80056" lon="5.68799">
        <ele>578.8</ele>
        <time>2020-02-28T10:43:27Z</time>
      </trkpt>
      <trkpt lat="46.80057" lon="5.68795">
        <ele>579</ele>
        <time>2020-02-28T10:43:28Z</time>
      </trkpt>
      <trkpt lat="46.80058" lon="5.68792">
        <ele>579.2</ele>
        <time>2020-02-28T10:43:29Z</time>
      </trkpt>
      <trkpt lat="46.80059" lon="5.68788">
        <ele>579.2</ele>
        <time>2020-02-28T10:43:30Z</time>
      </trkpt>
      <trkpt lat="46.8006" lon="5.68785">
        <ele>579.6</ele>
        <time>2020-02-28T10:43:31Z</time>
      </trkpt>
      <trkpt lat="46.80061" lon="5.68781">
        <ele>579.6</ele>
        <time>2020-02-28T10:43:32Z</time>
      </trkpt>
      <trkpt lat="46.80061" lon="5.68777">
        <ele>579.6</ele>
        <time>2020-02-28T10:43:33Z</time>
      </trkpt>
      <trkpt lat="46.80062" lon="5.68774">
        <ele>579.8</ele>
        <time>2020-02-28T10:43:34Z</time>
      </trkpt>
      <trkpt lat="46.80063" lon="5.6877">
        <ele>579.8</ele>
        <time>2020-02-28T10:43:35Z</time>
      </trkpt>
      <trkpt lat="46.80064" lon="5.68767">
        <ele>579.8</ele>
        <time>2020-02-28T10:43:36Z</time>
      </trkpt>
      <trkpt lat="46.80065" lon="5.68763">
        <ele>580</ele>
        <time>2020-02-28T10:43:37Z</time>
      </trkpt>
      <trkpt lat="46.80065" lon="5.68759">
        <ele>580</ele>
        <time>2020-02-28T10:43:38Z</time>
      </trkpt>
      <trkpt lat="46.80065" lon="5.68755">
        <ele>580</ele>
        <time>2020-02-28T10:43:39Z</time>
      </trkpt>
      <trkpt lat="46.80066" lon="5.68752">
        <ele>580</ele>
        <time>2020-02-28T10:43:40Z</time>
      </trkpt>
      <trkpt lat="46.80067" lon="5.68745">
        <ele>580.4</ele>
        <time>2020-02-28T10:43:41Z</time>
      </trkpt>
      <trkpt lat="46.80067" lon="5.68743">
        <ele>580.4</ele>
        <time>2020-02-28T10:43:42Z</time>
      </trkpt>
      <trkpt lat="46.80067" lon="5.68739">
        <ele>580.6</ele>
        <time>2020-02-28T10:43:43Z</time>
      </trkpt>
      <trkpt lat="46.80068" lon="5.68735">
        <ele>580.6</ele>
        <time>2020-02-28T10:43:44Z</time>
      </trkpt>
      <trkpt lat="46.80068" lon="5.68731">
        <ele>580.6</ele>
        <time>2020-02-28T10:43:45Z</time>
      </trkpt>
      <trkpt lat="46.80069" lon="5.68727">
        <ele>580.8</ele>
        <time>2020-02-28T10:43:46Z</time>
      </trkpt>
      <trkpt lat="46.80069" lon="5.68722">
        <ele>580.8</ele>
        <time>2020-02-28T10:43:47Z</time>
      </trkpt>
      <trkpt lat="46.8007" lon="5.68718">
        <ele>580.8</ele>
        <time>2020-02-28T10:43:48Z</time>
      </trkpt>
      <trkpt lat="46.8007" lon="5.68713">
        <ele>580.8</ele>
        <time>2020-02-28T10:43:49Z</time>
      </trkpt>
      <trkpt lat="46.8007" lon="5.68709">
        <ele>581</ele>
        <time>2020-02-28T10:43:50Z</time>
      </trkpt>
      <trkpt lat="46.8007" lon="5.68704">
        <ele>581</ele>
        <time>2020-02-28T10:43:51Z</time>
      </trkpt>
      <trkpt lat="46.80071" lon="5.68699">
        <ele>581.4</ele>
        <time>2020-02-28T10:43:52Z</time>
      </trkpt>
      <trkpt lat="46.80071" lon="5.68695">
        <ele>581.4</ele>
        <time>2020-02-28T10:43:53Z</time>
      </trkpt>
      <trkpt lat="46.80071" lon="5.6869">
        <ele>581.6</ele>
        <time>2020-02-28T10:43:54Z</time>
      </trkpt>
      <trkpt lat="46.80072" lon="5.68685">
        <ele>581.6</ele>
        <time>2020-02-28T10:43:55Z</time>
      </trkpt>
      <trkpt lat="46.80072" lon="5.68681">
        <ele>581.8</ele>
        <time>2020-02-28T10:43:56Z</time>
      </trkpt>
      <trkpt lat="46.80074" lon="5.68674">
        <ele>581.8</ele>
        <time>2020-02-28T10:43:57Z</time>
      </trkpt>
      <trkpt lat="46.80074" lon="5.68672">
        <ele>582</ele>
        <time>2020-02-28T10:43:58Z</time>
      </trkpt>
      <trkpt lat="46.80074" lon="5.68665">
        <ele>582</ele>
        <time>2020-02-28T10:43:59Z</time>
      </trkpt>
      <trkpt lat="46.80074" lon="5.68662">
        <ele>582.2</ele>
        <time>2020-02-28T10:44:00Z</time>
      </trkpt>
      <trkpt lat="46.80074" lon="5.68658">
        <ele>582.2</ele>
        <time>2020-02-28T10:44:01Z</time>
      </trkpt>
      <trkpt lat="46.80072" lon="5.6865">
        <ele>582.4</ele>
        <time>2020-02-28T10:44:02Z</time>
      </trkpt>
      <trkpt lat="46.80072" lon="5.68648">
        <ele>582.4</ele>
        <time>2020-02-28T10:44:03Z</time>
      </trkpt>
      <trkpt lat="46.80071" lon="5.68643">
        <ele>582.8</ele>
        <time>2020-02-28T10:44:04Z</time>
      </trkpt>
      <trkpt lat="46.80069" lon="5.68638">
        <ele>582.8</ele>
        <time>2020-02-28T10:44:05Z</time>
      </trkpt>
      <trkpt lat="46.80066" lon="5.68633">
        <ele>583</ele>
        <time>2020-02-28T10:44:06Z</time>
      </trkpt>
      <trkpt lat="46.80065" lon="5.68631">
        <ele>583</ele>
        <time>2020-02-28T10:44:07Z</time>
      </trkpt>
      <trkpt lat="46.80062" lon="5.68627">
        <ele>583.4</ele>
        <time>2020-02-28T10:44:08Z</time>
      </trkpt>
      <trkpt lat="46.80061" lon="5.68626">
        <ele>583.4</ele>
        <time>2020-02-28T10:44:09Z</time>
      </trkpt>
      <trkpt lat="46.80058" lon="5.68623">
        <ele>583.4</ele>
        <time>2020-02-28T10:44:10Z</time>
      </trkpt>
      <trkpt lat="46.80056" lon="5.68621">
        <ele>583.4</ele>
        <time>2020-02-28T10:44:11Z</time>
      </trkpt>
      <trkpt lat="46.80053" lon="5.68618">
        <ele>583.4</ele>
        <time>2020-02-28T10:44:12Z</time>
      </trkpt>
      <trkpt lat="46.80051" lon="5.68616">
        <ele>583.4</ele>
        <time>2020-02-28T10:44:13Z</time>
      </trkpt>
      <trkpt lat="46.80048" lon="5.68613">
        <ele>583.6</ele>
        <time>2020-02-28T10:44:14Z</time>
      </trkpt>
      <trkpt lat="46.80046" lon="5.6861">
        <ele>583.6</ele>
        <time>2020-02-28T10:44:15Z</time>
      </trkpt>
      <trkpt lat="46.80044" lon="5.68607">
        <ele>583.6</ele>
        <time>2020-02-28T10:44:16Z</time>
      </trkpt>
      <trkpt lat="46.80041" lon="5.68604">
        <ele>583.6</ele>
        <time>2020-02-28T10:44:17Z</time>
      </trkpt>
      <trkpt lat="46.80039" lon="5.68602">
        <ele>583.6</ele>
        <time>2020-02-28T10:44:18Z</time>
      </trkpt>
      <trkpt lat="46.80036" lon="5.68599">
        <ele>583.6</ele>
        <time>2020-02-28T10:44:19Z</time>
      </trkpt>
      <trkpt lat="46.80034" lon="5.68596">
        <ele>583.6</ele>
        <time>2020-02-28T10:44:20Z</time>
      </trkpt>
      <trkpt lat="46.8003" lon="5.68593">
        <ele>583.6</ele>
        <time>2020-02-28T10:44:21Z</time>
      </trkpt>
      <trkpt lat="46.80027" lon="5.6859">
        <ele>583.6</ele>
        <time>2020-02-28T10:44:22Z</time>
      </trkpt>
      <trkpt lat="46.80024" lon="5.68587">
        <ele>583.2</ele>
        <time>2020-02-28T10:44:23Z</time>
      </trkpt>
      <trkpt lat="46.80021" lon="5.68584">
        <ele>583.2</ele>
        <time>2020-02-28T10:44:24Z</time>
      </trkpt>
      <trkpt lat="46.80018" lon="5.68579">
        <ele>583.2</ele>
        <time>2020-02-28T10:44:25Z</time>
      </trkpt>
      <trkpt lat="46.80015" lon="5.68575">
        <ele>583</ele>
        <time>2020-02-28T10:44:26Z</time>
      </trkpt>
      <trkpt lat="46.80012" lon="5.68571">
        <ele>583</ele>
        <time>2020-02-28T10:44:27Z</time>
      </trkpt>
      <trkpt lat="46.80008" lon="5.68566">
        <ele>583</ele>
        <time>2020-02-28T10:44:28Z</time>
      </trkpt>
      <trkpt lat="46.80005" lon="5.68562">
        <ele>582.6</ele>
        <time>2020-02-28T10:44:29Z</time>
      </trkpt>
      <trkpt lat="46.80003" lon="5.68558">
        <ele>582.6</ele>
        <time>2020-02-28T10:44:30Z</time>
      </trkpt>
      <trkpt lat="46.8" lon="5.68553">
        <ele>582.4</ele>
        <time>2020-02-28T10:44:31Z</time>
      </trkpt>
      <trkpt lat="46.79999" lon="5.68549">
        <ele>582.4</ele>
        <time>2020-02-28T10:44:32Z</time>
      </trkpt>
      <trkpt lat="46.79997" lon="5.68545">
        <ele>582.4</ele>
        <time>2020-02-28T10:44:33Z</time>
      </trkpt>
      <trkpt lat="46.79994" lon="5.68542">
        <ele>582.4</ele>
        <time>2020-02-28T10:44:34Z</time>
      </trkpt>
      <trkpt lat="46.79992" lon="5.6854">
        <ele>582.4</ele>
        <time>2020-02-28T10:44:35Z</time>
      </trkpt>
      <trkpt lat="46.79989" lon="5.68538">
        <ele>582.4</ele>
        <time>2020-02-28T10:44:36Z</time>
      </trkpt>
      <trkpt lat="46.79986" lon="5.68538">
        <ele>582.4</ele>
        <time>2020-02-28T10:44:37Z</time>
      </trkpt>
      <trkpt lat="46.79983" lon="5.68538">
        <ele>582.4</ele>
        <time>2020-02-28T10:44:38Z</time>
      </trkpt>
      <trkpt lat="46.7998" lon="5.6854">
        <ele>582.4</ele>
        <time>2020-02-28T10:44:39Z</time>
      </trkpt>
      <trkpt lat="46.79977" lon="5.68543">
        <ele>582.4</ele>
        <time>2020-02-28T10:44:40Z</time>
      </trkpt>
      <trkpt lat="46.79974" lon="5.68546">
        <ele>582.2</ele>
        <time>2020-02-28T10:44:41Z</time>
      </trkpt>
      <trkpt lat="46.79971" lon="5.68549">
        <ele>582.2</ele>
        <time>2020-02-28T10:44:42Z</time>
      </trkpt>
      <trkpt lat="46.79965" lon="5.68555">
        <ele>582</ele>
        <time>2020-02-28T10:44:43Z</time>
      </trkpt>
      <trkpt lat="46.79963" lon="5.68556">
        <ele>582</ele>
        <time>2020-02-28T10:44:44Z</time>
      </trkpt>
      <trkpt lat="46.79959" lon="5.68559">
        <ele>581.6</ele>
        <time>2020-02-28T10:44:45Z</time>
      </trkpt>
      <trkpt lat="46.79955" lon="5.68563">
        <ele>581.6</ele>
        <time>2020-02-28T10:44:46Z</time>
      </trkpt>
      <trkpt lat="46.79951" lon="5.68566">
        <ele>581.2</ele>
        <time>2020-02-28T10:44:47Z</time>
      </trkpt>
      <trkpt lat="46.79943" lon="5.68572">
        <ele>581.2</ele>
        <time>2020-02-28T10:44:48Z</time>
      </trkpt>
      <trkpt lat="46.79941" lon="5.68574">
        <ele>580.8</ele>
        <time>2020-02-28T10:44:49Z</time>
      </trkpt>
      <trkpt lat="46.79936" lon="5.68577">
        <ele>580.8</ele>
        <time>2020-02-28T10:44:50Z</time>
      </trkpt>
      <trkpt lat="46.7993" lon="5.6858">
        <ele>580.4</ele>
        <time>2020-02-28T10:44:51Z</time>
      </trkpt>
      <trkpt lat="46.79924" lon="5.68584">
        <ele>580.2</ele>
        <time>2020-02-28T10:44:52Z</time>
      </trkpt>
      <trkpt lat="46.79918" lon="5.68587">
        <ele>580</ele>
        <time>2020-02-28T10:44:53Z</time>
      </trkpt>
      <trkpt lat="46.79911" lon="5.6859">
        <ele>579.6</ele>
        <time>2020-02-28T10:44:54Z</time>
      </trkpt>
      <trkpt lat="46.79905" lon="5.68593">
        <ele>579.4</ele>
        <time>2020-02-28T10:44:55Z</time>
      </trkpt>
      <trkpt lat="46.79898" lon="5.68597">
        <ele>579</ele>
        <time>2020-02-28T10:44:56Z</time>
      </trkpt>
      <trkpt lat="46.79891" lon="5.686">
        <ele>578.6</ele>
        <time>2020-02-28T10:44:57Z</time>
      </trkpt>
      <trkpt lat="46.79884" lon="5.68604">
        <ele>578.2</ele>
        <time>2020-02-28T10:44:58Z</time>
      </trkpt>
      <trkpt lat="46.79877" lon="5.68607">
        <ele>577.8</ele>
        <time>2020-02-28T10:44:59Z</time>
      </trkpt>
      <trkpt lat="46.7987" lon="5.68611">
        <ele>577.4</ele>
        <time>2020-02-28T10:45:00Z</time>
      </trkpt>
      <trkpt lat="46.79862" lon="5.68614">
        <ele>577.2</ele>
        <time>2020-02-28T10:45:01Z</time>
      </trkpt>
      <trkpt lat="46.79855" lon="5.68618">
        <ele>576.8</ele>
        <time>2020-02-28T10:45:02Z</time>
      </trkpt>
      <trkpt lat="46.79848" lon="5.68623">
        <ele>576.4</ele>
        <time>2020-02-28T10:45:03Z</time>
      </trkpt>
      <trkpt lat="46.79841" lon="5.68627">
        <ele>576</ele>
        <time>2020-02-28T10:45:04Z</time>
      </trkpt>
      <trkpt lat="46.79833" lon="5.68632">
        <ele>575.6</ele>
        <time>2020-02-28T10:45:05Z</time>
      </trkpt>
      <trkpt lat="46.79825" lon="5.68636">
        <ele>575</ele>
        <time>2020-02-28T10:45:06Z</time>
      </trkpt>
      <trkpt lat="46.79817" lon="5.6864">
        <ele>574.6</ele>
        <time>2020-02-28T10:45:07Z</time>
      </trkpt>
      <trkpt lat="46.79809" lon="5.68644">
        <ele>574</ele>
        <time>2020-02-28T10:45:08Z</time>
      </trkpt>
      <trkpt lat="46.798" lon="5.68648">
        <ele>573.4</ele>
        <time>2020-02-28T10:45:09Z</time>
      </trkpt>
      <trkpt lat="46.79792" lon="5.68652">
        <ele>572.6</ele>
        <time>2020-02-28T10:45:10Z</time>
      </trkpt>
      <trkpt lat="46.79784" lon="5.68656">
        <ele>572</ele>
        <time>2020-02-28T10:45:11Z</time>
      </trkpt>
      <trkpt lat="46.79776" lon="5.6866">
        <ele>571.2</ele>
        <time>2020-02-28T10:45:12Z</time>
      </trkpt>
      <trkpt lat="46.79768" lon="5.68664">
        <ele>570.4</ele>
        <time>2020-02-28T10:45:13Z</time>
      </trkpt>
      <trkpt lat="46.79761" lon="5.68668">
        <ele>569.6</ele>
        <time>2020-02-28T10:45:14Z</time>
      </trkpt>
      <trkpt lat="46.79754" lon="5.68672">
        <ele>569</ele>
        <time>2020-02-28T10:45:15Z</time>
      </trkpt>
      <trkpt lat="46.79747" lon="5.68675">
        <ele>568.2</ele>
        <time>2020-02-28T10:45:16Z</time>
      </trkpt>
      <trkpt lat="46.7974" lon="5.68678">
        <ele>567.6</ele>
        <time>2020-02-28T10:45:17Z</time>
      </trkpt>
      <trkpt lat="46.79733" lon="5.68681">
        <ele>567.2</ele>
        <time>2020-02-28T10:45:18Z</time>
      </trkpt>
      <trkpt lat="46.79726" lon="5.68684">
        <ele>566.6</ele>
        <time>2020-02-28T10:45:19Z</time>
      </trkpt>
      <trkpt lat="46.79719" lon="5.68688">
        <ele>566.2</ele>
        <time>2020-02-28T10:45:20Z</time>
      </trkpt>
      <trkpt lat="46.79712" lon="5.68692">
        <ele>565.6</ele>
        <time>2020-02-28T10:45:21Z</time>
      </trkpt>
      <trkpt lat="46.79705" lon="5.68697">
        <ele>565.4</ele>
        <time>2020-02-28T10:45:22Z</time>
      </trkpt>
      <trkpt lat="46.79699" lon="5.68702">
        <ele>565</ele>
        <time>2020-02-28T10:45:23Z</time>
      </trkpt>
      <trkpt lat="46.79692" lon="5.68707">
        <ele>564.8</ele>
        <time>2020-02-28T10:45:24Z</time>
      </trkpt>
      <trkpt lat="46.79685" lon="5.68713">
        <ele>564.6</ele>
        <time>2020-02-28T10:45:25Z</time>
      </trkpt>
      <trkpt lat="46.79679" lon="5.68719">
        <ele>564.4</ele>
        <time>2020-02-28T10:45:26Z</time>
      </trkpt>
      <trkpt lat="46.79672" lon="5.68725">
        <ele>564.2</ele>
        <time>2020-02-28T10:45:27Z</time>
      </trkpt>
      <trkpt lat="46.79665" lon="5.68733">
        <ele>563.4</ele>
        <time>2020-02-28T10:45:28Z</time>
      </trkpt>
      <trkpt lat="46.79659" lon="5.68741">
        <ele>563</ele>
        <time>2020-02-28T10:45:29Z</time>
      </trkpt>
      <trkpt lat="46.79649" lon="5.68754">
        <ele>562.4</ele>
        <time>2020-02-28T10:45:30Z</time>
      </trkpt>
      <trkpt lat="46.79645" lon="5.68758">
        <ele>562</ele>
        <time>2020-02-28T10:45:31Z</time>
      </trkpt>
      <trkpt lat="46.79639" lon="5.68767">
        <ele>561.4</ele>
        <time>2020-02-28T10:45:32Z</time>
      </trkpt>
      <trkpt lat="46.79631" lon="5.68776">
        <ele>561</ele>
        <time>2020-02-28T10:45:33Z</time>
      </trkpt>
      <trkpt lat="46.79624" lon="5.68785">
        <ele>560.4</ele>
        <time>2020-02-28T10:45:34Z</time>
      </trkpt>
      <trkpt lat="46.79617" lon="5.68795">
        <ele>559.8</ele>
        <time>2020-02-28T10:45:35Z</time>
      </trkpt>
      <trkpt lat="46.7961" lon="5.68804">
        <ele>559</ele>
        <time>2020-02-28T10:45:36Z</time>
      </trkpt>
      <trkpt lat="46.79602" lon="5.68813">
        <ele>558.4</ele>
        <time>2020-02-28T10:45:37Z</time>
      </trkpt>
      <trkpt lat="46.79595" lon="5.68822">
        <ele>557.8</ele>
        <time>2020-02-28T10:45:38Z</time>
      </trkpt>
      <trkpt lat="46.79588" lon="5.6883">
        <ele>557.2</ele>
        <time>2020-02-28T10:45:39Z</time>
      </trkpt>
      <trkpt lat="46.7958" lon="5.68838">
        <ele>556.6</ele>
        <time>2020-02-28T10:45:40Z</time>
      </trkpt>
      <trkpt lat="46.79572" lon="5.68844">
        <ele>556</ele>
        <time>2020-02-28T10:45:41Z</time>
      </trkpt>
      <trkpt lat="46.79564" lon="5.68847">
        <ele>555.4</ele>
        <time>2020-02-28T10:45:42Z</time>
      </trkpt>
      <trkpt lat="46.79556" lon="5.68848">
        <ele>554.8</ele>
        <time>2020-02-28T10:45:43Z</time>
      </trkpt>
      <trkpt lat="46.79548" lon="5.68846">
        <ele>554.2</ele>
        <time>2020-02-28T10:45:44Z</time>
      </trkpt>
      <trkpt lat="46.79539" lon="5.68841">
        <ele>553.4</ele>
        <time>2020-02-28T10:45:45Z</time>
      </trkpt>
      <trkpt lat="46.79532" lon="5.68834">
        <ele>553</ele>
        <time>2020-02-28T10:45:46Z</time>
      </trkpt>
      <trkpt lat="46.79525" lon="5.68826">
        <ele>552.6</ele>
        <time>2020-02-28T10:45:47Z</time>
      </trkpt>
      <trkpt lat="46.79518" lon="5.68818">
        <ele>552.2</ele>
        <time>2020-02-28T10:45:48Z</time>
      </trkpt>
      <trkpt lat="46.79511" lon="5.68809">
        <ele>551.8</ele>
        <time>2020-02-28T10:45:49Z</time>
      </trkpt>
      <trkpt lat="46.79503" lon="5.68802">
        <ele>551.8</ele>
        <time>2020-02-28T10:45:50Z</time>
      </trkpt>
      <trkpt lat="46.79496" lon="5.68795">
        <ele>551.4</ele>
        <time>2020-02-28T10:45:51Z</time>
      </trkpt>
      <trkpt lat="46.79488" lon="5.6879">
        <ele>551.4</ele>
        <time>2020-02-28T10:45:52Z</time>
      </trkpt>
      <trkpt lat="46.79481" lon="5.68785">
        <ele>551.4</ele>
        <time>2020-02-28T10:45:53Z</time>
      </trkpt>
      <trkpt lat="46.79473" lon="5.68782">
        <ele>551.2</ele>
        <time>2020-02-28T10:45:54Z</time>
      </trkpt>
      <trkpt lat="46.79465" lon="5.68781">
        <ele>551.2</ele>
        <time>2020-02-28T10:45:55Z</time>
      </trkpt>
      <trkpt lat="46.79458" lon="5.6878">
        <ele>551.4</ele>
        <time>2020-02-28T10:45:56Z</time>
      </trkpt>
      <trkpt lat="46.79451" lon="5.68779">
        <ele>551.4</ele>
        <time>2020-02-28T10:45:57Z</time>
      </trkpt>
      <trkpt lat="46.79443" lon="5.6878">
        <ele>551.4</ele>
        <time>2020-02-28T10:45:58Z</time>
      </trkpt>
      <trkpt lat="46.79435" lon="5.68782">
        <ele>551.2</ele>
        <time>2020-02-28T10:45:59Z</time>
      </trkpt>
      <trkpt lat="46.79428" lon="5.68784">
        <ele>551</ele>
        <time>2020-02-28T10:46:00Z</time>
      </trkpt>
      <trkpt lat="46.7942" lon="5.68787">
        <ele>550.8</ele>
        <time>2020-02-28T10:46:01Z</time>
      </trkpt>
      <trkpt lat="46.79412" lon="5.68791">
        <ele>550.6</ele>
        <time>2020-02-28T10:46:02Z</time>
      </trkpt>
      <trkpt lat="46.79405" lon="5.68796">
        <ele>550.4</ele>
        <time>2020-02-28T10:46:03Z</time>
      </trkpt>
      <trkpt lat="46.79397" lon="5.688">
        <ele>550</ele>
        <time>2020-02-28T10:46:04Z</time>
      </trkpt>
      <trkpt lat="46.79389" lon="5.68805">
        <ele>549.6</ele>
        <time>2020-02-28T10:46:05Z</time>
      </trkpt>
      <trkpt lat="46.79382" lon="5.68809">
        <ele>549.2</ele>
        <time>2020-02-28T10:46:06Z</time>
      </trkpt>
      <trkpt lat="46.79374" lon="5.68814">
        <ele>549</ele>
        <time>2020-02-28T10:46:07Z</time>
      </trkpt>
      <trkpt lat="46.79366" lon="5.68818">
        <ele>549</ele>
        <time>2020-02-28T10:46:08Z</time>
      </trkpt>
      <trkpt lat="46.79359" lon="5.68822">
        <ele>548.6</ele>
        <time>2020-02-28T10:46:09Z</time>
      </trkpt>
      <trkpt lat="46.79351" lon="5.68826">
        <ele>548.2</ele>
        <time>2020-02-28T10:46:10Z</time>
      </trkpt>
      <trkpt lat="46.79342" lon="5.6883">
        <ele>547.8</ele>
        <time>2020-02-28T10:46:11Z</time>
      </trkpt>
      <trkpt lat="46.79334" lon="5.68833">
        <ele>547.6</ele>
        <time>2020-02-28T10:46:12Z</time>
      </trkpt>
      <trkpt lat="46.79326" lon="5.68835">
        <ele>547.2</ele>
        <time>2020-02-28T10:46:13Z</time>
      </trkpt>
      <trkpt lat="46.79317" lon="5.68838">
        <ele>546.8</ele>
        <time>2020-02-28T10:46:14Z</time>
      </trkpt>
      <trkpt lat="46.79309" lon="5.6884">
        <ele>546.8</ele>
        <time>2020-02-28T10:46:15Z</time>
      </trkpt>
      <trkpt lat="46.79301" lon="5.68843">
        <ele>546.4</ele>
        <time>2020-02-28T10:46:16Z</time>
      </trkpt>
      <trkpt lat="46.79292" lon="5.68846">
        <ele>546.4</ele>
        <time>2020-02-28T10:46:17Z</time>
      </trkpt>
      <trkpt lat="46.79283" lon="5.6885">
        <ele>546</ele>
        <time>2020-02-28T10:46:18Z</time>
      </trkpt>
      <trkpt lat="46.79274" lon="5.68854">
        <ele>545.8</ele>
        <time>2020-02-28T10:46:19Z</time>
      </trkpt>
      <trkpt lat="46.79265" lon="5.68858">
        <ele>545.8</ele>
        <time>2020-02-28T10:46:20Z</time>
      </trkpt>
      <trkpt lat="46.79256" lon="5.68862">
        <ele>545.4</ele>
        <time>2020-02-28T10:46:21Z</time>
      </trkpt>
      <trkpt lat="46.79248" lon="5.68868">
        <ele>545.2</ele>
        <time>2020-02-28T10:46:22Z</time>
      </trkpt>
      <trkpt lat="46.7924" lon="5.68872">
        <ele>545</ele>
        <time>2020-02-28T10:46:23Z</time>
      </trkpt>
      <trkpt lat="46.79231" lon="5.68877">
        <ele>545</ele>
        <time>2020-02-28T10:46:24Z</time>
      </trkpt>
      <trkpt lat="46.79223" lon="5.68881">
        <ele>544.6</ele>
        <time>2020-02-28T10:46:25Z</time>
      </trkpt>
      <trkpt lat="46.79216" lon="5.68885">
        <ele>544.4</ele>
        <time>2020-02-28T10:46:26Z</time>
      </trkpt>
      <trkpt lat="46.79208" lon="5.6889">
        <ele>544.2</ele>
        <time>2020-02-28T10:46:27Z</time>
      </trkpt>
      <trkpt lat="46.792" lon="5.68893">
        <ele>544.2</ele>
        <time>2020-02-28T10:46:28Z</time>
      </trkpt>
      <trkpt lat="46.79193" lon="5.68897">
        <ele>543.8</ele>
        <time>2020-02-28T10:46:29Z</time>
      </trkpt>
      <trkpt lat="46.79185" lon="5.68901">
        <ele>543.8</ele>
        <time>2020-02-28T10:46:30Z</time>
      </trkpt>
      <trkpt lat="46.79177" lon="5.68904">
        <ele>543.8</ele>
        <time>2020-02-28T10:46:31Z</time>
      </trkpt>
      <trkpt lat="46.7917" lon="5.68907">
        <ele>543.8</ele>
        <time>2020-02-28T10:46:32Z</time>
      </trkpt>
      <trkpt lat="46.79163" lon="5.68911">
        <ele>543.8</ele>
        <time>2020-02-28T10:46:33Z</time>
      </trkpt>
      <trkpt lat="46.79156" lon="5.68914">
        <ele>543.8</ele>
        <time>2020-02-28T10:46:34Z</time>
      </trkpt>
      <trkpt lat="46.79149" lon="5.68917">
        <ele>543.8</ele>
        <time>2020-02-28T10:46:35Z</time>
      </trkpt>
      <trkpt lat="46.79142" lon="5.68919">
        <ele>543.8</ele>
        <time>2020-02-28T10:46:36Z</time>
      </trkpt>
      <trkpt lat="46.79134" lon="5.68922">
        <ele>543.8</ele>
        <time>2020-02-28T10:46:37Z</time>
      </trkpt>
      <trkpt lat="46.79127" lon="5.68923">
        <ele>543.8</ele>
        <time>2020-02-28T10:46:38Z</time>
      </trkpt>
      <trkpt lat="46.7912" lon="5.68925">
        <ele>543.8</ele>
        <time>2020-02-28T10:46:39Z</time>
      </trkpt>
      <trkpt lat="46.79113" lon="5.68926">
        <ele>543.8</ele>
        <time>2020-02-28T10:46:40Z</time>
      </trkpt>
      <trkpt lat="46.79106" lon="5.68927">
        <ele>543.8</ele>
        <time>2020-02-28T10:46:41Z</time>
      </trkpt>
      <trkpt lat="46.79098" lon="5.68927">
        <ele>543.8</ele>
        <time>2020-02-28T10:46:42Z</time>
      </trkpt>
      <trkpt lat="46.79091" lon="5.68927">
        <ele>543.8</ele>
        <time>2020-02-28T10:46:43Z</time>
      </trkpt>
      <trkpt lat="46.79083" lon="5.68927">
        <ele>543.2</ele>
        <time>2020-02-28T10:46:44Z</time>
      </trkpt>
      <trkpt lat="46.79075" lon="5.68926">
        <ele>543</ele>
        <time>2020-02-28T10:46:45Z</time>
      </trkpt>
      <trkpt lat="46.79067" lon="5.68926">
        <ele>542.8</ele>
        <time>2020-02-28T10:46:46Z</time>
      </trkpt>
      <trkpt lat="46.79058" lon="5.68925">
        <ele>542.4</ele>
        <time>2020-02-28T10:46:47Z</time>
      </trkpt>
      <trkpt lat="46.7905" lon="5.68925">
        <ele>542</ele>
        <time>2020-02-28T10:46:48Z</time>
      </trkpt>
      <trkpt lat="46.79041" lon="5.68926">
        <ele>541.6</ele>
        <time>2020-02-28T10:46:49Z</time>
      </trkpt>
      <trkpt lat="46.79032" lon="5.68927">
        <ele>541.2</ele>
        <time>2020-02-28T10:46:50Z</time>
      </trkpt>
      <trkpt lat="46.79019" lon="5.68929">
        <ele>540.8</ele>
        <time>2020-02-28T10:46:51Z</time>
      </trkpt>
      <trkpt lat="46.79015" lon="5.68929">
        <ele>540.6</ele>
        <time>2020-02-28T10:46:52Z</time>
      </trkpt>
      <trkpt lat="46.79006" lon="5.68931">
        <ele>540.2</ele>
        <time>2020-02-28T10:46:53Z</time>
      </trkpt>
      <trkpt lat="46.78998" lon="5.68932">
        <ele>540.2</ele>
        <time>2020-02-28T10:46:54Z</time>
      </trkpt>
      <trkpt lat="46.78989" lon="5.68933">
        <ele>540.2</ele>
        <time>2020-02-28T10:46:55Z</time>
      </trkpt>
      <trkpt lat="46.78981" lon="5.68935">
        <ele>540.2</ele>
        <time>2020-02-28T10:46:56Z</time>
      </trkpt>
      <trkpt lat="46.78974" lon="5.68936">
        <ele>540</ele>
        <time>2020-02-28T10:46:57Z</time>
      </trkpt>
      <trkpt lat="46.78967" lon="5.68937">
        <ele>540</ele>
        <time>2020-02-28T10:46:58Z</time>
      </trkpt>
      <trkpt lat="46.7896" lon="5.68939">
        <ele>540</ele>
        <time>2020-02-28T10:46:59Z</time>
      </trkpt>
      <trkpt lat="46.78953" lon="5.6894">
        <ele>540</ele>
        <time>2020-02-28T10:47:00Z</time>
      </trkpt>
      <trkpt lat="46.78946" lon="5.68942">
        <ele>540</ele>
        <time>2020-02-28T10:47:01Z</time>
      </trkpt>
      <trkpt lat="46.78939" lon="5.68943">
        <ele>540</ele>
        <time>2020-02-28T10:47:02Z</time>
      </trkpt>
      <trkpt lat="46.78933" lon="5.68944">
        <ele>540</ele>
        <time>2020-02-28T10:47:03Z</time>
      </trkpt>
      <trkpt lat="46.78926" lon="5.68946">
        <ele>540</ele>
        <time>2020-02-28T10:47:04Z</time>
      </trkpt>
      <trkpt lat="46.7892" lon="5.68947">
        <ele>540</ele>
        <time>2020-02-28T10:47:05Z</time>
      </trkpt>
      <trkpt lat="46.78913" lon="5.68948">
        <ele>540</ele>
        <time>2020-02-28T10:47:06Z</time>
      </trkpt>
      <trkpt lat="46.78907" lon="5.68949">
        <ele>540</ele>
        <time>2020-02-28T10:47:07Z</time>
      </trkpt>
      <trkpt lat="46.78901" lon="5.6895">
        <ele>540</ele>
        <time>2020-02-28T10:47:08Z</time>
      </trkpt>
      <trkpt lat="46.78894" lon="5.68951">
        <ele>540</ele>
        <time>2020-02-28T10:47:09Z</time>
      </trkpt>
      <trkpt lat="46.78888" lon="5.68952">
        <ele>540</ele>
        <time>2020-02-28T10:47:10Z</time>
      </trkpt>
      <trkpt lat="46.78882" lon="5.68953">
        <ele>540</ele>
        <time>2020-02-28T10:47:11Z</time>
      </trkpt>
      <trkpt lat="46.78876" lon="5.68955">
        <ele>540</ele>
        <time>2020-02-28T10:47:12Z</time>
      </trkpt>
      <trkpt lat="46.7887" lon="5.68956">
        <ele>540</ele>
        <time>2020-02-28T10:47:13Z</time>
      </trkpt>
      <trkpt lat="46.78865" lon="5.68958">
        <ele>540</ele>
        <time>2020-02-28T10:47:14Z</time>
      </trkpt>
      <trkpt lat="46.78859" lon="5.68959">
        <ele>540</ele>
        <time>2020-02-28T10:47:15Z</time>
      </trkpt>
      <trkpt lat="46.78853" lon="5.68961">
        <ele>540</ele>
        <time>2020-02-28T10:47:16Z</time>
      </trkpt>
      <trkpt lat="46.78847" lon="5.68963">
        <ele>540</ele>
        <time>2020-02-28T10:47:17Z</time>
      </trkpt>
      <trkpt lat="46.78842" lon="5.68965">
        <ele>540</ele>
        <time>2020-02-28T10:47:18Z</time>
      </trkpt>
      <trkpt lat="46.78836" lon="5.68967">
        <ele>539.8</ele>
        <time>2020-02-28T10:47:19Z</time>
      </trkpt>
      <trkpt lat="46.7883" lon="5.6897">
        <ele>539.8</ele>
        <time>2020-02-28T10:47:20Z</time>
      </trkpt>
      <trkpt lat="46.78825" lon="5.68972">
        <ele>539.8</ele>
        <time>2020-02-28T10:47:21Z</time>
      </trkpt>
      <trkpt lat="46.7882" lon="5.68975">
        <ele>539.8</ele>
        <time>2020-02-28T10:47:22Z</time>
      </trkpt>
      <trkpt lat="46.78814" lon="5.68977">
        <ele>539.8</ele>
        <time>2020-02-28T10:47:23Z</time>
      </trkpt>
      <trkpt lat="46.78809" lon="5.6898">
        <ele>540</ele>
        <time>2020-02-28T10:47:24Z</time>
      </trkpt>
      <trkpt lat="46.78804" lon="5.68983">
        <ele>540</ele>
        <time>2020-02-28T10:47:25Z</time>
      </trkpt>
      <trkpt lat="46.78798" lon="5.68985">
        <ele>540</ele>
        <time>2020-02-28T10:47:26Z</time>
      </trkpt>
      <trkpt lat="46.78793" lon="5.68988">
        <ele>539.6</ele>
        <time>2020-02-28T10:47:27Z</time>
      </trkpt>
      <trkpt lat="46.78787" lon="5.68991">
        <ele>539.6</ele>
        <time>2020-02-28T10:47:28Z</time>
      </trkpt>
      <trkpt lat="46.78782" lon="5.68995">
        <ele>539.6</ele>
        <time>2020-02-28T10:47:29Z</time>
      </trkpt>
      <trkpt lat="46.78776" lon="5.68998">
        <ele>539.4</ele>
        <time>2020-02-28T10:47:30Z</time>
      </trkpt>
      <trkpt lat="46.78771" lon="5.69001">
        <ele>539.4</ele>
        <time>2020-02-28T10:47:31Z</time>
      </trkpt>
      <trkpt lat="46.78765" lon="5.69004">
        <ele>539.2</ele>
        <time>2020-02-28T10:47:32Z</time>
      </trkpt>
      <trkpt lat="46.78759" lon="5.69008">
        <ele>539.2</ele>
        <time>2020-02-28T10:47:33Z</time>
      </trkpt>
      <trkpt lat="46.78753" lon="5.69011">
        <ele>539</ele>
        <time>2020-02-28T10:47:34Z</time>
      </trkpt>
      <trkpt lat="46.78747" lon="5.69015">
        <ele>538.8</ele>
        <time>2020-02-28T10:47:35Z</time>
      </trkpt>
      <trkpt lat="46.78741" lon="5.69018">
        <ele>538.8</ele>
        <time>2020-02-28T10:47:36Z</time>
      </trkpt>
      <trkpt lat="46.78734" lon="5.69021">
        <ele>538.6</ele>
        <time>2020-02-28T10:47:37Z</time>
      </trkpt>
      <trkpt lat="46.78728" lon="5.69024">
        <ele>538.6</ele>
        <time>2020-02-28T10:47:38Z</time>
      </trkpt>
      <trkpt lat="46.78722" lon="5.69027">
        <ele>538.6</ele>
        <time>2020-02-28T10:47:39Z</time>
      </trkpt>
      <trkpt lat="46.78715" lon="5.6903">
        <ele>538.6</ele>
        <time>2020-02-28T10:47:40Z</time>
      </trkpt>
      <trkpt lat="46.78709" lon="5.69032">
        <ele>538.2</ele>
        <time>2020-02-28T10:47:41Z</time>
      </trkpt>
      <trkpt lat="46.78703" lon="5.69034">
        <ele>538.2</ele>
        <time>2020-02-28T10:47:42Z</time>
      </trkpt>
      <trkpt lat="46.78696" lon="5.69037">
        <ele>538.2</ele>
        <time>2020-02-28T10:47:43Z</time>
      </trkpt>
      <trkpt lat="46.7869" lon="5.69039">
        <ele>538.2</ele>
        <time>2020-02-28T10:47:44Z</time>
      </trkpt>
      <trkpt lat="46.78684" lon="5.6904">
        <ele>538.2</ele>
        <time>2020-02-28T10:47:45Z</time>
      </trkpt>
      <trkpt lat="46.78677" lon="5.69042">
        <ele>538.2</ele>
        <time>2020-02-28T10:47:46Z</time>
      </trkpt>
      <trkpt lat="46.78671" lon="5.69044">
        <ele>538.2</ele>
        <time>2020-02-28T10:47:47Z</time>
      </trkpt>
      <trkpt lat="46.78664" lon="5.69046">
        <ele>538.2</ele>
        <time>2020-02-28T10:47:48Z</time>
      </trkpt>
      <trkpt lat="46.78658" lon="5.69047">
        <ele>538.2</ele>
        <time>2020-02-28T10:47:49Z</time>
      </trkpt>
      <trkpt lat="46.78652" lon="5.69048">
        <ele>538.4</ele>
        <time>2020-02-28T10:47:50Z</time>
      </trkpt>
      <trkpt lat="46.78645" lon="5.69048">
        <ele>538.4</ele>
        <time>2020-02-28T10:47:51Z</time>
      </trkpt>
      <trkpt lat="46.78639" lon="5.69048">
        <ele>538.4</ele>
        <time>2020-02-28T10:47:52Z</time>
      </trkpt>
      <trkpt lat="46.78633" lon="5.69049">
        <ele>538.4</ele>
        <time>2020-02-28T10:47:53Z</time>
      </trkpt>
      <trkpt lat="46.78626" lon="5.69049">
        <ele>538.4</ele>
        <time>2020-02-28T10:47:54Z</time>
      </trkpt>
      <trkpt lat="46.7862" lon="5.69049">
        <ele>538.8</ele>
        <time>2020-02-28T10:47:55Z</time>
      </trkpt>
      <trkpt lat="46.78614" lon="5.69048">
        <ele>538.8</ele>
        <time>2020-02-28T10:47:56Z</time>
      </trkpt>
      <trkpt lat="46.78608" lon="5.69048">
        <ele>538.8</ele>
        <time>2020-02-28T10:47:57Z</time>
      </trkpt>
      <trkpt lat="46.78602" lon="5.69047">
        <ele>538.8</ele>
        <time>2020-02-28T10:47:58Z</time>
      </trkpt>
      <trkpt lat="46.78596" lon="5.69045">
        <ele>538.8</ele>
        <time>2020-02-28T10:47:59Z</time>
      </trkpt>
      <trkpt lat="46.7859" lon="5.69044">
        <ele>538.8</ele>
        <time>2020-02-28T10:48:00Z</time>
      </trkpt>
      <trkpt lat="46.78585" lon="5.69042">
        <ele>538.8</ele>
        <time>2020-02-28T10:48:01Z</time>
      </trkpt>
      <trkpt lat="46.78579" lon="5.6904">
        <ele>538.8</ele>
        <time>2020-02-28T10:48:02Z</time>
      </trkpt>
      <trkpt lat="46.78573" lon="5.69037">
        <ele>538.8</ele>
        <time>2020-02-28T10:48:03Z</time>
      </trkpt>
      <trkpt lat="46.78567" lon="5.69034">
        <ele>538.8</ele>
        <time>2020-02-28T10:48:04Z</time>
      </trkpt>
      <trkpt lat="46.78561" lon="5.69031">
        <ele>538.8</ele>
        <time>2020-02-28T10:48:05Z</time>
      </trkpt>
      <trkpt lat="46.78556" lon="5.69028">
        <ele>538.8</ele>
        <time>2020-02-28T10:48:06Z</time>
      </trkpt>
      <trkpt lat="46.7855" lon="5.69026">
        <ele>538.8</ele>
        <time>2020-02-28T10:48:07Z</time>
      </trkpt>
      <trkpt lat="46.78545" lon="5.69023">
        <ele>539</ele>
        <time>2020-02-28T10:48:08Z</time>
      </trkpt>
      <trkpt lat="46.78539" lon="5.6902">
        <ele>539</ele>
        <time>2020-02-28T10:48:09Z</time>
      </trkpt>
      <trkpt lat="46.78534" lon="5.69017">
        <ele>539</ele>
        <time>2020-02-28T10:48:10Z</time>
      </trkpt>
      <trkpt lat="46.78529" lon="5.69014">
        <ele>539.2</ele>
        <time>2020-02-28T10:48:11Z</time>
      </trkpt>
      <trkpt lat="46.78523" lon="5.6901">
        <ele>539.2</ele>
        <time>2020-02-28T10:48:12Z</time>
      </trkpt>
      <trkpt lat="46.78518" lon="5.69008">
        <ele>539.2</ele>
        <time>2020-02-28T10:48:13Z</time>
      </trkpt>
      <trkpt lat="46.78513" lon="5.69005">
        <ele>539.6</ele>
        <time>2020-02-28T10:48:14Z</time>
      </trkpt>
      <trkpt lat="46.78508" lon="5.69003">
        <ele>539.6</ele>
        <time>2020-02-28T10:48:15Z</time>
      </trkpt>
      <trkpt lat="46.78502" lon="5.69001">
        <ele>539.8</ele>
        <time>2020-02-28T10:48:16Z</time>
      </trkpt>
      <trkpt lat="46.78497" lon="5.69">
        <ele>539.8</ele>
        <time>2020-02-28T10:48:17Z</time>
      </trkpt>
      <trkpt lat="46.78492" lon="5.69">
        <ele>540</ele>
        <time>2020-02-28T10:48:18Z</time>
      </trkpt>
      <trkpt lat="46.78486" lon="5.69001">
        <ele>540</ele>
        <time>2020-02-28T10:48:19Z</time>
      </trkpt>
      <trkpt lat="46.78481" lon="5.69002">
        <ele>540.2</ele>
        <time>2020-02-28T10:48:20Z</time>
      </trkpt>
      <trkpt lat="46.78476" lon="5.69004">
        <ele>540.2</ele>
        <time>2020-02-28T10:48:21Z</time>
      </trkpt>
      <trkpt lat="46.78471" lon="5.69006">
        <ele>540.2</ele>
        <time>2020-02-28T10:48:22Z</time>
      </trkpt>
      <trkpt lat="46.78466" lon="5.6901">
        <ele>540.2</ele>
        <time>2020-02-28T10:48:23Z</time>
      </trkpt>
      <trkpt lat="46.78462" lon="5.69014">
        <ele>540.4</ele>
        <time>2020-02-28T10:48:24Z</time>
      </trkpt>
      <trkpt lat="46.78457" lon="5.69018">
        <ele>540.4</ele>
        <time>2020-02-28T10:48:25Z</time>
      </trkpt>
      <trkpt lat="46.78453" lon="5.69022">
        <ele>540.4</ele>
        <time>2020-02-28T10:48:26Z</time>
      </trkpt>
      <trkpt lat="46.78449" lon="5.69027">
        <ele>540.4</ele>
        <time>2020-02-28T10:48:27Z</time>
      </trkpt>
      <trkpt lat="46.78445" lon="5.69031">
        <ele>540.8</ele>
        <time>2020-02-28T10:48:28Z</time>
      </trkpt>
      <trkpt lat="46.78441" lon="5.69035">
        <ele>540.8</ele>
        <time>2020-02-28T10:48:29Z</time>
      </trkpt>
      <trkpt lat="46.78438" lon="5.6904">
        <ele>540.8</ele>
        <time>2020-02-28T10:48:30Z</time>
      </trkpt>
      <trkpt lat="46.78434" lon="5.69044">
        <ele>541</ele>
        <time>2020-02-28T10:48:31Z</time>
      </trkpt>
      <trkpt lat="46.78431" lon="5.69048">
        <ele>541</ele>
        <time>2020-02-28T10:48:32Z</time>
      </trkpt>
      <trkpt lat="46.78427" lon="5.69052">
        <ele>541.2</ele>
        <time>2020-02-28T10:48:33Z</time>
      </trkpt>
      <trkpt lat="46.78424" lon="5.69056">
        <ele>541.4</ele>
        <time>2020-02-28T10:48:34Z</time>
      </trkpt>
      <trkpt lat="46.78421" lon="5.69061">
        <ele>541.4</ele>
        <time>2020-02-28T10:48:35Z</time>
      </trkpt>
      <trkpt lat="46.78417" lon="5.69065">
        <ele>541.8</ele>
        <time>2020-02-28T10:48:36Z</time>
      </trkpt>
      <trkpt lat="46.78414" lon="5.69069">
        <ele>542</ele>
        <time>2020-02-28T10:48:37Z</time>
      </trkpt>
      <trkpt lat="46.78411" lon="5.69074">
        <ele>542.2</ele>
        <time>2020-02-28T10:48:38Z</time>
      </trkpt>
      <trkpt lat="46.78407" lon="5.69078">
        <ele>542.2</ele>
        <time>2020-02-28T10:48:39Z</time>
      </trkpt>
      <trkpt lat="46.78404" lon="5.69082">
        <ele>542.4</ele>
        <time>2020-02-28T10:48:40Z</time>
      </trkpt>
      <trkpt lat="46.784" lon="5.69086">
        <ele>542.4</ele>
        <time>2020-02-28T10:48:41Z</time>
      </trkpt>
      <trkpt lat="46.78397" lon="5.6909">
        <ele>542.4</ele>
        <time>2020-02-28T10:48:42Z</time>
      </trkpt>
      <trkpt lat="46.78393" lon="5.69094">
        <ele>542.4</ele>
        <time>2020-02-28T10:48:43Z</time>
      </trkpt>
      <trkpt lat="46.78389" lon="5.69099">
        <ele>542.4</ele>
        <time>2020-02-28T10:48:44Z</time>
      </trkpt>
      <trkpt lat="46.78385" lon="5.69103">
        <ele>542.4</ele>
        <time>2020-02-28T10:48:45Z</time>
      </trkpt>
      <trkpt lat="46.7838" lon="5.69107">
        <ele>542.4</ele>
        <time>2020-02-28T10:48:46Z</time>
      </trkpt>
      <trkpt lat="46.78375" lon="5.69111">
        <ele>542.4</ele>
        <time>2020-02-28T10:48:47Z</time>
      </trkpt>
      <trkpt lat="46.7837" lon="5.69116">
        <ele>542.4</ele>
        <time>2020-02-28T10:48:48Z</time>
      </trkpt>
      <trkpt lat="46.78364" lon="5.6912">
        <ele>542.2</ele>
        <time>2020-02-28T10:48:49Z</time>
      </trkpt>
      <trkpt lat="46.78358" lon="5.69124">
        <ele>541.8</ele>
        <time>2020-02-28T10:48:50Z</time>
      </trkpt>
      <trkpt lat="46.78352" lon="5.69128">
        <ele>541.6</ele>
        <time>2020-02-28T10:48:51Z</time>
      </trkpt>
      <trkpt lat="46.78345" lon="5.69132">
        <ele>541.2</ele>
        <time>2020-02-28T10:48:52Z</time>
      </trkpt>
      <trkpt lat="46.78339" lon="5.69135">
        <ele>540.6</ele>
        <time>2020-02-28T10:48:53Z</time>
      </trkpt>
      <trkpt lat="46.78331" lon="5.69139">
        <ele>540.2</ele>
        <time>2020-02-28T10:48:54Z</time>
      </trkpt>
      <trkpt lat="46.78323" lon="5.69142">
        <ele>539.8</ele>
        <time>2020-02-28T10:48:55Z</time>
      </trkpt>
      <trkpt lat="46.78315" lon="5.69144">
        <ele>539.2</ele>
        <time>2020-02-28T10:48:56Z</time>
      </trkpt>
      <trkpt lat="46.78306" lon="5.69146">
        <ele>538.6</ele>
        <time>2020-02-28T10:48:57Z</time>
      </trkpt>
      <trkpt lat="46.78296" lon="5.69148">
        <ele>537.8</ele>
        <time>2020-02-28T10:48:58Z</time>
      </trkpt>
      <trkpt lat="46.78286" lon="5.69148">
        <ele>537.2</ele>
        <time>2020-02-28T10:48:59Z</time>
      </trkpt>
      <trkpt lat="46.78277" lon="5.6915">
        <ele>536.4</ele>
        <time>2020-02-28T10:49:00Z</time>
      </trkpt>
      <trkpt lat="46.78266" lon="5.69151">
        <ele>535.6</ele>
        <time>2020-02-28T10:49:01Z</time>
      </trkpt>
      <trkpt lat="46.78256" lon="5.69153">
        <ele>535</ele>
        <time>2020-02-28T10:49:02Z</time>
      </trkpt>
      <trkpt lat="46.78246" lon="5.69156">
        <ele>534.4</ele>
        <time>2020-02-28T10:49:03Z</time>
      </trkpt>
      <trkpt lat="46.78236" lon="5.6916">
        <ele>534</ele>
        <time>2020-02-28T10:49:04Z</time>
      </trkpt>
      <trkpt lat="46.78226" lon="5.69163">
        <ele>533.4</ele>
        <time>2020-02-28T10:49:05Z</time>
      </trkpt>
      <trkpt lat="46.78216" lon="5.69167">
        <ele>533.2</ele>
        <time>2020-02-28T10:49:06Z</time>
      </trkpt>
      <trkpt lat="46.78206" lon="5.6917">
        <ele>533</ele>
        <time>2020-02-28T10:49:07Z</time>
      </trkpt>
      <trkpt lat="46.78197" lon="5.69174">
        <ele>532.8</ele>
        <time>2020-02-28T10:49:08Z</time>
      </trkpt>
      <trkpt lat="46.78188" lon="5.69177">
        <ele>532.8</ele>
        <time>2020-02-28T10:49:09Z</time>
      </trkpt>
      <trkpt lat="46.78179" lon="5.6918">
        <ele>532.8</ele>
        <time>2020-02-28T10:49:10Z</time>
      </trkpt>
      <trkpt lat="46.78171" lon="5.69181">
        <ele>532.8</ele>
        <time>2020-02-28T10:49:11Z</time>
      </trkpt>
      <trkpt lat="46.78163" lon="5.69184">
        <ele>532.8</ele>
        <time>2020-02-28T10:49:12Z</time>
      </trkpt>
      <trkpt lat="46.78156" lon="5.69186">
        <ele>533.2</ele>
        <time>2020-02-28T10:49:13Z</time>
      </trkpt>
      <trkpt lat="46.78149" lon="5.69188">
        <ele>533.4</ele>
        <time>2020-02-28T10:49:14Z</time>
      </trkpt>
      <trkpt lat="46.78142" lon="5.69191">
        <ele>533.4</ele>
        <time>2020-02-28T10:49:15Z</time>
      </trkpt>
      <trkpt lat="46.78135" lon="5.69193">
        <ele>533.6</ele>
        <time>2020-02-28T10:49:16Z</time>
      </trkpt>
      <trkpt lat="46.78129" lon="5.69195">
        <ele>533.6</ele>
        <time>2020-02-28T10:49:17Z</time>
      </trkpt>
      <trkpt lat="46.78122" lon="5.69197">
        <ele>534</ele>
        <time>2020-02-28T10:49:18Z</time>
      </trkpt>
      <trkpt lat="46.78115" lon="5.692">
        <ele>534</ele>
        <time>2020-02-28T10:49:19Z</time>
      </trkpt>
      <trkpt lat="46.78109" lon="5.69203">
        <ele>534</ele>
        <time>2020-02-28T10:49:20Z</time>
      </trkpt>
      <trkpt lat="46.78102" lon="5.69206">
        <ele>534</ele>
        <time>2020-02-28T10:49:21Z</time>
      </trkpt>
      <trkpt lat="46.78096" lon="5.69208">
        <ele>534</ele>
        <time>2020-02-28T10:49:22Z</time>
      </trkpt>
      <trkpt lat="46.78089" lon="5.69211">
        <ele>534</ele>
        <time>2020-02-28T10:49:23Z</time>
      </trkpt>
      <trkpt lat="46.78083" lon="5.69214">
        <ele>534</ele>
        <time>2020-02-28T10:49:24Z</time>
      </trkpt>
      <trkpt lat="46.78077" lon="5.69217">
        <ele>534</ele>
        <time>2020-02-28T10:49:25Z</time>
      </trkpt>
      <trkpt lat="46.7807" lon="5.6922">
        <ele>534</ele>
        <time>2020-02-28T10:49:26Z</time>
      </trkpt>
      <trkpt lat="46.78064" lon="5.69223">
        <ele>534</ele>
        <time>2020-02-28T10:49:27Z</time>
      </trkpt>
      <trkpt lat="46.78058" lon="5.69226">
        <ele>534.2</ele>
        <time>2020-02-28T10:49:28Z</time>
      </trkpt>
      <trkpt lat="46.78053" lon="5.6923">
        <ele>534.2</ele>
        <time>2020-02-28T10:49:29Z</time>
      </trkpt>
      <trkpt lat="46.78047" lon="5.69233">
        <ele>534.2</ele>
        <time>2020-02-28T10:49:30Z</time>
      </trkpt>
      <trkpt lat="46.78042" lon="5.69236">
        <ele>534.4</ele>
        <time>2020-02-28T10:49:31Z</time>
      </trkpt>
      <trkpt lat="46.78036" lon="5.69238">
        <ele>534.4</ele>
        <time>2020-02-28T10:49:32Z</time>
      </trkpt>
      <trkpt lat="46.78031" lon="5.6924">
        <ele>534.8</ele>
        <time>2020-02-28T10:49:33Z</time>
      </trkpt>
      <trkpt lat="46.78026" lon="5.69242">
        <ele>534.8</ele>
        <time>2020-02-28T10:49:34Z</time>
      </trkpt>
      <trkpt lat="46.78022" lon="5.69244">
        <ele>535.2</ele>
        <time>2020-02-28T10:49:35Z</time>
      </trkpt>
      <trkpt lat="46.78017" lon="5.69245">
        <ele>535.2</ele>
        <time>2020-02-28T10:49:36Z</time>
      </trkpt>
      <trkpt lat="46.78013" lon="5.69246">
        <ele>535.4</ele>
        <time>2020-02-28T10:49:37Z</time>
      </trkpt>
      <trkpt lat="46.78009" lon="5.69247">
        <ele>535.8</ele>
        <time>2020-02-28T10:49:38Z</time>
      </trkpt>
      <trkpt lat="46.78005" lon="5.69247">
        <ele>536</ele>
        <time>2020-02-28T10:49:39Z</time>
      </trkpt>
      <trkpt lat="46.78001" lon="5.69248">
        <ele>536.2</ele>
        <time>2020-02-28T10:49:40Z</time>
      </trkpt>
      <trkpt lat="46.77997" lon="5.69249">
        <ele>536.2</ele>
        <time>2020-02-28T10:49:41Z</time>
      </trkpt>
      <trkpt lat="46.77993" lon="5.6925">
        <ele>536.2</ele>
        <time>2020-02-28T10:49:42Z</time>
      </trkpt>
      <trkpt lat="46.77989" lon="5.6925">
        <ele>536.4</ele>
        <time>2020-02-28T10:49:43Z</time>
      </trkpt>
      <trkpt lat="46.77985" lon="5.6925">
        <ele>536.4</ele>
        <time>2020-02-28T10:49:44Z</time>
      </trkpt>
      <trkpt lat="46.7798" lon="5.69251">
        <ele>536.4</ele>
        <time>2020-02-28T10:49:45Z</time>
      </trkpt>
      <trkpt lat="46.77976" lon="5.69251">
        <ele>536.4</ele>
        <time>2020-02-28T10:49:46Z</time>
      </trkpt>
      <trkpt lat="46.77971" lon="5.6925">
        <ele>536.4</ele>
        <time>2020-02-28T10:49:47Z</time>
      </trkpt>
      <trkpt lat="46.77965" lon="5.6925">
        <ele>536.2</ele>
        <time>2020-02-28T10:49:48Z</time>
      </trkpt>
      <trkpt lat="46.7796" lon="5.6925">
        <ele>536.2</ele>
        <time>2020-02-28T10:49:49Z</time>
      </trkpt>
      <trkpt lat="46.77954" lon="5.6925">
        <ele>536</ele>
        <time>2020-02-28T10:49:50Z</time>
      </trkpt>
      <trkpt lat="46.77949" lon="5.6925">
        <ele>536</ele>
        <time>2020-02-28T10:49:51Z</time>
      </trkpt>
      <trkpt lat="46.77943" lon="5.69249">
        <ele>536</ele>
        <time>2020-02-28T10:49:52Z</time>
      </trkpt>
      <trkpt lat="46.77937" lon="5.69249">
        <ele>536</ele>
        <time>2020-02-28T10:49:53Z</time>
      </trkpt>
      <trkpt lat="46.77931" lon="5.69248">
        <ele>535.8</ele>
        <time>2020-02-28T10:49:54Z</time>
      </trkpt>
      <trkpt lat="46.77925" lon="5.69247">
        <ele>535.8</ele>
        <time>2020-02-28T10:49:55Z</time>
      </trkpt>
      <trkpt lat="46.7792" lon="5.69246">
        <ele>535.8</ele>
        <time>2020-02-28T10:49:56Z</time>
      </trkpt>
      <trkpt lat="46.77911" lon="5.69245">
        <ele>535.8</ele>
        <time>2020-02-28T10:49:57Z</time>
      </trkpt>
      <trkpt lat="46.77908" lon="5.69245">
        <ele>535.8</ele>
        <time>2020-02-28T10:49:58Z</time>
      </trkpt>
      <trkpt lat="46.77902" lon="5.69245">
        <ele>535.8</ele>
        <time>2020-02-28T10:49:59Z</time>
      </trkpt>
      <trkpt lat="46.77896" lon="5.69245">
        <ele>535.8</ele>
        <time>2020-02-28T10:50:00Z</time>
      </trkpt>
      <trkpt lat="46.7789" lon="5.69245">
        <ele>535.8</ele>
        <time>2020-02-28T10:50:01Z</time>
      </trkpt>
      <trkpt lat="46.77885" lon="5.69245">
        <ele>535.8</ele>
        <time>2020-02-28T10:50:02Z</time>
      </trkpt>
      <trkpt lat="46.77879" lon="5.69246">
        <ele>535.8</ele>
        <time>2020-02-28T10:50:03Z</time>
      </trkpt>
      <trkpt lat="46.77874" lon="5.69247">
        <ele>536</ele>
        <time>2020-02-28T10:50:04Z</time>
      </trkpt>
      <trkpt lat="46.77869" lon="5.69249">
        <ele>536.2</ele>
        <time>2020-02-28T10:50:05Z</time>
      </trkpt>
      <trkpt lat="46.77864" lon="5.6925">
        <ele>536.6</ele>
        <time>2020-02-28T10:50:06Z</time>
      </trkpt>
      <trkpt lat="46.77859" lon="5.69252">
        <ele>536.8</ele>
        <time>2020-02-28T10:50:07Z</time>
      </trkpt>
      <trkpt lat="46.77855" lon="5.69255">
        <ele>536.8</ele>
        <time>2020-02-28T10:50:08Z</time>
      </trkpt>
      <trkpt lat="46.77851" lon="5.69257">
        <ele>537.4</ele>
        <time>2020-02-28T10:50:09Z</time>
      </trkpt>
      <trkpt lat="46.77846" lon="5.6926">
        <ele>537.4</ele>
        <time>2020-02-28T10:50:10Z</time>
      </trkpt>
      <trkpt lat="46.77842" lon="5.69263">
        <ele>537.6</ele>
        <time>2020-02-28T10:50:11Z</time>
      </trkpt>
      <trkpt lat="46.77838" lon="5.69266">
        <ele>537.6</ele>
        <time>2020-02-28T10:50:12Z</time>
      </trkpt>
      <trkpt lat="46.77834" lon="5.69269">
        <ele>538</ele>
        <time>2020-02-28T10:50:13Z</time>
      </trkpt>
      <trkpt lat="46.77829" lon="5.69272">
        <ele>538</ele>
        <time>2020-02-28T10:50:14Z</time>
      </trkpt>
      <trkpt lat="46.77825" lon="5.69275">
        <ele>538</ele>
        <time>2020-02-28T10:50:15Z</time>
      </trkpt>
      <trkpt lat="46.77821" lon="5.69278">
        <ele>538</ele>
        <time>2020-02-28T10:50:16Z</time>
      </trkpt>
      <trkpt lat="46.77816" lon="5.69281">
        <ele>538.2</ele>
        <time>2020-02-28T10:50:17Z</time>
      </trkpt>
      <trkpt lat="46.77811" lon="5.69284">
        <ele>538.2</ele>
        <time>2020-02-28T10:50:18Z</time>
      </trkpt>
      <trkpt lat="46.77806" lon="5.69287">
        <ele>538.2</ele>
        <time>2020-02-28T10:50:19Z</time>
      </trkpt>
      <trkpt lat="46.77801" lon="5.6929">
        <ele>538.2</ele>
        <time>2020-02-28T10:50:20Z</time>
      </trkpt>
      <trkpt lat="46.77796" lon="5.69293">
        <ele>538</ele>
        <time>2020-02-28T10:50:21Z</time>
      </trkpt>
      <trkpt lat="46.7779" lon="5.69295">
        <ele>538</ele>
        <time>2020-02-28T10:50:22Z</time>
      </trkpt>
      <trkpt lat="46.77785" lon="5.69298">
        <ele>538</ele>
        <time>2020-02-28T10:50:23Z</time>
      </trkpt>
      <trkpt lat="46.77779" lon="5.693">
        <ele>537.6</ele>
        <time>2020-02-28T10:50:24Z</time>
      </trkpt>
      <trkpt lat="46.77774" lon="5.69302">
        <ele>537.6</ele>
        <time>2020-02-28T10:50:25Z</time>
      </trkpt>
      <trkpt lat="46.77768" lon="5.69303">
        <ele>537.4</ele>
        <time>2020-02-28T10:50:26Z</time>
      </trkpt>
      <trkpt lat="46.77762" lon="5.69305">
        <ele>537.4</ele>
        <time>2020-02-28T10:50:27Z</time>
      </trkpt>
      <trkpt lat="46.77757" lon="5.69306">
        <ele>537.4</ele>
        <time>2020-02-28T10:50:28Z</time>
      </trkpt>
      <trkpt lat="46.77751" lon="5.69307">
        <ele>537.4</ele>
        <time>2020-02-28T10:50:29Z</time>
      </trkpt>
      <trkpt lat="46.77746" lon="5.69308">
        <ele>537.4</ele>
        <time>2020-02-28T10:50:30Z</time>
      </trkpt>
      <trkpt lat="46.77741" lon="5.69309">
        <ele>537.4</ele>
        <time>2020-02-28T10:50:31Z</time>
      </trkpt>
      <trkpt lat="46.77736" lon="5.6931">
        <ele>537.4</ele>
        <time>2020-02-28T10:50:32Z</time>
      </trkpt>
      <trkpt lat="46.77731" lon="5.6931">
        <ele>537.4</ele>
        <time>2020-02-28T10:50:33Z</time>
      </trkpt>
      <trkpt lat="46.77727" lon="5.6931">
        <ele>537.8</ele>
        <time>2020-02-28T10:50:34Z</time>
      </trkpt>
      <trkpt lat="46.7772" lon="5.6931">
        <ele>537.8</ele>
        <time>2020-02-28T10:50:35Z</time>
      </trkpt>
      <trkpt lat="46.77718" lon="5.6931">
        <ele>538.2</ele>
        <time>2020-02-28T10:50:36Z</time>
      </trkpt>
      <trkpt lat="46.77714" lon="5.69309">
        <ele>538.2</ele>
        <time>2020-02-28T10:50:37Z</time>
      </trkpt>
      <trkpt lat="46.77709" lon="5.69308">
        <ele>538.4</ele>
        <time>2020-02-28T10:50:38Z</time>
      </trkpt>
      <trkpt lat="46.77704" lon="5.69308">
        <ele>538.4</ele>
        <time>2020-02-28T10:50:39Z</time>
      </trkpt>
      <trkpt lat="46.777" lon="5.69307">
        <ele>538.4</ele>
        <time>2020-02-28T10:50:40Z</time>
      </trkpt>
      <trkpt lat="46.77695" lon="5.69306">
        <ele>538.6</ele>
        <time>2020-02-28T10:50:41Z</time>
      </trkpt>
      <trkpt lat="46.7769" lon="5.69305">
        <ele>538.6</ele>
        <time>2020-02-28T10:50:42Z</time>
      </trkpt>
      <trkpt lat="46.77685" lon="5.69303">
        <ele>538.6</ele>
        <time>2020-02-28T10:50:43Z</time>
      </trkpt>
      <trkpt lat="46.7768" lon="5.69301">
        <ele>538.6</ele>
        <time>2020-02-28T10:50:44Z</time>
      </trkpt>
      <trkpt lat="46.77675" lon="5.693">
        <ele>538.6</ele>
        <time>2020-02-28T10:50:45Z</time>
      </trkpt>
      <trkpt lat="46.7767" lon="5.69298">
        <ele>538.6</ele>
        <time>2020-02-28T10:50:46Z</time>
      </trkpt>
      <trkpt lat="46.77665" lon="5.69295">
        <ele>538.6</ele>
        <time>2020-02-28T10:50:47Z</time>
      </trkpt>
      <trkpt lat="46.7766" lon="5.69292">
        <ele>538.6</ele>
        <time>2020-02-28T10:50:48Z</time>
      </trkpt>
      <trkpt lat="46.77655" lon="5.69287">
        <ele>538.6</ele>
        <time>2020-02-28T10:50:49Z</time>
      </trkpt>
      <trkpt lat="46.77651" lon="5.69283">
        <ele>538.4</ele>
        <time>2020-02-28T10:50:50Z</time>
      </trkpt>
      <trkpt lat="46.77646" lon="5.69278">
        <ele>538.4</ele>
        <time>2020-02-28T10:50:51Z</time>
      </trkpt>
      <trkpt lat="46.77643" lon="5.69273">
        <ele>538.4</ele>
        <time>2020-02-28T10:50:52Z</time>
      </trkpt>
      <trkpt lat="46.77639" lon="5.69267">
        <ele>538.4</ele>
        <time>2020-02-28T10:50:53Z</time>
      </trkpt>
      <trkpt lat="46.77636" lon="5.69261">
        <ele>538.4</ele>
        <time>2020-02-28T10:50:54Z</time>
      </trkpt>
      <trkpt lat="46.77632" lon="5.69256">
        <ele>538.4</ele>
        <time>2020-02-28T10:50:55Z</time>
      </trkpt>
      <trkpt lat="46.77628" lon="5.69251">
        <ele>538.4</ele>
        <time>2020-02-28T10:50:56Z</time>
      </trkpt>
      <trkpt lat="46.77625" lon="5.69247">
        <ele>538.6</ele>
        <time>2020-02-28T10:50:57Z</time>
      </trkpt>
      <trkpt lat="46.77621" lon="5.69243">
        <ele>538.6</ele>
        <time>2020-02-28T10:50:58Z</time>
      </trkpt>
      <trkpt lat="46.77617" lon="5.69239">
        <ele>538.6</ele>
        <time>2020-02-28T10:50:59Z</time>
      </trkpt>
      <trkpt lat="46.77612" lon="5.69237">
        <ele>538.8</ele>
        <time>2020-02-28T10:51:00Z</time>
      </trkpt>
      <trkpt lat="46.77608" lon="5.69235">
        <ele>538.8</ele>
        <time>2020-02-28T10:51:01Z</time>
      </trkpt>
      <trkpt lat="46.77604" lon="5.69233">
        <ele>538.8</ele>
        <time>2020-02-28T10:51:02Z</time>
      </trkpt>
      <trkpt lat="46.77599" lon="5.69231">
        <ele>539.2</ele>
        <time>2020-02-28T10:51:03Z</time>
      </trkpt>
      <trkpt lat="46.77595" lon="5.6923">
        <ele>539.2</ele>
        <time>2020-02-28T10:51:04Z</time>
      </trkpt>
      <trkpt lat="46.77591" lon="5.6923">
        <ele>539.4</ele>
        <time>2020-02-28T10:51:05Z</time>
      </trkpt>
      <trkpt lat="46.77587" lon="5.69229">
        <ele>539.4</ele>
        <time>2020-02-28T10:51:06Z</time>
      </trkpt>
      <trkpt lat="46.77583" lon="5.69229">
        <ele>539.8</ele>
        <time>2020-02-28T10:51:07Z</time>
      </trkpt>
      <trkpt lat="46.77578" lon="5.69228">
        <ele>539.8</ele>
        <time>2020-02-28T10:51:08Z</time>
      </trkpt>
      <trkpt lat="46.77573" lon="5.69229">
        <ele>539.8</ele>
        <time>2020-02-28T10:51:09Z</time>
      </trkpt>
      <trkpt lat="46.77568" lon="5.69229">
        <ele>539.8</ele>
        <time>2020-02-28T10:51:10Z</time>
      </trkpt>
      <trkpt lat="46.77562" lon="5.69231">
        <ele>539.6</ele>
        <time>2020-02-28T10:51:11Z</time>
      </trkpt>
      <trkpt lat="46.77556" lon="5.69232">
        <ele>539.2</ele>
        <time>2020-02-28T10:51:12Z</time>
      </trkpt>
      <trkpt lat="46.7755" lon="5.69235">
        <ele>538.8</ele>
        <time>2020-02-28T10:51:13Z</time>
      </trkpt>
      <trkpt lat="46.77543" lon="5.69238">
        <ele>538.4</ele>
        <time>2020-02-28T10:51:14Z</time>
      </trkpt>
      <trkpt lat="46.77536" lon="5.69242">
        <ele>538</ele>
        <time>2020-02-28T10:51:15Z</time>
      </trkpt>
      <trkpt lat="46.77528" lon="5.69246">
        <ele>537.6</ele>
        <time>2020-02-28T10:51:16Z</time>
      </trkpt>
      <trkpt lat="46.77521" lon="5.6925">
        <ele>537.2</ele>
        <time>2020-02-28T10:51:17Z</time>
      </trkpt>
      <trkpt lat="46.77513" lon="5.69255">
        <ele>536.6</ele>
        <time>2020-02-28T10:51:18Z</time>
      </trkpt>
      <trkpt lat="46.77505" lon="5.69259">
        <ele>536.2</ele>
        <time>2020-02-28T10:51:19Z</time>
      </trkpt>
      <trkpt lat="46.77498" lon="5.69264">
        <ele>535.8</ele>
        <time>2020-02-28T10:51:20Z</time>
      </trkpt>
      <trkpt lat="46.77491" lon="5.69268">
        <ele>535.6</ele>
        <time>2020-02-28T10:51:21Z</time>
      </trkpt>
      <trkpt lat="46.77483" lon="5.69272">
        <ele>535.4</ele>
        <time>2020-02-28T10:51:22Z</time>
      </trkpt>
      <trkpt lat="46.77476" lon="5.69275">
        <ele>535</ele>
        <time>2020-02-28T10:51:23Z</time>
      </trkpt>
      <trkpt lat="46.77469" lon="5.69279">
        <ele>534.8</ele>
        <time>2020-02-28T10:51:24Z</time>
      </trkpt>
      <trkpt lat="46.77462" lon="5.69282">
        <ele>534.8</ele>
        <time>2020-02-28T10:51:25Z</time>
      </trkpt>
      <trkpt lat="46.77455" lon="5.69284">
        <ele>534.6</ele>
        <time>2020-02-28T10:51:26Z</time>
      </trkpt>
      <trkpt lat="46.77448" lon="5.69287">
        <ele>534.6</ele>
        <time>2020-02-28T10:51:27Z</time>
      </trkpt>
      <trkpt lat="46.7744" lon="5.69291">
        <ele>534.6</ele>
        <time>2020-02-28T10:51:28Z</time>
      </trkpt>
      <trkpt lat="46.77434" lon="5.69295">
        <ele>534.6</ele>
        <time>2020-02-28T10:51:29Z</time>
      </trkpt>
      <trkpt lat="46.77427" lon="5.69299">
        <ele>534.6</ele>
        <time>2020-02-28T10:51:30Z</time>
      </trkpt>
      <trkpt lat="46.7742" lon="5.69304">
        <ele>534.6</ele>
        <time>2020-02-28T10:51:31Z</time>
      </trkpt>
      <trkpt lat="46.77414" lon="5.69309">
        <ele>534.6</ele>
        <time>2020-02-28T10:51:32Z</time>
      </trkpt>
      <trkpt lat="46.77407" lon="5.69313">
        <ele>534.6</ele>
        <time>2020-02-28T10:51:33Z</time>
      </trkpt>
      <trkpt lat="46.77401" lon="5.69317">
        <ele>534.6</ele>
        <time>2020-02-28T10:51:34Z</time>
      </trkpt>
      <trkpt lat="46.77395" lon="5.69321">
        <ele>534.6</ele>
        <time>2020-02-28T10:51:35Z</time>
      </trkpt>
      <trkpt lat="46.7739" lon="5.69324">
        <ele>535</ele>
        <time>2020-02-28T10:51:36Z</time>
      </trkpt>
      <trkpt lat="46.77384" lon="5.69327">
        <ele>535.2</ele>
        <time>2020-02-28T10:51:37Z</time>
      </trkpt>
      <trkpt lat="46.77378" lon="5.69329">
        <ele>535.4</ele>
        <time>2020-02-28T10:51:38Z</time>
      </trkpt>
      <trkpt lat="46.77373" lon="5.69331">
        <ele>535.8</ele>
        <time>2020-02-28T10:51:39Z</time>
      </trkpt>
      <trkpt lat="46.77368" lon="5.69333">
        <ele>536</ele>
        <time>2020-02-28T10:51:40Z</time>
      </trkpt>
      <trkpt lat="46.77363" lon="5.69334">
        <ele>536.4</ele>
        <time>2020-02-28T10:51:41Z</time>
      </trkpt>
      <trkpt lat="46.77359" lon="5.69335">
        <ele>536.8</ele>
        <time>2020-02-28T10:51:42Z</time>
      </trkpt>
      <trkpt lat="46.77354" lon="5.69335">
        <ele>537.2</ele>
        <time>2020-02-28T10:51:43Z</time>
      </trkpt>
      <trkpt lat="46.7735" lon="5.69335">
        <ele>537.6</ele>
        <time>2020-02-28T10:51:44Z</time>
      </trkpt>
      <trkpt lat="46.77346" lon="5.69334">
        <ele>538</ele>
        <time>2020-02-28T10:51:45Z</time>
      </trkpt>
      <trkpt lat="46.77343" lon="5.69333">
        <ele>538.2</ele>
        <time>2020-02-28T10:51:46Z</time>
      </trkpt>
      <trkpt lat="46.7734" lon="5.69332">
        <ele>538.6</ele>
        <time>2020-02-28T10:51:47Z</time>
      </trkpt>
      <trkpt lat="46.77336" lon="5.69331">
        <ele>539</ele>
        <time>2020-02-28T10:51:48Z</time>
      </trkpt>
      <trkpt lat="46.77333" lon="5.69329">
        <ele>539.4</ele>
        <time>2020-02-28T10:51:49Z</time>
      </trkpt>
      <trkpt lat="46.77329" lon="5.69327">
        <ele>539.6</ele>
        <time>2020-02-28T10:51:50Z</time>
      </trkpt>
      <trkpt lat="46.77326" lon="5.69325">
        <ele>539.8</ele>
        <time>2020-02-28T10:51:51Z</time>
      </trkpt>
      <trkpt lat="46.77322" lon="5.69323">
        <ele>540.2</ele>
        <time>2020-02-28T10:51:52Z</time>
      </trkpt>
      <trkpt lat="46.77318" lon="5.69321">
        <ele>540.2</ele>
        <time>2020-02-28T10:51:53Z</time>
      </trkpt>
      <trkpt lat="46.77314" lon="5.69318">
        <ele>540.4</ele>
        <time>2020-02-28T10:51:54Z</time>
      </trkpt>
      <trkpt lat="46.7731" lon="5.69316">
        <ele>540.4</ele>
        <time>2020-02-28T10:51:55Z</time>
      </trkpt>
      <trkpt lat="46.77305" lon="5.69313">
        <ele>540.4</ele>
        <time>2020-02-28T10:51:56Z</time>
      </trkpt>
      <trkpt lat="46.773" lon="5.6931">
        <ele>540.4</ele>
        <time>2020-02-28T10:51:57Z</time>
      </trkpt>
      <trkpt lat="46.77295" lon="5.69307">
        <ele>540.2</ele>
        <time>2020-02-28T10:51:58Z</time>
      </trkpt>
      <trkpt lat="46.77287" lon="5.69303">
        <ele>540.2</ele>
        <time>2020-02-28T10:51:59Z</time>
      </trkpt>
      <trkpt lat="46.77284" lon="5.69302">
        <ele>540</ele>
        <time>2020-02-28T10:52:00Z</time>
      </trkpt>
      <trkpt lat="46.77279" lon="5.69299">
        <ele>540</ele>
        <time>2020-02-28T10:52:01Z</time>
      </trkpt>
      <trkpt lat="46.77273" lon="5.69297">
        <ele>539.8</ele>
        <time>2020-02-28T10:52:02Z</time>
      </trkpt>
      <trkpt lat="46.77263" lon="5.69294">
        <ele>539.8</ele>
        <time>2020-02-28T10:52:03Z</time>
      </trkpt>
      <trkpt lat="46.7726" lon="5.69293">
        <ele>539.4</ele>
        <time>2020-02-28T10:52:04Z</time>
      </trkpt>
      <trkpt lat="46.77254" lon="5.69292">
        <ele>539</ele>
        <time>2020-02-28T10:52:05Z</time>
      </trkpt>
      <trkpt lat="46.77247" lon="5.69291">
        <ele>539</ele>
        <time>2020-02-28T10:52:06Z</time>
      </trkpt>
      <trkpt lat="46.7724" lon="5.6929">
        <ele>538.8</ele>
        <time>2020-02-28T10:52:07Z</time>
      </trkpt>
      <trkpt lat="46.77233" lon="5.6929">
        <ele>538.8</ele>
        <time>2020-02-28T10:52:08Z</time>
      </trkpt>
      <trkpt lat="46.77226" lon="5.6929">
        <ele>538.6</ele>
        <time>2020-02-28T10:52:09Z</time>
      </trkpt>
      <trkpt lat="46.77219" lon="5.6929">
        <ele>538.4</ele>
        <time>2020-02-28T10:52:10Z</time>
      </trkpt>
      <trkpt lat="46.77212" lon="5.69289">
        <ele>538</ele>
        <time>2020-02-28T10:52:11Z</time>
      </trkpt>
      <trkpt lat="46.77205" lon="5.69289">
        <ele>537.8</ele>
        <time>2020-02-28T10:52:12Z</time>
      </trkpt>
      <trkpt lat="46.77197" lon="5.69288">
        <ele>537.4</ele>
        <time>2020-02-28T10:52:13Z</time>
      </trkpt>
      <trkpt lat="46.7719" lon="5.69288">
        <ele>537.2</ele>
        <time>2020-02-28T10:52:14Z</time>
      </trkpt>
      <trkpt lat="46.77183" lon="5.69287">
        <ele>537</ele>
        <time>2020-02-28T10:52:15Z</time>
      </trkpt>
      <trkpt lat="46.77175" lon="5.69287">
        <ele>537</ele>
        <time>2020-02-28T10:52:16Z</time>
      </trkpt>
      <trkpt lat="46.77168" lon="5.69287">
        <ele>536.6</ele>
        <time>2020-02-28T10:52:17Z</time>
      </trkpt>
      <trkpt lat="46.77161" lon="5.69287">
        <ele>536.6</ele>
        <time>2020-02-28T10:52:18Z</time>
      </trkpt>
      <trkpt lat="46.77153" lon="5.69287">
        <ele>536.6</ele>
        <time>2020-02-28T10:52:19Z</time>
      </trkpt>
      <trkpt lat="46.77146" lon="5.69287">
        <ele>536.4</ele>
        <time>2020-02-28T10:52:20Z</time>
      </trkpt>
      <trkpt lat="46.77139" lon="5.69287">
        <ele>536.4</ele>
        <time>2020-02-28T10:52:21Z</time>
      </trkpt>
      <trkpt lat="46.77132" lon="5.69287">
        <ele>536.2</ele>
        <time>2020-02-28T10:52:22Z</time>
      </trkpt>
      <trkpt lat="46.77125" lon="5.69287">
        <ele>536</ele>
        <time>2020-02-28T10:52:23Z</time>
      </trkpt>
      <trkpt lat="46.77118" lon="5.69287">
        <ele>536</ele>
        <time>2020-02-28T10:52:24Z</time>
      </trkpt>
      <trkpt lat="46.77111" lon="5.69288">
        <ele>536</ele>
        <time>2020-02-28T10:52:25Z</time>
      </trkpt>
      <trkpt lat="46.77104" lon="5.69289">
        <ele>535.6</ele>
        <time>2020-02-28T10:52:26Z</time>
      </trkpt>
      <trkpt lat="46.77097" lon="5.69289">
        <ele>535.6</ele>
        <time>2020-02-28T10:52:27Z</time>
      </trkpt>
      <trkpt lat="46.7709" lon="5.6929">
        <ele>535.4</ele>
        <time>2020-02-28T10:52:28Z</time>
      </trkpt>
      <trkpt lat="46.77084" lon="5.69291">
        <ele>535.4</ele>
        <time>2020-02-28T10:52:29Z</time>
      </trkpt>
      <trkpt lat="46.77076" lon="5.69292">
        <ele>535</ele>
        <time>2020-02-28T10:52:30Z</time>
      </trkpt>
      <trkpt lat="46.77069" lon="5.69292">
        <ele>535</ele>
        <time>2020-02-28T10:52:31Z</time>
      </trkpt>
      <trkpt lat="46.77062" lon="5.69293">
        <ele>534.8</ele>
        <time>2020-02-28T10:52:32Z</time>
      </trkpt>
      <trkpt lat="46.77055" lon="5.69294">
        <ele>534.8</ele>
        <time>2020-02-28T10:52:33Z</time>
      </trkpt>
      <trkpt lat="46.77049" lon="5.69294">
        <ele>534.8</ele>
        <time>2020-02-28T10:52:34Z</time>
      </trkpt>
      <trkpt lat="46.77042" lon="5.69295">
        <ele>534.8</ele>
        <time>2020-02-28T10:52:35Z</time>
      </trkpt>
      <trkpt lat="46.77036" lon="5.69295">
        <ele>534.8</ele>
        <time>2020-02-28T10:52:36Z</time>
      </trkpt>
      <trkpt lat="46.7703" lon="5.69296">
        <ele>534.8</ele>
        <time>2020-02-28T10:52:37Z</time>
      </trkpt>
      <trkpt lat="46.77024" lon="5.69296">
        <ele>534.8</ele>
        <time>2020-02-28T10:52:38Z</time>
      </trkpt>
      <trkpt lat="46.77018" lon="5.69297">
        <ele>534.8</ele>
        <time>2020-02-28T10:52:39Z</time>
      </trkpt>
      <trkpt lat="46.77013" lon="5.69297">
        <ele>534.8</ele>
        <time>2020-02-28T10:52:40Z</time>
      </trkpt>
      <trkpt lat="46.77008" lon="5.69296">
        <ele>534.8</ele>
        <time>2020-02-28T10:52:41Z</time>
      </trkpt>
      <trkpt lat="46.77003" lon="5.69296">
        <ele>534.8</ele>
        <time>2020-02-28T10:52:42Z</time>
      </trkpt>
      <trkpt lat="46.76998" lon="5.69296">
        <ele>534.8</ele>
        <time>2020-02-28T10:52:43Z</time>
      </trkpt>
      <trkpt lat="46.76992" lon="5.69296">
        <ele>534.8</ele>
        <time>2020-02-28T10:52:44Z</time>
      </trkpt>
      <trkpt lat="46.76987" lon="5.69296">
        <ele>534.8</ele>
        <time>2020-02-28T10:52:45Z</time>
      </trkpt>
      <trkpt lat="46.76982" lon="5.69296">
        <ele>534.8</ele>
        <time>2020-02-28T10:52:46Z</time>
      </trkpt>
      <trkpt lat="46.76976" lon="5.69296">
        <ele>534.4</ele>
        <time>2020-02-28T10:52:47Z</time>
      </trkpt>
      <trkpt lat="46.76971" lon="5.69296">
        <ele>534.4</ele>
        <time>2020-02-28T10:52:48Z</time>
      </trkpt>
      <trkpt lat="46.76965" lon="5.69297">
        <ele>534.4</ele>
        <time>2020-02-28T10:52:49Z</time>
      </trkpt>
      <trkpt lat="46.7696" lon="5.69297">
        <ele>534.4</ele>
        <time>2020-02-28T10:52:50Z</time>
      </trkpt>
      <trkpt lat="46.76954" lon="5.69297">
        <ele>534.6</ele>
        <time>2020-02-28T10:52:51Z</time>
      </trkpt>
      <trkpt lat="46.76949" lon="5.69298">
        <ele>534.6</ele>
        <time>2020-02-28T10:52:52Z</time>
      </trkpt>
      <trkpt lat="46.76944" lon="5.69299">
        <ele>534.6</ele>
        <time>2020-02-28T10:52:53Z</time>
      </trkpt>
      <trkpt lat="46.76939" lon="5.693">
        <ele>534.6</ele>
        <time>2020-02-28T10:52:54Z</time>
      </trkpt>
      <trkpt lat="46.76934" lon="5.69302">
        <ele>535</ele>
        <time>2020-02-28T10:52:55Z</time>
      </trkpt>
      <trkpt lat="46.7693" lon="5.69303">
        <ele>535</ele>
        <time>2020-02-28T10:52:56Z</time>
      </trkpt>
      <trkpt lat="46.76925" lon="5.69304">
        <ele>535</ele>
        <time>2020-02-28T10:52:57Z</time>
      </trkpt>
      <trkpt lat="46.7692" lon="5.69306">
        <ele>535</ele>
        <time>2020-02-28T10:52:58Z</time>
      </trkpt>
      <trkpt lat="46.76915" lon="5.69307">
        <ele>535.2</ele>
        <time>2020-02-28T10:52:59Z</time>
      </trkpt>
      <trkpt lat="46.76911" lon="5.69309">
        <ele>535.2</ele>
        <time>2020-02-28T10:53:00Z</time>
      </trkpt>
      <trkpt lat="46.76906" lon="5.6931">
        <ele>535.4</ele>
        <time>2020-02-28T10:53:01Z</time>
      </trkpt>
      <trkpt lat="46.76902" lon="5.69311">
        <ele>535.4</ele>
        <time>2020-02-28T10:53:02Z</time>
      </trkpt>
      <trkpt lat="46.76895" lon="5.69313">
        <ele>535.6</ele>
        <time>2020-02-28T10:53:03Z</time>
      </trkpt>
      <trkpt lat="46.76893" lon="5.69314">
        <ele>535.6</ele>
        <time>2020-02-28T10:53:04Z</time>
      </trkpt>
      <trkpt lat="46.76888" lon="5.69315">
        <ele>535.6</ele>
        <time>2020-02-28T10:53:05Z</time>
      </trkpt>
      <trkpt lat="46.76884" lon="5.69315">
        <ele>535.6</ele>
        <time>2020-02-28T10:53:06Z</time>
      </trkpt>
      <trkpt lat="46.7688" lon="5.69316">
        <ele>535.6</ele>
        <time>2020-02-28T10:53:07Z</time>
      </trkpt>
      <trkpt lat="46.76875" lon="5.69317">
        <ele>535.6</ele>
        <time>2020-02-28T10:53:08Z</time>
      </trkpt>
      <trkpt lat="46.7687" lon="5.69318">
        <ele>535.6</ele>
        <time>2020-02-28T10:53:09Z</time>
      </trkpt>
      <trkpt lat="46.76865" lon="5.69319">
        <ele>535.6</ele>
        <time>2020-02-28T10:53:10Z</time>
      </trkpt>
      <trkpt lat="46.7686" lon="5.6932">
        <ele>535.6</ele>
        <time>2020-02-28T10:53:11Z</time>
      </trkpt>
      <trkpt lat="46.76855" lon="5.69321">
        <ele>535.6</ele>
        <time>2020-02-28T10:53:12Z</time>
      </trkpt>
      <trkpt lat="46.7685" lon="5.69322">
        <ele>535.6</ele>
        <time>2020-02-28T10:53:13Z</time>
      </trkpt>
      <trkpt lat="46.76844" lon="5.69323">
        <ele>535.6</ele>
        <time>2020-02-28T10:53:14Z</time>
      </trkpt>
      <trkpt lat="46.76839" lon="5.69324">
        <ele>535.6</ele>
        <time>2020-02-28T10:53:15Z</time>
      </trkpt>
      <trkpt lat="46.76834" lon="5.69326">
        <ele>535.6</ele>
        <time>2020-02-28T10:53:16Z</time>
      </trkpt>
      <trkpt lat="46.76829" lon="5.69328">
        <ele>535.6</ele>
        <time>2020-02-28T10:53:17Z</time>
      </trkpt>
      <trkpt lat="46.76824" lon="5.6933">
        <ele>535.6</ele>
        <time>2020-02-28T10:53:18Z</time>
      </trkpt>
      <trkpt lat="46.76819" lon="5.69332">
        <ele>535.6</ele>
        <time>2020-02-28T10:53:19Z</time>
      </trkpt>
      <trkpt lat="46.76813" lon="5.69334">
        <ele>535.6</ele>
        <time>2020-02-28T10:53:20Z</time>
      </trkpt>
      <trkpt lat="46.76808" lon="5.69336">
        <ele>535.4</ele>
        <time>2020-02-28T10:53:21Z</time>
      </trkpt>
      <trkpt lat="46.76803" lon="5.69339">
        <ele>535.4</ele>
        <time>2020-02-28T10:53:22Z</time>
      </trkpt>
      <trkpt lat="46.76798" lon="5.69342">
        <ele>535.4</ele>
        <time>2020-02-28T10:53:23Z</time>
      </trkpt>
      <trkpt lat="46.76792" lon="5.69345">
        <ele>535.4</ele>
        <time>2020-02-28T10:53:24Z</time>
      </trkpt>
      <trkpt lat="46.76787" lon="5.69347">
        <ele>535.4</ele>
        <time>2020-02-28T10:53:25Z</time>
      </trkpt>
      <trkpt lat="46.76782" lon="5.6935">
        <ele>535.4</ele>
        <time>2020-02-28T10:53:26Z</time>
      </trkpt>
      <trkpt lat="46.76777" lon="5.69352">
        <ele>535.4</ele>
        <time>2020-02-28T10:53:27Z</time>
      </trkpt>
      <trkpt lat="46.76773" lon="5.69355">
        <ele>535.4</ele>
        <time>2020-02-28T10:53:28Z</time>
      </trkpt>
      <trkpt lat="46.76768" lon="5.69357">
        <ele>535.4</ele>
        <time>2020-02-28T10:53:29Z</time>
      </trkpt>
      <trkpt lat="46.76764" lon="5.69359">
        <ele>535.4</ele>
        <time>2020-02-28T10:53:30Z</time>
      </trkpt>
      <trkpt lat="46.76759" lon="5.69361">
        <ele>535.8</ele>
        <time>2020-02-28T10:53:31Z</time>
      </trkpt>
      <trkpt lat="46.76755" lon="5.69362">
        <ele>535.8</ele>
        <time>2020-02-28T10:53:32Z</time>
      </trkpt>
      <trkpt lat="46.76751" lon="5.69364">
        <ele>536.2</ele>
        <time>2020-02-28T10:53:33Z</time>
      </trkpt>
      <trkpt lat="46.76747" lon="5.69366">
        <ele>536.4</ele>
        <time>2020-02-28T10:53:34Z</time>
      </trkpt>
      <trkpt lat="46.76744" lon="5.69367">
        <ele>536.4</ele>
        <time>2020-02-28T10:53:35Z</time>
      </trkpt>
      <trkpt lat="46.7674" lon="5.69369">
        <ele>536.6</ele>
        <time>2020-02-28T10:53:36Z</time>
      </trkpt>
      <trkpt lat="46.76736" lon="5.6937">
        <ele>536.6</ele>
        <time>2020-02-28T10:53:37Z</time>
      </trkpt>
      <trkpt lat="46.76732" lon="5.69372">
        <ele>536.6</ele>
        <time>2020-02-28T10:53:38Z</time>
      </trkpt>
      <trkpt lat="46.76729" lon="5.69374">
        <ele>536.6</ele>
        <time>2020-02-28T10:53:39Z</time>
      </trkpt>
      <trkpt lat="46.76725" lon="5.69376">
        <ele>536.8</ele>
        <time>2020-02-28T10:53:40Z</time>
      </trkpt>
      <trkpt lat="46.76722" lon="5.69377">
        <ele>536.8</ele>
        <time>2020-02-28T10:53:41Z</time>
      </trkpt>
      <trkpt lat="46.76718" lon="5.69379">
        <ele>537</ele>
        <time>2020-02-28T10:53:42Z</time>
      </trkpt>
      <trkpt lat="46.76715" lon="5.6938">
        <ele>537</ele>
        <time>2020-02-28T10:53:43Z</time>
      </trkpt>
      <trkpt lat="46.76712" lon="5.6938">
        <ele>537.4</ele>
        <time>2020-02-28T10:53:44Z</time>
      </trkpt>
      <trkpt lat="46.76709" lon="5.69381">
        <ele>537.4</ele>
        <time>2020-02-28T10:53:45Z</time>
      </trkpt>
      <trkpt lat="46.76707" lon="5.69381">
        <ele>537.8</ele>
        <time>2020-02-28T10:53:46Z</time>
      </trkpt>
      <trkpt lat="46.76704" lon="5.69382">
        <ele>537.8</ele>
        <time>2020-02-28T10:53:47Z</time>
      </trkpt>
      <trkpt lat="46.76702" lon="5.69382">
        <ele>538</ele>
        <time>2020-02-28T10:53:48Z</time>
      </trkpt>
      <trkpt lat="46.767" lon="5.69383">
        <ele>538</ele>
        <time>2020-02-28T10:53:49Z</time>
      </trkpt>
      <trkpt lat="46.76697" lon="5.69384">
        <ele>538</ele>
        <time>2020-02-28T10:53:50Z</time>
      </trkpt>
      <trkpt lat="46.76694" lon="5.69385">
        <ele>538.2</ele>
        <time>2020-02-28T10:53:51Z</time>
      </trkpt>
      <trkpt lat="46.76692" lon="5.69387">
        <ele>538.2</ele>
        <time>2020-02-28T10:53:52Z</time>
      </trkpt>
      <trkpt lat="46.76689" lon="5.69389">
        <ele>538.2</ele>
        <time>2020-02-28T10:53:53Z</time>
      </trkpt>
      <trkpt lat="46.76685" lon="5.69391">
        <ele>538.2</ele>
        <time>2020-02-28T10:53:54Z</time>
      </trkpt>
      <trkpt lat="46.76682" lon="5.69393">
        <ele>538.2</ele>
        <time>2020-02-28T10:53:55Z</time>
      </trkpt>
      <trkpt lat="46.76678" lon="5.69396">
        <ele>537.8</ele>
        <time>2020-02-28T10:53:56Z</time>
      </trkpt>
      <trkpt lat="46.76674" lon="5.69398">
        <ele>537.8</ele>
        <time>2020-02-28T10:53:57Z</time>
      </trkpt>
      <trkpt lat="46.7667" lon="5.69401">
        <ele>537.6</ele>
        <time>2020-02-28T10:53:58Z</time>
      </trkpt>
      <trkpt lat="46.76666" lon="5.69403">
        <ele>537.2</ele>
        <time>2020-02-28T10:53:59Z</time>
      </trkpt>
      <trkpt lat="46.76661" lon="5.69406">
        <ele>537</ele>
        <time>2020-02-28T10:54:00Z</time>
      </trkpt>
      <trkpt lat="46.76655" lon="5.69409">
        <ele>537</ele>
        <time>2020-02-28T10:54:01Z</time>
      </trkpt>
      <trkpt lat="46.76654" lon="5.6941">
        <ele>536.6</ele>
        <time>2020-02-28T10:54:02Z</time>
      </trkpt>
      <trkpt lat="46.7665" lon="5.69411">
        <ele>536.6</ele>
        <time>2020-02-28T10:54:03Z</time>
      </trkpt>
      <trkpt lat="46.76647" lon="5.69411">
        <ele>536.4</ele>
        <time>2020-02-28T10:54:04Z</time>
      </trkpt>
      <trkpt lat="46.76643" lon="5.6941">
        <ele>536</ele>
        <time>2020-02-28T10:54:05Z</time>
      </trkpt>
      <trkpt lat="46.7664" lon="5.69408">
        <ele>535.8</ele>
        <time>2020-02-28T10:54:06Z</time>
      </trkpt>
      <trkpt lat="46.76637" lon="5.69406">
        <ele>535.6</ele>
        <time>2020-02-28T10:54:07Z</time>
      </trkpt>
      <trkpt lat="46.76634" lon="5.69404">
        <ele>535.6</ele>
        <time>2020-02-28T10:54:08Z</time>
      </trkpt>
      <trkpt lat="46.76631" lon="5.69403">
        <ele>535.4</ele>
        <time>2020-02-28T10:54:09Z</time>
      </trkpt>
      <trkpt lat="46.76628" lon="5.69402">
        <ele>535.4</ele>
        <time>2020-02-28T10:54:10Z</time>
      </trkpt>
      <trkpt lat="46.76626" lon="5.69402">
        <ele>535.4</ele>
        <time>2020-02-28T10:54:11Z</time>
      </trkpt>
      <trkpt lat="46.76622" lon="5.69403">
        <ele>535.2</ele>
        <time>2020-02-28T10:54:12Z</time>
      </trkpt>
      <trkpt lat="46.76622" lon="5.69403">
        <ele>535.2</ele>
        <time>2020-02-28T10:54:13Z</time>
      </trkpt>
      <trkpt lat="46.76621" lon="5.69403">
        <ele>535.2</ele>
        <time>2020-02-28T10:54:14Z</time>
      </trkpt>
      <trkpt lat="46.7662" lon="5.69403">
        <ele>534.8</ele>
        <time>2020-02-28T10:54:15Z</time>
      </trkpt>
      <trkpt lat="46.76619" lon="5.69409">
        <ele>533.8</ele>
        <time>2020-02-28T10:57:43Z</time>
      </trkpt>
      <trkpt lat="46.76618" lon="5.69411">
        <ele>533.8</ele>
        <time>2020-02-28T10:57:44Z</time>
      </trkpt>
      <trkpt lat="46.76618" lon="5.69413">
        <ele>533.8</ele>
        <time>2020-02-28T10:57:45Z</time>
      </trkpt>
      <trkpt lat="46.76616" lon="5.69415">
        <ele>533.8</ele>
        <time>2020-02-28T10:57:46Z</time>
      </trkpt>
      <trkpt lat="46.76615" lon="5.69417">
        <ele>533.8</ele>
        <time>2020-02-28T10:57:47Z</time>
      </trkpt>
      <trkpt lat="46.76613" lon="5.69419">
        <ele>533.8</ele>
        <time>2020-02-28T10:57:48Z</time>
      </trkpt>
      <trkpt lat="46.76612" lon="5.69422">
        <ele>533.6</ele>
        <time>2020-02-28T10:57:49Z</time>
      </trkpt>
      <trkpt lat="46.76611" lon="5.69425">
        <ele>533.6</ele>
        <time>2020-02-28T10:57:50Z</time>
      </trkpt>
      <trkpt lat="46.76609" lon="5.69428">
        <ele>533.6</ele>
        <time>2020-02-28T10:57:51Z</time>
      </trkpt>
      <trkpt lat="46.76607" lon="5.6943">
        <ele>533.6</ele>
        <time>2020-02-28T10:57:52Z</time>
      </trkpt>
      <trkpt lat="46.76605" lon="5.69432">
        <ele>533.6</ele>
        <time>2020-02-28T10:57:53Z</time>
      </trkpt>
      <trkpt lat="46.76603" lon="5.69435">
        <ele>533.6</ele>
        <time>2020-02-28T10:57:54Z</time>
      </trkpt>
      <trkpt lat="46.766" lon="5.69437">
        <ele>533.6</ele>
        <time>2020-02-28T10:57:55Z</time>
      </trkpt>
      <trkpt lat="46.76598" lon="5.69439">
        <ele>533.6</ele>
        <time>2020-02-28T10:57:56Z</time>
      </trkpt>
      <trkpt lat="46.76595" lon="5.69441">
        <ele>533.6</ele>
        <time>2020-02-28T10:57:57Z</time>
      </trkpt>
      <trkpt lat="46.76592" lon="5.69442">
        <ele>533.6</ele>
        <time>2020-02-28T10:57:58Z</time>
      </trkpt>
      <trkpt lat="46.76589" lon="5.69444">
        <ele>533.6</ele>
        <time>2020-02-28T10:57:59Z</time>
      </trkpt>
      <trkpt lat="46.76586" lon="5.69446">
        <ele>533.6</ele>
        <time>2020-02-28T10:58:00Z</time>
      </trkpt>
      <trkpt lat="46.76584" lon="5.69449">
        <ele>533.6</ele>
        <time>2020-02-28T10:58:01Z</time>
      </trkpt>
      <trkpt lat="46.7658" lon="5.69451">
        <ele>533.4</ele>
        <time>2020-02-28T10:58:02Z</time>
      </trkpt>
      <trkpt lat="46.76577" lon="5.69454">
        <ele>533.4</ele>
        <time>2020-02-28T10:58:03Z</time>
      </trkpt>
      <trkpt lat="46.76574" lon="5.69457">
        <ele>533.4</ele>
        <time>2020-02-28T10:58:04Z</time>
      </trkpt>
      <trkpt lat="46.7657" lon="5.6946">
        <ele>533.4</ele>
        <time>2020-02-28T10:58:05Z</time>
      </trkpt>
      <trkpt lat="46.76566" lon="5.69463">
        <ele>533.4</ele>
        <time>2020-02-28T10:58:06Z</time>
      </trkpt>
      <trkpt lat="46.76562" lon="5.69466">
        <ele>533.4</ele>
        <time>2020-02-28T10:58:07Z</time>
      </trkpt>
      <trkpt lat="46.76558" lon="5.6947">
        <ele>533.4</ele>
        <time>2020-02-28T10:58:08Z</time>
      </trkpt>
      <trkpt lat="46.76554" lon="5.69474">
        <ele>533.4</ele>
        <time>2020-02-28T10:58:09Z</time>
      </trkpt>
      <trkpt lat="46.7655" lon="5.69478">
        <ele>533.4</ele>
        <time>2020-02-28T10:58:10Z</time>
      </trkpt>
      <trkpt lat="46.76545" lon="5.69482">
        <ele>533.4</ele>
        <time>2020-02-28T10:58:11Z</time>
      </trkpt>
      <trkpt lat="46.7654" lon="5.69487">
        <ele>533.2</ele>
        <time>2020-02-28T10:58:12Z</time>
      </trkpt>
      <trkpt lat="46.76535" lon="5.69491">
        <ele>533.2</ele>
        <time>2020-02-28T10:58:13Z</time>
      </trkpt>
      <trkpt lat="46.76529" lon="5.69494">
        <ele>532.8</ele>
        <time>2020-02-28T10:58:14Z</time>
      </trkpt>
      <trkpt lat="46.76523" lon="5.69497">
        <ele>532.4</ele>
        <time>2020-02-28T10:58:15Z</time>
      </trkpt>
      <trkpt lat="46.76517" lon="5.695">
        <ele>532.2</ele>
        <time>2020-02-28T10:58:16Z</time>
      </trkpt>
      <trkpt lat="46.7651" lon="5.69502">
        <ele>532</ele>
        <time>2020-02-28T10:58:17Z</time>
      </trkpt>
      <trkpt lat="46.76503" lon="5.69503">
        <ele>532</ele>
        <time>2020-02-28T10:58:18Z</time>
      </trkpt>
      <trkpt lat="46.76496" lon="5.69503">
        <ele>531.8</ele>
        <time>2020-02-28T10:58:19Z</time>
      </trkpt>
      <trkpt lat="46.76489" lon="5.69503">
        <ele>531.8</ele>
        <time>2020-02-28T10:58:20Z</time>
      </trkpt>
      <trkpt lat="46.76482" lon="5.69504">
        <ele>531.4</ele>
        <time>2020-02-28T10:58:21Z</time>
      </trkpt>
      <trkpt lat="46.76475" lon="5.69504">
        <ele>531.4</ele>
        <time>2020-02-28T10:58:22Z</time>
      </trkpt>
      <trkpt lat="46.76468" lon="5.69504">
        <ele>531</ele>
        <time>2020-02-28T10:58:23Z</time>
      </trkpt>
      <trkpt lat="46.7646" lon="5.69504">
        <ele>530.8</ele>
        <time>2020-02-28T10:58:24Z</time>
      </trkpt>
      <trkpt lat="46.76453" lon="5.69504">
        <ele>530.6</ele>
        <time>2020-02-28T10:58:25Z</time>
      </trkpt>
      <trkpt lat="46.76445" lon="5.69503">
        <ele>530.6</ele>
        <time>2020-02-28T10:58:26Z</time>
      </trkpt>
      <trkpt lat="46.76437" lon="5.69503">
        <ele>530.2</ele>
        <time>2020-02-28T10:58:27Z</time>
      </trkpt>
      <trkpt lat="46.7643" lon="5.69502">
        <ele>530</ele>
        <time>2020-02-28T10:58:28Z</time>
      </trkpt>
      <trkpt lat="46.76422" lon="5.69501">
        <ele>530</ele>
        <time>2020-02-28T10:58:29Z</time>
      </trkpt>
      <trkpt lat="46.76414" lon="5.695">
        <ele>530</ele>
        <time>2020-02-28T10:58:30Z</time>
      </trkpt>
      <trkpt lat="46.76406" lon="5.69499">
        <ele>530</ele>
        <time>2020-02-28T10:58:31Z</time>
      </trkpt>
      <trkpt lat="46.76398" lon="5.69498">
        <ele>529.8</ele>
        <time>2020-02-28T10:58:32Z</time>
      </trkpt>
      <trkpt lat="46.7639" lon="5.69497">
        <ele>529.8</ele>
        <time>2020-02-28T10:58:33Z</time>
      </trkpt>
      <trkpt lat="46.76382" lon="5.69497">
        <ele>529.8</ele>
        <time>2020-02-28T10:58:34Z</time>
      </trkpt>
      <trkpt lat="46.76375" lon="5.69497">
        <ele>529.6</ele>
        <time>2020-02-28T10:58:35Z</time>
      </trkpt>
      <trkpt lat="46.76367" lon="5.69496">
        <ele>529.6</ele>
        <time>2020-02-28T10:58:36Z</time>
      </trkpt>
      <trkpt lat="46.76359" lon="5.69496">
        <ele>529.6</ele>
        <time>2020-02-28T10:58:37Z</time>
      </trkpt>
      <trkpt lat="46.76352" lon="5.69495">
        <ele>529.6</ele>
        <time>2020-02-28T10:58:38Z</time>
      </trkpt>
      <trkpt lat="46.76345" lon="5.69495">
        <ele>529.4</ele>
        <time>2020-02-28T10:58:39Z</time>
      </trkpt>
      <trkpt lat="46.76338" lon="5.69496">
        <ele>529.4</ele>
        <time>2020-02-28T10:58:40Z</time>
      </trkpt>
      <trkpt lat="46.76331" lon="5.69496">
        <ele>529</ele>
        <time>2020-02-28T10:58:41Z</time>
      </trkpt>
      <trkpt lat="46.76324" lon="5.69496">
        <ele>529</ele>
        <time>2020-02-28T10:58:42Z</time>
      </trkpt>
      <trkpt lat="46.76317" lon="5.69496">
        <ele>529</ele>
        <time>2020-02-28T10:58:43Z</time>
      </trkpt>
      <trkpt lat="46.7631" lon="5.69497">
        <ele>529</ele>
        <time>2020-02-28T10:58:44Z</time>
      </trkpt>
      <trkpt lat="46.76303" lon="5.69498">
        <ele>529</ele>
        <time>2020-02-28T10:58:45Z</time>
      </trkpt>
      <trkpt lat="46.76296" lon="5.69499">
        <ele>529</ele>
        <time>2020-02-28T10:58:46Z</time>
      </trkpt>
      <trkpt lat="46.76289" lon="5.695">
        <ele>529</ele>
        <time>2020-02-28T10:58:47Z</time>
      </trkpt>
      <trkpt lat="46.76282" lon="5.69502">
        <ele>529</ele>
        <time>2020-02-28T10:58:48Z</time>
      </trkpt>
      <trkpt lat="46.76276" lon="5.69504">
        <ele>529</ele>
        <time>2020-02-28T10:58:49Z</time>
      </trkpt>
      <trkpt lat="46.7627" lon="5.69507">
        <ele>529</ele>
        <time>2020-02-28T10:58:50Z</time>
      </trkpt>
      <trkpt lat="46.76264" lon="5.69509">
        <ele>529</ele>
        <time>2020-02-28T10:58:51Z</time>
      </trkpt>
      <trkpt lat="46.76258" lon="5.69512">
        <ele>529</ele>
        <time>2020-02-28T10:58:52Z</time>
      </trkpt>
      <trkpt lat="46.76252" lon="5.69515">
        <ele>529</ele>
        <time>2020-02-28T10:58:53Z</time>
      </trkpt>
      <trkpt lat="46.76246" lon="5.69518">
        <ele>529</ele>
        <time>2020-02-28T10:58:54Z</time>
      </trkpt>
      <trkpt lat="46.7624" lon="5.69521">
        <ele>529</ele>
        <time>2020-02-28T10:58:55Z</time>
      </trkpt>
      <trkpt lat="46.76233" lon="5.69523">
        <ele>529.4</ele>
        <time>2020-02-28T10:58:56Z</time>
      </trkpt>
      <trkpt lat="46.76227" lon="5.69526">
        <ele>529.4</ele>
        <time>2020-02-28T10:58:57Z</time>
      </trkpt>
      <trkpt lat="46.7622" lon="5.69528">
        <ele>529.4</ele>
        <time>2020-02-28T10:58:58Z</time>
      </trkpt>
      <trkpt lat="46.76213" lon="5.6953">
        <ele>529.2</ele>
        <time>2020-02-28T10:58:59Z</time>
      </trkpt>
      <trkpt lat="46.76206" lon="5.69532">
        <ele>529.2</ele>
        <time>2020-02-28T10:59:00Z</time>
      </trkpt>
      <trkpt lat="46.76199" lon="5.69533">
        <ele>529</ele>
        <time>2020-02-28T10:59:01Z</time>
      </trkpt>
      <trkpt lat="46.76191" lon="5.69534">
        <ele>529</ele>
        <time>2020-02-28T10:59:02Z</time>
      </trkpt>
      <trkpt lat="46.76184" lon="5.69535">
        <ele>529</ele>
        <time>2020-02-28T10:59:03Z</time>
      </trkpt>
      <trkpt lat="46.76177" lon="5.69536">
        <ele>528.8</ele>
        <time>2020-02-28T10:59:04Z</time>
      </trkpt>
      <trkpt lat="46.7617" lon="5.69537">
        <ele>528.8</ele>
        <time>2020-02-28T10:59:05Z</time>
      </trkpt>
      <trkpt lat="46.76163" lon="5.69538">
        <ele>528.8</ele>
        <time>2020-02-28T10:59:06Z</time>
      </trkpt>
      <trkpt lat="46.76156" lon="5.69539">
        <ele>528.8</ele>
        <time>2020-02-28T10:59:07Z</time>
      </trkpt>
      <trkpt lat="46.76149" lon="5.69539">
        <ele>528.8</ele>
        <time>2020-02-28T10:59:08Z</time>
      </trkpt>
      <trkpt lat="46.76142" lon="5.6954">
        <ele>528.8</ele>
        <time>2020-02-28T10:59:09Z</time>
      </trkpt>
      <trkpt lat="46.76136" lon="5.69541">
        <ele>528.8</ele>
        <time>2020-02-28T10:59:10Z</time>
      </trkpt>
      <trkpt lat="46.7613" lon="5.69542">
        <ele>529</ele>
        <time>2020-02-28T10:59:11Z</time>
      </trkpt>
      <trkpt lat="46.76124" lon="5.69542">
        <ele>529</ele>
        <time>2020-02-28T10:59:12Z</time>
      </trkpt>
      <trkpt lat="46.76118" lon="5.69543">
        <ele>529</ele>
        <time>2020-02-28T10:59:13Z</time>
      </trkpt>
      <trkpt lat="46.76112" lon="5.69543">
        <ele>529</ele>
        <time>2020-02-28T10:59:14Z</time>
      </trkpt>
      <trkpt lat="46.76106" lon="5.69544">
        <ele>529</ele>
        <time>2020-02-28T10:59:15Z</time>
      </trkpt>
      <trkpt lat="46.76099" lon="5.69544">
        <ele>529</ele>
        <time>2020-02-28T10:59:16Z</time>
      </trkpt>
      <trkpt lat="46.76093" lon="5.69544">
        <ele>529</ele>
        <time>2020-02-28T10:59:17Z</time>
      </trkpt>
      <trkpt lat="46.76087" lon="5.69544">
        <ele>528.6</ele>
        <time>2020-02-28T10:59:18Z</time>
      </trkpt>
      <trkpt lat="46.7608" lon="5.69544">
        <ele>528.6</ele>
        <time>2020-02-28T10:59:19Z</time>
      </trkpt>
      <trkpt lat="46.76073" lon="5.69544">
        <ele>528.4</ele>
        <time>2020-02-28T10:59:20Z</time>
      </trkpt>
      <trkpt lat="46.76066" lon="5.69544">
        <ele>528.4</ele>
        <time>2020-02-28T10:59:21Z</time>
      </trkpt>
      <trkpt lat="46.76059" lon="5.69544">
        <ele>528.2</ele>
        <time>2020-02-28T10:59:22Z</time>
      </trkpt>
      <trkpt lat="46.76052" lon="5.69544">
        <ele>528.2</ele>
        <time>2020-02-28T10:59:23Z</time>
      </trkpt>
      <trkpt lat="46.76045" lon="5.69544">
        <ele>527.8</ele>
        <time>2020-02-28T10:59:24Z</time>
      </trkpt>
      <trkpt lat="46.76038" lon="5.69543">
        <ele>527.6</ele>
        <time>2020-02-28T10:59:25Z</time>
      </trkpt>
      <trkpt lat="46.76032" lon="5.69543">
        <ele>527.6</ele>
        <time>2020-02-28T10:59:26Z</time>
      </trkpt>
      <trkpt lat="46.76025" lon="5.69543">
        <ele>527.6</ele>
        <time>2020-02-28T10:59:27Z</time>
      </trkpt>
      <trkpt lat="46.76018" lon="5.69543">
        <ele>527.4</ele>
        <time>2020-02-28T10:59:28Z</time>
      </trkpt>
      <trkpt lat="46.76012" lon="5.69543">
        <ele>527.4</ele>
        <time>2020-02-28T10:59:29Z</time>
      </trkpt>
      <trkpt lat="46.76005" lon="5.69543">
        <ele>527.4</ele>
        <time>2020-02-28T10:59:30Z</time>
      </trkpt>
      <trkpt lat="46.75998" lon="5.69544">
        <ele>527.4</ele>
        <time>2020-02-28T10:59:31Z</time>
      </trkpt>
      <trkpt lat="46.75991" lon="5.69545">
        <ele>527.4</ele>
        <time>2020-02-28T10:59:32Z</time>
      </trkpt>
      <trkpt lat="46.75984" lon="5.69546">
        <ele>527</ele>
        <time>2020-02-28T10:59:33Z</time>
      </trkpt>
      <trkpt lat="46.75977" lon="5.69547">
        <ele>527</ele>
        <time>2020-02-28T10:59:34Z</time>
      </trkpt>
      <trkpt lat="46.7597" lon="5.69548">
        <ele>526.6</ele>
        <time>2020-02-28T10:59:35Z</time>
      </trkpt>
      <trkpt lat="46.75962" lon="5.6955">
        <ele>526.4</ele>
        <time>2020-02-28T10:59:36Z</time>
      </trkpt>
      <trkpt lat="46.75953" lon="5.69551">
        <ele>526</ele>
        <time>2020-02-28T10:59:37Z</time>
      </trkpt>
      <trkpt lat="46.75945" lon="5.69553">
        <ele>525.8</ele>
        <time>2020-02-28T10:59:38Z</time>
      </trkpt>
      <trkpt lat="46.75936" lon="5.69555">
        <ele>525.4</ele>
        <time>2020-02-28T10:59:39Z</time>
      </trkpt>
      <trkpt lat="46.75928" lon="5.69556">
        <ele>525.2</ele>
        <time>2020-02-28T10:59:40Z</time>
      </trkpt>
      <trkpt lat="46.75919" lon="5.69558">
        <ele>525.2</ele>
        <time>2020-02-28T10:59:41Z</time>
      </trkpt>
      <trkpt lat="46.75911" lon="5.6956">
        <ele>525.2</ele>
        <time>2020-02-28T10:59:42Z</time>
      </trkpt>
      <trkpt lat="46.75903" lon="5.69562">
        <ele>525.2</ele>
        <time>2020-02-28T10:59:43Z</time>
      </trkpt>
      <trkpt lat="46.75896" lon="5.69565">
        <ele>525.2</ele>
        <time>2020-02-28T10:59:44Z</time>
      </trkpt>
      <trkpt lat="46.75889" lon="5.69569">
        <ele>525.2</ele>
        <time>2020-02-28T10:59:45Z</time>
      </trkpt>
      <trkpt lat="46.75882" lon="5.69573">
        <ele>525.2</ele>
        <time>2020-02-28T10:59:46Z</time>
      </trkpt>
      <trkpt lat="46.75875" lon="5.69577">
        <ele>525.2</ele>
        <time>2020-02-28T10:59:47Z</time>
      </trkpt>
      <trkpt lat="46.75868" lon="5.69582">
        <ele>525.2</ele>
        <time>2020-02-28T10:59:48Z</time>
      </trkpt>
      <trkpt lat="46.75861" lon="5.69587">
        <ele>525.2</ele>
        <time>2020-02-28T10:59:49Z</time>
      </trkpt>
      <trkpt lat="46.75854" lon="5.69592">
        <ele>525</ele>
        <time>2020-02-28T10:59:50Z</time>
      </trkpt>
      <trkpt lat="46.75846" lon="5.69597">
        <ele>524.8</ele>
        <time>2020-02-28T10:59:51Z</time>
      </trkpt>
      <trkpt lat="46.75839" lon="5.69601">
        <ele>524.6</ele>
        <time>2020-02-28T10:59:52Z</time>
      </trkpt>
      <trkpt lat="46.75831" lon="5.69604">
        <ele>524.6</ele>
        <time>2020-02-28T10:59:53Z</time>
      </trkpt>
      <trkpt lat="46.75824" lon="5.69606">
        <ele>524.2</ele>
        <time>2020-02-28T10:59:54Z</time>
      </trkpt>
      <trkpt lat="46.75816" lon="5.69609">
        <ele>524.2</ele>
        <time>2020-02-28T10:59:55Z</time>
      </trkpt>
      <trkpt lat="46.75809" lon="5.69611">
        <ele>524.2</ele>
        <time>2020-02-28T10:59:56Z</time>
      </trkpt>
      <trkpt lat="46.75803" lon="5.69613">
        <ele>524.2</ele>
        <time>2020-02-28T10:59:57Z</time>
      </trkpt>
      <trkpt lat="46.75796" lon="5.69615">
        <ele>524.2</ele>
        <time>2020-02-28T10:59:58Z</time>
      </trkpt>
      <trkpt lat="46.7579" lon="5.69616">
        <ele>524.6</ele>
        <time>2020-02-28T10:59:59Z</time>
      </trkpt>
      <trkpt lat="46.75785" lon="5.69617">
        <ele>524.8</ele>
        <time>2020-02-28T11:00:00Z</time>
      </trkpt>
      <trkpt lat="46.7578" lon="5.69617">
        <ele>525</ele>
        <time>2020-02-28T11:00:01Z</time>
      </trkpt>
      <trkpt lat="46.75776" lon="5.69617">
        <ele>525</ele>
        <time>2020-02-28T11:00:02Z</time>
      </trkpt>
      <trkpt lat="46.75771" lon="5.69618">
        <ele>525.4</ele>
        <time>2020-02-28T11:00:03Z</time>
      </trkpt>
      <trkpt lat="46.75767" lon="5.69618">
        <ele>525.4</ele>
        <time>2020-02-28T11:00:04Z</time>
      </trkpt>
      <trkpt lat="46.75763" lon="5.69618">
        <ele>525.8</ele>
        <time>2020-02-28T11:00:05Z</time>
      </trkpt>
      <trkpt lat="46.75759" lon="5.69618">
        <ele>525.8</ele>
        <time>2020-02-28T11:00:06Z</time>
      </trkpt>
      <trkpt lat="46.75755" lon="5.69618">
        <ele>526.2</ele>
        <time>2020-02-28T11:00:07Z</time>
      </trkpt>
      <trkpt lat="46.75751" lon="5.69618">
        <ele>526.2</ele>
        <time>2020-02-28T11:00:08Z</time>
      </trkpt>
      <trkpt lat="46.75746" lon="5.69617">
        <ele>526.4</ele>
        <time>2020-02-28T11:00:09Z</time>
      </trkpt>
      <trkpt lat="46.75742" lon="5.69616">
        <ele>526.4</ele>
        <time>2020-02-28T11:00:10Z</time>
      </trkpt>
      <trkpt lat="46.75737" lon="5.69615">
        <ele>526.4</ele>
        <time>2020-02-28T11:00:11Z</time>
      </trkpt>
      <trkpt lat="46.75733" lon="5.69615">
        <ele>526.4</ele>
        <time>2020-02-28T11:00:12Z</time>
      </trkpt>
      <trkpt lat="46.75728" lon="5.69615">
        <ele>526.4</ele>
        <time>2020-02-28T11:00:13Z</time>
      </trkpt>
      <trkpt lat="46.75722" lon="5.69614">
        <ele>526.4</ele>
        <time>2020-02-28T11:00:14Z</time>
      </trkpt>
      <trkpt lat="46.75717" lon="5.69614">
        <ele>526.4</ele>
        <time>2020-02-28T11:00:15Z</time>
      </trkpt>
      <trkpt lat="46.75712" lon="5.69613">
        <ele>526.2</ele>
        <time>2020-02-28T11:00:16Z</time>
      </trkpt>
      <trkpt lat="46.75707" lon="5.69613">
        <ele>526.2</ele>
        <time>2020-02-28T11:00:17Z</time>
      </trkpt>
      <trkpt lat="46.75702" lon="5.69612">
        <ele>526.2</ele>
        <time>2020-02-28T11:00:18Z</time>
      </trkpt>
      <trkpt lat="46.75697" lon="5.69613">
        <ele>526.2</ele>
        <time>2020-02-28T11:00:19Z</time>
      </trkpt>
      <trkpt lat="46.75691" lon="5.69613">
        <ele>526.2</ele>
        <time>2020-02-28T11:00:20Z</time>
      </trkpt>
      <trkpt lat="46.75686" lon="5.69613">
        <ele>526.2</ele>
        <time>2020-02-28T11:00:21Z</time>
      </trkpt>
      <trkpt lat="46.75681" lon="5.69613">
        <ele>526.2</ele>
        <time>2020-02-28T11:00:22Z</time>
      </trkpt>
      <trkpt lat="46.75677" lon="5.69613">
        <ele>526.2</ele>
        <time>2020-02-28T11:00:23Z</time>
      </trkpt>
      <trkpt lat="46.75672" lon="5.69614">
        <ele>526.2</ele>
        <time>2020-02-28T11:00:24Z</time>
      </trkpt>
      <trkpt lat="46.75667" lon="5.69614">
        <ele>526.4</ele>
        <time>2020-02-28T11:00:25Z</time>
      </trkpt>
      <trkpt lat="46.75663" lon="5.69615">
        <ele>526.4</ele>
        <time>2020-02-28T11:00:26Z</time>
      </trkpt>
      <trkpt lat="46.75659" lon="5.69615">
        <ele>526.6</ele>
        <time>2020-02-28T11:00:27Z</time>
      </trkpt>
      <trkpt lat="46.75654" lon="5.69615">
        <ele>526.6</ele>
        <time>2020-02-28T11:00:28Z</time>
      </trkpt>
      <trkpt lat="46.75651" lon="5.69616">
        <ele>526.6</ele>
        <time>2020-02-28T11:00:29Z</time>
      </trkpt>
      <trkpt lat="46.75647" lon="5.69616">
        <ele>527</ele>
        <time>2020-02-28T11:00:30Z</time>
      </trkpt>
      <trkpt lat="46.75643" lon="5.69616">
        <ele>527</ele>
        <time>2020-02-28T11:00:31Z</time>
      </trkpt>
      <trkpt lat="46.7564" lon="5.69617">
        <ele>527.2</ele>
        <time>2020-02-28T11:00:32Z</time>
      </trkpt>
      <trkpt lat="46.75636" lon="5.69618">
        <ele>527.2</ele>
        <time>2020-02-28T11:00:33Z</time>
      </trkpt>
      <trkpt lat="46.75632" lon="5.69619">
        <ele>527.6</ele>
        <time>2020-02-28T11:00:34Z</time>
      </trkpt>
      <trkpt lat="46.75629" lon="5.6962">
        <ele>527.6</ele>
        <time>2020-02-28T11:00:35Z</time>
      </trkpt>
      <trkpt lat="46.75625" lon="5.69621">
        <ele>527.6</ele>
        <time>2020-02-28T11:00:36Z</time>
      </trkpt>
      <trkpt lat="46.75621" lon="5.69622">
        <ele>527.6</ele>
        <time>2020-02-28T11:00:37Z</time>
      </trkpt>
      <trkpt lat="46.75616" lon="5.69623">
        <ele>527.6</ele>
        <time>2020-02-28T11:00:38Z</time>
      </trkpt>
      <trkpt lat="46.75612" lon="5.69624">
        <ele>527.6</ele>
        <time>2020-02-28T11:00:39Z</time>
      </trkpt>
      <trkpt lat="46.75607" lon="5.69625">
        <ele>527.6</ele>
        <time>2020-02-28T11:00:40Z</time>
      </trkpt>
      <trkpt lat="46.75602" lon="5.69626">
        <ele>527.6</ele>
        <time>2020-02-28T11:00:41Z</time>
      </trkpt>
      <trkpt lat="46.75597" lon="5.69627">
        <ele>527.2</ele>
        <time>2020-02-28T11:00:42Z</time>
      </trkpt>
      <trkpt lat="46.75592" lon="5.69628">
        <ele>527.2</ele>
        <time>2020-02-28T11:00:43Z</time>
      </trkpt>
      <trkpt lat="46.75586" lon="5.69628">
        <ele>527</ele>
        <time>2020-02-28T11:00:44Z</time>
      </trkpt>
      <trkpt lat="46.7558" lon="5.69628">
        <ele>527</ele>
        <time>2020-02-28T11:00:45Z</time>
      </trkpt>
      <trkpt lat="46.75574" lon="5.69628">
        <ele>527</ele>
        <time>2020-02-28T11:00:46Z</time>
      </trkpt>
      <trkpt lat="46.75568" lon="5.69628">
        <ele>526.6</ele>
        <time>2020-02-28T11:00:47Z</time>
      </trkpt>
      <trkpt lat="46.75562" lon="5.69628">
        <ele>526.6</ele>
        <time>2020-02-28T11:00:48Z</time>
      </trkpt>
      <trkpt lat="46.75556" lon="5.69627">
        <ele>526.6</ele>
        <time>2020-02-28T11:00:49Z</time>
      </trkpt>
      <trkpt lat="46.75549" lon="5.69627">
        <ele>526.4</ele>
        <time>2020-02-28T11:00:50Z</time>
      </trkpt>
      <trkpt lat="46.75543" lon="5.69626">
        <ele>526.4</ele>
        <time>2020-02-28T11:00:51Z</time>
      </trkpt>
      <trkpt lat="46.75536" lon="5.69625">
        <ele>526.2</ele>
        <time>2020-02-28T11:00:52Z</time>
      </trkpt>
      <trkpt lat="46.75529" lon="5.69623">
        <ele>526.2</ele>
        <time>2020-02-28T11:00:53Z</time>
      </trkpt>
      <trkpt lat="46.75523" lon="5.69622">
        <ele>526</ele>
        <time>2020-02-28T11:00:54Z</time>
      </trkpt>
      <trkpt lat="46.75516" lon="5.6962">
        <ele>525.6</ele>
        <time>2020-02-28T11:00:55Z</time>
      </trkpt>
      <trkpt lat="46.75508" lon="5.69618">
        <ele>525.2</ele>
        <time>2020-02-28T11:00:56Z</time>
      </trkpt>
      <trkpt lat="46.75501" lon="5.69616">
        <ele>525</ele>
        <time>2020-02-28T11:00:57Z</time>
      </trkpt>
      <trkpt lat="46.75494" lon="5.69613">
        <ele>524.8</ele>
        <time>2020-02-28T11:00:58Z</time>
      </trkpt>
      <trkpt lat="46.75486" lon="5.6961">
        <ele>524.8</ele>
        <time>2020-02-28T11:00:59Z</time>
      </trkpt>
      <trkpt lat="46.7548" lon="5.69608">
        <ele>524.4</ele>
        <time>2020-02-28T11:01:00Z</time>
      </trkpt>
      <trkpt lat="46.75473" lon="5.69605">
        <ele>524.4</ele>
        <time>2020-02-28T11:01:01Z</time>
      </trkpt>
      <trkpt lat="46.75467" lon="5.69603">
        <ele>524.2</ele>
        <time>2020-02-28T11:01:02Z</time>
      </trkpt>
      <trkpt lat="46.75461" lon="5.696">
        <ele>524.2</ele>
        <time>2020-02-28T11:01:03Z</time>
      </trkpt>
      <trkpt lat="46.75455" lon="5.69598">
        <ele>524.2</ele>
        <time>2020-02-28T11:01:04Z</time>
      </trkpt>
      <trkpt lat="46.7545" lon="5.69596">
        <ele>524.2</ele>
        <time>2020-02-28T11:01:05Z</time>
      </trkpt>
      <trkpt lat="46.75445" lon="5.69593">
        <ele>524.4</ele>
        <time>2020-02-28T11:01:06Z</time>
      </trkpt>
      <trkpt lat="46.7544" lon="5.69591">
        <ele>524.4</ele>
        <time>2020-02-28T11:01:07Z</time>
      </trkpt>
      <trkpt lat="46.75436" lon="5.69588">
        <ele>524.4</ele>
        <time>2020-02-28T11:01:08Z</time>
      </trkpt>
      <trkpt lat="46.75431" lon="5.69586">
        <ele>524.4</ele>
        <time>2020-02-28T11:01:09Z</time>
      </trkpt>
      <trkpt lat="46.75426" lon="5.69583">
        <ele>524.4</ele>
        <time>2020-02-28T11:01:10Z</time>
      </trkpt>
      <trkpt lat="46.75422" lon="5.69579">
        <ele>524.4</ele>
        <time>2020-02-28T11:01:11Z</time>
      </trkpt>
      <trkpt lat="46.75417" lon="5.69576">
        <ele>524.4</ele>
        <time>2020-02-28T11:01:12Z</time>
      </trkpt>
      <trkpt lat="46.75413" lon="5.69572">
        <ele>524.4</ele>
        <time>2020-02-28T11:01:13Z</time>
      </trkpt>
      <trkpt lat="46.75408" lon="5.69569">
        <ele>524.4</ele>
        <time>2020-02-28T11:01:14Z</time>
      </trkpt>
      <trkpt lat="46.75404" lon="5.69564">
        <ele>524.4</ele>
        <time>2020-02-28T11:01:15Z</time>
      </trkpt>
      <trkpt lat="46.75399" lon="5.6956">
        <ele>524.4</ele>
        <time>2020-02-28T11:01:16Z</time>
      </trkpt>
      <trkpt lat="46.75394" lon="5.69556">
        <ele>524.4</ele>
        <time>2020-02-28T11:01:17Z</time>
      </trkpt>
      <trkpt lat="46.7539" lon="5.69551">
        <ele>524.4</ele>
        <time>2020-02-28T11:01:18Z</time>
      </trkpt>
      <trkpt lat="46.75385" lon="5.69546">
        <ele>524.2</ele>
        <time>2020-02-28T11:01:19Z</time>
      </trkpt>
      <trkpt lat="46.7538" lon="5.69541">
        <ele>524.2</ele>
        <time>2020-02-28T11:01:20Z</time>
      </trkpt>
      <trkpt lat="46.75374" lon="5.69537">
        <ele>523.8</ele>
        <time>2020-02-28T11:01:21Z</time>
      </trkpt>
      <trkpt lat="46.75369" lon="5.69533">
        <ele>523.8</ele>
        <time>2020-02-28T11:01:22Z</time>
      </trkpt>
      <trkpt lat="46.75364" lon="5.69528">
        <ele>523.8</ele>
        <time>2020-02-28T11:01:23Z</time>
      </trkpt>
      <trkpt lat="46.75359" lon="5.69525">
        <ele>523.8</ele>
        <time>2020-02-28T11:01:24Z</time>
      </trkpt>
      <trkpt lat="46.75354" lon="5.69521">
        <ele>523.8</ele>
        <time>2020-02-28T11:01:25Z</time>
      </trkpt>
      <trkpt lat="46.7535" lon="5.69517">
        <ele>523.8</ele>
        <time>2020-02-28T11:01:26Z</time>
      </trkpt>
      <trkpt lat="46.75345" lon="5.69513">
        <ele>523.8</ele>
        <time>2020-02-28T11:01:27Z</time>
      </trkpt>
      <trkpt lat="46.7534" lon="5.69509">
        <ele>523.8</ele>
        <time>2020-02-28T11:01:28Z</time>
      </trkpt>
      <trkpt lat="46.75336" lon="5.69505">
        <ele>524</ele>
        <time>2020-02-28T11:01:29Z</time>
      </trkpt>
      <trkpt lat="46.75331" lon="5.69502">
        <ele>524</ele>
        <time>2020-02-28T11:01:30Z</time>
      </trkpt>
      <trkpt lat="46.75325" lon="5.69499">
        <ele>524</ele>
        <time>2020-02-28T11:01:31Z</time>
      </trkpt>
      <trkpt lat="46.7532" lon="5.69496">
        <ele>524</ele>
        <time>2020-02-28T11:01:32Z</time>
      </trkpt>
      <trkpt lat="46.75314" lon="5.69494">
        <ele>524</ele>
        <time>2020-02-28T11:01:33Z</time>
      </trkpt>
      <trkpt lat="46.75309" lon="5.69492">
        <ele>524.4</ele>
        <time>2020-02-28T11:01:34Z</time>
      </trkpt>
      <trkpt lat="46.75303" lon="5.6949">
        <ele>524.4</ele>
        <time>2020-02-28T11:01:35Z</time>
      </trkpt>
      <trkpt lat="46.75297" lon="5.69489">
        <ele>524.4</ele>
        <time>2020-02-28T11:01:36Z</time>
      </trkpt>
      <trkpt lat="46.75291" lon="5.69488">
        <ele>524.4</ele>
        <time>2020-02-28T11:01:37Z</time>
      </trkpt>
      <trkpt lat="46.75285" lon="5.69488">
        <ele>524.4</ele>
        <time>2020-02-28T11:01:38Z</time>
      </trkpt>
      <trkpt lat="46.75279" lon="5.69487">
        <ele>524.4</ele>
        <time>2020-02-28T11:01:39Z</time>
      </trkpt>
      <trkpt lat="46.75273" lon="5.69487">
        <ele>524.2</ele>
        <time>2020-02-28T11:01:40Z</time>
      </trkpt>
      <trkpt lat="46.75267" lon="5.69487">
        <ele>524.2</ele>
        <time>2020-02-28T11:01:41Z</time>
      </trkpt>
      <trkpt lat="46.75261" lon="5.69487">
        <ele>524.2</ele>
        <time>2020-02-28T11:01:42Z</time>
      </trkpt>
      <trkpt lat="46.75256" lon="5.69487">
        <ele>524.2</ele>
        <time>2020-02-28T11:01:43Z</time>
      </trkpt>
      <trkpt lat="46.7525" lon="5.69486">
        <ele>524.2</ele>
        <time>2020-02-28T11:01:44Z</time>
      </trkpt>
      <trkpt lat="46.75244" lon="5.69486">
        <ele>524.2</ele>
        <time>2020-02-28T11:01:45Z</time>
      </trkpt>
      <trkpt lat="46.75238" lon="5.69486">
        <ele>524.2</ele>
        <time>2020-02-28T11:01:46Z</time>
      </trkpt>
      <trkpt lat="46.75233" lon="5.69486">
        <ele>524.2</ele>
        <time>2020-02-28T11:01:47Z</time>
      </trkpt>
      <trkpt lat="46.75227" lon="5.69486">
        <ele>524.4</ele>
        <time>2020-02-28T11:01:48Z</time>
      </trkpt>
      <trkpt lat="46.75222" lon="5.69485">
        <ele>524.4</ele>
        <time>2020-02-28T11:01:49Z</time>
      </trkpt>
      <trkpt lat="46.75216" lon="5.69485">
        <ele>524.4</ele>
        <time>2020-02-28T11:01:50Z</time>
      </trkpt>
      <trkpt lat="46.7521" lon="5.69484">
        <ele>524.6</ele>
        <time>2020-02-28T11:01:51Z</time>
      </trkpt>
      <trkpt lat="46.75205" lon="5.69484">
        <ele>524.6</ele>
        <time>2020-02-28T11:01:52Z</time>
      </trkpt>
      <trkpt lat="46.75199" lon="5.69483">
        <ele>524.6</ele>
        <time>2020-02-28T11:01:53Z</time>
      </trkpt>
      <trkpt lat="46.75194" lon="5.69483">
        <ele>524.8</ele>
        <time>2020-02-28T11:01:54Z</time>
      </trkpt>
      <trkpt lat="46.75188" lon="5.69483">
        <ele>524.8</ele>
        <time>2020-02-28T11:01:55Z</time>
      </trkpt>
      <trkpt lat="46.75183" lon="5.69482">
        <ele>525</ele>
        <time>2020-02-28T11:01:56Z</time>
      </trkpt>
      <trkpt lat="46.75178" lon="5.69482">
        <ele>525</ele>
        <time>2020-02-28T11:01:57Z</time>
      </trkpt>
      <trkpt lat="46.75173" lon="5.69481">
        <ele>525.4</ele>
        <time>2020-02-28T11:01:58Z</time>
      </trkpt>
      <trkpt lat="46.75168" lon="5.69481">
        <ele>525.4</ele>
        <time>2020-02-28T11:01:59Z</time>
      </trkpt>
      <trkpt lat="46.75163" lon="5.69481">
        <ele>525.4</ele>
        <time>2020-02-28T11:02:00Z</time>
      </trkpt>
      <trkpt lat="46.75158" lon="5.69481">
        <ele>525.6</ele>
        <time>2020-02-28T11:02:01Z</time>
      </trkpt>
      <trkpt lat="46.75153" lon="5.69481">
        <ele>525.6</ele>
        <time>2020-02-28T11:02:02Z</time>
      </trkpt>
      <trkpt lat="46.75148" lon="5.69481">
        <ele>525.6</ele>
        <time>2020-02-28T11:02:03Z</time>
      </trkpt>
      <trkpt lat="46.75143" lon="5.6948">
        <ele>525.8</ele>
        <time>2020-02-28T11:02:04Z</time>
      </trkpt>
      <trkpt lat="46.75138" lon="5.6948">
        <ele>525.8</ele>
        <time>2020-02-28T11:02:05Z</time>
      </trkpt>
      <trkpt lat="46.75133" lon="5.6948">
        <ele>525.8</ele>
        <time>2020-02-28T11:02:06Z</time>
      </trkpt>
      <trkpt lat="46.75128" lon="5.69479">
        <ele>525.8</ele>
        <time>2020-02-28T11:02:07Z</time>
      </trkpt>
      <trkpt lat="46.75123" lon="5.69479">
        <ele>525.8</ele>
        <time>2020-02-28T11:02:08Z</time>
      </trkpt>
      <trkpt lat="46.75118" lon="5.6948">
        <ele>526.2</ele>
        <time>2020-02-28T11:02:09Z</time>
      </trkpt>
      <trkpt lat="46.75114" lon="5.6948">
        <ele>526.2</ele>
        <time>2020-02-28T11:02:10Z</time>
      </trkpt>
      <trkpt lat="46.75109" lon="5.6948">
        <ele>526.4</ele>
        <time>2020-02-28T11:02:11Z</time>
      </trkpt>
      <trkpt lat="46.75104" lon="5.6948">
        <ele>526.4</ele>
        <time>2020-02-28T11:02:12Z</time>
      </trkpt>
      <trkpt lat="46.751" lon="5.69481">
        <ele>526.6</ele>
        <time>2020-02-28T11:02:13Z</time>
      </trkpt>
      <trkpt lat="46.75095" lon="5.6948">
        <ele>526.8</ele>
        <time>2020-02-28T11:02:14Z</time>
      </trkpt>
      <trkpt lat="46.7509" lon="5.69481">
        <ele>527.2</ele>
        <time>2020-02-28T11:02:15Z</time>
      </trkpt>
      <trkpt lat="46.75085" lon="5.69481">
        <ele>527.2</ele>
        <time>2020-02-28T11:02:16Z</time>
      </trkpt>
      <trkpt lat="46.75081" lon="5.69481">
        <ele>527.2</ele>
        <time>2020-02-28T11:02:17Z</time>
      </trkpt>
      <trkpt lat="46.75076" lon="5.69481">
        <ele>527.4</ele>
        <time>2020-02-28T11:02:18Z</time>
      </trkpt>
      <trkpt lat="46.75072" lon="5.69481">
        <ele>527.4</ele>
        <time>2020-02-28T11:02:19Z</time>
      </trkpt>
      <trkpt lat="46.75067" lon="5.69481">
        <ele>527.6</ele>
        <time>2020-02-28T11:02:20Z</time>
      </trkpt>
      <trkpt lat="46.75063" lon="5.69481">
        <ele>527.6</ele>
        <time>2020-02-28T11:02:21Z</time>
      </trkpt>
      <trkpt lat="46.75059" lon="5.69481">
        <ele>528</ele>
        <time>2020-02-28T11:02:22Z</time>
      </trkpt>
      <trkpt lat="46.75054" lon="5.69481">
        <ele>528</ele>
        <time>2020-02-28T11:02:23Z</time>
      </trkpt>
      <trkpt lat="46.7505" lon="5.69481">
        <ele>528.4</ele>
        <time>2020-02-28T11:02:24Z</time>
      </trkpt>
      <trkpt lat="46.75046" lon="5.6948">
        <ele>528.4</ele>
        <time>2020-02-28T11:02:25Z</time>
      </trkpt>
      <trkpt lat="46.75042" lon="5.6948">
        <ele>528.4</ele>
        <time>2020-02-28T11:02:26Z</time>
      </trkpt>
      <trkpt lat="46.75038" lon="5.6948">
        <ele>528.6</ele>
        <time>2020-02-28T11:02:27Z</time>
      </trkpt>
      <trkpt lat="46.75033" lon="5.69479">
        <ele>528.6</ele>
        <time>2020-02-28T11:02:28Z</time>
      </trkpt>
      <trkpt lat="46.75029" lon="5.69479">
        <ele>528.6</ele>
        <time>2020-02-28T11:02:29Z</time>
      </trkpt>
      <trkpt lat="46.75024" lon="5.69479">
        <ele>528.6</ele>
        <time>2020-02-28T11:02:30Z</time>
      </trkpt>
      <trkpt lat="46.7502" lon="5.69478">
        <ele>528.6</ele>
        <time>2020-02-28T11:02:31Z</time>
      </trkpt>
      <trkpt lat="46.75015" lon="5.69477">
        <ele>528.6</ele>
        <time>2020-02-28T11:02:32Z</time>
      </trkpt>
      <trkpt lat="46.7501" lon="5.69476">
        <ele>528.6</ele>
        <time>2020-02-28T11:02:33Z</time>
      </trkpt>
      <trkpt lat="46.75005" lon="5.69475">
        <ele>528.6</ele>
        <time>2020-02-28T11:02:34Z</time>
      </trkpt>
      <trkpt lat="46.74999" lon="5.69474">
        <ele>528.6</ele>
        <time>2020-02-28T11:02:35Z</time>
      </trkpt>
      <trkpt lat="46.74994" lon="5.69473">
        <ele>528.6</ele>
        <time>2020-02-28T11:02:36Z</time>
      </trkpt>
      <trkpt lat="46.74989" lon="5.69473">
        <ele>528.6</ele>
        <time>2020-02-28T11:02:37Z</time>
      </trkpt>
      <trkpt lat="46.74983" lon="5.69474">
        <ele>528.6</ele>
        <time>2020-02-28T11:02:38Z</time>
      </trkpt>
      <trkpt lat="46.74978" lon="5.69476">
        <ele>528.4</ele>
        <time>2020-02-28T11:02:39Z</time>
      </trkpt>
      <trkpt lat="46.74972" lon="5.69479">
        <ele>528.4</ele>
        <time>2020-02-28T11:02:40Z</time>
      </trkpt>
      <trkpt lat="46.74967" lon="5.69483">
        <ele>528.4</ele>
        <time>2020-02-28T11:02:41Z</time>
      </trkpt>
      <trkpt lat="46.74962" lon="5.69488">
        <ele>528</ele>
        <time>2020-02-28T11:02:42Z</time>
      </trkpt>
      <trkpt lat="46.74957" lon="5.69494">
        <ele>528</ele>
        <time>2020-02-28T11:02:43Z</time>
      </trkpt>
      <trkpt lat="46.74952" lon="5.695">
        <ele>528</ele>
        <time>2020-02-28T11:02:44Z</time>
      </trkpt>
      <trkpt lat="46.74948" lon="5.69507">
        <ele>528</ele>
        <time>2020-02-28T11:02:45Z</time>
      </trkpt>
      <trkpt lat="46.74944" lon="5.69514">
        <ele>527.8</ele>
        <time>2020-02-28T11:02:46Z</time>
      </trkpt>
      <trkpt lat="46.7494" lon="5.69522">
        <ele>527.8</ele>
        <time>2020-02-28T11:02:47Z</time>
      </trkpt>
      <trkpt lat="46.74936" lon="5.69529">
        <ele>527.8</ele>
        <time>2020-02-28T11:02:48Z</time>
      </trkpt>
      <trkpt lat="46.74932" lon="5.69536">
        <ele>527.8</ele>
        <time>2020-02-28T11:02:49Z</time>
      </trkpt>
      <trkpt lat="46.74927" lon="5.69542">
        <ele>527.8</ele>
        <time>2020-02-28T11:02:50Z</time>
      </trkpt>
      <trkpt lat="46.74922" lon="5.69549">
        <ele>527.8</ele>
        <time>2020-02-28T11:02:51Z</time>
      </trkpt>
      <trkpt lat="46.74917" lon="5.69554">
        <ele>527.8</ele>
        <time>2020-02-28T11:02:52Z</time>
      </trkpt>
      <trkpt lat="46.74911" lon="5.69559">
        <ele>527.8</ele>
        <time>2020-02-28T11:02:53Z</time>
      </trkpt>
      <trkpt lat="46.74905" lon="5.69562">
        <ele>527.8</ele>
        <time>2020-02-28T11:02:54Z</time>
      </trkpt>
      <trkpt lat="46.74899" lon="5.69564">
        <ele>527.8</ele>
        <time>2020-02-28T11:02:55Z</time>
      </trkpt>
      <trkpt lat="46.74892" lon="5.69564">
        <ele>527.8</ele>
        <time>2020-02-28T11:02:56Z</time>
      </trkpt>
      <trkpt lat="46.74885" lon="5.69564">
        <ele>527.8</ele>
        <time>2020-02-28T11:02:57Z</time>
      </trkpt>
      <trkpt lat="46.74879" lon="5.69563">
        <ele>527.8</ele>
        <time>2020-02-28T11:02:58Z</time>
      </trkpt>
      <trkpt lat="46.74872" lon="5.6956">
        <ele>527.8</ele>
        <time>2020-02-28T11:02:59Z</time>
      </trkpt>
      <trkpt lat="46.74866" lon="5.69557">
        <ele>527.8</ele>
        <time>2020-02-28T11:03:00Z</time>
      </trkpt>
      <trkpt lat="46.7486" lon="5.69554">
        <ele>527.6</ele>
        <time>2020-02-28T11:03:01Z</time>
      </trkpt>
      <trkpt lat="46.74854" lon="5.6955">
        <ele>527.6</ele>
        <time>2020-02-28T11:03:02Z</time>
      </trkpt>
      <trkpt lat="46.74847" lon="5.69547">
        <ele>527.6</ele>
        <time>2020-02-28T11:03:03Z</time>
      </trkpt>
      <trkpt lat="46.74841" lon="5.69544">
        <ele>527.8</ele>
        <time>2020-02-28T11:03:04Z</time>
      </trkpt>
      <trkpt lat="46.74835" lon="5.6954">
        <ele>527.8</ele>
        <time>2020-02-28T11:03:05Z</time>
      </trkpt>
      <trkpt lat="46.74829" lon="5.69537">
        <ele>527.8</ele>
        <time>2020-02-28T11:03:06Z</time>
      </trkpt>
      <trkpt lat="46.74823" lon="5.69535">
        <ele>527.8</ele>
        <time>2020-02-28T11:03:07Z</time>
      </trkpt>
      <trkpt lat="46.74817" lon="5.69532">
        <ele>527.8</ele>
        <time>2020-02-28T11:03:08Z</time>
      </trkpt>
      <trkpt lat="46.74811" lon="5.6953">
        <ele>527.8</ele>
        <time>2020-02-28T11:03:09Z</time>
      </trkpt>
      <trkpt lat="46.74805" lon="5.69529">
        <ele>527.8</ele>
        <time>2020-02-28T11:03:10Z</time>
      </trkpt>
      <trkpt lat="46.74799" lon="5.69528">
        <ele>527.8</ele>
        <time>2020-02-28T11:03:11Z</time>
      </trkpt>
      <trkpt lat="46.74792" lon="5.69528">
        <ele>528</ele>
        <time>2020-02-28T11:03:12Z</time>
      </trkpt>
      <trkpt lat="46.74786" lon="5.69527">
        <ele>528</ele>
        <time>2020-02-28T11:03:13Z</time>
      </trkpt>
      <trkpt lat="46.7478" lon="5.69527">
        <ele>528</ele>
        <time>2020-02-28T11:03:14Z</time>
      </trkpt>
      <trkpt lat="46.74773" lon="5.69526">
        <ele>528</ele>
        <time>2020-02-28T11:03:15Z</time>
      </trkpt>
      <trkpt lat="46.74767" lon="5.69525">
        <ele>528</ele>
        <time>2020-02-28T11:03:16Z</time>
      </trkpt>
      <trkpt lat="46.74761" lon="5.69525">
        <ele>528</ele>
        <time>2020-02-28T11:03:17Z</time>
      </trkpt>
      <trkpt lat="46.74755" lon="5.69525">
        <ele>528</ele>
        <time>2020-02-28T11:03:18Z</time>
      </trkpt>
      <trkpt lat="46.74749" lon="5.69525">
        <ele>528</ele>
        <time>2020-02-28T11:03:19Z</time>
      </trkpt>
      <trkpt lat="46.74744" lon="5.69526">
        <ele>528</ele>
        <time>2020-02-28T11:03:20Z</time>
      </trkpt>
      <trkpt lat="46.74738" lon="5.69528">
        <ele>528</ele>
        <time>2020-02-28T11:03:21Z</time>
      </trkpt>
      <trkpt lat="46.74733" lon="5.6953">
        <ele>528</ele>
        <time>2020-02-28T11:03:22Z</time>
      </trkpt>
      <trkpt lat="46.74728" lon="5.69533">
        <ele>528</ele>
        <time>2020-02-28T11:03:23Z</time>
      </trkpt>
      <trkpt lat="46.74723" lon="5.69536">
        <ele>528</ele>
        <time>2020-02-28T11:03:24Z</time>
      </trkpt>
      <trkpt lat="46.74719" lon="5.6954">
        <ele>528</ele>
        <time>2020-02-28T11:03:25Z</time>
      </trkpt>
      <trkpt lat="46.74714" lon="5.69545">
        <ele>528.2</ele>
        <time>2020-02-28T11:03:26Z</time>
      </trkpt>
      <trkpt lat="46.7471" lon="5.6955">
        <ele>528.2</ele>
        <time>2020-02-28T11:03:27Z</time>
      </trkpt>
      <trkpt lat="46.74706" lon="5.69555">
        <ele>528.6</ele>
        <time>2020-02-28T11:03:28Z</time>
      </trkpt>
      <trkpt lat="46.74702" lon="5.6956">
        <ele>528.6</ele>
        <time>2020-02-28T11:03:29Z</time>
      </trkpt>
      <trkpt lat="46.74697" lon="5.69565">
        <ele>528.6</ele>
        <time>2020-02-28T11:03:30Z</time>
      </trkpt>
      <trkpt lat="46.74693" lon="5.69571">
        <ele>528.6</ele>
        <time>2020-02-28T11:03:31Z</time>
      </trkpt>
      <trkpt lat="46.74689" lon="5.69577">
        <ele>528.6</ele>
        <time>2020-02-28T11:03:32Z</time>
      </trkpt>
      <trkpt lat="46.74685" lon="5.69583">
        <ele>528.6</ele>
        <time>2020-02-28T11:03:33Z</time>
      </trkpt>
      <trkpt lat="46.7468" lon="5.69588">
        <ele>528.6</ele>
        <time>2020-02-28T11:03:34Z</time>
      </trkpt>
      <trkpt lat="46.74675" lon="5.69594">
        <ele>528.2</ele>
        <time>2020-02-28T11:03:35Z</time>
      </trkpt>
      <trkpt lat="46.74671" lon="5.696">
        <ele>528.2</ele>
        <time>2020-02-28T11:03:36Z</time>
      </trkpt>
      <trkpt lat="46.74666" lon="5.69605">
        <ele>528.2</ele>
        <time>2020-02-28T11:03:37Z</time>
      </trkpt>
      <trkpt lat="46.74661" lon="5.69611">
        <ele>528.2</ele>
        <time>2020-02-28T11:03:38Z</time>
      </trkpt>
      <trkpt lat="46.74656" lon="5.69616">
        <ele>528.2</ele>
        <time>2020-02-28T11:03:39Z</time>
      </trkpt>
      <trkpt lat="46.74651" lon="5.69622">
        <ele>528</ele>
        <time>2020-02-28T11:03:40Z</time>
      </trkpt>
      <trkpt lat="46.74646" lon="5.69627">
        <ele>528</ele>
        <time>2020-02-28T11:03:41Z</time>
      </trkpt>
      <trkpt lat="46.74641" lon="5.69633">
        <ele>527.8</ele>
        <time>2020-02-28T11:03:42Z</time>
      </trkpt>
      <trkpt lat="46.74636" lon="5.69638">
        <ele>527.8</ele>
        <time>2020-02-28T11:03:43Z</time>
      </trkpt>
      <trkpt lat="46.74629" lon="5.69642">
        <ele>527.4</ele>
        <time>2020-02-28T11:03:44Z</time>
      </trkpt>
      <trkpt lat="46.74623" lon="5.69645">
        <ele>527.4</ele>
        <time>2020-02-28T11:03:45Z</time>
      </trkpt>
      <trkpt lat="46.74616" lon="5.69647">
        <ele>527.4</ele>
        <time>2020-02-28T11:03:46Z</time>
      </trkpt>
      <trkpt lat="46.7461" lon="5.69648">
        <ele>527.4</ele>
        <time>2020-02-28T11:03:47Z</time>
      </trkpt>
      <trkpt lat="46.74603" lon="5.69648">
        <ele>527.2</ele>
        <time>2020-02-28T11:03:48Z</time>
      </trkpt>
      <trkpt lat="46.74597" lon="5.69647">
        <ele>527.2</ele>
        <time>2020-02-28T11:03:49Z</time>
      </trkpt>
      <trkpt lat="46.74591" lon="5.69646">
        <ele>527.2</ele>
        <time>2020-02-28T11:03:50Z</time>
      </trkpt>
      <trkpt lat="46.74585" lon="5.69645">
        <ele>527.2</ele>
        <time>2020-02-28T11:03:51Z</time>
      </trkpt>
      <trkpt lat="46.74579" lon="5.69643">
        <ele>527.2</ele>
        <time>2020-02-28T11:03:52Z</time>
      </trkpt>
      <trkpt lat="46.74573" lon="5.69642">
        <ele>527.2</ele>
        <time>2020-02-28T11:03:53Z</time>
      </trkpt>
      <trkpt lat="46.74567" lon="5.6964">
        <ele>527.2</ele>
        <time>2020-02-28T11:03:54Z</time>
      </trkpt>
      <trkpt lat="46.74562" lon="5.69638">
        <ele>527.2</ele>
        <time>2020-02-28T11:03:55Z</time>
      </trkpt>
      <trkpt lat="46.74556" lon="5.69637">
        <ele>527.2</ele>
        <time>2020-02-28T11:03:56Z</time>
      </trkpt>
      <trkpt lat="46.74551" lon="5.69636">
        <ele>527.2</ele>
        <time>2020-02-28T11:03:57Z</time>
      </trkpt>
      <trkpt lat="46.74545" lon="5.69634">
        <ele>527.2</ele>
        <time>2020-02-28T11:03:58Z</time>
      </trkpt>
      <trkpt lat="46.7454" lon="5.69632">
        <ele>526.8</ele>
        <time>2020-02-28T11:03:59Z</time>
      </trkpt>
      <trkpt lat="46.74534" lon="5.6963">
        <ele>526.8</ele>
        <time>2020-02-28T11:04:00Z</time>
      </trkpt>
      <trkpt lat="46.74529" lon="5.69628">
        <ele>526.8</ele>
        <time>2020-02-28T11:04:01Z</time>
      </trkpt>
      <trkpt lat="46.74524" lon="5.69626">
        <ele>526.8</ele>
        <time>2020-02-28T11:04:02Z</time>
      </trkpt>
      <trkpt lat="46.74518" lon="5.69625">
        <ele>527.2</ele>
        <time>2020-02-28T11:04:03Z</time>
      </trkpt>
      <trkpt lat="46.74513" lon="5.69623">
        <ele>527.2</ele>
        <time>2020-02-28T11:04:04Z</time>
      </trkpt>
      <trkpt lat="46.74508" lon="5.69622">
        <ele>527.2</ele>
        <time>2020-02-28T11:04:05Z</time>
      </trkpt>
      <trkpt lat="46.74502" lon="5.69621">
        <ele>527.4</ele>
        <time>2020-02-28T11:04:06Z</time>
      </trkpt>
      <trkpt lat="46.74497" lon="5.6962">
        <ele>527.4</ele>
        <time>2020-02-28T11:04:07Z</time>
      </trkpt>
      <trkpt lat="46.74492" lon="5.69618">
        <ele>527.6</ele>
        <time>2020-02-28T11:04:08Z</time>
      </trkpt>
      <trkpt lat="46.74487" lon="5.69618">
        <ele>527.6</ele>
        <time>2020-02-28T11:04:09Z</time>
      </trkpt>
      <trkpt lat="46.74483" lon="5.69617">
        <ele>527.6</ele>
        <time>2020-02-28T11:04:10Z</time>
      </trkpt>
      <trkpt lat="46.74478" lon="5.69616">
        <ele>528</ele>
        <time>2020-02-28T11:04:11Z</time>
      </trkpt>
      <trkpt lat="46.74473" lon="5.69615">
        <ele>528</ele>
        <time>2020-02-28T11:04:12Z</time>
      </trkpt>
      <trkpt lat="46.74468" lon="5.69614">
        <ele>528.4</ele>
        <time>2020-02-28T11:04:13Z</time>
      </trkpt>
      <trkpt lat="46.74464" lon="5.69614">
        <ele>528.4</ele>
        <time>2020-02-28T11:04:14Z</time>
      </trkpt>
      <trkpt lat="46.74459" lon="5.69613">
        <ele>528.6</ele>
        <time>2020-02-28T11:04:15Z</time>
      </trkpt>
      <trkpt lat="46.74454" lon="5.69612">
        <ele>528.6</ele>
        <time>2020-02-28T11:04:16Z</time>
      </trkpt>
      <trkpt lat="46.74449" lon="5.69612">
        <ele>528.6</ele>
        <time>2020-02-28T11:04:17Z</time>
      </trkpt>
      <trkpt lat="46.74444" lon="5.69612">
        <ele>528.8</ele>
        <time>2020-02-28T11:04:18Z</time>
      </trkpt>
      <trkpt lat="46.74439" lon="5.69611">
        <ele>528.8</ele>
        <time>2020-02-28T11:04:19Z</time>
      </trkpt>
      <trkpt lat="46.74434" lon="5.69611">
        <ele>528.8</ele>
        <time>2020-02-28T11:04:20Z</time>
      </trkpt>
      <trkpt lat="46.74429" lon="5.69611">
        <ele>528.8</ele>
        <time>2020-02-28T11:04:21Z</time>
      </trkpt>
      <trkpt lat="46.74424" lon="5.69611">
        <ele>528.8</ele>
        <time>2020-02-28T11:04:22Z</time>
      </trkpt>
      <trkpt lat="46.74418" lon="5.69611">
        <ele>528.6</ele>
        <time>2020-02-28T11:04:23Z</time>
      </trkpt>
      <trkpt lat="46.74413" lon="5.69611">
        <ele>528.6</ele>
        <time>2020-02-28T11:04:24Z</time>
      </trkpt>
      <trkpt lat="46.74407" lon="5.69611">
        <ele>528.6</ele>
        <time>2020-02-28T11:04:25Z</time>
      </trkpt>
      <trkpt lat="46.74402" lon="5.69611">
        <ele>528.6</ele>
        <time>2020-02-28T11:04:26Z</time>
      </trkpt>
      <trkpt lat="46.74396" lon="5.69612">
        <ele>528.6</ele>
        <time>2020-02-28T11:04:27Z</time>
      </trkpt>
      <trkpt lat="46.74391" lon="5.69612">
        <ele>528.6</ele>
        <time>2020-02-28T11:04:28Z</time>
      </trkpt>
      <trkpt lat="46.74386" lon="5.69612">
        <ele>528.6</ele>
        <time>2020-02-28T11:04:29Z</time>
      </trkpt>
      <trkpt lat="46.74381" lon="5.69611">
        <ele>528.6</ele>
        <time>2020-02-28T11:04:30Z</time>
      </trkpt>
      <trkpt lat="46.74376" lon="5.69611">
        <ele>528.6</ele>
        <time>2020-02-28T11:04:31Z</time>
      </trkpt>
      <trkpt lat="46.74371" lon="5.69612">
        <ele>528.6</ele>
        <time>2020-02-28T11:04:32Z</time>
      </trkpt>
      <trkpt lat="46.74366" lon="5.69612">
        <ele>528.8</ele>
        <time>2020-02-28T11:04:33Z</time>
      </trkpt>
      <trkpt lat="46.74362" lon="5.69612">
        <ele>528.8</ele>
        <time>2020-02-28T11:04:34Z</time>
      </trkpt>
      <trkpt lat="46.74357" lon="5.69612">
        <ele>528.8</ele>
        <time>2020-02-28T11:04:35Z</time>
      </trkpt>
      <trkpt lat="46.74352" lon="5.69612">
        <ele>528.8</ele>
        <time>2020-02-28T11:04:36Z</time>
      </trkpt>
      <trkpt lat="46.74348" lon="5.69612">
        <ele>529</ele>
        <time>2020-02-28T11:04:37Z</time>
      </trkpt>
      <trkpt lat="46.74343" lon="5.69612">
        <ele>529</ele>
        <time>2020-02-28T11:04:38Z</time>
      </trkpt>
      <trkpt lat="46.74338" lon="5.69612">
        <ele>529</ele>
        <time>2020-02-28T11:04:39Z</time>
      </trkpt>
      <trkpt lat="46.74333" lon="5.69613">
        <ele>529</ele>
        <time>2020-02-28T11:04:40Z</time>
      </trkpt>
      <trkpt lat="46.74329" lon="5.69613">
        <ele>529.4</ele>
        <time>2020-02-28T11:04:41Z</time>
      </trkpt>
      <trkpt lat="46.74324" lon="5.69613">
        <ele>529.4</ele>
        <time>2020-02-28T11:04:42Z</time>
      </trkpt>
      <trkpt lat="46.74319" lon="5.69613">
        <ele>529.4</ele>
        <time>2020-02-28T11:04:43Z</time>
      </trkpt>
      <trkpt lat="46.74314" lon="5.69613">
        <ele>529.4</ele>
        <time>2020-02-28T11:04:44Z</time>
      </trkpt>
      <trkpt lat="46.74309" lon="5.69613">
        <ele>529.4</ele>
        <time>2020-02-28T11:04:45Z</time>
      </trkpt>
      <trkpt lat="46.74304" lon="5.69613">
        <ele>529.4</ele>
        <time>2020-02-28T11:04:46Z</time>
      </trkpt>
      <trkpt lat="46.74299" lon="5.69613">
        <ele>529.4</ele>
        <time>2020-02-28T11:04:47Z</time>
      </trkpt>
      <trkpt lat="46.74294" lon="5.69614">
        <ele>529.4</ele>
        <time>2020-02-28T11:04:48Z</time>
      </trkpt>
      <trkpt lat="46.74289" lon="5.69614">
        <ele>529.4</ele>
        <time>2020-02-28T11:04:49Z</time>
      </trkpt>
      <trkpt lat="46.74284" lon="5.69614">
        <ele>529.4</ele>
        <time>2020-02-28T11:04:50Z</time>
      </trkpt>
      <trkpt lat="46.74279" lon="5.69614">
        <ele>529.4</ele>
        <time>2020-02-28T11:04:51Z</time>
      </trkpt>
      <trkpt lat="46.74274" lon="5.69614">
        <ele>529.4</ele>
        <time>2020-02-28T11:04:52Z</time>
      </trkpt>
      <trkpt lat="46.74269" lon="5.69615">
        <ele>529.4</ele>
        <time>2020-02-28T11:04:53Z</time>
      </trkpt>
      <trkpt lat="46.74265" lon="5.69615">
        <ele>529.4</ele>
        <time>2020-02-28T11:04:54Z</time>
      </trkpt>
      <trkpt lat="46.7426" lon="5.69615">
        <ele>529.4</ele>
        <time>2020-02-28T11:04:55Z</time>
      </trkpt>
      <trkpt lat="46.74255" lon="5.69616">
        <ele>529.4</ele>
        <time>2020-02-28T11:04:56Z</time>
      </trkpt>
      <trkpt lat="46.7425" lon="5.69616">
        <ele>529.4</ele>
        <time>2020-02-28T11:04:57Z</time>
      </trkpt>
      <trkpt lat="46.74245" lon="5.69616">
        <ele>529.6</ele>
        <time>2020-02-28T11:04:58Z</time>
      </trkpt>
      <trkpt lat="46.74241" lon="5.69615">
        <ele>529.6</ele>
        <time>2020-02-28T11:04:59Z</time>
      </trkpt>
      <trkpt lat="46.74236" lon="5.69614">
        <ele>530</ele>
        <time>2020-02-28T11:05:00Z</time>
      </trkpt>
      <trkpt lat="46.74231" lon="5.69614">
        <ele>530</ele>
        <time>2020-02-28T11:05:01Z</time>
      </trkpt>
      <trkpt lat="46.74227" lon="5.69613">
        <ele>530.2</ele>
        <time>2020-02-28T11:05:02Z</time>
      </trkpt>
      <trkpt lat="46.74223" lon="5.69612">
        <ele>530.2</ele>
        <time>2020-02-28T11:05:03Z</time>
      </trkpt>
      <trkpt lat="46.74219" lon="5.6961">
        <ele>530.6</ele>
        <time>2020-02-28T11:05:04Z</time>
      </trkpt>
      <trkpt lat="46.74215" lon="5.69609">
        <ele>530.6</ele>
        <time>2020-02-28T11:05:05Z</time>
      </trkpt>
      <trkpt lat="46.74212" lon="5.69607">
        <ele>530.8</ele>
        <time>2020-02-28T11:05:06Z</time>
      </trkpt>
      <trkpt lat="46.74208" lon="5.69604">
        <ele>530.8</ele>
        <time>2020-02-28T11:05:07Z</time>
      </trkpt>
      <trkpt lat="46.74204" lon="5.69602">
        <ele>531.2</ele>
        <time>2020-02-28T11:05:08Z</time>
      </trkpt>
      <trkpt lat="46.742" lon="5.696">
        <ele>531.2</ele>
        <time>2020-02-28T11:05:09Z</time>
      </trkpt>
      <trkpt lat="46.74197" lon="5.69598">
        <ele>531.4</ele>
        <time>2020-02-28T11:05:10Z</time>
      </trkpt>
      <trkpt lat="46.74193" lon="5.69596">
        <ele>531.4</ele>
        <time>2020-02-28T11:05:11Z</time>
      </trkpt>
      <trkpt lat="46.74189" lon="5.69594">
        <ele>531.4</ele>
        <time>2020-02-28T11:05:12Z</time>
      </trkpt>
      <trkpt lat="46.74185" lon="5.69591">
        <ele>531.4</ele>
        <time>2020-02-28T11:05:13Z</time>
      </trkpt>
      <trkpt lat="46.74181" lon="5.69589">
        <ele>531.4</ele>
        <time>2020-02-28T11:05:14Z</time>
      </trkpt>
      <trkpt lat="46.74177" lon="5.69586">
        <ele>531.4</ele>
        <time>2020-02-28T11:05:15Z</time>
      </trkpt>
      <trkpt lat="46.74172" lon="5.69583">
        <ele>531.4</ele>
        <time>2020-02-28T11:05:16Z</time>
      </trkpt>
      <trkpt lat="46.74168" lon="5.6958">
        <ele>531.4</ele>
        <time>2020-02-28T11:05:17Z</time>
      </trkpt>
      <trkpt lat="46.74163" lon="5.69577">
        <ele>531.4</ele>
        <time>2020-02-28T11:05:18Z</time>
      </trkpt>
      <trkpt lat="46.74159" lon="5.69573">
        <ele>531.2</ele>
        <time>2020-02-28T11:05:19Z</time>
      </trkpt>
      <trkpt lat="46.74154" lon="5.6957">
        <ele>531.2</ele>
        <time>2020-02-28T11:05:20Z</time>
      </trkpt>
      <trkpt lat="46.7415" lon="5.69567">
        <ele>530.8</ele>
        <time>2020-02-28T11:05:21Z</time>
      </trkpt>
      <trkpt lat="46.74145" lon="5.69564">
        <ele>530.8</ele>
        <time>2020-02-28T11:05:22Z</time>
      </trkpt>
      <trkpt lat="46.7414" lon="5.69562">
        <ele>530.8</ele>
        <time>2020-02-28T11:05:23Z</time>
      </trkpt>
      <trkpt lat="46.74135" lon="5.6956">
        <ele>530.8</ele>
        <time>2020-02-28T11:05:24Z</time>
      </trkpt>
      <trkpt lat="46.74131" lon="5.69558">
        <ele>530.8</ele>
        <time>2020-02-28T11:05:25Z</time>
      </trkpt>
      <trkpt lat="46.74126" lon="5.69557">
        <ele>530.8</ele>
        <time>2020-02-28T11:05:26Z</time>
      </trkpt>
      <trkpt lat="46.74121" lon="5.69555">
        <ele>530.6</ele>
        <time>2020-02-28T11:05:27Z</time>
      </trkpt>
      <trkpt lat="46.74116" lon="5.69554">
        <ele>530.6</ele>
        <time>2020-02-28T11:05:28Z</time>
      </trkpt>
      <trkpt lat="46.74111" lon="5.69554">
        <ele>530.6</ele>
        <time>2020-02-28T11:05:29Z</time>
      </trkpt>
      <trkpt lat="46.74105" lon="5.69554">
        <ele>530.6</ele>
        <time>2020-02-28T11:05:30Z</time>
      </trkpt>
      <trkpt lat="46.741" lon="5.69554">
        <ele>530.4</ele>
        <time>2020-02-28T11:05:31Z</time>
      </trkpt>
      <trkpt lat="46.74095" lon="5.69553">
        <ele>530.4</ele>
        <time>2020-02-28T11:05:32Z</time>
      </trkpt>
      <trkpt lat="46.7409" lon="5.69553">
        <ele>530.4</ele>
        <time>2020-02-28T11:05:33Z</time>
      </trkpt>
      <trkpt lat="46.74085" lon="5.69552">
        <ele>530.4</ele>
        <time>2020-02-28T11:05:34Z</time>
      </trkpt>
      <trkpt lat="46.74079" lon="5.69551">
        <ele>530.2</ele>
        <time>2020-02-28T11:05:35Z</time>
      </trkpt>
      <trkpt lat="46.74074" lon="5.69551">
        <ele>530.2</ele>
        <time>2020-02-28T11:05:36Z</time>
      </trkpt>
      <trkpt lat="46.74069" lon="5.69551">
        <ele>530.2</ele>
        <time>2020-02-28T11:05:37Z</time>
      </trkpt>
      <trkpt lat="46.74063" lon="5.6955">
        <ele>530.2</ele>
        <time>2020-02-28T11:05:38Z</time>
      </trkpt>
      <trkpt lat="46.74058" lon="5.6955">
        <ele>530.2</ele>
        <time>2020-02-28T11:05:39Z</time>
      </trkpt>
      <trkpt lat="46.74053" lon="5.69549">
        <ele>530.2</ele>
        <time>2020-02-28T11:05:40Z</time>
      </trkpt>
      <trkpt lat="46.74047" lon="5.69549">
        <ele>530.2</ele>
        <time>2020-02-28T11:05:41Z</time>
      </trkpt>
      <trkpt lat="46.74042" lon="5.69549">
        <ele>530.4</ele>
        <time>2020-02-28T11:05:42Z</time>
      </trkpt>
      <trkpt lat="46.74037" lon="5.69549">
        <ele>530.4</ele>
        <time>2020-02-28T11:05:43Z</time>
      </trkpt>
      <trkpt lat="46.74032" lon="5.69549">
        <ele>530.8</ele>
        <time>2020-02-28T11:05:44Z</time>
      </trkpt>
      <trkpt lat="46.74026" lon="5.69549">
        <ele>530.8</ele>
        <time>2020-02-28T11:05:45Z</time>
      </trkpt>
      <trkpt lat="46.74022" lon="5.69549">
        <ele>531</ele>
        <time>2020-02-28T11:05:46Z</time>
      </trkpt>
      <trkpt lat="46.74017" lon="5.6955">
        <ele>531</ele>
        <time>2020-02-28T11:05:47Z</time>
      </trkpt>
      <trkpt lat="46.74012" lon="5.6955">
        <ele>531</ele>
        <time>2020-02-28T11:05:48Z</time>
      </trkpt>
      <trkpt lat="46.74007" lon="5.6955">
        <ele>531.2</ele>
        <time>2020-02-28T11:05:49Z</time>
      </trkpt>
      <trkpt lat="46.74002" lon="5.69551">
        <ele>531.2</ele>
        <time>2020-02-28T11:05:50Z</time>
      </trkpt>
      <trkpt lat="46.73998" lon="5.69552">
        <ele>531.6</ele>
        <time>2020-02-28T11:05:51Z</time>
      </trkpt>
      <trkpt lat="46.73993" lon="5.69554">
        <ele>531.6</ele>
        <time>2020-02-28T11:05:52Z</time>
      </trkpt>
      <trkpt lat="46.73988" lon="5.69555">
        <ele>531.8</ele>
        <time>2020-02-28T11:05:53Z</time>
      </trkpt>
      <trkpt lat="46.73984" lon="5.69557">
        <ele>531.8</ele>
        <time>2020-02-28T11:05:54Z</time>
      </trkpt>
      <trkpt lat="46.7398" lon="5.69558">
        <ele>531.8</ele>
        <time>2020-02-28T11:05:55Z</time>
      </trkpt>
      <trkpt lat="46.73975" lon="5.6956">
        <ele>531.8</ele>
        <time>2020-02-28T11:05:56Z</time>
      </trkpt>
      <trkpt lat="46.73971" lon="5.69562">
        <ele>532</ele>
        <time>2020-02-28T11:05:57Z</time>
      </trkpt>
      <trkpt lat="46.73966" lon="5.69564">
        <ele>532</ele>
        <time>2020-02-28T11:05:58Z</time>
      </trkpt>
      <trkpt lat="46.73962" lon="5.69566">
        <ele>532</ele>
        <time>2020-02-28T11:05:59Z</time>
      </trkpt>
      <trkpt lat="46.73958" lon="5.69568">
        <ele>532</ele>
        <time>2020-02-28T11:06:00Z</time>
      </trkpt>
      <trkpt lat="46.73954" lon="5.6957">
        <ele>532</ele>
        <time>2020-02-28T11:06:01Z</time>
      </trkpt>
      <trkpt lat="46.7395" lon="5.69573">
        <ele>532.4</ele>
        <time>2020-02-28T11:06:02Z</time>
      </trkpt>
      <trkpt lat="46.73945" lon="5.69575">
        <ele>532.4</ele>
        <time>2020-02-28T11:06:03Z</time>
      </trkpt>
      <trkpt lat="46.73941" lon="5.69578">
        <ele>532.4</ele>
        <time>2020-02-28T11:06:04Z</time>
      </trkpt>
      <trkpt lat="46.73938" lon="5.69581">
        <ele>532.4</ele>
        <time>2020-02-28T11:06:05Z</time>
      </trkpt>
      <trkpt lat="46.73934" lon="5.69585">
        <ele>532.6</ele>
        <time>2020-02-28T11:06:06Z</time>
      </trkpt>
      <trkpt lat="46.7393" lon="5.69588">
        <ele>532.6</ele>
        <time>2020-02-28T11:06:07Z</time>
      </trkpt>
      <trkpt lat="46.73926" lon="5.69592">
        <ele>532.6</ele>
        <time>2020-02-28T11:06:08Z</time>
      </trkpt>
      <trkpt lat="46.73922" lon="5.69596">
        <ele>532.6</ele>
        <time>2020-02-28T11:06:09Z</time>
      </trkpt>
      <trkpt lat="46.73918" lon="5.696">
        <ele>532.4</ele>
        <time>2020-02-28T11:06:10Z</time>
      </trkpt>
      <trkpt lat="46.73914" lon="5.69605">
        <ele>532.4</ele>
        <time>2020-02-28T11:06:11Z</time>
      </trkpt>
      <trkpt lat="46.7391" lon="5.69609">
        <ele>532.4</ele>
        <time>2020-02-28T11:06:12Z</time>
      </trkpt>
      <trkpt lat="46.73907" lon="5.69614">
        <ele>532.4</ele>
        <time>2020-02-28T11:06:13Z</time>
      </trkpt>
      <trkpt lat="46.73903" lon="5.69619">
        <ele>532.4</ele>
        <time>2020-02-28T11:06:14Z</time>
      </trkpt>
      <trkpt lat="46.739" lon="5.69624">
        <ele>532.4</ele>
        <time>2020-02-28T11:06:15Z</time>
      </trkpt>
      <trkpt lat="46.73896" lon="5.69629">
        <ele>532.4</ele>
        <time>2020-02-28T11:06:16Z</time>
      </trkpt>
      <trkpt lat="46.73893" lon="5.69634">
        <ele>532.4</ele>
        <time>2020-02-28T11:06:17Z</time>
      </trkpt>
      <trkpt lat="46.7389" lon="5.69639">
        <ele>532.4</ele>
        <time>2020-02-28T11:06:18Z</time>
      </trkpt>
      <trkpt lat="46.73887" lon="5.69644">
        <ele>532.4</ele>
        <time>2020-02-28T11:06:19Z</time>
      </trkpt>
      <trkpt lat="46.73884" lon="5.69649">
        <ele>532.4</ele>
        <time>2020-02-28T11:06:20Z</time>
      </trkpt>
      <trkpt lat="46.73881" lon="5.69654">
        <ele>532.4</ele>
        <time>2020-02-28T11:06:21Z</time>
      </trkpt>
      <trkpt lat="46.73878" lon="5.69658">
        <ele>532.4</ele>
        <time>2020-02-28T11:06:22Z</time>
      </trkpt>
      <trkpt lat="46.73874" lon="5.69662">
        <ele>532.4</ele>
        <time>2020-02-28T11:06:23Z</time>
      </trkpt>
      <trkpt lat="46.73869" lon="5.69665">
        <ele>532.4</ele>
        <time>2020-02-28T11:06:24Z</time>
      </trkpt>
      <trkpt lat="46.73865" lon="5.69668">
        <ele>532.4</ele>
        <time>2020-02-28T11:06:25Z</time>
      </trkpt>
      <trkpt lat="46.7386" lon="5.6967">
        <ele>532.4</ele>
        <time>2020-02-28T11:06:26Z</time>
      </trkpt>
      <trkpt lat="46.73855" lon="5.69672">
        <ele>532.4</ele>
        <time>2020-02-28T11:06:27Z</time>
      </trkpt>
      <trkpt lat="46.7385" lon="5.69673">
        <ele>532.4</ele>
        <time>2020-02-28T11:06:28Z</time>
      </trkpt>
      <trkpt lat="46.73845" lon="5.69675">
        <ele>532.4</ele>
        <time>2020-02-28T11:06:29Z</time>
      </trkpt>
      <trkpt lat="46.7384" lon="5.69676">
        <ele>532.4</ele>
        <time>2020-02-28T11:06:30Z</time>
      </trkpt>
      <trkpt lat="46.73835" lon="5.69677">
        <ele>532.4</ele>
        <time>2020-02-28T11:06:31Z</time>
      </trkpt>
      <trkpt lat="46.7383" lon="5.69678">
        <ele>532.4</ele>
        <time>2020-02-28T11:06:32Z</time>
      </trkpt>
      <trkpt lat="46.73825" lon="5.6968">
        <ele>532.4</ele>
        <time>2020-02-28T11:06:33Z</time>
      </trkpt>
      <trkpt lat="46.7382" lon="5.69681">
        <ele>532.4</ele>
        <time>2020-02-28T11:06:34Z</time>
      </trkpt>
      <trkpt lat="46.73814" lon="5.69682">
        <ele>532.4</ele>
        <time>2020-02-28T11:06:35Z</time>
      </trkpt>
      <trkpt lat="46.73809" lon="5.69683">
        <ele>532.4</ele>
        <time>2020-02-28T11:06:36Z</time>
      </trkpt>
      <trkpt lat="46.73804" lon="5.69685">
        <ele>532.4</ele>
        <time>2020-02-28T11:06:37Z</time>
      </trkpt>
      <trkpt lat="46.738" lon="5.69686">
        <ele>532.4</ele>
        <time>2020-02-28T11:06:38Z</time>
      </trkpt>
      <trkpt lat="46.73795" lon="5.69688">
        <ele>532.4</ele>
        <time>2020-02-28T11:06:39Z</time>
      </trkpt>
      <trkpt lat="46.7379" lon="5.6969">
        <ele>532.6</ele>
        <time>2020-02-28T11:06:40Z</time>
      </trkpt>
      <trkpt lat="46.73786" lon="5.69692">
        <ele>532.6</ele>
        <time>2020-02-28T11:06:41Z</time>
      </trkpt>
      <trkpt lat="46.73782" lon="5.69696">
        <ele>532.6</ele>
        <time>2020-02-28T11:06:42Z</time>
      </trkpt>
      <trkpt lat="46.73778" lon="5.697">
        <ele>532.6</ele>
        <time>2020-02-28T11:06:43Z</time>
      </trkpt>
      <trkpt lat="46.73775" lon="5.69703">
        <ele>532.8</ele>
        <time>2020-02-28T11:06:44Z</time>
      </trkpt>
      <trkpt lat="46.73772" lon="5.69707">
        <ele>532.8</ele>
        <time>2020-02-28T11:06:45Z</time>
      </trkpt>
      <trkpt lat="46.73768" lon="5.69711">
        <ele>533.2</ele>
        <time>2020-02-28T11:06:46Z</time>
      </trkpt>
      <trkpt lat="46.73765" lon="5.69715">
        <ele>533.2</ele>
        <time>2020-02-28T11:06:47Z</time>
      </trkpt>
      <trkpt lat="46.73762" lon="5.69719">
        <ele>533.4</ele>
        <time>2020-02-28T11:06:48Z</time>
      </trkpt>
      <trkpt lat="46.73759" lon="5.69723">
        <ele>533.4</ele>
        <time>2020-02-28T11:06:49Z</time>
      </trkpt>
      <trkpt lat="46.73755" lon="5.69727">
        <ele>533.6</ele>
        <time>2020-02-28T11:06:50Z</time>
      </trkpt>
      <trkpt lat="46.73752" lon="5.69731">
        <ele>533.6</ele>
        <time>2020-02-28T11:06:51Z</time>
      </trkpt>
      <trkpt lat="46.73748" lon="5.69735">
        <ele>533.8</ele>
        <time>2020-02-28T11:06:52Z</time>
      </trkpt>
      <trkpt lat="46.73745" lon="5.69739">
        <ele>533.8</ele>
        <time>2020-02-28T11:06:53Z</time>
      </trkpt>
      <trkpt lat="46.73741" lon="5.69743">
        <ele>533.8</ele>
        <time>2020-02-28T11:06:54Z</time>
      </trkpt>
      <trkpt lat="46.73738" lon="5.69747">
        <ele>533.8</ele>
        <time>2020-02-28T11:06:55Z</time>
      </trkpt>
      <trkpt lat="46.73735" lon="5.69752">
        <ele>533.8</ele>
        <time>2020-02-28T11:06:56Z</time>
      </trkpt>
      <trkpt lat="46.73731" lon="5.69756">
        <ele>533.8</ele>
        <time>2020-02-28T11:06:57Z</time>
      </trkpt>
      <trkpt lat="46.73728" lon="5.6976">
        <ele>534</ele>
        <time>2020-02-28T11:06:58Z</time>
      </trkpt>
      <trkpt lat="46.73724" lon="5.69764">
        <ele>534</ele>
        <time>2020-02-28T11:06:59Z</time>
      </trkpt>
      <trkpt lat="46.73721" lon="5.69768">
        <ele>534</ele>
        <time>2020-02-28T11:07:00Z</time>
      </trkpt>
      <trkpt lat="46.73718" lon="5.69771">
        <ele>534</ele>
        <time>2020-02-28T11:07:01Z</time>
      </trkpt>
      <trkpt lat="46.73715" lon="5.69774">
        <ele>534.4</ele>
        <time>2020-02-28T11:07:02Z</time>
      </trkpt>
      <trkpt lat="46.73712" lon="5.69777">
        <ele>534.4</ele>
        <time>2020-02-28T11:07:03Z</time>
      </trkpt>
      <trkpt lat="46.73709" lon="5.69781">
        <ele>534.6</ele>
        <time>2020-02-28T11:07:04Z</time>
      </trkpt>
      <trkpt lat="46.73706" lon="5.69785">
        <ele>534.6</ele>
        <time>2020-02-28T11:07:05Z</time>
      </trkpt>
      <trkpt lat="46.73703" lon="5.69789">
        <ele>535</ele>
        <time>2020-02-28T11:07:06Z</time>
      </trkpt>
      <trkpt lat="46.737" lon="5.69793">
        <ele>535</ele>
        <time>2020-02-28T11:07:07Z</time>
      </trkpt>
      <trkpt lat="46.73698" lon="5.69798">
        <ele>535</ele>
        <time>2020-02-28T11:07:08Z</time>
      </trkpt>
      <trkpt lat="46.73696" lon="5.69803">
        <ele>535</ele>
        <time>2020-02-28T11:07:09Z</time>
      </trkpt>
      <trkpt lat="46.73694" lon="5.69808">
        <ele>535</ele>
        <time>2020-02-28T11:07:10Z</time>
      </trkpt>
      <trkpt lat="46.73693" lon="5.69813">
        <ele>535</ele>
        <time>2020-02-28T11:07:11Z</time>
      </trkpt>
      <trkpt lat="46.73691" lon="5.69818">
        <ele>535.2</ele>
        <time>2020-02-28T11:07:12Z</time>
      </trkpt>
      <trkpt lat="46.73689" lon="5.69821">
        <ele>535.2</ele>
        <time>2020-02-28T11:07:13Z</time>
      </trkpt>
      <trkpt lat="46.73687" lon="5.69825">
        <ele>535.2</ele>
        <time>2020-02-28T11:07:14Z</time>
      </trkpt>
      <trkpt lat="46.73685" lon="5.69828">
        <ele>535.2</ele>
        <time>2020-02-28T11:07:15Z</time>
      </trkpt>
      <trkpt lat="46.73682" lon="5.69832">
        <ele>535.2</ele>
        <time>2020-02-28T11:07:16Z</time>
      </trkpt>
      <trkpt lat="46.73679" lon="5.69835">
        <ele>535.2</ele>
        <time>2020-02-28T11:07:17Z</time>
      </trkpt>
      <trkpt lat="46.73676" lon="5.69838">
        <ele>535.2</ele>
        <time>2020-02-28T11:07:18Z</time>
      </trkpt>
      <trkpt lat="46.73673" lon="5.69841">
        <ele>535.2</ele>
        <time>2020-02-28T11:07:19Z</time>
      </trkpt>
      <trkpt lat="46.73669" lon="5.69845">
        <ele>534.8</ele>
        <time>2020-02-28T11:07:20Z</time>
      </trkpt>
      <trkpt lat="46.73665" lon="5.69849">
        <ele>534.8</ele>
        <time>2020-02-28T11:07:21Z</time>
      </trkpt>
      <trkpt lat="46.73661" lon="5.69854">
        <ele>534.8</ele>
        <time>2020-02-28T11:07:22Z</time>
      </trkpt>
      <trkpt lat="46.73657" lon="5.69858">
        <ele>534.4</ele>
        <time>2020-02-28T11:07:23Z</time>
      </trkpt>
      <trkpt lat="46.73653" lon="5.69863">
        <ele>534.4</ele>
        <time>2020-02-28T11:07:24Z</time>
      </trkpt>
      <trkpt lat="46.73649" lon="5.69867">
        <ele>534.2</ele>
        <time>2020-02-28T11:07:25Z</time>
      </trkpt>
      <trkpt lat="46.73644" lon="5.69872">
        <ele>533.8</ele>
        <time>2020-02-28T11:07:26Z</time>
      </trkpt>
      <trkpt lat="46.7364" lon="5.69877">
        <ele>533.6</ele>
        <time>2020-02-28T11:07:27Z</time>
      </trkpt>
      <trkpt lat="46.73635" lon="5.69882">
        <ele>533.4</ele>
        <time>2020-02-28T11:07:28Z</time>
      </trkpt>
      <trkpt lat="46.73631" lon="5.69887">
        <ele>533</ele>
        <time>2020-02-28T11:07:29Z</time>
      </trkpt>
      <trkpt lat="46.73626" lon="5.69893">
        <ele>532.8</ele>
        <time>2020-02-28T11:07:30Z</time>
      </trkpt>
      <trkpt lat="46.73623" lon="5.69899">
        <ele>532.4</ele>
        <time>2020-02-28T11:07:31Z</time>
      </trkpt>
      <trkpt lat="46.73619" lon="5.69905">
        <ele>532.2</ele>
        <time>2020-02-28T11:07:32Z</time>
      </trkpt>
      <trkpt lat="46.73616" lon="5.69912">
        <ele>532</ele>
        <time>2020-02-28T11:07:33Z</time>
      </trkpt>
      <trkpt lat="46.73612" lon="5.69918">
        <ele>531.8</ele>
        <time>2020-02-28T11:07:34Z</time>
      </trkpt>
      <trkpt lat="46.73609" lon="5.69924">
        <ele>531.4</ele>
        <time>2020-02-28T11:07:35Z</time>
      </trkpt>
      <trkpt lat="46.73605" lon="5.69929">
        <ele>531.2</ele>
        <time>2020-02-28T11:07:36Z</time>
      </trkpt>
      <trkpt lat="46.736" lon="5.69935">
        <ele>530.8</ele>
        <time>2020-02-28T11:07:37Z</time>
      </trkpt>
      <trkpt lat="46.73596" lon="5.69939">
        <ele>530.6</ele>
        <time>2020-02-28T11:07:38Z</time>
      </trkpt>
      <trkpt lat="46.73592" lon="5.69943">
        <ele>530.4</ele>
        <time>2020-02-28T11:07:39Z</time>
      </trkpt>
      <trkpt lat="46.73587" lon="5.69946">
        <ele>530.4</ele>
        <time>2020-02-28T11:07:40Z</time>
      </trkpt>
      <trkpt lat="46.73582" lon="5.69948">
        <ele>530</ele>
        <time>2020-02-28T11:07:41Z</time>
      </trkpt>
      <trkpt lat="46.73578" lon="5.69949">
        <ele>530</ele>
        <time>2020-02-28T11:07:42Z</time>
      </trkpt>
      <trkpt lat="46.73573" lon="5.69949">
        <ele>530</ele>
        <time>2020-02-28T11:07:43Z</time>
      </trkpt>
      <trkpt lat="46.73568" lon="5.6995">
        <ele>529.8</ele>
        <time>2020-02-28T11:07:44Z</time>
      </trkpt>
      <trkpt lat="46.73564" lon="5.69951">
        <ele>529.8</ele>
        <time>2020-02-28T11:07:45Z</time>
      </trkpt>
      <trkpt lat="46.73559" lon="5.69952">
        <ele>529.8</ele>
        <time>2020-02-28T11:07:46Z</time>
      </trkpt>
      <trkpt lat="46.73555" lon="5.69952">
        <ele>529.8</ele>
        <time>2020-02-28T11:07:47Z</time>
      </trkpt>
      <trkpt lat="46.73551" lon="5.6995">
        <ele>529.8</ele>
        <time>2020-02-28T11:07:48Z</time>
      </trkpt>
      <trkpt lat="46.73547" lon="5.69948">
        <ele>529.6</ele>
        <time>2020-02-28T11:07:49Z</time>
      </trkpt>
      <trkpt lat="46.73543" lon="5.69944">
        <ele>529.6</ele>
        <time>2020-02-28T11:07:50Z</time>
      </trkpt>
      <trkpt lat="46.7354" lon="5.6994">
        <ele>529.6</ele>
        <time>2020-02-28T11:07:51Z</time>
      </trkpt>
      <trkpt lat="46.73537" lon="5.69936">
        <ele>529.6</ele>
        <time>2020-02-28T11:07:52Z</time>
      </trkpt>
      <trkpt lat="46.73534" lon="5.69931">
        <ele>529.6</ele>
        <time>2020-02-28T11:07:53Z</time>
      </trkpt>
      <trkpt lat="46.73532" lon="5.69927">
        <ele>529.6</ele>
        <time>2020-02-28T11:07:54Z</time>
      </trkpt>
      <trkpt lat="46.73529" lon="5.69923">
        <ele>529.6</ele>
        <time>2020-02-28T11:07:55Z</time>
      </trkpt>
      <trkpt lat="46.73527" lon="5.69919">
        <ele>529.6</ele>
        <time>2020-02-28T11:07:56Z</time>
      </trkpt>
      <trkpt lat="46.73525" lon="5.69915">
        <ele>529.6</ele>
        <time>2020-02-28T11:07:57Z</time>
      </trkpt>
      <trkpt lat="46.73523" lon="5.69912">
        <ele>529.4</ele>
        <time>2020-02-28T11:07:58Z</time>
      </trkpt>
      <trkpt lat="46.73521" lon="5.69908">
        <ele>529.4</ele>
        <time>2020-02-28T11:07:59Z</time>
      </trkpt>
      <trkpt lat="46.73519" lon="5.69905">
        <ele>529.4</ele>
        <time>2020-02-28T11:08:00Z</time>
      </trkpt>
      <trkpt lat="46.73517" lon="5.69902">
        <ele>529.4</ele>
        <time>2020-02-28T11:08:01Z</time>
      </trkpt>
      <trkpt lat="46.73515" lon="5.69898">
        <ele>529.2</ele>
        <time>2020-02-28T11:08:02Z</time>
      </trkpt>
      <trkpt lat="46.73513" lon="5.69893">
        <ele>529.2</ele>
        <time>2020-02-28T11:08:03Z</time>
      </trkpt>
      <trkpt lat="46.73511" lon="5.69889">
        <ele>529</ele>
        <time>2020-02-28T11:08:04Z</time>
      </trkpt>
      <trkpt lat="46.7351" lon="5.69883">
        <ele>529</ele>
        <time>2020-02-28T11:08:05Z</time>
      </trkpt>
      <trkpt lat="46.73509" lon="5.69876">
        <ele>529</ele>
        <time>2020-02-28T11:08:06Z</time>
      </trkpt>
      <trkpt lat="46.73509" lon="5.69869">
        <ele>528.8</ele>
        <time>2020-02-28T11:08:07Z</time>
      </trkpt>
      <trkpt lat="46.73509" lon="5.69862">
        <ele>528.8</ele>
        <time>2020-02-28T11:08:08Z</time>
      </trkpt>
      <trkpt lat="46.7351" lon="5.69855">
        <ele>528.4</ele>
        <time>2020-02-28T11:08:09Z</time>
      </trkpt>
      <trkpt lat="46.7351" lon="5.69847">
        <ele>528.2</ele>
        <time>2020-02-28T11:08:10Z</time>
      </trkpt>
      <trkpt lat="46.7351" lon="5.69839">
        <ele>528</ele>
        <time>2020-02-28T11:08:11Z</time>
      </trkpt>
      <trkpt lat="46.7351" lon="5.69831">
        <ele>528</ele>
        <time>2020-02-28T11:08:12Z</time>
      </trkpt>
      <trkpt lat="46.7351" lon="5.69823">
        <ele>527.6</ele>
        <time>2020-02-28T11:08:13Z</time>
      </trkpt>
      <trkpt lat="46.73509" lon="5.69815">
        <ele>527.6</ele>
        <time>2020-02-28T11:08:14Z</time>
      </trkpt>
      <trkpt lat="46.73507" lon="5.69807">
        <ele>527.4</ele>
        <time>2020-02-28T11:08:15Z</time>
      </trkpt>
      <trkpt lat="46.73504" lon="5.69801">
        <ele>527.4</ele>
        <time>2020-02-28T11:08:16Z</time>
      </trkpt>
      <trkpt lat="46.73501" lon="5.69794">
        <ele>527.4</ele>
        <time>2020-02-28T11:08:17Z</time>
      </trkpt>
      <trkpt lat="46.73497" lon="5.69788">
        <ele>527.2</ele>
        <time>2020-02-28T11:08:18Z</time>
      </trkpt>
      <trkpt lat="46.73493" lon="5.69783">
        <ele>527.2</ele>
        <time>2020-02-28T11:08:19Z</time>
      </trkpt>
      <trkpt lat="46.73489" lon="5.69778">
        <ele>527</ele>
        <time>2020-02-28T11:08:20Z</time>
      </trkpt>
      <trkpt lat="46.73484" lon="5.69774">
        <ele>527</ele>
        <time>2020-02-28T11:08:21Z</time>
      </trkpt>
      <trkpt lat="46.73478" lon="5.69769">
        <ele>526.6</ele>
        <time>2020-02-28T11:08:22Z</time>
      </trkpt>
      <trkpt lat="46.73473" lon="5.69765">
        <ele>526.6</ele>
        <time>2020-02-28T11:08:23Z</time>
      </trkpt>
      <trkpt lat="46.73467" lon="5.69762">
        <ele>526.4</ele>
        <time>2020-02-28T11:08:24Z</time>
      </trkpt>
      <trkpt lat="46.73462" lon="5.69758">
        <ele>526.4</ele>
        <time>2020-02-28T11:08:25Z</time>
      </trkpt>
      <trkpt lat="46.73456" lon="5.69753">
        <ele>526.4</ele>
        <time>2020-02-28T11:08:26Z</time>
      </trkpt>
      <trkpt lat="46.73451" lon="5.6975">
        <ele>526</ele>
        <time>2020-02-28T11:08:27Z</time>
      </trkpt>
      <trkpt lat="46.73446" lon="5.69747">
        <ele>526</ele>
        <time>2020-02-28T11:08:28Z</time>
      </trkpt>
      <trkpt lat="46.73442" lon="5.69744">
        <ele>525.8</ele>
        <time>2020-02-28T11:08:29Z</time>
      </trkpt>
      <trkpt lat="46.73437" lon="5.6974">
        <ele>525.8</ele>
        <time>2020-02-28T11:08:30Z</time>
      </trkpt>
      <trkpt lat="46.73433" lon="5.69737">
        <ele>525.8</ele>
        <time>2020-02-28T11:08:31Z</time>
      </trkpt>
      <trkpt lat="46.73429" lon="5.69735">
        <ele>526</ele>
        <time>2020-02-28T11:08:32Z</time>
      </trkpt>
      <trkpt lat="46.73425" lon="5.69731">
        <ele>526</ele>
        <time>2020-02-28T11:08:33Z</time>
      </trkpt>
      <trkpt lat="46.73421" lon="5.69729">
        <ele>526</ele>
        <time>2020-02-28T11:08:34Z</time>
      </trkpt>
      <trkpt lat="46.73418" lon="5.69726">
        <ele>526.2</ele>
        <time>2020-02-28T11:08:35Z</time>
      </trkpt>
      <trkpt lat="46.73415" lon="5.69724">
        <ele>526.2</ele>
        <time>2020-02-28T11:08:36Z</time>
      </trkpt>
      <trkpt lat="46.73412" lon="5.69721">
        <ele>526.6</ele>
        <time>2020-02-28T11:08:37Z</time>
      </trkpt>
      <trkpt lat="46.73409" lon="5.69719">
        <ele>526.6</ele>
        <time>2020-02-28T11:08:38Z</time>
      </trkpt>
      <trkpt lat="46.73407" lon="5.69717">
        <ele>526.8</ele>
        <time>2020-02-28T11:08:39Z</time>
      </trkpt>
      <trkpt lat="46.73404" lon="5.69714">
        <ele>526.8</ele>
        <time>2020-02-28T11:08:40Z</time>
      </trkpt>
      <trkpt lat="46.73401" lon="5.69713">
        <ele>527</ele>
        <time>2020-02-28T11:08:41Z</time>
      </trkpt>
      <trkpt lat="46.73399" lon="5.69711">
        <ele>527</ele>
        <time>2020-02-28T11:08:42Z</time>
      </trkpt>
      <trkpt lat="46.73396" lon="5.69709">
        <ele>527</ele>
        <time>2020-02-28T11:08:43Z</time>
      </trkpt>
      <trkpt lat="46.73394" lon="5.69707">
        <ele>527.4</ele>
        <time>2020-02-28T11:08:44Z</time>
      </trkpt>
      <trkpt lat="46.73392" lon="5.69705">
        <ele>527.6</ele>
        <time>2020-02-28T11:08:45Z</time>
      </trkpt>
      <trkpt lat="46.73389" lon="5.69702">
        <ele>527.6</ele>
        <time>2020-02-28T11:08:46Z</time>
      </trkpt>
      <trkpt lat="46.73386" lon="5.697">
        <ele>527.6</ele>
        <time>2020-02-28T11:08:47Z</time>
      </trkpt>
      <trkpt lat="46.73384" lon="5.69698">
        <ele>527.8</ele>
        <time>2020-02-28T11:08:48Z</time>
      </trkpt>
      <trkpt lat="46.73381" lon="5.69697">
        <ele>527.8</ele>
        <time>2020-02-28T11:08:49Z</time>
      </trkpt>
      <trkpt lat="46.73378" lon="5.69695">
        <ele>527.8</ele>
        <time>2020-02-28T11:08:50Z</time>
      </trkpt>
      <trkpt lat="46.73375" lon="5.69692">
        <ele>527.8</ele>
        <time>2020-02-28T11:08:51Z</time>
      </trkpt>
      <trkpt lat="46.73372" lon="5.6969">
        <ele>527.8</ele>
        <time>2020-02-28T11:08:52Z</time>
      </trkpt>
      <trkpt lat="46.73368" lon="5.69687">
        <ele>528</ele>
        <time>2020-02-28T11:08:53Z</time>
      </trkpt>
      <trkpt lat="46.73365" lon="5.69684">
        <ele>528</ele>
        <time>2020-02-28T11:08:54Z</time>
      </trkpt>
      <trkpt lat="46.73362" lon="5.69682">
        <ele>528</ele>
        <time>2020-02-28T11:08:55Z</time>
      </trkpt>
      <trkpt lat="46.73358" lon="5.69679">
        <ele>528</ele>
        <time>2020-02-28T11:08:56Z</time>
      </trkpt>
      <trkpt lat="46.73354" lon="5.69676">
        <ele>528</ele>
        <time>2020-02-28T11:08:57Z</time>
      </trkpt>
      <trkpt lat="46.7335" lon="5.69673">
        <ele>527.6</ele>
        <time>2020-02-28T11:08:58Z</time>
      </trkpt>
      <trkpt lat="46.73347" lon="5.6967">
        <ele>527.6</ele>
        <time>2020-02-28T11:08:59Z</time>
      </trkpt>
      <trkpt lat="46.73343" lon="5.69667">
        <ele>527.6</ele>
        <time>2020-02-28T11:09:00Z</time>
      </trkpt>
      <trkpt lat="46.73339" lon="5.69664">
        <ele>527.6</ele>
        <time>2020-02-28T11:09:01Z</time>
      </trkpt>
      <trkpt lat="46.73335" lon="5.69661">
        <ele>527.2</ele>
        <time>2020-02-28T11:09:02Z</time>
      </trkpt>
      <trkpt lat="46.73331" lon="5.69658">
        <ele>527.2</ele>
        <time>2020-02-28T11:09:03Z</time>
      </trkpt>
      <trkpt lat="46.73326" lon="5.69654">
        <ele>527.2</ele>
        <time>2020-02-28T11:09:04Z</time>
      </trkpt>
      <trkpt lat="46.73322" lon="5.69651">
        <ele>527.2</ele>
        <time>2020-02-28T11:09:05Z</time>
      </trkpt>
      <trkpt lat="46.73318" lon="5.69649">
        <ele>527</ele>
        <time>2020-02-28T11:09:06Z</time>
      </trkpt>
      <trkpt lat="46.73313" lon="5.69646">
        <ele>527</ele>
        <time>2020-02-28T11:09:07Z</time>
      </trkpt>
      <trkpt lat="46.73309" lon="5.69645">
        <ele>527</ele>
        <time>2020-02-28T11:09:08Z</time>
      </trkpt>
      <trkpt lat="46.73305" lon="5.69644">
        <ele>527</ele>
        <time>2020-02-28T11:09:09Z</time>
      </trkpt>
      <trkpt lat="46.73302" lon="5.69644">
        <ele>527</ele>
        <time>2020-02-28T11:09:10Z</time>
      </trkpt>
      <trkpt lat="46.73298" lon="5.69646">
        <ele>527</ele>
        <time>2020-02-28T11:09:11Z</time>
      </trkpt>
      <trkpt lat="46.73295" lon="5.69648">
        <ele>527</ele>
        <time>2020-02-28T11:09:12Z</time>
      </trkpt>
      <trkpt lat="46.73292" lon="5.6965">
        <ele>527</ele>
        <time>2020-02-28T11:09:13Z</time>
      </trkpt>
      <trkpt lat="46.73289" lon="5.69652">
        <ele>527</ele>
        <time>2020-02-28T11:09:14Z</time>
      </trkpt>
      <trkpt lat="46.73286" lon="5.69655">
        <ele>527</ele>
        <time>2020-02-28T11:09:15Z</time>
      </trkpt>
      <trkpt lat="46.73283" lon="5.69657">
        <ele>527</ele>
        <time>2020-02-28T11:09:16Z</time>
      </trkpt>
      <trkpt lat="46.7328" lon="5.6966">
        <ele>527.2</ele>
        <time>2020-02-28T11:09:17Z</time>
      </trkpt>
      <trkpt lat="46.73277" lon="5.69662">
        <ele>527.2</ele>
        <time>2020-02-28T11:09:18Z</time>
      </trkpt>
      <trkpt lat="46.73273" lon="5.69665">
        <ele>527.2</ele>
        <time>2020-02-28T11:09:19Z</time>
      </trkpt>
      <trkpt lat="46.73269" lon="5.69667">
        <ele>527.2</ele>
        <time>2020-02-28T11:09:20Z</time>
      </trkpt>
      <trkpt lat="46.73265" lon="5.69669">
        <ele>527.2</ele>
        <time>2020-02-28T11:09:21Z</time>
      </trkpt>
      <trkpt lat="46.73261" lon="5.6967">
        <ele>527.4</ele>
        <time>2020-02-28T11:09:22Z</time>
      </trkpt>
      <trkpt lat="46.73256" lon="5.6967">
        <ele>527.4</ele>
        <time>2020-02-28T11:09:23Z</time>
      </trkpt>
      <trkpt lat="46.73252" lon="5.69669">
        <ele>527.4</ele>
        <time>2020-02-28T11:09:24Z</time>
      </trkpt>
      <trkpt lat="46.73248" lon="5.69667">
        <ele>527.4</ele>
        <time>2020-02-28T11:09:25Z</time>
      </trkpt>
      <trkpt lat="46.73243" lon="5.69665">
        <ele>527.4</ele>
        <time>2020-02-28T11:09:26Z</time>
      </trkpt>
      <trkpt lat="46.73238" lon="5.69663">
        <ele>527.4</ele>
        <time>2020-02-28T11:09:27Z</time>
      </trkpt>
      <trkpt lat="46.73234" lon="5.6966">
        <ele>527.4</ele>
        <time>2020-02-28T11:09:28Z</time>
      </trkpt>
      <trkpt lat="46.73229" lon="5.69658">
        <ele>527.4</ele>
        <time>2020-02-28T11:09:29Z</time>
      </trkpt>
      <trkpt lat="46.73224" lon="5.69655">
        <ele>527.4</ele>
        <time>2020-02-28T11:09:30Z</time>
      </trkpt>
      <trkpt lat="46.73219" lon="5.69652">
        <ele>527.4</ele>
        <time>2020-02-28T11:09:31Z</time>
      </trkpt>
      <trkpt lat="46.73215" lon="5.6965">
        <ele>527.4</ele>
        <time>2020-02-28T11:09:32Z</time>
      </trkpt>
      <trkpt lat="46.7321" lon="5.69649">
        <ele>527.4</ele>
        <time>2020-02-28T11:09:33Z</time>
      </trkpt>
      <trkpt lat="46.73206" lon="5.69648">
        <ele>527.4</ele>
        <time>2020-02-28T11:09:34Z</time>
      </trkpt>
      <trkpt lat="46.73201" lon="5.69648">
        <ele>527.4</ele>
        <time>2020-02-28T11:09:35Z</time>
      </trkpt>
      <trkpt lat="46.73197" lon="5.69648">
        <ele>527.4</ele>
        <time>2020-02-28T11:09:36Z</time>
      </trkpt>
      <trkpt lat="46.73192" lon="5.69649">
        <ele>527.4</ele>
        <time>2020-02-28T11:09:37Z</time>
      </trkpt>
      <trkpt lat="46.73188" lon="5.6965">
        <ele>527.8</ele>
        <time>2020-02-28T11:09:38Z</time>
      </trkpt>
      <trkpt lat="46.73183" lon="5.6965">
        <ele>527.8</ele>
        <time>2020-02-28T11:09:39Z</time>
      </trkpt>
      <trkpt lat="46.73179" lon="5.69651">
        <ele>527.8</ele>
        <time>2020-02-28T11:09:40Z</time>
      </trkpt>
      <trkpt lat="46.73175" lon="5.69651">
        <ele>528.2</ele>
        <time>2020-02-28T11:09:41Z</time>
      </trkpt>
      <trkpt lat="46.7317" lon="5.69652">
        <ele>528.2</ele>
        <time>2020-02-28T11:09:42Z</time>
      </trkpt>
      <trkpt lat="46.73166" lon="5.69652">
        <ele>528.4</ele>
        <time>2020-02-28T11:09:43Z</time>
      </trkpt>
      <trkpt lat="46.73162" lon="5.69653">
        <ele>528.4</ele>
        <time>2020-02-28T11:09:44Z</time>
      </trkpt>
      <trkpt lat="46.73158" lon="5.69654">
        <ele>528.6</ele>
        <time>2020-02-28T11:09:45Z</time>
      </trkpt>
      <trkpt lat="46.73154" lon="5.69655">
        <ele>529</ele>
        <time>2020-02-28T11:09:46Z</time>
      </trkpt>
      <trkpt lat="46.7315" lon="5.69656">
        <ele>529.2</ele>
        <time>2020-02-28T11:09:47Z</time>
      </trkpt>
      <trkpt lat="46.73146" lon="5.69656">
        <ele>529.2</ele>
        <time>2020-02-28T11:09:48Z</time>
      </trkpt>
      <trkpt lat="46.73143" lon="5.69656">
        <ele>529.6</ele>
        <time>2020-02-28T11:09:49Z</time>
      </trkpt>
      <trkpt lat="46.73139" lon="5.69656">
        <ele>529.6</ele>
        <time>2020-02-28T11:09:50Z</time>
      </trkpt>
      <trkpt lat="46.73136" lon="5.69657">
        <ele>529.8</ele>
        <time>2020-02-28T11:09:51Z</time>
      </trkpt>
      <trkpt lat="46.73133" lon="5.69657">
        <ele>529.8</ele>
        <time>2020-02-28T11:09:52Z</time>
      </trkpt>
      <trkpt lat="46.7313" lon="5.69657">
        <ele>530.2</ele>
        <time>2020-02-28T11:09:53Z</time>
      </trkpt>
      <trkpt lat="46.73127" lon="5.69658">
        <ele>530.2</ele>
        <time>2020-02-28T11:09:54Z</time>
      </trkpt>
      <trkpt lat="46.73123" lon="5.69658">
        <ele>530.4</ele>
        <time>2020-02-28T11:09:55Z</time>
      </trkpt>
      <trkpt lat="46.7312" lon="5.69659">
        <ele>530.4</ele>
        <time>2020-02-28T11:09:56Z</time>
      </trkpt>
      <trkpt lat="46.73117" lon="5.69659">
        <ele>530.6</ele>
        <time>2020-02-28T11:09:57Z</time>
      </trkpt>
      <trkpt lat="46.73113" lon="5.69659">
        <ele>530.6</ele>
        <time>2020-02-28T11:09:58Z</time>
      </trkpt>
      <trkpt lat="46.7311" lon="5.69658">
        <ele>530.8</ele>
        <time>2020-02-28T11:09:59Z</time>
      </trkpt>
      <trkpt lat="46.73106" lon="5.69657">
        <ele>530.8</ele>
        <time>2020-02-28T11:10:00Z</time>
      </trkpt>
      <trkpt lat="46.73103" lon="5.69656">
        <ele>530.8</ele>
        <time>2020-02-28T11:10:01Z</time>
      </trkpt>
      <trkpt lat="46.73099" lon="5.69655">
        <ele>531.2</ele>
        <time>2020-02-28T11:10:02Z</time>
      </trkpt>
      <trkpt lat="46.73095" lon="5.69654">
        <ele>531.2</ele>
        <time>2020-02-28T11:10:03Z</time>
      </trkpt>
      <trkpt lat="46.73092" lon="5.69652">
        <ele>531.2</ele>
        <time>2020-02-28T11:10:04Z</time>
      </trkpt>
      <trkpt lat="46.73088" lon="5.69651">
        <ele>531.4</ele>
        <time>2020-02-28T11:10:05Z</time>
      </trkpt>
      <trkpt lat="46.73084" lon="5.69651">
        <ele>531.4</ele>
        <time>2020-02-28T11:10:06Z</time>
      </trkpt>
      <trkpt lat="46.7308" lon="5.69652">
        <ele>531.4</ele>
        <time>2020-02-28T11:10:07Z</time>
      </trkpt>
      <trkpt lat="46.73077" lon="5.69653">
        <ele>531.6</ele>
        <time>2020-02-28T11:10:08Z</time>
      </trkpt>
      <trkpt lat="46.73073" lon="5.69655">
        <ele>531.8</ele>
        <time>2020-02-28T11:10:09Z</time>
      </trkpt>
      <trkpt lat="46.73071" lon="5.69657">
        <ele>531.8</ele>
        <time>2020-02-28T11:10:10Z</time>
      </trkpt>
      <trkpt lat="46.73068" lon="5.6966">
        <ele>532</ele>
        <time>2020-02-28T11:10:11Z</time>
      </trkpt>
      <trkpt lat="46.73065" lon="5.69663">
        <ele>532</ele>
        <time>2020-02-28T11:10:12Z</time>
      </trkpt>
      <trkpt lat="46.73062" lon="5.69665">
        <ele>532.4</ele>
        <time>2020-02-28T11:10:13Z</time>
      </trkpt>
      <trkpt lat="46.73059" lon="5.69667">
        <ele>532.4</ele>
        <time>2020-02-28T11:10:14Z</time>
      </trkpt>
      <trkpt lat="46.73056" lon="5.6967">
        <ele>532.6</ele>
        <time>2020-02-28T11:10:15Z</time>
      </trkpt>
      <trkpt lat="46.73053" lon="5.69673">
        <ele>532.6</ele>
        <time>2020-02-28T11:10:16Z</time>
      </trkpt>
      <trkpt lat="46.7305" lon="5.69676">
        <ele>532.8</ele>
        <time>2020-02-28T11:10:17Z</time>
      </trkpt>
      <trkpt lat="46.73047" lon="5.6968">
        <ele>532.8</ele>
        <time>2020-02-28T11:10:18Z</time>
      </trkpt>
      <trkpt lat="46.73044" lon="5.69683">
        <ele>532.8</ele>
        <time>2020-02-28T11:10:19Z</time>
      </trkpt>
      <trkpt lat="46.73042" lon="5.69688">
        <ele>532.8</ele>
        <time>2020-02-28T11:10:20Z</time>
      </trkpt>
      <trkpt lat="46.73039" lon="5.69693">
        <ele>532.8</ele>
        <time>2020-02-28T11:10:21Z</time>
      </trkpt>
      <trkpt lat="46.73036" lon="5.69698">
        <ele>532.8</ele>
        <time>2020-02-28T11:10:22Z</time>
      </trkpt>
      <trkpt lat="46.73033" lon="5.69703">
        <ele>532.8</ele>
        <time>2020-02-28T11:10:23Z</time>
      </trkpt>
      <trkpt lat="46.7303" lon="5.69708">
        <ele>532.8</ele>
        <time>2020-02-28T11:10:24Z</time>
      </trkpt>
      <trkpt lat="46.73027" lon="5.69713">
        <ele>532.8</ele>
        <time>2020-02-28T11:10:25Z</time>
      </trkpt>
      <trkpt lat="46.73024" lon="5.69719">
        <ele>532.6</ele>
        <time>2020-02-28T11:10:26Z</time>
      </trkpt>
      <trkpt lat="46.73021" lon="5.69724">
        <ele>532.6</ele>
        <time>2020-02-28T11:10:27Z</time>
      </trkpt>
      <trkpt lat="46.73018" lon="5.6973">
        <ele>532.6</ele>
        <time>2020-02-28T11:10:28Z</time>
      </trkpt>
      <trkpt lat="46.73014" lon="5.69736">
        <ele>532.2</ele>
        <time>2020-02-28T11:10:29Z</time>
      </trkpt>
      <trkpt lat="46.73011" lon="5.69741">
        <ele>532.2</ele>
        <time>2020-02-28T11:10:30Z</time>
      </trkpt>
      <trkpt lat="46.73008" lon="5.69747">
        <ele>532</ele>
        <time>2020-02-28T11:10:31Z</time>
      </trkpt>
      <trkpt lat="46.73005" lon="5.69754">
        <ele>531.6</ele>
        <time>2020-02-28T11:10:32Z</time>
      </trkpt>
      <trkpt lat="46.73001" lon="5.69759">
        <ele>531.6</ele>
        <time>2020-02-28T11:10:33Z</time>
      </trkpt>
      <trkpt lat="46.72998" lon="5.69764">
        <ele>531.2</ele>
        <time>2020-02-28T11:10:34Z</time>
      </trkpt>
      <trkpt lat="46.72995" lon="5.69769">
        <ele>531.2</ele>
        <time>2020-02-28T11:10:35Z</time>
      </trkpt>
      <trkpt lat="46.72992" lon="5.69774">
        <ele>531</ele>
        <time>2020-02-28T11:10:36Z</time>
      </trkpt>
      <trkpt lat="46.72989" lon="5.69778">
        <ele>531</ele>
        <time>2020-02-28T11:10:37Z</time>
      </trkpt>
      <trkpt lat="46.72985" lon="5.69781">
        <ele>531</ele>
        <time>2020-02-28T11:10:38Z</time>
      </trkpt>
      <trkpt lat="46.7298" lon="5.69783">
        <ele>530.8</ele>
        <time>2020-02-28T11:10:39Z</time>
      </trkpt>
      <trkpt lat="46.72976" lon="5.69786">
        <ele>530.8</ele>
        <time>2020-02-28T11:10:40Z</time>
      </trkpt>
      <trkpt lat="46.72971" lon="5.69787">
        <ele>530.4</ele>
        <time>2020-02-28T11:10:41Z</time>
      </trkpt>
      <trkpt lat="46.72966" lon="5.69787">
        <ele>530.4</ele>
        <time>2020-02-28T11:10:42Z</time>
      </trkpt>
      <trkpt lat="46.72961" lon="5.69785">
        <ele>530</ele>
        <time>2020-02-28T11:10:43Z</time>
      </trkpt>
      <trkpt lat="46.72956" lon="5.69782">
        <ele>529.8</ele>
        <time>2020-02-28T11:10:44Z</time>
      </trkpt>
      <trkpt lat="46.72951" lon="5.69778">
        <ele>529.6</ele>
        <time>2020-02-28T11:10:45Z</time>
      </trkpt>
      <trkpt lat="46.72946" lon="5.69775">
        <ele>529.6</ele>
        <time>2020-02-28T11:10:46Z</time>
      </trkpt>
      <trkpt lat="46.7294" lon="5.69771">
        <ele>529.2</ele>
        <time>2020-02-28T11:10:47Z</time>
      </trkpt>
      <trkpt lat="46.72935" lon="5.69767">
        <ele>529.2</ele>
        <time>2020-02-28T11:10:48Z</time>
      </trkpt>
      <trkpt lat="46.7293" lon="5.69763">
        <ele>529.2</ele>
        <time>2020-02-28T11:10:49Z</time>
      </trkpt>
      <trkpt lat="46.72925" lon="5.69758">
        <ele>529</ele>
        <time>2020-02-28T11:10:50Z</time>
      </trkpt>
      <trkpt lat="46.7292" lon="5.69753">
        <ele>529</ele>
        <time>2020-02-28T11:10:51Z</time>
      </trkpt>
      <trkpt lat="46.72915" lon="5.69747">
        <ele>529</ele>
        <time>2020-02-28T11:10:52Z</time>
      </trkpt>
      <trkpt lat="46.72911" lon="5.69742">
        <ele>529</ele>
        <time>2020-02-28T11:10:53Z</time>
      </trkpt>
      <trkpt lat="46.72906" lon="5.69738">
        <ele>529</ele>
        <time>2020-02-28T11:10:54Z</time>
      </trkpt>
      <trkpt lat="46.72901" lon="5.69734">
        <ele>529</ele>
        <time>2020-02-28T11:10:55Z</time>
      </trkpt>
      <trkpt lat="46.72896" lon="5.69731">
        <ele>529</ele>
        <time>2020-02-28T11:10:56Z</time>
      </trkpt>
      <trkpt lat="46.72891" lon="5.69728">
        <ele>529</ele>
        <time>2020-02-28T11:10:57Z</time>
      </trkpt>
      <trkpt lat="46.72887" lon="5.69725">
        <ele>529</ele>
        <time>2020-02-28T11:10:58Z</time>
      </trkpt>
      <trkpt lat="46.72882" lon="5.69722">
        <ele>529</ele>
        <time>2020-02-28T11:10:59Z</time>
      </trkpt>
      <trkpt lat="46.72877" lon="5.69719">
        <ele>529</ele>
        <time>2020-02-28T11:11:00Z</time>
      </trkpt>
      <trkpt lat="46.72873" lon="5.69716">
        <ele>529</ele>
        <time>2020-02-28T11:11:01Z</time>
      </trkpt>
      <trkpt lat="46.72868" lon="5.69712">
        <ele>529.2</ele>
        <time>2020-02-28T11:11:02Z</time>
      </trkpt>
      <trkpt lat="46.72864" lon="5.69709">
        <ele>529.2</ele>
        <time>2020-02-28T11:11:03Z</time>
      </trkpt>
      <trkpt lat="46.72859" lon="5.69707">
        <ele>529.2</ele>
        <time>2020-02-28T11:11:04Z</time>
      </trkpt>
      <trkpt lat="46.72854" lon="5.69706">
        <ele>529.2</ele>
        <time>2020-02-28T11:11:05Z</time>
      </trkpt>
      <trkpt lat="46.72849" lon="5.69707">
        <ele>529.2</ele>
        <time>2020-02-28T11:11:06Z</time>
      </trkpt>
      <trkpt lat="46.72844" lon="5.69709">
        <ele>529.2</ele>
        <time>2020-02-28T11:11:07Z</time>
      </trkpt>
      <trkpt lat="46.7284" lon="5.69711">
        <ele>529.2</ele>
        <time>2020-02-28T11:11:08Z</time>
      </trkpt>
      <trkpt lat="46.72835" lon="5.69714">
        <ele>529.2</ele>
        <time>2020-02-28T11:11:09Z</time>
      </trkpt>
      <trkpt lat="46.7283" lon="5.69717">
        <ele>529.2</ele>
        <time>2020-02-28T11:11:10Z</time>
      </trkpt>
      <trkpt lat="46.72826" lon="5.6972">
        <ele>529.2</ele>
        <time>2020-02-28T11:11:11Z</time>
      </trkpt>
      <trkpt lat="46.72821" lon="5.69723">
        <ele>529.2</ele>
        <time>2020-02-28T11:11:12Z</time>
      </trkpt>
      <trkpt lat="46.72817" lon="5.69727">
        <ele>529.2</ele>
        <time>2020-02-28T11:11:13Z</time>
      </trkpt>
      <trkpt lat="46.72813" lon="5.6973">
        <ele>529.4</ele>
        <time>2020-02-28T11:11:14Z</time>
      </trkpt>
      <trkpt lat="46.72808" lon="5.69734">
        <ele>529.4</ele>
        <time>2020-02-28T11:11:15Z</time>
      </trkpt>
      <trkpt lat="46.72804" lon="5.69737">
        <ele>529.4</ele>
        <time>2020-02-28T11:11:16Z</time>
      </trkpt>
      <trkpt lat="46.72799" lon="5.6974">
        <ele>529.4</ele>
        <time>2020-02-28T11:11:17Z</time>
      </trkpt>
      <trkpt lat="46.72795" lon="5.69743">
        <ele>529.4</ele>
        <time>2020-02-28T11:11:18Z</time>
      </trkpt>
      <trkpt lat="46.7279" lon="5.69746">
        <ele>529.4</ele>
        <time>2020-02-28T11:11:19Z</time>
      </trkpt>
      <trkpt lat="46.72785" lon="5.69749">
        <ele>529.4</ele>
        <time>2020-02-28T11:11:20Z</time>
      </trkpt>
      <trkpt lat="46.72781" lon="5.69753">
        <ele>529.4</ele>
        <time>2020-02-28T11:11:21Z</time>
      </trkpt>
      <trkpt lat="46.72777" lon="5.69756">
        <ele>529.4</ele>
        <time>2020-02-28T11:11:22Z</time>
      </trkpt>
      <trkpt lat="46.72772" lon="5.6976">
        <ele>529.4</ele>
        <time>2020-02-28T11:11:23Z</time>
      </trkpt>
      <trkpt lat="46.72769" lon="5.69765">
        <ele>529.4</ele>
        <time>2020-02-28T11:11:24Z</time>
      </trkpt>
      <trkpt lat="46.72765" lon="5.69769">
        <ele>529.4</ele>
        <time>2020-02-28T11:11:25Z</time>
      </trkpt>
      <trkpt lat="46.72761" lon="5.69774">
        <ele>529.4</ele>
        <time>2020-02-28T11:11:26Z</time>
      </trkpt>
      <trkpt lat="46.72758" lon="5.69779">
        <ele>529.4</ele>
        <time>2020-02-28T11:11:27Z</time>
      </trkpt>
      <trkpt lat="46.72754" lon="5.69784">
        <ele>529.6</ele>
        <time>2020-02-28T11:11:28Z</time>
      </trkpt>
      <trkpt lat="46.72751" lon="5.6979">
        <ele>529.6</ele>
        <time>2020-02-28T11:11:29Z</time>
      </trkpt>
      <trkpt lat="46.72748" lon="5.69795">
        <ele>529.6</ele>
        <time>2020-02-28T11:11:30Z</time>
      </trkpt>
      <trkpt lat="46.72744" lon="5.69802">
        <ele>529.6</ele>
        <time>2020-02-28T11:11:31Z</time>
      </trkpt>
      <trkpt lat="46.7274" lon="5.69808">
        <ele>529.6</ele>
        <time>2020-02-28T11:11:32Z</time>
      </trkpt>
      <trkpt lat="46.72737" lon="5.69814">
        <ele>529.6</ele>
        <time>2020-02-28T11:11:33Z</time>
      </trkpt>
      <trkpt lat="46.72733" lon="5.6982">
        <ele>529.6</ele>
        <time>2020-02-28T11:11:34Z</time>
      </trkpt>
      <trkpt lat="46.72729" lon="5.69825">
        <ele>529.6</ele>
        <time>2020-02-28T11:11:35Z</time>
      </trkpt>
      <trkpt lat="46.72726" lon="5.6983">
        <ele>529.6</ele>
        <time>2020-02-28T11:11:36Z</time>
      </trkpt>
      <trkpt lat="46.72722" lon="5.69834">
        <ele>529.6</ele>
        <time>2020-02-28T11:11:37Z</time>
      </trkpt>
      <trkpt lat="46.72718" lon="5.69838">
        <ele>529.6</ele>
        <time>2020-02-28T11:11:38Z</time>
      </trkpt>
      <trkpt lat="46.72714" lon="5.69842">
        <ele>529.6</ele>
        <time>2020-02-28T11:11:39Z</time>
      </trkpt>
      <trkpt lat="46.72711" lon="5.69845">
        <ele>529.8</ele>
        <time>2020-02-28T11:11:40Z</time>
      </trkpt>
      <trkpt lat="46.72707" lon="5.6985">
        <ele>529.8</ele>
        <time>2020-02-28T11:11:41Z</time>
      </trkpt>
      <trkpt lat="46.72703" lon="5.69854">
        <ele>529.8</ele>
        <time>2020-02-28T11:11:42Z</time>
      </trkpt>
      <trkpt lat="46.72699" lon="5.69858">
        <ele>529.8</ele>
        <time>2020-02-28T11:11:43Z</time>
      </trkpt>
      <trkpt lat="46.72694" lon="5.69861">
        <ele>529.8</ele>
        <time>2020-02-28T11:11:44Z</time>
      </trkpt>
      <trkpt lat="46.7269" lon="5.69864">
        <ele>529.8</ele>
        <time>2020-02-28T11:11:45Z</time>
      </trkpt>
      <trkpt lat="46.72685" lon="5.69868">
        <ele>529.8</ele>
        <time>2020-02-28T11:11:46Z</time>
      </trkpt>
      <trkpt lat="46.7268" lon="5.69872">
        <ele>529.8</ele>
        <time>2020-02-28T11:11:47Z</time>
      </trkpt>
      <trkpt lat="46.72675" lon="5.69876">
        <ele>529.8</ele>
        <time>2020-02-28T11:11:48Z</time>
      </trkpt>
      <trkpt lat="46.7267" lon="5.6988">
        <ele>529.8</ele>
        <time>2020-02-28T11:11:49Z</time>
      </trkpt>
      <trkpt lat="46.72665" lon="5.69884">
        <ele>529.8</ele>
        <time>2020-02-28T11:11:50Z</time>
      </trkpt>
      <trkpt lat="46.72661" lon="5.69889">
        <ele>529.8</ele>
        <time>2020-02-28T11:11:51Z</time>
      </trkpt>
      <trkpt lat="46.72656" lon="5.69893">
        <ele>529.6</ele>
        <time>2020-02-28T11:11:52Z</time>
      </trkpt>
      <trkpt lat="46.72651" lon="5.69896">
        <ele>529.6</ele>
        <time>2020-02-28T11:11:53Z</time>
      </trkpt>
      <trkpt lat="46.72647" lon="5.699">
        <ele>529.6</ele>
        <time>2020-02-28T11:11:54Z</time>
      </trkpt>
      <trkpt lat="46.72643" lon="5.69904">
        <ele>529.6</ele>
        <time>2020-02-28T11:11:55Z</time>
      </trkpt>
      <trkpt lat="46.72639" lon="5.69908">
        <ele>529.4</ele>
        <time>2020-02-28T11:11:56Z</time>
      </trkpt>
      <trkpt lat="46.72635" lon="5.69911">
        <ele>529.4</ele>
        <time>2020-02-28T11:11:57Z</time>
      </trkpt>
      <trkpt lat="46.72632" lon="5.69914">
        <ele>529.4</ele>
        <time>2020-02-28T11:11:58Z</time>
      </trkpt>
      <trkpt lat="46.72628" lon="5.69917">
        <ele>529.4</ele>
        <time>2020-02-28T11:11:59Z</time>
      </trkpt>
      <trkpt lat="46.72625" lon="5.69921">
        <ele>529.4</ele>
        <time>2020-02-28T11:12:00Z</time>
      </trkpt>
      <trkpt lat="46.72623" lon="5.69924">
        <ele>529.4</ele>
        <time>2020-02-28T11:12:01Z</time>
      </trkpt>
      <trkpt lat="46.72621" lon="5.69928">
        <ele>529.6</ele>
        <time>2020-02-28T11:12:02Z</time>
      </trkpt>
      <trkpt lat="46.72621" lon="5.69931">
        <ele>529.6</ele>
        <time>2020-02-28T11:12:03Z</time>
      </trkpt>
      <trkpt lat="46.72621" lon="5.69935">
        <ele>529.6</ele>
        <time>2020-02-28T11:12:04Z</time>
      </trkpt>
      <trkpt lat="46.72622" lon="5.69938">
        <ele>529.8</ele>
        <time>2020-02-28T11:12:05Z</time>
      </trkpt>
      <trkpt lat="46.72623" lon="5.69941">
        <ele>529.8</ele>
        <time>2020-02-28T11:12:06Z</time>
      </trkpt>
      <trkpt lat="46.72623" lon="5.69944">
        <ele>530.2</ele>
        <time>2020-02-28T11:12:07Z</time>
      </trkpt>
      <trkpt lat="46.72622" lon="5.69947">
        <ele>530.2</ele>
        <time>2020-02-28T11:12:08Z</time>
      </trkpt>
      <trkpt lat="46.72622" lon="5.6995">
        <ele>530.2</ele>
        <time>2020-02-28T11:12:09Z</time>
      </trkpt>
      <trkpt lat="46.72622" lon="5.69953">
        <ele>530.2</ele>
        <time>2020-02-28T11:12:10Z</time>
      </trkpt>
      <trkpt lat="46.72623" lon="5.69956">
        <ele>530.2</ele>
        <time>2020-02-28T11:12:11Z</time>
      </trkpt>
      <trkpt lat="46.72623" lon="5.6996">
        <ele>530.2</ele>
        <time>2020-02-28T11:12:12Z</time>
      </trkpt>
      <trkpt lat="46.72624" lon="5.69963">
        <ele>530.2</ele>
        <time>2020-02-28T11:12:13Z</time>
      </trkpt>
      <trkpt lat="46.72625" lon="5.69967">
        <ele>530.2</ele>
        <time>2020-02-28T11:12:14Z</time>
      </trkpt>
      <trkpt lat="46.72625" lon="5.69971">
        <ele>530.2</ele>
        <time>2020-02-28T11:12:15Z</time>
      </trkpt>
      <trkpt lat="46.72626" lon="5.69975">
        <ele>530.2</ele>
        <time>2020-02-28T11:12:16Z</time>
      </trkpt>
      <trkpt lat="46.72627" lon="5.69979">
        <ele>530.2</ele>
        <time>2020-02-28T11:12:17Z</time>
      </trkpt>
      <trkpt lat="46.72628" lon="5.69984">
        <ele>530.2</ele>
        <time>2020-02-28T11:12:18Z</time>
      </trkpt>
      <trkpt lat="46.72628" lon="5.69988">
        <ele>530.2</ele>
        <time>2020-02-28T11:12:19Z</time>
      </trkpt>
      <trkpt lat="46.72629" lon="5.69993">
        <ele>530.2</ele>
        <time>2020-02-28T11:12:20Z</time>
      </trkpt>
      <trkpt lat="46.7263" lon="5.69997">
        <ele>530.2</ele>
        <time>2020-02-28T11:12:21Z</time>
      </trkpt>
      <trkpt lat="46.72631" lon="5.70001">
        <ele>530.2</ele>
        <time>2020-02-28T11:12:22Z</time>
      </trkpt>
      <trkpt lat="46.72632" lon="5.70006">
        <ele>530.2</ele>
        <time>2020-02-28T11:12:23Z</time>
      </trkpt>
      <trkpt lat="46.72633" lon="5.7001">
        <ele>530.2</ele>
        <time>2020-02-28T11:12:24Z</time>
      </trkpt>
      <trkpt lat="46.72634" lon="5.70014">
        <ele>530.2</ele>
        <time>2020-02-28T11:12:25Z</time>
      </trkpt>
      <trkpt lat="46.72635" lon="5.70018">
        <ele>530.2</ele>
        <time>2020-02-28T11:12:26Z</time>
      </trkpt>
      <trkpt lat="46.72636" lon="5.70022">
        <ele>530.2</ele>
        <time>2020-02-28T11:12:27Z</time>
      </trkpt>
      <trkpt lat="46.72637" lon="5.70026">
        <ele>530.2</ele>
        <time>2020-02-28T11:12:28Z</time>
      </trkpt>
      <trkpt lat="46.72639" lon="5.7003">
        <ele>529.8</ele>
        <time>2020-02-28T11:12:29Z</time>
      </trkpt>
      <trkpt lat="46.7264" lon="5.70034">
        <ele>529.8</ele>
        <time>2020-02-28T11:12:30Z</time>
      </trkpt>
      <trkpt lat="46.72641" lon="5.70038">
        <ele>529.6</ele>
        <time>2020-02-28T11:12:31Z</time>
      </trkpt>
      <trkpt lat="46.72642" lon="5.70042">
        <ele>529.6</ele>
        <time>2020-02-28T11:12:32Z</time>
      </trkpt>
      <trkpt lat="46.72643" lon="5.70046">
        <ele>529.6</ele>
        <time>2020-02-28T11:12:33Z</time>
      </trkpt>
      <trkpt lat="46.72644" lon="5.7005">
        <ele>529.2</ele>
        <time>2020-02-28T11:12:34Z</time>
      </trkpt>
      <trkpt lat="46.72645" lon="5.70054">
        <ele>529.2</ele>
        <time>2020-02-28T11:12:35Z</time>
      </trkpt>
      <trkpt lat="46.72646" lon="5.70059">
        <ele>529.2</ele>
        <time>2020-02-28T11:12:36Z</time>
      </trkpt>
      <trkpt lat="46.72646" lon="5.70062">
        <ele>529.2</ele>
        <time>2020-02-28T11:12:37Z</time>
      </trkpt>
      <trkpt lat="46.72647" lon="5.70067">
        <ele>529.2</ele>
        <time>2020-02-28T11:12:38Z</time>
      </trkpt>
      <trkpt lat="46.72648" lon="5.70071">
        <ele>529.2</ele>
        <time>2020-02-28T11:12:39Z</time>
      </trkpt>
      <trkpt lat="46.72649" lon="5.70076">
        <ele>529</ele>
        <time>2020-02-28T11:12:40Z</time>
      </trkpt>
      <trkpt lat="46.7265" lon="5.7008">
        <ele>529</ele>
        <time>2020-02-28T11:12:41Z</time>
      </trkpt>
      <trkpt lat="46.7265" lon="5.70085">
        <ele>529</ele>
        <time>2020-02-28T11:12:42Z</time>
      </trkpt>
      <trkpt lat="46.72651" lon="5.70089">
        <ele>529</ele>
        <time>2020-02-28T11:12:43Z</time>
      </trkpt>
      <trkpt lat="46.72652" lon="5.70094">
        <ele>529</ele>
        <time>2020-02-28T11:12:44Z</time>
      </trkpt>
      <trkpt lat="46.72653" lon="5.70099">
        <ele>529</ele>
        <time>2020-02-28T11:12:45Z</time>
      </trkpt>
      <trkpt lat="46.72654" lon="5.70104">
        <ele>529</ele>
        <time>2020-02-28T11:12:46Z</time>
      </trkpt>
      <trkpt lat="46.72654" lon="5.70109">
        <ele>529</ele>
        <time>2020-02-28T11:12:47Z</time>
      </trkpt>
      <trkpt lat="46.72654" lon="5.70114">
        <ele>528.8</ele>
        <time>2020-02-28T11:12:48Z</time>
      </trkpt>
      <trkpt lat="46.72655" lon="5.70118">
        <ele>528.8</ele>
        <time>2020-02-28T11:12:49Z</time>
      </trkpt>
      <trkpt lat="46.72655" lon="5.70122">
        <ele>528.8</ele>
        <time>2020-02-28T11:12:50Z</time>
      </trkpt>
      <trkpt lat="46.72656" lon="5.70126">
        <ele>528.8</ele>
        <time>2020-02-28T11:12:51Z</time>
      </trkpt>
      <trkpt lat="46.72657" lon="5.70129">
        <ele>528.8</ele>
        <time>2020-02-28T11:12:52Z</time>
      </trkpt>
      <trkpt lat="46.72658" lon="5.70133">
        <ele>528.6</ele>
        <time>2020-02-28T11:12:53Z</time>
      </trkpt>
      <trkpt lat="46.7266" lon="5.70137">
        <ele>528.6</ele>
        <time>2020-02-28T11:12:54Z</time>
      </trkpt>
      <trkpt lat="46.72662" lon="5.70141">
        <ele>528.6</ele>
        <time>2020-02-28T11:12:55Z</time>
      </trkpt>
      <trkpt lat="46.72664" lon="5.70145">
        <ele>528.6</ele>
        <time>2020-02-28T11:12:56Z</time>
      </trkpt>
      <trkpt lat="46.72666" lon="5.70149">
        <ele>528.6</ele>
        <time>2020-02-28T11:12:57Z</time>
      </trkpt>
      <trkpt lat="46.72667" lon="5.70153">
        <ele>528.6</ele>
        <time>2020-02-28T11:12:58Z</time>
      </trkpt>
      <trkpt lat="46.72669" lon="5.70157">
        <ele>528.6</ele>
        <time>2020-02-28T11:12:59Z</time>
      </trkpt>
      <trkpt lat="46.7267" lon="5.70161">
        <ele>528.6</ele>
        <time>2020-02-28T11:13:00Z</time>
      </trkpt>
      <trkpt lat="46.72672" lon="5.70165">
        <ele>528.6</ele>
        <time>2020-02-28T11:13:01Z</time>
      </trkpt>
      <trkpt lat="46.72673" lon="5.70169">
        <ele>528.6</ele>
        <time>2020-02-28T11:13:02Z</time>
      </trkpt>
      <trkpt lat="46.72674" lon="5.70174">
        <ele>528.8</ele>
        <time>2020-02-28T11:13:03Z</time>
      </trkpt>
      <trkpt lat="46.72675" lon="5.70178">
        <ele>528.8</ele>
        <time>2020-02-28T11:13:04Z</time>
      </trkpt>
      <trkpt lat="46.72676" lon="5.70182">
        <ele>529</ele>
        <time>2020-02-28T11:13:05Z</time>
      </trkpt>
      <trkpt lat="46.72678" lon="5.70187">
        <ele>529</ele>
        <time>2020-02-28T11:13:06Z</time>
      </trkpt>
      <trkpt lat="46.72679" lon="5.70191">
        <ele>529</ele>
        <time>2020-02-28T11:13:07Z</time>
      </trkpt>
      <trkpt lat="46.72681" lon="5.70195">
        <ele>529</ele>
        <time>2020-02-28T11:13:08Z</time>
      </trkpt>
      <trkpt lat="46.72683" lon="5.702">
        <ele>529</ele>
        <time>2020-02-28T11:13:09Z</time>
      </trkpt>
      <trkpt lat="46.72686" lon="5.70204">
        <ele>529</ele>
        <time>2020-02-28T11:13:10Z</time>
      </trkpt>
      <trkpt lat="46.72689" lon="5.70208">
        <ele>529</ele>
        <time>2020-02-28T11:13:11Z</time>
      </trkpt>
      <trkpt lat="46.72692" lon="5.70211">
        <ele>529</ele>
        <time>2020-02-28T11:13:12Z</time>
      </trkpt>
      <trkpt lat="46.72695" lon="5.70214">
        <ele>529</ele>
        <time>2020-02-28T11:13:13Z</time>
      </trkpt>
      <trkpt lat="46.72698" lon="5.70218">
        <ele>529</ele>
        <time>2020-02-28T11:13:14Z</time>
      </trkpt>
      <trkpt lat="46.72701" lon="5.70221">
        <ele>529</ele>
        <time>2020-02-28T11:13:15Z</time>
      </trkpt>
      <trkpt lat="46.72705" lon="5.70225">
        <ele>528.8</ele>
        <time>2020-02-28T11:13:16Z</time>
      </trkpt>
      <trkpt lat="46.7271" lon="5.70229">
        <ele>528.8</ele>
        <time>2020-02-28T11:13:17Z</time>
      </trkpt>
      <trkpt lat="46.72714" lon="5.70232">
        <ele>528.4</ele>
        <time>2020-02-28T11:13:18Z</time>
      </trkpt>
      <trkpt lat="46.72719" lon="5.70236">
        <ele>528.2</ele>
        <time>2020-02-28T11:13:19Z</time>
      </trkpt>
      <trkpt lat="46.72724" lon="5.70239">
        <ele>528.2</ele>
        <time>2020-02-28T11:13:20Z</time>
      </trkpt>
      <trkpt lat="46.72728" lon="5.70242">
        <ele>528</ele>
        <time>2020-02-28T11:13:21Z</time>
      </trkpt>
      <trkpt lat="46.72733" lon="5.70245">
        <ele>528</ele>
        <time>2020-02-28T11:13:22Z</time>
      </trkpt>
      <trkpt lat="46.72737" lon="5.70248">
        <ele>528</ele>
        <time>2020-02-28T11:13:23Z</time>
      </trkpt>
      <trkpt lat="46.72741" lon="5.70251">
        <ele>528</ele>
        <time>2020-02-28T11:13:24Z</time>
      </trkpt>
      <trkpt lat="46.72745" lon="5.70254">
        <ele>528</ele>
        <time>2020-02-28T11:13:25Z</time>
      </trkpt>
      <trkpt lat="46.72748" lon="5.70257">
        <ele>528.2</ele>
        <time>2020-02-28T11:13:26Z</time>
      </trkpt>
      <trkpt lat="46.72752" lon="5.7026">
        <ele>528.2</ele>
        <time>2020-02-28T11:13:27Z</time>
      </trkpt>
      <trkpt lat="46.72755" lon="5.70262">
        <ele>528.4</ele>
        <time>2020-02-28T11:13:28Z</time>
      </trkpt>
      <trkpt lat="46.72759" lon="5.70265">
        <ele>528.4</ele>
        <time>2020-02-28T11:13:29Z</time>
      </trkpt>
      <trkpt lat="46.72762" lon="5.70267">
        <ele>528.8</ele>
        <time>2020-02-28T11:13:30Z</time>
      </trkpt>
      <trkpt lat="46.72765" lon="5.70269">
        <ele>528.8</ele>
        <time>2020-02-28T11:13:31Z</time>
      </trkpt>
      <trkpt lat="46.72768" lon="5.70271">
        <ele>529</ele>
        <time>2020-02-28T11:13:32Z</time>
      </trkpt>
      <trkpt lat="46.72771" lon="5.70273">
        <ele>529</ele>
        <time>2020-02-28T11:13:33Z</time>
      </trkpt>
      <trkpt lat="46.72774" lon="5.70274">
        <ele>529.4</ele>
        <time>2020-02-28T11:13:34Z</time>
      </trkpt>
      <trkpt lat="46.72777" lon="5.70276">
        <ele>529.4</ele>
        <time>2020-02-28T11:13:35Z</time>
      </trkpt>
      <trkpt lat="46.7278" lon="5.70277">
        <ele>529.6</ele>
        <time>2020-02-28T11:13:36Z</time>
      </trkpt>
      <trkpt lat="46.72783" lon="5.70277">
        <ele>530</ele>
        <time>2020-02-28T11:13:37Z</time>
      </trkpt>
      <trkpt lat="46.72786" lon="5.70277">
        <ele>530</ele>
        <time>2020-02-28T11:13:38Z</time>
      </trkpt>
      <trkpt lat="46.72789" lon="5.70276">
        <ele>530.2</ele>
        <time>2020-02-28T11:13:39Z</time>
      </trkpt>
      <trkpt lat="46.72792" lon="5.70275">
        <ele>530.2</ele>
        <time>2020-02-28T11:13:40Z</time>
      </trkpt>
      <trkpt lat="46.72795" lon="5.70273">
        <ele>530.2</ele>
        <time>2020-02-28T11:13:41Z</time>
      </trkpt>
      <trkpt lat="46.72798" lon="5.70271">
        <ele>530.4</ele>
        <time>2020-02-28T11:13:42Z</time>
      </trkpt>
      <trkpt lat="46.728" lon="5.70269">
        <ele>530.4</ele>
        <time>2020-02-28T11:13:43Z</time>
      </trkpt>
      <trkpt lat="46.72803" lon="5.70267">
        <ele>530.4</ele>
        <time>2020-02-28T11:13:44Z</time>
      </trkpt>
      <trkpt lat="46.72806" lon="5.70265">
        <ele>530.8</ele>
        <time>2020-02-28T11:13:45Z</time>
      </trkpt>
      <trkpt lat="46.72809" lon="5.70264">
        <ele>530.8</ele>
        <time>2020-02-28T11:13:46Z</time>
      </trkpt>
      <trkpt lat="46.72812" lon="5.70263">
        <ele>530.8</ele>
        <time>2020-02-28T11:13:47Z</time>
      </trkpt>
      <trkpt lat="46.72815" lon="5.70263">
        <ele>530.8</ele>
        <time>2020-02-28T11:13:48Z</time>
      </trkpt>
      <trkpt lat="46.72819" lon="5.70263">
        <ele>530.8</ele>
        <time>2020-02-28T11:13:49Z</time>
      </trkpt>
      <trkpt lat="46.72823" lon="5.70264">
        <ele>530.8</ele>
        <time>2020-02-28T11:13:50Z</time>
      </trkpt>
      <trkpt lat="46.72827" lon="5.70265">
        <ele>530.4</ele>
        <time>2020-02-28T11:13:51Z</time>
      </trkpt>
      <trkpt lat="46.72831" lon="5.70266">
        <ele>530.2</ele>
        <time>2020-02-28T11:13:52Z</time>
      </trkpt>
      <trkpt lat="46.72835" lon="5.70268">
        <ele>530</ele>
        <time>2020-02-28T11:13:53Z</time>
      </trkpt>
      <trkpt lat="46.7284" lon="5.70269">
        <ele>529.6</ele>
        <time>2020-02-28T11:13:54Z</time>
      </trkpt>
      <trkpt lat="46.72844" lon="5.7027">
        <ele>529.2</ele>
        <time>2020-02-28T11:13:55Z</time>
      </trkpt>
      <trkpt lat="46.72849" lon="5.70272">
        <ele>528.8</ele>
        <time>2020-02-28T11:13:56Z</time>
      </trkpt>
      <trkpt lat="46.72855" lon="5.70273">
        <ele>528.6</ele>
        <time>2020-02-28T11:13:57Z</time>
      </trkpt>
      <trkpt lat="46.7286" lon="5.70273">
        <ele>528.2</ele>
        <time>2020-02-28T11:13:58Z</time>
      </trkpt>
      <trkpt lat="46.72865" lon="5.70274">
        <ele>528</ele>
        <time>2020-02-28T11:13:59Z</time>
      </trkpt>
      <trkpt lat="46.7287" lon="5.70273">
        <ele>527.6</ele>
        <time>2020-02-28T11:14:00Z</time>
      </trkpt>
      <trkpt lat="46.72875" lon="5.70272">
        <ele>527.4</ele>
        <time>2020-02-28T11:14:01Z</time>
      </trkpt>
      <trkpt lat="46.72879" lon="5.7027">
        <ele>527.4</ele>
        <time>2020-02-28T11:14:02Z</time>
      </trkpt>
      <trkpt lat="46.72883" lon="5.70268">
        <ele>527.4</ele>
        <time>2020-02-28T11:14:03Z</time>
      </trkpt>
      <trkpt lat="46.72887" lon="5.70264">
        <ele>527</ele>
        <time>2020-02-28T11:14:04Z</time>
      </trkpt>
      <trkpt lat="46.72891" lon="5.70261">
        <ele>527</ele>
        <time>2020-02-28T11:14:05Z</time>
      </trkpt>
      <trkpt lat="46.72894" lon="5.70257">
        <ele>526.8</ele>
        <time>2020-02-28T11:14:06Z</time>
      </trkpt>
      <trkpt lat="46.72897" lon="5.70254">
        <ele>526.8</ele>
        <time>2020-02-28T11:14:07Z</time>
      </trkpt>
      <trkpt lat="46.72899" lon="5.7025">
        <ele>526.8</ele>
        <time>2020-02-28T11:14:08Z</time>
      </trkpt>
      <trkpt lat="46.72902" lon="5.70246">
        <ele>526.8</ele>
        <time>2020-02-28T11:14:09Z</time>
      </trkpt>
      <trkpt lat="46.72904" lon="5.70242">
        <ele>526.8</ele>
        <time>2020-02-28T11:14:10Z</time>
      </trkpt>
      <trkpt lat="46.72907" lon="5.70238">
        <ele>526.8</ele>
        <time>2020-02-28T11:14:11Z</time>
      </trkpt>
      <trkpt lat="46.72909" lon="5.70234">
        <ele>526.8</ele>
        <time>2020-02-28T11:14:12Z</time>
      </trkpt>
      <trkpt lat="46.72912" lon="5.7023">
        <ele>526.8</ele>
        <time>2020-02-28T11:14:13Z</time>
      </trkpt>
      <trkpt lat="46.72914" lon="5.70226">
        <ele>526.8</ele>
        <time>2020-02-28T11:14:14Z</time>
      </trkpt>
      <trkpt lat="46.72916" lon="5.70222">
        <ele>527</ele>
        <time>2020-02-28T11:14:15Z</time>
      </trkpt>
      <trkpt lat="46.72919" lon="5.70219">
        <ele>527</ele>
        <time>2020-02-28T11:14:16Z</time>
      </trkpt>
      <trkpt lat="46.72921" lon="5.70215">
        <ele>527</ele>
        <time>2020-02-28T11:14:17Z</time>
      </trkpt>
      <trkpt lat="46.72924" lon="5.70211">
        <ele>527</ele>
        <time>2020-02-28T11:14:18Z</time>
      </trkpt>
      <trkpt lat="46.72926" lon="5.70207">
        <ele>527</ele>
        <time>2020-02-28T11:14:19Z</time>
      </trkpt>
      <trkpt lat="46.72928" lon="5.70203">
        <ele>527</ele>
        <time>2020-02-28T11:14:20Z</time>
      </trkpt>
      <trkpt lat="46.72931" lon="5.702">
        <ele>527</ele>
        <time>2020-02-28T11:14:21Z</time>
      </trkpt>
      <trkpt lat="46.72933" lon="5.70197">
        <ele>527</ele>
        <time>2020-02-28T11:14:22Z</time>
      </trkpt>
      <trkpt lat="46.72935" lon="5.70193">
        <ele>527</ele>
        <time>2020-02-28T11:14:23Z</time>
      </trkpt>
      <trkpt lat="46.72938" lon="5.7019">
        <ele>527</ele>
        <time>2020-02-28T11:14:24Z</time>
      </trkpt>
      <trkpt lat="46.7294" lon="5.70186">
        <ele>527</ele>
        <time>2020-02-28T11:14:25Z</time>
      </trkpt>
      <trkpt lat="46.72942" lon="5.70183">
        <ele>527</ele>
        <time>2020-02-28T11:14:26Z</time>
      </trkpt>
      <trkpt lat="46.72944" lon="5.70179">
        <ele>527.2</ele>
        <time>2020-02-28T11:14:27Z</time>
      </trkpt>
      <trkpt lat="46.72946" lon="5.70175">
        <ele>527.2</ele>
        <time>2020-02-28T11:14:28Z</time>
      </trkpt>
      <trkpt lat="46.72948" lon="5.70172">
        <ele>527.2</ele>
        <time>2020-02-28T11:14:29Z</time>
      </trkpt>
      <trkpt lat="46.7295" lon="5.70169">
        <ele>527.2</ele>
        <time>2020-02-28T11:14:30Z</time>
      </trkpt>
      <trkpt lat="46.72952" lon="5.70165">
        <ele>527.2</ele>
        <time>2020-02-28T11:14:31Z</time>
      </trkpt>
      <trkpt lat="46.72954" lon="5.70161">
        <ele>527.6</ele>
        <time>2020-02-28T11:14:32Z</time>
      </trkpt>
      <trkpt lat="46.72955" lon="5.70158">
        <ele>527.8</ele>
        <time>2020-02-28T11:14:33Z</time>
      </trkpt>
      <trkpt lat="46.72957" lon="5.70155">
        <ele>528</ele>
        <time>2020-02-28T11:14:34Z</time>
      </trkpt>
      <trkpt lat="46.72958" lon="5.70152">
        <ele>528</ele>
        <time>2020-02-28T11:14:35Z</time>
      </trkpt>
      <trkpt lat="46.7296" lon="5.70148">
        <ele>528.4</ele>
        <time>2020-02-28T11:14:36Z</time>
      </trkpt>
      <trkpt lat="46.72962" lon="5.70144">
        <ele>528.4</ele>
        <time>2020-02-28T11:14:37Z</time>
      </trkpt>
      <trkpt lat="46.72964" lon="5.70141">
        <ele>528.4</ele>
        <time>2020-02-28T11:14:38Z</time>
      </trkpt>
      <trkpt lat="46.72966" lon="5.70137">
        <ele>528.6</ele>
        <time>2020-02-28T11:14:39Z</time>
      </trkpt>
      <trkpt lat="46.72968" lon="5.70132">
        <ele>528.6</ele>
        <time>2020-02-28T11:14:40Z</time>
      </trkpt>
      <trkpt lat="46.7297" lon="5.70128">
        <ele>528.6</ele>
        <time>2020-02-28T11:14:41Z</time>
      </trkpt>
      <trkpt lat="46.72972" lon="5.70124">
        <ele>528.6</ele>
        <time>2020-02-28T11:14:42Z</time>
      </trkpt>
      <trkpt lat="46.72975" lon="5.7012">
        <ele>528.6</ele>
        <time>2020-02-28T11:14:43Z</time>
      </trkpt>
      <trkpt lat="46.72978" lon="5.70116">
        <ele>528.6</ele>
        <time>2020-02-28T11:14:44Z</time>
      </trkpt>
      <trkpt lat="46.7298" lon="5.70112">
        <ele>528.4</ele>
        <time>2020-02-28T11:14:45Z</time>
      </trkpt>
      <trkpt lat="46.72983" lon="5.70109">
        <ele>528.4</ele>
        <time>2020-02-28T11:14:46Z</time>
      </trkpt>
      <trkpt lat="46.72986" lon="5.70105">
        <ele>528.4</ele>
        <time>2020-02-28T11:14:47Z</time>
      </trkpt>
      <trkpt lat="46.72989" lon="5.70102">
        <ele>528.2</ele>
        <time>2020-02-28T11:14:48Z</time>
      </trkpt>
      <trkpt lat="46.72992" lon="5.70099">
        <ele>528.2</ele>
        <time>2020-02-28T11:14:49Z</time>
      </trkpt>
      <trkpt lat="46.72995" lon="5.70097">
        <ele>528</ele>
        <time>2020-02-28T11:14:50Z</time>
      </trkpt>
      <trkpt lat="46.72998" lon="5.70094">
        <ele>528</ele>
        <time>2020-02-28T11:14:51Z</time>
      </trkpt>
      <trkpt lat="46.73001" lon="5.70092">
        <ele>528</ele>
        <time>2020-02-28T11:14:52Z</time>
      </trkpt>
      <trkpt lat="46.73004" lon="5.70089">
        <ele>528</ele>
        <time>2020-02-28T11:14:53Z</time>
      </trkpt>
      <trkpt lat="46.73007" lon="5.70087">
        <ele>528</ele>
        <time>2020-02-28T11:14:54Z</time>
      </trkpt>
      <trkpt lat="46.7301" lon="5.70085">
        <ele>527.8</ele>
        <time>2020-02-28T11:14:55Z</time>
      </trkpt>
      <trkpt lat="46.73013" lon="5.70084">
        <ele>527.8</ele>
        <time>2020-02-28T11:14:56Z</time>
      </trkpt>
      <trkpt lat="46.73016" lon="5.70082">
        <ele>527.4</ele>
        <time>2020-02-28T11:14:57Z</time>
      </trkpt>
      <trkpt lat="46.7302" lon="5.70081">
        <ele>527.4</ele>
        <time>2020-02-28T11:14:58Z</time>
      </trkpt>
      <trkpt lat="46.73024" lon="5.70079">
        <ele>527.4</ele>
        <time>2020-02-28T11:14:59Z</time>
      </trkpt>
      <trkpt lat="46.73028" lon="5.70077">
        <ele>527</ele>
        <time>2020-02-28T11:15:00Z</time>
      </trkpt>
      <trkpt lat="46.73032" lon="5.70075">
        <ele>527</ele>
        <time>2020-02-28T11:15:01Z</time>
      </trkpt>
      <trkpt lat="46.73036" lon="5.70073">
        <ele>526.8</ele>
        <time>2020-02-28T11:15:02Z</time>
      </trkpt>
      <trkpt lat="46.7304" lon="5.70072">
        <ele>526.8</ele>
        <time>2020-02-28T11:15:03Z</time>
      </trkpt>
      <trkpt lat="46.73044" lon="5.70069">
        <ele>526.8</ele>
        <time>2020-02-28T11:15:04Z</time>
      </trkpt>
      <trkpt lat="46.73048" lon="5.70067">
        <ele>526.8</ele>
        <time>2020-02-28T11:15:05Z</time>
      </trkpt>
      <trkpt lat="46.73051" lon="5.70065">
        <ele>526.8</ele>
        <time>2020-02-28T11:15:06Z</time>
      </trkpt>
      <trkpt lat="46.73055" lon="5.70063">
        <ele>526.8</ele>
        <time>2020-02-28T11:15:07Z</time>
      </trkpt>
      <trkpt lat="46.73058" lon="5.70061">
        <ele>526.8</ele>
        <time>2020-02-28T11:15:08Z</time>
      </trkpt>
      <trkpt lat="46.73062" lon="5.70059">
        <ele>526.8</ele>
        <time>2020-02-28T11:15:09Z</time>
      </trkpt>
      <trkpt lat="46.73065" lon="5.70057">
        <ele>526.8</ele>
        <time>2020-02-28T11:15:10Z</time>
      </trkpt>
      <trkpt lat="46.73068" lon="5.70055">
        <ele>526.8</ele>
        <time>2020-02-28T11:15:11Z</time>
      </trkpt>
      <trkpt lat="46.73071" lon="5.70054">
        <ele>527</ele>
        <time>2020-02-28T11:15:12Z</time>
      </trkpt>
      <trkpt lat="46.73074" lon="5.70052">
        <ele>527</ele>
        <time>2020-02-28T11:15:13Z</time>
      </trkpt>
      <trkpt lat="46.73078" lon="5.7005">
        <ele>527</ele>
        <time>2020-02-28T11:15:14Z</time>
      </trkpt>
      <trkpt lat="46.73082" lon="5.70049">
        <ele>527</ele>
        <time>2020-02-28T11:15:15Z</time>
      </trkpt>
      <trkpt lat="46.73085" lon="5.70048">
        <ele>527</ele>
        <time>2020-02-28T11:15:16Z</time>
      </trkpt>
      <trkpt lat="46.73089" lon="5.70047">
        <ele>527</ele>
        <time>2020-02-28T11:15:17Z</time>
      </trkpt>
      <trkpt lat="46.73093" lon="5.70046">
        <ele>527</ele>
        <time>2020-02-28T11:15:18Z</time>
      </trkpt>
      <trkpt lat="46.73097" lon="5.70045">
        <ele>527</ele>
        <time>2020-02-28T11:15:19Z</time>
      </trkpt>
      <trkpt lat="46.73101" lon="5.70044">
        <ele>527</ele>
        <time>2020-02-28T11:15:20Z</time>
      </trkpt>
      <trkpt lat="46.73105" lon="5.70043">
        <ele>527</ele>
        <time>2020-02-28T11:15:21Z</time>
      </trkpt>
      <trkpt lat="46.73109" lon="5.70042">
        <ele>527</ele>
        <time>2020-02-28T11:15:22Z</time>
      </trkpt>
      <trkpt lat="46.73112" lon="5.7004">
        <ele>527</ele>
        <time>2020-02-28T11:15:23Z</time>
      </trkpt>
      <trkpt lat="46.73116" lon="5.70038">
        <ele>527</ele>
        <time>2020-02-28T11:15:24Z</time>
      </trkpt>
      <trkpt lat="46.73119" lon="5.70036">
        <ele>527</ele>
        <time>2020-02-28T11:15:25Z</time>
      </trkpt>
      <trkpt lat="46.73122" lon="5.70033">
        <ele>527</ele>
        <time>2020-02-28T11:15:26Z</time>
      </trkpt>
      <trkpt lat="46.73124" lon="5.7003">
        <ele>527</ele>
        <time>2020-02-28T11:15:27Z</time>
      </trkpt>
      <trkpt lat="46.73127" lon="5.70027">
        <ele>527</ele>
        <time>2020-02-28T11:15:28Z</time>
      </trkpt>
      <trkpt lat="46.73129" lon="5.70024">
        <ele>527.4</ele>
        <time>2020-02-28T11:15:29Z</time>
      </trkpt>
      <trkpt lat="46.73132" lon="5.70022">
        <ele>527.4</ele>
        <time>2020-02-28T11:15:30Z</time>
      </trkpt>
      <trkpt lat="46.73135" lon="5.70019">
        <ele>527.6</ele>
        <time>2020-02-28T11:15:31Z</time>
      </trkpt>
      <trkpt lat="46.73137" lon="5.70016">
        <ele>527.6</ele>
        <time>2020-02-28T11:15:32Z</time>
      </trkpt>
      <trkpt lat="46.73139" lon="5.70014">
        <ele>527.6</ele>
        <time>2020-02-28T11:15:33Z</time>
      </trkpt>
      <trkpt lat="46.73142" lon="5.70011">
        <ele>527.6</ele>
        <time>2020-02-28T11:15:34Z</time>
      </trkpt>
      <trkpt lat="46.73144" lon="5.70009">
        <ele>527.8</ele>
        <time>2020-02-28T11:15:35Z</time>
      </trkpt>
      <trkpt lat="46.73146" lon="5.70007">
        <ele>527.8</ele>
        <time>2020-02-28T11:15:36Z</time>
      </trkpt>
      <trkpt lat="46.73149" lon="5.70005">
        <ele>527.8</ele>
        <time>2020-02-28T11:15:37Z</time>
      </trkpt>
      <trkpt lat="46.73151" lon="5.70003">
        <ele>527.8</ele>
        <time>2020-02-28T11:15:38Z</time>
      </trkpt>
      <trkpt lat="46.73153" lon="5.70001">
        <ele>528</ele>
        <time>2020-02-28T11:15:39Z</time>
      </trkpt>
      <trkpt lat="46.73154" lon="5.69999">
        <ele>528</ele>
        <time>2020-02-28T11:15:40Z</time>
      </trkpt>
      <trkpt lat="46.73156" lon="5.69998">
        <ele>528</ele>
        <time>2020-02-28T11:15:41Z</time>
      </trkpt>
      <trkpt lat="46.73157" lon="5.69997">
        <ele>528</ele>
        <time>2020-02-28T11:15:42Z</time>
      </trkpt>
      <trkpt lat="46.73158" lon="5.69996">
        <ele>528</ele>
        <time>2020-02-28T11:15:43Z</time>
      </trkpt>
      <trkpt lat="46.73158" lon="5.69996">
        <ele>528</ele>
        <time>2020-02-28T11:15:44Z</time>
      </trkpt>
      <trkpt lat="46.73159" lon="5.69995">
        <ele>528.6</ele>
        <time>2020-02-28T11:16:32Z</time>
      </trkpt>
      <trkpt lat="46.7316" lon="5.69993">
        <ele>528.6</ele>
        <time>2020-02-28T11:16:33Z</time>
      </trkpt>
      <trkpt lat="46.73161" lon="5.69992">
        <ele>528.6</ele>
        <time>2020-02-28T11:16:34Z</time>
      </trkpt>
      <trkpt lat="46.73163" lon="5.6999">
        <ele>528.6</ele>
        <time>2020-02-28T11:16:35Z</time>
      </trkpt>
      <trkpt lat="46.73165" lon="5.69989">
        <ele>528.6</ele>
        <time>2020-02-28T11:16:36Z</time>
      </trkpt>
      <trkpt lat="46.73166" lon="5.69988">
        <ele>528.6</ele>
        <time>2020-02-28T11:16:37Z</time>
      </trkpt>
      <trkpt lat="46.73168" lon="5.69986">
        <ele>528.6</ele>
        <time>2020-02-28T11:16:38Z</time>
      </trkpt>
      <trkpt lat="46.73169" lon="5.69985">
        <ele>528.6</ele>
        <time>2020-02-28T11:16:39Z</time>
      </trkpt>
      <trkpt lat="46.73171" lon="5.69983">
        <ele>528.6</ele>
        <time>2020-02-28T11:16:40Z</time>
      </trkpt>
      <trkpt lat="46.73173" lon="5.69981">
        <ele>528.6</ele>
        <time>2020-02-28T11:16:41Z</time>
      </trkpt>
      <trkpt lat="46.73175" lon="5.69979">
        <ele>528.6</ele>
        <time>2020-02-28T11:16:42Z</time>
      </trkpt>
      <trkpt lat="46.73177" lon="5.69977">
        <ele>528.6</ele>
        <time>2020-02-28T11:16:43Z</time>
      </trkpt>
      <trkpt lat="46.73178" lon="5.69974">
        <ele>528.4</ele>
        <time>2020-02-28T11:16:44Z</time>
      </trkpt>
      <trkpt lat="46.7318" lon="5.69971">
        <ele>528.4</ele>
        <time>2020-02-28T11:16:45Z</time>
      </trkpt>
      <trkpt lat="46.73182" lon="5.69968">
        <ele>528.4</ele>
        <time>2020-02-28T11:16:46Z</time>
      </trkpt>
      <trkpt lat="46.73185" lon="5.69965">
        <ele>528.4</ele>
        <time>2020-02-28T11:16:47Z</time>
      </trkpt>
      <trkpt lat="46.73187" lon="5.69962">
        <ele>528.6</ele>
        <time>2020-02-28T11:16:48Z</time>
      </trkpt>
      <trkpt lat="46.73189" lon="5.69959">
        <ele>528.6</ele>
        <time>2020-02-28T11:16:49Z</time>
      </trkpt>
      <trkpt lat="46.73191" lon="5.69955">
        <ele>528.6</ele>
        <time>2020-02-28T11:16:50Z</time>
      </trkpt>
      <trkpt lat="46.73194" lon="5.69952">
        <ele>528.6</ele>
        <time>2020-02-28T11:16:51Z</time>
      </trkpt>
      <trkpt lat="46.73196" lon="5.69948">
        <ele>528.6</ele>
        <time>2020-02-28T11:16:52Z</time>
      </trkpt>
      <trkpt lat="46.73198" lon="5.69944">
        <ele>528.6</ele>
        <time>2020-02-28T11:16:53Z</time>
      </trkpt>
      <trkpt lat="46.732" lon="5.69941">
        <ele>528.6</ele>
        <time>2020-02-28T11:16:54Z</time>
      </trkpt>
      <trkpt lat="46.73202" lon="5.69938">
        <ele>528.6</ele>
        <time>2020-02-28T11:16:55Z</time>
      </trkpt>
      <trkpt lat="46.73204" lon="5.69935">
        <ele>528.6</ele>
        <time>2020-02-28T11:16:56Z</time>
      </trkpt>
      <trkpt lat="46.73205" lon="5.69932">
        <ele>528.6</ele>
        <time>2020-02-28T11:16:57Z</time>
      </trkpt>
      <trkpt lat="46.73207" lon="5.6993">
        <ele>528.6</ele>
        <time>2020-02-28T11:16:58Z</time>
      </trkpt>
      <trkpt lat="46.73209" lon="5.69927">
        <ele>528.6</ele>
        <time>2020-02-28T11:16:59Z</time>
      </trkpt>
      <trkpt lat="46.7321" lon="5.69925">
        <ele>528.6</ele>
        <time>2020-02-28T11:17:00Z</time>
      </trkpt>
      <trkpt lat="46.73212" lon="5.69921">
        <ele>528.6</ele>
        <time>2020-02-28T11:17:01Z</time>
      </trkpt>
      <trkpt lat="46.73214" lon="5.69918">
        <ele>528.6</ele>
        <time>2020-02-28T11:17:02Z</time>
      </trkpt>
      <trkpt lat="46.73215" lon="5.69916">
        <ele>528.6</ele>
        <time>2020-02-28T11:17:03Z</time>
      </trkpt>
      <trkpt lat="46.73217" lon="5.69913">
        <ele>528.6</ele>
        <time>2020-02-28T11:17:04Z</time>
      </trkpt>
      <trkpt lat="46.73219" lon="5.69909">
        <ele>528.6</ele>
        <time>2020-02-28T11:17:05Z</time>
      </trkpt>
      <trkpt lat="46.73221" lon="5.69906">
        <ele>528.6</ele>
        <time>2020-02-28T11:17:06Z</time>
      </trkpt>
      <trkpt lat="46.73222" lon="5.69903">
        <ele>528.6</ele>
        <time>2020-02-28T11:17:07Z</time>
      </trkpt>
      <trkpt lat="46.73224" lon="5.699">
        <ele>528.6</ele>
        <time>2020-02-28T11:17:08Z</time>
      </trkpt>
      <trkpt lat="46.73226" lon="5.69898">
        <ele>528.6</ele>
        <time>2020-02-28T11:17:09Z</time>
      </trkpt>
      <trkpt lat="46.73228" lon="5.69895">
        <ele>528.6</ele>
        <time>2020-02-28T11:17:10Z</time>
      </trkpt>
      <trkpt lat="46.7323" lon="5.69891">
        <ele>528.6</ele>
        <time>2020-02-28T11:17:11Z</time>
      </trkpt>
      <trkpt lat="46.73232" lon="5.69888">
        <ele>528.6</ele>
        <time>2020-02-28T11:17:12Z</time>
      </trkpt>
      <trkpt lat="46.73233" lon="5.69884">
        <ele>528.6</ele>
        <time>2020-02-28T11:17:13Z</time>
      </trkpt>
      <trkpt lat="46.73235" lon="5.69881">
        <ele>528.6</ele>
        <time>2020-02-28T11:17:14Z</time>
      </trkpt>
      <trkpt lat="46.73236" lon="5.69877">
        <ele>528.6</ele>
        <time>2020-02-28T11:17:15Z</time>
      </trkpt>
      <trkpt lat="46.73237" lon="5.69874">
        <ele>528.6</ele>
        <time>2020-02-28T11:17:16Z</time>
      </trkpt>
      <trkpt lat="46.73239" lon="5.69871">
        <ele>528.6</ele>
        <time>2020-02-28T11:17:17Z</time>
      </trkpt>
      <trkpt lat="46.7324" lon="5.69869">
        <ele>528.6</ele>
        <time>2020-02-28T11:17:18Z</time>
      </trkpt>
      <trkpt lat="46.73242" lon="5.69865">
        <ele>528.6</ele>
        <time>2020-02-28T11:17:19Z</time>
      </trkpt>
      <trkpt lat="46.73244" lon="5.69862">
        <ele>528.6</ele>
        <time>2020-02-28T11:17:20Z</time>
      </trkpt>
      <trkpt lat="46.73246" lon="5.69858">
        <ele>528.6</ele>
        <time>2020-02-28T11:17:21Z</time>
      </trkpt>
      <trkpt lat="46.73248" lon="5.69854">
        <ele>528.6</ele>
        <time>2020-02-28T11:17:22Z</time>
      </trkpt>
      <trkpt lat="46.7325" lon="5.6985">
        <ele>528.6</ele>
        <time>2020-02-28T11:17:23Z</time>
      </trkpt>
      <trkpt lat="46.73252" lon="5.69846">
        <ele>528.6</ele>
        <time>2020-02-28T11:17:24Z</time>
      </trkpt>
      <trkpt lat="46.73255" lon="5.69843">
        <ele>528.6</ele>
        <time>2020-02-28T11:17:25Z</time>
      </trkpt>
      <trkpt lat="46.73257" lon="5.6984">
        <ele>528.6</ele>
        <time>2020-02-28T11:17:26Z</time>
      </trkpt>
      <trkpt lat="46.7326" lon="5.69836">
        <ele>528.6</ele>
        <time>2020-02-28T11:17:27Z</time>
      </trkpt>
      <trkpt lat="46.73263" lon="5.69834">
        <ele>528.2</ele>
        <time>2020-02-28T11:17:28Z</time>
      </trkpt>
      <trkpt lat="46.73266" lon="5.69831">
        <ele>528.2</ele>
        <time>2020-02-28T11:17:29Z</time>
      </trkpt>
      <trkpt lat="46.73269" lon="5.69828">
        <ele>528.2</ele>
        <time>2020-02-28T11:17:30Z</time>
      </trkpt>
      <trkpt lat="46.73271" lon="5.69825">
        <ele>528</ele>
        <time>2020-02-28T11:17:31Z</time>
      </trkpt>
      <trkpt lat="46.73274" lon="5.69823">
        <ele>528</ele>
        <time>2020-02-28T11:17:32Z</time>
      </trkpt>
      <trkpt lat="46.73276" lon="5.6982">
        <ele>528</ele>
        <time>2020-02-28T11:17:33Z</time>
      </trkpt>
      <trkpt lat="46.73278" lon="5.69818">
        <ele>528</ele>
        <time>2020-02-28T11:17:34Z</time>
      </trkpt>
      <trkpt lat="46.7328" lon="5.69816">
        <ele>528</ele>
        <time>2020-02-28T11:17:35Z</time>
      </trkpt>
      <trkpt lat="46.73281" lon="5.69815">
        <ele>528</ele>
        <time>2020-02-28T11:17:36Z</time>
      </trkpt>
      <trkpt lat="46.73283" lon="5.69813">
        <ele>528</ele>
        <time>2020-02-28T11:17:37Z</time>
      </trkpt>
      <trkpt lat="46.73285" lon="5.6981">
        <ele>528</ele>
        <time>2020-02-28T11:17:38Z</time>
      </trkpt>
      <trkpt lat="46.73287" lon="5.69808">
        <ele>528</ele>
        <time>2020-02-28T11:17:39Z</time>
      </trkpt>
      <trkpt lat="46.73288" lon="5.69806">
        <ele>528</ele>
        <time>2020-02-28T11:17:40Z</time>
      </trkpt>
      <trkpt lat="46.7329" lon="5.69804">
        <ele>527.8</ele>
        <time>2020-02-28T11:17:41Z</time>
      </trkpt>
      <trkpt lat="46.73292" lon="5.69801">
        <ele>527.8</ele>
        <time>2020-02-28T11:17:42Z</time>
      </trkpt>
      <trkpt lat="46.73294" lon="5.69799">
        <ele>527.8</ele>
        <time>2020-02-28T11:17:43Z</time>
      </trkpt>
      <trkpt lat="46.73296" lon="5.69796">
        <ele>527.8</ele>
        <time>2020-02-28T11:17:44Z</time>
      </trkpt>
      <trkpt lat="46.73298" lon="5.69793">
        <ele>527.8</ele>
        <time>2020-02-28T11:17:45Z</time>
      </trkpt>
      <trkpt lat="46.733" lon="5.6979">
        <ele>527.8</ele>
        <time>2020-02-28T11:17:46Z</time>
      </trkpt>
      <trkpt lat="46.73302" lon="5.69787">
        <ele>527.8</ele>
        <time>2020-02-28T11:17:47Z</time>
      </trkpt>
      <trkpt lat="46.73305" lon="5.69784">
        <ele>528</ele>
        <time>2020-02-28T11:17:48Z</time>
      </trkpt>
      <trkpt lat="46.73307" lon="5.6978">
        <ele>528</ele>
        <time>2020-02-28T11:17:49Z</time>
      </trkpt>
      <trkpt lat="46.7331" lon="5.69777">
        <ele>528</ele>
        <time>2020-02-28T11:17:50Z</time>
      </trkpt>
      <trkpt lat="46.73312" lon="5.69773">
        <ele>528</ele>
        <time>2020-02-28T11:17:51Z</time>
      </trkpt>
      <trkpt lat="46.73314" lon="5.6977">
        <ele>528.4</ele>
        <time>2020-02-28T11:17:52Z</time>
      </trkpt>
      <trkpt lat="46.73316" lon="5.69767">
        <ele>528.4</ele>
        <time>2020-02-28T11:17:53Z</time>
      </trkpt>
      <trkpt lat="46.73318" lon="5.69763">
        <ele>528.4</ele>
        <time>2020-02-28T11:17:54Z</time>
      </trkpt>
      <trkpt lat="46.7332" lon="5.6976">
        <ele>528.4</ele>
        <time>2020-02-28T11:17:55Z</time>
      </trkpt>
      <trkpt lat="46.73322" lon="5.69756">
        <ele>528.4</ele>
        <time>2020-02-28T11:17:56Z</time>
      </trkpt>
      <trkpt lat="46.73325" lon="5.69752">
        <ele>528.6</ele>
        <time>2020-02-28T11:17:57Z</time>
      </trkpt>
      <trkpt lat="46.73327" lon="5.69749">
        <ele>528.6</ele>
        <time>2020-02-28T11:17:58Z</time>
      </trkpt>
      <trkpt lat="46.73329" lon="5.69745">
        <ele>528.6</ele>
        <time>2020-02-28T11:17:59Z</time>
      </trkpt>
      <trkpt lat="46.73332" lon="5.69741">
        <ele>528.6</ele>
        <time>2020-02-28T11:18:00Z</time>
      </trkpt>
      <trkpt lat="46.73334" lon="5.69738">
        <ele>528.8</ele>
        <time>2020-02-28T11:18:01Z</time>
      </trkpt>
      <trkpt lat="46.73337" lon="5.69735">
        <ele>528.8</ele>
        <time>2020-02-28T11:18:02Z</time>
      </trkpt>
      <trkpt lat="46.73339" lon="5.69733">
        <ele>528.8</ele>
        <time>2020-02-28T11:18:03Z</time>
      </trkpt>
      <trkpt lat="46.73342" lon="5.69731">
        <ele>529.2</ele>
        <time>2020-02-28T11:18:04Z</time>
      </trkpt>
      <trkpt lat="46.73344" lon="5.69729">
        <ele>529.2</ele>
        <time>2020-02-28T11:18:05Z</time>
      </trkpt>
      <trkpt lat="46.73347" lon="5.69728">
        <ele>529.4</ele>
        <time>2020-02-28T11:18:06Z</time>
      </trkpt>
      <trkpt lat="46.73349" lon="5.69728">
        <ele>529.4</ele>
        <time>2020-02-28T11:18:07Z</time>
      </trkpt>
      <trkpt lat="46.73352" lon="5.69727">
        <ele>529.4</ele>
        <time>2020-02-28T11:18:08Z</time>
      </trkpt>
      <trkpt lat="46.73354" lon="5.69726">
        <ele>529.4</ele>
        <time>2020-02-28T11:18:09Z</time>
      </trkpt>
      <trkpt lat="46.73357" lon="5.69726">
        <ele>529.8</ele>
        <time>2020-02-28T11:18:10Z</time>
      </trkpt>
      <trkpt lat="46.73359" lon="5.69726">
        <ele>529.8</ele>
        <time>2020-02-28T11:18:11Z</time>
      </trkpt>
      <trkpt lat="46.73362" lon="5.69726">
        <ele>530</ele>
        <time>2020-02-28T11:18:12Z</time>
      </trkpt>
      <trkpt lat="46.73364" lon="5.69726">
        <ele>530</ele>
        <time>2020-02-28T11:18:13Z</time>
      </trkpt>
      <trkpt lat="46.73366" lon="5.69726">
        <ele>530</ele>
        <time>2020-02-28T11:18:14Z</time>
      </trkpt>
      <trkpt lat="46.73368" lon="5.69726">
        <ele>530</ele>
        <time>2020-02-28T11:18:15Z</time>
      </trkpt>
      <trkpt lat="46.7337" lon="5.69725">
        <ele>530.2</ele>
        <time>2020-02-28T11:18:16Z</time>
      </trkpt>
      <trkpt lat="46.73372" lon="5.69725">
        <ele>530.2</ele>
        <time>2020-02-28T11:18:17Z</time>
      </trkpt>
      <trkpt lat="46.73374" lon="5.69725">
        <ele>530.2</ele>
        <time>2020-02-28T11:18:18Z</time>
      </trkpt>
      <trkpt lat="46.73377" lon="5.69726">
        <ele>530.2</ele>
        <time>2020-02-28T11:18:19Z</time>
      </trkpt>
      <trkpt lat="46.73379" lon="5.69726">
        <ele>530.2</ele>
        <time>2020-02-28T11:18:20Z</time>
      </trkpt>
      <trkpt lat="46.73382" lon="5.69726">
        <ele>530.2</ele>
        <time>2020-02-28T11:18:21Z</time>
      </trkpt>
      <trkpt lat="46.73385" lon="5.69725">
        <ele>530.2</ele>
        <time>2020-02-28T11:18:22Z</time>
      </trkpt>
      <trkpt lat="46.73387" lon="5.69725">
        <ele>530.2</ele>
        <time>2020-02-28T11:18:23Z</time>
      </trkpt>
      <trkpt lat="46.7339" lon="5.69724">
        <ele>530</ele>
        <time>2020-02-28T11:18:24Z</time>
      </trkpt>
      <trkpt lat="46.73393" lon="5.69723">
        <ele>530</ele>
        <time>2020-02-28T11:18:25Z</time>
      </trkpt>
      <trkpt lat="46.73396" lon="5.69721">
        <ele>529.6</ele>
        <time>2020-02-28T11:18:26Z</time>
      </trkpt>
      <trkpt lat="46.73399" lon="5.6972">
        <ele>529.6</ele>
        <time>2020-02-28T11:18:27Z</time>
      </trkpt>
      <trkpt lat="46.73402" lon="5.69719">
        <ele>529.2</ele>
        <time>2020-02-28T11:18:28Z</time>
      </trkpt>
      <trkpt lat="46.73405" lon="5.69719">
        <ele>529</ele>
        <time>2020-02-28T11:18:29Z</time>
      </trkpt>
      <trkpt lat="46.73408" lon="5.6972">
        <ele>529</ele>
        <time>2020-02-28T11:18:30Z</time>
      </trkpt>
      <trkpt lat="46.73411" lon="5.69722">
        <ele>528.8</ele>
        <time>2020-02-28T11:18:31Z</time>
      </trkpt>
      <trkpt lat="46.73414" lon="5.69726">
        <ele>528.8</ele>
        <time>2020-02-28T11:18:32Z</time>
      </trkpt>
      <trkpt lat="46.73417" lon="5.69729">
        <ele>528.4</ele>
        <time>2020-02-28T11:18:33Z</time>
      </trkpt>
      <trkpt lat="46.7342" lon="5.69732">
        <ele>528.4</ele>
        <time>2020-02-28T11:18:34Z</time>
      </trkpt>
      <trkpt lat="46.73425" lon="5.69735">
        <ele>528.2</ele>
        <time>2020-02-28T11:18:35Z</time>
      </trkpt>
      <trkpt lat="46.73429" lon="5.69737">
        <ele>528.2</ele>
        <time>2020-02-28T11:18:36Z</time>
      </trkpt>
      <trkpt lat="46.73434" lon="5.6974">
        <ele>527.8</ele>
        <time>2020-02-28T11:18:37Z</time>
      </trkpt>
      <trkpt lat="46.73439" lon="5.69743">
        <ele>527.6</ele>
        <time>2020-02-28T11:18:38Z</time>
      </trkpt>
      <trkpt lat="46.73444" lon="5.69746">
        <ele>527.6</ele>
        <time>2020-02-28T11:18:39Z</time>
      </trkpt>
      <trkpt lat="46.73448" lon="5.6975">
        <ele>527.2</ele>
        <time>2020-02-28T11:18:40Z</time>
      </trkpt>
      <trkpt lat="46.73453" lon="5.69755">
        <ele>527.2</ele>
        <time>2020-02-28T11:18:41Z</time>
      </trkpt>
      <trkpt lat="46.73458" lon="5.69759">
        <ele>527</ele>
        <time>2020-02-28T11:18:42Z</time>
      </trkpt>
      <trkpt lat="46.73463" lon="5.69763">
        <ele>527</ele>
        <time>2020-02-28T11:18:43Z</time>
      </trkpt>
      <trkpt lat="46.73468" lon="5.69766">
        <ele>527</ele>
        <time>2020-02-28T11:18:44Z</time>
      </trkpt>
      <trkpt lat="46.73472" lon="5.69769">
        <ele>527</ele>
        <time>2020-02-28T11:18:45Z</time>
      </trkpt>
      <trkpt lat="46.73477" lon="5.69772">
        <ele>527</ele>
        <time>2020-02-28T11:18:46Z</time>
      </trkpt>
      <trkpt lat="46.73482" lon="5.69775">
        <ele>527</ele>
        <time>2020-02-28T11:18:47Z</time>
      </trkpt>
      <trkpt lat="46.73486" lon="5.69779">
        <ele>527</ele>
        <time>2020-02-28T11:18:48Z</time>
      </trkpt>
      <trkpt lat="46.73491" lon="5.69783">
        <ele>527.2</ele>
        <time>2020-02-28T11:18:49Z</time>
      </trkpt>
      <trkpt lat="46.73494" lon="5.69787">
        <ele>527.2</ele>
        <time>2020-02-28T11:18:50Z</time>
      </trkpt>
      <trkpt lat="46.73497" lon="5.69792">
        <ele>527.4</ele>
        <time>2020-02-28T11:18:51Z</time>
      </trkpt>
      <trkpt lat="46.735" lon="5.69797">
        <ele>527.4</ele>
        <time>2020-02-28T11:18:52Z</time>
      </trkpt>
      <trkpt lat="46.73503" lon="5.69802">
        <ele>527.8</ele>
        <time>2020-02-28T11:18:53Z</time>
      </trkpt>
      <trkpt lat="46.73505" lon="5.69808">
        <ele>527.8</ele>
        <time>2020-02-28T11:18:54Z</time>
      </trkpt>
      <trkpt lat="46.73507" lon="5.69813">
        <ele>527.8</ele>
        <time>2020-02-28T11:18:55Z</time>
      </trkpt>
      <trkpt lat="46.73508" lon="5.69819">
        <ele>527.8</ele>
        <time>2020-02-28T11:18:56Z</time>
      </trkpt>
      <trkpt lat="46.73508" lon="5.69825">
        <ele>528</ele>
        <time>2020-02-28T11:18:57Z</time>
      </trkpt>
      <trkpt lat="46.73507" lon="5.6983">
        <ele>528</ele>
        <time>2020-02-28T11:18:58Z</time>
      </trkpt>
      <trkpt lat="46.73506" lon="5.69835">
        <ele>528.2</ele>
        <time>2020-02-28T11:18:59Z</time>
      </trkpt>
      <trkpt lat="46.73504" lon="5.6984">
        <ele>528.2</ele>
        <time>2020-02-28T11:19:00Z</time>
      </trkpt>
      <trkpt lat="46.73501" lon="5.69844">
        <ele>528.2</ele>
        <time>2020-02-28T11:19:01Z</time>
      </trkpt>
      <trkpt lat="46.73499" lon="5.69848">
        <ele>528.2</ele>
        <time>2020-02-28T11:19:02Z</time>
      </trkpt>
      <trkpt lat="46.73496" lon="5.69851">
        <ele>528.2</ele>
        <time>2020-02-28T11:19:03Z</time>
      </trkpt>
      <trkpt lat="46.73494" lon="5.69856">
        <ele>528.2</ele>
        <time>2020-02-28T11:19:04Z</time>
      </trkpt>
      <trkpt lat="46.73494" lon="5.69861">
        <ele>528.2</ele>
        <time>2020-02-28T11:19:05Z</time>
      </trkpt>
      <trkpt lat="46.73494" lon="5.69866">
        <ele>528.2</ele>
        <time>2020-02-28T11:19:06Z</time>
      </trkpt>
      <trkpt lat="46.73495" lon="5.6987">
        <ele>528.4</ele>
        <time>2020-02-28T11:19:07Z</time>
      </trkpt>
      <trkpt lat="46.73497" lon="5.69873">
        <ele>528.4</ele>
        <time>2020-02-28T11:19:08Z</time>
      </trkpt>
      <trkpt lat="46.73499" lon="5.69875">
        <ele>528.6</ele>
        <time>2020-02-28T11:19:09Z</time>
      </trkpt>
      <trkpt lat="46.73502" lon="5.69878">
        <ele>528.6</ele>
        <time>2020-02-28T11:19:10Z</time>
      </trkpt>
      <trkpt lat="46.73504" lon="5.69881">
        <ele>529</ele>
        <time>2020-02-28T11:19:11Z</time>
      </trkpt>
      <trkpt lat="46.73506" lon="5.69884">
        <ele>529</ele>
        <time>2020-02-28T11:19:12Z</time>
      </trkpt>
      <trkpt lat="46.73507" lon="5.69888">
        <ele>529.4</ele>
        <time>2020-02-28T11:19:13Z</time>
      </trkpt>
      <trkpt lat="46.73508" lon="5.69892">
        <ele>529.4</ele>
        <time>2020-02-28T11:19:14Z</time>
      </trkpt>
      <trkpt lat="46.73508" lon="5.69897">
        <ele>529.4</ele>
        <time>2020-02-28T11:19:15Z</time>
      </trkpt>
      <trkpt lat="46.73508" lon="5.69901">
        <ele>529.6</ele>
        <time>2020-02-28T11:19:16Z</time>
      </trkpt>
      <trkpt lat="46.73507" lon="5.69906">
        <ele>529.6</ele>
        <time>2020-02-28T11:19:17Z</time>
      </trkpt>
      <trkpt lat="46.73506" lon="5.69911">
        <ele>530</ele>
        <time>2020-02-28T11:19:18Z</time>
      </trkpt>
      <trkpt lat="46.73504" lon="5.69915">
        <ele>530.2</ele>
        <time>2020-02-28T11:19:19Z</time>
      </trkpt>
      <trkpt lat="46.73502" lon="5.6992">
        <ele>530.2</ele>
        <time>2020-02-28T11:19:20Z</time>
      </trkpt>
      <trkpt lat="46.735" lon="5.69923">
        <ele>530.4</ele>
        <time>2020-02-28T11:19:21Z</time>
      </trkpt>
      <trkpt lat="46.73498" lon="5.69928">
        <ele>530.4</ele>
        <time>2020-02-28T11:19:22Z</time>
      </trkpt>
      <trkpt lat="46.73496" lon="5.69932">
        <ele>530.8</ele>
        <time>2020-02-28T11:19:23Z</time>
      </trkpt>
      <trkpt lat="46.73494" lon="5.69936">
        <ele>530.8</ele>
        <time>2020-02-28T11:19:24Z</time>
      </trkpt>
      <trkpt lat="46.73492" lon="5.69941">
        <ele>531.2</ele>
        <time>2020-02-28T11:19:25Z</time>
      </trkpt>
      <trkpt lat="46.7349" lon="5.69945">
        <ele>531.2</ele>
        <time>2020-02-28T11:19:26Z</time>
      </trkpt>
      <trkpt lat="46.73488" lon="5.69949">
        <ele>531.4</ele>
        <time>2020-02-28T11:19:27Z</time>
      </trkpt>
      <trkpt lat="46.73487" lon="5.69954">
        <ele>531.4</ele>
        <time>2020-02-28T11:19:28Z</time>
      </trkpt>
      <trkpt lat="46.73485" lon="5.69959">
        <ele>531.4</ele>
        <time>2020-02-28T11:19:29Z</time>
      </trkpt>
      <trkpt lat="46.73484" lon="5.69965">
        <ele>531.6</ele>
        <time>2020-02-28T11:19:30Z</time>
      </trkpt>
      <trkpt lat="46.73481" lon="5.69969">
        <ele>531.6</ele>
        <time>2020-02-28T11:19:31Z</time>
      </trkpt>
      <trkpt lat="46.7348" lon="5.69975">
        <ele>531.6</ele>
        <time>2020-02-28T11:19:32Z</time>
      </trkpt>
      <trkpt lat="46.73478" lon="5.6998">
        <ele>531.6</ele>
        <time>2020-02-28T11:19:33Z</time>
      </trkpt>
      <trkpt lat="46.73477" lon="5.69985">
        <ele>531.6</ele>
        <time>2020-02-28T11:19:34Z</time>
      </trkpt>
      <trkpt lat="46.73476" lon="5.6999">
        <ele>531.6</ele>
        <time>2020-02-28T11:19:35Z</time>
      </trkpt>
      <trkpt lat="46.73474" lon="5.69996">
        <ele>531.6</ele>
        <time>2020-02-28T11:19:36Z</time>
      </trkpt>
      <trkpt lat="46.73473" lon="5.70001">
        <ele>531.8</ele>
        <time>2020-02-28T11:19:37Z</time>
      </trkpt>
      <trkpt lat="46.73472" lon="5.70007">
        <ele>531.8</ele>
        <time>2020-02-28T11:19:38Z</time>
      </trkpt>
      <trkpt lat="46.73471" lon="5.70012">
        <ele>532</ele>
        <time>2020-02-28T11:19:39Z</time>
      </trkpt>
      <trkpt lat="46.7347" lon="5.70017">
        <ele>532</ele>
        <time>2020-02-28T11:19:40Z</time>
      </trkpt>
      <trkpt lat="46.73468" lon="5.70022">
        <ele>532</ele>
        <time>2020-02-28T11:19:41Z</time>
      </trkpt>
      <trkpt lat="46.73466" lon="5.70027">
        <ele>532</ele>
        <time>2020-02-28T11:19:42Z</time>
      </trkpt>
      <trkpt lat="46.73464" lon="5.70032">
        <ele>532</ele>
        <time>2020-02-28T11:19:43Z</time>
      </trkpt>
      <trkpt lat="46.73462" lon="5.70037">
        <ele>532.2</ele>
        <time>2020-02-28T11:19:44Z</time>
      </trkpt>
      <trkpt lat="46.73459" lon="5.70041">
        <ele>532.2</ele>
        <time>2020-02-28T11:19:45Z</time>
      </trkpt>
      <trkpt lat="46.73456" lon="5.70045">
        <ele>532.6</ele>
        <time>2020-02-28T11:19:46Z</time>
      </trkpt>
      <trkpt lat="46.73453" lon="5.70048">
        <ele>532.6</ele>
        <time>2020-02-28T11:19:47Z</time>
      </trkpt>
      <trkpt lat="46.73449" lon="5.70051">
        <ele>532.6</ele>
        <time>2020-02-28T11:19:48Z</time>
      </trkpt>
      <trkpt lat="46.73446" lon="5.70055">
        <ele>532.6</ele>
        <time>2020-02-28T11:19:49Z</time>
      </trkpt>
      <trkpt lat="46.73442" lon="5.70058">
        <ele>532.6</ele>
        <time>2020-02-28T11:19:50Z</time>
      </trkpt>
      <trkpt lat="46.7344" lon="5.70062">
        <ele>532.6</ele>
        <time>2020-02-28T11:19:51Z</time>
      </trkpt>
      <trkpt lat="46.73437" lon="5.70068">
        <ele>532.6</ele>
        <time>2020-02-28T11:19:52Z</time>
      </trkpt>
      <trkpt lat="46.73435" lon="5.70073">
        <ele>532.6</ele>
        <time>2020-02-28T11:19:53Z</time>
      </trkpt>
      <trkpt lat="46.73432" lon="5.70079">
        <ele>532.6</ele>
        <time>2020-02-28T11:19:54Z</time>
      </trkpt>
      <trkpt lat="46.7343" lon="5.70084">
        <ele>532.6</ele>
        <time>2020-02-28T11:19:55Z</time>
      </trkpt>
      <trkpt lat="46.73428" lon="5.70089">
        <ele>532.8</ele>
        <time>2020-02-28T11:19:56Z</time>
      </trkpt>
      <trkpt lat="46.73426" lon="5.70095">
        <ele>532.8</ele>
        <time>2020-02-28T11:19:57Z</time>
      </trkpt>
      <trkpt lat="46.73424" lon="5.70101">
        <ele>532.8</ele>
        <time>2020-02-28T11:19:58Z</time>
      </trkpt>
      <trkpt lat="46.73422" lon="5.70107">
        <ele>532.8</ele>
        <time>2020-02-28T11:19:59Z</time>
      </trkpt>
      <trkpt lat="46.73419" lon="5.70113">
        <ele>532.8</ele>
        <time>2020-02-28T11:20:00Z</time>
      </trkpt>
      <trkpt lat="46.73417" lon="5.7012">
        <ele>532.8</ele>
        <time>2020-02-28T11:20:01Z</time>
      </trkpt>
      <trkpt lat="46.73415" lon="5.70126">
        <ele>532.8</ele>
        <time>2020-02-28T11:20:02Z</time>
      </trkpt>
      <trkpt lat="46.73413" lon="5.70132">
        <ele>533</ele>
        <time>2020-02-28T11:20:03Z</time>
      </trkpt>
      <trkpt lat="46.73411" lon="5.70139">
        <ele>533</ele>
        <time>2020-02-28T11:20:04Z</time>
      </trkpt>
      <trkpt lat="46.73409" lon="5.70146">
        <ele>533</ele>
        <time>2020-02-28T11:20:05Z</time>
      </trkpt>
      <trkpt lat="46.73406" lon="5.70153">
        <ele>533</ele>
        <time>2020-02-28T11:20:06Z</time>
      </trkpt>
      <trkpt lat="46.73404" lon="5.7016">
        <ele>533</ele>
        <time>2020-02-28T11:20:07Z</time>
      </trkpt>
      <trkpt lat="46.73402" lon="5.70167">
        <ele>533</ele>
        <time>2020-02-28T11:20:08Z</time>
      </trkpt>
      <trkpt lat="46.734" lon="5.70174">
        <ele>533</ele>
        <time>2020-02-28T11:20:09Z</time>
      </trkpt>
      <trkpt lat="46.73398" lon="5.70182">
        <ele>533</ele>
        <time>2020-02-28T11:20:10Z</time>
      </trkpt>
      <trkpt lat="46.73396" lon="5.70189">
        <ele>533</ele>
        <time>2020-02-28T11:20:11Z</time>
      </trkpt>
      <trkpt lat="46.73394" lon="5.70197">
        <ele>533</ele>
        <time>2020-02-28T11:20:12Z</time>
      </trkpt>
      <trkpt lat="46.73391" lon="5.70206">
        <ele>533</ele>
        <time>2020-02-28T11:20:13Z</time>
      </trkpt>
      <trkpt lat="46.73389" lon="5.70214">
        <ele>533</ele>
        <time>2020-02-28T11:20:14Z</time>
      </trkpt>
      <trkpt lat="46.73386" lon="5.70222">
        <ele>533</ele>
        <time>2020-02-28T11:20:15Z</time>
      </trkpt>
      <trkpt lat="46.73384" lon="5.70231">
        <ele>533</ele>
        <time>2020-02-28T11:20:16Z</time>
      </trkpt>
      <trkpt lat="46.73381" lon="5.70239">
        <ele>532.8</ele>
        <time>2020-02-28T11:20:17Z</time>
      </trkpt>
      <trkpt lat="46.73378" lon="5.70247">
        <ele>532.8</ele>
        <time>2020-02-28T11:20:18Z</time>
      </trkpt>
      <trkpt lat="46.73376" lon="5.70255">
        <ele>532.6</ele>
        <time>2020-02-28T11:20:19Z</time>
      </trkpt>
      <trkpt lat="46.73373" lon="5.70264">
        <ele>532.6</ele>
        <time>2020-02-28T11:20:20Z</time>
      </trkpt>
      <trkpt lat="46.7337" lon="5.70273">
        <ele>532.6</ele>
        <time>2020-02-28T11:20:21Z</time>
      </trkpt>
      <trkpt lat="46.73368" lon="5.70282">
        <ele>532.4</ele>
        <time>2020-02-28T11:20:22Z</time>
      </trkpt>
      <trkpt lat="46.73366" lon="5.70291">
        <ele>532.4</ele>
        <time>2020-02-28T11:20:23Z</time>
      </trkpt>
      <trkpt lat="46.73365" lon="5.70301">
        <ele>532.2</ele>
        <time>2020-02-28T11:20:24Z</time>
      </trkpt>
      <trkpt lat="46.73363" lon="5.70311">
        <ele>532.2</ele>
        <time>2020-02-28T11:20:25Z</time>
      </trkpt>
      <trkpt lat="46.73362" lon="5.7032">
        <ele>532.2</ele>
        <time>2020-02-28T11:20:26Z</time>
      </trkpt>
      <trkpt lat="46.7336" lon="5.70329">
        <ele>531.8</ele>
        <time>2020-02-28T11:20:27Z</time>
      </trkpt>
      <trkpt lat="46.73356" lon="5.70338">
        <ele>531.8</ele>
        <time>2020-02-28T11:20:28Z</time>
      </trkpt>
      <trkpt lat="46.73352" lon="5.70346">
        <ele>531.8</ele>
        <time>2020-02-28T11:20:29Z</time>
      </trkpt>
      <trkpt lat="46.73346" lon="5.70353">
        <ele>531.6</ele>
        <time>2020-02-28T11:20:30Z</time>
      </trkpt>
      <trkpt lat="46.73341" lon="5.70358">
        <ele>531.4</ele>
        <time>2020-02-28T11:20:31Z</time>
      </trkpt>
      <trkpt lat="46.73335" lon="5.70363">
        <ele>531.4</ele>
        <time>2020-02-28T11:20:32Z</time>
      </trkpt>
      <trkpt lat="46.73329" lon="5.70368">
        <ele>531</ele>
        <time>2020-02-28T11:20:33Z</time>
      </trkpt>
      <trkpt lat="46.73323" lon="5.70372">
        <ele>531</ele>
        <time>2020-02-28T11:20:34Z</time>
      </trkpt>
      <trkpt lat="46.73317" lon="5.70377">
        <ele>531</ele>
        <time>2020-02-28T11:20:35Z</time>
      </trkpt>
      <trkpt lat="46.7331" lon="5.70382">
        <ele>531</ele>
        <time>2020-02-28T11:20:36Z</time>
      </trkpt>
      <trkpt lat="46.73304" lon="5.70386">
        <ele>531</ele>
        <time>2020-02-28T11:20:37Z</time>
      </trkpt>
      <trkpt lat="46.73298" lon="5.7039">
        <ele>531</ele>
        <time>2020-02-28T11:20:38Z</time>
      </trkpt>
      <trkpt lat="46.73291" lon="5.70395">
        <ele>530.8</ele>
        <time>2020-02-28T11:20:39Z</time>
      </trkpt>
      <trkpt lat="46.73285" lon="5.70399">
        <ele>530.8</ele>
        <time>2020-02-28T11:20:40Z</time>
      </trkpt>
      <trkpt lat="46.73279" lon="5.70404">
        <ele>530.4</ele>
        <time>2020-02-28T11:20:41Z</time>
      </trkpt>
      <trkpt lat="46.73272" lon="5.70408">
        <ele>530.4</ele>
        <time>2020-02-28T11:20:42Z</time>
      </trkpt>
      <trkpt lat="46.73265" lon="5.70412">
        <ele>530.4</ele>
        <time>2020-02-28T11:20:43Z</time>
      </trkpt>
      <trkpt lat="46.73259" lon="5.70416">
        <ele>530.4</ele>
        <time>2020-02-28T11:20:44Z</time>
      </trkpt>
      <trkpt lat="46.73252" lon="5.70419">
        <ele>530.4</ele>
        <time>2020-02-28T11:20:45Z</time>
      </trkpt>
      <trkpt lat="46.73245" lon="5.70422">
        <ele>530.2</ele>
        <time>2020-02-28T11:20:46Z</time>
      </trkpt>
      <trkpt lat="46.73238" lon="5.70425">
        <ele>530.2</ele>
        <time>2020-02-28T11:20:47Z</time>
      </trkpt>
      <trkpt lat="46.73231" lon="5.70428">
        <ele>530</ele>
        <time>2020-02-28T11:20:48Z</time>
      </trkpt>
      <trkpt lat="46.73223" lon="5.70431">
        <ele>530</ele>
        <time>2020-02-28T11:20:49Z</time>
      </trkpt>
      <trkpt lat="46.73216" lon="5.70434">
        <ele>529.8</ele>
        <time>2020-02-28T11:20:50Z</time>
      </trkpt>
      <trkpt lat="46.73209" lon="5.70439">
        <ele>529.8</ele>
        <time>2020-02-28T11:20:51Z</time>
      </trkpt>
      <trkpt lat="46.73202" lon="5.70444">
        <ele>529.4</ele>
        <time>2020-02-28T11:20:52Z</time>
      </trkpt>
      <trkpt lat="46.73195" lon="5.7045">
        <ele>529.4</ele>
        <time>2020-02-28T11:20:53Z</time>
      </trkpt>
      <trkpt lat="46.73189" lon="5.70457">
        <ele>529.2</ele>
        <time>2020-02-28T11:20:54Z</time>
      </trkpt>
      <trkpt lat="46.73183" lon="5.70464">
        <ele>529</ele>
        <time>2020-02-28T11:20:55Z</time>
      </trkpt>
      <trkpt lat="46.73176" lon="5.70471">
        <ele>529</ele>
        <time>2020-02-28T11:20:56Z</time>
      </trkpt>
      <trkpt lat="46.73169" lon="5.70477">
        <ele>528.6</ele>
        <time>2020-02-28T11:20:57Z</time>
      </trkpt>
      <trkpt lat="46.73161" lon="5.70481">
        <ele>528.4</ele>
        <time>2020-02-28T11:20:58Z</time>
      </trkpt>
      <trkpt lat="46.73154" lon="5.70485">
        <ele>528.4</ele>
        <time>2020-02-28T11:20:59Z</time>
      </trkpt>
      <trkpt lat="46.73146" lon="5.70488">
        <ele>528.4</ele>
        <time>2020-02-28T11:21:00Z</time>
      </trkpt>
      <trkpt lat="46.73139" lon="5.7049">
        <ele>528.4</ele>
        <time>2020-02-28T11:21:01Z</time>
      </trkpt>
      <trkpt lat="46.73132" lon="5.70492">
        <ele>528.4</ele>
        <time>2020-02-28T11:21:02Z</time>
      </trkpt>
      <trkpt lat="46.73125" lon="5.70494">
        <ele>528.6</ele>
        <time>2020-02-28T11:21:03Z</time>
      </trkpt>
      <trkpt lat="46.73119" lon="5.70497">
        <ele>529</ele>
        <time>2020-02-28T11:21:04Z</time>
      </trkpt>
      <trkpt lat="46.73113" lon="5.705">
        <ele>529</ele>
        <time>2020-02-28T11:21:05Z</time>
      </trkpt>
      <trkpt lat="46.73107" lon="5.70504">
        <ele>529.2</ele>
        <time>2020-02-28T11:21:06Z</time>
      </trkpt>
      <trkpt lat="46.73102" lon="5.7051">
        <ele>529.4</ele>
        <time>2020-02-28T11:21:07Z</time>
      </trkpt>
      <trkpt lat="46.73098" lon="5.70515">
        <ele>529.8</ele>
        <time>2020-02-28T11:21:08Z</time>
      </trkpt>
      <trkpt lat="46.73094" lon="5.70521">
        <ele>530</ele>
        <time>2020-02-28T11:21:09Z</time>
      </trkpt>
      <trkpt lat="46.7309" lon="5.70528">
        <ele>530</ele>
        <time>2020-02-28T11:21:10Z</time>
      </trkpt>
      <trkpt lat="46.73088" lon="5.70535">
        <ele>530.4</ele>
        <time>2020-02-28T11:21:11Z</time>
      </trkpt>
      <trkpt lat="46.73085" lon="5.70543">
        <ele>530.4</ele>
        <time>2020-02-28T11:21:12Z</time>
      </trkpt>
      <trkpt lat="46.73083" lon="5.7055">
        <ele>530.6</ele>
        <time>2020-02-28T11:21:13Z</time>
      </trkpt>
      <trkpt lat="46.73081" lon="5.70558">
        <ele>530.6</ele>
        <time>2020-02-28T11:21:14Z</time>
      </trkpt>
      <trkpt lat="46.73078" lon="5.70566">
        <ele>530.6</ele>
        <time>2020-02-28T11:21:15Z</time>
      </trkpt>
      <trkpt lat="46.73076" lon="5.70573">
        <ele>530.8</ele>
        <time>2020-02-28T11:21:16Z</time>
      </trkpt>
      <trkpt lat="46.73074" lon="5.70581">
        <ele>530.8</ele>
        <time>2020-02-28T11:21:17Z</time>
      </trkpt>
      <trkpt lat="46.73072" lon="5.70589">
        <ele>530.8</ele>
        <time>2020-02-28T11:21:18Z</time>
      </trkpt>
      <trkpt lat="46.7307" lon="5.70596">
        <ele>530.8</ele>
        <time>2020-02-28T11:21:19Z</time>
      </trkpt>
      <trkpt lat="46.73068" lon="5.70604">
        <ele>531</ele>
        <time>2020-02-28T11:21:20Z</time>
      </trkpt>
      <trkpt lat="46.73067" lon="5.70612">
        <ele>531</ele>
        <time>2020-02-28T11:21:21Z</time>
      </trkpt>
      <trkpt lat="46.73065" lon="5.70619">
        <ele>531</ele>
        <time>2020-02-28T11:21:22Z</time>
      </trkpt>
      <trkpt lat="46.73063" lon="5.70627">
        <ele>531</ele>
        <time>2020-02-28T11:21:23Z</time>
      </trkpt>
      <trkpt lat="46.73061" lon="5.70634">
        <ele>531</ele>
        <time>2020-02-28T11:21:24Z</time>
      </trkpt>
      <trkpt lat="46.73059" lon="5.70642">
        <ele>531</ele>
        <time>2020-02-28T11:21:25Z</time>
      </trkpt>
      <trkpt lat="46.73057" lon="5.7065">
        <ele>531</ele>
        <time>2020-02-28T11:21:26Z</time>
      </trkpt>
      <trkpt lat="46.73055" lon="5.70657">
        <ele>531.2</ele>
        <time>2020-02-28T11:21:27Z</time>
      </trkpt>
      <trkpt lat="46.73052" lon="5.70665">
        <ele>531.2</ele>
        <time>2020-02-28T11:21:28Z</time>
      </trkpt>
      <trkpt lat="46.73049" lon="5.70673">
        <ele>531.2</ele>
        <time>2020-02-28T11:21:29Z</time>
      </trkpt>
      <trkpt lat="46.73047" lon="5.7068">
        <ele>531.2</ele>
        <time>2020-02-28T11:21:30Z</time>
      </trkpt>
      <trkpt lat="46.73044" lon="5.70688">
        <ele>531</ele>
        <time>2020-02-28T11:21:31Z</time>
      </trkpt>
      <trkpt lat="46.73041" lon="5.70697">
        <ele>531</ele>
        <time>2020-02-28T11:21:32Z</time>
      </trkpt>
      <trkpt lat="46.73039" lon="5.70704">
        <ele>531</ele>
        <time>2020-02-28T11:21:33Z</time>
      </trkpt>
      <trkpt lat="46.73036" lon="5.70712">
        <ele>531</ele>
        <time>2020-02-28T11:21:34Z</time>
      </trkpt>
      <trkpt lat="46.73033" lon="5.70719">
        <ele>531</ele>
        <time>2020-02-28T11:21:35Z</time>
      </trkpt>
      <trkpt lat="46.73031" lon="5.70726">
        <ele>531</ele>
        <time>2020-02-28T11:21:36Z</time>
      </trkpt>
      <trkpt lat="46.73028" lon="5.70733">
        <ele>531</ele>
        <time>2020-02-28T11:21:37Z</time>
      </trkpt>
      <trkpt lat="46.73025" lon="5.70739">
        <ele>531</ele>
        <time>2020-02-28T11:21:38Z</time>
      </trkpt>
      <trkpt lat="46.73023" lon="5.70746">
        <ele>531</ele>
        <time>2020-02-28T11:21:39Z</time>
      </trkpt>
      <trkpt lat="46.7302" lon="5.70752">
        <ele>531</ele>
        <time>2020-02-28T11:21:40Z</time>
      </trkpt>
      <trkpt lat="46.73017" lon="5.70758">
        <ele>531</ele>
        <time>2020-02-28T11:21:41Z</time>
      </trkpt>
      <trkpt lat="46.73013" lon="5.70765">
        <ele>531</ele>
        <time>2020-02-28T11:21:42Z</time>
      </trkpt>
      <trkpt lat="46.7301" lon="5.70771">
        <ele>531</ele>
        <time>2020-02-28T11:21:43Z</time>
      </trkpt>
      <trkpt lat="46.73006" lon="5.70776">
        <ele>531</ele>
        <time>2020-02-28T11:21:44Z</time>
      </trkpt>
      <trkpt lat="46.73002" lon="5.70782">
        <ele>531</ele>
        <time>2020-02-28T11:21:45Z</time>
      </trkpt>
      <trkpt lat="46.72999" lon="5.70788">
        <ele>531</ele>
        <time>2020-02-28T11:21:46Z</time>
      </trkpt>
      <trkpt lat="46.72995" lon="5.70793">
        <ele>531</ele>
        <time>2020-02-28T11:21:47Z</time>
      </trkpt>
      <trkpt lat="46.72991" lon="5.70798">
        <ele>531</ele>
        <time>2020-02-28T11:21:48Z</time>
      </trkpt>
      <trkpt lat="46.72987" lon="5.70804">
        <ele>531</ele>
        <time>2020-02-28T11:21:49Z</time>
      </trkpt>
      <trkpt lat="46.72983" lon="5.70809">
        <ele>531</ele>
        <time>2020-02-28T11:21:50Z</time>
      </trkpt>
      <trkpt lat="46.72979" lon="5.70815">
        <ele>531</ele>
        <time>2020-02-28T11:21:51Z</time>
      </trkpt>
      <trkpt lat="46.72975" lon="5.7082">
        <ele>531.4</ele>
        <time>2020-02-28T11:21:52Z</time>
      </trkpt>
      <trkpt lat="46.72971" lon="5.70826">
        <ele>531.4</ele>
        <time>2020-02-28T11:21:53Z</time>
      </trkpt>
      <trkpt lat="46.72966" lon="5.70831">
        <ele>531.6</ele>
        <time>2020-02-28T11:21:54Z</time>
      </trkpt>
      <trkpt lat="46.72962" lon="5.70835">
        <ele>531.6</ele>
        <time>2020-02-28T11:21:55Z</time>
      </trkpt>
      <trkpt lat="46.72958" lon="5.7084">
        <ele>531.6</ele>
        <time>2020-02-28T11:21:56Z</time>
      </trkpt>
      <trkpt lat="46.72954" lon="5.70845">
        <ele>532</ele>
        <time>2020-02-28T11:21:57Z</time>
      </trkpt>
      <trkpt lat="46.7295" lon="5.70849">
        <ele>532</ele>
        <time>2020-02-28T11:21:58Z</time>
      </trkpt>
      <trkpt lat="46.72946" lon="5.70853">
        <ele>532.2</ele>
        <time>2020-02-28T11:21:59Z</time>
      </trkpt>
      <trkpt lat="46.72942" lon="5.70857">
        <ele>532.2</ele>
        <time>2020-02-28T11:22:00Z</time>
      </trkpt>
      <trkpt lat="46.72938" lon="5.70861">
        <ele>532.4</ele>
        <time>2020-02-28T11:22:01Z</time>
      </trkpt>
      <trkpt lat="46.72934" lon="5.70865">
        <ele>532.4</ele>
        <time>2020-02-28T11:22:02Z</time>
      </trkpt>
      <trkpt lat="46.7293" lon="5.70869">
        <ele>532.4</ele>
        <time>2020-02-28T11:22:03Z</time>
      </trkpt>
      <trkpt lat="46.72926" lon="5.70873">
        <ele>532.6</ele>
        <time>2020-02-28T11:22:04Z</time>
      </trkpt>
      <trkpt lat="46.72922" lon="5.70877">
        <ele>532.6</ele>
        <time>2020-02-28T11:22:05Z</time>
      </trkpt>
      <trkpt lat="46.72917" lon="5.70881">
        <ele>532.6</ele>
        <time>2020-02-28T11:22:06Z</time>
      </trkpt>
      <trkpt lat="46.72913" lon="5.70885">
        <ele>532.6</ele>
        <time>2020-02-28T11:22:07Z</time>
      </trkpt>
      <trkpt lat="46.72909" lon="5.7089">
        <ele>532.6</ele>
        <time>2020-02-28T11:22:08Z</time>
      </trkpt>
      <trkpt lat="46.72904" lon="5.70894">
        <ele>532.6</ele>
        <time>2020-02-28T11:22:09Z</time>
      </trkpt>
      <trkpt lat="46.729" lon="5.70898">
        <ele>532.6</ele>
        <time>2020-02-28T11:22:10Z</time>
      </trkpt>
      <trkpt lat="46.72895" lon="5.70903">
        <ele>532.6</ele>
        <time>2020-02-28T11:22:11Z</time>
      </trkpt>
      <trkpt lat="46.72891" lon="5.70907">
        <ele>532.6</ele>
        <time>2020-02-28T11:22:12Z</time>
      </trkpt>
      <trkpt lat="46.72886" lon="5.70911">
        <ele>532.6</ele>
        <time>2020-02-28T11:22:13Z</time>
      </trkpt>
      <trkpt lat="46.72881" lon="5.70915">
        <ele>532.6</ele>
        <time>2020-02-28T11:22:14Z</time>
      </trkpt>
      <trkpt lat="46.72876" lon="5.7092">
        <ele>532.6</ele>
        <time>2020-02-28T11:22:15Z</time>
      </trkpt>
      <trkpt lat="46.72871" lon="5.70924">
        <ele>533</ele>
        <time>2020-02-28T11:22:16Z</time>
      </trkpt>
      <trkpt lat="46.72867" lon="5.70928">
        <ele>533</ele>
        <time>2020-02-28T11:22:17Z</time>
      </trkpt>
      <trkpt lat="46.72862" lon="5.70931">
        <ele>533</ele>
        <time>2020-02-28T11:22:18Z</time>
      </trkpt>
      <trkpt lat="46.72857" lon="5.70933">
        <ele>533</ele>
        <time>2020-02-28T11:22:19Z</time>
      </trkpt>
      <trkpt lat="46.72851" lon="5.70935">
        <ele>533</ele>
        <time>2020-02-28T11:22:20Z</time>
      </trkpt>
      <trkpt lat="46.72846" lon="5.70935">
        <ele>533.2</ele>
        <time>2020-02-28T11:22:21Z</time>
      </trkpt>
      <trkpt lat="46.7284" lon="5.70935">
        <ele>533.2</ele>
        <time>2020-02-28T11:22:22Z</time>
      </trkpt>
      <trkpt lat="46.72835" lon="5.70933">
        <ele>533.4</ele>
        <time>2020-02-28T11:22:23Z</time>
      </trkpt>
      <trkpt lat="46.7283" lon="5.7093">
        <ele>533.4</ele>
        <time>2020-02-28T11:22:24Z</time>
      </trkpt>
      <trkpt lat="46.72825" lon="5.70925">
        <ele>533.4</ele>
        <time>2020-02-28T11:22:25Z</time>
      </trkpt>
      <trkpt lat="46.72821" lon="5.70921">
        <ele>533.4</ele>
        <time>2020-02-28T11:22:26Z</time>
      </trkpt>
      <trkpt lat="46.72817" lon="5.70915">
        <ele>533.4</ele>
        <time>2020-02-28T11:22:27Z</time>
      </trkpt>
      <trkpt lat="46.72813" lon="5.70909">
        <ele>533.4</ele>
        <time>2020-02-28T11:22:28Z</time>
      </trkpt>
      <trkpt lat="46.7281" lon="5.70903">
        <ele>533.4</ele>
        <time>2020-02-28T11:22:29Z</time>
      </trkpt>
      <trkpt lat="46.72806" lon="5.70897">
        <ele>533.4</ele>
        <time>2020-02-28T11:22:30Z</time>
      </trkpt>
      <trkpt lat="46.72802" lon="5.70891">
        <ele>533.4</ele>
        <time>2020-02-28T11:22:31Z</time>
      </trkpt>
      <trkpt lat="46.72799" lon="5.70885">
        <ele>533.4</ele>
        <time>2020-02-28T11:22:32Z</time>
      </trkpt>
      <trkpt lat="46.72796" lon="5.70879">
        <ele>533.6</ele>
        <time>2020-02-28T11:22:33Z</time>
      </trkpt>
      <trkpt lat="46.72793" lon="5.70873">
        <ele>533.6</ele>
        <time>2020-02-28T11:22:34Z</time>
      </trkpt>
      <trkpt lat="46.7279" lon="5.70867">
        <ele>534</ele>
        <time>2020-02-28T11:22:35Z</time>
      </trkpt>
      <trkpt lat="46.72788" lon="5.70862">
        <ele>534</ele>
        <time>2020-02-28T11:22:36Z</time>
      </trkpt>
      <trkpt lat="46.72785" lon="5.70856">
        <ele>534.2</ele>
        <time>2020-02-28T11:22:37Z</time>
      </trkpt>
      <trkpt lat="46.72783" lon="5.7085">
        <ele>534.6</ele>
        <time>2020-02-28T11:22:38Z</time>
      </trkpt>
      <trkpt lat="46.7278" lon="5.70844">
        <ele>534.6</ele>
        <time>2020-02-28T11:22:39Z</time>
      </trkpt>
      <trkpt lat="46.72777" lon="5.70838">
        <ele>534.8</ele>
        <time>2020-02-28T11:22:40Z</time>
      </trkpt>
      <trkpt lat="46.72775" lon="5.70832">
        <ele>534.8</ele>
        <time>2020-02-28T11:22:41Z</time>
      </trkpt>
      <trkpt lat="46.72773" lon="5.70826">
        <ele>534.8</ele>
        <time>2020-02-28T11:22:42Z</time>
      </trkpt>
      <trkpt lat="46.7277" lon="5.70821">
        <ele>535.2</ele>
        <time>2020-02-28T11:22:43Z</time>
      </trkpt>
      <trkpt lat="46.72768" lon="5.70815">
        <ele>535.2</ele>
        <time>2020-02-28T11:22:44Z</time>
      </trkpt>
      <trkpt lat="46.72765" lon="5.7081">
        <ele>535.4</ele>
        <time>2020-02-28T11:22:45Z</time>
      </trkpt>
      <trkpt lat="46.72763" lon="5.70804">
        <ele>535.4</ele>
        <time>2020-02-28T11:22:46Z</time>
      </trkpt>
      <trkpt lat="46.72761" lon="5.70799">
        <ele>535.6</ele>
        <time>2020-02-28T11:22:47Z</time>
      </trkpt>
      <trkpt lat="46.72758" lon="5.70794">
        <ele>535.6</ele>
        <time>2020-02-28T11:22:48Z</time>
      </trkpt>
      <trkpt lat="46.72755" lon="5.70789">
        <ele>535.6</ele>
        <time>2020-02-28T11:22:49Z</time>
      </trkpt>
      <trkpt lat="46.72752" lon="5.70784">
        <ele>535.6</ele>
        <time>2020-02-28T11:22:50Z</time>
      </trkpt>
      <trkpt lat="46.72749" lon="5.70779">
        <ele>535.6</ele>
        <time>2020-02-28T11:22:51Z</time>
      </trkpt>
      <trkpt lat="46.72745" lon="5.70774">
        <ele>535.6</ele>
        <time>2020-02-28T11:22:52Z</time>
      </trkpt>
      <trkpt lat="46.7274" lon="5.7077">
        <ele>535.6</ele>
        <time>2020-02-28T11:22:53Z</time>
      </trkpt>
      <trkpt lat="46.72735" lon="5.70767">
        <ele>535.6</ele>
        <time>2020-02-28T11:22:54Z</time>
      </trkpt>
      <trkpt lat="46.72729" lon="5.70765">
        <ele>535.2</ele>
        <time>2020-02-28T11:22:55Z</time>
      </trkpt>
      <trkpt lat="46.72722" lon="5.70765">
        <ele>534.8</ele>
        <time>2020-02-28T11:22:56Z</time>
      </trkpt>
      <trkpt lat="46.72715" lon="5.70765">
        <ele>534.6</ele>
        <time>2020-02-28T11:22:57Z</time>
      </trkpt>
      <trkpt lat="46.72708" lon="5.70766">
        <ele>534.2</ele>
        <time>2020-02-28T11:22:58Z</time>
      </trkpt>
      <trkpt lat="46.72701" lon="5.70768">
        <ele>534</ele>
        <time>2020-02-28T11:22:59Z</time>
      </trkpt>
      <trkpt lat="46.72694" lon="5.70769">
        <ele>534</ele>
        <time>2020-02-28T11:23:00Z</time>
      </trkpt>
      <trkpt lat="46.72686" lon="5.7077">
        <ele>533.6</ele>
        <time>2020-02-28T11:23:01Z</time>
      </trkpt>
      <trkpt lat="46.72679" lon="5.70771">
        <ele>533.6</ele>
        <time>2020-02-28T11:23:02Z</time>
      </trkpt>
      <trkpt lat="46.72671" lon="5.70772">
        <ele>533.2</ele>
        <time>2020-02-28T11:23:03Z</time>
      </trkpt>
      <trkpt lat="46.72664" lon="5.70773">
        <ele>533.2</ele>
        <time>2020-02-28T11:23:04Z</time>
      </trkpt>
      <trkpt lat="46.72657" lon="5.70774">
        <ele>532.8</ele>
        <time>2020-02-28T11:23:05Z</time>
      </trkpt>
      <trkpt lat="46.7265" lon="5.70775">
        <ele>532.8</ele>
        <time>2020-02-28T11:23:06Z</time>
      </trkpt>
      <trkpt lat="46.72643" lon="5.70776">
        <ele>532.8</ele>
        <time>2020-02-28T11:23:07Z</time>
      </trkpt>
      <trkpt lat="46.72636" lon="5.70776">
        <ele>532.8</ele>
        <time>2020-02-28T11:23:08Z</time>
      </trkpt>
      <trkpt lat="46.72629" lon="5.70776">
        <ele>532.8</ele>
        <time>2020-02-28T11:23:09Z</time>
      </trkpt>
      <trkpt lat="46.72623" lon="5.70775">
        <ele>532.6</ele>
        <time>2020-02-28T11:23:10Z</time>
      </trkpt>
      <trkpt lat="46.72616" lon="5.70775">
        <ele>532.6</ele>
        <time>2020-02-28T11:23:11Z</time>
      </trkpt>
      <trkpt lat="46.72609" lon="5.70774">
        <ele>532.6</ele>
        <time>2020-02-28T11:23:12Z</time>
      </trkpt>
      <trkpt lat="46.72603" lon="5.70773">
        <ele>532.6</ele>
        <time>2020-02-28T11:23:13Z</time>
      </trkpt>
      <trkpt lat="46.72596" lon="5.70773">
        <ele>532.6</ele>
        <time>2020-02-28T11:23:14Z</time>
      </trkpt>
      <trkpt lat="46.72589" lon="5.70772">
        <ele>532.6</ele>
        <time>2020-02-28T11:23:15Z</time>
      </trkpt>
      <trkpt lat="46.72583" lon="5.70772">
        <ele>532.6</ele>
        <time>2020-02-28T11:23:16Z</time>
      </trkpt>
      <trkpt lat="46.72576" lon="5.70773">
        <ele>532.6</ele>
        <time>2020-02-28T11:23:17Z</time>
      </trkpt>
      <trkpt lat="46.72569" lon="5.70774">
        <ele>532.6</ele>
        <time>2020-02-28T11:23:18Z</time>
      </trkpt>
      <trkpt lat="46.72563" lon="5.70776">
        <ele>532.4</ele>
        <time>2020-02-28T11:23:19Z</time>
      </trkpt>
      <trkpt lat="46.72556" lon="5.70777">
        <ele>532.4</ele>
        <time>2020-02-28T11:23:20Z</time>
      </trkpt>
      <trkpt lat="46.7255" lon="5.70779">
        <ele>532.4</ele>
        <time>2020-02-28T11:23:21Z</time>
      </trkpt>
      <trkpt lat="46.72544" lon="5.70781">
        <ele>532.4</ele>
        <time>2020-02-28T11:23:22Z</time>
      </trkpt>
      <trkpt lat="46.72538" lon="5.70782">
        <ele>532.4</ele>
        <time>2020-02-28T11:23:23Z</time>
      </trkpt>
      <trkpt lat="46.72531" lon="5.70784">
        <ele>532.2</ele>
        <time>2020-02-28T11:23:24Z</time>
      </trkpt>
      <trkpt lat="46.72525" lon="5.70785">
        <ele>532.2</ele>
        <time>2020-02-28T11:23:25Z</time>
      </trkpt>
      <trkpt lat="46.72519" lon="5.70786">
        <ele>532.2</ele>
        <time>2020-02-28T11:23:26Z</time>
      </trkpt>
      <trkpt lat="46.72513" lon="5.70787">
        <ele>532.2</ele>
        <time>2020-02-28T11:23:27Z</time>
      </trkpt>
      <trkpt lat="46.72507" lon="5.70788">
        <ele>532.2</ele>
        <time>2020-02-28T11:23:28Z</time>
      </trkpt>
      <trkpt lat="46.72501" lon="5.70788">
        <ele>532.2</ele>
        <time>2020-02-28T11:23:29Z</time>
      </trkpt>
      <trkpt lat="46.72495" lon="5.70788">
        <ele>532.2</ele>
        <time>2020-02-28T11:23:30Z</time>
      </trkpt>
      <trkpt lat="46.7249" lon="5.70788">
        <ele>532.2</ele>
        <time>2020-02-28T11:23:31Z</time>
      </trkpt>
      <trkpt lat="46.72484" lon="5.70787">
        <ele>532.4</ele>
        <time>2020-02-28T11:23:32Z</time>
      </trkpt>
      <trkpt lat="46.72478" lon="5.70787">
        <ele>532.4</ele>
        <time>2020-02-28T11:23:33Z</time>
      </trkpt>
      <trkpt lat="46.72473" lon="5.70787">
        <ele>532.4</ele>
        <time>2020-02-28T11:23:34Z</time>
      </trkpt>
      <trkpt lat="46.72467" lon="5.70787">
        <ele>532.4</ele>
        <time>2020-02-28T11:23:35Z</time>
      </trkpt>
      <trkpt lat="46.72462" lon="5.70787">
        <ele>532.6</ele>
        <time>2020-02-28T11:23:36Z</time>
      </trkpt>
      <trkpt lat="46.72457" lon="5.70787">
        <ele>532.6</ele>
        <time>2020-02-28T11:23:37Z</time>
      </trkpt>
      <trkpt lat="46.72452" lon="5.70787">
        <ele>533</ele>
        <time>2020-02-28T11:23:38Z</time>
      </trkpt>
      <trkpt lat="46.72447" lon="5.70787">
        <ele>533</ele>
        <time>2020-02-28T11:23:39Z</time>
      </trkpt>
      <trkpt lat="46.72443" lon="5.70787">
        <ele>533.2</ele>
        <time>2020-02-28T11:23:40Z</time>
      </trkpt>
      <trkpt lat="46.72438" lon="5.70787">
        <ele>533.2</ele>
        <time>2020-02-28T11:23:41Z</time>
      </trkpt>
      <trkpt lat="46.72434" lon="5.70788">
        <ele>533.2</ele>
        <time>2020-02-28T11:23:42Z</time>
      </trkpt>
      <trkpt lat="46.7243" lon="5.70788">
        <ele>533.4</ele>
        <time>2020-02-28T11:23:43Z</time>
      </trkpt>
      <trkpt lat="46.72426" lon="5.70789">
        <ele>533.4</ele>
        <time>2020-02-28T11:23:44Z</time>
      </trkpt>
      <trkpt lat="46.72422" lon="5.70789">
        <ele>533.8</ele>
        <time>2020-02-28T11:23:45Z</time>
      </trkpt>
      <trkpt lat="46.72419" lon="5.70789">
        <ele>533.8</ele>
        <time>2020-02-28T11:23:46Z</time>
      </trkpt>
      <trkpt lat="46.72415" lon="5.7079">
        <ele>533.8</ele>
        <time>2020-02-28T11:23:47Z</time>
      </trkpt>
      <trkpt lat="46.72411" lon="5.7079">
        <ele>534</ele>
        <time>2020-02-28T11:23:48Z</time>
      </trkpt>
      <trkpt lat="46.72407" lon="5.70791">
        <ele>534</ele>
        <time>2020-02-28T11:23:49Z</time>
      </trkpt>
      <trkpt lat="46.72403" lon="5.7079">
        <ele>534</ele>
        <time>2020-02-28T11:23:50Z</time>
      </trkpt>
      <trkpt lat="46.72399" lon="5.7079">
        <ele>534.2</ele>
        <time>2020-02-28T11:23:51Z</time>
      </trkpt>
      <trkpt lat="46.72394" lon="5.70791">
        <ele>534.2</ele>
        <time>2020-02-28T11:23:52Z</time>
      </trkpt>
      <trkpt lat="46.7239" lon="5.70791">
        <ele>534.2</ele>
        <time>2020-02-28T11:23:53Z</time>
      </trkpt>
      <trkpt lat="46.72386" lon="5.70791">
        <ele>534.2</ele>
        <time>2020-02-28T11:23:54Z</time>
      </trkpt>
      <trkpt lat="46.72381" lon="5.7079">
        <ele>534.2</ele>
        <time>2020-02-28T11:23:55Z</time>
      </trkpt>
      <trkpt lat="46.72377" lon="5.70791">
        <ele>534.2</ele>
        <time>2020-02-28T11:23:56Z</time>
      </trkpt>
      <trkpt lat="46.72373" lon="5.70791">
        <ele>534.2</ele>
        <time>2020-02-28T11:23:57Z</time>
      </trkpt>
      <trkpt lat="46.72368" lon="5.70791">
        <ele>534.4</ele>
        <time>2020-02-28T11:23:58Z</time>
      </trkpt>
      <trkpt lat="46.72364" lon="5.70792">
        <ele>534.4</ele>
        <time>2020-02-28T11:23:59Z</time>
      </trkpt>
      <trkpt lat="46.72359" lon="5.70793">
        <ele>534.4</ele>
        <time>2020-02-28T11:24:00Z</time>
      </trkpt>
      <trkpt lat="46.72355" lon="5.70794">
        <ele>534.4</ele>
        <time>2020-02-28T11:24:01Z</time>
      </trkpt>
      <trkpt lat="46.72351" lon="5.70795">
        <ele>534.4</ele>
        <time>2020-02-28T11:24:02Z</time>
      </trkpt>
      <trkpt lat="46.72347" lon="5.70797">
        <ele>534.4</ele>
        <time>2020-02-28T11:24:03Z</time>
      </trkpt>
      <trkpt lat="46.72344" lon="5.708">
        <ele>534.6</ele>
        <time>2020-02-28T11:24:04Z</time>
      </trkpt>
      <trkpt lat="46.7234" lon="5.70803">
        <ele>534.6</ele>
        <time>2020-02-28T11:24:05Z</time>
      </trkpt>
      <trkpt lat="46.72337" lon="5.70806">
        <ele>534.8</ele>
        <time>2020-02-28T11:24:06Z</time>
      </trkpt>
      <trkpt lat="46.72334" lon="5.70809">
        <ele>534.8</ele>
        <time>2020-02-28T11:24:07Z</time>
      </trkpt>
      <trkpt lat="46.7233" lon="5.70813">
        <ele>535.2</ele>
        <time>2020-02-28T11:24:08Z</time>
      </trkpt>
      <trkpt lat="46.72327" lon="5.70815">
        <ele>535.2</ele>
        <time>2020-02-28T11:24:09Z</time>
      </trkpt>
      <trkpt lat="46.72324" lon="5.70818">
        <ele>535.2</ele>
        <time>2020-02-28T11:24:10Z</time>
      </trkpt>
      <trkpt lat="46.72321" lon="5.70821">
        <ele>535.4</ele>
        <time>2020-02-28T11:24:11Z</time>
      </trkpt>
      <trkpt lat="46.72318" lon="5.70824">
        <ele>535.4</ele>
        <time>2020-02-28T11:24:12Z</time>
      </trkpt>
      <trkpt lat="46.72315" lon="5.70826">
        <ele>535.8</ele>
        <time>2020-02-28T11:24:13Z</time>
      </trkpt>
      <trkpt lat="46.72312" lon="5.70829">
        <ele>535.8</ele>
        <time>2020-02-28T11:24:14Z</time>
      </trkpt>
      <trkpt lat="46.7231" lon="5.70831">
        <ele>536</ele>
        <time>2020-02-28T11:24:15Z</time>
      </trkpt>
      <trkpt lat="46.72307" lon="5.70833">
        <ele>536</ele>
        <time>2020-02-28T11:24:16Z</time>
      </trkpt>
      <trkpt lat="46.72304" lon="5.70835">
        <ele>536.4</ele>
        <time>2020-02-28T11:24:17Z</time>
      </trkpt>
      <trkpt lat="46.72301" lon="5.70837">
        <ele>536.4</ele>
        <time>2020-02-28T11:24:18Z</time>
      </trkpt>
      <trkpt lat="46.72299" lon="5.7084">
        <ele>536.6</ele>
        <time>2020-02-28T11:24:19Z</time>
      </trkpt>
      <trkpt lat="46.72296" lon="5.70842">
        <ele>536.6</ele>
        <time>2020-02-28T11:24:20Z</time>
      </trkpt>
      <trkpt lat="46.72293" lon="5.70844">
        <ele>536.6</ele>
        <time>2020-02-28T11:24:21Z</time>
      </trkpt>
      <trkpt lat="46.7229" lon="5.70846">
        <ele>536.8</ele>
        <time>2020-02-28T11:24:22Z</time>
      </trkpt>
      <trkpt lat="46.72287" lon="5.70848">
        <ele>536.8</ele>
        <time>2020-02-28T11:24:23Z</time>
      </trkpt>
      <trkpt lat="46.72284" lon="5.7085">
        <ele>536.8</ele>
        <time>2020-02-28T11:24:24Z</time>
      </trkpt>
      <trkpt lat="46.72281" lon="5.70853">
        <ele>536.8</ele>
        <time>2020-02-28T11:24:25Z</time>
      </trkpt>
      <trkpt lat="46.72278" lon="5.70856">
        <ele>536.8</ele>
        <time>2020-02-28T11:24:26Z</time>
      </trkpt>
      <trkpt lat="46.72275" lon="5.70859">
        <ele>536.8</ele>
        <time>2020-02-28T11:24:27Z</time>
      </trkpt>
      <trkpt lat="46.72272" lon="5.70862">
        <ele>536.8</ele>
        <time>2020-02-28T11:24:28Z</time>
      </trkpt>
      <trkpt lat="46.72268" lon="5.70865">
        <ele>536.6</ele>
        <time>2020-02-28T11:24:29Z</time>
      </trkpt>
      <trkpt lat="46.72265" lon="5.70868">
        <ele>536.6</ele>
        <time>2020-02-28T11:24:30Z</time>
      </trkpt>
      <trkpt lat="46.72261" lon="5.70871">
        <ele>536.4</ele>
        <time>2020-02-28T11:24:31Z</time>
      </trkpt>
      <trkpt lat="46.72256" lon="5.70874">
        <ele>536.4</ele>
        <time>2020-02-28T11:24:32Z</time>
      </trkpt>
      <trkpt lat="46.72252" lon="5.70877">
        <ele>536</ele>
        <time>2020-02-28T11:24:33Z</time>
      </trkpt>
      <trkpt lat="46.72246" lon="5.7088">
        <ele>535.8</ele>
        <time>2020-02-28T11:24:34Z</time>
      </trkpt>
      <trkpt lat="46.72241" lon="5.70882">
        <ele>535.8</ele>
        <time>2020-02-28T11:24:35Z</time>
      </trkpt>
      <trkpt lat="46.72235" lon="5.70885">
        <ele>535.4</ele>
        <time>2020-02-28T11:24:36Z</time>
      </trkpt>
      <trkpt lat="46.72229" lon="5.70887">
        <ele>535.4</ele>
        <time>2020-02-28T11:24:37Z</time>
      </trkpt>
      <trkpt lat="46.72223" lon="5.70889">
        <ele>535</ele>
        <time>2020-02-28T11:24:38Z</time>
      </trkpt>
      <trkpt lat="46.72217" lon="5.7089">
        <ele>535</ele>
        <time>2020-02-28T11:24:39Z</time>
      </trkpt>
      <trkpt lat="46.72212" lon="5.70892">
        <ele>535</ele>
        <time>2020-02-28T11:24:40Z</time>
      </trkpt>
      <trkpt lat="46.72207" lon="5.70893">
        <ele>535</ele>
        <time>2020-02-28T11:24:41Z</time>
      </trkpt>
      <trkpt lat="46.72201" lon="5.70894">
        <ele>535</ele>
        <time>2020-02-28T11:24:42Z</time>
      </trkpt>
      <trkpt lat="46.72196" lon="5.70895">
        <ele>535</ele>
        <time>2020-02-28T11:24:43Z</time>
      </trkpt>
      <trkpt lat="46.72192" lon="5.70896">
        <ele>535</ele>
        <time>2020-02-28T11:24:44Z</time>
      </trkpt>
      <trkpt lat="46.72187" lon="5.70897">
        <ele>535</ele>
        <time>2020-02-28T11:24:45Z</time>
      </trkpt>
      <trkpt lat="46.72182" lon="5.70898">
        <ele>535</ele>
        <time>2020-02-28T11:24:46Z</time>
      </trkpt>
      <trkpt lat="46.72177" lon="5.709">
        <ele>535</ele>
        <time>2020-02-28T11:24:47Z</time>
      </trkpt>
      <trkpt lat="46.72172" lon="5.70901">
        <ele>535</ele>
        <time>2020-02-28T11:24:48Z</time>
      </trkpt>
      <trkpt lat="46.72167" lon="5.70902">
        <ele>535</ele>
        <time>2020-02-28T11:24:49Z</time>
      </trkpt>
      <trkpt lat="46.72162" lon="5.70903">
        <ele>535</ele>
        <time>2020-02-28T11:24:50Z</time>
      </trkpt>
      <trkpt lat="46.72157" lon="5.70904">
        <ele>535</ele>
        <time>2020-02-28T11:24:51Z</time>
      </trkpt>
      <trkpt lat="46.72151" lon="5.70905">
        <ele>535</ele>
        <time>2020-02-28T11:24:52Z</time>
      </trkpt>
      <trkpt lat="46.72146" lon="5.70905">
        <ele>535</ele>
        <time>2020-02-28T11:24:53Z</time>
      </trkpt>
      <trkpt lat="46.72141" lon="5.70905">
        <ele>535.4</ele>
        <time>2020-02-28T11:24:54Z</time>
      </trkpt>
      <trkpt lat="46.72136" lon="5.70905">
        <ele>535.4</ele>
        <time>2020-02-28T11:24:55Z</time>
      </trkpt>
      <trkpt lat="46.72131" lon="5.70904">
        <ele>535.4</ele>
        <time>2020-02-28T11:24:56Z</time>
      </trkpt>
      <trkpt lat="46.72126" lon="5.70903">
        <ele>535.4</ele>
        <time>2020-02-28T11:24:57Z</time>
      </trkpt>
      <trkpt lat="46.72121" lon="5.70902">
        <ele>535.6</ele>
        <time>2020-02-28T11:24:58Z</time>
      </trkpt>
      <trkpt lat="46.72116" lon="5.709">
        <ele>535.6</ele>
        <time>2020-02-28T11:24:59Z</time>
      </trkpt>
      <trkpt lat="46.72111" lon="5.70897">
        <ele>535.6</ele>
        <time>2020-02-28T11:25:00Z</time>
      </trkpt>
      <trkpt lat="46.72106" lon="5.70895">
        <ele>535.6</ele>
        <time>2020-02-28T11:25:01Z</time>
      </trkpt>
      <trkpt lat="46.72102" lon="5.70892">
        <ele>535.6</ele>
        <time>2020-02-28T11:25:02Z</time>
      </trkpt>
      <trkpt lat="46.72098" lon="5.70889">
        <ele>535.6</ele>
        <time>2020-02-28T11:25:03Z</time>
      </trkpt>
      <trkpt lat="46.72094" lon="5.70885">
        <ele>535.8</ele>
        <time>2020-02-28T11:25:04Z</time>
      </trkpt>
      <trkpt lat="46.7209" lon="5.70881">
        <ele>535.8</ele>
        <time>2020-02-28T11:25:05Z</time>
      </trkpt>
      <trkpt lat="46.72086" lon="5.70877">
        <ele>535.8</ele>
        <time>2020-02-28T11:25:06Z</time>
      </trkpt>
      <trkpt lat="46.72082" lon="5.70874">
        <ele>535.8</ele>
        <time>2020-02-28T11:25:07Z</time>
      </trkpt>
      <trkpt lat="46.72078" lon="5.7087">
        <ele>536</ele>
        <time>2020-02-28T11:25:08Z</time>
      </trkpt>
      <trkpt lat="46.72074" lon="5.70866">
        <ele>536</ele>
        <time>2020-02-28T11:25:09Z</time>
      </trkpt>
      <trkpt lat="46.7207" lon="5.70862">
        <ele>536</ele>
        <time>2020-02-28T11:25:10Z</time>
      </trkpt>
      <trkpt lat="46.72066" lon="5.70858">
        <ele>536</ele>
        <time>2020-02-28T11:25:11Z</time>
      </trkpt>
      <trkpt lat="46.72063" lon="5.70855">
        <ele>536</ele>
        <time>2020-02-28T11:25:12Z</time>
      </trkpt>
      <trkpt lat="46.72058" lon="5.70852">
        <ele>536.4</ele>
        <time>2020-02-28T11:25:13Z</time>
      </trkpt>
      <trkpt lat="46.72054" lon="5.70849">
        <ele>536.4</ele>
        <time>2020-02-28T11:25:14Z</time>
      </trkpt>
      <trkpt lat="46.7205" lon="5.70846">
        <ele>536.6</ele>
        <time>2020-02-28T11:25:15Z</time>
      </trkpt>
      <trkpt lat="46.72046" lon="5.70842">
        <ele>536.6</ele>
        <time>2020-02-28T11:25:16Z</time>
      </trkpt>
      <trkpt lat="46.72041" lon="5.70839">
        <ele>536.6</ele>
        <time>2020-02-28T11:25:17Z</time>
      </trkpt>
      <trkpt lat="46.72037" lon="5.70836">
        <ele>536.6</ele>
        <time>2020-02-28T11:25:18Z</time>
      </trkpt>
      <trkpt lat="46.72032" lon="5.70833">
        <ele>536.8</ele>
        <time>2020-02-28T11:25:19Z</time>
      </trkpt>
      <trkpt lat="46.72028" lon="5.7083">
        <ele>536.8</ele>
        <time>2020-02-28T11:25:20Z</time>
      </trkpt>
      <trkpt lat="46.72023" lon="5.70827">
        <ele>537</ele>
        <time>2020-02-28T11:25:21Z</time>
      </trkpt>
      <trkpt lat="46.72019" lon="5.70823">
        <ele>537</ele>
        <time>2020-02-28T11:25:22Z</time>
      </trkpt>
      <trkpt lat="46.72015" lon="5.7082">
        <ele>537</ele>
        <time>2020-02-28T11:25:23Z</time>
      </trkpt>
      <trkpt lat="46.7201" lon="5.70817">
        <ele>537.2</ele>
        <time>2020-02-28T11:25:24Z</time>
      </trkpt>
      <trkpt lat="46.72006" lon="5.70814">
        <ele>537.2</ele>
        <time>2020-02-28T11:25:25Z</time>
      </trkpt>
      <trkpt lat="46.72002" lon="5.70811">
        <ele>537.2</ele>
        <time>2020-02-28T11:25:26Z</time>
      </trkpt>
      <trkpt lat="46.71997" lon="5.70808">
        <ele>537.4</ele>
        <time>2020-02-28T11:25:27Z</time>
      </trkpt>
      <trkpt lat="46.71993" lon="5.70806">
        <ele>537.4</ele>
        <time>2020-02-28T11:25:28Z</time>
      </trkpt>
      <trkpt lat="46.71988" lon="5.70803">
        <ele>537.8</ele>
        <time>2020-02-28T11:25:29Z</time>
      </trkpt>
      <trkpt lat="46.71984" lon="5.70801">
        <ele>538</ele>
        <time>2020-02-28T11:25:30Z</time>
      </trkpt>
      <trkpt lat="46.7198" lon="5.70799">
        <ele>538</ele>
        <time>2020-02-28T11:25:31Z</time>
      </trkpt>
      <trkpt lat="46.71975" lon="5.70797">
        <ele>538.2</ele>
        <time>2020-02-28T11:25:32Z</time>
      </trkpt>
      <trkpt lat="46.71971" lon="5.70796">
        <ele>538.6</ele>
        <time>2020-02-28T11:25:33Z</time>
      </trkpt>
      <trkpt lat="46.71966" lon="5.70795">
        <ele>538.8</ele>
        <time>2020-02-28T11:25:34Z</time>
      </trkpt>
      <trkpt lat="46.71962" lon="5.70795">
        <ele>538.8</ele>
        <time>2020-02-28T11:25:35Z</time>
      </trkpt>
      <trkpt lat="46.71957" lon="5.70794">
        <ele>538.8</ele>
        <time>2020-02-28T11:25:36Z</time>
      </trkpt>
      <trkpt lat="46.71953" lon="5.70794">
        <ele>539</ele>
        <time>2020-02-28T11:25:37Z</time>
      </trkpt>
      <trkpt lat="46.71948" lon="5.70795">
        <ele>539</ele>
        <time>2020-02-28T11:25:38Z</time>
      </trkpt>
      <trkpt lat="46.71944" lon="5.70795">
        <ele>539.2</ele>
        <time>2020-02-28T11:25:39Z</time>
      </trkpt>
      <trkpt lat="46.7194" lon="5.70795">
        <ele>539.2</ele>
        <time>2020-02-28T11:25:40Z</time>
      </trkpt>
      <trkpt lat="46.71935" lon="5.70795">
        <ele>539.2</ele>
        <time>2020-02-28T11:25:41Z</time>
      </trkpt>
      <trkpt lat="46.71931" lon="5.70795">
        <ele>539.6</ele>
        <time>2020-02-28T11:25:42Z</time>
      </trkpt>
      <trkpt lat="46.71927" lon="5.70795">
        <ele>539.6</ele>
        <time>2020-02-28T11:25:43Z</time>
      </trkpt>
      <trkpt lat="46.71923" lon="5.70795">
        <ele>539.6</ele>
        <time>2020-02-28T11:25:44Z</time>
      </trkpt>
      <trkpt lat="46.71919" lon="5.70795">
        <ele>539.8</ele>
        <time>2020-02-28T11:25:45Z</time>
      </trkpt>
      <trkpt lat="46.71915" lon="5.70796">
        <ele>539.8</ele>
        <time>2020-02-28T11:25:46Z</time>
      </trkpt>
      <trkpt lat="46.71911" lon="5.70796">
        <ele>540</ele>
        <time>2020-02-28T11:25:47Z</time>
      </trkpt>
      <trkpt lat="46.71907" lon="5.70796">
        <ele>540</ele>
        <time>2020-02-28T11:25:48Z</time>
      </trkpt>
      <trkpt lat="46.71903" lon="5.70796">
        <ele>540.2</ele>
        <time>2020-02-28T11:25:49Z</time>
      </trkpt>
      <trkpt lat="46.71899" lon="5.70797">
        <ele>540.2</ele>
        <time>2020-02-28T11:25:50Z</time>
      </trkpt>
      <trkpt lat="46.71896" lon="5.70797">
        <ele>540.2</ele>
        <time>2020-02-28T11:25:51Z</time>
      </trkpt>
      <trkpt lat="46.71892" lon="5.70798">
        <ele>540.2</ele>
        <time>2020-02-28T11:25:52Z</time>
      </trkpt>
      <trkpt lat="46.71889" lon="5.70799">
        <ele>540.6</ele>
        <time>2020-02-28T11:25:53Z</time>
      </trkpt>
      <trkpt lat="46.71885" lon="5.70799">
        <ele>540.6</ele>
        <time>2020-02-28T11:25:54Z</time>
      </trkpt>
      <trkpt lat="46.71882" lon="5.70801">
        <ele>540.6</ele>
        <time>2020-02-28T11:25:55Z</time>
      </trkpt>
      <trkpt lat="46.71878" lon="5.70803">
        <ele>540.8</ele>
        <time>2020-02-28T11:25:56Z</time>
      </trkpt>
      <trkpt lat="46.71874" lon="5.70805">
        <ele>540.8</ele>
        <time>2020-02-28T11:25:57Z</time>
      </trkpt>
      <trkpt lat="46.71871" lon="5.70808">
        <ele>540.8</ele>
        <time>2020-02-28T11:25:58Z</time>
      </trkpt>
      <trkpt lat="46.71867" lon="5.70811">
        <ele>540.8</ele>
        <time>2020-02-28T11:25:59Z</time>
      </trkpt>
      <trkpt lat="46.71863" lon="5.70814">
        <ele>540.8</ele>
        <time>2020-02-28T11:26:00Z</time>
      </trkpt>
      <trkpt lat="46.71859" lon="5.70817">
        <ele>540.8</ele>
        <time>2020-02-28T11:26:01Z</time>
      </trkpt>
      <trkpt lat="46.71854" lon="5.7082">
        <ele>540.8</ele>
        <time>2020-02-28T11:26:02Z</time>
      </trkpt>
      <trkpt lat="46.7185" lon="5.70824">
        <ele>540.8</ele>
        <time>2020-02-28T11:26:03Z</time>
      </trkpt>
      <trkpt lat="46.71846" lon="5.70827">
        <ele>540.8</ele>
        <time>2020-02-28T11:26:04Z</time>
      </trkpt>
      <trkpt lat="46.71842" lon="5.70831">
        <ele>540.8</ele>
        <time>2020-02-28T11:26:05Z</time>
      </trkpt>
      <trkpt lat="46.71838" lon="5.70835">
        <ele>540.8</ele>
        <time>2020-02-28T11:26:06Z</time>
      </trkpt>
      <trkpt lat="46.71834" lon="5.70838">
        <ele>540.8</ele>
        <time>2020-02-28T11:26:07Z</time>
      </trkpt>
      <trkpt lat="46.7183" lon="5.70842">
        <ele>540.8</ele>
        <time>2020-02-28T11:26:08Z</time>
      </trkpt>
      <trkpt lat="46.71826" lon="5.70846">
        <ele>540.8</ele>
        <time>2020-02-28T11:26:09Z</time>
      </trkpt>
      <trkpt lat="46.71822" lon="5.7085">
        <ele>540.8</ele>
        <time>2020-02-28T11:26:10Z</time>
      </trkpt>
      <trkpt lat="46.71818" lon="5.70854">
        <ele>540.8</ele>
        <time>2020-02-28T11:26:11Z</time>
      </trkpt>
      <trkpt lat="46.71814" lon="5.70858">
        <ele>540.8</ele>
        <time>2020-02-28T11:26:12Z</time>
      </trkpt>
      <trkpt lat="46.7181" lon="5.70862">
        <ele>540.8</ele>
        <time>2020-02-28T11:26:13Z</time>
      </trkpt>
      <trkpt lat="46.71805" lon="5.70866">
        <ele>540.8</ele>
        <time>2020-02-28T11:26:14Z</time>
      </trkpt>
      <trkpt lat="46.71801" lon="5.70871">
        <ele>541.2</ele>
        <time>2020-02-28T11:26:15Z</time>
      </trkpt>
      <trkpt lat="46.71798" lon="5.70875">
        <ele>541.2</ele>
        <time>2020-02-28T11:26:16Z</time>
      </trkpt>
      <trkpt lat="46.71795" lon="5.70879">
        <ele>541.4</ele>
        <time>2020-02-28T11:26:17Z</time>
      </trkpt>
      <trkpt lat="46.71792" lon="5.70884">
        <ele>541.4</ele>
        <time>2020-02-28T11:26:18Z</time>
      </trkpt>
      <trkpt lat="46.71789" lon="5.70888">
        <ele>541.8</ele>
        <time>2020-02-28T11:26:19Z</time>
      </trkpt>
      <trkpt lat="46.71787" lon="5.70892">
        <ele>541.8</ele>
        <time>2020-02-28T11:26:20Z</time>
      </trkpt>
      <trkpt lat="46.71784" lon="5.70895">
        <ele>542</ele>
        <time>2020-02-28T11:26:21Z</time>
      </trkpt>
      <trkpt lat="46.71782" lon="5.70898">
        <ele>542.4</ele>
        <time>2020-02-28T11:26:22Z</time>
      </trkpt>
      <trkpt lat="46.71779" lon="5.70901">
        <ele>542.4</ele>
        <time>2020-02-28T11:26:23Z</time>
      </trkpt>
      <trkpt lat="46.71776" lon="5.70904">
        <ele>542.8</ele>
        <time>2020-02-28T11:26:24Z</time>
      </trkpt>
      <trkpt lat="46.71774" lon="5.70906">
        <ele>542.8</ele>
        <time>2020-02-28T11:26:25Z</time>
      </trkpt>
      <trkpt lat="46.7177" lon="5.70909">
        <ele>543</ele>
        <time>2020-02-28T11:26:26Z</time>
      </trkpt>
      <trkpt lat="46.71767" lon="5.70911">
        <ele>543.2</ele>
        <time>2020-02-28T11:26:27Z</time>
      </trkpt>
      <trkpt lat="46.71764" lon="5.70913">
        <ele>543.2</ele>
        <time>2020-02-28T11:26:28Z</time>
      </trkpt>
      <trkpt lat="46.71761" lon="5.70915">
        <ele>543.6</ele>
        <time>2020-02-28T11:26:29Z</time>
      </trkpt>
      <trkpt lat="46.71757" lon="5.70917">
        <ele>543.6</ele>
        <time>2020-02-28T11:26:30Z</time>
      </trkpt>
      <trkpt lat="46.71754" lon="5.70919">
        <ele>543.8</ele>
        <time>2020-02-28T11:26:31Z</time>
      </trkpt>
      <trkpt lat="46.71751" lon="5.70921">
        <ele>543.8</ele>
        <time>2020-02-28T11:26:32Z</time>
      </trkpt>
      <trkpt lat="46.71747" lon="5.70923">
        <ele>544</ele>
        <time>2020-02-28T11:26:33Z</time>
      </trkpt>
      <trkpt lat="46.71744" lon="5.70925">
        <ele>544</ele>
        <time>2020-02-28T11:26:34Z</time>
      </trkpt>
      <trkpt lat="46.71741" lon="5.70927">
        <ele>544.2</ele>
        <time>2020-02-28T11:26:35Z</time>
      </trkpt>
      <trkpt lat="46.71737" lon="5.7093">
        <ele>544.2</ele>
        <time>2020-02-28T11:26:36Z</time>
      </trkpt>
      <trkpt lat="46.71734" lon="5.70932">
        <ele>544.2</ele>
        <time>2020-02-28T11:26:37Z</time>
      </trkpt>
      <trkpt lat="46.7173" lon="5.70934">
        <ele>544.4</ele>
        <time>2020-02-28T11:26:38Z</time>
      </trkpt>
      <trkpt lat="46.71727" lon="5.70936">
        <ele>544.4</ele>
        <time>2020-02-28T11:26:39Z</time>
      </trkpt>
      <trkpt lat="46.71724" lon="5.70939">
        <ele>544.4</ele>
        <time>2020-02-28T11:26:40Z</time>
      </trkpt>
      <trkpt lat="46.7172" lon="5.70942">
        <ele>544.8</ele>
        <time>2020-02-28T11:26:41Z</time>
      </trkpt>
      <trkpt lat="46.71717" lon="5.70945">
        <ele>544.8</ele>
        <time>2020-02-28T11:26:42Z</time>
      </trkpt>
      <trkpt lat="46.71713" lon="5.70948">
        <ele>544.8</ele>
        <time>2020-02-28T11:26:43Z</time>
      </trkpt>
      <trkpt lat="46.71709" lon="5.70951">
        <ele>544.8</ele>
        <time>2020-02-28T11:26:44Z</time>
      </trkpt>
      <trkpt lat="46.71706" lon="5.70955">
        <ele>544.8</ele>
        <time>2020-02-28T11:26:45Z</time>
      </trkpt>
      <trkpt lat="46.71703" lon="5.70959">
        <ele>544.8</ele>
        <time>2020-02-28T11:26:46Z</time>
      </trkpt>
      <trkpt lat="46.71699" lon="5.70963">
        <ele>544.8</ele>
        <time>2020-02-28T11:26:47Z</time>
      </trkpt>
      <trkpt lat="46.71695" lon="5.70967">
        <ele>545</ele>
        <time>2020-02-28T11:26:48Z</time>
      </trkpt>
      <trkpt lat="46.71692" lon="5.70971">
        <ele>545</ele>
        <time>2020-02-28T11:26:49Z</time>
      </trkpt>
      <trkpt lat="46.71688" lon="5.70974">
        <ele>545</ele>
        <time>2020-02-28T11:26:50Z</time>
      </trkpt>
      <trkpt lat="46.71685" lon="5.70976">
        <ele>545.2</ele>
        <time>2020-02-28T11:26:51Z</time>
      </trkpt>
      <trkpt lat="46.71681" lon="5.70979">
        <ele>545.2</ele>
        <time>2020-02-28T11:26:52Z</time>
      </trkpt>
      <trkpt lat="46.71678" lon="5.70981">
        <ele>545.2</ele>
        <time>2020-02-28T11:26:53Z</time>
      </trkpt>
      <trkpt lat="46.71674" lon="5.70982">
        <ele>545.4</ele>
        <time>2020-02-28T11:26:54Z</time>
      </trkpt>
      <trkpt lat="46.71671" lon="5.70983">
        <ele>545.4</ele>
        <time>2020-02-28T11:26:55Z</time>
      </trkpt>
      <trkpt lat="46.71667" lon="5.70984">
        <ele>545.6</ele>
        <time>2020-02-28T11:26:56Z</time>
      </trkpt>
      <trkpt lat="46.71664" lon="5.70984">
        <ele>545.6</ele>
        <time>2020-02-28T11:26:57Z</time>
      </trkpt>
      <trkpt lat="46.71661" lon="5.70983">
        <ele>546</ele>
        <time>2020-02-28T11:26:58Z</time>
      </trkpt>
      <trkpt lat="46.71657" lon="5.70983">
        <ele>546.2</ele>
        <time>2020-02-28T11:26:59Z</time>
      </trkpt>
      <trkpt lat="46.71654" lon="5.70983">
        <ele>546.4</ele>
        <time>2020-02-28T11:27:00Z</time>
      </trkpt>
      <trkpt lat="46.71651" lon="5.70982">
        <ele>546.4</ele>
        <time>2020-02-28T11:27:01Z</time>
      </trkpt>
      <trkpt lat="46.71648" lon="5.70982">
        <ele>546.8</ele>
        <time>2020-02-28T11:27:02Z</time>
      </trkpt>
      <trkpt lat="46.71646" lon="5.70981">
        <ele>546.8</ele>
        <time>2020-02-28T11:27:03Z</time>
      </trkpt>
      <trkpt lat="46.71643" lon="5.70979">
        <ele>547.2</ele>
        <time>2020-02-28T11:27:04Z</time>
      </trkpt>
      <trkpt lat="46.7164" lon="5.70978">
        <ele>547.2</ele>
        <time>2020-02-28T11:27:05Z</time>
      </trkpt>
      <trkpt lat="46.71637" lon="5.70977">
        <ele>547.4</ele>
        <time>2020-02-28T11:27:06Z</time>
      </trkpt>
      <trkpt lat="46.71634" lon="5.70976">
        <ele>547.8</ele>
        <time>2020-02-28T11:27:07Z</time>
      </trkpt>
      <trkpt lat="46.71631" lon="5.70975">
        <ele>547.8</ele>
        <time>2020-02-28T11:27:08Z</time>
      </trkpt>
      <trkpt lat="46.71627" lon="5.70974">
        <ele>548</ele>
        <time>2020-02-28T11:27:09Z</time>
      </trkpt>
      <trkpt lat="46.71624" lon="5.70972">
        <ele>548</ele>
        <time>2020-02-28T11:27:10Z</time>
      </trkpt>
      <trkpt lat="46.7162" lon="5.7097">
        <ele>548</ele>
        <time>2020-02-28T11:27:11Z</time>
      </trkpt>
      <trkpt lat="46.71616" lon="5.70968">
        <ele>548</ele>
        <time>2020-02-28T11:27:12Z</time>
      </trkpt>
      <trkpt lat="46.71612" lon="5.70967">
        <ele>548</ele>
        <time>2020-02-28T11:27:13Z</time>
      </trkpt>
      <trkpt lat="46.71608" lon="5.70965">
        <ele>548.2</ele>
        <time>2020-02-28T11:27:14Z</time>
      </trkpt>
      <trkpt lat="46.71604" lon="5.70963">
        <ele>548.2</ele>
        <time>2020-02-28T11:27:15Z</time>
      </trkpt>
      <trkpt lat="46.716" lon="5.70962">
        <ele>548.2</ele>
        <time>2020-02-28T11:27:16Z</time>
      </trkpt>
      <trkpt lat="46.71596" lon="5.7096">
        <ele>548.2</ele>
        <time>2020-02-28T11:27:17Z</time>
      </trkpt>
      <trkpt lat="46.71592" lon="5.70959">
        <ele>548.2</ele>
        <time>2020-02-28T11:27:18Z</time>
      </trkpt>
      <trkpt lat="46.71588" lon="5.70958">
        <ele>548.2</ele>
        <time>2020-02-28T11:27:19Z</time>
      </trkpt>
      <trkpt lat="46.71584" lon="5.70957">
        <ele>548.2</ele>
        <time>2020-02-28T11:27:20Z</time>
      </trkpt>
      <trkpt lat="46.7158" lon="5.70955">
        <ele>548.4</ele>
        <time>2020-02-28T11:27:21Z</time>
      </trkpt>
      <trkpt lat="46.71576" lon="5.70954">
        <ele>548.4</ele>
        <time>2020-02-28T11:27:22Z</time>
      </trkpt>
      <trkpt lat="46.71572" lon="5.70953">
        <ele>548.8</ele>
        <time>2020-02-28T11:27:23Z</time>
      </trkpt>
      <trkpt lat="46.71567" lon="5.70951">
        <ele>548.8</ele>
        <time>2020-02-28T11:27:24Z</time>
      </trkpt>
      <trkpt lat="46.71563" lon="5.70949">
        <ele>549</ele>
        <time>2020-02-28T11:27:25Z</time>
      </trkpt>
      <trkpt lat="46.71559" lon="5.70947">
        <ele>549</ele>
        <time>2020-02-28T11:27:26Z</time>
      </trkpt>
      <trkpt lat="46.71555" lon="5.70944">
        <ele>549.2</ele>
        <time>2020-02-28T11:27:27Z</time>
      </trkpt>
      <trkpt lat="46.71552" lon="5.70941">
        <ele>549.2</ele>
        <time>2020-02-28T11:27:28Z</time>
      </trkpt>
      <trkpt lat="46.71549" lon="5.70937">
        <ele>549.6</ele>
        <time>2020-02-28T11:27:29Z</time>
      </trkpt>
      <trkpt lat="46.71546" lon="5.70934">
        <ele>549.8</ele>
        <time>2020-02-28T11:27:30Z</time>
      </trkpt>
      <trkpt lat="46.71543" lon="5.7093">
        <ele>550.2</ele>
        <time>2020-02-28T11:27:31Z</time>
      </trkpt>
      <trkpt lat="46.71541" lon="5.70926">
        <ele>550.4</ele>
        <time>2020-02-28T11:27:32Z</time>
      </trkpt>
      <trkpt lat="46.71539" lon="5.70922">
        <ele>550.6</ele>
        <time>2020-02-28T11:27:33Z</time>
      </trkpt>
      <trkpt lat="46.71537" lon="5.70918">
        <ele>550.6</ele>
        <time>2020-02-28T11:27:34Z</time>
      </trkpt>
      <trkpt lat="46.71535" lon="5.70914">
        <ele>551</ele>
        <time>2020-02-28T11:27:35Z</time>
      </trkpt>
      <trkpt lat="46.71534" lon="5.7091">
        <ele>551</ele>
        <time>2020-02-28T11:27:36Z</time>
      </trkpt>
      <trkpt lat="46.71532" lon="5.70905">
        <ele>551.4</ele>
        <time>2020-02-28T11:27:37Z</time>
      </trkpt>
      <trkpt lat="46.71531" lon="5.709">
        <ele>551.4</ele>
        <time>2020-02-28T11:27:38Z</time>
      </trkpt>
      <trkpt lat="46.71529" lon="5.70895">
        <ele>551.6</ele>
        <time>2020-02-28T11:27:39Z</time>
      </trkpt>
      <trkpt lat="46.71527" lon="5.7089">
        <ele>551.6</ele>
        <time>2020-02-28T11:27:40Z</time>
      </trkpt>
      <trkpt lat="46.71525" lon="5.70886">
        <ele>551.8</ele>
        <time>2020-02-28T11:27:41Z</time>
      </trkpt>
      <trkpt lat="46.71523" lon="5.70881">
        <ele>551.8</ele>
        <time>2020-02-28T11:27:42Z</time>
      </trkpt>
      <trkpt lat="46.71521" lon="5.70878">
        <ele>552.2</ele>
        <time>2020-02-28T11:27:43Z</time>
      </trkpt>
      <trkpt lat="46.71518" lon="5.70875">
        <ele>552.2</ele>
        <time>2020-02-28T11:27:44Z</time>
      </trkpt>
      <trkpt lat="46.71516" lon="5.70872">
        <ele>552.4</ele>
        <time>2020-02-28T11:27:45Z</time>
      </trkpt>
      <trkpt lat="46.71513" lon="5.7087">
        <ele>552.4</ele>
        <time>2020-02-28T11:27:46Z</time>
      </trkpt>
      <trkpt lat="46.71511" lon="5.70868">
        <ele>552.8</ele>
        <time>2020-02-28T11:27:47Z</time>
      </trkpt>
      <trkpt lat="46.71509" lon="5.70866">
        <ele>552.8</ele>
        <time>2020-02-28T11:27:48Z</time>
      </trkpt>
      <trkpt lat="46.71508" lon="5.70864">
        <ele>553</ele>
        <time>2020-02-28T11:27:49Z</time>
      </trkpt>
      <trkpt lat="46.71506" lon="5.70862">
        <ele>553</ele>
        <time>2020-02-28T11:27:50Z</time>
      </trkpt>
      <trkpt lat="46.71503" lon="5.70861">
        <ele>553.2</ele>
        <time>2020-02-28T11:27:51Z</time>
      </trkpt>
      <trkpt lat="46.71501" lon="5.70859">
        <ele>553.2</ele>
        <time>2020-02-28T11:27:52Z</time>
      </trkpt>
      <trkpt lat="46.71499" lon="5.70857">
        <ele>553.2</ele>
        <time>2020-02-28T11:27:53Z</time>
      </trkpt>
      <trkpt lat="46.71496" lon="5.70855">
        <ele>553.6</ele>
        <time>2020-02-28T11:27:54Z</time>
      </trkpt>
      <trkpt lat="46.71493" lon="5.70852">
        <ele>553.6</ele>
        <time>2020-02-28T11:27:55Z</time>
      </trkpt>
      <trkpt lat="46.71491" lon="5.7085">
        <ele>554</ele>
        <time>2020-02-28T11:27:56Z</time>
      </trkpt>
      <trkpt lat="46.71488" lon="5.70848">
        <ele>554</ele>
        <time>2020-02-28T11:27:57Z</time>
      </trkpt>
      <trkpt lat="46.71485" lon="5.70846">
        <ele>554.2</ele>
        <time>2020-02-28T11:27:58Z</time>
      </trkpt>
      <trkpt lat="46.71482" lon="5.70844">
        <ele>554.2</ele>
        <time>2020-02-28T11:27:59Z</time>
      </trkpt>
      <trkpt lat="46.7148" lon="5.70842">
        <ele>554.6</ele>
        <time>2020-02-28T11:28:00Z</time>
      </trkpt>
      <trkpt lat="46.71477" lon="5.70841">
        <ele>554.6</ele>
        <time>2020-02-28T11:28:01Z</time>
      </trkpt>
      <trkpt lat="46.71474" lon="5.70839">
        <ele>555</ele>
        <time>2020-02-28T11:28:02Z</time>
      </trkpt>
      <trkpt lat="46.71472" lon="5.70838">
        <ele>555</ele>
        <time>2020-02-28T11:28:03Z</time>
      </trkpt>
      <trkpt lat="46.71469" lon="5.70836">
        <ele>555.2</ele>
        <time>2020-02-28T11:28:04Z</time>
      </trkpt>
      <trkpt lat="46.71467" lon="5.70835">
        <ele>555.2</ele>
        <time>2020-02-28T11:28:05Z</time>
      </trkpt>
      <trkpt lat="46.71464" lon="5.70833">
        <ele>555.6</ele>
        <time>2020-02-28T11:28:06Z</time>
      </trkpt>
      <trkpt lat="46.71462" lon="5.70833">
        <ele>555.6</ele>
        <time>2020-02-28T11:28:07Z</time>
      </trkpt>
      <trkpt lat="46.71459" lon="5.70832">
        <ele>555.8</ele>
        <time>2020-02-28T11:28:08Z</time>
      </trkpt>
      <trkpt lat="46.71456" lon="5.70831">
        <ele>555.8</ele>
        <time>2020-02-28T11:28:09Z</time>
      </trkpt>
      <trkpt lat="46.71454" lon="5.70829">
        <ele>555.8</ele>
        <time>2020-02-28T11:28:10Z</time>
      </trkpt>
      <trkpt lat="46.71451" lon="5.70828">
        <ele>555.8</ele>
        <time>2020-02-28T11:28:11Z</time>
      </trkpt>
      <trkpt lat="46.71448" lon="5.70827">
        <ele>556</ele>
        <time>2020-02-28T11:28:12Z</time>
      </trkpt>
      <trkpt lat="46.71445" lon="5.70826">
        <ele>556</ele>
        <time>2020-02-28T11:28:13Z</time>
      </trkpt>
      <trkpt lat="46.71442" lon="5.70825">
        <ele>556</ele>
        <time>2020-02-28T11:28:14Z</time>
      </trkpt>
      <trkpt lat="46.71439" lon="5.70825">
        <ele>556.2</ele>
        <time>2020-02-28T11:28:15Z</time>
      </trkpt>
      <trkpt lat="46.71437" lon="5.70825">
        <ele>556.2</ele>
        <time>2020-02-28T11:28:16Z</time>
      </trkpt>
      <trkpt lat="46.71434" lon="5.70825">
        <ele>556.2</ele>
        <time>2020-02-28T11:28:17Z</time>
      </trkpt>
      <trkpt lat="46.71431" lon="5.70825">
        <ele>556.2</ele>
        <time>2020-02-28T11:28:18Z</time>
      </trkpt>
      <trkpt lat="46.71428" lon="5.70825">
        <ele>556.4</ele>
        <time>2020-02-28T11:28:19Z</time>
      </trkpt>
      <trkpt lat="46.71425" lon="5.70825">
        <ele>556.4</ele>
        <time>2020-02-28T11:28:20Z</time>
      </trkpt>
      <trkpt lat="46.71422" lon="5.70826">
        <ele>556.4</ele>
        <time>2020-02-28T11:28:21Z</time>
      </trkpt>
      <trkpt lat="46.71419" lon="5.70826">
        <ele>556.4</ele>
        <time>2020-02-28T11:28:22Z</time>
      </trkpt>
      <trkpt lat="46.71415" lon="5.70828">
        <ele>556.4</ele>
        <time>2020-02-28T11:28:23Z</time>
      </trkpt>
      <trkpt lat="46.71412" lon="5.70829">
        <ele>556.4</ele>
        <time>2020-02-28T11:28:24Z</time>
      </trkpt>
      <trkpt lat="46.71409" lon="5.70831">
        <ele>556.8</ele>
        <time>2020-02-28T11:28:25Z</time>
      </trkpt>
      <trkpt lat="46.71406" lon="5.70833">
        <ele>556.8</ele>
        <time>2020-02-28T11:28:26Z</time>
      </trkpt>
      <trkpt lat="46.71403" lon="5.70835">
        <ele>557</ele>
        <time>2020-02-28T11:28:27Z</time>
      </trkpt>
      <trkpt lat="46.714" lon="5.70837">
        <ele>557</ele>
        <time>2020-02-28T11:28:28Z</time>
      </trkpt>
      <trkpt lat="46.71398" lon="5.70839">
        <ele>557.2</ele>
        <time>2020-02-28T11:28:29Z</time>
      </trkpt>
      <trkpt lat="46.71395" lon="5.70842">
        <ele>557.2</ele>
        <time>2020-02-28T11:28:30Z</time>
      </trkpt>
      <trkpt lat="46.71393" lon="5.70844">
        <ele>557.4</ele>
        <time>2020-02-28T11:28:31Z</time>
      </trkpt>
      <trkpt lat="46.7139" lon="5.70847">
        <ele>557.6</ele>
        <time>2020-02-28T11:28:32Z</time>
      </trkpt>
      <trkpt lat="46.71388" lon="5.7085">
        <ele>557.8</ele>
        <time>2020-02-28T11:28:33Z</time>
      </trkpt>
      <trkpt lat="46.71386" lon="5.70853">
        <ele>558.2</ele>
        <time>2020-02-28T11:28:34Z</time>
      </trkpt>
      <trkpt lat="46.71383" lon="5.70857">
        <ele>558.4</ele>
        <time>2020-02-28T11:28:35Z</time>
      </trkpt>
      <trkpt lat="46.71381" lon="5.7086">
        <ele>558.6</ele>
        <time>2020-02-28T11:28:36Z</time>
      </trkpt>
      <trkpt lat="46.71379" lon="5.70863">
        <ele>558.6</ele>
        <time>2020-02-28T11:28:37Z</time>
      </trkpt>
      <trkpt lat="46.71377" lon="5.70866">
        <ele>559</ele>
        <time>2020-02-28T11:28:38Z</time>
      </trkpt>
      <trkpt lat="46.71376" lon="5.7087">
        <ele>559.4</ele>
        <time>2020-02-28T11:28:39Z</time>
      </trkpt>
      <trkpt lat="46.71374" lon="5.70873">
        <ele>559.6</ele>
        <time>2020-02-28T11:28:40Z</time>
      </trkpt>
      <trkpt lat="46.71373" lon="5.70877">
        <ele>559.8</ele>
        <time>2020-02-28T11:28:41Z</time>
      </trkpt>
      <trkpt lat="46.71371" lon="5.70881">
        <ele>559.8</ele>
        <time>2020-02-28T11:28:42Z</time>
      </trkpt>
      <trkpt lat="46.71369" lon="5.70885">
        <ele>560.2</ele>
        <time>2020-02-28T11:28:43Z</time>
      </trkpt>
      <trkpt lat="46.71368" lon="5.70888">
        <ele>560.4</ele>
        <time>2020-02-28T11:28:44Z</time>
      </trkpt>
      <trkpt lat="46.71367" lon="5.70892">
        <ele>560.4</ele>
        <time>2020-02-28T11:28:45Z</time>
      </trkpt>
      <trkpt lat="46.71366" lon="5.70896">
        <ele>560.6</ele>
        <time>2020-02-28T11:28:46Z</time>
      </trkpt>
      <trkpt lat="46.71366" lon="5.709">
        <ele>560.6</ele>
        <time>2020-02-28T11:28:47Z</time>
      </trkpt>
      <trkpt lat="46.71365" lon="5.70904">
        <ele>561</ele>
        <time>2020-02-28T11:28:48Z</time>
      </trkpt>
      <trkpt lat="46.71364" lon="5.70908">
        <ele>561</ele>
        <time>2020-02-28T11:28:49Z</time>
      </trkpt>
      <trkpt lat="46.71363" lon="5.70912">
        <ele>561.2</ele>
        <time>2020-02-28T11:28:50Z</time>
      </trkpt>
      <trkpt lat="46.71363" lon="5.70916">
        <ele>561.2</ele>
        <time>2020-02-28T11:28:51Z</time>
      </trkpt>
      <trkpt lat="46.71362" lon="5.7092">
        <ele>561.2</ele>
        <time>2020-02-28T11:28:52Z</time>
      </trkpt>
      <trkpt lat="46.71362" lon="5.70924">
        <ele>561.6</ele>
        <time>2020-02-28T11:28:53Z</time>
      </trkpt>
      <trkpt lat="46.71361" lon="5.70929">
        <ele>561.6</ele>
        <time>2020-02-28T11:28:54Z</time>
      </trkpt>
      <trkpt lat="46.7136" lon="5.70933">
        <ele>561.8</ele>
        <time>2020-02-28T11:28:55Z</time>
      </trkpt>
      <trkpt lat="46.71359" lon="5.70937">
        <ele>561.8</ele>
        <time>2020-02-28T11:28:56Z</time>
      </trkpt>
      <trkpt lat="46.71358" lon="5.70941">
        <ele>562</ele>
        <time>2020-02-28T11:28:57Z</time>
      </trkpt>
      <trkpt lat="46.71358" lon="5.70946">
        <ele>562</ele>
        <time>2020-02-28T11:28:58Z</time>
      </trkpt>
      <trkpt lat="46.71357" lon="5.70951">
        <ele>562</ele>
        <time>2020-02-28T11:28:59Z</time>
      </trkpt>
      <trkpt lat="46.71355" lon="5.70956">
        <ele>562</ele>
        <time>2020-02-28T11:29:00Z</time>
      </trkpt>
      <trkpt lat="46.71354" lon="5.70961">
        <ele>562</ele>
        <time>2020-02-28T11:29:01Z</time>
      </trkpt>
      <trkpt lat="46.71353" lon="5.70966">
        <ele>562</ele>
        <time>2020-02-28T11:29:02Z</time>
      </trkpt>
      <trkpt lat="46.71351" lon="5.70972">
        <ele>561.8</ele>
        <time>2020-02-28T11:29:03Z</time>
      </trkpt>
      <trkpt lat="46.7135" lon="5.70979">
        <ele>561.8</ele>
        <time>2020-02-28T11:29:04Z</time>
      </trkpt>
      <trkpt lat="46.71348" lon="5.70985">
        <ele>561.8</ele>
        <time>2020-02-28T11:29:05Z</time>
      </trkpt>
      <trkpt lat="46.71346" lon="5.70991">
        <ele>561.4</ele>
        <time>2020-02-28T11:29:06Z</time>
      </trkpt>
      <trkpt lat="46.71344" lon="5.70997">
        <ele>561.2</ele>
        <time>2020-02-28T11:29:07Z</time>
      </trkpt>
      <trkpt lat="46.71342" lon="5.71004">
        <ele>561.2</ele>
        <time>2020-02-28T11:29:08Z</time>
      </trkpt>
      <trkpt lat="46.71339" lon="5.71011">
        <ele>560.8</ele>
        <time>2020-02-28T11:29:09Z</time>
      </trkpt>
      <trkpt lat="46.71336" lon="5.71019">
        <ele>560.8</ele>
        <time>2020-02-28T11:29:10Z</time>
      </trkpt>
      <trkpt lat="46.71333" lon="5.71027">
        <ele>560.4</ele>
        <time>2020-02-28T11:29:11Z</time>
      </trkpt>
      <trkpt lat="46.7133" lon="5.71036">
        <ele>560.4</ele>
        <time>2020-02-28T11:29:12Z</time>
      </trkpt>
      <trkpt lat="46.71327" lon="5.71045">
        <ele>560.2</ele>
        <time>2020-02-28T11:29:13Z</time>
      </trkpt>
      <trkpt lat="46.71324" lon="5.71056">
        <ele>560</ele>
        <time>2020-02-28T11:29:14Z</time>
      </trkpt>
      <trkpt lat="46.71321" lon="5.71066">
        <ele>559.6</ele>
        <time>2020-02-28T11:29:15Z</time>
      </trkpt>
      <trkpt lat="46.71319" lon="5.71077">
        <ele>559.6</ele>
        <time>2020-02-28T11:29:16Z</time>
      </trkpt>
      <trkpt lat="46.71316" lon="5.71089">
        <ele>559.4</ele>
        <time>2020-02-28T11:29:17Z</time>
      </trkpt>
      <trkpt lat="46.71314" lon="5.711">
        <ele>559.4</ele>
        <time>2020-02-28T11:29:18Z</time>
      </trkpt>
      <trkpt lat="46.71312" lon="5.71111">
        <ele>559</ele>
        <time>2020-02-28T11:29:19Z</time>
      </trkpt>
      <trkpt lat="46.71309" lon="5.71121">
        <ele>559</ele>
        <time>2020-02-28T11:29:20Z</time>
      </trkpt>
      <trkpt lat="46.71306" lon="5.71132">
        <ele>558.6</ele>
        <time>2020-02-28T11:29:21Z</time>
      </trkpt>
      <trkpt lat="46.71304" lon="5.71143">
        <ele>558.6</ele>
        <time>2020-02-28T11:29:22Z</time>
      </trkpt>
      <trkpt lat="46.71301" lon="5.71153">
        <ele>558.6</ele>
        <time>2020-02-28T11:29:23Z</time>
      </trkpt>
      <trkpt lat="46.71298" lon="5.71163">
        <ele>558.4</ele>
        <time>2020-02-28T11:29:24Z</time>
      </trkpt>
      <trkpt lat="46.71295" lon="5.71173">
        <ele>558.4</ele>
        <time>2020-02-28T11:29:25Z</time>
      </trkpt>
      <trkpt lat="46.71292" lon="5.71182">
        <ele>558.4</ele>
        <time>2020-02-28T11:29:26Z</time>
      </trkpt>
      <trkpt lat="46.7129" lon="5.71191">
        <ele>558.4</ele>
        <time>2020-02-28T11:29:27Z</time>
      </trkpt>
      <trkpt lat="46.71287" lon="5.71201">
        <ele>558.4</ele>
        <time>2020-02-28T11:29:28Z</time>
      </trkpt>
      <trkpt lat="46.71283" lon="5.71209">
        <ele>558.4</ele>
        <time>2020-02-28T11:29:29Z</time>
      </trkpt>
      <trkpt lat="46.7128" lon="5.71218">
        <ele>558.4</ele>
        <time>2020-02-28T11:29:30Z</time>
      </trkpt>
      <trkpt lat="46.71277" lon="5.71227">
        <ele>558.4</ele>
        <time>2020-02-28T11:29:31Z</time>
      </trkpt>
      <trkpt lat="46.71274" lon="5.71235">
        <ele>558.4</ele>
        <time>2020-02-28T11:29:32Z</time>
      </trkpt>
      <trkpt lat="46.7127" lon="5.71243">
        <ele>558.4</ele>
        <time>2020-02-28T11:29:33Z</time>
      </trkpt>
      <trkpt lat="46.71267" lon="5.71251">
        <ele>558.4</ele>
        <time>2020-02-28T11:29:34Z</time>
      </trkpt>
      <trkpt lat="46.71264" lon="5.71259">
        <ele>558.4</ele>
        <time>2020-02-28T11:29:35Z</time>
      </trkpt>
      <trkpt lat="46.7126" lon="5.71266">
        <ele>558.4</ele>
        <time>2020-02-28T11:29:36Z</time>
      </trkpt>
      <trkpt lat="46.71257" lon="5.71273">
        <ele>558.4</ele>
        <time>2020-02-28T11:29:37Z</time>
      </trkpt>
      <trkpt lat="46.71254" lon="5.7128">
        <ele>558.4</ele>
        <time>2020-02-28T11:29:38Z</time>
      </trkpt>
      <trkpt lat="46.7125" lon="5.71285">
        <ele>558.6</ele>
        <time>2020-02-28T11:29:39Z</time>
      </trkpt>
      <trkpt lat="46.71247" lon="5.71291">
        <ele>558.6</ele>
        <time>2020-02-28T11:29:40Z</time>
      </trkpt>
      <trkpt lat="46.71243" lon="5.71296">
        <ele>559</ele>
        <time>2020-02-28T11:29:41Z</time>
      </trkpt>
      <trkpt lat="46.7124" lon="5.713">
        <ele>559</ele>
        <time>2020-02-28T11:29:42Z</time>
      </trkpt>
      <trkpt lat="46.71238" lon="5.71304">
        <ele>559.2</ele>
        <time>2020-02-28T11:29:43Z</time>
      </trkpt>
      <trkpt lat="46.71235" lon="5.71307">
        <ele>559.6</ele>
        <time>2020-02-28T11:29:44Z</time>
      </trkpt>
      <trkpt lat="46.71232" lon="5.7131">
        <ele>559.8</ele>
        <time>2020-02-28T11:29:45Z</time>
      </trkpt>
      <trkpt lat="46.7123" lon="5.71314">
        <ele>560.2</ele>
        <time>2020-02-28T11:29:46Z</time>
      </trkpt>
      <trkpt lat="46.71227" lon="5.71316">
        <ele>560.4</ele>
        <time>2020-02-28T11:29:47Z</time>
      </trkpt>
      <trkpt lat="46.71224" lon="5.71319">
        <ele>560.4</ele>
        <time>2020-02-28T11:29:48Z</time>
      </trkpt>
      <trkpt lat="46.71221" lon="5.71321">
        <ele>560.8</ele>
        <time>2020-02-28T11:29:49Z</time>
      </trkpt>
      <trkpt lat="46.71217" lon="5.71323">
        <ele>560.8</ele>
        <time>2020-02-28T11:29:50Z</time>
      </trkpt>
      <trkpt lat="46.71214" lon="5.71324">
        <ele>561.2</ele>
        <time>2020-02-28T11:29:51Z</time>
      </trkpt>
      <trkpt lat="46.7121" lon="5.71326">
        <ele>561.2</ele>
        <time>2020-02-28T11:29:52Z</time>
      </trkpt>
      <trkpt lat="46.71206" lon="5.71327">
        <ele>561.4</ele>
        <time>2020-02-28T11:29:53Z</time>
      </trkpt>
      <trkpt lat="46.71203" lon="5.71329">
        <ele>561.4</ele>
        <time>2020-02-28T11:29:54Z</time>
      </trkpt>
      <trkpt lat="46.71199" lon="5.71329">
        <ele>561.6</ele>
        <time>2020-02-28T11:29:55Z</time>
      </trkpt>
      <trkpt lat="46.71195" lon="5.7133">
        <ele>561.6</ele>
        <time>2020-02-28T11:29:56Z</time>
      </trkpt>
      <trkpt lat="46.71191" lon="5.71331">
        <ele>561.6</ele>
        <time>2020-02-28T11:29:57Z</time>
      </trkpt>
      <trkpt lat="46.71187" lon="5.71333">
        <ele>561.6</ele>
        <time>2020-02-28T11:29:58Z</time>
      </trkpt>
      <trkpt lat="46.71182" lon="5.71334">
        <ele>561.6</ele>
        <time>2020-02-28T11:29:59Z</time>
      </trkpt>
      <trkpt lat="46.71178" lon="5.71337">
        <ele>561.6</ele>
        <time>2020-02-28T11:30:00Z</time>
      </trkpt>
      <trkpt lat="46.71173" lon="5.71339">
        <ele>561.6</ele>
        <time>2020-02-28T11:30:01Z</time>
      </trkpt>
      <trkpt lat="46.71168" lon="5.7134">
        <ele>561.6</ele>
        <time>2020-02-28T11:30:02Z</time>
      </trkpt>
      <trkpt lat="46.71163" lon="5.71342">
        <ele>561.4</ele>
        <time>2020-02-28T11:30:03Z</time>
      </trkpt>
      <trkpt lat="46.71158" lon="5.71343">
        <ele>561.4</ele>
        <time>2020-02-28T11:30:04Z</time>
      </trkpt>
      <trkpt lat="46.71153" lon="5.71345">
        <ele>561.4</ele>
        <time>2020-02-28T11:30:05Z</time>
      </trkpt>
      <trkpt lat="46.71148" lon="5.71347">
        <ele>561.4</ele>
        <time>2020-02-28T11:30:06Z</time>
      </trkpt>
      <trkpt lat="46.71142" lon="5.7135">
        <ele>561.4</ele>
        <time>2020-02-28T11:30:07Z</time>
      </trkpt>
      <trkpt lat="46.71138" lon="5.71352">
        <ele>561.4</ele>
        <time>2020-02-28T11:30:08Z</time>
      </trkpt>
      <trkpt lat="46.71133" lon="5.71355">
        <ele>561.4</ele>
        <time>2020-02-28T11:30:09Z</time>
      </trkpt>
      <trkpt lat="46.71129" lon="5.71358">
        <ele>561.8</ele>
        <time>2020-02-28T11:30:10Z</time>
      </trkpt>
      <trkpt lat="46.71125" lon="5.71361">
        <ele>561.8</ele>
        <time>2020-02-28T11:30:11Z</time>
      </trkpt>
      <trkpt lat="46.71122" lon="5.71364">
        <ele>562.2</ele>
        <time>2020-02-28T11:30:12Z</time>
      </trkpt>
      <trkpt lat="46.71119" lon="5.71368">
        <ele>562.4</ele>
        <time>2020-02-28T11:30:13Z</time>
      </trkpt>
      <trkpt lat="46.71117" lon="5.71373">
        <ele>562.4</ele>
        <time>2020-02-28T11:30:14Z</time>
      </trkpt>
      <trkpt lat="46.71114" lon="5.71377">
        <ele>562.6</ele>
        <time>2020-02-28T11:30:15Z</time>
      </trkpt>
      <trkpt lat="46.71112" lon="5.71381">
        <ele>562.6</ele>
        <time>2020-02-28T11:30:16Z</time>
      </trkpt>
      <trkpt lat="46.7111" lon="5.71385">
        <ele>563</ele>
        <time>2020-02-28T11:30:17Z</time>
      </trkpt>
      <trkpt lat="46.71107" lon="5.71389">
        <ele>563</ele>
        <time>2020-02-28T11:30:18Z</time>
      </trkpt>
      <trkpt lat="46.71105" lon="5.71393">
        <ele>563.4</ele>
        <time>2020-02-28T11:30:19Z</time>
      </trkpt>
      <trkpt lat="46.71103" lon="5.71397">
        <ele>563.4</ele>
        <time>2020-02-28T11:30:20Z</time>
      </trkpt>
      <trkpt lat="46.71102" lon="5.714">
        <ele>563.8</ele>
        <time>2020-02-28T11:30:21Z</time>
      </trkpt>
      <trkpt lat="46.711" lon="5.71404">
        <ele>563.8</ele>
        <time>2020-02-28T11:30:22Z</time>
      </trkpt>
      <trkpt lat="46.71098" lon="5.71408">
        <ele>564</ele>
        <time>2020-02-28T11:30:23Z</time>
      </trkpt>
      <trkpt lat="46.71097" lon="5.71412">
        <ele>564</ele>
        <time>2020-02-28T11:30:24Z</time>
      </trkpt>
      <trkpt lat="46.71095" lon="5.71416">
        <ele>564.4</ele>
        <time>2020-02-28T11:30:25Z</time>
      </trkpt>
      <trkpt lat="46.71094" lon="5.7142">
        <ele>564.6</ele>
        <time>2020-02-28T11:30:26Z</time>
      </trkpt>
      <trkpt lat="46.71092" lon="5.71424">
        <ele>564.8</ele>
        <time>2020-02-28T11:30:27Z</time>
      </trkpt>
      <trkpt lat="46.71091" lon="5.71429">
        <ele>565.2</ele>
        <time>2020-02-28T11:30:28Z</time>
      </trkpt>
      <trkpt lat="46.71089" lon="5.71433">
        <ele>565.2</ele>
        <time>2020-02-28T11:30:29Z</time>
      </trkpt>
      <trkpt lat="46.71088" lon="5.71437">
        <ele>565.6</ele>
        <time>2020-02-28T11:30:30Z</time>
      </trkpt>
      <trkpt lat="46.71087" lon="5.71441">
        <ele>565.8</ele>
        <time>2020-02-28T11:30:31Z</time>
      </trkpt>
      <trkpt lat="46.71085" lon="5.71445">
        <ele>566</ele>
        <time>2020-02-28T11:30:32Z</time>
      </trkpt>
      <trkpt lat="46.71084" lon="5.71449">
        <ele>566.2</ele>
        <time>2020-02-28T11:30:33Z</time>
      </trkpt>
      <trkpt lat="46.71083" lon="5.71453">
        <ele>566.6</ele>
        <time>2020-02-28T11:30:34Z</time>
      </trkpt>
      <trkpt lat="46.71081" lon="5.71456">
        <ele>566.8</ele>
        <time>2020-02-28T11:30:35Z</time>
      </trkpt>
      <trkpt lat="46.71079" lon="5.71459">
        <ele>566.8</ele>
        <time>2020-02-28T11:30:36Z</time>
      </trkpt>
      <trkpt lat="46.71077" lon="5.71462">
        <ele>567.2</ele>
        <time>2020-02-28T11:30:37Z</time>
      </trkpt>
      <trkpt lat="46.71075" lon="5.71465">
        <ele>567.6</ele>
        <time>2020-02-28T11:30:38Z</time>
      </trkpt>
      <trkpt lat="46.71073" lon="5.71468">
        <ele>567.6</ele>
        <time>2020-02-28T11:30:39Z</time>
      </trkpt>
      <trkpt lat="46.71071" lon="5.71471">
        <ele>567.8</ele>
        <time>2020-02-28T11:30:40Z</time>
      </trkpt>
      <trkpt lat="46.71069" lon="5.71474">
        <ele>567.8</ele>
        <time>2020-02-28T11:30:41Z</time>
      </trkpt>
      <trkpt lat="46.71067" lon="5.71477">
        <ele>568.2</ele>
        <time>2020-02-28T11:30:42Z</time>
      </trkpt>
      <trkpt lat="46.71064" lon="5.71479">
        <ele>568.2</ele>
        <time>2020-02-28T11:30:43Z</time>
      </trkpt>
      <trkpt lat="46.71062" lon="5.71482">
        <ele>568.6</ele>
        <time>2020-02-28T11:30:44Z</time>
      </trkpt>
      <trkpt lat="46.7106" lon="5.71484">
        <ele>568.6</ele>
        <time>2020-02-28T11:30:45Z</time>
      </trkpt>
      <trkpt lat="46.71057" lon="5.71486">
        <ele>568.8</ele>
        <time>2020-02-28T11:30:46Z</time>
      </trkpt>
      <trkpt lat="46.71054" lon="5.71488">
        <ele>568.8</ele>
        <time>2020-02-28T11:30:47Z</time>
      </trkpt>
      <trkpt lat="46.71051" lon="5.7149">
        <ele>569</ele>
        <time>2020-02-28T11:30:48Z</time>
      </trkpt>
      <trkpt lat="46.71048" lon="5.71491">
        <ele>569</ele>
        <time>2020-02-28T11:30:49Z</time>
      </trkpt>
      <trkpt lat="46.71045" lon="5.71493">
        <ele>569</ele>
        <time>2020-02-28T11:30:50Z</time>
      </trkpt>
      <trkpt lat="46.71042" lon="5.71494">
        <ele>569.4</ele>
        <time>2020-02-28T11:30:51Z</time>
      </trkpt>
      <trkpt lat="46.71039" lon="5.71495">
        <ele>569.4</ele>
        <time>2020-02-28T11:30:52Z</time>
      </trkpt>
      <trkpt lat="46.71035" lon="5.71495">
        <ele>569.6</ele>
        <time>2020-02-28T11:30:53Z</time>
      </trkpt>
      <trkpt lat="46.71032" lon="5.71496">
        <ele>569.6</ele>
        <time>2020-02-28T11:30:54Z</time>
      </trkpt>
      <trkpt lat="46.71028" lon="5.71495">
        <ele>569.6</ele>
        <time>2020-02-28T11:30:55Z</time>
      </trkpt>
      <trkpt lat="46.71025" lon="5.71495">
        <ele>569.8</ele>
        <time>2020-02-28T11:30:56Z</time>
      </trkpt>
      <trkpt lat="46.71021" lon="5.71495">
        <ele>569.8</ele>
        <time>2020-02-28T11:30:57Z</time>
      </trkpt>
      <trkpt lat="46.71018" lon="5.71495">
        <ele>569.8</ele>
        <time>2020-02-28T11:30:58Z</time>
      </trkpt>
      <trkpt lat="46.71014" lon="5.71494">
        <ele>570.2</ele>
        <time>2020-02-28T11:30:59Z</time>
      </trkpt>
      <trkpt lat="46.71011" lon="5.71493">
        <ele>570.2</ele>
        <time>2020-02-28T11:31:00Z</time>
      </trkpt>
      <trkpt lat="46.71008" lon="5.71493">
        <ele>570.2</ele>
        <time>2020-02-28T11:31:01Z</time>
      </trkpt>
      <trkpt lat="46.71005" lon="5.71492">
        <ele>570.2</ele>
        <time>2020-02-28T11:31:02Z</time>
      </trkpt>
      <trkpt lat="46.71001" lon="5.71492">
        <ele>570.4</ele>
        <time>2020-02-28T11:31:03Z</time>
      </trkpt>
      <trkpt lat="46.70998" lon="5.71491">
        <ele>570.4</ele>
        <time>2020-02-28T11:31:04Z</time>
      </trkpt>
      <trkpt lat="46.70995" lon="5.71491">
        <ele>570.4</ele>
        <time>2020-02-28T11:31:05Z</time>
      </trkpt>
      <trkpt lat="46.70991" lon="5.71492">
        <ele>570.4</ele>
        <time>2020-02-28T11:31:06Z</time>
      </trkpt>
      <trkpt lat="46.70988" lon="5.71492">
        <ele>570.6</ele>
        <time>2020-02-28T11:31:07Z</time>
      </trkpt>
      <trkpt lat="46.70984" lon="5.71493">
        <ele>570.6</ele>
        <time>2020-02-28T11:31:08Z</time>
      </trkpt>
      <trkpt lat="46.7098" lon="5.71494">
        <ele>570.6</ele>
        <time>2020-02-28T11:31:09Z</time>
      </trkpt>
      <trkpt lat="46.70977" lon="5.71495">
        <ele>570.6</ele>
        <time>2020-02-28T11:31:10Z</time>
      </trkpt>
      <trkpt lat="46.70973" lon="5.71497">
        <ele>570.6</ele>
        <time>2020-02-28T11:31:11Z</time>
      </trkpt>
      <trkpt lat="46.70969" lon="5.71499">
        <ele>570.6</ele>
        <time>2020-02-28T11:31:12Z</time>
      </trkpt>
      <trkpt lat="46.70965" lon="5.71502">
        <ele>570.6</ele>
        <time>2020-02-28T11:31:13Z</time>
      </trkpt>
      <trkpt lat="46.70962" lon="5.71504">
        <ele>570.6</ele>
        <time>2020-02-28T11:31:14Z</time>
      </trkpt>
      <trkpt lat="46.70959" lon="5.71506">
        <ele>570.6</ele>
        <time>2020-02-28T11:31:15Z</time>
      </trkpt>
      <trkpt lat="46.70956" lon="5.71509">
        <ele>570.6</ele>
        <time>2020-02-28T11:31:16Z</time>
      </trkpt>
      <trkpt lat="46.70952" lon="5.71512">
        <ele>570.6</ele>
        <time>2020-02-28T11:31:17Z</time>
      </trkpt>
      <trkpt lat="46.70949" lon="5.71514">
        <ele>570.6</ele>
        <time>2020-02-28T11:31:18Z</time>
      </trkpt>
      <trkpt lat="46.70946" lon="5.71516">
        <ele>570.6</ele>
        <time>2020-02-28T11:31:19Z</time>
      </trkpt>
      <trkpt lat="46.70943" lon="5.71518">
        <ele>570.6</ele>
        <time>2020-02-28T11:31:20Z</time>
      </trkpt>
      <trkpt lat="46.7094" lon="5.71521">
        <ele>570.8</ele>
        <time>2020-02-28T11:31:21Z</time>
      </trkpt>
      <trkpt lat="46.70938" lon="5.71524">
        <ele>570.8</ele>
        <time>2020-02-28T11:31:22Z</time>
      </trkpt>
      <trkpt lat="46.70935" lon="5.71527">
        <ele>571</ele>
        <time>2020-02-28T11:31:23Z</time>
      </trkpt>
      <trkpt lat="46.70932" lon="5.7153">
        <ele>571</ele>
        <time>2020-02-28T11:31:24Z</time>
      </trkpt>
      <trkpt lat="46.70929" lon="5.71532">
        <ele>571</ele>
        <time>2020-02-28T11:31:25Z</time>
      </trkpt>
      <trkpt lat="46.70926" lon="5.71535">
        <ele>571</ele>
        <time>2020-02-28T11:31:26Z</time>
      </trkpt>
      <trkpt lat="46.70923" lon="5.71538">
        <ele>571</ele>
        <time>2020-02-28T11:31:27Z</time>
      </trkpt>
      <trkpt lat="46.70921" lon="5.71542">
        <ele>571.2</ele>
        <time>2020-02-28T11:31:28Z</time>
      </trkpt>
      <trkpt lat="46.70919" lon="5.71546">
        <ele>571.2</ele>
        <time>2020-02-28T11:31:29Z</time>
      </trkpt>
      <trkpt lat="46.70916" lon="5.71551">
        <ele>571.2</ele>
        <time>2020-02-28T11:31:30Z</time>
      </trkpt>
      <trkpt lat="46.70913" lon="5.71556">
        <ele>571.2</ele>
        <time>2020-02-28T11:31:31Z</time>
      </trkpt>
      <trkpt lat="46.7091" lon="5.71561">
        <ele>571.2</ele>
        <time>2020-02-28T11:31:32Z</time>
      </trkpt>
      <trkpt lat="46.70907" lon="5.71567">
        <ele>571.4</ele>
        <time>2020-02-28T11:31:33Z</time>
      </trkpt>
      <trkpt lat="46.70905" lon="5.71572">
        <ele>571.4</ele>
        <time>2020-02-28T11:31:34Z</time>
      </trkpt>
      <trkpt lat="46.70902" lon="5.71577">
        <ele>571.8</ele>
        <time>2020-02-28T11:31:35Z</time>
      </trkpt>
      <trkpt lat="46.709" lon="5.71582">
        <ele>571.8</ele>
        <time>2020-02-28T11:31:36Z</time>
      </trkpt>
      <trkpt lat="46.70898" lon="5.71587">
        <ele>571.8</ele>
        <time>2020-02-28T11:31:37Z</time>
      </trkpt>
      <trkpt lat="46.70896" lon="5.71592">
        <ele>572</ele>
        <time>2020-02-28T11:31:38Z</time>
      </trkpt>
      <trkpt lat="46.70894" lon="5.71597">
        <ele>572</ele>
        <time>2020-02-28T11:31:39Z</time>
      </trkpt>
      <trkpt lat="46.70893" lon="5.71602">
        <ele>572</ele>
        <time>2020-02-28T11:31:40Z</time>
      </trkpt>
      <trkpt lat="46.70892" lon="5.71608">
        <ele>572.2</ele>
        <time>2020-02-28T11:31:41Z</time>
      </trkpt>
      <trkpt lat="46.70891" lon="5.71614">
        <ele>572.2</ele>
        <time>2020-02-28T11:31:42Z</time>
      </trkpt>
      <trkpt lat="46.7089" lon="5.71619">
        <ele>572.4</ele>
        <time>2020-02-28T11:31:43Z</time>
      </trkpt>
      <trkpt lat="46.7089" lon="5.71624">
        <ele>572.4</ele>
        <time>2020-02-28T11:31:44Z</time>
      </trkpt>
      <trkpt lat="46.70889" lon="5.71629">
        <ele>572.8</ele>
        <time>2020-02-28T11:31:45Z</time>
      </trkpt>
      <trkpt lat="46.70889" lon="5.71634">
        <ele>572.8</ele>
        <time>2020-02-28T11:31:46Z</time>
      </trkpt>
      <trkpt lat="46.70888" lon="5.71639">
        <ele>573</ele>
        <time>2020-02-28T11:31:47Z</time>
      </trkpt>
      <trkpt lat="46.70888" lon="5.71644">
        <ele>573</ele>
        <time>2020-02-28T11:31:48Z</time>
      </trkpt>
      <trkpt lat="46.70888" lon="5.71649">
        <ele>573.4</ele>
        <time>2020-02-28T11:31:49Z</time>
      </trkpt>
      <trkpt lat="46.70887" lon="5.71654">
        <ele>573.4</ele>
        <time>2020-02-28T11:31:50Z</time>
      </trkpt>
      <trkpt lat="46.70887" lon="5.71658">
        <ele>573.8</ele>
        <time>2020-02-28T11:31:51Z</time>
      </trkpt>
      <trkpt lat="46.70886" lon="5.71663">
        <ele>573.8</ele>
        <time>2020-02-28T11:31:52Z</time>
      </trkpt>
      <trkpt lat="46.70884" lon="5.71668">
        <ele>574</ele>
        <time>2020-02-28T11:31:53Z</time>
      </trkpt>
      <trkpt lat="46.70883" lon="5.71673">
        <ele>574.2</ele>
        <time>2020-02-28T11:31:54Z</time>
      </trkpt>
      <trkpt lat="46.70882" lon="5.71677">
        <ele>574.2</ele>
        <time>2020-02-28T11:31:55Z</time>
      </trkpt>
      <trkpt lat="46.7088" lon="5.71682">
        <ele>574.6</ele>
        <time>2020-02-28T11:31:56Z</time>
      </trkpt>
      <trkpt lat="46.70878" lon="5.71686">
        <ele>574.6</ele>
        <time>2020-02-28T11:31:57Z</time>
      </trkpt>
      <trkpt lat="46.70876" lon="5.71691">
        <ele>574.8</ele>
        <time>2020-02-28T11:31:58Z</time>
      </trkpt>
      <trkpt lat="46.70874" lon="5.71695">
        <ele>574.8</ele>
        <time>2020-02-28T11:31:59Z</time>
      </trkpt>
      <trkpt lat="46.70871" lon="5.71699">
        <ele>575.2</ele>
        <time>2020-02-28T11:32:00Z</time>
      </trkpt>
      <trkpt lat="46.70869" lon="5.71702">
        <ele>575.2</ele>
        <time>2020-02-28T11:32:01Z</time>
      </trkpt>
      <trkpt lat="46.70866" lon="5.71705">
        <ele>575.2</ele>
        <time>2020-02-28T11:32:02Z</time>
      </trkpt>
      <trkpt lat="46.70863" lon="5.71707">
        <ele>575.4</ele>
        <time>2020-02-28T11:32:03Z</time>
      </trkpt>
      <trkpt lat="46.7086" lon="5.7171">
        <ele>575.4</ele>
        <time>2020-02-28T11:32:04Z</time>
      </trkpt>
      <trkpt lat="46.70856" lon="5.71712">
        <ele>575.6</ele>
        <time>2020-02-28T11:32:05Z</time>
      </trkpt>
      <trkpt lat="46.70852" lon="5.71713">
        <ele>575.6</ele>
        <time>2020-02-28T11:32:06Z</time>
      </trkpt>
      <trkpt lat="46.70848" lon="5.71715">
        <ele>575.6</ele>
        <time>2020-02-28T11:32:07Z</time>
      </trkpt>
      <trkpt lat="46.70844" lon="5.71715">
        <ele>575.6</ele>
        <time>2020-02-28T11:32:08Z</time>
      </trkpt>
      <trkpt lat="46.70839" lon="5.71715">
        <ele>575.6</ele>
        <time>2020-02-28T11:32:09Z</time>
      </trkpt>
      <trkpt lat="46.70835" lon="5.71714">
        <ele>575.6</ele>
        <time>2020-02-28T11:32:10Z</time>
      </trkpt>
      <trkpt lat="46.7083" lon="5.71713">
        <ele>575.6</ele>
        <time>2020-02-28T11:32:11Z</time>
      </trkpt>
      <trkpt lat="46.70825" lon="5.71712">
        <ele>575.6</ele>
        <time>2020-02-28T11:32:12Z</time>
      </trkpt>
      <trkpt lat="46.7082" lon="5.71711">
        <ele>575.4</ele>
        <time>2020-02-28T11:32:13Z</time>
      </trkpt>
      <trkpt lat="46.70815" lon="5.71709">
        <ele>575.4</ele>
        <time>2020-02-28T11:32:14Z</time>
      </trkpt>
      <trkpt lat="46.7081" lon="5.71706">
        <ele>575.2</ele>
        <time>2020-02-28T11:32:15Z</time>
      </trkpt>
      <trkpt lat="46.70805" lon="5.71704">
        <ele>575.2</ele>
        <time>2020-02-28T11:32:16Z</time>
      </trkpt>
      <trkpt lat="46.708" lon="5.71701">
        <ele>574.8</ele>
        <time>2020-02-28T11:32:17Z</time>
      </trkpt>
      <trkpt lat="46.70795" lon="5.71698">
        <ele>574.8</ele>
        <time>2020-02-28T11:32:18Z</time>
      </trkpt>
      <trkpt lat="46.7079" lon="5.71694">
        <ele>574.8</ele>
        <time>2020-02-28T11:32:19Z</time>
      </trkpt>
      <trkpt lat="46.70785" lon="5.71691">
        <ele>574.6</ele>
        <time>2020-02-28T11:32:20Z</time>
      </trkpt>
      <trkpt lat="46.70779" lon="5.71688">
        <ele>574.6</ele>
        <time>2020-02-28T11:32:21Z</time>
      </trkpt>
      <trkpt lat="46.70774" lon="5.71685">
        <ele>574.6</ele>
        <time>2020-02-28T11:32:22Z</time>
      </trkpt>
      <trkpt lat="46.70769" lon="5.71682">
        <ele>574.6</ele>
        <time>2020-02-28T11:32:23Z</time>
      </trkpt>
      <trkpt lat="46.70764" lon="5.7168">
        <ele>574.4</ele>
        <time>2020-02-28T11:32:24Z</time>
      </trkpt>
      <trkpt lat="46.70758" lon="5.71678">
        <ele>574.4</ele>
        <time>2020-02-28T11:32:25Z</time>
      </trkpt>
      <trkpt lat="46.70753" lon="5.71676">
        <ele>574.2</ele>
        <time>2020-02-28T11:32:26Z</time>
      </trkpt>
      <trkpt lat="46.70747" lon="5.71675">
        <ele>574.2</ele>
        <time>2020-02-28T11:32:27Z</time>
      </trkpt>
      <trkpt lat="46.70741" lon="5.71675">
        <ele>573.8</ele>
        <time>2020-02-28T11:32:28Z</time>
      </trkpt>
      <trkpt lat="46.70735" lon="5.71675">
        <ele>573.8</ele>
        <time>2020-02-28T11:32:29Z</time>
      </trkpt>
      <trkpt lat="46.70729" lon="5.71676">
        <ele>573.6</ele>
        <time>2020-02-28T11:32:30Z</time>
      </trkpt>
      <trkpt lat="46.70723" lon="5.71677">
        <ele>573.6</ele>
        <time>2020-02-28T11:32:31Z</time>
      </trkpt>
      <trkpt lat="46.70716" lon="5.7168">
        <ele>573.2</ele>
        <time>2020-02-28T11:32:32Z</time>
      </trkpt>
      <trkpt lat="46.7071" lon="5.71683">
        <ele>573</ele>
        <time>2020-02-28T11:32:33Z</time>
      </trkpt>
      <trkpt lat="46.70703" lon="5.71687">
        <ele>572.8</ele>
        <time>2020-02-28T11:32:34Z</time>
      </trkpt>
      <trkpt lat="46.70696" lon="5.71691">
        <ele>572.6</ele>
        <time>2020-02-28T11:32:35Z</time>
      </trkpt>
      <trkpt lat="46.70689" lon="5.71695">
        <ele>572.2</ele>
        <time>2020-02-28T11:32:36Z</time>
      </trkpt>
      <trkpt lat="46.70682" lon="5.717">
        <ele>572</ele>
        <time>2020-02-28T11:32:37Z</time>
      </trkpt>
      <trkpt lat="46.70675" lon="5.71704">
        <ele>572</ele>
        <time>2020-02-28T11:32:38Z</time>
      </trkpt>
      <trkpt lat="46.70668" lon="5.71708">
        <ele>571.6</ele>
        <time>2020-02-28T11:32:39Z</time>
      </trkpt>
      <trkpt lat="46.70661" lon="5.71712">
        <ele>571.6</ele>
        <time>2020-02-28T11:32:40Z</time>
      </trkpt>
      <trkpt lat="46.70655" lon="5.71715">
        <ele>571.6</ele>
        <time>2020-02-28T11:32:41Z</time>
      </trkpt>
      <trkpt lat="46.70649" lon="5.7172">
        <ele>571.4</ele>
        <time>2020-02-28T11:32:42Z</time>
      </trkpt>
      <trkpt lat="46.70643" lon="5.71726">
        <ele>571.4</ele>
        <time>2020-02-28T11:32:43Z</time>
      </trkpt>
      <trkpt lat="46.70639" lon="5.71733">
        <ele>571</ele>
        <time>2020-02-28T11:32:44Z</time>
      </trkpt>
      <trkpt lat="46.70634" lon="5.71741">
        <ele>571</ele>
        <time>2020-02-28T11:32:45Z</time>
      </trkpt>
      <trkpt lat="46.70631" lon="5.71751">
        <ele>570.6</ele>
        <time>2020-02-28T11:32:46Z</time>
      </trkpt>
      <trkpt lat="46.70627" lon="5.7176">
        <ele>570.4</ele>
        <time>2020-02-28T11:32:47Z</time>
      </trkpt>
      <trkpt lat="46.70624" lon="5.7177">
        <ele>570</ele>
        <time>2020-02-28T11:32:48Z</time>
      </trkpt>
      <trkpt lat="46.70621" lon="5.7178">
        <ele>569.8</ele>
        <time>2020-02-28T11:32:49Z</time>
      </trkpt>
      <trkpt lat="46.70617" lon="5.7179">
        <ele>569.8</ele>
        <time>2020-02-28T11:32:50Z</time>
      </trkpt>
      <trkpt lat="46.70614" lon="5.718">
        <ele>569.8</ele>
        <time>2020-02-28T11:32:51Z</time>
      </trkpt>
      <trkpt lat="46.70611" lon="5.71809">
        <ele>569.6</ele>
        <time>2020-02-28T11:32:52Z</time>
      </trkpt>
      <trkpt lat="46.70609" lon="5.71818">
        <ele>569.4</ele>
        <time>2020-02-28T11:32:53Z</time>
      </trkpt>
      <trkpt lat="46.70606" lon="5.71826">
        <ele>569.4</ele>
        <time>2020-02-28T11:32:54Z</time>
      </trkpt>
      <trkpt lat="46.70605" lon="5.71833">
        <ele>569</ele>
        <time>2020-02-28T11:32:55Z</time>
      </trkpt>
      <trkpt lat="46.70603" lon="5.71839">
        <ele>569</ele>
        <time>2020-02-28T11:32:56Z</time>
      </trkpt>
      <trkpt lat="46.70602" lon="5.71844">
        <ele>569</ele>
        <time>2020-02-28T11:32:57Z</time>
      </trkpt>
      <trkpt lat="46.70602" lon="5.71847">
        <ele>569</ele>
        <time>2020-02-28T11:32:58Z</time>
      </trkpt>
      <trkpt lat="46.70601" lon="5.71851">
        <ele>568.8</ele>
        <time>2020-02-28T11:32:59Z</time>
      </trkpt>
      <trkpt lat="46.706" lon="5.71853">
        <ele>568.8</ele>
        <time>2020-02-28T11:33:00Z</time>
      </trkpt>
      <trkpt lat="46.706" lon="5.71854">
        <ele>568.8</ele>
        <time>2020-02-28T11:33:01Z</time>
      </trkpt>
      <trkpt lat="46.706" lon="5.71854">
        <ele>568.8</ele>
        <time>2020-02-28T11:33:02Z</time>
      </trkpt>
      <trkpt lat="46.706" lon="5.7186">
        <ele>569</ele>
        <time>2020-02-28T11:33:57Z</time>
      </trkpt>
      <trkpt lat="46.706" lon="5.71862">
        <ele>569</ele>
        <time>2020-02-28T11:33:58Z</time>
      </trkpt>
      <trkpt lat="46.70599" lon="5.71864">
        <ele>569</ele>
        <time>2020-02-28T11:33:59Z</time>
      </trkpt>
      <trkpt lat="46.70599" lon="5.71866">
        <ele>569</ele>
        <time>2020-02-28T11:34:00Z</time>
      </trkpt>
      <trkpt lat="46.70598" lon="5.71869">
        <ele>569</ele>
        <time>2020-02-28T11:34:01Z</time>
      </trkpt>
      <trkpt lat="46.70597" lon="5.71872">
        <ele>569</ele>
        <time>2020-02-28T11:34:02Z</time>
      </trkpt>
      <trkpt lat="46.70595" lon="5.71876">
        <ele>569</ele>
        <time>2020-02-28T11:34:03Z</time>
      </trkpt>
      <trkpt lat="46.70594" lon="5.71881">
        <ele>569</ele>
        <time>2020-02-28T11:34:04Z</time>
      </trkpt>
      <trkpt lat="46.70594" lon="5.71886">
        <ele>569</ele>
        <time>2020-02-28T11:34:05Z</time>
      </trkpt>
      <trkpt lat="46.70593" lon="5.71891">
        <ele>569</ele>
        <time>2020-02-28T11:34:06Z</time>
      </trkpt>
      <trkpt lat="46.70591" lon="5.71897">
        <ele>569</ele>
        <time>2020-02-28T11:34:07Z</time>
      </trkpt>
      <trkpt lat="46.70589" lon="5.71902">
        <ele>569</ele>
        <time>2020-02-28T11:34:08Z</time>
      </trkpt>
      <trkpt lat="46.70587" lon="5.71908">
        <ele>569</ele>
        <time>2020-02-28T11:34:09Z</time>
      </trkpt>
      <trkpt lat="46.70585" lon="5.71915">
        <ele>569</ele>
        <time>2020-02-28T11:34:10Z</time>
      </trkpt>
      <trkpt lat="46.70583" lon="5.71921">
        <ele>569</ele>
        <time>2020-02-28T11:34:11Z</time>
      </trkpt>
      <trkpt lat="46.7058" lon="5.71927">
        <ele>569</ele>
        <time>2020-02-28T11:34:12Z</time>
      </trkpt>
      <trkpt lat="46.70578" lon="5.71934">
        <ele>569</ele>
        <time>2020-02-28T11:34:13Z</time>
      </trkpt>
      <trkpt lat="46.70575" lon="5.7194">
        <ele>569</ele>
        <time>2020-02-28T11:34:14Z</time>
      </trkpt>
      <trkpt lat="46.70572" lon="5.71946">
        <ele>569</ele>
        <time>2020-02-28T11:34:15Z</time>
      </trkpt>
      <trkpt lat="46.70568" lon="5.71953">
        <ele>569</ele>
        <time>2020-02-28T11:34:16Z</time>
      </trkpt>
      <trkpt lat="46.70565" lon="5.7196">
        <ele>569</ele>
        <time>2020-02-28T11:34:17Z</time>
      </trkpt>
      <trkpt lat="46.70561" lon="5.71967">
        <ele>569</ele>
        <time>2020-02-28T11:34:18Z</time>
      </trkpt>
      <trkpt lat="46.70557" lon="5.71974">
        <ele>568.8</ele>
        <time>2020-02-28T11:34:19Z</time>
      </trkpt>
      <trkpt lat="46.70553" lon="5.71981">
        <ele>568.8</ele>
        <time>2020-02-28T11:34:20Z</time>
      </trkpt>
      <trkpt lat="46.70548" lon="5.71988">
        <ele>568.8</ele>
        <time>2020-02-28T11:34:21Z</time>
      </trkpt>
      <trkpt lat="46.70544" lon="5.71994">
        <ele>568.4</ele>
        <time>2020-02-28T11:34:22Z</time>
      </trkpt>
      <trkpt lat="46.70539" lon="5.72">
        <ele>568.4</ele>
        <time>2020-02-28T11:34:23Z</time>
      </trkpt>
      <trkpt lat="46.70535" lon="5.72006">
        <ele>568.4</ele>
        <time>2020-02-28T11:34:24Z</time>
      </trkpt>
      <trkpt lat="46.70531" lon="5.72011">
        <ele>568.4</ele>
        <time>2020-02-28T11:34:25Z</time>
      </trkpt>
      <trkpt lat="46.70527" lon="5.72015">
        <ele>568.8</ele>
        <time>2020-02-28T11:34:26Z</time>
      </trkpt>
      <trkpt lat="46.70523" lon="5.7202">
        <ele>568.8</ele>
        <time>2020-02-28T11:34:27Z</time>
      </trkpt>
      <trkpt lat="46.7052" lon="5.72024">
        <ele>569</ele>
        <time>2020-02-28T11:34:28Z</time>
      </trkpt>
      <trkpt lat="46.70516" lon="5.72028">
        <ele>569</ele>
        <time>2020-02-28T11:34:29Z</time>
      </trkpt>
      <trkpt lat="46.70513" lon="5.72031">
        <ele>569.4</ele>
        <time>2020-02-28T11:34:30Z</time>
      </trkpt>
      <trkpt lat="46.7051" lon="5.72035">
        <ele>569.6</ele>
        <time>2020-02-28T11:34:31Z</time>
      </trkpt>
      <trkpt lat="46.70507" lon="5.72038">
        <ele>569.6</ele>
        <time>2020-02-28T11:34:32Z</time>
      </trkpt>
      <trkpt lat="46.70503" lon="5.72042">
        <ele>569.8</ele>
        <time>2020-02-28T11:34:33Z</time>
      </trkpt>
      <trkpt lat="46.705" lon="5.72045">
        <ele>570.2</ele>
        <time>2020-02-28T11:34:34Z</time>
      </trkpt>
      <trkpt lat="46.70497" lon="5.72047">
        <ele>570.4</ele>
        <time>2020-02-28T11:34:35Z</time>
      </trkpt>
      <trkpt lat="46.70493" lon="5.7205">
        <ele>570.4</ele>
        <time>2020-02-28T11:34:36Z</time>
      </trkpt>
      <trkpt lat="46.7049" lon="5.72053">
        <ele>570.8</ele>
        <time>2020-02-28T11:34:37Z</time>
      </trkpt>
      <trkpt lat="46.70487" lon="5.72055">
        <ele>571</ele>
        <time>2020-02-28T11:34:38Z</time>
      </trkpt>
      <trkpt lat="46.70484" lon="5.72058">
        <ele>571.4</ele>
        <time>2020-02-28T11:34:39Z</time>
      </trkpt>
      <trkpt lat="46.70481" lon="5.72061">
        <ele>571.6</ele>
        <time>2020-02-28T11:34:40Z</time>
      </trkpt>
      <trkpt lat="46.70478" lon="5.72063">
        <ele>571.8</ele>
        <time>2020-02-28T11:34:41Z</time>
      </trkpt>
      <trkpt lat="46.70475" lon="5.72066">
        <ele>572.2</ele>
        <time>2020-02-28T11:34:42Z</time>
      </trkpt>
      <trkpt lat="46.70472" lon="5.72068">
        <ele>572.6</ele>
        <time>2020-02-28T11:34:43Z</time>
      </trkpt>
      <trkpt lat="46.70469" lon="5.72071">
        <ele>573</ele>
        <time>2020-02-28T11:34:44Z</time>
      </trkpt>
      <trkpt lat="46.70466" lon="5.72074">
        <ele>573.2</ele>
        <time>2020-02-28T11:34:45Z</time>
      </trkpt>
      <trkpt lat="46.70463" lon="5.72076">
        <ele>573.4</ele>
        <time>2020-02-28T11:34:46Z</time>
      </trkpt>
      <trkpt lat="46.70461" lon="5.72078">
        <ele>573.6</ele>
        <time>2020-02-28T11:34:47Z</time>
      </trkpt>
      <trkpt lat="46.70458" lon="5.7208">
        <ele>573.6</ele>
        <time>2020-02-28T11:34:48Z</time>
      </trkpt>
      <trkpt lat="46.70456" lon="5.72082">
        <ele>574</ele>
        <time>2020-02-28T11:34:49Z</time>
      </trkpt>
      <trkpt lat="46.70453" lon="5.72085">
        <ele>574</ele>
        <time>2020-02-28T11:34:50Z</time>
      </trkpt>
      <trkpt lat="46.70451" lon="5.72088">
        <ele>574.4</ele>
        <time>2020-02-28T11:34:51Z</time>
      </trkpt>
      <trkpt lat="46.70448" lon="5.72091">
        <ele>574.6</ele>
        <time>2020-02-28T11:34:52Z</time>
      </trkpt>
      <trkpt lat="46.70446" lon="5.72094">
        <ele>574.6</ele>
        <time>2020-02-28T11:34:53Z</time>
      </trkpt>
      <trkpt lat="46.70443" lon="5.72097">
        <ele>574.6</ele>
        <time>2020-02-28T11:34:54Z</time>
      </trkpt>
      <trkpt lat="46.70441" lon="5.72101">
        <ele>574.6</ele>
        <time>2020-02-28T11:34:55Z</time>
      </trkpt>
      <trkpt lat="46.70439" lon="5.72105">
        <ele>574.6</ele>
        <time>2020-02-28T11:34:56Z</time>
      </trkpt>
      <trkpt lat="46.70436" lon="5.72109">
        <ele>574.6</ele>
        <time>2020-02-28T11:34:57Z</time>
      </trkpt>
      <trkpt lat="46.70433" lon="5.72113">
        <ele>574.6</ele>
        <time>2020-02-28T11:34:58Z</time>
      </trkpt>
      <trkpt lat="46.7043" lon="5.72117">
        <ele>574.6</ele>
        <time>2020-02-28T11:34:59Z</time>
      </trkpt>
      <trkpt lat="46.70428" lon="5.72121">
        <ele>574.6</ele>
        <time>2020-02-28T11:35:00Z</time>
      </trkpt>
      <trkpt lat="46.70425" lon="5.72126">
        <ele>574.6</ele>
        <time>2020-02-28T11:35:01Z</time>
      </trkpt>
      <trkpt lat="46.70422" lon="5.72131">
        <ele>574.6</ele>
        <time>2020-02-28T11:35:02Z</time>
      </trkpt>
      <trkpt lat="46.70419" lon="5.72135">
        <ele>574.6</ele>
        <time>2020-02-28T11:35:03Z</time>
      </trkpt>
      <trkpt lat="46.70416" lon="5.72139">
        <ele>574.6</ele>
        <time>2020-02-28T11:35:04Z</time>
      </trkpt>
      <trkpt lat="46.70413" lon="5.72143">
        <ele>574.8</ele>
        <time>2020-02-28T11:35:05Z</time>
      </trkpt>
      <trkpt lat="46.70411" lon="5.72146">
        <ele>574.8</ele>
        <time>2020-02-28T11:35:06Z</time>
      </trkpt>
      <trkpt lat="46.70409" lon="5.7215">
        <ele>575</ele>
        <time>2020-02-28T11:35:07Z</time>
      </trkpt>
      <trkpt lat="46.70406" lon="5.72153">
        <ele>575</ele>
        <time>2020-02-28T11:35:08Z</time>
      </trkpt>
      <trkpt lat="46.70404" lon="5.72156">
        <ele>575</ele>
        <time>2020-02-28T11:35:09Z</time>
      </trkpt>
      <trkpt lat="46.70402" lon="5.72159">
        <ele>575.4</ele>
        <time>2020-02-28T11:35:10Z</time>
      </trkpt>
      <trkpt lat="46.704" lon="5.72162">
        <ele>575.4</ele>
        <time>2020-02-28T11:35:11Z</time>
      </trkpt>
      <trkpt lat="46.70398" lon="5.72165">
        <ele>575.6</ele>
        <time>2020-02-28T11:35:12Z</time>
      </trkpt>
      <trkpt lat="46.70396" lon="5.72168">
        <ele>575.6</ele>
        <time>2020-02-28T11:35:13Z</time>
      </trkpt>
      <trkpt lat="46.70394" lon="5.72171">
        <ele>576</ele>
        <time>2020-02-28T11:35:14Z</time>
      </trkpt>
      <trkpt lat="46.70393" lon="5.72174">
        <ele>576</ele>
        <time>2020-02-28T11:35:15Z</time>
      </trkpt>
      <trkpt lat="46.70391" lon="5.72177">
        <ele>576.4</ele>
        <time>2020-02-28T11:35:16Z</time>
      </trkpt>
      <trkpt lat="46.70389" lon="5.7218">
        <ele>576.4</ele>
        <time>2020-02-28T11:35:17Z</time>
      </trkpt>
      <trkpt lat="46.70387" lon="5.72182">
        <ele>576.6</ele>
        <time>2020-02-28T11:35:18Z</time>
      </trkpt>
      <trkpt lat="46.70384" lon="5.72185">
        <ele>576.6</ele>
        <time>2020-02-28T11:35:19Z</time>
      </trkpt>
      <trkpt lat="46.70382" lon="5.72187">
        <ele>576.6</ele>
        <time>2020-02-28T11:35:20Z</time>
      </trkpt>
      <trkpt lat="46.7038" lon="5.7219">
        <ele>576.6</ele>
        <time>2020-02-28T11:35:21Z</time>
      </trkpt>
      <trkpt lat="46.70377" lon="5.72193">
        <ele>576.6</ele>
        <time>2020-02-28T11:35:22Z</time>
      </trkpt>
      <trkpt lat="46.70375" lon="5.72195">
        <ele>576.6</ele>
        <time>2020-02-28T11:35:23Z</time>
      </trkpt>
      <trkpt lat="46.70372" lon="5.72198">
        <ele>576.6</ele>
        <time>2020-02-28T11:35:24Z</time>
      </trkpt>
      <trkpt lat="46.7037" lon="5.72202">
        <ele>576.6</ele>
        <time>2020-02-28T11:35:25Z</time>
      </trkpt>
      <trkpt lat="46.70367" lon="5.72205">
        <ele>576.6</ele>
        <time>2020-02-28T11:35:26Z</time>
      </trkpt>
      <trkpt lat="46.70364" lon="5.72209">
        <ele>576.6</ele>
        <time>2020-02-28T11:35:27Z</time>
      </trkpt>
      <trkpt lat="46.70361" lon="5.72211">
        <ele>576.6</ele>
        <time>2020-02-28T11:35:28Z</time>
      </trkpt>
      <trkpt lat="46.70358" lon="5.72213">
        <ele>576.6</ele>
        <time>2020-02-28T11:35:29Z</time>
      </trkpt>
      <trkpt lat="46.70355" lon="5.72217">
        <ele>576.6</ele>
        <time>2020-02-28T11:35:30Z</time>
      </trkpt>
      <trkpt lat="46.70352" lon="5.7222">
        <ele>576.6</ele>
        <time>2020-02-28T11:35:31Z</time>
      </trkpt>
      <trkpt lat="46.70348" lon="5.72223">
        <ele>576.4</ele>
        <time>2020-02-28T11:35:32Z</time>
      </trkpt>
      <trkpt lat="46.70345" lon="5.72227">
        <ele>576.4</ele>
        <time>2020-02-28T11:35:33Z</time>
      </trkpt>
      <trkpt lat="46.70342" lon="5.72231">
        <ele>576.4</ele>
        <time>2020-02-28T11:35:34Z</time>
      </trkpt>
      <trkpt lat="46.70338" lon="5.72234">
        <ele>576.4</ele>
        <time>2020-02-28T11:35:35Z</time>
      </trkpt>
      <trkpt lat="46.70335" lon="5.72238">
        <ele>576.4</ele>
        <time>2020-02-28T11:35:36Z</time>
      </trkpt>
      <trkpt lat="46.70331" lon="5.72242">
        <ele>576</ele>
        <time>2020-02-28T11:35:37Z</time>
      </trkpt>
      <trkpt lat="46.70327" lon="5.72247">
        <ele>576</ele>
        <time>2020-02-28T11:35:38Z</time>
      </trkpt>
      <trkpt lat="46.70323" lon="5.72252">
        <ele>576</ele>
        <time>2020-02-28T11:35:39Z</time>
      </trkpt>
      <trkpt lat="46.70318" lon="5.72257">
        <ele>575.8</ele>
        <time>2020-02-28T11:35:40Z</time>
      </trkpt>
      <trkpt lat="46.70313" lon="5.72263">
        <ele>575.8</ele>
        <time>2020-02-28T11:35:41Z</time>
      </trkpt>
      <trkpt lat="46.70308" lon="5.7227">
        <ele>575.6</ele>
        <time>2020-02-28T11:35:42Z</time>
      </trkpt>
      <trkpt lat="46.70303" lon="5.72276">
        <ele>575.6</ele>
        <time>2020-02-28T11:35:43Z</time>
      </trkpt>
      <trkpt lat="46.70298" lon="5.72283">
        <ele>575.2</ele>
        <time>2020-02-28T11:35:44Z</time>
      </trkpt>
      <trkpt lat="46.70292" lon="5.72289">
        <ele>575</ele>
        <time>2020-02-28T11:35:45Z</time>
      </trkpt>
      <trkpt lat="46.70286" lon="5.72296">
        <ele>574.8</ele>
        <time>2020-02-28T11:35:46Z</time>
      </trkpt>
      <trkpt lat="46.70281" lon="5.72303">
        <ele>574.4</ele>
        <time>2020-02-28T11:35:47Z</time>
      </trkpt>
      <trkpt lat="46.70275" lon="5.7231">
        <ele>574.2</ele>
        <time>2020-02-28T11:35:48Z</time>
      </trkpt>
      <trkpt lat="46.70269" lon="5.72317">
        <ele>574</ele>
        <time>2020-02-28T11:35:49Z</time>
      </trkpt>
      <trkpt lat="46.70263" lon="5.72324">
        <ele>573.8</ele>
        <time>2020-02-28T11:35:50Z</time>
      </trkpt>
      <trkpt lat="46.70257" lon="5.72332">
        <ele>573.6</ele>
        <time>2020-02-28T11:35:51Z</time>
      </trkpt>
      <trkpt lat="46.70251" lon="5.72339">
        <ele>573.2</ele>
        <time>2020-02-28T11:35:52Z</time>
      </trkpt>
      <trkpt lat="46.70245" lon="5.72346">
        <ele>573.2</ele>
        <time>2020-02-28T11:35:53Z</time>
      </trkpt>
      <trkpt lat="46.70239" lon="5.72353">
        <ele>573</ele>
        <time>2020-02-28T11:35:54Z</time>
      </trkpt>
      <trkpt lat="46.70233" lon="5.7236">
        <ele>573</ele>
        <time>2020-02-28T11:35:55Z</time>
      </trkpt>
      <trkpt lat="46.70228" lon="5.72367">
        <ele>572.8</ele>
        <time>2020-02-28T11:35:56Z</time>
      </trkpt>
      <trkpt lat="46.70223" lon="5.72374">
        <ele>572.8</ele>
        <time>2020-02-28T11:35:57Z</time>
      </trkpt>
      <trkpt lat="46.70218" lon="5.72382">
        <ele>572.8</ele>
        <time>2020-02-28T11:35:58Z</time>
      </trkpt>
      <trkpt lat="46.70214" lon="5.72389">
        <ele>572.8</ele>
        <time>2020-02-28T11:35:59Z</time>
      </trkpt>
      <trkpt lat="46.7021" lon="5.72397">
        <ele>572.8</ele>
        <time>2020-02-28T11:36:00Z</time>
      </trkpt>
      <trkpt lat="46.70206" lon="5.72404">
        <ele>572.8</ele>
        <time>2020-02-28T11:36:01Z</time>
      </trkpt>
      <trkpt lat="46.70201" lon="5.7241">
        <ele>572.8</ele>
        <time>2020-02-28T11:36:02Z</time>
      </trkpt>
      <trkpt lat="46.70197" lon="5.72416">
        <ele>572.8</ele>
        <time>2020-02-28T11:36:03Z</time>
      </trkpt>
      <trkpt lat="46.70192" lon="5.72421">
        <ele>572.8</ele>
        <time>2020-02-28T11:36:04Z</time>
      </trkpt>
      <trkpt lat="46.70187" lon="5.72425">
        <ele>572.8</ele>
        <time>2020-02-28T11:36:05Z</time>
      </trkpt>
      <trkpt lat="46.70181" lon="5.7243">
        <ele>572.8</ele>
        <time>2020-02-28T11:36:06Z</time>
      </trkpt>
      <trkpt lat="46.70176" lon="5.72434">
        <ele>572.8</ele>
        <time>2020-02-28T11:36:07Z</time>
      </trkpt>
      <trkpt lat="46.7017" lon="5.72437">
        <ele>572.8</ele>
        <time>2020-02-28T11:36:08Z</time>
      </trkpt>
      <trkpt lat="46.70164" lon="5.7244">
        <ele>572.6</ele>
        <time>2020-02-28T11:36:09Z</time>
      </trkpt>
      <trkpt lat="46.70158" lon="5.72441">
        <ele>572.6</ele>
        <time>2020-02-28T11:36:10Z</time>
      </trkpt>
      <trkpt lat="46.70152" lon="5.72442">
        <ele>572.6</ele>
        <time>2020-02-28T11:36:11Z</time>
      </trkpt>
      <trkpt lat="46.70146" lon="5.72442">
        <ele>572.6</ele>
        <time>2020-02-28T11:36:12Z</time>
      </trkpt>
      <trkpt lat="46.7014" lon="5.72441">
        <ele>572.6</ele>
        <time>2020-02-28T11:36:13Z</time>
      </trkpt>
      <trkpt lat="46.70134" lon="5.72439">
        <ele>572.6</ele>
        <time>2020-02-28T11:36:14Z</time>
      </trkpt>
      <trkpt lat="46.70129" lon="5.72438">
        <ele>572.6</ele>
        <time>2020-02-28T11:36:15Z</time>
      </trkpt>
      <trkpt lat="46.70123" lon="5.72435">
        <ele>572.6</ele>
        <time>2020-02-28T11:36:16Z</time>
      </trkpt>
      <trkpt lat="46.70117" lon="5.72433">
        <ele>572.8</ele>
        <time>2020-02-28T11:36:17Z</time>
      </trkpt>
      <trkpt lat="46.70112" lon="5.72429">
        <ele>572.8</ele>
        <time>2020-02-28T11:36:18Z</time>
      </trkpt>
      <trkpt lat="46.70108" lon="5.72425">
        <ele>572.8</ele>
        <time>2020-02-28T11:36:19Z</time>
      </trkpt>
      <trkpt lat="46.70103" lon="5.7242">
        <ele>573</ele>
        <time>2020-02-28T11:36:20Z</time>
      </trkpt>
      <trkpt lat="46.70099" lon="5.72415">
        <ele>573</ele>
        <time>2020-02-28T11:36:21Z</time>
      </trkpt>
      <trkpt lat="46.70095" lon="5.7241">
        <ele>573.2</ele>
        <time>2020-02-28T11:36:22Z</time>
      </trkpt>
      <trkpt lat="46.70091" lon="5.72405">
        <ele>573.2</ele>
        <time>2020-02-28T11:36:23Z</time>
      </trkpt>
      <trkpt lat="46.70088" lon="5.724">
        <ele>573.2</ele>
        <time>2020-02-28T11:36:24Z</time>
      </trkpt>
      <trkpt lat="46.70084" lon="5.72395">
        <ele>573.6</ele>
        <time>2020-02-28T11:36:25Z</time>
      </trkpt>
      <trkpt lat="46.7008" lon="5.7239">
        <ele>573.6</ele>
        <time>2020-02-28T11:36:26Z</time>
      </trkpt>
      <trkpt lat="46.70076" lon="5.72386">
        <ele>573.6</ele>
        <time>2020-02-28T11:36:27Z</time>
      </trkpt>
      <trkpt lat="46.70073" lon="5.72381">
        <ele>573.6</ele>
        <time>2020-02-28T11:36:28Z</time>
      </trkpt>
      <trkpt lat="46.70069" lon="5.72377">
        <ele>573.8</ele>
        <time>2020-02-28T11:36:29Z</time>
      </trkpt>
      <trkpt lat="46.70065" lon="5.72373">
        <ele>573.8</ele>
        <time>2020-02-28T11:36:30Z</time>
      </trkpt>
      <trkpt lat="46.70061" lon="5.72369">
        <ele>573.8</ele>
        <time>2020-02-28T11:36:31Z</time>
      </trkpt>
      <trkpt lat="46.70057" lon="5.72366">
        <ele>574.2</ele>
        <time>2020-02-28T11:36:32Z</time>
      </trkpt>
      <trkpt lat="46.70053" lon="5.72364">
        <ele>574.4</ele>
        <time>2020-02-28T11:36:33Z</time>
      </trkpt>
      <trkpt lat="46.70049" lon="5.72362">
        <ele>574.4</ele>
        <time>2020-02-28T11:36:34Z</time>
      </trkpt>
      <trkpt lat="46.70044" lon="5.7236">
        <ele>574.4</ele>
        <time>2020-02-28T11:36:35Z</time>
      </trkpt>
      <trkpt lat="46.7004" lon="5.72358">
        <ele>574.8</ele>
        <time>2020-02-28T11:36:36Z</time>
      </trkpt>
      <trkpt lat="46.70036" lon="5.72357">
        <ele>575</ele>
        <time>2020-02-28T11:36:37Z</time>
      </trkpt>
      <trkpt lat="46.70031" lon="5.72356">
        <ele>575.2</ele>
        <time>2020-02-28T11:36:38Z</time>
      </trkpt>
      <trkpt lat="46.70027" lon="5.72355">
        <ele>575.2</ele>
        <time>2020-02-28T11:36:39Z</time>
      </trkpt>
      <trkpt lat="46.70023" lon="5.72355">
        <ele>575.6</ele>
        <time>2020-02-28T11:36:40Z</time>
      </trkpt>
      <trkpt lat="46.70019" lon="5.72355">
        <ele>575.6</ele>
        <time>2020-02-28T11:36:41Z</time>
      </trkpt>
      <trkpt lat="46.70014" lon="5.72355">
        <ele>576</ele>
        <time>2020-02-28T11:36:42Z</time>
      </trkpt>
      <trkpt lat="46.7001" lon="5.72357">
        <ele>576.2</ele>
        <time>2020-02-28T11:36:43Z</time>
      </trkpt>
      <trkpt lat="46.70006" lon="5.72358">
        <ele>576.2</ele>
        <time>2020-02-28T11:36:44Z</time>
      </trkpt>
      <trkpt lat="46.70002" lon="5.7236">
        <ele>576.6</ele>
        <time>2020-02-28T11:36:45Z</time>
      </trkpt>
      <trkpt lat="46.69998" lon="5.72363">
        <ele>576.8</ele>
        <time>2020-02-28T11:36:46Z</time>
      </trkpt>
      <trkpt lat="46.69995" lon="5.72365">
        <ele>576.8</ele>
        <time>2020-02-28T11:36:47Z</time>
      </trkpt>
      <trkpt lat="46.69991" lon="5.72367">
        <ele>577.2</ele>
        <time>2020-02-28T11:36:48Z</time>
      </trkpt>
      <trkpt lat="46.69988" lon="5.72369">
        <ele>577.4</ele>
        <time>2020-02-28T11:36:49Z</time>
      </trkpt>
      <trkpt lat="46.69985" lon="5.72372">
        <ele>577.6</ele>
        <time>2020-02-28T11:36:50Z</time>
      </trkpt>
      <trkpt lat="46.69982" lon="5.72375">
        <ele>577.6</ele>
        <time>2020-02-28T11:36:51Z</time>
      </trkpt>
      <trkpt lat="46.69979" lon="5.72378">
        <ele>578</ele>
        <time>2020-02-28T11:36:52Z</time>
      </trkpt>
      <trkpt lat="46.69976" lon="5.7238">
        <ele>578</ele>
        <time>2020-02-28T11:36:53Z</time>
      </trkpt>
      <trkpt lat="46.69973" lon="5.72383">
        <ele>578.4</ele>
        <time>2020-02-28T11:36:54Z</time>
      </trkpt>
      <trkpt lat="46.6997" lon="5.72386">
        <ele>578.4</ele>
        <time>2020-02-28T11:36:55Z</time>
      </trkpt>
      <trkpt lat="46.69968" lon="5.72388">
        <ele>578.8</ele>
        <time>2020-02-28T11:36:56Z</time>
      </trkpt>
      <trkpt lat="46.69965" lon="5.72391">
        <ele>579</ele>
        <time>2020-02-28T11:36:57Z</time>
      </trkpt>
      <trkpt lat="46.69962" lon="5.72393">
        <ele>579.4</ele>
        <time>2020-02-28T11:36:58Z</time>
      </trkpt>
      <trkpt lat="46.6996" lon="5.72396">
        <ele>579.6</ele>
        <time>2020-02-28T11:36:59Z</time>
      </trkpt>
      <trkpt lat="46.69957" lon="5.72399">
        <ele>580</ele>
        <time>2020-02-28T11:37:00Z</time>
      </trkpt>
      <trkpt lat="46.69954" lon="5.72402">
        <ele>580.2</ele>
        <time>2020-02-28T11:37:01Z</time>
      </trkpt>
      <trkpt lat="46.69952" lon="5.72406">
        <ele>580.4</ele>
        <time>2020-02-28T11:37:02Z</time>
      </trkpt>
      <trkpt lat="46.6995" lon="5.7241">
        <ele>580.4</ele>
        <time>2020-02-28T11:37:03Z</time>
      </trkpt>
      <trkpt lat="46.69948" lon="5.72414">
        <ele>580.6</ele>
        <time>2020-02-28T11:37:04Z</time>
      </trkpt>
      <trkpt lat="46.69945" lon="5.72418">
        <ele>580.6</ele>
        <time>2020-02-28T11:37:05Z</time>
      </trkpt>
      <trkpt lat="46.69943" lon="5.72422">
        <ele>580.8</ele>
        <time>2020-02-28T11:37:06Z</time>
      </trkpt>
      <trkpt lat="46.69941" lon="5.72427">
        <ele>580.8</ele>
        <time>2020-02-28T11:37:07Z</time>
      </trkpt>
      <trkpt lat="46.69939" lon="5.72432">
        <ele>581</ele>
        <time>2020-02-28T11:37:08Z</time>
      </trkpt>
      <trkpt lat="46.69937" lon="5.72437">
        <ele>581</ele>
        <time>2020-02-28T11:37:09Z</time>
      </trkpt>
      <trkpt lat="46.69936" lon="5.72442">
        <ele>581</ele>
        <time>2020-02-28T11:37:10Z</time>
      </trkpt>
      <trkpt lat="46.69935" lon="5.72448">
        <ele>581</ele>
        <time>2020-02-28T11:37:11Z</time>
      </trkpt>
      <trkpt lat="46.69934" lon="5.72453">
        <ele>581</ele>
        <time>2020-02-28T11:37:12Z</time>
      </trkpt>
      <trkpt lat="46.69933" lon="5.72459">
        <ele>581.2</ele>
        <time>2020-02-28T11:37:13Z</time>
      </trkpt>
      <trkpt lat="46.69931" lon="5.72464">
        <ele>581.2</ele>
        <time>2020-02-28T11:37:14Z</time>
      </trkpt>
      <trkpt lat="46.69929" lon="5.72469">
        <ele>581.2</ele>
        <time>2020-02-28T11:37:15Z</time>
      </trkpt>
      <trkpt lat="46.69927" lon="5.72473">
        <ele>581.6</ele>
        <time>2020-02-28T11:37:16Z</time>
      </trkpt>
      <trkpt lat="46.69925" lon="5.72478">
        <ele>581.6</ele>
        <time>2020-02-28T11:37:17Z</time>
      </trkpt>
      <trkpt lat="46.69922" lon="5.72482">
        <ele>581.8</ele>
        <time>2020-02-28T11:37:18Z</time>
      </trkpt>
      <trkpt lat="46.6992" lon="5.72486">
        <ele>581.8</ele>
        <time>2020-02-28T11:37:19Z</time>
      </trkpt>
      <trkpt lat="46.69917" lon="5.7249">
        <ele>582</ele>
        <time>2020-02-28T11:37:20Z</time>
      </trkpt>
      <trkpt lat="46.69914" lon="5.72493">
        <ele>582</ele>
        <time>2020-02-28T11:37:21Z</time>
      </trkpt>
      <trkpt lat="46.69911" lon="5.72496">
        <ele>582.4</ele>
        <time>2020-02-28T11:37:22Z</time>
      </trkpt>
      <trkpt lat="46.69908" lon="5.72499">
        <ele>582.4</ele>
        <time>2020-02-28T11:37:23Z</time>
      </trkpt>
      <trkpt lat="46.69904" lon="5.72502">
        <ele>582.6</ele>
        <time>2020-02-28T11:37:24Z</time>
      </trkpt>
      <trkpt lat="46.69901" lon="5.72504">
        <ele>582.6</ele>
        <time>2020-02-28T11:37:25Z</time>
      </trkpt>
      <trkpt lat="46.69898" lon="5.72507">
        <ele>583</ele>
        <time>2020-02-28T11:37:26Z</time>
      </trkpt>
      <trkpt lat="46.69895" lon="5.7251">
        <ele>583</ele>
        <time>2020-02-28T11:37:27Z</time>
      </trkpt>
      <trkpt lat="46.69892" lon="5.72512">
        <ele>583.4</ele>
        <time>2020-02-28T11:37:28Z</time>
      </trkpt>
      <trkpt lat="46.69889" lon="5.72515">
        <ele>583.4</ele>
        <time>2020-02-28T11:37:29Z</time>
      </trkpt>
      <trkpt lat="46.69886" lon="5.72519">
        <ele>583.6</ele>
        <time>2020-02-28T11:37:30Z</time>
      </trkpt>
      <trkpt lat="46.69884" lon="5.72522">
        <ele>583.6</ele>
        <time>2020-02-28T11:37:31Z</time>
      </trkpt>
      <trkpt lat="46.69881" lon="5.72525">
        <ele>584</ele>
        <time>2020-02-28T11:37:32Z</time>
      </trkpt>
      <trkpt lat="46.69879" lon="5.72528">
        <ele>584.2</ele>
        <time>2020-02-28T11:37:33Z</time>
      </trkpt>
      <trkpt lat="46.69877" lon="5.72531">
        <ele>584.4</ele>
        <time>2020-02-28T11:37:34Z</time>
      </trkpt>
      <trkpt lat="46.69875" lon="5.72533">
        <ele>584.6</ele>
        <time>2020-02-28T11:37:35Z</time>
      </trkpt>
      <trkpt lat="46.69873" lon="5.72536">
        <ele>584.6</ele>
        <time>2020-02-28T11:37:36Z</time>
      </trkpt>
      <trkpt lat="46.69871" lon="5.72539">
        <ele>585</ele>
        <time>2020-02-28T11:37:37Z</time>
      </trkpt>
      <trkpt lat="46.69869" lon="5.72542">
        <ele>585</ele>
        <time>2020-02-28T11:37:38Z</time>
      </trkpt>
      <trkpt lat="46.69867" lon="5.72545">
        <ele>585.4</ele>
        <time>2020-02-28T11:37:39Z</time>
      </trkpt>
      <trkpt lat="46.69865" lon="5.72548">
        <ele>585.4</ele>
        <time>2020-02-28T11:37:40Z</time>
      </trkpt>
      <trkpt lat="46.69864" lon="5.72551">
        <ele>585.6</ele>
        <time>2020-02-28T11:37:41Z</time>
      </trkpt>
      <trkpt lat="46.69862" lon="5.72554">
        <ele>585.6</ele>
        <time>2020-02-28T11:37:42Z</time>
      </trkpt>
      <trkpt lat="46.6986" lon="5.72557">
        <ele>585.8</ele>
        <time>2020-02-28T11:37:43Z</time>
      </trkpt>
      <trkpt lat="46.69858" lon="5.7256">
        <ele>585.8</ele>
        <time>2020-02-28T11:37:44Z</time>
      </trkpt>
      <trkpt lat="46.69856" lon="5.72563">
        <ele>586.2</ele>
        <time>2020-02-28T11:37:45Z</time>
      </trkpt>
      <trkpt lat="46.69855" lon="5.72565">
        <ele>586.2</ele>
        <time>2020-02-28T11:37:46Z</time>
      </trkpt>
      <trkpt lat="46.69853" lon="5.72568">
        <ele>586.4</ele>
        <time>2020-02-28T11:37:47Z</time>
      </trkpt>
      <trkpt lat="46.69851" lon="5.72572">
        <ele>586.4</ele>
        <time>2020-02-28T11:37:48Z</time>
      </trkpt>
      <trkpt lat="46.69849" lon="5.72574">
        <ele>586.6</ele>
        <time>2020-02-28T11:37:49Z</time>
      </trkpt>
      <trkpt lat="46.69847" lon="5.72577">
        <ele>586.6</ele>
        <time>2020-02-28T11:37:50Z</time>
      </trkpt>
      <trkpt lat="46.69845" lon="5.7258">
        <ele>586.6</ele>
        <time>2020-02-28T11:37:51Z</time>
      </trkpt>
      <trkpt lat="46.69843" lon="5.72582">
        <ele>587</ele>
        <time>2020-02-28T11:37:52Z</time>
      </trkpt>
      <trkpt lat="46.69841" lon="5.72585">
        <ele>587</ele>
        <time>2020-02-28T11:37:53Z</time>
      </trkpt>
      <trkpt lat="46.6984" lon="5.72587">
        <ele>587.4</ele>
        <time>2020-02-28T11:37:54Z</time>
      </trkpt>
      <trkpt lat="46.69837" lon="5.7259">
        <ele>587.4</ele>
        <time>2020-02-28T11:37:55Z</time>
      </trkpt>
      <trkpt lat="46.69835" lon="5.72593">
        <ele>587.6</ele>
        <time>2020-02-28T11:37:56Z</time>
      </trkpt>
      <trkpt lat="46.69834" lon="5.72595">
        <ele>587.6</ele>
        <time>2020-02-28T11:37:57Z</time>
      </trkpt>
      <trkpt lat="46.69832" lon="5.72597">
        <ele>587.8</ele>
        <time>2020-02-28T11:37:58Z</time>
      </trkpt>
      <trkpt lat="46.6983" lon="5.72599">
        <ele>588</ele>
        <time>2020-02-28T11:37:59Z</time>
      </trkpt>
      <trkpt lat="46.69828" lon="5.72601">
        <ele>588</ele>
        <time>2020-02-28T11:38:00Z</time>
      </trkpt>
      <trkpt lat="46.69825" lon="5.72603">
        <ele>588.4</ele>
        <time>2020-02-28T11:38:01Z</time>
      </trkpt>
      <trkpt lat="46.69823" lon="5.72605">
        <ele>588.8</ele>
        <time>2020-02-28T11:38:02Z</time>
      </trkpt>
      <trkpt lat="46.69821" lon="5.72606">
        <ele>589</ele>
        <time>2020-02-28T11:38:03Z</time>
      </trkpt>
      <trkpt lat="46.69818" lon="5.72607">
        <ele>589.2</ele>
        <time>2020-02-28T11:38:04Z</time>
      </trkpt>
      <trkpt lat="46.69816" lon="5.72609">
        <ele>589.2</ele>
        <time>2020-02-28T11:38:05Z</time>
      </trkpt>
      <trkpt lat="46.69814" lon="5.72611">
        <ele>589.8</ele>
        <time>2020-02-28T11:38:06Z</time>
      </trkpt>
      <trkpt lat="46.69812" lon="5.72613">
        <ele>590</ele>
        <time>2020-02-28T11:38:07Z</time>
      </trkpt>
      <trkpt lat="46.6981" lon="5.72615">
        <ele>590.2</ele>
        <time>2020-02-28T11:38:08Z</time>
      </trkpt>
      <trkpt lat="46.69808" lon="5.72617">
        <ele>590.4</ele>
        <time>2020-02-28T11:38:09Z</time>
      </trkpt>
      <trkpt lat="46.69806" lon="5.72618">
        <ele>590.4</ele>
        <time>2020-02-28T11:38:10Z</time>
      </trkpt>
      <trkpt lat="46.69804" lon="5.7262">
        <ele>590.6</ele>
        <time>2020-02-28T11:38:11Z</time>
      </trkpt>
      <trkpt lat="46.69803" lon="5.72623">
        <ele>590.6</ele>
        <time>2020-02-28T11:38:12Z</time>
      </trkpt>
      <trkpt lat="46.69801" lon="5.72625">
        <ele>591</ele>
        <time>2020-02-28T11:38:13Z</time>
      </trkpt>
      <trkpt lat="46.698" lon="5.72627">
        <ele>591</ele>
        <time>2020-02-28T11:38:14Z</time>
      </trkpt>
      <trkpt lat="46.69799" lon="5.72629">
        <ele>591.2</ele>
        <time>2020-02-28T11:38:15Z</time>
      </trkpt>
      <trkpt lat="46.69797" lon="5.72631">
        <ele>591.2</ele>
        <time>2020-02-28T11:38:16Z</time>
      </trkpt>
      <trkpt lat="46.69796" lon="5.72633">
        <ele>591.6</ele>
        <time>2020-02-28T11:38:17Z</time>
      </trkpt>
      <trkpt lat="46.69795" lon="5.72636">
        <ele>591.6</ele>
        <time>2020-02-28T11:38:18Z</time>
      </trkpt>
      <trkpt lat="46.69793" lon="5.72638">
        <ele>592</ele>
        <time>2020-02-28T11:38:19Z</time>
      </trkpt>
      <trkpt lat="46.69792" lon="5.72641">
        <ele>592</ele>
        <time>2020-02-28T11:38:20Z</time>
      </trkpt>
      <trkpt lat="46.69791" lon="5.72643">
        <ele>592.2</ele>
        <time>2020-02-28T11:38:21Z</time>
      </trkpt>
      <trkpt lat="46.6979" lon="5.72645">
        <ele>592.2</ele>
        <time>2020-02-28T11:38:22Z</time>
      </trkpt>
      <trkpt lat="46.69789" lon="5.72648">
        <ele>592.4</ele>
        <time>2020-02-28T11:38:23Z</time>
      </trkpt>
      <trkpt lat="46.69788" lon="5.7265">
        <ele>592.4</ele>
        <time>2020-02-28T11:38:24Z</time>
      </trkpt>
      <trkpt lat="46.69787" lon="5.72653">
        <ele>592.4</ele>
        <time>2020-02-28T11:38:25Z</time>
      </trkpt>
      <trkpt lat="46.69786" lon="5.72655">
        <ele>592.4</ele>
        <time>2020-02-28T11:38:26Z</time>
      </trkpt>
      <trkpt lat="46.69784" lon="5.72658">
        <ele>592.8</ele>
        <time>2020-02-28T11:38:27Z</time>
      </trkpt>
      <trkpt lat="46.69783" lon="5.7266">
        <ele>592.8</ele>
        <time>2020-02-28T11:38:28Z</time>
      </trkpt>
      <trkpt lat="46.69781" lon="5.72662">
        <ele>592.8</ele>
        <time>2020-02-28T11:38:29Z</time>
      </trkpt>
      <trkpt lat="46.6978" lon="5.72664">
        <ele>592.8</ele>
        <time>2020-02-28T11:38:30Z</time>
      </trkpt>
      <trkpt lat="46.69778" lon="5.72667">
        <ele>592.8</ele>
        <time>2020-02-28T11:38:31Z</time>
      </trkpt>
      <trkpt lat="46.69777" lon="5.7267">
        <ele>592.8</ele>
        <time>2020-02-28T11:38:32Z</time>
      </trkpt>
      <trkpt lat="46.69775" lon="5.72673">
        <ele>593</ele>
        <time>2020-02-28T11:38:33Z</time>
      </trkpt>
      <trkpt lat="46.69774" lon="5.72676">
        <ele>593</ele>
        <time>2020-02-28T11:38:34Z</time>
      </trkpt>
      <trkpt lat="46.69772" lon="5.72679">
        <ele>593</ele>
        <time>2020-02-28T11:38:35Z</time>
      </trkpt>
      <trkpt lat="46.6977" lon="5.72681">
        <ele>593</ele>
        <time>2020-02-28T11:38:36Z</time>
      </trkpt>
      <trkpt lat="46.69769" lon="5.72684">
        <ele>593</ele>
        <time>2020-02-28T11:38:37Z</time>
      </trkpt>
      <trkpt lat="46.69767" lon="5.72686">
        <ele>593.2</ele>
        <time>2020-02-28T11:38:38Z</time>
      </trkpt>
      <trkpt lat="46.69765" lon="5.72689">
        <ele>593.2</ele>
        <time>2020-02-28T11:38:39Z</time>
      </trkpt>
      <trkpt lat="46.69764" lon="5.72691">
        <ele>593.2</ele>
        <time>2020-02-28T11:38:40Z</time>
      </trkpt>
      <trkpt lat="46.69762" lon="5.72694">
        <ele>593.2</ele>
        <time>2020-02-28T11:38:41Z</time>
      </trkpt>
      <trkpt lat="46.6976" lon="5.72696">
        <ele>593.2</ele>
        <time>2020-02-28T11:38:42Z</time>
      </trkpt>
      <trkpt lat="46.69758" lon="5.72698">
        <ele>593.2</ele>
        <time>2020-02-28T11:38:43Z</time>
      </trkpt>
      <trkpt lat="46.69756" lon="5.72701">
        <ele>593.2</ele>
        <time>2020-02-28T11:38:44Z</time>
      </trkpt>
      <trkpt lat="46.69754" lon="5.72704">
        <ele>593.2</ele>
        <time>2020-02-28T11:38:45Z</time>
      </trkpt>
      <trkpt lat="46.69752" lon="5.72707">
        <ele>593.2</ele>
        <time>2020-02-28T11:38:46Z</time>
      </trkpt>
      <trkpt lat="46.6975" lon="5.7271">
        <ele>593.2</ele>
        <time>2020-02-28T11:38:47Z</time>
      </trkpt>
      <trkpt lat="46.69748" lon="5.72714">
        <ele>593.2</ele>
        <time>2020-02-28T11:38:48Z</time>
      </trkpt>
      <trkpt lat="46.69745" lon="5.72717">
        <ele>593</ele>
        <time>2020-02-28T11:38:49Z</time>
      </trkpt>
      <trkpt lat="46.69744" lon="5.72721">
        <ele>593</ele>
        <time>2020-02-28T11:38:50Z</time>
      </trkpt>
      <trkpt lat="46.69742" lon="5.72724">
        <ele>593</ele>
        <time>2020-02-28T11:38:51Z</time>
      </trkpt>
      <trkpt lat="46.6974" lon="5.72728">
        <ele>592.6</ele>
        <time>2020-02-28T11:38:52Z</time>
      </trkpt>
      <trkpt lat="46.69738" lon="5.72731">
        <ele>592.6</ele>
        <time>2020-02-28T11:38:53Z</time>
      </trkpt>
      <trkpt lat="46.69736" lon="5.72734">
        <ele>592.4</ele>
        <time>2020-02-28T11:38:54Z</time>
      </trkpt>
      <trkpt lat="46.69735" lon="5.72736">
        <ele>592.4</ele>
        <time>2020-02-28T11:38:55Z</time>
      </trkpt>
      <trkpt lat="46.69733" lon="5.72737">
        <ele>592</ele>
        <time>2020-02-28T11:38:56Z</time>
      </trkpt>
      <trkpt lat="46.69731" lon="5.72737">
        <ele>592</ele>
        <time>2020-02-28T11:38:57Z</time>
      </trkpt>
      <trkpt lat="46.69728" lon="5.72735">
        <ele>591.6</ele>
        <time>2020-02-28T11:38:58Z</time>
      </trkpt>
      <trkpt lat="46.69725" lon="5.72731">
        <ele>591.6</ele>
        <time>2020-02-28T11:38:59Z</time>
      </trkpt>
      <trkpt lat="46.69722" lon="5.72727">
        <ele>591.4</ele>
        <time>2020-02-28T11:39:00Z</time>
      </trkpt>
      <trkpt lat="46.69719" lon="5.72722">
        <ele>591.4</ele>
        <time>2020-02-28T11:39:01Z</time>
      </trkpt>
      <trkpt lat="46.69716" lon="5.72718">
        <ele>591</ele>
        <time>2020-02-28T11:39:02Z</time>
      </trkpt>
      <trkpt lat="46.69713" lon="5.72713">
        <ele>591</ele>
        <time>2020-02-28T11:39:03Z</time>
      </trkpt>
      <trkpt lat="46.6971" lon="5.72709">
        <ele>591</ele>
        <time>2020-02-28T11:39:04Z</time>
      </trkpt>
      <trkpt lat="46.69707" lon="5.72705">
        <ele>590.8</ele>
        <time>2020-02-28T11:39:05Z</time>
      </trkpt>
      <trkpt lat="46.69703" lon="5.727">
        <ele>590.8</ele>
        <time>2020-02-28T11:39:06Z</time>
      </trkpt>
      <trkpt lat="46.697" lon="5.72697">
        <ele>590.8</ele>
        <time>2020-02-28T11:39:07Z</time>
      </trkpt>
      <trkpt lat="46.69697" lon="5.72693">
        <ele>590.8</ele>
        <time>2020-02-28T11:39:08Z</time>
      </trkpt>
      <trkpt lat="46.69694" lon="5.72689">
        <ele>590.8</ele>
        <time>2020-02-28T11:39:09Z</time>
      </trkpt>
      <trkpt lat="46.69691" lon="5.72686">
        <ele>590.6</ele>
        <time>2020-02-28T11:39:10Z</time>
      </trkpt>
      <trkpt lat="46.69688" lon="5.72683">
        <ele>590.6</ele>
        <time>2020-02-28T11:39:11Z</time>
      </trkpt>
      <trkpt lat="46.69685" lon="5.72682">
        <ele>590.6</ele>
        <time>2020-02-28T11:39:12Z</time>
      </trkpt>
      <trkpt lat="46.69681" lon="5.72682">
        <ele>590.6</ele>
        <time>2020-02-28T11:39:13Z</time>
      </trkpt>
      <trkpt lat="46.69678" lon="5.72681">
        <ele>590.6</ele>
        <time>2020-02-28T11:39:14Z</time>
      </trkpt>
      <trkpt lat="46.69676" lon="5.7268">
        <ele>590.6</ele>
        <time>2020-02-28T11:39:15Z</time>
      </trkpt>
      <trkpt lat="46.69674" lon="5.72678">
        <ele>590.6</ele>
        <time>2020-02-28T11:39:16Z</time>
      </trkpt>
      <trkpt lat="46.69673" lon="5.72676">
        <ele>590.6</ele>
        <time>2020-02-28T11:39:17Z</time>
      </trkpt>
      <trkpt lat="46.69672" lon="5.72673">
        <ele>590.6</ele>
        <time>2020-02-28T11:39:18Z</time>
      </trkpt>
      <trkpt lat="46.69671" lon="5.72672">
        <ele>590.6</ele>
        <time>2020-02-28T11:39:19Z</time>
      </trkpt>
      <trkpt lat="46.6967" lon="5.72671">
        <ele>590.4</ele>
        <time>2020-02-28T11:39:20Z</time>
      </trkpt>
      <trkpt lat="46.69666" lon="5.72671">
        <ele>590.4</ele>
        <time>2020-02-28T11:39:26Z</time>
      </trkpt>
      <trkpt lat="46.69665" lon="5.72673">
        <ele>590.4</ele>
        <time>2020-02-28T11:39:27Z</time>
      </trkpt>
      <trkpt lat="46.69663" lon="5.72675">
        <ele>590.4</ele>
        <time>2020-02-28T11:39:28Z</time>
      </trkpt>
      <trkpt lat="46.69661" lon="5.72676">
        <ele>590.4</ele>
        <time>2020-02-28T11:39:29Z</time>
      </trkpt>
      <trkpt lat="46.69659" lon="5.72678">
        <ele>590.4</ele>
        <time>2020-02-28T11:39:30Z</time>
      </trkpt>
      <trkpt lat="46.69657" lon="5.72679">
        <ele>590.6</ele>
        <time>2020-02-28T11:39:31Z</time>
      </trkpt>
      <trkpt lat="46.69654" lon="5.7268">
        <ele>590.6</ele>
        <time>2020-02-28T11:39:32Z</time>
      </trkpt>
      <trkpt lat="46.69652" lon="5.72681">
        <ele>590.6</ele>
        <time>2020-02-28T11:39:33Z</time>
      </trkpt>
      <trkpt lat="46.69649" lon="5.72681">
        <ele>590.6</ele>
        <time>2020-02-28T11:39:34Z</time>
      </trkpt>
      <trkpt lat="46.69646" lon="5.72681">
        <ele>590.6</ele>
        <time>2020-02-28T11:39:35Z</time>
      </trkpt>
      <trkpt lat="46.69644" lon="5.72681">
        <ele>590.8</ele>
        <time>2020-02-28T11:39:36Z</time>
      </trkpt>
      <trkpt lat="46.69641" lon="5.72682">
        <ele>590.8</ele>
        <time>2020-02-28T11:39:37Z</time>
      </trkpt>
      <trkpt lat="46.69638" lon="5.72683">
        <ele>591</ele>
        <time>2020-02-28T11:39:38Z</time>
      </trkpt>
      <trkpt lat="46.69634" lon="5.72684">
        <ele>591</ele>
        <time>2020-02-28T11:39:39Z</time>
      </trkpt>
      <trkpt lat="46.69631" lon="5.72684">
        <ele>591.4</ele>
        <time>2020-02-28T11:39:40Z</time>
      </trkpt>
      <trkpt lat="46.69628" lon="5.72684">
        <ele>591.4</ele>
        <time>2020-02-28T11:39:41Z</time>
      </trkpt>
      <trkpt lat="46.69624" lon="5.72684">
        <ele>591.6</ele>
        <time>2020-02-28T11:39:42Z</time>
      </trkpt>
      <trkpt lat="46.69621" lon="5.72684">
        <ele>591.6</ele>
        <time>2020-02-28T11:39:43Z</time>
      </trkpt>
      <trkpt lat="46.69618" lon="5.72685">
        <ele>592.2</ele>
        <time>2020-02-28T11:39:44Z</time>
      </trkpt>
      <trkpt lat="46.69615" lon="5.72686">
        <ele>592.2</ele>
        <time>2020-02-28T11:39:45Z</time>
      </trkpt>
      <trkpt lat="46.69611" lon="5.72687">
        <ele>592.4</ele>
        <time>2020-02-28T11:39:46Z</time>
      </trkpt>
      <trkpt lat="46.69608" lon="5.72688">
        <ele>592.4</ele>
        <time>2020-02-28T11:39:47Z</time>
      </trkpt>
      <trkpt lat="46.69605" lon="5.72689">
        <ele>592.8</ele>
        <time>2020-02-28T11:39:48Z</time>
      </trkpt>
      <trkpt lat="46.69602" lon="5.72689">
        <ele>592.8</ele>
        <time>2020-02-28T11:39:49Z</time>
      </trkpt>
      <trkpt lat="46.69599" lon="5.7269">
        <ele>593</ele>
        <time>2020-02-28T11:39:50Z</time>
      </trkpt>
      <trkpt lat="46.69595" lon="5.7269">
        <ele>593</ele>
        <time>2020-02-28T11:39:51Z</time>
      </trkpt>
      <trkpt lat="46.69592" lon="5.72691">
        <ele>593.4</ele>
        <time>2020-02-28T11:39:52Z</time>
      </trkpt>
      <trkpt lat="46.69589" lon="5.72692">
        <ele>593.4</ele>
        <time>2020-02-28T11:39:53Z</time>
      </trkpt>
      <trkpt lat="46.69586" lon="5.72693">
        <ele>593.8</ele>
        <time>2020-02-28T11:39:54Z</time>
      </trkpt>
      <trkpt lat="46.69583" lon="5.72694">
        <ele>593.8</ele>
        <time>2020-02-28T11:39:55Z</time>
      </trkpt>
      <trkpt lat="46.69578" lon="5.72694">
        <ele>594</ele>
        <time>2020-02-28T11:39:56Z</time>
      </trkpt>
      <trkpt lat="46.69576" lon="5.72694">
        <ele>594</ele>
        <time>2020-02-28T11:39:57Z</time>
      </trkpt>
      <trkpt lat="46.69573" lon="5.72695">
        <ele>594.4</ele>
        <time>2020-02-28T11:39:58Z</time>
      </trkpt>
      <trkpt lat="46.69569" lon="5.72696">
        <ele>594.6</ele>
        <time>2020-02-28T11:39:59Z</time>
      </trkpt>
      <trkpt lat="46.69566" lon="5.72697">
        <ele>594.6</ele>
        <time>2020-02-28T11:40:00Z</time>
      </trkpt>
      <trkpt lat="46.69562" lon="5.72697">
        <ele>595</ele>
        <time>2020-02-28T11:40:01Z</time>
      </trkpt>
      <trkpt lat="46.69559" lon="5.72698">
        <ele>595</ele>
        <time>2020-02-28T11:40:02Z</time>
      </trkpt>
      <trkpt lat="46.69554" lon="5.727">
        <ele>595</ele>
        <time>2020-02-28T11:40:03Z</time>
      </trkpt>
      <trkpt lat="46.69552" lon="5.727">
        <ele>595.2</ele>
        <time>2020-02-28T11:40:04Z</time>
      </trkpt>
      <trkpt lat="46.69548" lon="5.72701">
        <ele>595.2</ele>
        <time>2020-02-28T11:40:05Z</time>
      </trkpt>
      <trkpt lat="46.69545" lon="5.72702">
        <ele>595.2</ele>
        <time>2020-02-28T11:40:06Z</time>
      </trkpt>
      <trkpt lat="46.69539" lon="5.72704">
        <ele>595.4</ele>
        <time>2020-02-28T11:40:07Z</time>
      </trkpt>
      <trkpt lat="46.69538" lon="5.72705">
        <ele>595.4</ele>
        <time>2020-02-28T11:40:08Z</time>
      </trkpt>
      <trkpt lat="46.69534" lon="5.72706">
        <ele>595.4</ele>
        <time>2020-02-28T11:40:09Z</time>
      </trkpt>
      <trkpt lat="46.6953" lon="5.72707">
        <ele>595.4</ele>
        <time>2020-02-28T11:40:10Z</time>
      </trkpt>
      <trkpt lat="46.69526" lon="5.72708">
        <ele>595.4</ele>
        <time>2020-02-28T11:40:11Z</time>
      </trkpt>
      <trkpt lat="46.69521" lon="5.72709">
        <ele>595.4</ele>
        <time>2020-02-28T11:40:12Z</time>
      </trkpt>
      <trkpt lat="46.69517" lon="5.72711">
        <ele>595.4</ele>
        <time>2020-02-28T11:40:13Z</time>
      </trkpt>
      <trkpt lat="46.69513" lon="5.72712">
        <ele>595.4</ele>
        <time>2020-02-28T11:40:14Z</time>
      </trkpt>
      <trkpt lat="46.69506" lon="5.72713">
        <ele>595.4</ele>
        <time>2020-02-28T11:40:15Z</time>
      </trkpt>
      <trkpt lat="46.69504" lon="5.72713">
        <ele>595.4</ele>
        <time>2020-02-28T11:40:16Z</time>
      </trkpt>
      <trkpt lat="46.69499" lon="5.72715">
        <ele>595.4</ele>
        <time>2020-02-28T11:40:17Z</time>
      </trkpt>
      <trkpt lat="46.69494" lon="5.72716">
        <ele>595.2</ele>
        <time>2020-02-28T11:40:18Z</time>
      </trkpt>
      <trkpt lat="46.69489" lon="5.72717">
        <ele>595.2</ele>
        <time>2020-02-28T11:40:19Z</time>
      </trkpt>
      <trkpt lat="46.69484" lon="5.72718">
        <ele>595.2</ele>
        <time>2020-02-28T11:40:20Z</time>
      </trkpt>
      <trkpt lat="46.69479" lon="5.7272">
        <ele>595</ele>
        <time>2020-02-28T11:40:21Z</time>
      </trkpt>
      <trkpt lat="46.69473" lon="5.72721">
        <ele>595</ele>
        <time>2020-02-28T11:40:22Z</time>
      </trkpt>
      <trkpt lat="46.69468" lon="5.72723">
        <ele>595</ele>
        <time>2020-02-28T11:40:23Z</time>
      </trkpt>
      <trkpt lat="46.69462" lon="5.72724">
        <ele>595</ele>
        <time>2020-02-28T11:40:24Z</time>
      </trkpt>
      <trkpt lat="46.69456" lon="5.72725">
        <ele>594.8</ele>
        <time>2020-02-28T11:40:25Z</time>
      </trkpt>
      <trkpt lat="46.69447" lon="5.72728">
        <ele>594.8</ele>
        <time>2020-02-28T11:40:26Z</time>
      </trkpt>
      <trkpt lat="46.69444" lon="5.72728">
        <ele>594.8</ele>
        <time>2020-02-28T11:40:27Z</time>
      </trkpt>
      <trkpt lat="46.69438" lon="5.7273">
        <ele>594.4</ele>
        <time>2020-02-28T11:40:28Z</time>
      </trkpt>
      <trkpt lat="46.69431" lon="5.72731">
        <ele>594.4</ele>
        <time>2020-02-28T11:40:29Z</time>
      </trkpt>
      <trkpt lat="46.69422" lon="5.72734">
        <ele>594.4</ele>
        <time>2020-02-28T11:40:30Z</time>
      </trkpt>
      <trkpt lat="46.69418" lon="5.72734">
        <ele>594.4</ele>
        <time>2020-02-28T11:40:31Z</time>
      </trkpt>
      <trkpt lat="46.69412" lon="5.72736">
        <ele>594.4</ele>
        <time>2020-02-28T11:40:32Z</time>
      </trkpt>
      <trkpt lat="46.69405" lon="5.72738">
        <ele>594.4</ele>
        <time>2020-02-28T11:40:33Z</time>
      </trkpt>
      <trkpt lat="46.69399" lon="5.72739">
        <ele>594.4</ele>
        <time>2020-02-28T11:40:34Z</time>
      </trkpt>
      <trkpt lat="46.69392" lon="5.72741">
        <ele>594.4</ele>
        <time>2020-02-28T11:40:35Z</time>
      </trkpt>
      <trkpt lat="46.69385" lon="5.72743">
        <ele>594.2</ele>
        <time>2020-02-28T11:40:36Z</time>
      </trkpt>
      <trkpt lat="46.69379" lon="5.72744">
        <ele>594.2</ele>
        <time>2020-02-28T11:40:37Z</time>
      </trkpt>
      <trkpt lat="46.69372" lon="5.72746">
        <ele>594.2</ele>
        <time>2020-02-28T11:40:38Z</time>
      </trkpt>
      <trkpt lat="46.69365" lon="5.72748">
        <ele>594.2</ele>
        <time>2020-02-28T11:40:39Z</time>
      </trkpt>
      <trkpt lat="46.69359" lon="5.72749">
        <ele>594.2</ele>
        <time>2020-02-28T11:40:40Z</time>
      </trkpt>
      <trkpt lat="46.69352" lon="5.72751">
        <ele>594.2</ele>
        <time>2020-02-28T11:40:41Z</time>
      </trkpt>
      <trkpt lat="46.69345" lon="5.72753">
        <ele>594.2</ele>
        <time>2020-02-28T11:40:42Z</time>
      </trkpt>
      <trkpt lat="46.69339" lon="5.72755">
        <ele>594</ele>
        <time>2020-02-28T11:40:43Z</time>
      </trkpt>
      <trkpt lat="46.69332" lon="5.72757">
        <ele>594</ele>
        <time>2020-02-28T11:40:44Z</time>
      </trkpt>
      <trkpt lat="46.69326" lon="5.72759">
        <ele>594</ele>
        <time>2020-02-28T11:40:45Z</time>
      </trkpt>
      <trkpt lat="46.69319" lon="5.72761">
        <ele>594</ele>
        <time>2020-02-28T11:40:46Z</time>
      </trkpt>
      <trkpt lat="46.69313" lon="5.72762">
        <ele>593.8</ele>
        <time>2020-02-28T11:40:47Z</time>
      </trkpt>
      <trkpt lat="46.69306" lon="5.72764">
        <ele>593.8</ele>
        <time>2020-02-28T11:40:48Z</time>
      </trkpt>
      <trkpt lat="46.693" lon="5.72766">
        <ele>593.8</ele>
        <time>2020-02-28T11:40:49Z</time>
      </trkpt>
      <trkpt lat="46.69293" lon="5.72768">
        <ele>593.8</ele>
        <time>2020-02-28T11:40:50Z</time>
      </trkpt>
      <trkpt lat="46.69287" lon="5.72769">
        <ele>593.4</ele>
        <time>2020-02-28T11:40:51Z</time>
      </trkpt>
      <trkpt lat="46.69281" lon="5.72771">
        <ele>593.4</ele>
        <time>2020-02-28T11:40:52Z</time>
      </trkpt>
      <trkpt lat="46.69275" lon="5.72772">
        <ele>593.4</ele>
        <time>2020-02-28T11:40:53Z</time>
      </trkpt>
      <trkpt lat="46.69268" lon="5.72774">
        <ele>593.4</ele>
        <time>2020-02-28T11:40:54Z</time>
      </trkpt>
      <trkpt lat="46.69262" lon="5.72775">
        <ele>593.4</ele>
        <time>2020-02-28T11:40:55Z</time>
      </trkpt>
      <trkpt lat="46.69257" lon="5.72777">
        <ele>593.4</ele>
        <time>2020-02-28T11:40:56Z</time>
      </trkpt>
      <trkpt lat="46.69251" lon="5.72779">
        <ele>593.4</ele>
        <time>2020-02-28T11:40:57Z</time>
      </trkpt>
      <trkpt lat="46.69245" lon="5.7278">
        <ele>593.4</ele>
        <time>2020-02-28T11:40:58Z</time>
      </trkpt>
      <trkpt lat="46.69237" lon="5.72782">
        <ele>593.4</ele>
        <time>2020-02-28T11:40:59Z</time>
      </trkpt>
      <trkpt lat="46.69234" lon="5.72783">
        <ele>593.4</ele>
        <time>2020-02-28T11:41:00Z</time>
      </trkpt>
      <trkpt lat="46.69229" lon="5.72784">
        <ele>593.4</ele>
        <time>2020-02-28T11:41:01Z</time>
      </trkpt>
      <trkpt lat="46.69224" lon="5.72786">
        <ele>593.6</ele>
        <time>2020-02-28T11:41:02Z</time>
      </trkpt>
      <trkpt lat="46.69219" lon="5.72787">
        <ele>593.6</ele>
        <time>2020-02-28T11:41:03Z</time>
      </trkpt>
      <trkpt lat="46.69215" lon="5.72789">
        <ele>594</ele>
        <time>2020-02-28T11:41:04Z</time>
      </trkpt>
      <trkpt lat="46.6921" lon="5.7279">
        <ele>594</ele>
        <time>2020-02-28T11:41:05Z</time>
      </trkpt>
      <trkpt lat="46.69206" lon="5.72791">
        <ele>594.4</ele>
        <time>2020-02-28T11:41:06Z</time>
      </trkpt>
      <trkpt lat="46.69201" lon="5.72792">
        <ele>594.6</ele>
        <time>2020-02-28T11:41:07Z</time>
      </trkpt>
      <trkpt lat="46.69197" lon="5.72793">
        <ele>594.6</ele>
        <time>2020-02-28T11:41:08Z</time>
      </trkpt>
      <trkpt lat="46.69193" lon="5.72795">
        <ele>594.8</ele>
        <time>2020-02-28T11:41:09Z</time>
      </trkpt>
      <trkpt lat="46.69189" lon="5.72796">
        <ele>594.8</ele>
        <time>2020-02-28T11:41:10Z</time>
      </trkpt>
      <trkpt lat="46.69185" lon="5.72796">
        <ele>595.2</ele>
        <time>2020-02-28T11:41:11Z</time>
      </trkpt>
      <trkpt lat="46.69179" lon="5.72797">
        <ele>595.4</ele>
        <time>2020-02-28T11:41:12Z</time>
      </trkpt>
      <trkpt lat="46.69177" lon="5.72798">
        <ele>595.8</ele>
        <time>2020-02-28T11:41:13Z</time>
      </trkpt>
      <trkpt lat="46.69173" lon="5.72798">
        <ele>595.8</ele>
        <time>2020-02-28T11:41:14Z</time>
      </trkpt>
      <trkpt lat="46.69169" lon="5.72799">
        <ele>596.2</ele>
        <time>2020-02-28T11:41:15Z</time>
      </trkpt>
      <trkpt lat="46.69166" lon="5.728">
        <ele>596.2</ele>
        <time>2020-02-28T11:41:16Z</time>
      </trkpt>
      <trkpt lat="46.69162" lon="5.72801">
        <ele>596.4</ele>
        <time>2020-02-28T11:41:17Z</time>
      </trkpt>
      <trkpt lat="46.69159" lon="5.72802">
        <ele>596.4</ele>
        <time>2020-02-28T11:41:18Z</time>
      </trkpt>
      <trkpt lat="46.69155" lon="5.72802">
        <ele>596.8</ele>
        <time>2020-02-28T11:41:19Z</time>
      </trkpt>
      <trkpt lat="46.69152" lon="5.72803">
        <ele>597</ele>
        <time>2020-02-28T11:41:20Z</time>
      </trkpt>
      <trkpt lat="46.69149" lon="5.72804">
        <ele>597</ele>
        <time>2020-02-28T11:41:21Z</time>
      </trkpt>
      <trkpt lat="46.69144" lon="5.72805">
        <ele>597.4</ele>
        <time>2020-02-28T11:41:22Z</time>
      </trkpt>
      <trkpt lat="46.69143" lon="5.72805">
        <ele>597.8</ele>
        <time>2020-02-28T11:41:23Z</time>
      </trkpt>
      <trkpt lat="46.6914" lon="5.72806">
        <ele>598</ele>
        <time>2020-02-28T11:41:24Z</time>
      </trkpt>
      <trkpt lat="46.69136" lon="5.72806">
        <ele>598.2</ele>
        <time>2020-02-28T11:41:25Z</time>
      </trkpt>
      <trkpt lat="46.69133" lon="5.72806">
        <ele>598.6</ele>
        <time>2020-02-28T11:41:26Z</time>
      </trkpt>
      <trkpt lat="46.6913" lon="5.72807">
        <ele>598.8</ele>
        <time>2020-02-28T11:41:27Z</time>
      </trkpt>
      <trkpt lat="46.69127" lon="5.72808">
        <ele>598.8</ele>
        <time>2020-02-28T11:41:28Z</time>
      </trkpt>
      <trkpt lat="46.69124" lon="5.72808">
        <ele>599</ele>
        <time>2020-02-28T11:41:29Z</time>
      </trkpt>
      <trkpt lat="46.69121" lon="5.72808">
        <ele>599</ele>
        <time>2020-02-28T11:41:30Z</time>
      </trkpt>
      <trkpt lat="46.69119" lon="5.72809">
        <ele>599.4</ele>
        <time>2020-02-28T11:41:31Z</time>
      </trkpt>
      <trkpt lat="46.69116" lon="5.7281">
        <ele>599.6</ele>
        <time>2020-02-28T11:41:32Z</time>
      </trkpt>
      <trkpt lat="46.69113" lon="5.7281">
        <ele>599.6</ele>
        <time>2020-02-28T11:41:33Z</time>
      </trkpt>
      <trkpt lat="46.6911" lon="5.72811">
        <ele>599.8</ele>
        <time>2020-02-28T11:41:34Z</time>
      </trkpt>
      <trkpt lat="46.69107" lon="5.72811">
        <ele>599.8</ele>
        <time>2020-02-28T11:41:35Z</time>
      </trkpt>
      <trkpt lat="46.69104" lon="5.72811">
        <ele>599.8</ele>
        <time>2020-02-28T11:41:36Z</time>
      </trkpt>
      <trkpt lat="46.691" lon="5.72811">
        <ele>599.8</ele>
        <time>2020-02-28T11:41:37Z</time>
      </trkpt>
      <trkpt lat="46.69097" lon="5.72812">
        <ele>600.2</ele>
        <time>2020-02-28T11:41:38Z</time>
      </trkpt>
      <trkpt lat="46.69094" lon="5.72812">
        <ele>600.2</ele>
        <time>2020-02-28T11:41:39Z</time>
      </trkpt>
      <trkpt lat="46.6909" lon="5.72813">
        <ele>600.2</ele>
        <time>2020-02-28T11:41:40Z</time>
      </trkpt>
      <trkpt lat="46.69086" lon="5.72813">
        <ele>600.2</ele>
        <time>2020-02-28T11:41:41Z</time>
      </trkpt>
      <trkpt lat="46.69082" lon="5.72813">
        <ele>600.2</ele>
        <time>2020-02-28T11:41:42Z</time>
      </trkpt>
      <trkpt lat="46.69077" lon="5.72814">
        <ele>600.2</ele>
        <time>2020-02-28T11:41:43Z</time>
      </trkpt>
      <trkpt lat="46.69069" lon="5.72813">
        <ele>600.2</ele>
        <time>2020-02-28T11:41:44Z</time>
      </trkpt>
      <trkpt lat="46.69067" lon="5.72813">
        <ele>600.2</ele>
        <time>2020-02-28T11:41:45Z</time>
      </trkpt>
      <trkpt lat="46.69062" lon="5.72812">
        <ele>600.2</ele>
        <time>2020-02-28T11:41:46Z</time>
      </trkpt>
      <trkpt lat="46.69055" lon="5.7281">
        <ele>600.2</ele>
        <time>2020-02-28T11:41:47Z</time>
      </trkpt>
      <trkpt lat="46.69053" lon="5.72809">
        <ele>600.2</ele>
        <time>2020-02-28T11:41:48Z</time>
      </trkpt>
      <trkpt lat="46.69048" lon="5.72808">
        <ele>600.2</ele>
        <time>2020-02-28T11:41:49Z</time>
      </trkpt>
      <trkpt lat="46.69043" lon="5.72807">
        <ele>600.2</ele>
        <time>2020-02-28T11:41:50Z</time>
      </trkpt>
      <trkpt lat="46.69038" lon="5.72805">
        <ele>600.2</ele>
        <time>2020-02-28T11:41:51Z</time>
      </trkpt>
      <trkpt lat="46.69033" lon="5.72803">
        <ele>600.2</ele>
        <time>2020-02-28T11:41:52Z</time>
      </trkpt>
      <trkpt lat="46.69028" lon="5.728">
        <ele>600.2</ele>
        <time>2020-02-28T11:41:53Z</time>
      </trkpt>
      <trkpt lat="46.69024" lon="5.72798">
        <ele>600.2</ele>
        <time>2020-02-28T11:41:54Z</time>
      </trkpt>
      <trkpt lat="46.69019" lon="5.72795">
        <ele>600.2</ele>
        <time>2020-02-28T11:41:55Z</time>
      </trkpt>
      <trkpt lat="46.69014" lon="5.72792">
        <ele>600.2</ele>
        <time>2020-02-28T11:41:56Z</time>
      </trkpt>
      <trkpt lat="46.69009" lon="5.72789">
        <ele>600.2</ele>
        <time>2020-02-28T11:41:57Z</time>
      </trkpt>
      <trkpt lat="46.69004" lon="5.72786">
        <ele>599.8</ele>
        <time>2020-02-28T11:41:58Z</time>
      </trkpt>
      <trkpt lat="46.68999" lon="5.72782">
        <ele>599.8</ele>
        <time>2020-02-28T11:41:59Z</time>
      </trkpt>
      <trkpt lat="46.68993" lon="5.72779">
        <ele>599.8</ele>
        <time>2020-02-28T11:42:00Z</time>
      </trkpt>
      <trkpt lat="46.68985" lon="5.72774">
        <ele>599.6</ele>
        <time>2020-02-28T11:42:01Z</time>
      </trkpt>
      <trkpt lat="46.68983" lon="5.72772">
        <ele>599.6</ele>
        <time>2020-02-28T11:42:02Z</time>
      </trkpt>
      <trkpt lat="46.68978" lon="5.72768">
        <ele>599.6</ele>
        <time>2020-02-28T11:42:03Z</time>
      </trkpt>
      <trkpt lat="46.68972" lon="5.72764">
        <ele>599.4</ele>
        <time>2020-02-28T11:42:04Z</time>
      </trkpt>
      <trkpt lat="46.68967" lon="5.7276">
        <ele>599.4</ele>
        <time>2020-02-28T11:42:05Z</time>
      </trkpt>
      <trkpt lat="46.68962" lon="5.72756">
        <ele>599.4</ele>
        <time>2020-02-28T11:42:06Z</time>
      </trkpt>
      <trkpt lat="46.68957" lon="5.72751">
        <ele>599.4</ele>
        <time>2020-02-28T11:42:07Z</time>
      </trkpt>
      <trkpt lat="46.68952" lon="5.72747">
        <ele>599</ele>
        <time>2020-02-28T11:42:08Z</time>
      </trkpt>
      <trkpt lat="46.68947" lon="5.72743">
        <ele>599</ele>
        <time>2020-02-28T11:42:09Z</time>
      </trkpt>
      <trkpt lat="46.68942" lon="5.72739">
        <ele>599</ele>
        <time>2020-02-28T11:42:10Z</time>
      </trkpt>
      <trkpt lat="46.68937" lon="5.72735">
        <ele>599</ele>
        <time>2020-02-28T11:42:11Z</time>
      </trkpt>
      <trkpt lat="46.68932" lon="5.72731">
        <ele>599</ele>
        <time>2020-02-28T11:42:12Z</time>
      </trkpt>
      <trkpt lat="46.68927" lon="5.72727">
        <ele>599</ele>
        <time>2020-02-28T11:42:13Z</time>
      </trkpt>
      <trkpt lat="46.68921" lon="5.72722">
        <ele>598.8</ele>
        <time>2020-02-28T11:42:14Z</time>
      </trkpt>
      <trkpt lat="46.68916" lon="5.72718">
        <ele>598.8</ele>
        <time>2020-02-28T11:42:15Z</time>
      </trkpt>
      <trkpt lat="46.68911" lon="5.72713">
        <ele>598.8</ele>
        <time>2020-02-28T11:42:16Z</time>
      </trkpt>
      <trkpt lat="46.68905" lon="5.72708">
        <ele>598.8</ele>
        <time>2020-02-28T11:42:17Z</time>
      </trkpt>
      <trkpt lat="46.68899" lon="5.72703">
        <ele>598.6</ele>
        <time>2020-02-28T11:42:18Z</time>
      </trkpt>
      <trkpt lat="46.68894" lon="5.72698">
        <ele>598.6</ele>
        <time>2020-02-28T11:42:19Z</time>
      </trkpt>
      <trkpt lat="46.68888" lon="5.72694">
        <ele>598.6</ele>
        <time>2020-02-28T11:42:20Z</time>
      </trkpt>
      <trkpt lat="46.68883" lon="5.72689">
        <ele>598.6</ele>
        <time>2020-02-28T11:42:21Z</time>
      </trkpt>
      <trkpt lat="46.68878" lon="5.72684">
        <ele>598.6</ele>
        <time>2020-02-28T11:42:22Z</time>
      </trkpt>
      <trkpt lat="46.68872" lon="5.72678">
        <ele>598.6</ele>
        <time>2020-02-28T11:42:23Z</time>
      </trkpt>
      <trkpt lat="46.68867" lon="5.72674">
        <ele>598.6</ele>
        <time>2020-02-28T11:42:24Z</time>
      </trkpt>
      <trkpt lat="46.68861" lon="5.72669">
        <ele>598.6</ele>
        <time>2020-02-28T11:42:25Z</time>
      </trkpt>
      <trkpt lat="46.68856" lon="5.72663">
        <ele>598.6</ele>
        <time>2020-02-28T11:42:26Z</time>
      </trkpt>
      <trkpt lat="46.6885" lon="5.72659">
        <ele>598.6</ele>
        <time>2020-02-28T11:42:27Z</time>
      </trkpt>
      <trkpt lat="46.68844" lon="5.72653">
        <ele>598.6</ele>
        <time>2020-02-28T11:42:28Z</time>
      </trkpt>
      <trkpt lat="46.68838" lon="5.72649">
        <ele>598.6</ele>
        <time>2020-02-28T11:42:29Z</time>
      </trkpt>
      <trkpt lat="46.68832" lon="5.72644">
        <ele>598.2</ele>
        <time>2020-02-28T11:42:30Z</time>
      </trkpt>
      <trkpt lat="46.68827" lon="5.72639">
        <ele>598.2</ele>
        <time>2020-02-28T11:42:31Z</time>
      </trkpt>
      <trkpt lat="46.6882" lon="5.72635">
        <ele>598.2</ele>
        <time>2020-02-28T11:42:32Z</time>
      </trkpt>
      <trkpt lat="46.68814" lon="5.7263">
        <ele>598</ele>
        <time>2020-02-28T11:42:33Z</time>
      </trkpt>
      <trkpt lat="46.68808" lon="5.72626">
        <ele>598</ele>
        <time>2020-02-28T11:42:34Z</time>
      </trkpt>
      <trkpt lat="46.68801" lon="5.72622">
        <ele>598</ele>
        <time>2020-02-28T11:42:35Z</time>
      </trkpt>
      <trkpt lat="46.68794" lon="5.72618">
        <ele>597.8</ele>
        <time>2020-02-28T11:42:36Z</time>
      </trkpt>
      <trkpt lat="46.68788" lon="5.72614">
        <ele>597.8</ele>
        <time>2020-02-28T11:42:37Z</time>
      </trkpt>
      <trkpt lat="46.68782" lon="5.7261">
        <ele>597.8</ele>
        <time>2020-02-28T11:42:38Z</time>
      </trkpt>
      <trkpt lat="46.68775" lon="5.72606">
        <ele>597.8</ele>
        <time>2020-02-28T11:42:39Z</time>
      </trkpt>
      <trkpt lat="46.68769" lon="5.72603">
        <ele>597.8</ele>
        <time>2020-02-28T11:42:40Z</time>
      </trkpt>
      <trkpt lat="46.68763" lon="5.726">
        <ele>597.8</ele>
        <time>2020-02-28T11:42:41Z</time>
      </trkpt>
      <trkpt lat="46.68756" lon="5.72597">
        <ele>597.8</ele>
        <time>2020-02-28T11:42:42Z</time>
      </trkpt>
      <trkpt lat="46.68751" lon="5.72594">
        <ele>597.4</ele>
        <time>2020-02-28T11:42:43Z</time>
      </trkpt>
      <trkpt lat="46.68745" lon="5.72592">
        <ele>597.4</ele>
        <time>2020-02-28T11:42:44Z</time>
      </trkpt>
      <trkpt lat="46.68739" lon="5.72589">
        <ele>597.4</ele>
        <time>2020-02-28T11:42:45Z</time>
      </trkpt>
      <trkpt lat="46.68733" lon="5.72586">
        <ele>597.4</ele>
        <time>2020-02-28T11:42:46Z</time>
      </trkpt>
      <trkpt lat="46.68727" lon="5.72584">
        <ele>597.4</ele>
        <time>2020-02-28T11:42:47Z</time>
      </trkpt>
      <trkpt lat="46.68722" lon="5.72581">
        <ele>597.2</ele>
        <time>2020-02-28T11:42:48Z</time>
      </trkpt>
      <trkpt lat="46.68716" lon="5.72579">
        <ele>597.2</ele>
        <time>2020-02-28T11:42:49Z</time>
      </trkpt>
      <trkpt lat="46.68708" lon="5.72575">
        <ele>597</ele>
        <time>2020-02-28T11:42:50Z</time>
      </trkpt>
      <trkpt lat="46.68705" lon="5.72573">
        <ele>597</ele>
        <time>2020-02-28T11:42:51Z</time>
      </trkpt>
      <trkpt lat="46.68699" lon="5.7257">
        <ele>597</ele>
        <time>2020-02-28T11:42:52Z</time>
      </trkpt>
      <trkpt lat="46.68694" lon="5.72567">
        <ele>597</ele>
        <time>2020-02-28T11:42:53Z</time>
      </trkpt>
      <trkpt lat="46.68688" lon="5.72564">
        <ele>597</ele>
        <time>2020-02-28T11:42:54Z</time>
      </trkpt>
      <trkpt lat="46.68682" lon="5.72561">
        <ele>597</ele>
        <time>2020-02-28T11:42:55Z</time>
      </trkpt>
      <trkpt lat="46.68676" lon="5.72558">
        <ele>597</ele>
        <time>2020-02-28T11:42:56Z</time>
      </trkpt>
      <trkpt lat="46.6867" lon="5.72555">
        <ele>597</ele>
        <time>2020-02-28T11:42:57Z</time>
      </trkpt>
      <trkpt lat="46.68665" lon="5.72551">
        <ele>597</ele>
        <time>2020-02-28T11:42:58Z</time>
      </trkpt>
      <trkpt lat="46.6866" lon="5.72549">
        <ele>597</ele>
        <time>2020-02-28T11:42:59Z</time>
      </trkpt>
      <trkpt lat="46.68655" lon="5.72546">
        <ele>597</ele>
        <time>2020-02-28T11:43:00Z</time>
      </trkpt>
      <trkpt lat="46.6865" lon="5.72543">
        <ele>597</ele>
        <time>2020-02-28T11:43:01Z</time>
      </trkpt>
      <trkpt lat="46.68642" lon="5.72539">
        <ele>596.8</ele>
        <time>2020-02-28T11:43:02Z</time>
      </trkpt>
      <trkpt lat="46.68639" lon="5.72537">
        <ele>596.8</ele>
        <time>2020-02-28T11:43:03Z</time>
      </trkpt>
      <trkpt lat="46.68633" lon="5.72535">
        <ele>596.8</ele>
        <time>2020-02-28T11:43:04Z</time>
      </trkpt>
      <trkpt lat="46.68628" lon="5.72532">
        <ele>596.8</ele>
        <time>2020-02-28T11:43:05Z</time>
      </trkpt>
      <trkpt lat="46.68623" lon="5.7253">
        <ele>596.8</ele>
        <time>2020-02-28T11:43:06Z</time>
      </trkpt>
      <trkpt lat="46.68618" lon="5.72526">
        <ele>596.8</ele>
        <time>2020-02-28T11:43:07Z</time>
      </trkpt>
      <trkpt lat="46.68611" lon="5.72522">
        <ele>596.6</ele>
        <time>2020-02-28T11:43:08Z</time>
      </trkpt>
      <trkpt lat="46.68609" lon="5.72521">
        <ele>596.6</ele>
        <time>2020-02-28T11:43:09Z</time>
      </trkpt>
      <trkpt lat="46.68604" lon="5.72518">
        <ele>596.6</ele>
        <time>2020-02-28T11:43:10Z</time>
      </trkpt>
      <trkpt lat="46.68598" lon="5.72515">
        <ele>596.6</ele>
        <time>2020-02-28T11:43:11Z</time>
      </trkpt>
      <trkpt lat="46.68593" lon="5.72513">
        <ele>596.6</ele>
        <time>2020-02-28T11:43:12Z</time>
      </trkpt>
      <trkpt lat="46.68587" lon="5.72511">
        <ele>596.4</ele>
        <time>2020-02-28T11:43:13Z</time>
      </trkpt>
      <trkpt lat="46.68582" lon="5.72508">
        <ele>596.4</ele>
        <time>2020-02-28T11:43:14Z</time>
      </trkpt>
      <trkpt lat="46.68577" lon="5.72506">
        <ele>596.4</ele>
        <time>2020-02-28T11:43:15Z</time>
      </trkpt>
      <trkpt lat="46.68572" lon="5.72504">
        <ele>596.4</ele>
        <time>2020-02-28T11:43:16Z</time>
      </trkpt>
      <trkpt lat="46.68566" lon="5.72501">
        <ele>596</ele>
        <time>2020-02-28T11:43:17Z</time>
      </trkpt>
      <trkpt lat="46.6856" lon="5.72498">
        <ele>596</ele>
        <time>2020-02-28T11:43:18Z</time>
      </trkpt>
      <trkpt lat="46.68555" lon="5.72495">
        <ele>596</ele>
        <time>2020-02-28T11:43:19Z</time>
      </trkpt>
      <trkpt lat="46.68549" lon="5.72492">
        <ele>596</ele>
        <time>2020-02-28T11:43:20Z</time>
      </trkpt>
      <trkpt lat="46.68544" lon="5.72489">
        <ele>596</ele>
        <time>2020-02-28T11:43:21Z</time>
      </trkpt>
      <trkpt lat="46.68539" lon="5.72485">
        <ele>595.8</ele>
        <time>2020-02-28T11:43:22Z</time>
      </trkpt>
      <trkpt lat="46.68534" lon="5.72482">
        <ele>595.8</ele>
        <time>2020-02-28T11:43:23Z</time>
      </trkpt>
      <trkpt lat="46.68529" lon="5.72478">
        <ele>595.8</ele>
        <time>2020-02-28T11:43:24Z</time>
      </trkpt>
      <trkpt lat="46.68522" lon="5.72473">
        <ele>595.8</ele>
        <time>2020-02-28T11:43:25Z</time>
      </trkpt>
      <trkpt lat="46.68516" lon="5.72469">
        <ele>595.8</ele>
        <time>2020-02-28T11:43:26Z</time>
      </trkpt>
      <trkpt lat="46.6851" lon="5.72464">
        <ele>595.8</ele>
        <time>2020-02-28T11:43:27Z</time>
      </trkpt>
      <trkpt lat="46.68504" lon="5.7246">
        <ele>595.8</ele>
        <time>2020-02-28T11:43:28Z</time>
      </trkpt>
      <trkpt lat="46.68497" lon="5.72454">
        <ele>595.8</ele>
        <time>2020-02-28T11:43:29Z</time>
      </trkpt>
      <trkpt lat="46.68491" lon="5.72449">
        <ele>595.8</ele>
        <time>2020-02-28T11:43:30Z</time>
      </trkpt>
      <trkpt lat="46.68485" lon="5.72444">
        <ele>595.8</ele>
        <time>2020-02-28T11:43:31Z</time>
      </trkpt>
      <trkpt lat="46.68478" lon="5.72439">
        <ele>595.8</ele>
        <time>2020-02-28T11:43:32Z</time>
      </trkpt>
      <trkpt lat="46.68471" lon="5.72434">
        <ele>595.8</ele>
        <time>2020-02-28T11:43:33Z</time>
      </trkpt>
      <trkpt lat="46.68465" lon="5.72429">
        <ele>595.8</ele>
        <time>2020-02-28T11:43:34Z</time>
      </trkpt>
      <trkpt lat="46.68458" lon="5.72425">
        <ele>595.8</ele>
        <time>2020-02-28T11:43:35Z</time>
      </trkpt>
      <trkpt lat="46.68452" lon="5.7242">
        <ele>595.8</ele>
        <time>2020-02-28T11:43:36Z</time>
      </trkpt>
      <trkpt lat="46.68445" lon="5.72415">
        <ele>595.8</ele>
        <time>2020-02-28T11:43:37Z</time>
      </trkpt>
      <trkpt lat="46.68438" lon="5.7241">
        <ele>595.8</ele>
        <time>2020-02-28T11:43:38Z</time>
      </trkpt>
      <trkpt lat="46.68431" lon="5.72405">
        <ele>595.8</ele>
        <time>2020-02-28T11:43:39Z</time>
      </trkpt>
      <trkpt lat="46.68423" lon="5.724">
        <ele>595.8</ele>
        <time>2020-02-28T11:43:40Z</time>
      </trkpt>
      <trkpt lat="46.68417" lon="5.72396">
        <ele>595.8</ele>
        <time>2020-02-28T11:43:41Z</time>
      </trkpt>
      <trkpt lat="46.6841" lon="5.72392">
        <ele>595.6</ele>
        <time>2020-02-28T11:43:42Z</time>
      </trkpt>
      <trkpt lat="46.68403" lon="5.72389">
        <ele>595.6</ele>
        <time>2020-02-28T11:43:43Z</time>
      </trkpt>
      <trkpt lat="46.68396" lon="5.72385">
        <ele>595.4</ele>
        <time>2020-02-28T11:43:44Z</time>
      </trkpt>
      <trkpt lat="46.68389" lon="5.72383">
        <ele>595.4</ele>
        <time>2020-02-28T11:43:45Z</time>
      </trkpt>
      <trkpt lat="46.68383" lon="5.72383">
        <ele>595.4</ele>
        <time>2020-02-28T11:43:46Z</time>
      </trkpt>
      <trkpt lat="46.68377" lon="5.72382">
        <ele>595.4</ele>
        <time>2020-02-28T11:43:47Z</time>
      </trkpt>
      <trkpt lat="46.68367" lon="5.7238">
        <ele>595.4</ele>
        <time>2020-02-28T11:43:48Z</time>
      </trkpt>
      <trkpt lat="46.68365" lon="5.7238">
        <ele>595.2</ele>
        <time>2020-02-28T11:43:49Z</time>
      </trkpt>
      <trkpt lat="46.68359" lon="5.72379">
        <ele>595.2</ele>
        <time>2020-02-28T11:43:50Z</time>
      </trkpt>
      <trkpt lat="46.68353" lon="5.72379">
        <ele>595.2</ele>
        <time>2020-02-28T11:43:51Z</time>
      </trkpt>
      <trkpt lat="46.68347" lon="5.7238">
        <ele>595.2</ele>
        <time>2020-02-28T11:43:52Z</time>
      </trkpt>
      <trkpt lat="46.68341" lon="5.72381">
        <ele>595.2</ele>
        <time>2020-02-28T11:43:53Z</time>
      </trkpt>
      <trkpt lat="46.68335" lon="5.72383">
        <ele>595.2</ele>
        <time>2020-02-28T11:43:54Z</time>
      </trkpt>
      <trkpt lat="46.68329" lon="5.72385">
        <ele>595.2</ele>
        <time>2020-02-28T11:43:55Z</time>
      </trkpt>
      <trkpt lat="46.68322" lon="5.72387">
        <ele>595.2</ele>
        <time>2020-02-28T11:43:56Z</time>
      </trkpt>
      <trkpt lat="46.68316" lon="5.7239">
        <ele>595.2</ele>
        <time>2020-02-28T11:43:57Z</time>
      </trkpt>
      <trkpt lat="46.6831" lon="5.72393">
        <ele>595.2</ele>
        <time>2020-02-28T11:43:58Z</time>
      </trkpt>
      <trkpt lat="46.68303" lon="5.72396">
        <ele>595.2</ele>
        <time>2020-02-28T11:43:59Z</time>
      </trkpt>
      <trkpt lat="46.68297" lon="5.72398">
        <ele>595.2</ele>
        <time>2020-02-28T11:44:00Z</time>
      </trkpt>
      <trkpt lat="46.68291" lon="5.724">
        <ele>595.2</ele>
        <time>2020-02-28T11:44:01Z</time>
      </trkpt>
      <trkpt lat="46.68285" lon="5.72403">
        <ele>595.2</ele>
        <time>2020-02-28T11:44:02Z</time>
      </trkpt>
      <trkpt lat="46.68279" lon="5.72406">
        <ele>595.2</ele>
        <time>2020-02-28T11:44:03Z</time>
      </trkpt>
      <trkpt lat="46.68272" lon="5.72409">
        <ele>595.2</ele>
        <time>2020-02-28T11:44:04Z</time>
      </trkpt>
      <trkpt lat="46.68266" lon="5.72411">
        <ele>595.2</ele>
        <time>2020-02-28T11:44:05Z</time>
      </trkpt>
      <trkpt lat="46.68261" lon="5.72414">
        <ele>595.2</ele>
        <time>2020-02-28T11:44:06Z</time>
      </trkpt>
      <trkpt lat="46.68252" lon="5.72417">
        <ele>595.2</ele>
        <time>2020-02-28T11:44:07Z</time>
      </trkpt>
      <trkpt lat="46.68249" lon="5.72419">
        <ele>595</ele>
        <time>2020-02-28T11:44:08Z</time>
      </trkpt>
      <trkpt lat="46.68244" lon="5.72421">
        <ele>595</ele>
        <time>2020-02-28T11:44:09Z</time>
      </trkpt>
      <trkpt lat="46.68238" lon="5.72422">
        <ele>594.6</ele>
        <time>2020-02-28T11:44:10Z</time>
      </trkpt>
      <trkpt lat="46.68232" lon="5.72423">
        <ele>594.6</ele>
        <time>2020-02-28T11:44:11Z</time>
      </trkpt>
      <trkpt lat="46.68226" lon="5.72425">
        <ele>594.6</ele>
        <time>2020-02-28T11:44:12Z</time>
      </trkpt>
      <trkpt lat="46.68221" lon="5.72425">
        <ele>594.4</ele>
        <time>2020-02-28T11:44:13Z</time>
      </trkpt>
      <trkpt lat="46.68215" lon="5.72426">
        <ele>594.4</ele>
        <time>2020-02-28T11:44:14Z</time>
      </trkpt>
      <trkpt lat="46.6821" lon="5.72428">
        <ele>594.4</ele>
        <time>2020-02-28T11:44:15Z</time>
      </trkpt>
      <trkpt lat="46.68205" lon="5.7243">
        <ele>594.4</ele>
        <time>2020-02-28T11:44:16Z</time>
      </trkpt>
      <trkpt lat="46.68199" lon="5.72432">
        <ele>594.4</ele>
        <time>2020-02-28T11:44:17Z</time>
      </trkpt>
      <trkpt lat="46.68194" lon="5.72433">
        <ele>594.4</ele>
        <time>2020-02-28T11:44:18Z</time>
      </trkpt>
      <trkpt lat="46.68188" lon="5.72435">
        <ele>594.4</ele>
        <time>2020-02-28T11:44:19Z</time>
      </trkpt>
      <trkpt lat="46.68182" lon="5.72436">
        <ele>594</ele>
        <time>2020-02-28T11:44:20Z</time>
      </trkpt>
      <trkpt lat="46.68175" lon="5.72436">
        <ele>594</ele>
        <time>2020-02-28T11:44:21Z</time>
      </trkpt>
      <trkpt lat="46.68168" lon="5.72437">
        <ele>594</ele>
        <time>2020-02-28T11:44:22Z</time>
      </trkpt>
      <trkpt lat="46.68162" lon="5.72438">
        <ele>594</ele>
        <time>2020-02-28T11:44:23Z</time>
      </trkpt>
      <trkpt lat="46.68156" lon="5.72438">
        <ele>594</ele>
        <time>2020-02-28T11:44:24Z</time>
      </trkpt>
      <trkpt lat="46.68151" lon="5.72439">
        <ele>594</ele>
        <time>2020-02-28T11:44:25Z</time>
      </trkpt>
      <trkpt lat="46.68145" lon="5.72439">
        <ele>594</ele>
        <time>2020-02-28T11:44:26Z</time>
      </trkpt>
      <trkpt lat="46.68137" lon="5.72439">
        <ele>594</ele>
        <time>2020-02-28T11:44:27Z</time>
      </trkpt>
      <trkpt lat="46.6813" lon="5.72438">
        <ele>594.4</ele>
        <time>2020-02-28T11:44:28Z</time>
      </trkpt>
      <trkpt lat="46.68124" lon="5.72437">
        <ele>594.4</ele>
        <time>2020-02-28T11:44:29Z</time>
      </trkpt>
      <trkpt lat="46.68118" lon="5.72435">
        <ele>594.2</ele>
        <time>2020-02-28T11:44:30Z</time>
      </trkpt>
      <trkpt lat="46.6811" lon="5.72433">
        <ele>594.2</ele>
        <time>2020-02-28T11:44:31Z</time>
      </trkpt>
      <trkpt lat="46.68108" lon="5.72432">
        <ele>594.2</ele>
        <time>2020-02-28T11:44:32Z</time>
      </trkpt>
      <trkpt lat="46.68102" lon="5.72429">
        <ele>594.2</ele>
        <time>2020-02-28T11:44:33Z</time>
      </trkpt>
      <trkpt lat="46.68097" lon="5.72428">
        <ele>594.2</ele>
        <time>2020-02-28T11:44:34Z</time>
      </trkpt>
      <trkpt lat="46.68091" lon="5.72425">
        <ele>594.2</ele>
        <time>2020-02-28T11:44:35Z</time>
      </trkpt>
      <trkpt lat="46.68085" lon="5.72422">
        <ele>594.2</ele>
        <time>2020-02-28T11:44:36Z</time>
      </trkpt>
      <trkpt lat="46.6808" lon="5.7242">
        <ele>594</ele>
        <time>2020-02-28T11:44:37Z</time>
      </trkpt>
      <trkpt lat="46.68073" lon="5.72416">
        <ele>594</ele>
        <time>2020-02-28T11:44:38Z</time>
      </trkpt>
      <trkpt lat="46.68065" lon="5.72413">
        <ele>593.6</ele>
        <time>2020-02-28T11:44:39Z</time>
      </trkpt>
      <trkpt lat="46.68058" lon="5.72409">
        <ele>593.6</ele>
        <time>2020-02-28T11:44:40Z</time>
      </trkpt>
      <trkpt lat="46.68051" lon="5.72407">
        <ele>593.6</ele>
        <time>2020-02-28T11:44:41Z</time>
      </trkpt>
      <trkpt lat="46.68045" lon="5.72404">
        <ele>593.6</ele>
        <time>2020-02-28T11:44:42Z</time>
      </trkpt>
      <trkpt lat="46.68039" lon="5.72401">
        <ele>593.6</ele>
        <time>2020-02-28T11:44:43Z</time>
      </trkpt>
      <trkpt lat="46.68032" lon="5.72397">
        <ele>593.4</ele>
        <time>2020-02-28T11:44:44Z</time>
      </trkpt>
      <trkpt lat="46.68025" lon="5.72393">
        <ele>593.4</ele>
        <time>2020-02-28T11:44:45Z</time>
      </trkpt>
      <trkpt lat="46.6802" lon="5.7239">
        <ele>593.4</ele>
        <time>2020-02-28T11:44:46Z</time>
      </trkpt>
      <trkpt lat="46.68014" lon="5.72386">
        <ele>593.4</ele>
        <time>2020-02-28T11:44:47Z</time>
      </trkpt>
      <trkpt lat="46.68008" lon="5.72382">
        <ele>593.4</ele>
        <time>2020-02-28T11:44:48Z</time>
      </trkpt>
      <trkpt lat="46.68002" lon="5.72379">
        <ele>593.4</ele>
        <time>2020-02-28T11:44:49Z</time>
      </trkpt>
      <trkpt lat="46.67996" lon="5.72375">
        <ele>593.4</ele>
        <time>2020-02-28T11:44:50Z</time>
      </trkpt>
      <trkpt lat="46.67991" lon="5.72371">
        <ele>593.4</ele>
        <time>2020-02-28T11:44:51Z</time>
      </trkpt>
      <trkpt lat="46.67982" lon="5.72365">
        <ele>593.4</ele>
        <time>2020-02-28T11:44:52Z</time>
      </trkpt>
      <trkpt lat="46.67979" lon="5.72363">
        <ele>593.4</ele>
        <time>2020-02-28T11:44:53Z</time>
      </trkpt>
      <trkpt lat="46.67973" lon="5.72359">
        <ele>593.4</ele>
        <time>2020-02-28T11:44:54Z</time>
      </trkpt>
      <trkpt lat="46.67968" lon="5.72356">
        <ele>593.4</ele>
        <time>2020-02-28T11:44:55Z</time>
      </trkpt>
      <trkpt lat="46.67962" lon="5.72352">
        <ele>593.4</ele>
        <time>2020-02-28T11:44:56Z</time>
      </trkpt>
      <trkpt lat="46.67954" lon="5.72346">
        <ele>593.4</ele>
        <time>2020-02-28T11:44:57Z</time>
      </trkpt>
      <trkpt lat="46.67951" lon="5.72344">
        <ele>593.4</ele>
        <time>2020-02-28T11:44:58Z</time>
      </trkpt>
      <trkpt lat="46.67942" lon="5.72338">
        <ele>593.4</ele>
        <time>2020-02-28T11:44:59Z</time>
      </trkpt>
      <trkpt lat="46.67939" lon="5.72336">
        <ele>593.4</ele>
        <time>2020-02-28T11:45:00Z</time>
      </trkpt>
      <trkpt lat="46.67933" lon="5.72331">
        <ele>593.4</ele>
        <time>2020-02-28T11:45:01Z</time>
      </trkpt>
      <trkpt lat="46.67927" lon="5.72326">
        <ele>593.4</ele>
        <time>2020-02-28T11:45:02Z</time>
      </trkpt>
      <trkpt lat="46.67921" lon="5.72323">
        <ele>593.4</ele>
        <time>2020-02-28T11:45:03Z</time>
      </trkpt>
      <trkpt lat="46.67916" lon="5.72319">
        <ele>593.4</ele>
        <time>2020-02-28T11:45:04Z</time>
      </trkpt>
      <trkpt lat="46.6791" lon="5.72316">
        <ele>593.4</ele>
        <time>2020-02-28T11:45:05Z</time>
      </trkpt>
      <trkpt lat="46.67902" lon="5.72311">
        <ele>593.4</ele>
        <time>2020-02-28T11:45:06Z</time>
      </trkpt>
      <trkpt lat="46.67899" lon="5.7231">
        <ele>593.4</ele>
        <time>2020-02-28T11:45:07Z</time>
      </trkpt>
      <trkpt lat="46.67893" lon="5.72306">
        <ele>593.4</ele>
        <time>2020-02-28T11:45:08Z</time>
      </trkpt>
      <trkpt lat="46.67888" lon="5.72303">
        <ele>593.4</ele>
        <time>2020-02-28T11:45:09Z</time>
      </trkpt>
      <trkpt lat="46.67878" lon="5.72298">
        <ele>593.4</ele>
        <time>2020-02-28T11:45:10Z</time>
      </trkpt>
      <trkpt lat="46.67874" lon="5.72296">
        <ele>593.4</ele>
        <time>2020-02-28T11:45:11Z</time>
      </trkpt>
      <trkpt lat="46.67865" lon="5.7229">
        <ele>593.2</ele>
        <time>2020-02-28T11:45:12Z</time>
      </trkpt>
      <trkpt lat="46.67862" lon="5.72288">
        <ele>593.2</ele>
        <time>2020-02-28T11:45:13Z</time>
      </trkpt>
      <trkpt lat="46.67857" lon="5.72284">
        <ele>593</ele>
        <time>2020-02-28T11:45:14Z</time>
      </trkpt>
      <trkpt lat="46.6785" lon="5.72279">
        <ele>593</ele>
        <time>2020-02-28T11:45:15Z</time>
      </trkpt>
      <trkpt lat="46.67843" lon="5.72274">
        <ele>593</ele>
        <time>2020-02-28T11:45:16Z</time>
      </trkpt>
      <trkpt lat="46.67838" lon="5.7227">
        <ele>593</ele>
        <time>2020-02-28T11:45:17Z</time>
      </trkpt>
      <trkpt lat="46.67831" lon="5.72264">
        <ele>593</ele>
        <time>2020-02-28T11:45:18Z</time>
      </trkpt>
      <trkpt lat="46.67825" lon="5.7226">
        <ele>593</ele>
        <time>2020-02-28T11:45:19Z</time>
      </trkpt>
      <trkpt lat="46.67819" lon="5.72256">
        <ele>593</ele>
        <time>2020-02-28T11:45:20Z</time>
      </trkpt>
      <trkpt lat="46.6781" lon="5.7225">
        <ele>593</ele>
        <time>2020-02-28T11:45:21Z</time>
      </trkpt>
      <trkpt lat="46.67806" lon="5.72248">
        <ele>593</ele>
        <time>2020-02-28T11:45:22Z</time>
      </trkpt>
      <trkpt lat="46.678" lon="5.72244">
        <ele>592.8</ele>
        <time>2020-02-28T11:45:23Z</time>
      </trkpt>
      <trkpt lat="46.67791" lon="5.72238">
        <ele>592.8</ele>
        <time>2020-02-28T11:45:24Z</time>
      </trkpt>
      <trkpt lat="46.67788" lon="5.72237">
        <ele>592.8</ele>
        <time>2020-02-28T11:45:25Z</time>
      </trkpt>
      <trkpt lat="46.67781" lon="5.72234">
        <ele>592.8</ele>
        <time>2020-02-28T11:45:26Z</time>
      </trkpt>
      <trkpt lat="46.67775" lon="5.72231">
        <ele>592.8</ele>
        <time>2020-02-28T11:45:27Z</time>
      </trkpt>
      <trkpt lat="46.67769" lon="5.72228">
        <ele>592.8</ele>
        <time>2020-02-28T11:45:28Z</time>
      </trkpt>
      <trkpt lat="46.67763" lon="5.72226">
        <ele>592.8</ele>
        <time>2020-02-28T11:45:29Z</time>
      </trkpt>
      <trkpt lat="46.67756" lon="5.72222">
        <ele>592.8</ele>
        <time>2020-02-28T11:45:30Z</time>
      </trkpt>
      <trkpt lat="46.6775" lon="5.72218">
        <ele>592.8</ele>
        <time>2020-02-28T11:45:31Z</time>
      </trkpt>
      <trkpt lat="46.67744" lon="5.72215">
        <ele>592.8</ele>
        <time>2020-02-28T11:45:32Z</time>
      </trkpt>
      <trkpt lat="46.67736" lon="5.72209">
        <ele>592.8</ele>
        <time>2020-02-28T11:45:33Z</time>
      </trkpt>
      <trkpt lat="46.67733" lon="5.72207">
        <ele>592.8</ele>
        <time>2020-02-28T11:45:34Z</time>
      </trkpt>
      <trkpt lat="46.67727" lon="5.72204">
        <ele>592.8</ele>
        <time>2020-02-28T11:45:35Z</time>
      </trkpt>
      <trkpt lat="46.67721" lon="5.72201">
        <ele>592.8</ele>
        <time>2020-02-28T11:45:36Z</time>
      </trkpt>
      <trkpt lat="46.67715" lon="5.72197">
        <ele>592.8</ele>
        <time>2020-02-28T11:45:37Z</time>
      </trkpt>
      <trkpt lat="46.67708" lon="5.72194">
        <ele>592.8</ele>
        <time>2020-02-28T11:45:38Z</time>
      </trkpt>
      <trkpt lat="46.67701" lon="5.72191">
        <ele>592.8</ele>
        <time>2020-02-28T11:45:39Z</time>
      </trkpt>
      <trkpt lat="46.67694" lon="5.72188">
        <ele>592.8</ele>
        <time>2020-02-28T11:45:40Z</time>
      </trkpt>
      <trkpt lat="46.67686" lon="5.72185">
        <ele>592.8</ele>
        <time>2020-02-28T11:45:41Z</time>
      </trkpt>
      <trkpt lat="46.67678" lon="5.7218">
        <ele>592.8</ele>
        <time>2020-02-28T11:45:42Z</time>
      </trkpt>
      <trkpt lat="46.6767" lon="5.72176">
        <ele>592.8</ele>
        <time>2020-02-28T11:45:43Z</time>
      </trkpt>
      <trkpt lat="46.67663" lon="5.72174">
        <ele>592.8</ele>
        <time>2020-02-28T11:45:44Z</time>
      </trkpt>
      <trkpt lat="46.67657" lon="5.7217">
        <ele>592.8</ele>
        <time>2020-02-28T11:45:45Z</time>
      </trkpt>
      <trkpt lat="46.67647" lon="5.72166">
        <ele>592.8</ele>
        <time>2020-02-28T11:45:46Z</time>
      </trkpt>
      <trkpt lat="46.67644" lon="5.72165">
        <ele>592.8</ele>
        <time>2020-02-28T11:45:47Z</time>
      </trkpt>
      <trkpt lat="46.67638" lon="5.72163">
        <ele>592.8</ele>
        <time>2020-02-28T11:45:48Z</time>
      </trkpt>
      <trkpt lat="46.67631" lon="5.7216">
        <ele>592.8</ele>
        <time>2020-02-28T11:45:49Z</time>
      </trkpt>
      <trkpt lat="46.67624" lon="5.72158">
        <ele>592.8</ele>
        <time>2020-02-28T11:45:50Z</time>
      </trkpt>
      <trkpt lat="46.67615" lon="5.72156">
        <ele>592.8</ele>
        <time>2020-02-28T11:45:51Z</time>
      </trkpt>
      <trkpt lat="46.67612" lon="5.72156">
        <ele>592.8</ele>
        <time>2020-02-28T11:45:52Z</time>
      </trkpt>
      <trkpt lat="46.67605" lon="5.72155">
        <ele>592.8</ele>
        <time>2020-02-28T11:45:53Z</time>
      </trkpt>
      <trkpt lat="46.67599" lon="5.72154">
        <ele>592.8</ele>
        <time>2020-02-28T11:45:54Z</time>
      </trkpt>
      <trkpt lat="46.6759" lon="5.7215">
        <ele>592.8</ele>
        <time>2020-02-28T11:45:55Z</time>
      </trkpt>
      <trkpt lat="46.67579" lon="5.72146">
        <ele>592.8</ele>
        <time>2020-02-28T11:45:56Z</time>
      </trkpt>
      <trkpt lat="46.67575" lon="5.72145">
        <ele>592.8</ele>
        <time>2020-02-28T11:45:57Z</time>
      </trkpt>
      <trkpt lat="46.67567" lon="5.72142">
        <ele>592.8</ele>
        <time>2020-02-28T11:45:58Z</time>
      </trkpt>
      <trkpt lat="46.67561" lon="5.72141">
        <ele>592.4</ele>
        <time>2020-02-28T11:45:59Z</time>
      </trkpt>
      <trkpt lat="46.67554" lon="5.72139">
        <ele>592.4</ele>
        <time>2020-02-28T11:46:00Z</time>
      </trkpt>
      <trkpt lat="46.67545" lon="5.72137">
        <ele>592.4</ele>
        <time>2020-02-28T11:46:01Z</time>
      </trkpt>
      <trkpt lat="46.67542" lon="5.72137">
        <ele>592.4</ele>
        <time>2020-02-28T11:46:02Z</time>
      </trkpt>
      <trkpt lat="46.67535" lon="5.72136">
        <ele>592.4</ele>
        <time>2020-02-28T11:46:03Z</time>
      </trkpt>
      <trkpt lat="46.67529" lon="5.72135">
        <ele>592.4</ele>
        <time>2020-02-28T11:46:04Z</time>
      </trkpt>
      <trkpt lat="46.67522" lon="5.72134">
        <ele>592.4</ele>
        <time>2020-02-28T11:46:05Z</time>
      </trkpt>
      <trkpt lat="46.67516" lon="5.72133">
        <ele>592.2</ele>
        <time>2020-02-28T11:46:06Z</time>
      </trkpt>
      <trkpt lat="46.6751" lon="5.72132">
        <ele>592.2</ele>
        <time>2020-02-28T11:46:07Z</time>
      </trkpt>
      <trkpt lat="46.67503" lon="5.7213">
        <ele>592.2</ele>
        <time>2020-02-28T11:46:08Z</time>
      </trkpt>
      <trkpt lat="46.67497" lon="5.72128">
        <ele>592.2</ele>
        <time>2020-02-28T11:46:09Z</time>
      </trkpt>
      <trkpt lat="46.67491" lon="5.72127">
        <ele>592.2</ele>
        <time>2020-02-28T11:46:10Z</time>
      </trkpt>
      <trkpt lat="46.67485" lon="5.72126">
        <ele>592</ele>
        <time>2020-02-28T11:46:11Z</time>
      </trkpt>
      <trkpt lat="46.6748" lon="5.72126">
        <ele>592</ele>
        <time>2020-02-28T11:46:12Z</time>
      </trkpt>
      <trkpt lat="46.67474" lon="5.72125">
        <ele>592</ele>
        <time>2020-02-28T11:46:13Z</time>
      </trkpt>
      <trkpt lat="46.67468" lon="5.72125">
        <ele>591.8</ele>
        <time>2020-02-28T11:46:14Z</time>
      </trkpt>
      <trkpt lat="46.67461" lon="5.72124">
        <ele>591.8</ele>
        <time>2020-02-28T11:46:15Z</time>
      </trkpt>
      <trkpt lat="46.67454" lon="5.72123">
        <ele>591.8</ele>
        <time>2020-02-28T11:46:16Z</time>
      </trkpt>
      <trkpt lat="46.67444" lon="5.72124">
        <ele>591.8</ele>
        <time>2020-02-28T11:46:17Z</time>
      </trkpt>
      <trkpt lat="46.67441" lon="5.72124">
        <ele>591.8</ele>
        <time>2020-02-28T11:46:18Z</time>
      </trkpt>
      <trkpt lat="46.67435" lon="5.72125">
        <ele>591.8</ele>
        <time>2020-02-28T11:46:19Z</time>
      </trkpt>
      <trkpt lat="46.67428" lon="5.72124">
        <ele>591.8</ele>
        <time>2020-02-28T11:46:20Z</time>
      </trkpt>
      <trkpt lat="46.67418" lon="5.72125">
        <ele>591.8</ele>
        <time>2020-02-28T11:46:21Z</time>
      </trkpt>
      <trkpt lat="46.67414" lon="5.72125">
        <ele>591.8</ele>
        <time>2020-02-28T11:46:22Z</time>
      </trkpt>
      <trkpt lat="46.67407" lon="5.72125">
        <ele>591.8</ele>
        <time>2020-02-28T11:46:23Z</time>
      </trkpt>
      <trkpt lat="46.674" lon="5.72125">
        <ele>591.8</ele>
        <time>2020-02-28T11:46:24Z</time>
      </trkpt>
      <trkpt lat="46.67394" lon="5.72127">
        <ele>591.8</ele>
        <time>2020-02-28T11:46:25Z</time>
      </trkpt>
      <trkpt lat="46.67388" lon="5.72127">
        <ele>591.8</ele>
        <time>2020-02-28T11:46:26Z</time>
      </trkpt>
      <trkpt lat="46.67382" lon="5.72127">
        <ele>591.8</ele>
        <time>2020-02-28T11:46:27Z</time>
      </trkpt>
      <trkpt lat="46.67377" lon="5.72127">
        <ele>591.8</ele>
        <time>2020-02-28T11:46:28Z</time>
      </trkpt>
      <trkpt lat="46.67372" lon="5.72128">
        <ele>591.8</ele>
        <time>2020-02-28T11:46:29Z</time>
      </trkpt>
      <trkpt lat="46.67368" lon="5.72128">
        <ele>591.8</ele>
        <time>2020-02-28T11:46:30Z</time>
      </trkpt>
      <trkpt lat="46.67362" lon="5.72129">
        <ele>591.6</ele>
        <time>2020-02-28T11:46:31Z</time>
      </trkpt>
      <trkpt lat="46.67357" lon="5.72129">
        <ele>591.6</ele>
        <time>2020-02-28T11:46:32Z</time>
      </trkpt>
      <trkpt lat="46.67351" lon="5.72129">
        <ele>591.6</ele>
        <time>2020-02-28T11:46:33Z</time>
      </trkpt>
      <trkpt lat="46.67346" lon="5.7213">
        <ele>591.6</ele>
        <time>2020-02-28T11:46:34Z</time>
      </trkpt>
      <trkpt lat="46.6734" lon="5.72131">
        <ele>591.6</ele>
        <time>2020-02-28T11:46:35Z</time>
      </trkpt>
      <trkpt lat="46.67333" lon="5.72131">
        <ele>591.6</ele>
        <time>2020-02-28T11:46:36Z</time>
      </trkpt>
      <trkpt lat="46.67326" lon="5.72132">
        <ele>591.4</ele>
        <time>2020-02-28T11:46:37Z</time>
      </trkpt>
      <trkpt lat="46.6732" lon="5.72132">
        <ele>591.4</ele>
        <time>2020-02-28T11:46:38Z</time>
      </trkpt>
      <trkpt lat="46.67312" lon="5.72132">
        <ele>591.4</ele>
        <time>2020-02-28T11:46:39Z</time>
      </trkpt>
      <trkpt lat="46.67306" lon="5.72132">
        <ele>591.4</ele>
        <time>2020-02-28T11:46:40Z</time>
      </trkpt>
      <trkpt lat="46.67299" lon="5.72132">
        <ele>591.4</ele>
        <time>2020-02-28T11:46:41Z</time>
      </trkpt>
      <trkpt lat="46.67293" lon="5.72133">
        <ele>591.4</ele>
        <time>2020-02-28T11:46:42Z</time>
      </trkpt>
      <trkpt lat="46.67286" lon="5.72134">
        <ele>591.4</ele>
        <time>2020-02-28T11:46:43Z</time>
      </trkpt>
      <trkpt lat="46.6728" lon="5.72135">
        <ele>591.4</ele>
        <time>2020-02-28T11:46:44Z</time>
      </trkpt>
      <trkpt lat="46.67274" lon="5.72136">
        <ele>591.4</ele>
        <time>2020-02-28T11:46:45Z</time>
      </trkpt>
      <trkpt lat="46.67268" lon="5.72136">
        <ele>591.4</ele>
        <time>2020-02-28T11:46:46Z</time>
      </trkpt>
      <trkpt lat="46.67263" lon="5.72136">
        <ele>591.4</ele>
        <time>2020-02-28T11:46:47Z</time>
      </trkpt>
      <trkpt lat="46.67257" lon="5.72136">
        <ele>591.4</ele>
        <time>2020-02-28T11:46:48Z</time>
      </trkpt>
      <trkpt lat="46.6725" lon="5.72136">
        <ele>591.4</ele>
        <time>2020-02-28T11:46:49Z</time>
      </trkpt>
      <trkpt lat="46.67243" lon="5.72135">
        <ele>591.4</ele>
        <time>2020-02-28T11:46:50Z</time>
      </trkpt>
      <trkpt lat="46.67237" lon="5.72136">
        <ele>591.4</ele>
        <time>2020-02-28T11:46:51Z</time>
      </trkpt>
      <trkpt lat="46.6723" lon="5.72137">
        <ele>591.2</ele>
        <time>2020-02-28T11:46:52Z</time>
      </trkpt>
      <trkpt lat="46.67223" lon="5.72137">
        <ele>591.2</ele>
        <time>2020-02-28T11:46:53Z</time>
      </trkpt>
      <trkpt lat="46.67217" lon="5.72137">
        <ele>591.2</ele>
        <time>2020-02-28T11:46:54Z</time>
      </trkpt>
      <trkpt lat="46.6721" lon="5.72138">
        <ele>591.2</ele>
        <time>2020-02-28T11:46:55Z</time>
      </trkpt>
      <trkpt lat="46.67205" lon="5.72138">
        <ele>591</ele>
        <time>2020-02-28T11:46:56Z</time>
      </trkpt>
      <trkpt lat="46.67195" lon="5.72139">
        <ele>591</ele>
        <time>2020-02-28T11:46:57Z</time>
      </trkpt>
      <trkpt lat="46.67192" lon="5.72139">
        <ele>591</ele>
        <time>2020-02-28T11:46:58Z</time>
      </trkpt>
      <trkpt lat="46.67185" lon="5.72139">
        <ele>591</ele>
        <time>2020-02-28T11:46:59Z</time>
      </trkpt>
      <trkpt lat="46.67179" lon="5.72139">
        <ele>591</ele>
        <time>2020-02-28T11:47:00Z</time>
      </trkpt>
      <trkpt lat="46.67172" lon="5.72139">
        <ele>591</ele>
        <time>2020-02-28T11:47:01Z</time>
      </trkpt>
      <trkpt lat="46.67166" lon="5.72139">
        <ele>591</ele>
        <time>2020-02-28T11:47:02Z</time>
      </trkpt>
      <trkpt lat="46.67158" lon="5.72139">
        <ele>591</ele>
        <time>2020-02-28T11:47:03Z</time>
      </trkpt>
      <trkpt lat="46.67155" lon="5.72139">
        <ele>590.6</ele>
        <time>2020-02-28T11:47:04Z</time>
      </trkpt>
      <trkpt lat="46.67149" lon="5.7214">
        <ele>590.6</ele>
        <time>2020-02-28T11:47:05Z</time>
      </trkpt>
      <trkpt lat="46.67143" lon="5.7214">
        <ele>590.6</ele>
        <time>2020-02-28T11:47:06Z</time>
      </trkpt>
      <trkpt lat="46.67135" lon="5.72139">
        <ele>590.6</ele>
        <time>2020-02-28T11:47:07Z</time>
      </trkpt>
      <trkpt lat="46.67128" lon="5.72138">
        <ele>590.4</ele>
        <time>2020-02-28T11:47:08Z</time>
      </trkpt>
      <trkpt lat="46.67117" lon="5.72137">
        <ele>590.4</ele>
        <time>2020-02-28T11:47:09Z</time>
      </trkpt>
      <trkpt lat="46.67113" lon="5.72137">
        <ele>590.4</ele>
        <time>2020-02-28T11:47:10Z</time>
      </trkpt>
      <trkpt lat="46.67106" lon="5.72137">
        <ele>590.4</ele>
        <time>2020-02-28T11:47:11Z</time>
      </trkpt>
      <trkpt lat="46.67099" lon="5.72137">
        <ele>590.4</ele>
        <time>2020-02-28T11:47:12Z</time>
      </trkpt>
      <trkpt lat="46.67092" lon="5.72136">
        <ele>590.4</ele>
        <time>2020-02-28T11:47:13Z</time>
      </trkpt>
      <trkpt lat="46.67085" lon="5.72135">
        <ele>590.4</ele>
        <time>2020-02-28T11:47:14Z</time>
      </trkpt>
      <trkpt lat="46.67078" lon="5.72136">
        <ele>590.4</ele>
        <time>2020-02-28T11:47:15Z</time>
      </trkpt>
      <trkpt lat="46.67071" lon="5.72136">
        <ele>590.4</ele>
        <time>2020-02-28T11:47:16Z</time>
      </trkpt>
      <trkpt lat="46.67064" lon="5.72137">
        <ele>590.4</ele>
        <time>2020-02-28T11:47:17Z</time>
      </trkpt>
      <trkpt lat="46.67054" lon="5.72137">
        <ele>590.4</ele>
        <time>2020-02-28T11:47:18Z</time>
      </trkpt>
      <trkpt lat="46.67051" lon="5.72137">
        <ele>590.2</ele>
        <time>2020-02-28T11:47:19Z</time>
      </trkpt>
      <trkpt lat="46.67045" lon="5.72137">
        <ele>590.2</ele>
        <time>2020-02-28T11:47:20Z</time>
      </trkpt>
      <trkpt lat="46.67039" lon="5.72137">
        <ele>590.2</ele>
        <time>2020-02-28T11:47:21Z</time>
      </trkpt>
      <trkpt lat="46.67033" lon="5.72137">
        <ele>590.2</ele>
        <time>2020-02-28T11:47:22Z</time>
      </trkpt>
      <trkpt lat="46.67027" lon="5.72137">
        <ele>590.2</ele>
        <time>2020-02-28T11:47:23Z</time>
      </trkpt>
      <trkpt lat="46.67021" lon="5.72136">
        <ele>590.2</ele>
        <time>2020-02-28T11:47:24Z</time>
      </trkpt>
      <trkpt lat="46.67016" lon="5.72136">
        <ele>590.2</ele>
        <time>2020-02-28T11:47:25Z</time>
      </trkpt>
      <trkpt lat="46.6701" lon="5.72135">
        <ele>590.2</ele>
        <time>2020-02-28T11:47:26Z</time>
      </trkpt>
      <trkpt lat="46.67003" lon="5.72136">
        <ele>590.2</ele>
        <time>2020-02-28T11:47:27Z</time>
      </trkpt>
      <trkpt lat="46.66998" lon="5.72137">
        <ele>590.2</ele>
        <time>2020-02-28T11:47:28Z</time>
      </trkpt>
      <trkpt lat="46.66992" lon="5.72137">
        <ele>590.2</ele>
        <time>2020-02-28T11:47:29Z</time>
      </trkpt>
      <trkpt lat="46.66985" lon="5.72139">
        <ele>590.2</ele>
        <time>2020-02-28T11:47:30Z</time>
      </trkpt>
      <trkpt lat="46.6698" lon="5.7214">
        <ele>590.2</ele>
        <time>2020-02-28T11:47:31Z</time>
      </trkpt>
      <trkpt lat="46.66974" lon="5.72143">
        <ele>590.2</ele>
        <time>2020-02-28T11:47:32Z</time>
      </trkpt>
      <trkpt lat="46.66967" lon="5.72146">
        <ele>590.2</ele>
        <time>2020-02-28T11:47:33Z</time>
      </trkpt>
      <trkpt lat="46.66961" lon="5.72148">
        <ele>590.2</ele>
        <time>2020-02-28T11:47:34Z</time>
      </trkpt>
      <trkpt lat="46.6695" lon="5.7215">
        <ele>590.2</ele>
        <time>2020-02-28T11:47:35Z</time>
      </trkpt>
      <trkpt lat="46.66946" lon="5.7215">
        <ele>590.2</ele>
        <time>2020-02-28T11:47:36Z</time>
      </trkpt>
      <trkpt lat="46.66939" lon="5.7215">
        <ele>590.2</ele>
        <time>2020-02-28T11:47:37Z</time>
      </trkpt>
      <trkpt lat="46.66931" lon="5.72149">
        <ele>590</ele>
        <time>2020-02-28T11:47:38Z</time>
      </trkpt>
      <trkpt lat="46.66924" lon="5.72149">
        <ele>590</ele>
        <time>2020-02-28T11:47:39Z</time>
      </trkpt>
      <trkpt lat="46.66914" lon="5.72149">
        <ele>590</ele>
        <time>2020-02-28T11:47:40Z</time>
      </trkpt>
      <trkpt lat="46.66911" lon="5.72149">
        <ele>590</ele>
        <time>2020-02-28T11:47:41Z</time>
      </trkpt>
      <trkpt lat="46.66904" lon="5.72149">
        <ele>590</ele>
        <time>2020-02-28T11:47:42Z</time>
      </trkpt>
      <trkpt lat="46.66897" lon="5.72148">
        <ele>590</ele>
        <time>2020-02-28T11:47:43Z</time>
      </trkpt>
      <trkpt lat="46.66891" lon="5.72147">
        <ele>589.6</ele>
        <time>2020-02-28T11:47:44Z</time>
      </trkpt>
      <trkpt lat="46.66885" lon="5.72147">
        <ele>589.6</ele>
        <time>2020-02-28T11:47:45Z</time>
      </trkpt>
      <trkpt lat="46.66878" lon="5.72145">
        <ele>589.4</ele>
        <time>2020-02-28T11:47:46Z</time>
      </trkpt>
      <trkpt lat="46.66872" lon="5.72144">
        <ele>589.4</ele>
        <time>2020-02-28T11:47:47Z</time>
      </trkpt>
      <trkpt lat="46.66866" lon="5.72143">
        <ele>589.4</ele>
        <time>2020-02-28T11:47:48Z</time>
      </trkpt>
      <trkpt lat="46.6686" lon="5.72142">
        <ele>589.4</ele>
        <time>2020-02-28T11:47:49Z</time>
      </trkpt>
      <trkpt lat="46.66854" lon="5.72141">
        <ele>589.4</ele>
        <time>2020-02-28T11:47:50Z</time>
      </trkpt>
      <trkpt lat="46.66847" lon="5.7214">
        <ele>589.4</ele>
        <time>2020-02-28T11:47:51Z</time>
      </trkpt>
      <trkpt lat="46.66841" lon="5.72139">
        <ele>589.4</ele>
        <time>2020-02-28T11:47:52Z</time>
      </trkpt>
      <trkpt lat="46.66834" lon="5.72139">
        <ele>589.4</ele>
        <time>2020-02-28T11:47:53Z</time>
      </trkpt>
      <trkpt lat="46.66828" lon="5.72138">
        <ele>589.4</ele>
        <time>2020-02-28T11:47:54Z</time>
      </trkpt>
      <trkpt lat="46.66822" lon="5.72136">
        <ele>589.4</ele>
        <time>2020-02-28T11:47:55Z</time>
      </trkpt>
      <trkpt lat="46.66813" lon="5.72136">
        <ele>589.4</ele>
        <time>2020-02-28T11:47:56Z</time>
      </trkpt>
      <trkpt lat="46.6681" lon="5.72136">
        <ele>589.4</ele>
        <time>2020-02-28T11:47:57Z</time>
      </trkpt>
      <trkpt lat="46.66801" lon="5.72135">
        <ele>589.4</ele>
        <time>2020-02-28T11:47:58Z</time>
      </trkpt>
      <trkpt lat="46.66798" lon="5.72135">
        <ele>589.4</ele>
        <time>2020-02-28T11:47:59Z</time>
      </trkpt>
      <trkpt lat="46.66788" lon="5.72133">
        <ele>589.2</ele>
        <time>2020-02-28T11:48:00Z</time>
      </trkpt>
      <trkpt lat="46.66785" lon="5.72133">
        <ele>589.2</ele>
        <time>2020-02-28T11:48:01Z</time>
      </trkpt>
      <trkpt lat="46.66778" lon="5.72131">
        <ele>589.2</ele>
        <time>2020-02-28T11:48:02Z</time>
      </trkpt>
      <trkpt lat="46.66772" lon="5.72129">
        <ele>589.2</ele>
        <time>2020-02-28T11:48:03Z</time>
      </trkpt>
      <trkpt lat="46.66766" lon="5.72126">
        <ele>588.8</ele>
        <time>2020-02-28T11:48:04Z</time>
      </trkpt>
      <trkpt lat="46.6676" lon="5.72121">
        <ele>588.8</ele>
        <time>2020-02-28T11:48:05Z</time>
      </trkpt>
      <trkpt lat="46.66754" lon="5.72115">
        <ele>588.8</ele>
        <time>2020-02-28T11:48:06Z</time>
      </trkpt>
      <trkpt lat="46.6675" lon="5.72109">
        <ele>588.8</ele>
        <time>2020-02-28T11:48:07Z</time>
      </trkpt>
      <trkpt lat="46.66745" lon="5.72102">
        <ele>588.8</ele>
        <time>2020-02-28T11:48:08Z</time>
      </trkpt>
      <trkpt lat="46.6674" lon="5.72096">
        <ele>588.8</ele>
        <time>2020-02-28T11:48:09Z</time>
      </trkpt>
      <trkpt lat="46.66735" lon="5.72091">
        <ele>588.8</ele>
        <time>2020-02-28T11:48:10Z</time>
      </trkpt>
      <trkpt lat="46.6673" lon="5.72085">
        <ele>588.8</ele>
        <time>2020-02-28T11:48:11Z</time>
      </trkpt>
      <trkpt lat="46.66724" lon="5.7208">
        <ele>588.8</ele>
        <time>2020-02-28T11:48:12Z</time>
      </trkpt>
      <trkpt lat="46.66718" lon="5.72077">
        <ele>588.8</ele>
        <time>2020-02-28T11:48:13Z</time>
      </trkpt>
      <trkpt lat="46.66712" lon="5.72074">
        <ele>588.8</ele>
        <time>2020-02-28T11:48:14Z</time>
      </trkpt>
      <trkpt lat="46.66707" lon="5.72072">
        <ele>588.8</ele>
        <time>2020-02-28T11:48:15Z</time>
      </trkpt>
      <trkpt lat="46.66701" lon="5.7207">
        <ele>588.8</ele>
        <time>2020-02-28T11:48:16Z</time>
      </trkpt>
      <trkpt lat="46.66695" lon="5.72068">
        <ele>588.8</ele>
        <time>2020-02-28T11:48:17Z</time>
      </trkpt>
      <trkpt lat="46.6669" lon="5.72067">
        <ele>588.8</ele>
        <time>2020-02-28T11:48:18Z</time>
      </trkpt>
      <trkpt lat="46.66684" lon="5.72065">
        <ele>588.8</ele>
        <time>2020-02-28T11:48:19Z</time>
      </trkpt>
      <trkpt lat="46.66678" lon="5.72063">
        <ele>588.8</ele>
        <time>2020-02-28T11:48:20Z</time>
      </trkpt>
      <trkpt lat="46.66672" lon="5.72061">
        <ele>588.8</ele>
        <time>2020-02-28T11:48:21Z</time>
      </trkpt>
      <trkpt lat="46.66665" lon="5.72059">
        <ele>588.8</ele>
        <time>2020-02-28T11:48:22Z</time>
      </trkpt>
      <trkpt lat="46.66658" lon="5.72058">
        <ele>588.8</ele>
        <time>2020-02-28T11:48:23Z</time>
      </trkpt>
      <trkpt lat="46.66651" lon="5.72056">
        <ele>588.6</ele>
        <time>2020-02-28T11:48:24Z</time>
      </trkpt>
      <trkpt lat="46.66644" lon="5.72054">
        <ele>588.6</ele>
        <time>2020-02-28T11:48:25Z</time>
      </trkpt>
      <trkpt lat="46.66634" lon="5.72053">
        <ele>588.6</ele>
        <time>2020-02-28T11:48:26Z</time>
      </trkpt>
      <trkpt lat="46.6663" lon="5.72052">
        <ele>588.4</ele>
        <time>2020-02-28T11:48:27Z</time>
      </trkpt>
      <trkpt lat="46.66624" lon="5.72052">
        <ele>588.4</ele>
        <time>2020-02-28T11:48:28Z</time>
      </trkpt>
      <trkpt lat="46.66618" lon="5.7205">
        <ele>588.4</ele>
        <time>2020-02-28T11:48:29Z</time>
      </trkpt>
      <trkpt lat="46.66612" lon="5.72049">
        <ele>588.4</ele>
        <time>2020-02-28T11:48:30Z</time>
      </trkpt>
      <trkpt lat="46.66606" lon="5.72048">
        <ele>588.4</ele>
        <time>2020-02-28T11:48:31Z</time>
      </trkpt>
      <trkpt lat="46.66601" lon="5.72047">
        <ele>588.4</ele>
        <time>2020-02-28T11:48:32Z</time>
      </trkpt>
      <trkpt lat="46.66595" lon="5.72046">
        <ele>588.4</ele>
        <time>2020-02-28T11:48:33Z</time>
      </trkpt>
      <trkpt lat="46.66587" lon="5.72045">
        <ele>588.6</ele>
        <time>2020-02-28T11:48:34Z</time>
      </trkpt>
      <trkpt lat="46.66584" lon="5.72045">
        <ele>588.6</ele>
        <time>2020-02-28T11:48:35Z</time>
      </trkpt>
      <trkpt lat="46.66578" lon="5.72045">
        <ele>588.6</ele>
        <time>2020-02-28T11:48:36Z</time>
      </trkpt>
      <trkpt lat="46.66573" lon="5.72044">
        <ele>588.6</ele>
        <time>2020-02-28T11:48:37Z</time>
      </trkpt>
      <trkpt lat="46.66568" lon="5.72042">
        <ele>588.8</ele>
        <time>2020-02-28T11:48:38Z</time>
      </trkpt>
      <trkpt lat="46.66562" lon="5.72041">
        <ele>588.8</ele>
        <time>2020-02-28T11:48:39Z</time>
      </trkpt>
      <trkpt lat="46.66557" lon="5.7204">
        <ele>588.8</ele>
        <time>2020-02-28T11:48:40Z</time>
      </trkpt>
      <trkpt lat="46.66551" lon="5.72038">
        <ele>588.8</ele>
        <time>2020-02-28T11:48:41Z</time>
      </trkpt>
      <trkpt lat="46.66545" lon="5.72037">
        <ele>588.6</ele>
        <time>2020-02-28T11:48:42Z</time>
      </trkpt>
      <trkpt lat="46.66539" lon="5.72035">
        <ele>588.6</ele>
        <time>2020-02-28T11:48:43Z</time>
      </trkpt>
      <trkpt lat="46.66533" lon="5.72033">
        <ele>588.6</ele>
        <time>2020-02-28T11:48:44Z</time>
      </trkpt>
      <trkpt lat="46.66527" lon="5.72031">
        <ele>588.6</ele>
        <time>2020-02-28T11:48:45Z</time>
      </trkpt>
      <trkpt lat="46.66521" lon="5.7203">
        <ele>588.4</ele>
        <time>2020-02-28T11:48:46Z</time>
      </trkpt>
      <trkpt lat="46.66514" lon="5.72027">
        <ele>588.4</ele>
        <time>2020-02-28T11:48:47Z</time>
      </trkpt>
      <trkpt lat="46.66508" lon="5.72026">
        <ele>588.4</ele>
        <time>2020-02-28T11:48:48Z</time>
      </trkpt>
      <trkpt lat="46.66501" lon="5.72025">
        <ele>588.4</ele>
        <time>2020-02-28T11:48:49Z</time>
      </trkpt>
      <trkpt lat="46.66495" lon="5.72023">
        <ele>588.4</ele>
        <time>2020-02-28T11:48:50Z</time>
      </trkpt>
      <trkpt lat="46.66488" lon="5.72023">
        <ele>588.4</ele>
        <time>2020-02-28T11:48:51Z</time>
      </trkpt>
      <trkpt lat="46.66481" lon="5.72021">
        <ele>588.4</ele>
        <time>2020-02-28T11:48:52Z</time>
      </trkpt>
      <trkpt lat="46.66474" lon="5.72021">
        <ele>588.2</ele>
        <time>2020-02-28T11:48:53Z</time>
      </trkpt>
      <trkpt lat="46.66468" lon="5.72019">
        <ele>588.2</ele>
        <time>2020-02-28T11:48:54Z</time>
      </trkpt>
      <trkpt lat="46.66462" lon="5.72017">
        <ele>588.2</ele>
        <time>2020-02-28T11:48:55Z</time>
      </trkpt>
      <trkpt lat="46.66456" lon="5.72015">
        <ele>588.2</ele>
        <time>2020-02-28T11:48:56Z</time>
      </trkpt>
      <trkpt lat="46.6645" lon="5.72013">
        <ele>588.2</ele>
        <time>2020-02-28T11:48:57Z</time>
      </trkpt>
      <trkpt lat="46.66444" lon="5.72011">
        <ele>587.8</ele>
        <time>2020-02-28T11:48:58Z</time>
      </trkpt>
      <trkpt lat="46.66439" lon="5.72009">
        <ele>587.8</ele>
        <time>2020-02-28T11:48:59Z</time>
      </trkpt>
      <trkpt lat="46.66433" lon="5.72007">
        <ele>587.8</ele>
        <time>2020-02-28T11:49:00Z</time>
      </trkpt>
      <trkpt lat="46.66427" lon="5.72006">
        <ele>587.8</ele>
        <time>2020-02-28T11:49:01Z</time>
      </trkpt>
      <trkpt lat="46.66421" lon="5.72005">
        <ele>587.8</ele>
        <time>2020-02-28T11:49:02Z</time>
      </trkpt>
      <trkpt lat="46.66416" lon="5.72003">
        <ele>587.8</ele>
        <time>2020-02-28T11:49:03Z</time>
      </trkpt>
      <trkpt lat="46.6641" lon="5.72">
        <ele>587.8</ele>
        <time>2020-02-28T11:49:04Z</time>
      </trkpt>
      <trkpt lat="46.66404" lon="5.71997">
        <ele>587.8</ele>
        <time>2020-02-28T11:49:05Z</time>
      </trkpt>
      <trkpt lat="46.66399" lon="5.71993">
        <ele>587.8</ele>
        <time>2020-02-28T11:49:06Z</time>
      </trkpt>
      <trkpt lat="46.66393" lon="5.7199">
        <ele>587.8</ele>
        <time>2020-02-28T11:49:07Z</time>
      </trkpt>
      <trkpt lat="46.66388" lon="5.71986">
        <ele>587.8</ele>
        <time>2020-02-28T11:49:08Z</time>
      </trkpt>
      <trkpt lat="46.66383" lon="5.71981">
        <ele>587.8</ele>
        <time>2020-02-28T11:49:09Z</time>
      </trkpt>
      <trkpt lat="46.66378" lon="5.71975">
        <ele>587.6</ele>
        <time>2020-02-28T11:49:10Z</time>
      </trkpt>
      <trkpt lat="46.66373" lon="5.71968">
        <ele>587.6</ele>
        <time>2020-02-28T11:49:11Z</time>
      </trkpt>
      <trkpt lat="46.66366" lon="5.71957">
        <ele>587.6</ele>
        <time>2020-02-28T11:49:12Z</time>
      </trkpt>
      <trkpt lat="46.66364" lon="5.71953">
        <ele>587.6</ele>
        <time>2020-02-28T11:49:13Z</time>
      </trkpt>
      <trkpt lat="46.66359" lon="5.71946">
        <ele>587.6</ele>
        <time>2020-02-28T11:49:14Z</time>
      </trkpt>
      <trkpt lat="46.66354" lon="5.71939">
        <ele>587.6</ele>
        <time>2020-02-28T11:49:15Z</time>
      </trkpt>
      <trkpt lat="46.66349" lon="5.71932">
        <ele>587.6</ele>
        <time>2020-02-28T11:49:16Z</time>
      </trkpt>
      <trkpt lat="46.66344" lon="5.71926">
        <ele>587.6</ele>
        <time>2020-02-28T11:49:17Z</time>
      </trkpt>
      <trkpt lat="46.66339" lon="5.7192">
        <ele>587.6</ele>
        <time>2020-02-28T11:49:18Z</time>
      </trkpt>
      <trkpt lat="46.66333" lon="5.71915">
        <ele>587.6</ele>
        <time>2020-02-28T11:49:19Z</time>
      </trkpt>
      <trkpt lat="46.66328" lon="5.7191">
        <ele>587.6</ele>
        <time>2020-02-28T11:49:20Z</time>
      </trkpt>
      <trkpt lat="46.66319" lon="5.71903">
        <ele>587.6</ele>
        <time>2020-02-28T11:49:21Z</time>
      </trkpt>
      <trkpt lat="46.66316" lon="5.71901">
        <ele>587.4</ele>
        <time>2020-02-28T11:49:22Z</time>
      </trkpt>
      <trkpt lat="46.6631" lon="5.71896">
        <ele>587.4</ele>
        <time>2020-02-28T11:49:23Z</time>
      </trkpt>
      <trkpt lat="46.66304" lon="5.71892">
        <ele>587.2</ele>
        <time>2020-02-28T11:49:24Z</time>
      </trkpt>
      <trkpt lat="46.66296" lon="5.71885">
        <ele>587.2</ele>
        <time>2020-02-28T11:49:25Z</time>
      </trkpt>
      <trkpt lat="46.66293" lon="5.71883">
        <ele>587.2</ele>
        <time>2020-02-28T11:49:26Z</time>
      </trkpt>
      <trkpt lat="46.66286" lon="5.71879">
        <ele>587</ele>
        <time>2020-02-28T11:49:27Z</time>
      </trkpt>
      <trkpt lat="46.6628" lon="5.71875">
        <ele>587</ele>
        <time>2020-02-28T11:49:28Z</time>
      </trkpt>
      <trkpt lat="46.66274" lon="5.7187">
        <ele>587</ele>
        <time>2020-02-28T11:49:29Z</time>
      </trkpt>
      <trkpt lat="46.66265" lon="5.71864">
        <ele>587</ele>
        <time>2020-02-28T11:49:30Z</time>
      </trkpt>
      <trkpt lat="46.66262" lon="5.71862">
        <ele>586.6</ele>
        <time>2020-02-28T11:49:31Z</time>
      </trkpt>
      <trkpt lat="46.66257" lon="5.71857">
        <ele>586.6</ele>
        <time>2020-02-28T11:49:32Z</time>
      </trkpt>
      <trkpt lat="46.66248" lon="5.7185">
        <ele>586.6</ele>
        <time>2020-02-28T11:49:33Z</time>
      </trkpt>
      <trkpt lat="46.66245" lon="5.71848">
        <ele>586.6</ele>
        <time>2020-02-28T11:49:34Z</time>
      </trkpt>
      <trkpt lat="46.6624" lon="5.71843">
        <ele>586.6</ele>
        <time>2020-02-28T11:49:35Z</time>
      </trkpt>
      <trkpt lat="46.66235" lon="5.71839">
        <ele>586.6</ele>
        <time>2020-02-28T11:49:36Z</time>
      </trkpt>
      <trkpt lat="46.66229" lon="5.71835">
        <ele>586.6</ele>
        <time>2020-02-28T11:49:37Z</time>
      </trkpt>
      <trkpt lat="46.66224" lon="5.71831">
        <ele>586.6</ele>
        <time>2020-02-28T11:49:38Z</time>
      </trkpt>
      <trkpt lat="46.66219" lon="5.71828">
        <ele>586.6</ele>
        <time>2020-02-28T11:49:39Z</time>
      </trkpt>
      <trkpt lat="46.66214" lon="5.71824">
        <ele>586.6</ele>
        <time>2020-02-28T11:49:40Z</time>
      </trkpt>
      <trkpt lat="46.66209" lon="5.7182">
        <ele>586.6</ele>
        <time>2020-02-28T11:49:41Z</time>
      </trkpt>
      <trkpt lat="46.66204" lon="5.71816">
        <ele>586.6</ele>
        <time>2020-02-28T11:49:42Z</time>
      </trkpt>
      <trkpt lat="46.66199" lon="5.71812">
        <ele>586.6</ele>
        <time>2020-02-28T11:49:43Z</time>
      </trkpt>
      <trkpt lat="46.66194" lon="5.71808">
        <ele>586.6</ele>
        <time>2020-02-28T11:49:44Z</time>
      </trkpt>
      <trkpt lat="46.6619" lon="5.71805">
        <ele>586.6</ele>
        <time>2020-02-28T11:49:45Z</time>
      </trkpt>
      <trkpt lat="46.66185" lon="5.71801">
        <ele>586.6</ele>
        <time>2020-02-28T11:49:46Z</time>
      </trkpt>
      <trkpt lat="46.66181" lon="5.71797">
        <ele>586.6</ele>
        <time>2020-02-28T11:49:47Z</time>
      </trkpt>
      <trkpt lat="46.66177" lon="5.71793">
        <ele>586.4</ele>
        <time>2020-02-28T11:49:48Z</time>
      </trkpt>
      <trkpt lat="46.66172" lon="5.7179">
        <ele>586.4</ele>
        <time>2020-02-28T11:49:49Z</time>
      </trkpt>
      <trkpt lat="46.66168" lon="5.71786">
        <ele>586.4</ele>
        <time>2020-02-28T11:49:50Z</time>
      </trkpt>
      <trkpt lat="46.66164" lon="5.71784">
        <ele>586.4</ele>
        <time>2020-02-28T11:49:51Z</time>
      </trkpt>
      <trkpt lat="46.6616" lon="5.71781">
        <ele>586.4</ele>
        <time>2020-02-28T11:49:52Z</time>
      </trkpt>
      <trkpt lat="46.66156" lon="5.71779">
        <ele>586.2</ele>
        <time>2020-02-28T11:49:53Z</time>
      </trkpt>
      <trkpt lat="46.66152" lon="5.71776">
        <ele>586.2</ele>
        <time>2020-02-28T11:49:54Z</time>
      </trkpt>
      <trkpt lat="46.66148" lon="5.71773">
        <ele>586</ele>
        <time>2020-02-28T11:49:55Z</time>
      </trkpt>
      <trkpt lat="46.66144" lon="5.7177">
        <ele>586</ele>
        <time>2020-02-28T11:49:56Z</time>
      </trkpt>
      <trkpt lat="46.6614" lon="5.71767">
        <ele>586</ele>
        <time>2020-02-28T11:49:57Z</time>
      </trkpt>
      <trkpt lat="46.66134" lon="5.71764">
        <ele>585.6</ele>
        <time>2020-02-28T11:49:58Z</time>
      </trkpt>
      <trkpt lat="46.66132" lon="5.71763">
        <ele>585.6</ele>
        <time>2020-02-28T11:49:59Z</time>
      </trkpt>
      <trkpt lat="46.66128" lon="5.71762">
        <ele>585.6</ele>
        <time>2020-02-28T11:50:00Z</time>
      </trkpt>
      <trkpt lat="46.66124" lon="5.7176">
        <ele>585.2</ele>
        <time>2020-02-28T11:50:01Z</time>
      </trkpt>
      <trkpt lat="46.66117" lon="5.7176">
        <ele>585</ele>
        <time>2020-02-28T11:50:02Z</time>
      </trkpt>
      <trkpt lat="46.66115" lon="5.7176">
        <ele>585</ele>
        <time>2020-02-28T11:50:03Z</time>
      </trkpt>
      <trkpt lat="46.66112" lon="5.71762">
        <ele>585</ele>
        <time>2020-02-28T11:50:04Z</time>
      </trkpt>
      <trkpt lat="46.66108" lon="5.71766">
        <ele>585</ele>
        <time>2020-02-28T11:50:05Z</time>
      </trkpt>
      <trkpt lat="46.66105" lon="5.7177">
        <ele>585</ele>
        <time>2020-02-28T11:50:06Z</time>
      </trkpt>
      <trkpt lat="46.66103" lon="5.71775">
        <ele>585</ele>
        <time>2020-02-28T11:50:07Z</time>
      </trkpt>
      <trkpt lat="46.66102" lon="5.71781">
        <ele>585</ele>
        <time>2020-02-28T11:50:08Z</time>
      </trkpt>
      <trkpt lat="46.66102" lon="5.71786">
        <ele>585</ele>
        <time>2020-02-28T11:50:09Z</time>
      </trkpt>
      <trkpt lat="46.66101" lon="5.7179">
        <ele>585.2</ele>
        <time>2020-02-28T11:50:10Z</time>
      </trkpt>
      <trkpt lat="46.66099" lon="5.71794">
        <ele>585.2</ele>
        <time>2020-02-28T11:50:11Z</time>
      </trkpt>
      <trkpt lat="46.66098" lon="5.71799">
        <ele>585.6</ele>
        <time>2020-02-28T11:50:12Z</time>
      </trkpt>
      <trkpt lat="46.66097" lon="5.71803">
        <ele>585.8</ele>
        <time>2020-02-28T11:50:13Z</time>
      </trkpt>
      <trkpt lat="46.66096" lon="5.71806">
        <ele>585.8</ele>
        <time>2020-02-28T11:50:14Z</time>
      </trkpt>
      <trkpt lat="46.66095" lon="5.7181">
        <ele>586</ele>
        <time>2020-02-28T11:50:15Z</time>
      </trkpt>
      <trkpt lat="46.66094" lon="5.71814">
        <ele>586.2</ele>
        <time>2020-02-28T11:50:16Z</time>
      </trkpt>
      <trkpt lat="46.66093" lon="5.71817">
        <ele>586.2</ele>
        <time>2020-02-28T11:50:17Z</time>
      </trkpt>
      <trkpt lat="46.66092" lon="5.7182">
        <ele>586.6</ele>
        <time>2020-02-28T11:50:18Z</time>
      </trkpt>
      <trkpt lat="46.66091" lon="5.71823">
        <ele>586.6</ele>
        <time>2020-02-28T11:50:19Z</time>
      </trkpt>
      <trkpt lat="46.6609" lon="5.71829">
        <ele>587</ele>
        <time>2020-02-28T11:50:20Z</time>
      </trkpt>
      <trkpt lat="46.66089" lon="5.71831">
        <ele>587</ele>
        <time>2020-02-28T11:50:21Z</time>
      </trkpt>
      <trkpt lat="46.66088" lon="5.71834">
        <ele>587.2</ele>
        <time>2020-02-28T11:50:22Z</time>
      </trkpt>
      <trkpt lat="46.66087" lon="5.71837">
        <ele>587.2</ele>
        <time>2020-02-28T11:50:23Z</time>
      </trkpt>
      <trkpt lat="46.66086" lon="5.71841">
        <ele>587.4</ele>
        <time>2020-02-28T11:50:24Z</time>
      </trkpt>
      <trkpt lat="46.66085" lon="5.71844">
        <ele>587.4</ele>
        <time>2020-02-28T11:50:25Z</time>
      </trkpt>
      <trkpt lat="46.66084" lon="5.71848">
        <ele>587.4</ele>
        <time>2020-02-28T11:50:26Z</time>
      </trkpt>
      <trkpt lat="46.66082" lon="5.71852">
        <ele>587.8</ele>
        <time>2020-02-28T11:50:27Z</time>
      </trkpt>
      <trkpt lat="46.66081" lon="5.71855">
        <ele>587.8</ele>
        <time>2020-02-28T11:50:28Z</time>
      </trkpt>
      <trkpt lat="46.6608" lon="5.71859">
        <ele>587.8</ele>
        <time>2020-02-28T11:50:29Z</time>
      </trkpt>
      <trkpt lat="46.66079" lon="5.71863">
        <ele>588</ele>
        <time>2020-02-28T11:50:30Z</time>
      </trkpt>
      <trkpt lat="46.66077" lon="5.71867">
        <ele>588</ele>
        <time>2020-02-28T11:50:31Z</time>
      </trkpt>
      <trkpt lat="46.66076" lon="5.71871">
        <ele>588</ele>
        <time>2020-02-28T11:50:32Z</time>
      </trkpt>
      <trkpt lat="46.66074" lon="5.71875">
        <ele>588</ele>
        <time>2020-02-28T11:50:33Z</time>
      </trkpt>
      <trkpt lat="46.66072" lon="5.7188">
        <ele>588</ele>
        <time>2020-02-28T11:50:34Z</time>
      </trkpt>
      <trkpt lat="46.66071" lon="5.71884">
        <ele>587.8</ele>
        <time>2020-02-28T11:50:35Z</time>
      </trkpt>
      <trkpt lat="46.6607" lon="5.71889">
        <ele>587.8</ele>
        <time>2020-02-28T11:50:36Z</time>
      </trkpt>
      <trkpt lat="46.66068" lon="5.71895">
        <ele>587.4</ele>
        <time>2020-02-28T11:50:37Z</time>
      </trkpt>
      <trkpt lat="46.66066" lon="5.71901">
        <ele>587.2</ele>
        <time>2020-02-28T11:50:38Z</time>
      </trkpt>
      <trkpt lat="46.66064" lon="5.71907">
        <ele>586.8</ele>
        <time>2020-02-28T11:50:39Z</time>
      </trkpt>
      <trkpt lat="46.66062" lon="5.71913">
        <ele>586.6</ele>
        <time>2020-02-28T11:50:40Z</time>
      </trkpt>
      <trkpt lat="46.6606" lon="5.7192">
        <ele>586.4</ele>
        <time>2020-02-28T11:50:41Z</time>
      </trkpt>
      <trkpt lat="46.66057" lon="5.71927">
        <ele>586</ele>
        <time>2020-02-28T11:50:42Z</time>
      </trkpt>
      <trkpt lat="46.66053" lon="5.71939">
        <ele>585.6</ele>
        <time>2020-02-28T11:50:43Z</time>
      </trkpt>
      <trkpt lat="46.66052" lon="5.71943">
        <ele>585.4</ele>
        <time>2020-02-28T11:50:44Z</time>
      </trkpt>
      <trkpt lat="46.66049" lon="5.71951">
        <ele>585.2</ele>
        <time>2020-02-28T11:50:45Z</time>
      </trkpt>
      <trkpt lat="46.66046" lon="5.71959">
        <ele>584.8</ele>
        <time>2020-02-28T11:50:46Z</time>
      </trkpt>
      <trkpt lat="46.66043" lon="5.71967">
        <ele>584.6</ele>
        <time>2020-02-28T11:50:47Z</time>
      </trkpt>
      <trkpt lat="46.6604" lon="5.71974">
        <ele>584.6</ele>
        <time>2020-02-28T11:50:48Z</time>
      </trkpt>
      <trkpt lat="46.66037" lon="5.71982">
        <ele>584.4</ele>
        <time>2020-02-28T11:50:49Z</time>
      </trkpt>
      <trkpt lat="46.66035" lon="5.7199">
        <ele>584</ele>
        <time>2020-02-28T11:50:50Z</time>
      </trkpt>
      <trkpt lat="46.66032" lon="5.71997">
        <ele>583.8</ele>
        <time>2020-02-28T11:50:51Z</time>
      </trkpt>
      <trkpt lat="46.6603" lon="5.72005">
        <ele>583.6</ele>
        <time>2020-02-28T11:50:52Z</time>
      </trkpt>
      <trkpt lat="46.66027" lon="5.72011">
        <ele>583.2</ele>
        <time>2020-02-28T11:50:53Z</time>
      </trkpt>
      <trkpt lat="46.66025" lon="5.72018">
        <ele>582.8</ele>
        <time>2020-02-28T11:50:54Z</time>
      </trkpt>
      <trkpt lat="46.66021" lon="5.72026">
        <ele>582.6</ele>
        <time>2020-02-28T11:50:55Z</time>
      </trkpt>
      <trkpt lat="46.66019" lon="5.72029">
        <ele>582.4</ele>
        <time>2020-02-28T11:50:56Z</time>
      </trkpt>
      <trkpt lat="46.66016" lon="5.72034">
        <ele>582</ele>
        <time>2020-02-28T11:50:57Z</time>
      </trkpt>
      <trkpt lat="46.6601" lon="5.72041">
        <ele>581.8</ele>
        <time>2020-02-28T11:50:58Z</time>
      </trkpt>
      <trkpt lat="46.66008" lon="5.72043">
        <ele>581.4</ele>
        <time>2020-02-28T11:50:59Z</time>
      </trkpt>
      <trkpt lat="46.66005" lon="5.72047">
        <ele>581.2</ele>
        <time>2020-02-28T11:51:00Z</time>
      </trkpt>
      <trkpt lat="46.66001" lon="5.72052">
        <ele>581</ele>
        <time>2020-02-28T11:51:01Z</time>
      </trkpt>
      <trkpt lat="46.65998" lon="5.72057">
        <ele>581</ele>
        <time>2020-02-28T11:51:02Z</time>
      </trkpt>
      <trkpt lat="46.65996" lon="5.72061">
        <ele>580.6</ele>
        <time>2020-02-28T11:51:03Z</time>
      </trkpt>
      <trkpt lat="46.65994" lon="5.72066">
        <ele>580.6</ele>
        <time>2020-02-28T11:51:04Z</time>
      </trkpt>
      <trkpt lat="46.65992" lon="5.7207">
        <ele>580.4</ele>
        <time>2020-02-28T11:51:05Z</time>
      </trkpt>
      <trkpt lat="46.65991" lon="5.72074">
        <ele>580.4</ele>
        <time>2020-02-28T11:51:06Z</time>
      </trkpt>
      <trkpt lat="46.6599" lon="5.72078">
        <ele>580</ele>
        <time>2020-02-28T11:51:07Z</time>
      </trkpt>
      <trkpt lat="46.65989" lon="5.72082">
        <ele>580</ele>
        <time>2020-02-28T11:51:08Z</time>
      </trkpt>
      <trkpt lat="46.65988" lon="5.72086">
        <ele>579.8</ele>
        <time>2020-02-28T11:51:09Z</time>
      </trkpt>
      <trkpt lat="46.65987" lon="5.7209">
        <ele>579.8</ele>
        <time>2020-02-28T11:51:10Z</time>
      </trkpt>
      <trkpt lat="46.65987" lon="5.72093">
        <ele>579.8</ele>
        <time>2020-02-28T11:51:11Z</time>
      </trkpt>
      <trkpt lat="46.65987" lon="5.72096">
        <ele>579.8</ele>
        <time>2020-02-28T11:51:12Z</time>
      </trkpt>
      <trkpt lat="46.65986" lon="5.72098">
        <ele>579.8</ele>
        <time>2020-02-28T11:51:13Z</time>
      </trkpt>
      <trkpt lat="46.65986" lon="5.72098">
        <ele>579.6</ele>
        <time>2020-02-28T11:51:14Z</time>
      </trkpt>
      <trkpt lat="46.65986" lon="5.72107">
        <ele>579.4</ele>
        <time>2020-02-28T11:54:33Z</time>
      </trkpt>
      <trkpt lat="46.65986" lon="5.72104">
        <ele>579.4</ele>
        <time>2020-02-28T11:54:34Z</time>
      </trkpt>
      <trkpt lat="46.65986" lon="5.72102">
        <ele>579.4</ele>
        <time>2020-02-28T11:54:35Z</time>
      </trkpt>
      <trkpt lat="46.65985" lon="5.721">
        <ele>579.4</ele>
        <time>2020-02-28T11:54:36Z</time>
      </trkpt>
      <trkpt lat="46.65985" lon="5.72098">
        <ele>579.6</ele>
        <time>2020-02-28T11:54:37Z</time>
      </trkpt>
      <trkpt lat="46.65985" lon="5.72096">
        <ele>579.6</ele>
        <time>2020-02-28T11:54:38Z</time>
      </trkpt>
      <trkpt lat="46.65985" lon="5.72095">
        <ele>579.6</ele>
        <time>2020-02-28T11:54:39Z</time>
      </trkpt>
      <trkpt lat="46.65985" lon="5.72093">
        <ele>579.6</ele>
        <time>2020-02-28T11:54:40Z</time>
      </trkpt>
      <trkpt lat="46.65985" lon="5.72092">
        <ele>579.6</ele>
        <time>2020-02-28T11:54:41Z</time>
      </trkpt>
      <trkpt lat="46.65986" lon="5.7209">
        <ele>579.6</ele>
        <time>2020-02-28T11:54:42Z</time>
      </trkpt>
      <trkpt lat="46.65987" lon="5.7209">
        <ele>579.6</ele>
        <time>2020-02-28T11:54:43Z</time>
      </trkpt>
      <trkpt lat="46.65988" lon="5.72091">
        <ele>579.6</ele>
        <time>2020-02-28T11:54:44Z</time>
      </trkpt>
      <trkpt lat="46.65989" lon="5.72092">
        <ele>579.8</ele>
        <time>2020-02-28T11:54:45Z</time>
      </trkpt>
      <trkpt lat="46.65989" lon="5.72094">
        <ele>579.8</ele>
        <time>2020-02-28T11:54:46Z</time>
      </trkpt>
      <trkpt lat="46.6599" lon="5.72096">
        <ele>579.8</ele>
        <time>2020-02-28T11:54:47Z</time>
      </trkpt>
      <trkpt lat="46.65991" lon="5.72098">
        <ele>579.8</ele>
        <time>2020-02-28T11:54:48Z</time>
      </trkpt>
      <trkpt lat="46.65992" lon="5.721">
        <ele>580</ele>
        <time>2020-02-28T11:54:49Z</time>
      </trkpt>
      <trkpt lat="46.65993" lon="5.72102">
        <ele>580</ele>
        <time>2020-02-28T11:54:50Z</time>
      </trkpt>
      <trkpt lat="46.65994" lon="5.72105">
        <ele>580</ele>
        <time>2020-02-28T11:54:51Z</time>
      </trkpt>
      <trkpt lat="46.65995" lon="5.72109">
        <ele>580</ele>
        <time>2020-02-28T11:54:52Z</time>
      </trkpt>
      <trkpt lat="46.65996" lon="5.72113">
        <ele>579.8</ele>
        <time>2020-02-28T11:54:53Z</time>
      </trkpt>
      <trkpt lat="46.65997" lon="5.72117">
        <ele>579.8</ele>
        <time>2020-02-28T11:54:54Z</time>
      </trkpt>
      <trkpt lat="46.65997" lon="5.72122">
        <ele>579.6</ele>
        <time>2020-02-28T11:54:55Z</time>
      </trkpt>
      <trkpt lat="46.65999" lon="5.72127">
        <ele>579.6</ele>
        <time>2020-02-28T11:54:56Z</time>
      </trkpt>
      <trkpt lat="46.66" lon="5.72133">
        <ele>579.2</ele>
        <time>2020-02-28T11:54:57Z</time>
      </trkpt>
      <trkpt lat="46.66003" lon="5.72139">
        <ele>579.2</ele>
        <time>2020-02-28T11:54:58Z</time>
      </trkpt>
      <trkpt lat="46.66005" lon="5.72145">
        <ele>578.8</ele>
        <time>2020-02-28T11:54:59Z</time>
      </trkpt>
      <trkpt lat="46.66009" lon="5.72151">
        <ele>578.6</ele>
        <time>2020-02-28T11:55:00Z</time>
      </trkpt>
      <trkpt lat="46.66012" lon="5.72157">
        <ele>578.6</ele>
        <time>2020-02-28T11:55:01Z</time>
      </trkpt>
      <trkpt lat="46.66016" lon="5.72163">
        <ele>578.2</ele>
        <time>2020-02-28T11:55:02Z</time>
      </trkpt>
      <trkpt lat="46.66021" lon="5.7217">
        <ele>578</ele>
        <time>2020-02-28T11:55:03Z</time>
      </trkpt>
      <trkpt lat="46.66025" lon="5.72176">
        <ele>577.6</ele>
        <time>2020-02-28T11:55:04Z</time>
      </trkpt>
      <trkpt lat="46.6603" lon="5.72183">
        <ele>577.4</ele>
        <time>2020-02-28T11:55:05Z</time>
      </trkpt>
      <trkpt lat="46.66034" lon="5.7219">
        <ele>577.2</ele>
        <time>2020-02-28T11:55:06Z</time>
      </trkpt>
      <trkpt lat="46.66039" lon="5.72196">
        <ele>576.8</ele>
        <time>2020-02-28T11:55:07Z</time>
      </trkpt>
      <trkpt lat="46.66043" lon="5.72203">
        <ele>576.6</ele>
        <time>2020-02-28T11:55:08Z</time>
      </trkpt>
      <trkpt lat="46.66048" lon="5.72209">
        <ele>576.2</ele>
        <time>2020-02-28T11:55:09Z</time>
      </trkpt>
      <trkpt lat="46.66051" lon="5.72214">
        <ele>576</ele>
        <time>2020-02-28T11:55:10Z</time>
      </trkpt>
      <trkpt lat="46.66055" lon="5.7222">
        <ele>575.6</ele>
        <time>2020-02-28T11:55:11Z</time>
      </trkpt>
      <trkpt lat="46.66058" lon="5.72225">
        <ele>575.4</ele>
        <time>2020-02-28T11:55:12Z</time>
      </trkpt>
      <trkpt lat="46.66061" lon="5.72231">
        <ele>575.2</ele>
        <time>2020-02-28T11:55:13Z</time>
      </trkpt>
      <trkpt lat="46.66064" lon="5.72235">
        <ele>575</ele>
        <time>2020-02-28T11:55:14Z</time>
      </trkpt>
      <trkpt lat="46.66066" lon="5.7224">
        <ele>575</ele>
        <time>2020-02-28T11:55:15Z</time>
      </trkpt>
      <trkpt lat="46.66069" lon="5.72245">
        <ele>574.6</ele>
        <time>2020-02-28T11:55:16Z</time>
      </trkpt>
      <trkpt lat="46.66071" lon="5.72249">
        <ele>574.6</ele>
        <time>2020-02-28T11:55:17Z</time>
      </trkpt>
      <trkpt lat="46.66073" lon="5.72252">
        <ele>574.4</ele>
        <time>2020-02-28T11:55:18Z</time>
      </trkpt>
      <trkpt lat="46.66074" lon="5.72254">
        <ele>574.4</ele>
        <time>2020-02-28T11:55:19Z</time>
      </trkpt>
      <trkpt lat="46.66075" lon="5.72256">
        <ele>574</ele>
        <time>2020-02-28T11:55:20Z</time>
      </trkpt>
      <trkpt lat="46.66075" lon="5.72258">
        <ele>574</ele>
        <time>2020-02-28T11:55:21Z</time>
      </trkpt>
      <trkpt lat="46.66075" lon="5.72258">
        <ele>573.8</ele>
        <time>2020-02-28T11:55:22Z</time>
      </trkpt>
      <trkpt lat="46.66077" lon="5.7226">
        <ele>573.6</ele>
        <time>2020-02-28T11:55:44Z</time>
      </trkpt>
      <trkpt lat="46.66078" lon="5.72262">
        <ele>573.6</ele>
        <time>2020-02-28T11:55:45Z</time>
      </trkpt>
      <trkpt lat="46.6608" lon="5.72263">
        <ele>573.6</ele>
        <time>2020-02-28T11:55:46Z</time>
      </trkpt>
      <trkpt lat="46.66081" lon="5.72265">
        <ele>573.6</ele>
        <time>2020-02-28T11:55:47Z</time>
      </trkpt>
      <trkpt lat="46.66083" lon="5.72266">
        <ele>573.6</ele>
        <time>2020-02-28T11:55:48Z</time>
      </trkpt>
      <trkpt lat="46.66085" lon="5.72268">
        <ele>573.4</ele>
        <time>2020-02-28T11:55:49Z</time>
      </trkpt>
      <trkpt lat="46.66088" lon="5.7227">
        <ele>573.4</ele>
        <time>2020-02-28T11:55:50Z</time>
      </trkpt>
      <trkpt lat="46.66091" lon="5.72272">
        <ele>573.2</ele>
        <time>2020-02-28T11:55:51Z</time>
      </trkpt>
      <trkpt lat="46.66094" lon="5.72274">
        <ele>573.2</ele>
        <time>2020-02-28T11:55:52Z</time>
      </trkpt>
      <trkpt lat="46.66098" lon="5.72275">
        <ele>572.8</ele>
        <time>2020-02-28T11:55:53Z</time>
      </trkpt>
      <trkpt lat="46.66102" lon="5.72277">
        <ele>572.8</ele>
        <time>2020-02-28T11:55:54Z</time>
      </trkpt>
      <trkpt lat="46.66107" lon="5.72278">
        <ele>572.4</ele>
        <time>2020-02-28T11:55:55Z</time>
      </trkpt>
      <trkpt lat="46.66112" lon="5.72279">
        <ele>572.2</ele>
        <time>2020-02-28T11:55:56Z</time>
      </trkpt>
      <trkpt lat="46.66118" lon="5.7228">
        <ele>572</ele>
        <time>2020-02-28T11:55:57Z</time>
      </trkpt>
      <trkpt lat="46.66124" lon="5.72281">
        <ele>571.6</ele>
        <time>2020-02-28T11:55:58Z</time>
      </trkpt>
      <trkpt lat="46.66131" lon="5.72282">
        <ele>571.4</ele>
        <time>2020-02-28T11:55:59Z</time>
      </trkpt>
      <trkpt lat="46.66138" lon="5.72284">
        <ele>571</ele>
        <time>2020-02-28T11:56:00Z</time>
      </trkpt>
      <trkpt lat="46.66145" lon="5.72286">
        <ele>570.8</ele>
        <time>2020-02-28T11:56:01Z</time>
      </trkpt>
      <trkpt lat="46.66152" lon="5.72289">
        <ele>570.4</ele>
        <time>2020-02-28T11:56:02Z</time>
      </trkpt>
      <trkpt lat="46.6616" lon="5.72295">
        <ele>570</ele>
        <time>2020-02-28T11:56:03Z</time>
      </trkpt>
      <trkpt lat="46.66167" lon="5.72302">
        <ele>569.4</ele>
        <time>2020-02-28T11:56:04Z</time>
      </trkpt>
      <trkpt lat="46.66173" lon="5.7231">
        <ele>569</ele>
        <time>2020-02-28T11:56:05Z</time>
      </trkpt>
      <trkpt lat="46.6618" lon="5.72319">
        <ele>568.6</ele>
        <time>2020-02-28T11:56:06Z</time>
      </trkpt>
      <trkpt lat="46.66187" lon="5.72328">
        <ele>568</ele>
        <time>2020-02-28T11:56:07Z</time>
      </trkpt>
      <trkpt lat="46.66194" lon="5.72338">
        <ele>567.6</ele>
        <time>2020-02-28T11:56:08Z</time>
      </trkpt>
      <trkpt lat="46.66202" lon="5.72347">
        <ele>567</ele>
        <time>2020-02-28T11:56:09Z</time>
      </trkpt>
      <trkpt lat="46.66209" lon="5.72358">
        <ele>566.4</ele>
        <time>2020-02-28T11:56:10Z</time>
      </trkpt>
      <trkpt lat="46.66217" lon="5.72368">
        <ele>566</ele>
        <time>2020-02-28T11:56:11Z</time>
      </trkpt>
      <trkpt lat="46.66224" lon="5.72379">
        <ele>565.4</ele>
        <time>2020-02-28T11:56:12Z</time>
      </trkpt>
      <trkpt lat="46.66232" lon="5.72389">
        <ele>564.8</ele>
        <time>2020-02-28T11:56:13Z</time>
      </trkpt>
      <trkpt lat="46.66239" lon="5.724">
        <ele>564.2</ele>
        <time>2020-02-28T11:56:14Z</time>
      </trkpt>
      <trkpt lat="46.66247" lon="5.7241">
        <ele>563.6</ele>
        <time>2020-02-28T11:56:15Z</time>
      </trkpt>
      <trkpt lat="46.66255" lon="5.7242">
        <ele>563</ele>
        <time>2020-02-28T11:56:16Z</time>
      </trkpt>
      <trkpt lat="46.66262" lon="5.7243">
        <ele>562.4</ele>
        <time>2020-02-28T11:56:17Z</time>
      </trkpt>
      <trkpt lat="46.66268" lon="5.7244">
        <ele>562</ele>
        <time>2020-02-28T11:56:18Z</time>
      </trkpt>
      <trkpt lat="46.66275" lon="5.7245">
        <ele>561.4</ele>
        <time>2020-02-28T11:56:19Z</time>
      </trkpt>
      <trkpt lat="46.66281" lon="5.7246">
        <ele>560.8</ele>
        <time>2020-02-28T11:56:20Z</time>
      </trkpt>
      <trkpt lat="46.66287" lon="5.7247">
        <ele>560.4</ele>
        <time>2020-02-28T11:56:21Z</time>
      </trkpt>
      <trkpt lat="46.66293" lon="5.72482">
        <ele>559.8</ele>
        <time>2020-02-28T11:56:22Z</time>
      </trkpt>
      <trkpt lat="46.66298" lon="5.72493">
        <ele>559</ele>
        <time>2020-02-28T11:56:23Z</time>
      </trkpt>
      <trkpt lat="46.66303" lon="5.72506">
        <ele>558.4</ele>
        <time>2020-02-28T11:56:24Z</time>
      </trkpt>
      <trkpt lat="46.66308" lon="5.72519">
        <ele>557.6</ele>
        <time>2020-02-28T11:56:25Z</time>
      </trkpt>
      <trkpt lat="46.66312" lon="5.72532">
        <ele>557.2</ele>
        <time>2020-02-28T11:56:26Z</time>
      </trkpt>
      <trkpt lat="46.66315" lon="5.72546">
        <ele>556.6</ele>
        <time>2020-02-28T11:56:27Z</time>
      </trkpt>
      <trkpt lat="46.66318" lon="5.72559">
        <ele>555.8</ele>
        <time>2020-02-28T11:56:28Z</time>
      </trkpt>
      <trkpt lat="46.6632" lon="5.72573">
        <ele>555.2</ele>
        <time>2020-02-28T11:56:29Z</time>
      </trkpt>
      <trkpt lat="46.66321" lon="5.72586">
        <ele>554.6</ele>
        <time>2020-02-28T11:56:30Z</time>
      </trkpt>
      <trkpt lat="46.66322" lon="5.72599">
        <ele>554</ele>
        <time>2020-02-28T11:56:31Z</time>
      </trkpt>
      <trkpt lat="46.66321" lon="5.72613">
        <ele>553.4</ele>
        <time>2020-02-28T11:56:32Z</time>
      </trkpt>
      <trkpt lat="46.6632" lon="5.72627">
        <ele>552.8</ele>
        <time>2020-02-28T11:56:33Z</time>
      </trkpt>
      <trkpt lat="46.66317" lon="5.72641">
        <ele>552.2</ele>
        <time>2020-02-28T11:56:34Z</time>
      </trkpt>
      <trkpt lat="46.66314" lon="5.72655">
        <ele>551.8</ele>
        <time>2020-02-28T11:56:35Z</time>
      </trkpt>
      <trkpt lat="46.66311" lon="5.72668">
        <ele>551.4</ele>
        <time>2020-02-28T11:56:36Z</time>
      </trkpt>
      <trkpt lat="46.66305" lon="5.72682">
        <ele>551</ele>
        <time>2020-02-28T11:56:37Z</time>
      </trkpt>
      <trkpt lat="46.66301" lon="5.72694">
        <ele>550.4</ele>
        <time>2020-02-28T11:56:38Z</time>
      </trkpt>
      <trkpt lat="46.66296" lon="5.72706">
        <ele>550</ele>
        <time>2020-02-28T11:56:39Z</time>
      </trkpt>
      <trkpt lat="46.66293" lon="5.72717">
        <ele>549.4</ele>
        <time>2020-02-28T11:56:40Z</time>
      </trkpt>
      <trkpt lat="46.66289" lon="5.72728">
        <ele>548.8</ele>
        <time>2020-02-28T11:56:41Z</time>
      </trkpt>
      <trkpt lat="46.66286" lon="5.72738">
        <ele>548.4</ele>
        <time>2020-02-28T11:56:42Z</time>
      </trkpt>
      <trkpt lat="46.66281" lon="5.72748">
        <ele>548</ele>
        <time>2020-02-28T11:56:43Z</time>
      </trkpt>
      <trkpt lat="46.66276" lon="5.72758">
        <ele>547.6</ele>
        <time>2020-02-28T11:56:44Z</time>
      </trkpt>
      <trkpt lat="46.6627" lon="5.72767">
        <ele>547</ele>
        <time>2020-02-28T11:56:45Z</time>
      </trkpt>
      <trkpt lat="46.66263" lon="5.72775">
        <ele>546.6</ele>
        <time>2020-02-28T11:56:46Z</time>
      </trkpt>
      <trkpt lat="46.66256" lon="5.72782">
        <ele>546.2</ele>
        <time>2020-02-28T11:56:47Z</time>
      </trkpt>
      <trkpt lat="46.66248" lon="5.7279">
        <ele>545.8</ele>
        <time>2020-02-28T11:56:48Z</time>
      </trkpt>
      <trkpt lat="46.66239" lon="5.72797">
        <ele>545.2</ele>
        <time>2020-02-28T11:56:49Z</time>
      </trkpt>
      <trkpt lat="46.6623" lon="5.72804">
        <ele>544.6</ele>
        <time>2020-02-28T11:56:50Z</time>
      </trkpt>
      <trkpt lat="46.6622" lon="5.72811">
        <ele>544.2</ele>
        <time>2020-02-28T11:56:51Z</time>
      </trkpt>
      <trkpt lat="46.6621" lon="5.72815">
        <ele>543.6</ele>
        <time>2020-02-28T11:56:52Z</time>
      </trkpt>
      <trkpt lat="46.662" lon="5.7282">
        <ele>543.2</ele>
        <time>2020-02-28T11:56:53Z</time>
      </trkpt>
      <trkpt lat="46.6619" lon="5.72825">
        <ele>542.6</ele>
        <time>2020-02-28T11:56:54Z</time>
      </trkpt>
      <trkpt lat="46.6618" lon="5.72829">
        <ele>542</ele>
        <time>2020-02-28T11:56:55Z</time>
      </trkpt>
      <trkpt lat="46.66171" lon="5.72835">
        <ele>541.4</ele>
        <time>2020-02-28T11:56:56Z</time>
      </trkpt>
      <trkpt lat="46.66161" lon="5.7284">
        <ele>540.8</ele>
        <time>2020-02-28T11:56:57Z</time>
      </trkpt>
      <trkpt lat="46.66151" lon="5.72845">
        <ele>540.4</ele>
        <time>2020-02-28T11:56:58Z</time>
      </trkpt>
      <trkpt lat="46.66141" lon="5.72851">
        <ele>539.8</ele>
        <time>2020-02-28T11:56:59Z</time>
      </trkpt>
      <trkpt lat="46.66131" lon="5.72856">
        <ele>539.4</ele>
        <time>2020-02-28T11:57:00Z</time>
      </trkpt>
      <trkpt lat="46.66121" lon="5.72862">
        <ele>539</ele>
        <time>2020-02-28T11:57:01Z</time>
      </trkpt>
      <trkpt lat="46.6611" lon="5.72867">
        <ele>538.2</ele>
        <time>2020-02-28T11:57:02Z</time>
      </trkpt>
      <trkpt lat="46.661" lon="5.72872">
        <ele>537.6</ele>
        <time>2020-02-28T11:57:03Z</time>
      </trkpt>
      <trkpt lat="46.66091" lon="5.72878">
        <ele>537</ele>
        <time>2020-02-28T11:57:04Z</time>
      </trkpt>
      <trkpt lat="46.66082" lon="5.72885">
        <ele>536.6</ele>
        <time>2020-02-28T11:57:05Z</time>
      </trkpt>
      <trkpt lat="46.66074" lon="5.72894">
        <ele>536</ele>
        <time>2020-02-28T11:57:06Z</time>
      </trkpt>
      <trkpt lat="46.66067" lon="5.72905">
        <ele>535.6</ele>
        <time>2020-02-28T11:57:07Z</time>
      </trkpt>
      <trkpt lat="46.6606" lon="5.72916">
        <ele>535</ele>
        <time>2020-02-28T11:57:08Z</time>
      </trkpt>
      <trkpt lat="46.66053" lon="5.72927">
        <ele>534.2</ele>
        <time>2020-02-28T11:57:09Z</time>
      </trkpt>
      <trkpt lat="46.66047" lon="5.72938">
        <ele>533.6</ele>
        <time>2020-02-28T11:57:10Z</time>
      </trkpt>
      <trkpt lat="46.6604" lon="5.72948">
        <ele>532.8</ele>
        <time>2020-02-28T11:57:11Z</time>
      </trkpt>
      <trkpt lat="46.66033" lon="5.72957">
        <ele>532.2</ele>
        <time>2020-02-28T11:57:12Z</time>
      </trkpt>
      <trkpt lat="46.66025" lon="5.72965">
        <ele>531.6</ele>
        <time>2020-02-28T11:57:13Z</time>
      </trkpt>
      <trkpt lat="46.66016" lon="5.72973">
        <ele>531.2</ele>
        <time>2020-02-28T11:57:14Z</time>
      </trkpt>
      <trkpt lat="46.66008" lon="5.72981">
        <ele>530.8</ele>
        <time>2020-02-28T11:57:15Z</time>
      </trkpt>
      <trkpt lat="46.66001" lon="5.7299">
        <ele>530.2</ele>
        <time>2020-02-28T11:57:16Z</time>
      </trkpt>
      <trkpt lat="46.65995" lon="5.72999">
        <ele>530</ele>
        <time>2020-02-28T11:57:17Z</time>
      </trkpt>
      <trkpt lat="46.65988" lon="5.73008">
        <ele>529.4</ele>
        <time>2020-02-28T11:57:18Z</time>
      </trkpt>
      <trkpt lat="46.65982" lon="5.73017">
        <ele>529</ele>
        <time>2020-02-28T11:57:19Z</time>
      </trkpt>
      <trkpt lat="46.65977" lon="5.73026">
        <ele>528.6</ele>
        <time>2020-02-28T11:57:20Z</time>
      </trkpt>
      <trkpt lat="46.65972" lon="5.73035">
        <ele>528.2</ele>
        <time>2020-02-28T11:57:21Z</time>
      </trkpt>
      <trkpt lat="46.65968" lon="5.73043">
        <ele>527.8</ele>
        <time>2020-02-28T11:57:22Z</time>
      </trkpt>
      <trkpt lat="46.65965" lon="5.7305">
        <ele>527.4</ele>
        <time>2020-02-28T11:57:23Z</time>
      </trkpt>
      <trkpt lat="46.65961" lon="5.73055">
        <ele>527.2</ele>
        <time>2020-02-28T11:57:24Z</time>
      </trkpt>
      <trkpt lat="46.65955" lon="5.73058">
        <ele>526.8</ele>
        <time>2020-02-28T11:57:25Z</time>
      </trkpt>
      <trkpt lat="46.65949" lon="5.73059">
        <ele>526.6</ele>
        <time>2020-02-28T11:57:26Z</time>
      </trkpt>
      <trkpt lat="46.65942" lon="5.73058">
        <ele>526.2</ele>
        <time>2020-02-28T11:57:27Z</time>
      </trkpt>
      <trkpt lat="46.65935" lon="5.73057">
        <ele>526.2</ele>
        <time>2020-02-28T11:57:28Z</time>
      </trkpt>
      <trkpt lat="46.65928" lon="5.73055">
        <ele>525.8</ele>
        <time>2020-02-28T11:57:29Z</time>
      </trkpt>
      <trkpt lat="46.65921" lon="5.73052">
        <ele>525.8</ele>
        <time>2020-02-28T11:57:30Z</time>
      </trkpt>
      <trkpt lat="46.65915" lon="5.73049">
        <ele>525.6</ele>
        <time>2020-02-28T11:57:31Z</time>
      </trkpt>
      <trkpt lat="46.65909" lon="5.73043">
        <ele>525.6</ele>
        <time>2020-02-28T11:57:32Z</time>
      </trkpt>
      <trkpt lat="46.65905" lon="5.73036">
        <ele>525.4</ele>
        <time>2020-02-28T11:57:33Z</time>
      </trkpt>
      <trkpt lat="46.65901" lon="5.73029">
        <ele>525.4</ele>
        <time>2020-02-28T11:57:34Z</time>
      </trkpt>
      <trkpt lat="46.65897" lon="5.73022">
        <ele>525.4</ele>
        <time>2020-02-28T11:57:35Z</time>
      </trkpt>
      <trkpt lat="46.65894" lon="5.73013">
        <ele>525.4</ele>
        <time>2020-02-28T11:57:36Z</time>
      </trkpt>
      <trkpt lat="46.65892" lon="5.73005">
        <ele>525.4</ele>
        <time>2020-02-28T11:57:37Z</time>
      </trkpt>
      <trkpt lat="46.65889" lon="5.72996">
        <ele>525.4</ele>
        <time>2020-02-28T11:57:38Z</time>
      </trkpt>
      <trkpt lat="46.65886" lon="5.72988">
        <ele>525.4</ele>
        <time>2020-02-28T11:57:39Z</time>
      </trkpt>
      <trkpt lat="46.65884" lon="5.7298">
        <ele>525.4</ele>
        <time>2020-02-28T11:57:40Z</time>
      </trkpt>
      <trkpt lat="46.65881" lon="5.72971">
        <ele>525.4</ele>
        <time>2020-02-28T11:57:41Z</time>
      </trkpt>
      <trkpt lat="46.65879" lon="5.72962">
        <ele>525.4</ele>
        <time>2020-02-28T11:57:42Z</time>
      </trkpt>
      <trkpt lat="46.65877" lon="5.72953">
        <ele>525</ele>
        <time>2020-02-28T11:57:43Z</time>
      </trkpt>
      <trkpt lat="46.65874" lon="5.72943">
        <ele>525</ele>
        <time>2020-02-28T11:57:44Z</time>
      </trkpt>
      <trkpt lat="46.65872" lon="5.72934">
        <ele>524.8</ele>
        <time>2020-02-28T11:57:45Z</time>
      </trkpt>
      <trkpt lat="46.6587" lon="5.72924">
        <ele>524.8</ele>
        <time>2020-02-28T11:57:46Z</time>
      </trkpt>
      <trkpt lat="46.65867" lon="5.72915">
        <ele>524.8</ele>
        <time>2020-02-28T11:57:47Z</time>
      </trkpt>
      <trkpt lat="46.65865" lon="5.72906">
        <ele>524.4</ele>
        <time>2020-02-28T11:57:48Z</time>
      </trkpt>
      <trkpt lat="46.65863" lon="5.72898">
        <ele>524.4</ele>
        <time>2020-02-28T11:57:49Z</time>
      </trkpt>
      <trkpt lat="46.65861" lon="5.72889">
        <ele>524.4</ele>
        <time>2020-02-28T11:57:50Z</time>
      </trkpt>
      <trkpt lat="46.65859" lon="5.7288">
        <ele>524</ele>
        <time>2020-02-28T11:57:51Z</time>
      </trkpt>
      <trkpt lat="46.65857" lon="5.72872">
        <ele>524</ele>
        <time>2020-02-28T11:57:52Z</time>
      </trkpt>
      <trkpt lat="46.65856" lon="5.72864">
        <ele>524</ele>
        <time>2020-02-28T11:57:53Z</time>
      </trkpt>
      <trkpt lat="46.65854" lon="5.72855">
        <ele>524</ele>
        <time>2020-02-28T11:57:54Z</time>
      </trkpt>
      <trkpt lat="46.65852" lon="5.72847">
        <ele>524</ele>
        <time>2020-02-28T11:57:55Z</time>
      </trkpt>
      <trkpt lat="46.6585" lon="5.72839">
        <ele>524</ele>
        <time>2020-02-28T11:57:56Z</time>
      </trkpt>
      <trkpt lat="46.65848" lon="5.72831">
        <ele>523.8</ele>
        <time>2020-02-28T11:57:57Z</time>
      </trkpt>
      <trkpt lat="46.65847" lon="5.72822">
        <ele>523.8</ele>
        <time>2020-02-28T11:57:58Z</time>
      </trkpt>
      <trkpt lat="46.65845" lon="5.72813">
        <ele>523.4</ele>
        <time>2020-02-28T11:57:59Z</time>
      </trkpt>
      <trkpt lat="46.65842" lon="5.72805">
        <ele>523.2</ele>
        <time>2020-02-28T11:58:00Z</time>
      </trkpt>
      <trkpt lat="46.65839" lon="5.72797">
        <ele>522.8</ele>
        <time>2020-02-28T11:58:01Z</time>
      </trkpt>
      <trkpt lat="46.65835" lon="5.72789">
        <ele>522.4</ele>
        <time>2020-02-28T11:58:02Z</time>
      </trkpt>
      <trkpt lat="46.6583" lon="5.72782">
        <ele>522</ele>
        <time>2020-02-28T11:58:03Z</time>
      </trkpt>
      <trkpt lat="46.65825" lon="5.72774">
        <ele>521.8</ele>
        <time>2020-02-28T11:58:04Z</time>
      </trkpt>
      <trkpt lat="46.65821" lon="5.72765">
        <ele>521.4</ele>
        <time>2020-02-28T11:58:05Z</time>
      </trkpt>
      <trkpt lat="46.65816" lon="5.72756">
        <ele>521</ele>
        <time>2020-02-28T11:58:06Z</time>
      </trkpt>
      <trkpt lat="46.65813" lon="5.72747">
        <ele>520.6</ele>
        <time>2020-02-28T11:58:07Z</time>
      </trkpt>
      <trkpt lat="46.6581" lon="5.72737">
        <ele>520.4</ele>
        <time>2020-02-28T11:58:08Z</time>
      </trkpt>
      <trkpt lat="46.65808" lon="5.72726">
        <ele>519.8</ele>
        <time>2020-02-28T11:58:09Z</time>
      </trkpt>
      <trkpt lat="46.65806" lon="5.72716">
        <ele>519.4</ele>
        <time>2020-02-28T11:58:10Z</time>
      </trkpt>
      <trkpt lat="46.65805" lon="5.72706">
        <ele>519</ele>
        <time>2020-02-28T11:58:11Z</time>
      </trkpt>
      <trkpt lat="46.65804" lon="5.72697">
        <ele>518.8</ele>
        <time>2020-02-28T11:58:12Z</time>
      </trkpt>
      <trkpt lat="46.65802" lon="5.72688">
        <ele>518.4</ele>
        <time>2020-02-28T11:58:13Z</time>
      </trkpt>
      <trkpt lat="46.658" lon="5.72681">
        <ele>518.2</ele>
        <time>2020-02-28T11:58:14Z</time>
      </trkpt>
      <trkpt lat="46.65797" lon="5.72675">
        <ele>517.8</ele>
        <time>2020-02-28T11:58:15Z</time>
      </trkpt>
      <trkpt lat="46.65793" lon="5.7267">
        <ele>517.4</ele>
        <time>2020-02-28T11:58:16Z</time>
      </trkpt>
      <trkpt lat="46.65788" lon="5.72667">
        <ele>517</ele>
        <time>2020-02-28T11:58:17Z</time>
      </trkpt>
      <trkpt lat="46.65782" lon="5.72667">
        <ele>516.6</ele>
        <time>2020-02-28T11:58:18Z</time>
      </trkpt>
      <trkpt lat="46.65778" lon="5.72671">
        <ele>516.2</ele>
        <time>2020-02-28T11:58:19Z</time>
      </trkpt>
      <trkpt lat="46.65774" lon="5.72679">
        <ele>516</ele>
        <time>2020-02-28T11:58:20Z</time>
      </trkpt>
      <trkpt lat="46.65772" lon="5.72688">
        <ele>515.6</ele>
        <time>2020-02-28T11:58:21Z</time>
      </trkpt>
      <trkpt lat="46.65771" lon="5.72697">
        <ele>515.4</ele>
        <time>2020-02-28T11:58:22Z</time>
      </trkpt>
      <trkpt lat="46.6577" lon="5.72707">
        <ele>515.2</ele>
        <time>2020-02-28T11:58:23Z</time>
      </trkpt>
      <trkpt lat="46.6577" lon="5.72718">
        <ele>514.8</ele>
        <time>2020-02-28T11:58:24Z</time>
      </trkpt>
      <trkpt lat="46.6577" lon="5.72728">
        <ele>514.6</ele>
        <time>2020-02-28T11:58:25Z</time>
      </trkpt>
      <trkpt lat="46.6577" lon="5.72739">
        <ele>514.2</ele>
        <time>2020-02-28T11:58:26Z</time>
      </trkpt>
      <trkpt lat="46.65771" lon="5.72749">
        <ele>514</ele>
        <time>2020-02-28T11:58:27Z</time>
      </trkpt>
      <trkpt lat="46.65771" lon="5.72759">
        <ele>514</ele>
        <time>2020-02-28T11:58:28Z</time>
      </trkpt>
      <trkpt lat="46.65771" lon="5.72769">
        <ele>513.6</ele>
        <time>2020-02-28T11:58:29Z</time>
      </trkpt>
      <trkpt lat="46.65772" lon="5.7278">
        <ele>513.4</ele>
        <time>2020-02-28T11:58:30Z</time>
      </trkpt>
      <trkpt lat="46.65773" lon="5.72791">
        <ele>513.4</ele>
        <time>2020-02-28T11:58:31Z</time>
      </trkpt>
      <trkpt lat="46.65774" lon="5.72802">
        <ele>513.2</ele>
        <time>2020-02-28T11:58:32Z</time>
      </trkpt>
      <trkpt lat="46.65775" lon="5.72814">
        <ele>513.2</ele>
        <time>2020-02-28T11:58:33Z</time>
      </trkpt>
      <trkpt lat="46.65776" lon="5.72825">
        <ele>512.8</ele>
        <time>2020-02-28T11:58:34Z</time>
      </trkpt>
      <trkpt lat="46.65777" lon="5.72838">
        <ele>512.4</ele>
        <time>2020-02-28T11:58:35Z</time>
      </trkpt>
      <trkpt lat="46.65778" lon="5.7285">
        <ele>512.2</ele>
        <time>2020-02-28T11:58:36Z</time>
      </trkpt>
      <trkpt lat="46.65779" lon="5.72864">
        <ele>511.8</ele>
        <time>2020-02-28T11:58:37Z</time>
      </trkpt>
      <trkpt lat="46.65781" lon="5.72879">
        <ele>511.6</ele>
        <time>2020-02-28T11:58:38Z</time>
      </trkpt>
      <trkpt lat="46.65782" lon="5.72893">
        <ele>511.2</ele>
        <time>2020-02-28T11:58:39Z</time>
      </trkpt>
      <trkpt lat="46.65783" lon="5.72907">
        <ele>510.8</ele>
        <time>2020-02-28T11:58:40Z</time>
      </trkpt>
      <trkpt lat="46.65784" lon="5.72922">
        <ele>510.4</ele>
        <time>2020-02-28T11:58:41Z</time>
      </trkpt>
      <trkpt lat="46.65786" lon="5.72936">
        <ele>510</ele>
        <time>2020-02-28T11:58:42Z</time>
      </trkpt>
      <trkpt lat="46.65788" lon="5.7295">
        <ele>509.4</ele>
        <time>2020-02-28T11:58:43Z</time>
      </trkpt>
      <trkpt lat="46.6579" lon="5.72965">
        <ele>509</ele>
        <time>2020-02-28T11:58:44Z</time>
      </trkpt>
      <trkpt lat="46.65791" lon="5.7298">
        <ele>508.4</ele>
        <time>2020-02-28T11:58:45Z</time>
      </trkpt>
      <trkpt lat="46.65793" lon="5.72994">
        <ele>508</ele>
        <time>2020-02-28T11:58:46Z</time>
      </trkpt>
      <trkpt lat="46.65795" lon="5.73008">
        <ele>507.6</ele>
        <time>2020-02-28T11:58:47Z</time>
      </trkpt>
      <trkpt lat="46.65797" lon="5.73023">
        <ele>507</ele>
        <time>2020-02-28T11:58:48Z</time>
      </trkpt>
      <trkpt lat="46.65799" lon="5.73037">
        <ele>506.6</ele>
        <time>2020-02-28T11:58:49Z</time>
      </trkpt>
      <trkpt lat="46.65801" lon="5.73052">
        <ele>506</ele>
        <time>2020-02-28T11:58:50Z</time>
      </trkpt>
      <trkpt lat="46.65804" lon="5.73066">
        <ele>505.4</ele>
        <time>2020-02-28T11:58:51Z</time>
      </trkpt>
      <trkpt lat="46.65806" lon="5.73081">
        <ele>504.6</ele>
        <time>2020-02-28T11:58:52Z</time>
      </trkpt>
      <trkpt lat="46.65807" lon="5.73096">
        <ele>504</ele>
        <time>2020-02-28T11:58:53Z</time>
      </trkpt>
      <trkpt lat="46.65809" lon="5.7311">
        <ele>503.2</ele>
        <time>2020-02-28T11:58:54Z</time>
      </trkpt>
      <trkpt lat="46.65811" lon="5.73125">
        <ele>502.8</ele>
        <time>2020-02-28T11:58:55Z</time>
      </trkpt>
      <trkpt lat="46.65814" lon="5.73139">
        <ele>502.2</ele>
        <time>2020-02-28T11:58:56Z</time>
      </trkpt>
      <trkpt lat="46.65817" lon="5.73155">
        <ele>501.6</ele>
        <time>2020-02-28T11:58:57Z</time>
      </trkpt>
      <trkpt lat="46.65821" lon="5.73169">
        <ele>501</ele>
        <time>2020-02-28T11:58:58Z</time>
      </trkpt>
      <trkpt lat="46.65825" lon="5.73183">
        <ele>500.6</ele>
        <time>2020-02-28T11:58:59Z</time>
      </trkpt>
      <trkpt lat="46.6583" lon="5.73196">
        <ele>500</ele>
        <time>2020-02-28T11:59:00Z</time>
      </trkpt>
      <trkpt lat="46.65835" lon="5.73208">
        <ele>499.4</ele>
        <time>2020-02-28T11:59:01Z</time>
      </trkpt>
      <trkpt lat="46.65841" lon="5.73217">
        <ele>499</ele>
        <time>2020-02-28T11:59:02Z</time>
      </trkpt>
      <trkpt lat="46.65847" lon="5.73225">
        <ele>498.6</ele>
        <time>2020-02-28T11:59:03Z</time>
      </trkpt>
      <trkpt lat="46.65854" lon="5.73232">
        <ele>498.2</ele>
        <time>2020-02-28T11:59:04Z</time>
      </trkpt>
      <trkpt lat="46.65862" lon="5.73238">
        <ele>497.8</ele>
        <time>2020-02-28T11:59:05Z</time>
      </trkpt>
      <trkpt lat="46.65871" lon="5.73242">
        <ele>497.4</ele>
        <time>2020-02-28T11:59:06Z</time>
      </trkpt>
      <trkpt lat="46.65879" lon="5.73246">
        <ele>497</ele>
        <time>2020-02-28T11:59:07Z</time>
      </trkpt>
      <trkpt lat="46.65888" lon="5.73249">
        <ele>496.6</ele>
        <time>2020-02-28T11:59:08Z</time>
      </trkpt>
      <trkpt lat="46.65897" lon="5.73252">
        <ele>496.2</ele>
        <time>2020-02-28T11:59:09Z</time>
      </trkpt>
      <trkpt lat="46.65905" lon="5.73255">
        <ele>495.8</ele>
        <time>2020-02-28T11:59:10Z</time>
      </trkpt>
      <trkpt lat="46.65913" lon="5.73257">
        <ele>495.4</ele>
        <time>2020-02-28T11:59:11Z</time>
      </trkpt>
      <trkpt lat="46.6592" lon="5.7326">
        <ele>495</ele>
        <time>2020-02-28T11:59:12Z</time>
      </trkpt>
      <trkpt lat="46.65926" lon="5.73264">
        <ele>494.6</ele>
        <time>2020-02-28T11:59:13Z</time>
      </trkpt>
      <trkpt lat="46.65931" lon="5.73269">
        <ele>494.2</ele>
        <time>2020-02-28T11:59:14Z</time>
      </trkpt>
      <trkpt lat="46.65935" lon="5.73276">
        <ele>493.6</ele>
        <time>2020-02-28T11:59:15Z</time>
      </trkpt>
      <trkpt lat="46.65938" lon="5.73284">
        <ele>493.2</ele>
        <time>2020-02-28T11:59:16Z</time>
      </trkpt>
      <trkpt lat="46.65938" lon="5.73293">
        <ele>492.8</ele>
        <time>2020-02-28T11:59:17Z</time>
      </trkpt>
      <trkpt lat="46.65937" lon="5.73301">
        <ele>492.6</ele>
        <time>2020-02-28T11:59:18Z</time>
      </trkpt>
      <trkpt lat="46.65935" lon="5.73309">
        <ele>492.4</ele>
        <time>2020-02-28T11:59:19Z</time>
      </trkpt>
      <trkpt lat="46.65931" lon="5.73317">
        <ele>492.4</ele>
        <time>2020-02-28T11:59:20Z</time>
      </trkpt>
      <trkpt lat="46.65926" lon="5.73323">
        <ele>492.2</ele>
        <time>2020-02-28T11:59:21Z</time>
      </trkpt>
      <trkpt lat="46.6592" lon="5.73327">
        <ele>492.2</ele>
        <time>2020-02-28T11:59:22Z</time>
      </trkpt>
      <trkpt lat="46.65913" lon="5.7333">
        <ele>491.8</ele>
        <time>2020-02-28T11:59:23Z</time>
      </trkpt>
      <trkpt lat="46.65906" lon="5.73331">
        <ele>491.6</ele>
        <time>2020-02-28T11:59:24Z</time>
      </trkpt>
      <trkpt lat="46.65899" lon="5.73332">
        <ele>491.2</ele>
        <time>2020-02-28T11:59:25Z</time>
      </trkpt>
      <trkpt lat="46.65891" lon="5.73332">
        <ele>491.2</ele>
        <time>2020-02-28T11:59:26Z</time>
      </trkpt>
      <trkpt lat="46.65884" lon="5.73332">
        <ele>491</ele>
        <time>2020-02-28T11:59:27Z</time>
      </trkpt>
      <trkpt lat="46.65876" lon="5.73332">
        <ele>491</ele>
        <time>2020-02-28T11:59:28Z</time>
      </trkpt>
      <trkpt lat="46.65868" lon="5.73333">
        <ele>490.6</ele>
        <time>2020-02-28T11:59:29Z</time>
      </trkpt>
      <trkpt lat="46.6586" lon="5.73333">
        <ele>490.2</ele>
        <time>2020-02-28T11:59:30Z</time>
      </trkpt>
      <trkpt lat="46.65851" lon="5.73333">
        <ele>490</ele>
        <time>2020-02-28T11:59:31Z</time>
      </trkpt>
      <trkpt lat="46.65843" lon="5.73334">
        <ele>489.6</ele>
        <time>2020-02-28T11:59:32Z</time>
      </trkpt>
      <trkpt lat="46.65834" lon="5.73334">
        <ele>489.2</ele>
        <time>2020-02-28T11:59:33Z</time>
      </trkpt>
      <trkpt lat="46.65826" lon="5.73335">
        <ele>488.8</ele>
        <time>2020-02-28T11:59:34Z</time>
      </trkpt>
      <trkpt lat="46.65817" lon="5.73336">
        <ele>488.6</ele>
        <time>2020-02-28T11:59:35Z</time>
      </trkpt>
      <trkpt lat="46.65809" lon="5.73337">
        <ele>488.4</ele>
        <time>2020-02-28T11:59:36Z</time>
      </trkpt>
      <trkpt lat="46.658" lon="5.73338">
        <ele>488</ele>
        <time>2020-02-28T11:59:37Z</time>
      </trkpt>
      <trkpt lat="46.65791" lon="5.73338">
        <ele>487.6</ele>
        <time>2020-02-28T11:59:38Z</time>
      </trkpt>
      <trkpt lat="46.65782" lon="5.73339">
        <ele>487.2</ele>
        <time>2020-02-28T11:59:39Z</time>
      </trkpt>
      <trkpt lat="46.65773" lon="5.7334">
        <ele>486.8</ele>
        <time>2020-02-28T11:59:40Z</time>
      </trkpt>
      <trkpt lat="46.65765" lon="5.73341">
        <ele>486.4</ele>
        <time>2020-02-28T11:59:41Z</time>
      </trkpt>
      <trkpt lat="46.65756" lon="5.73342">
        <ele>485.8</ele>
        <time>2020-02-28T11:59:42Z</time>
      </trkpt>
      <trkpt lat="46.65747" lon="5.73343">
        <ele>485.4</ele>
        <time>2020-02-28T11:59:43Z</time>
      </trkpt>
      <trkpt lat="46.65738" lon="5.73344">
        <ele>485</ele>
        <time>2020-02-28T11:59:44Z</time>
      </trkpt>
      <trkpt lat="46.65729" lon="5.73345">
        <ele>484.6</ele>
        <time>2020-02-28T11:59:45Z</time>
      </trkpt>
      <trkpt lat="46.6572" lon="5.73346">
        <ele>484.4</ele>
        <time>2020-02-28T11:59:46Z</time>
      </trkpt>
      <trkpt lat="46.6571" lon="5.73346">
        <ele>483.8</ele>
        <time>2020-02-28T11:59:47Z</time>
      </trkpt>
      <trkpt lat="46.65701" lon="5.73347">
        <ele>483.2</ele>
        <time>2020-02-28T11:59:48Z</time>
      </trkpt>
      <trkpt lat="46.65692" lon="5.73348">
        <ele>482.6</ele>
        <time>2020-02-28T11:59:49Z</time>
      </trkpt>
      <trkpt lat="46.65683" lon="5.73348">
        <ele>481.8</ele>
        <time>2020-02-28T11:59:50Z</time>
      </trkpt>
      <trkpt lat="46.65673" lon="5.7335">
        <ele>481.8</ele>
        <time>2020-02-28T11:59:51Z</time>
      </trkpt>
      <trkpt lat="46.65664" lon="5.73351">
        <ele>481.4</ele>
        <time>2020-02-28T11:59:52Z</time>
      </trkpt>
      <trkpt lat="46.65654" lon="5.73352">
        <ele>481.4</ele>
        <time>2020-02-28T11:59:53Z</time>
      </trkpt>
      <trkpt lat="46.65644" lon="5.73353">
        <ele>480.8</ele>
        <time>2020-02-28T11:59:54Z</time>
      </trkpt>
      <trkpt lat="46.65635" lon="5.73353">
        <ele>480.4</ele>
        <time>2020-02-28T11:59:55Z</time>
      </trkpt>
      <trkpt lat="46.65625" lon="5.73354">
        <ele>480</ele>
        <time>2020-02-28T11:59:56Z</time>
      </trkpt>
      <trkpt lat="46.65616" lon="5.73356">
        <ele>479.6</ele>
        <time>2020-02-28T11:59:57Z</time>
      </trkpt>
      <trkpt lat="46.65607" lon="5.73358">
        <ele>479.2</ele>
        <time>2020-02-28T11:59:58Z</time>
      </trkpt>
      <trkpt lat="46.65597" lon="5.73363">
        <ele>478.8</ele>
        <time>2020-02-28T11:59:59Z</time>
      </trkpt>
      <trkpt lat="46.65587" lon="5.73367">
        <ele>478.6</ele>
        <time>2020-02-28T12:00:00Z</time>
      </trkpt>
      <trkpt lat="46.65577" lon="5.73371">
        <ele>478.2</ele>
        <time>2020-02-28T12:00:01Z</time>
      </trkpt>
      <trkpt lat="46.65568" lon="5.73376">
        <ele>477.8</ele>
        <time>2020-02-28T12:00:02Z</time>
      </trkpt>
      <trkpt lat="46.65559" lon="5.73382">
        <ele>477.2</ele>
        <time>2020-02-28T12:00:03Z</time>
      </trkpt>
      <trkpt lat="46.6555" lon="5.73389">
        <ele>477</ele>
        <time>2020-02-28T12:00:04Z</time>
      </trkpt>
      <trkpt lat="46.65542" lon="5.73397">
        <ele>476.4</ele>
        <time>2020-02-28T12:00:05Z</time>
      </trkpt>
      <trkpt lat="46.65535" lon="5.73407">
        <ele>476</ele>
        <time>2020-02-28T12:00:06Z</time>
      </trkpt>
      <trkpt lat="46.65527" lon="5.73418">
        <ele>475.4</ele>
        <time>2020-02-28T12:00:07Z</time>
      </trkpt>
      <trkpt lat="46.65521" lon="5.73429">
        <ele>474.8</ele>
        <time>2020-02-28T12:00:08Z</time>
      </trkpt>
      <trkpt lat="46.65516" lon="5.73443">
        <ele>474.4</ele>
        <time>2020-02-28T12:00:09Z</time>
      </trkpt>
      <trkpt lat="46.65513" lon="5.73457">
        <ele>474.2</ele>
        <time>2020-02-28T12:00:10Z</time>
      </trkpt>
      <trkpt lat="46.6551" lon="5.73471">
        <ele>474.2</ele>
        <time>2020-02-28T12:00:11Z</time>
      </trkpt>
      <trkpt lat="46.65507" lon="5.73485">
        <ele>474.2</ele>
        <time>2020-02-28T12:00:12Z</time>
      </trkpt>
      <trkpt lat="46.65506" lon="5.73499">
        <ele>474.2</ele>
        <time>2020-02-28T12:00:13Z</time>
      </trkpt>
      <trkpt lat="46.65504" lon="5.73512">
        <ele>474.2</ele>
        <time>2020-02-28T12:00:14Z</time>
      </trkpt>
      <trkpt lat="46.65503" lon="5.73526">
        <ele>474.2</ele>
        <time>2020-02-28T12:00:15Z</time>
      </trkpt>
      <trkpt lat="46.65501" lon="5.7354">
        <ele>474.2</ele>
        <time>2020-02-28T12:00:16Z</time>
      </trkpt>
      <trkpt lat="46.655" lon="5.73553">
        <ele>474.2</ele>
        <time>2020-02-28T12:00:17Z</time>
      </trkpt>
      <trkpt lat="46.65499" lon="5.73567">
        <ele>474.2</ele>
        <time>2020-02-28T12:00:18Z</time>
      </trkpt>
      <trkpt lat="46.65497" lon="5.7358">
        <ele>474.2</ele>
        <time>2020-02-28T12:00:19Z</time>
      </trkpt>
      <trkpt lat="46.65496" lon="5.73593">
        <ele>474.2</ele>
        <time>2020-02-28T12:00:20Z</time>
      </trkpt>
      <trkpt lat="46.65495" lon="5.73607">
        <ele>474.4</ele>
        <time>2020-02-28T12:00:21Z</time>
      </trkpt>
      <trkpt lat="46.65495" lon="5.7362">
        <ele>474.4</ele>
        <time>2020-02-28T12:00:22Z</time>
      </trkpt>
      <trkpt lat="46.65494" lon="5.73633">
        <ele>474.4</ele>
        <time>2020-02-28T12:00:23Z</time>
      </trkpt>
      <trkpt lat="46.65493" lon="5.73646">
        <ele>474.4</ele>
        <time>2020-02-28T12:00:24Z</time>
      </trkpt>
      <trkpt lat="46.65492" lon="5.73658">
        <ele>474.4</ele>
        <time>2020-02-28T12:00:25Z</time>
      </trkpt>
      <trkpt lat="46.65491" lon="5.73671">
        <ele>474.4</ele>
        <time>2020-02-28T12:00:26Z</time>
      </trkpt>
      <trkpt lat="46.6549" lon="5.73683">
        <ele>474.4</ele>
        <time>2020-02-28T12:00:27Z</time>
      </trkpt>
      <trkpt lat="46.6549" lon="5.73696">
        <ele>474.4</ele>
        <time>2020-02-28T12:00:28Z</time>
      </trkpt>
      <trkpt lat="46.65489" lon="5.73709">
        <ele>474.4</ele>
        <time>2020-02-28T12:00:29Z</time>
      </trkpt>
      <trkpt lat="46.65488" lon="5.73721">
        <ele>474</ele>
        <time>2020-02-28T12:00:30Z</time>
      </trkpt>
      <trkpt lat="46.65488" lon="5.73734">
        <ele>474</ele>
        <time>2020-02-28T12:00:31Z</time>
      </trkpt>
      <trkpt lat="46.65487" lon="5.73746">
        <ele>473.8</ele>
        <time>2020-02-28T12:00:32Z</time>
      </trkpt>
      <trkpt lat="46.65486" lon="5.73759">
        <ele>473.6</ele>
        <time>2020-02-28T12:00:33Z</time>
      </trkpt>
      <trkpt lat="46.65486" lon="5.73771">
        <ele>473.6</ele>
        <time>2020-02-28T12:00:34Z</time>
      </trkpt>
      <trkpt lat="46.65485" lon="5.73783">
        <ele>473.2</ele>
        <time>2020-02-28T12:00:35Z</time>
      </trkpt>
      <trkpt lat="46.65485" lon="5.73796">
        <ele>473.2</ele>
        <time>2020-02-28T12:00:36Z</time>
      </trkpt>
      <trkpt lat="46.65484" lon="5.73808">
        <ele>472.8</ele>
        <time>2020-02-28T12:00:37Z</time>
      </trkpt>
      <trkpt lat="46.65483" lon="5.7382">
        <ele>472.6</ele>
        <time>2020-02-28T12:00:38Z</time>
      </trkpt>
      <trkpt lat="46.65483" lon="5.73833">
        <ele>472.2</ele>
        <time>2020-02-28T12:00:39Z</time>
      </trkpt>
      <trkpt lat="46.65483" lon="5.73845">
        <ele>472</ele>
        <time>2020-02-28T12:00:40Z</time>
      </trkpt>
      <trkpt lat="46.65482" lon="5.73857">
        <ele>471.6</ele>
        <time>2020-02-28T12:00:41Z</time>
      </trkpt>
      <trkpt lat="46.65482" lon="5.7387">
        <ele>471.2</ele>
        <time>2020-02-28T12:00:42Z</time>
      </trkpt>
      <trkpt lat="46.65481" lon="5.73882">
        <ele>471</ele>
        <time>2020-02-28T12:00:43Z</time>
      </trkpt>
      <trkpt lat="46.65481" lon="5.73894">
        <ele>470.4</ele>
        <time>2020-02-28T12:00:44Z</time>
      </trkpt>
      <trkpt lat="46.6548" lon="5.73907">
        <ele>470.2</ele>
        <time>2020-02-28T12:00:45Z</time>
      </trkpt>
      <trkpt lat="46.6548" lon="5.73919">
        <ele>470</ele>
        <time>2020-02-28T12:00:46Z</time>
      </trkpt>
      <trkpt lat="46.65479" lon="5.73931">
        <ele>469.6</ele>
        <time>2020-02-28T12:00:47Z</time>
      </trkpt>
      <trkpt lat="46.65479" lon="5.73944">
        <ele>469.4</ele>
        <time>2020-02-28T12:00:48Z</time>
      </trkpt>
      <trkpt lat="46.65478" lon="5.73956">
        <ele>469</ele>
        <time>2020-02-28T12:00:49Z</time>
      </trkpt>
      <trkpt lat="46.65477" lon="5.73969">
        <ele>468.8</ele>
        <time>2020-02-28T12:00:50Z</time>
      </trkpt>
      <trkpt lat="46.65476" lon="5.73981">
        <ele>468.6</ele>
        <time>2020-02-28T12:00:51Z</time>
      </trkpt>
      <trkpt lat="46.65474" lon="5.73993">
        <ele>468.6</ele>
        <time>2020-02-28T12:00:52Z</time>
      </trkpt>
      <trkpt lat="46.65472" lon="5.74005">
        <ele>468.2</ele>
        <time>2020-02-28T12:00:53Z</time>
      </trkpt>
      <trkpt lat="46.65469" lon="5.74016">
        <ele>468.2</ele>
        <time>2020-02-28T12:00:54Z</time>
      </trkpt>
      <trkpt lat="46.65466" lon="5.74026">
        <ele>467.8</ele>
        <time>2020-02-28T12:00:55Z</time>
      </trkpt>
      <trkpt lat="46.65461" lon="5.74036">
        <ele>467.6</ele>
        <time>2020-02-28T12:00:56Z</time>
      </trkpt>
      <trkpt lat="46.65456" lon="5.74045">
        <ele>467.6</ele>
        <time>2020-02-28T12:00:57Z</time>
      </trkpt>
      <trkpt lat="46.65452" lon="5.74054">
        <ele>467.2</ele>
        <time>2020-02-28T12:00:58Z</time>
      </trkpt>
      <trkpt lat="46.65447" lon="5.74063">
        <ele>467</ele>
        <time>2020-02-28T12:00:59Z</time>
      </trkpt>
      <trkpt lat="46.65442" lon="5.74071">
        <ele>467</ele>
        <time>2020-02-28T12:01:00Z</time>
      </trkpt>
      <trkpt lat="46.65437" lon="5.74079">
        <ele>467</ele>
        <time>2020-02-28T12:01:01Z</time>
      </trkpt>
      <trkpt lat="46.65432" lon="5.74087">
        <ele>467</ele>
        <time>2020-02-28T12:01:02Z</time>
      </trkpt>
      <trkpt lat="46.65427" lon="5.74095">
        <ele>467</ele>
        <time>2020-02-28T12:01:03Z</time>
      </trkpt>
      <trkpt lat="46.65422" lon="5.74102">
        <ele>467</ele>
        <time>2020-02-28T12:01:04Z</time>
      </trkpt>
      <trkpt lat="46.65418" lon="5.7411">
        <ele>467</ele>
        <time>2020-02-28T12:01:05Z</time>
      </trkpt>
      <trkpt lat="46.65413" lon="5.74117">
        <ele>467</ele>
        <time>2020-02-28T12:01:06Z</time>
      </trkpt>
      <trkpt lat="46.65408" lon="5.74124">
        <ele>467</ele>
        <time>2020-02-28T12:01:07Z</time>
      </trkpt>
      <trkpt lat="46.65404" lon="5.74132">
        <ele>467.2</ele>
        <time>2020-02-28T12:01:08Z</time>
      </trkpt>
      <trkpt lat="46.65401" lon="5.7414">
        <ele>467.2</ele>
        <time>2020-02-28T12:01:09Z</time>
      </trkpt>
      <trkpt lat="46.65399" lon="5.74148">
        <ele>467.4</ele>
        <time>2020-02-28T12:01:10Z</time>
      </trkpt>
      <trkpt lat="46.65398" lon="5.74156">
        <ele>467.6</ele>
        <time>2020-02-28T12:01:11Z</time>
      </trkpt>
      <trkpt lat="46.65397" lon="5.74163">
        <ele>467.6</ele>
        <time>2020-02-28T12:01:12Z</time>
      </trkpt>
      <trkpt lat="46.65397" lon="5.7417">
        <ele>468.2</ele>
        <time>2020-02-28T12:01:13Z</time>
      </trkpt>
      <trkpt lat="46.65398" lon="5.74177">
        <ele>468.4</ele>
        <time>2020-02-28T12:01:14Z</time>
      </trkpt>
      <trkpt lat="46.65399" lon="5.74183">
        <ele>468.6</ele>
        <time>2020-02-28T12:01:15Z</time>
      </trkpt>
      <trkpt lat="46.65401" lon="5.7419">
        <ele>468.8</ele>
        <time>2020-02-28T12:01:16Z</time>
      </trkpt>
      <trkpt lat="46.65403" lon="5.74196">
        <ele>468.8</ele>
        <time>2020-02-28T12:01:17Z</time>
      </trkpt>
      <trkpt lat="46.65406" lon="5.74201">
        <ele>469.2</ele>
        <time>2020-02-28T12:01:18Z</time>
      </trkpt>
      <trkpt lat="46.65408" lon="5.74207">
        <ele>469.2</ele>
        <time>2020-02-28T12:01:19Z</time>
      </trkpt>
      <trkpt lat="46.6541" lon="5.74212">
        <ele>469.6</ele>
        <time>2020-02-28T12:01:20Z</time>
      </trkpt>
      <trkpt lat="46.65412" lon="5.74218">
        <ele>469.6</ele>
        <time>2020-02-28T12:01:21Z</time>
      </trkpt>
      <trkpt lat="46.65415" lon="5.74223">
        <ele>469.8</ele>
        <time>2020-02-28T12:01:22Z</time>
      </trkpt>
      <trkpt lat="46.65417" lon="5.74228">
        <ele>470</ele>
        <time>2020-02-28T12:01:23Z</time>
      </trkpt>
      <trkpt lat="46.6542" lon="5.74233">
        <ele>470.2</ele>
        <time>2020-02-28T12:01:24Z</time>
      </trkpt>
      <trkpt lat="46.65423" lon="5.74237">
        <ele>470.2</ele>
        <time>2020-02-28T12:01:25Z</time>
      </trkpt>
      <trkpt lat="46.65425" lon="5.74241">
        <ele>470.6</ele>
        <time>2020-02-28T12:01:26Z</time>
      </trkpt>
      <trkpt lat="46.65427" lon="5.74246">
        <ele>471</ele>
        <time>2020-02-28T12:01:27Z</time>
      </trkpt>
      <trkpt lat="46.6543" lon="5.7425">
        <ele>471.2</ele>
        <time>2020-02-28T12:01:28Z</time>
      </trkpt>
      <trkpt lat="46.65432" lon="5.74254">
        <ele>471.4</ele>
        <time>2020-02-28T12:01:29Z</time>
      </trkpt>
      <trkpt lat="46.65434" lon="5.74259">
        <ele>471.4</ele>
        <time>2020-02-28T12:01:30Z</time>
      </trkpt>
      <trkpt lat="46.65436" lon="5.74263">
        <ele>471.8</ele>
        <time>2020-02-28T12:01:31Z</time>
      </trkpt>
      <trkpt lat="46.65438" lon="5.74268">
        <ele>471.8</ele>
        <time>2020-02-28T12:01:32Z</time>
      </trkpt>
      <trkpt lat="46.65441" lon="5.74272">
        <ele>472.2</ele>
        <time>2020-02-28T12:01:33Z</time>
      </trkpt>
      <trkpt lat="46.65443" lon="5.74277">
        <ele>472.4</ele>
        <time>2020-02-28T12:01:34Z</time>
      </trkpt>
      <trkpt lat="46.65445" lon="5.74281">
        <ele>472.4</ele>
        <time>2020-02-28T12:01:35Z</time>
      </trkpt>
      <trkpt lat="46.65447" lon="5.74286">
        <ele>472.8</ele>
        <time>2020-02-28T12:01:36Z</time>
      </trkpt>
      <trkpt lat="46.65449" lon="5.7429">
        <ele>473</ele>
        <time>2020-02-28T12:01:37Z</time>
      </trkpt>
      <trkpt lat="46.65451" lon="5.74295">
        <ele>473.2</ele>
        <time>2020-02-28T12:01:38Z</time>
      </trkpt>
      <trkpt lat="46.65453" lon="5.74299">
        <ele>473.2</ele>
        <time>2020-02-28T12:01:39Z</time>
      </trkpt>
      <trkpt lat="46.65455" lon="5.74303">
        <ele>473.4</ele>
        <time>2020-02-28T12:01:40Z</time>
      </trkpt>
      <trkpt lat="46.65457" lon="5.74307">
        <ele>473.4</ele>
        <time>2020-02-28T12:01:41Z</time>
      </trkpt>
      <trkpt lat="46.65459" lon="5.7431">
        <ele>473.8</ele>
        <time>2020-02-28T12:01:42Z</time>
      </trkpt>
      <trkpt lat="46.65461" lon="5.74314">
        <ele>474</ele>
        <time>2020-02-28T12:01:43Z</time>
      </trkpt>
      <trkpt lat="46.65463" lon="5.74319">
        <ele>474</ele>
        <time>2020-02-28T12:01:44Z</time>
      </trkpt>
      <trkpt lat="46.65464" lon="5.74324">
        <ele>474.4</ele>
        <time>2020-02-28T12:01:45Z</time>
      </trkpt>
      <trkpt lat="46.65464" lon="5.74329">
        <ele>474.6</ele>
        <time>2020-02-28T12:01:46Z</time>
      </trkpt>
      <trkpt lat="46.65464" lon="5.74334">
        <ele>475</ele>
        <time>2020-02-28T12:01:47Z</time>
      </trkpt>
      <trkpt lat="46.65463" lon="5.74339">
        <ele>475</ele>
        <time>2020-02-28T12:01:48Z</time>
      </trkpt>
      <trkpt lat="46.65462" lon="5.74344">
        <ele>475.2</ele>
        <time>2020-02-28T12:01:49Z</time>
      </trkpt>
      <trkpt lat="46.65461" lon="5.74347">
        <ele>475.4</ele>
        <time>2020-02-28T12:01:50Z</time>
      </trkpt>
      <trkpt lat="46.6546" lon="5.7435">
        <ele>475.4</ele>
        <time>2020-02-28T12:01:51Z</time>
      </trkpt>
      <trkpt lat="46.65458" lon="5.74353">
        <ele>475.8</ele>
        <time>2020-02-28T12:01:52Z</time>
      </trkpt>
      <trkpt lat="46.65455" lon="5.74355">
        <ele>475.8</ele>
        <time>2020-02-28T12:01:53Z</time>
      </trkpt>
      <trkpt lat="46.65452" lon="5.74356">
        <ele>476</ele>
        <time>2020-02-28T12:01:54Z</time>
      </trkpt>
      <trkpt lat="46.6545" lon="5.74358">
        <ele>476</ele>
        <time>2020-02-28T12:01:55Z</time>
      </trkpt>
      <trkpt lat="46.65447" lon="5.74358">
        <ele>476.4</ele>
        <time>2020-02-28T12:01:56Z</time>
      </trkpt>
      <trkpt lat="46.65444" lon="5.74359">
        <ele>476.4</ele>
        <time>2020-02-28T12:01:57Z</time>
      </trkpt>
      <trkpt lat="46.65441" lon="5.74359">
        <ele>476.6</ele>
        <time>2020-02-28T12:01:58Z</time>
      </trkpt>
      <trkpt lat="46.65438" lon="5.74358">
        <ele>476.8</ele>
        <time>2020-02-28T12:01:59Z</time>
      </trkpt>
      <trkpt lat="46.65436" lon="5.74357">
        <ele>477</ele>
        <time>2020-02-28T12:02:00Z</time>
      </trkpt>
      <trkpt lat="46.65434" lon="5.74355">
        <ele>477.4</ele>
        <time>2020-02-28T12:02:01Z</time>
      </trkpt>
      <trkpt lat="46.65432" lon="5.74353">
        <ele>477.4</ele>
        <time>2020-02-28T12:02:02Z</time>
      </trkpt>
      <trkpt lat="46.65429" lon="5.7435">
        <ele>477.4</ele>
        <time>2020-02-28T12:02:03Z</time>
      </trkpt>
      <trkpt lat="46.65427" lon="5.74347">
        <ele>477.6</ele>
        <time>2020-02-28T12:02:04Z</time>
      </trkpt>
      <trkpt lat="46.65425" lon="5.74345">
        <ele>477.6</ele>
        <time>2020-02-28T12:02:05Z</time>
      </trkpt>
      <trkpt lat="46.65422" lon="5.74342">
        <ele>477.8</ele>
        <time>2020-02-28T12:02:06Z</time>
      </trkpt>
      <trkpt lat="46.6542" lon="5.74339">
        <ele>477.8</ele>
        <time>2020-02-28T12:02:07Z</time>
      </trkpt>
      <trkpt lat="46.65418" lon="5.74336">
        <ele>478.2</ele>
        <time>2020-02-28T12:02:08Z</time>
      </trkpt>
      <trkpt lat="46.65416" lon="5.74333">
        <ele>478.2</ele>
        <time>2020-02-28T12:02:09Z</time>
      </trkpt>
      <trkpt lat="46.65414" lon="5.74331">
        <ele>478.6</ele>
        <time>2020-02-28T12:02:10Z</time>
      </trkpt>
      <trkpt lat="46.65412" lon="5.74328">
        <ele>478.6</ele>
        <time>2020-02-28T12:02:11Z</time>
      </trkpt>
      <trkpt lat="46.65411" lon="5.74325">
        <ele>478.8</ele>
        <time>2020-02-28T12:02:12Z</time>
      </trkpt>
      <trkpt lat="46.65409" lon="5.74322">
        <ele>478.8</ele>
        <time>2020-02-28T12:02:13Z</time>
      </trkpt>
      <trkpt lat="46.65407" lon="5.7432">
        <ele>479.2</ele>
        <time>2020-02-28T12:02:14Z</time>
      </trkpt>
      <trkpt lat="46.65405" lon="5.74317">
        <ele>479.2</ele>
        <time>2020-02-28T12:02:15Z</time>
      </trkpt>
      <trkpt lat="46.65403" lon="5.74314">
        <ele>479.4</ele>
        <time>2020-02-28T12:02:16Z</time>
      </trkpt>
      <trkpt lat="46.65401" lon="5.74312">
        <ele>479.6</ele>
        <time>2020-02-28T12:02:17Z</time>
      </trkpt>
      <trkpt lat="46.65398" lon="5.74309">
        <ele>479.6</ele>
        <time>2020-02-28T12:02:18Z</time>
      </trkpt>
      <trkpt lat="46.65396" lon="5.74307">
        <ele>480</ele>
        <time>2020-02-28T12:02:19Z</time>
      </trkpt>
      <trkpt lat="46.65394" lon="5.74305">
        <ele>480</ele>
        <time>2020-02-28T12:02:20Z</time>
      </trkpt>
      <trkpt lat="46.65391" lon="5.74303">
        <ele>480.4</ele>
        <time>2020-02-28T12:02:21Z</time>
      </trkpt>
      <trkpt lat="46.65389" lon="5.74301">
        <ele>480.4</ele>
        <time>2020-02-28T12:02:22Z</time>
      </trkpt>
      <trkpt lat="46.65387" lon="5.74299">
        <ele>480.6</ele>
        <time>2020-02-28T12:02:23Z</time>
      </trkpt>
      <trkpt lat="46.65385" lon="5.74297">
        <ele>480.6</ele>
        <time>2020-02-28T12:02:24Z</time>
      </trkpt>
      <trkpt lat="46.65382" lon="5.74295">
        <ele>480.8</ele>
        <time>2020-02-28T12:02:25Z</time>
      </trkpt>
      <trkpt lat="46.65379" lon="5.74293">
        <ele>480.8</ele>
        <time>2020-02-28T12:02:26Z</time>
      </trkpt>
      <trkpt lat="46.65377" lon="5.74291">
        <ele>481</ele>
        <time>2020-02-28T12:02:27Z</time>
      </trkpt>
      <trkpt lat="46.65374" lon="5.74289">
        <ele>481</ele>
        <time>2020-02-28T12:02:28Z</time>
      </trkpt>
      <trkpt lat="46.65372" lon="5.74287">
        <ele>481.4</ele>
        <time>2020-02-28T12:02:29Z</time>
      </trkpt>
      <trkpt lat="46.65369" lon="5.74285">
        <ele>481.6</ele>
        <time>2020-02-28T12:02:30Z</time>
      </trkpt>
      <trkpt lat="46.65367" lon="5.74283">
        <ele>481.6</ele>
        <time>2020-02-28T12:02:31Z</time>
      </trkpt>
      <trkpt lat="46.65364" lon="5.7428">
        <ele>482</ele>
        <time>2020-02-28T12:02:32Z</time>
      </trkpt>
      <trkpt lat="46.65362" lon="5.74278">
        <ele>482</ele>
        <time>2020-02-28T12:02:33Z</time>
      </trkpt>
      <trkpt lat="46.65359" lon="5.74276">
        <ele>482.2</ele>
        <time>2020-02-28T12:02:34Z</time>
      </trkpt>
      <trkpt lat="46.65356" lon="5.74274">
        <ele>482.2</ele>
        <time>2020-02-28T12:02:35Z</time>
      </trkpt>
      <trkpt lat="46.65354" lon="5.74272">
        <ele>482.2</ele>
        <time>2020-02-28T12:02:36Z</time>
      </trkpt>
      <trkpt lat="46.65352" lon="5.7427">
        <ele>482.6</ele>
        <time>2020-02-28T12:02:37Z</time>
      </trkpt>
      <trkpt lat="46.65349" lon="5.74269">
        <ele>482.6</ele>
        <time>2020-02-28T12:02:38Z</time>
      </trkpt>
      <trkpt lat="46.65346" lon="5.74267">
        <ele>483</ele>
        <time>2020-02-28T12:02:39Z</time>
      </trkpt>
      <trkpt lat="46.65344" lon="5.74265">
        <ele>483</ele>
        <time>2020-02-28T12:02:40Z</time>
      </trkpt>
      <trkpt lat="46.65341" lon="5.74264">
        <ele>483.2</ele>
        <time>2020-02-28T12:02:41Z</time>
      </trkpt>
      <trkpt lat="46.65339" lon="5.74261">
        <ele>483.2</ele>
        <time>2020-02-28T12:02:42Z</time>
      </trkpt>
      <trkpt lat="46.65336" lon="5.74259">
        <ele>483.6</ele>
        <time>2020-02-28T12:02:43Z</time>
      </trkpt>
      <trkpt lat="46.65334" lon="5.74257">
        <ele>483.8</ele>
        <time>2020-02-28T12:02:44Z</time>
      </trkpt>
      <trkpt lat="46.65331" lon="5.74255">
        <ele>484.2</ele>
        <time>2020-02-28T12:02:45Z</time>
      </trkpt>
      <trkpt lat="46.65329" lon="5.74253">
        <ele>484.2</ele>
        <time>2020-02-28T12:02:46Z</time>
      </trkpt>
      <trkpt lat="46.65326" lon="5.74252">
        <ele>484.4</ele>
        <time>2020-02-28T12:02:47Z</time>
      </trkpt>
      <trkpt lat="46.65324" lon="5.7425">
        <ele>484.4</ele>
        <time>2020-02-28T12:02:48Z</time>
      </trkpt>
      <trkpt lat="46.65321" lon="5.74248">
        <ele>484.6</ele>
        <time>2020-02-28T12:02:49Z</time>
      </trkpt>
      <trkpt lat="46.65319" lon="5.74247">
        <ele>484.6</ele>
        <time>2020-02-28T12:02:50Z</time>
      </trkpt>
      <trkpt lat="46.65316" lon="5.74245">
        <ele>484.8</ele>
        <time>2020-02-28T12:02:51Z</time>
      </trkpt>
      <trkpt lat="46.65313" lon="5.74243">
        <ele>484.8</ele>
        <time>2020-02-28T12:02:52Z</time>
      </trkpt>
      <trkpt lat="46.6531" lon="5.7424">
        <ele>485.2</ele>
        <time>2020-02-28T12:02:53Z</time>
      </trkpt>
      <trkpt lat="46.65308" lon="5.74238">
        <ele>485.2</ele>
        <time>2020-02-28T12:02:54Z</time>
      </trkpt>
      <trkpt lat="46.65305" lon="5.74236">
        <ele>485.4</ele>
        <time>2020-02-28T12:02:55Z</time>
      </trkpt>
      <trkpt lat="46.65302" lon="5.74234">
        <ele>485.4</ele>
        <time>2020-02-28T12:02:56Z</time>
      </trkpt>
      <trkpt lat="46.65299" lon="5.74232">
        <ele>485.8</ele>
        <time>2020-02-28T12:02:57Z</time>
      </trkpt>
      <trkpt lat="46.65296" lon="5.74229">
        <ele>485.8</ele>
        <time>2020-02-28T12:02:58Z</time>
      </trkpt>
      <trkpt lat="46.65293" lon="5.74227">
        <ele>486</ele>
        <time>2020-02-28T12:02:59Z</time>
      </trkpt>
      <trkpt lat="46.6529" lon="5.74225">
        <ele>486</ele>
        <time>2020-02-28T12:03:00Z</time>
      </trkpt>
      <trkpt lat="46.65287" lon="5.74223">
        <ele>486</ele>
        <time>2020-02-28T12:03:01Z</time>
      </trkpt>
      <trkpt lat="46.65284" lon="5.74221">
        <ele>486.4</ele>
        <time>2020-02-28T12:03:02Z</time>
      </trkpt>
      <trkpt lat="46.65281" lon="5.74219">
        <ele>486.6</ele>
        <time>2020-02-28T12:03:03Z</time>
      </trkpt>
      <trkpt lat="46.65278" lon="5.74217">
        <ele>486.6</ele>
        <time>2020-02-28T12:03:04Z</time>
      </trkpt>
      <trkpt lat="46.65275" lon="5.74215">
        <ele>486.8</ele>
        <time>2020-02-28T12:03:05Z</time>
      </trkpt>
      <trkpt lat="46.65272" lon="5.74213">
        <ele>487.2</ele>
        <time>2020-02-28T12:03:06Z</time>
      </trkpt>
      <trkpt lat="46.65269" lon="5.74211">
        <ele>487.4</ele>
        <time>2020-02-28T12:03:07Z</time>
      </trkpt>
      <trkpt lat="46.65266" lon="5.74209">
        <ele>487.4</ele>
        <time>2020-02-28T12:03:08Z</time>
      </trkpt>
      <trkpt lat="46.65263" lon="5.74208">
        <ele>487.8</ele>
        <time>2020-02-28T12:03:09Z</time>
      </trkpt>
      <trkpt lat="46.6526" lon="5.74206">
        <ele>487.8</ele>
        <time>2020-02-28T12:03:10Z</time>
      </trkpt>
      <trkpt lat="46.65257" lon="5.74205">
        <ele>488</ele>
        <time>2020-02-28T12:03:11Z</time>
      </trkpt>
      <trkpt lat="46.65254" lon="5.74203">
        <ele>488</ele>
        <time>2020-02-28T12:03:12Z</time>
      </trkpt>
      <trkpt lat="46.65251" lon="5.74202">
        <ele>488.4</ele>
        <time>2020-02-28T12:03:13Z</time>
      </trkpt>
      <trkpt lat="46.65248" lon="5.74201">
        <ele>488.4</ele>
        <time>2020-02-28T12:03:14Z</time>
      </trkpt>
      <trkpt lat="46.65245" lon="5.742">
        <ele>488.8</ele>
        <time>2020-02-28T12:03:15Z</time>
      </trkpt>
      <trkpt lat="46.65243" lon="5.742">
        <ele>489</ele>
        <time>2020-02-28T12:03:16Z</time>
      </trkpt>
      <trkpt lat="46.6524" lon="5.74199">
        <ele>489.2</ele>
        <time>2020-02-28T12:03:17Z</time>
      </trkpt>
      <trkpt lat="46.65237" lon="5.74199">
        <ele>489.4</ele>
        <time>2020-02-28T12:03:18Z</time>
      </trkpt>
      <trkpt lat="46.65234" lon="5.74199">
        <ele>489.8</ele>
        <time>2020-02-28T12:03:19Z</time>
      </trkpt>
      <trkpt lat="46.65231" lon="5.742">
        <ele>490</ele>
        <time>2020-02-28T12:03:20Z</time>
      </trkpt>
      <trkpt lat="46.65228" lon="5.742">
        <ele>490</ele>
        <time>2020-02-28T12:03:21Z</time>
      </trkpt>
      <trkpt lat="46.65225" lon="5.742">
        <ele>490.4</ele>
        <time>2020-02-28T12:03:22Z</time>
      </trkpt>
      <trkpt lat="46.65222" lon="5.74201">
        <ele>490.4</ele>
        <time>2020-02-28T12:03:23Z</time>
      </trkpt>
      <trkpt lat="46.6522" lon="5.74201">
        <ele>490.6</ele>
        <time>2020-02-28T12:03:24Z</time>
      </trkpt>
      <trkpt lat="46.65217" lon="5.74202">
        <ele>490.6</ele>
        <time>2020-02-28T12:03:25Z</time>
      </trkpt>
      <trkpt lat="46.65214" lon="5.74202">
        <ele>491</ele>
        <time>2020-02-28T12:03:26Z</time>
      </trkpt>
      <trkpt lat="46.65212" lon="5.74203">
        <ele>491</ele>
        <time>2020-02-28T12:03:27Z</time>
      </trkpt>
      <trkpt lat="46.65209" lon="5.74204">
        <ele>491</ele>
        <time>2020-02-28T12:03:28Z</time>
      </trkpt>
      <trkpt lat="46.65207" lon="5.74205">
        <ele>491.2</ele>
        <time>2020-02-28T12:03:29Z</time>
      </trkpt>
      <trkpt lat="46.65204" lon="5.74206">
        <ele>491.2</ele>
        <time>2020-02-28T12:03:30Z</time>
      </trkpt>
      <trkpt lat="46.65202" lon="5.74207">
        <ele>491.2</ele>
        <time>2020-02-28T12:03:31Z</time>
      </trkpt>
      <trkpt lat="46.652" lon="5.74208">
        <ele>491.2</ele>
        <time>2020-02-28T12:03:32Z</time>
      </trkpt>
      <trkpt lat="46.65197" lon="5.7421">
        <ele>491.2</ele>
        <time>2020-02-28T12:03:33Z</time>
      </trkpt>
      <trkpt lat="46.65195" lon="5.74212">
        <ele>491.2</ele>
        <time>2020-02-28T12:03:34Z</time>
      </trkpt>
      <trkpt lat="46.65193" lon="5.74213">
        <ele>491.2</ele>
        <time>2020-02-28T12:03:35Z</time>
      </trkpt>
      <trkpt lat="46.65191" lon="5.74215">
        <ele>491.4</ele>
        <time>2020-02-28T12:03:36Z</time>
      </trkpt>
      <trkpt lat="46.65188" lon="5.74216">
        <ele>491.4</ele>
        <time>2020-02-28T12:03:37Z</time>
      </trkpt>
      <trkpt lat="46.65185" lon="5.74218">
        <ele>491.4</ele>
        <time>2020-02-28T12:03:38Z</time>
      </trkpt>
      <trkpt lat="46.65183" lon="5.74221">
        <ele>491.4</ele>
        <time>2020-02-28T12:03:39Z</time>
      </trkpt>
      <trkpt lat="46.6518" lon="5.74223">
        <ele>491.4</ele>
        <time>2020-02-28T12:03:40Z</time>
      </trkpt>
      <trkpt lat="46.65177" lon="5.74226">
        <ele>491.4</ele>
        <time>2020-02-28T12:03:41Z</time>
      </trkpt>
      <trkpt lat="46.65174" lon="5.74229">
        <ele>491.4</ele>
        <time>2020-02-28T12:03:42Z</time>
      </trkpt>
      <trkpt lat="46.65171" lon="5.74232">
        <ele>491.4</ele>
        <time>2020-02-28T12:03:43Z</time>
      </trkpt>
      <trkpt lat="46.65168" lon="5.74235">
        <ele>491.4</ele>
        <time>2020-02-28T12:03:44Z</time>
      </trkpt>
      <trkpt lat="46.65165" lon="5.74239">
        <ele>491.2</ele>
        <time>2020-02-28T12:03:45Z</time>
      </trkpt>
      <trkpt lat="46.65162" lon="5.74242">
        <ele>491.2</ele>
        <time>2020-02-28T12:03:46Z</time>
      </trkpt>
      <trkpt lat="46.65158" lon="5.74246">
        <ele>491.2</ele>
        <time>2020-02-28T12:03:47Z</time>
      </trkpt>
      <trkpt lat="46.65155" lon="5.7425">
        <ele>491.2</ele>
        <time>2020-02-28T12:03:48Z</time>
      </trkpt>
      <trkpt lat="46.65153" lon="5.74255">
        <ele>490.8</ele>
        <time>2020-02-28T12:03:49Z</time>
      </trkpt>
      <trkpt lat="46.6515" lon="5.74259">
        <ele>490.8</ele>
        <time>2020-02-28T12:03:50Z</time>
      </trkpt>
      <trkpt lat="46.65147" lon="5.74264">
        <ele>490.8</ele>
        <time>2020-02-28T12:03:51Z</time>
      </trkpt>
      <trkpt lat="46.65144" lon="5.74269">
        <ele>490.8</ele>
        <time>2020-02-28T12:03:52Z</time>
      </trkpt>
      <trkpt lat="46.65141" lon="5.74274">
        <ele>490.6</ele>
        <time>2020-02-28T12:03:53Z</time>
      </trkpt>
      <trkpt lat="46.65138" lon="5.74279">
        <ele>490.6</ele>
        <time>2020-02-28T12:03:54Z</time>
      </trkpt>
      <trkpt lat="46.65136" lon="5.74284">
        <ele>490.2</ele>
        <time>2020-02-28T12:03:55Z</time>
      </trkpt>
      <trkpt lat="46.65133" lon="5.7429">
        <ele>490.2</ele>
        <time>2020-02-28T12:03:56Z</time>
      </trkpt>
      <trkpt lat="46.65131" lon="5.74295">
        <ele>490.2</ele>
        <time>2020-02-28T12:03:57Z</time>
      </trkpt>
      <trkpt lat="46.65129" lon="5.74301">
        <ele>490</ele>
        <time>2020-02-28T12:03:58Z</time>
      </trkpt>
      <trkpt lat="46.65127" lon="5.74307">
        <ele>490</ele>
        <time>2020-02-28T12:03:59Z</time>
      </trkpt>
      <trkpt lat="46.65125" lon="5.74313">
        <ele>489.8</ele>
        <time>2020-02-28T12:04:00Z</time>
      </trkpt>
      <trkpt lat="46.65123" lon="5.74319">
        <ele>489.8</ele>
        <time>2020-02-28T12:04:01Z</time>
      </trkpt>
      <trkpt lat="46.65121" lon="5.74324">
        <ele>489.8</ele>
        <time>2020-02-28T12:04:02Z</time>
      </trkpt>
      <trkpt lat="46.65119" lon="5.7433">
        <ele>489.4</ele>
        <time>2020-02-28T12:04:03Z</time>
      </trkpt>
      <trkpt lat="46.65117" lon="5.74337">
        <ele>489.4</ele>
        <time>2020-02-28T12:04:04Z</time>
      </trkpt>
      <trkpt lat="46.65115" lon="5.74343">
        <ele>489.2</ele>
        <time>2020-02-28T12:04:05Z</time>
      </trkpt>
      <trkpt lat="46.65113" lon="5.7435">
        <ele>489.2</ele>
        <time>2020-02-28T12:04:06Z</time>
      </trkpt>
      <trkpt lat="46.65111" lon="5.74356">
        <ele>489</ele>
        <time>2020-02-28T12:04:07Z</time>
      </trkpt>
      <trkpt lat="46.65109" lon="5.74363">
        <ele>489</ele>
        <time>2020-02-28T12:04:08Z</time>
      </trkpt>
      <trkpt lat="46.65107" lon="5.7437">
        <ele>489</ele>
        <time>2020-02-28T12:04:09Z</time>
      </trkpt>
      <trkpt lat="46.65105" lon="5.74378">
        <ele>489</ele>
        <time>2020-02-28T12:04:10Z</time>
      </trkpt>
      <trkpt lat="46.65102" lon="5.74385">
        <ele>488.6</ele>
        <time>2020-02-28T12:04:11Z</time>
      </trkpt>
      <trkpt lat="46.651" lon="5.74393">
        <ele>488.6</ele>
        <time>2020-02-28T12:04:12Z</time>
      </trkpt>
      <trkpt lat="46.65098" lon="5.744">
        <ele>488.4</ele>
        <time>2020-02-28T12:04:13Z</time>
      </trkpt>
      <trkpt lat="46.65095" lon="5.74408">
        <ele>488.2</ele>
        <time>2020-02-28T12:04:14Z</time>
      </trkpt>
      <trkpt lat="46.65093" lon="5.74417">
        <ele>488.2</ele>
        <time>2020-02-28T12:04:15Z</time>
      </trkpt>
      <trkpt lat="46.65091" lon="5.74425">
        <ele>487.6</ele>
        <time>2020-02-28T12:04:16Z</time>
      </trkpt>
      <trkpt lat="46.65088" lon="5.74433">
        <ele>487.4</ele>
        <time>2020-02-28T12:04:17Z</time>
      </trkpt>
      <trkpt lat="46.65086" lon="5.74442">
        <ele>487.2</ele>
        <time>2020-02-28T12:04:18Z</time>
      </trkpt>
      <trkpt lat="46.65083" lon="5.74451">
        <ele>487</ele>
        <time>2020-02-28T12:04:19Z</time>
      </trkpt>
      <trkpt lat="46.65081" lon="5.7446">
        <ele>486.8</ele>
        <time>2020-02-28T12:04:20Z</time>
      </trkpt>
      <trkpt lat="46.65078" lon="5.74468">
        <ele>486.6</ele>
        <time>2020-02-28T12:04:21Z</time>
      </trkpt>
      <trkpt lat="46.65076" lon="5.74478">
        <ele>486.2</ele>
        <time>2020-02-28T12:04:22Z</time>
      </trkpt>
      <trkpt lat="46.65074" lon="5.74487">
        <ele>486</ele>
        <time>2020-02-28T12:04:23Z</time>
      </trkpt>
      <trkpt lat="46.65072" lon="5.74496">
        <ele>486</ele>
        <time>2020-02-28T12:04:24Z</time>
      </trkpt>
      <trkpt lat="46.65071" lon="5.74506">
        <ele>485.6</ele>
        <time>2020-02-28T12:04:25Z</time>
      </trkpt>
      <trkpt lat="46.6507" lon="5.74515">
        <ele>485.4</ele>
        <time>2020-02-28T12:04:26Z</time>
      </trkpt>
      <trkpt lat="46.6507" lon="5.74524">
        <ele>485.4</ele>
        <time>2020-02-28T12:04:27Z</time>
      </trkpt>
      <trkpt lat="46.65071" lon="5.74534">
        <ele>485</ele>
        <time>2020-02-28T12:04:28Z</time>
      </trkpt>
      <trkpt lat="46.65072" lon="5.74544">
        <ele>485</ele>
        <time>2020-02-28T12:04:29Z</time>
      </trkpt>
      <trkpt lat="46.65075" lon="5.74554">
        <ele>484.6</ele>
        <time>2020-02-28T12:04:30Z</time>
      </trkpt>
      <trkpt lat="46.65077" lon="5.74564">
        <ele>484.6</ele>
        <time>2020-02-28T12:04:31Z</time>
      </trkpt>
      <trkpt lat="46.6508" lon="5.74574">
        <ele>484.2</ele>
        <time>2020-02-28T12:04:32Z</time>
      </trkpt>
      <trkpt lat="46.65082" lon="5.74585">
        <ele>484</ele>
        <time>2020-02-28T12:04:33Z</time>
      </trkpt>
      <trkpt lat="46.65084" lon="5.74596">
        <ele>483.8</ele>
        <time>2020-02-28T12:04:34Z</time>
      </trkpt>
      <trkpt lat="46.65085" lon="5.74607">
        <ele>483.4</ele>
        <time>2020-02-28T12:04:35Z</time>
      </trkpt>
      <trkpt lat="46.65086" lon="5.74619">
        <ele>483.2</ele>
        <time>2020-02-28T12:04:36Z</time>
      </trkpt>
      <trkpt lat="46.65087" lon="5.74631">
        <ele>483</ele>
        <time>2020-02-28T12:04:37Z</time>
      </trkpt>
      <trkpt lat="46.65086" lon="5.74642">
        <ele>482.8</ele>
        <time>2020-02-28T12:04:38Z</time>
      </trkpt>
      <trkpt lat="46.65086" lon="5.74654">
        <ele>482.4</ele>
        <time>2020-02-28T12:04:39Z</time>
      </trkpt>
      <trkpt lat="46.65084" lon="5.74665">
        <ele>482.2</ele>
        <time>2020-02-28T12:04:40Z</time>
      </trkpt>
      <trkpt lat="46.65083" lon="5.74677">
        <ele>481.8</ele>
        <time>2020-02-28T12:04:41Z</time>
      </trkpt>
      <trkpt lat="46.65081" lon="5.74688">
        <ele>481.6</ele>
        <time>2020-02-28T12:04:42Z</time>
      </trkpt>
      <trkpt lat="46.6508" lon="5.747">
        <ele>481.2</ele>
        <time>2020-02-28T12:04:43Z</time>
      </trkpt>
      <trkpt lat="46.65078" lon="5.74711">
        <ele>481</ele>
        <time>2020-02-28T12:04:44Z</time>
      </trkpt>
      <trkpt lat="46.65077" lon="5.74723">
        <ele>480.6</ele>
        <time>2020-02-28T12:04:45Z</time>
      </trkpt>
      <trkpt lat="46.65075" lon="5.74735">
        <ele>480.4</ele>
        <time>2020-02-28T12:04:46Z</time>
      </trkpt>
      <trkpt lat="46.65074" lon="5.74746">
        <ele>480.2</ele>
        <time>2020-02-28T12:04:47Z</time>
      </trkpt>
      <trkpt lat="46.65072" lon="5.74758">
        <ele>480</ele>
        <time>2020-02-28T12:04:48Z</time>
      </trkpt>
      <trkpt lat="46.65071" lon="5.7477">
        <ele>479.6</ele>
        <time>2020-02-28T12:04:49Z</time>
      </trkpt>
      <trkpt lat="46.65069" lon="5.74782">
        <ele>479.4</ele>
        <time>2020-02-28T12:04:50Z</time>
      </trkpt>
      <trkpt lat="46.65068" lon="5.74794">
        <ele>479.2</ele>
        <time>2020-02-28T12:04:51Z</time>
      </trkpt>
      <trkpt lat="46.65066" lon="5.74806">
        <ele>478.8</ele>
        <time>2020-02-28T12:04:52Z</time>
      </trkpt>
      <trkpt lat="46.65065" lon="5.74818">
        <ele>478.6</ele>
        <time>2020-02-28T12:04:53Z</time>
      </trkpt>
      <trkpt lat="46.65063" lon="5.7483">
        <ele>478.2</ele>
        <time>2020-02-28T12:04:54Z</time>
      </trkpt>
      <trkpt lat="46.65061" lon="5.74842">
        <ele>477.8</ele>
        <time>2020-02-28T12:04:55Z</time>
      </trkpt>
      <trkpt lat="46.65059" lon="5.74854">
        <ele>477.6</ele>
        <time>2020-02-28T12:04:56Z</time>
      </trkpt>
      <trkpt lat="46.65056" lon="5.74865">
        <ele>477.2</ele>
        <time>2020-02-28T12:04:57Z</time>
      </trkpt>
      <trkpt lat="46.65053" lon="5.74875">
        <ele>476.8</ele>
        <time>2020-02-28T12:04:58Z</time>
      </trkpt>
      <trkpt lat="46.65049" lon="5.74884">
        <ele>476.6</ele>
        <time>2020-02-28T12:04:59Z</time>
      </trkpt>
      <trkpt lat="46.65045" lon="5.74893">
        <ele>476.4</ele>
        <time>2020-02-28T12:05:00Z</time>
      </trkpt>
      <trkpt lat="46.6504" lon="5.74901">
        <ele>476.4</ele>
        <time>2020-02-28T12:05:01Z</time>
      </trkpt>
      <trkpt lat="46.65034" lon="5.74908">
        <ele>476</ele>
        <time>2020-02-28T12:05:02Z</time>
      </trkpt>
      <trkpt lat="46.65028" lon="5.74915">
        <ele>475.8</ele>
        <time>2020-02-28T12:05:03Z</time>
      </trkpt>
      <trkpt lat="46.65022" lon="5.74922">
        <ele>475.4</ele>
        <time>2020-02-28T12:05:04Z</time>
      </trkpt>
      <trkpt lat="46.65016" lon="5.74929">
        <ele>475.2</ele>
        <time>2020-02-28T12:05:05Z</time>
      </trkpt>
      <trkpt lat="46.6501" lon="5.74935">
        <ele>475</ele>
        <time>2020-02-28T12:05:06Z</time>
      </trkpt>
      <trkpt lat="46.65005" lon="5.74942">
        <ele>475</ele>
        <time>2020-02-28T12:05:07Z</time>
      </trkpt>
      <trkpt lat="46.64999" lon="5.74948">
        <ele>474.6</ele>
        <time>2020-02-28T12:05:08Z</time>
      </trkpt>
      <trkpt lat="46.64994" lon="5.74954">
        <ele>474.6</ele>
        <time>2020-02-28T12:05:09Z</time>
      </trkpt>
      <trkpt lat="46.6499" lon="5.7496">
        <ele>474.2</ele>
        <time>2020-02-28T12:05:10Z</time>
      </trkpt>
      <trkpt lat="46.64985" lon="5.74966">
        <ele>474.2</ele>
        <time>2020-02-28T12:05:11Z</time>
      </trkpt>
      <trkpt lat="46.64981" lon="5.74973">
        <ele>473.8</ele>
        <time>2020-02-28T12:05:12Z</time>
      </trkpt>
      <trkpt lat="46.64977" lon="5.74979">
        <ele>473.8</ele>
        <time>2020-02-28T12:05:13Z</time>
      </trkpt>
      <trkpt lat="46.64974" lon="5.74986">
        <ele>473.6</ele>
        <time>2020-02-28T12:05:14Z</time>
      </trkpt>
      <trkpt lat="46.64971" lon="5.74993">
        <ele>473.6</ele>
        <time>2020-02-28T12:05:15Z</time>
      </trkpt>
      <trkpt lat="46.6497" lon="5.74999">
        <ele>473.6</ele>
        <time>2020-02-28T12:05:16Z</time>
      </trkpt>
      <trkpt lat="46.64968" lon="5.75006">
        <ele>473.6</ele>
        <time>2020-02-28T12:05:17Z</time>
      </trkpt>
      <trkpt lat="46.64967" lon="5.75013">
        <ele>473.6</ele>
        <time>2020-02-28T12:05:18Z</time>
      </trkpt>
      <trkpt lat="46.64966" lon="5.75019">
        <ele>473.6</ele>
        <time>2020-02-28T12:05:19Z</time>
      </trkpt>
      <trkpt lat="46.64965" lon="5.75025">
        <ele>473.6</ele>
        <time>2020-02-28T12:05:20Z</time>
      </trkpt>
      <trkpt lat="46.64964" lon="5.75031">
        <ele>473.6</ele>
        <time>2020-02-28T12:05:21Z</time>
      </trkpt>
      <trkpt lat="46.64963" lon="5.75037">
        <ele>473.6</ele>
        <time>2020-02-28T12:05:22Z</time>
      </trkpt>
      <trkpt lat="46.64962" lon="5.75043">
        <ele>473.6</ele>
        <time>2020-02-28T12:05:23Z</time>
      </trkpt>
      <trkpt lat="46.64961" lon="5.75049">
        <ele>473.8</ele>
        <time>2020-02-28T12:05:24Z</time>
      </trkpt>
      <trkpt lat="46.6496" lon="5.75053">
        <ele>473.8</ele>
        <time>2020-02-28T12:05:25Z</time>
      </trkpt>
      <trkpt lat="46.64958" lon="5.75057">
        <ele>473.8</ele>
        <time>2020-02-28T12:05:26Z</time>
      </trkpt>
      <trkpt lat="46.64956" lon="5.75061">
        <ele>473.8</ele>
        <time>2020-02-28T12:05:27Z</time>
      </trkpt>
      <trkpt lat="46.64953" lon="5.75064">
        <ele>474.2</ele>
        <time>2020-02-28T12:05:28Z</time>
      </trkpt>
      <trkpt lat="46.64949" lon="5.75065">
        <ele>474.2</ele>
        <time>2020-02-28T12:05:29Z</time>
      </trkpt>
      <trkpt lat="46.64946" lon="5.75066">
        <ele>474.6</ele>
        <time>2020-02-28T12:05:30Z</time>
      </trkpt>
      <trkpt lat="46.64944" lon="5.75066">
        <ele>474.6</ele>
        <time>2020-02-28T12:05:31Z</time>
      </trkpt>
      <trkpt lat="46.64941" lon="5.75066">
        <ele>475</ele>
        <time>2020-02-28T12:05:32Z</time>
      </trkpt>
      <trkpt lat="46.64938" lon="5.75066">
        <ele>475</ele>
        <time>2020-02-28T12:05:33Z</time>
      </trkpt>
      <trkpt lat="46.64935" lon="5.75065">
        <ele>475.4</ele>
        <time>2020-02-28T12:05:34Z</time>
      </trkpt>
      <trkpt lat="46.64933" lon="5.75064">
        <ele>475.6</ele>
        <time>2020-02-28T12:05:35Z</time>
      </trkpt>
      <trkpt lat="46.64931" lon="5.75062">
        <ele>475.6</ele>
        <time>2020-02-28T12:05:36Z</time>
      </trkpt>
      <trkpt lat="46.64928" lon="5.7506">
        <ele>476</ele>
        <time>2020-02-28T12:05:37Z</time>
      </trkpt>
      <trkpt lat="46.64926" lon="5.75058">
        <ele>476.2</ele>
        <time>2020-02-28T12:05:38Z</time>
      </trkpt>
      <trkpt lat="46.64925" lon="5.75056">
        <ele>476.2</ele>
        <time>2020-02-28T12:05:39Z</time>
      </trkpt>
      <trkpt lat="46.64923" lon="5.75053">
        <ele>476.6</ele>
        <time>2020-02-28T12:05:40Z</time>
      </trkpt>
      <trkpt lat="46.64921" lon="5.75051">
        <ele>476.8</ele>
        <time>2020-02-28T12:05:41Z</time>
      </trkpt>
      <trkpt lat="46.64919" lon="5.75049">
        <ele>476.8</ele>
        <time>2020-02-28T12:05:42Z</time>
      </trkpt>
      <trkpt lat="46.64917" lon="5.75046">
        <ele>477.2</ele>
        <time>2020-02-28T12:05:43Z</time>
      </trkpt>
      <trkpt lat="46.64916" lon="5.75043">
        <ele>477.4</ele>
        <time>2020-02-28T12:05:44Z</time>
      </trkpt>
      <trkpt lat="46.64914" lon="5.75041">
        <ele>477.4</ele>
        <time>2020-02-28T12:05:45Z</time>
      </trkpt>
      <trkpt lat="46.64913" lon="5.75038">
        <ele>477.8</ele>
        <time>2020-02-28T12:05:46Z</time>
      </trkpt>
      <trkpt lat="46.64912" lon="5.75036">
        <ele>477.8</ele>
        <time>2020-02-28T12:05:47Z</time>
      </trkpt>
      <trkpt lat="46.6491" lon="5.75033">
        <ele>478.2</ele>
        <time>2020-02-28T12:05:48Z</time>
      </trkpt>
      <trkpt lat="46.64908" lon="5.7503">
        <ele>478.2</ele>
        <time>2020-02-28T12:05:49Z</time>
      </trkpt>
      <trkpt lat="46.64906" lon="5.75027">
        <ele>478.4</ele>
        <time>2020-02-28T12:05:50Z</time>
      </trkpt>
      <trkpt lat="46.64905" lon="5.75024">
        <ele>478.4</ele>
        <time>2020-02-28T12:05:51Z</time>
      </trkpt>
      <trkpt lat="46.64903" lon="5.75022">
        <ele>478.6</ele>
        <time>2020-02-28T12:05:52Z</time>
      </trkpt>
      <trkpt lat="46.64901" lon="5.75019">
        <ele>478.6</ele>
        <time>2020-02-28T12:05:53Z</time>
      </trkpt>
      <trkpt lat="46.64898" lon="5.75016">
        <ele>479</ele>
        <time>2020-02-28T12:05:54Z</time>
      </trkpt>
      <trkpt lat="46.64896" lon="5.75014">
        <ele>479</ele>
        <time>2020-02-28T12:05:55Z</time>
      </trkpt>
      <trkpt lat="46.64894" lon="5.75012">
        <ele>479.4</ele>
        <time>2020-02-28T12:05:56Z</time>
      </trkpt>
      <trkpt lat="46.64892" lon="5.7501">
        <ele>479.4</ele>
        <time>2020-02-28T12:05:57Z</time>
      </trkpt>
      <trkpt lat="46.6489" lon="5.75008">
        <ele>479.6</ele>
        <time>2020-02-28T12:05:58Z</time>
      </trkpt>
      <trkpt lat="46.64888" lon="5.75006">
        <ele>480</ele>
        <time>2020-02-28T12:05:59Z</time>
      </trkpt>
      <trkpt lat="46.64885" lon="5.75005">
        <ele>480.2</ele>
        <time>2020-02-28T12:06:00Z</time>
      </trkpt>
      <trkpt lat="46.64883" lon="5.75003">
        <ele>480.4</ele>
        <time>2020-02-28T12:06:01Z</time>
      </trkpt>
      <trkpt lat="46.6488" lon="5.75002">
        <ele>480.6</ele>
        <time>2020-02-28T12:06:02Z</time>
      </trkpt>
      <trkpt lat="46.64877" lon="5.75001">
        <ele>480.8</ele>
        <time>2020-02-28T12:06:03Z</time>
      </trkpt>
      <trkpt lat="46.64874" lon="5.74999">
        <ele>481.2</ele>
        <time>2020-02-28T12:06:04Z</time>
      </trkpt>
      <trkpt lat="46.64871" lon="5.74997">
        <ele>481.2</ele>
        <time>2020-02-28T12:06:05Z</time>
      </trkpt>
      <trkpt lat="46.64868" lon="5.74995">
        <ele>481.6</ele>
        <time>2020-02-28T12:06:06Z</time>
      </trkpt>
      <trkpt lat="46.64866" lon="5.74993">
        <ele>481.6</ele>
        <time>2020-02-28T12:06:07Z</time>
      </trkpt>
      <trkpt lat="46.64863" lon="5.74992">
        <ele>482</ele>
        <time>2020-02-28T12:06:08Z</time>
      </trkpt>
      <trkpt lat="46.6486" lon="5.7499">
        <ele>482</ele>
        <time>2020-02-28T12:06:09Z</time>
      </trkpt>
      <trkpt lat="46.64858" lon="5.74989">
        <ele>482.2</ele>
        <time>2020-02-28T12:06:10Z</time>
      </trkpt>
      <trkpt lat="46.64855" lon="5.74987">
        <ele>482.2</ele>
        <time>2020-02-28T12:06:11Z</time>
      </trkpt>
      <trkpt lat="46.64853" lon="5.74985">
        <ele>482.6</ele>
        <time>2020-02-28T12:06:12Z</time>
      </trkpt>
      <trkpt lat="46.6485" lon="5.74983">
        <ele>482.6</ele>
        <time>2020-02-28T12:06:13Z</time>
      </trkpt>
      <trkpt lat="46.64848" lon="5.74982">
        <ele>482.8</ele>
        <time>2020-02-28T12:06:14Z</time>
      </trkpt>
      <trkpt lat="46.64846" lon="5.7498">
        <ele>482.8</ele>
        <time>2020-02-28T12:06:15Z</time>
      </trkpt>
      <trkpt lat="46.64843" lon="5.74978">
        <ele>483.4</ele>
        <time>2020-02-28T12:06:16Z</time>
      </trkpt>
      <trkpt lat="46.64841" lon="5.74977">
        <ele>483.4</ele>
        <time>2020-02-28T12:06:17Z</time>
      </trkpt>
      <trkpt lat="46.64839" lon="5.74975">
        <ele>483.6</ele>
        <time>2020-02-28T12:06:18Z</time>
      </trkpt>
      <trkpt lat="46.64837" lon="5.74972">
        <ele>483.8</ele>
        <time>2020-02-28T12:06:19Z</time>
      </trkpt>
      <trkpt lat="46.64835" lon="5.7497">
        <ele>483.8</ele>
        <time>2020-02-28T12:06:20Z</time>
      </trkpt>
      <trkpt lat="46.64832" lon="5.74968">
        <ele>484.2</ele>
        <time>2020-02-28T12:06:21Z</time>
      </trkpt>
      <trkpt lat="46.6483" lon="5.74966">
        <ele>484.2</ele>
        <time>2020-02-28T12:06:22Z</time>
      </trkpt>
      <trkpt lat="46.64829" lon="5.74963">
        <ele>484.6</ele>
        <time>2020-02-28T12:06:23Z</time>
      </trkpt>
      <trkpt lat="46.64827" lon="5.7496">
        <ele>484.6</ele>
        <time>2020-02-28T12:06:24Z</time>
      </trkpt>
      <trkpt lat="46.64825" lon="5.74957">
        <ele>484.8</ele>
        <time>2020-02-28T12:06:25Z</time>
      </trkpt>
      <trkpt lat="46.64824" lon="5.74954">
        <ele>484.8</ele>
        <time>2020-02-28T12:06:26Z</time>
      </trkpt>
      <trkpt lat="46.64822" lon="5.74951">
        <ele>485.2</ele>
        <time>2020-02-28T12:06:27Z</time>
      </trkpt>
      <trkpt lat="46.64821" lon="5.74948">
        <ele>485.2</ele>
        <time>2020-02-28T12:06:28Z</time>
      </trkpt>
      <trkpt lat="46.64819" lon="5.74945">
        <ele>485.4</ele>
        <time>2020-02-28T12:06:29Z</time>
      </trkpt>
      <trkpt lat="46.64818" lon="5.74942">
        <ele>485.4</ele>
        <time>2020-02-28T12:06:30Z</time>
      </trkpt>
      <trkpt lat="46.64816" lon="5.74939">
        <ele>485.8</ele>
        <time>2020-02-28T12:06:31Z</time>
      </trkpt>
      <trkpt lat="46.64815" lon="5.74936">
        <ele>485.8</ele>
        <time>2020-02-28T12:06:32Z</time>
      </trkpt>
      <trkpt lat="46.64813" lon="5.74934">
        <ele>485.8</ele>
        <time>2020-02-28T12:06:33Z</time>
      </trkpt>
      <trkpt lat="46.64812" lon="5.74931">
        <ele>486.2</ele>
        <time>2020-02-28T12:06:34Z</time>
      </trkpt>
      <trkpt lat="46.6481" lon="5.74928">
        <ele>486.2</ele>
        <time>2020-02-28T12:06:35Z</time>
      </trkpt>
      <trkpt lat="46.64808" lon="5.74926">
        <ele>486.4</ele>
        <time>2020-02-28T12:06:36Z</time>
      </trkpt>
      <trkpt lat="46.64806" lon="5.74923">
        <ele>486.4</ele>
        <time>2020-02-28T12:06:37Z</time>
      </trkpt>
      <trkpt lat="46.64804" lon="5.74921">
        <ele>486.8</ele>
        <time>2020-02-28T12:06:38Z</time>
      </trkpt>
      <trkpt lat="46.64802" lon="5.7492">
        <ele>486.8</ele>
        <time>2020-02-28T12:06:39Z</time>
      </trkpt>
      <trkpt lat="46.64799" lon="5.74918">
        <ele>487.2</ele>
        <time>2020-02-28T12:06:40Z</time>
      </trkpt>
      <trkpt lat="46.64797" lon="5.74917">
        <ele>487.2</ele>
        <time>2020-02-28T12:06:41Z</time>
      </trkpt>
      <trkpt lat="46.64795" lon="5.74917">
        <ele>487.4</ele>
        <time>2020-02-28T12:06:42Z</time>
      </trkpt>
      <trkpt lat="46.64793" lon="5.74917">
        <ele>487.4</ele>
        <time>2020-02-28T12:06:43Z</time>
      </trkpt>
      <trkpt lat="46.64791" lon="5.74917">
        <ele>487.8</ele>
        <time>2020-02-28T12:06:44Z</time>
      </trkpt>
      <trkpt lat="46.64788" lon="5.74918">
        <ele>487.8</ele>
        <time>2020-02-28T12:06:45Z</time>
      </trkpt>
      <trkpt lat="46.64786" lon="5.74918">
        <ele>488.2</ele>
        <time>2020-02-28T12:06:46Z</time>
      </trkpt>
      <trkpt lat="46.64784" lon="5.74919">
        <ele>488.2</ele>
        <time>2020-02-28T12:06:47Z</time>
      </trkpt>
      <trkpt lat="46.64781" lon="5.7492">
        <ele>488.4</ele>
        <time>2020-02-28T12:06:48Z</time>
      </trkpt>
      <trkpt lat="46.64779" lon="5.74922">
        <ele>488.4</ele>
        <time>2020-02-28T12:06:49Z</time>
      </trkpt>
      <trkpt lat="46.64777" lon="5.74924">
        <ele>488.8</ele>
        <time>2020-02-28T12:06:50Z</time>
      </trkpt>
      <trkpt lat="46.64775" lon="5.74926">
        <ele>488.8</ele>
        <time>2020-02-28T12:06:51Z</time>
      </trkpt>
      <trkpt lat="46.64774" lon="5.74929">
        <ele>489.2</ele>
        <time>2020-02-28T12:06:52Z</time>
      </trkpt>
      <trkpt lat="46.64772" lon="5.74931">
        <ele>489.2</ele>
        <time>2020-02-28T12:06:53Z</time>
      </trkpt>
      <trkpt lat="46.6477" lon="5.74933">
        <ele>489.4</ele>
        <time>2020-02-28T12:06:54Z</time>
      </trkpt>
      <trkpt lat="46.64769" lon="5.74935">
        <ele>489.4</ele>
        <time>2020-02-28T12:06:55Z</time>
      </trkpt>
      <trkpt lat="46.64767" lon="5.74938">
        <ele>489.8</ele>
        <time>2020-02-28T12:06:56Z</time>
      </trkpt>
      <trkpt lat="46.64766" lon="5.7494">
        <ele>490</ele>
        <time>2020-02-28T12:06:57Z</time>
      </trkpt>
      <trkpt lat="46.64764" lon="5.74943">
        <ele>490</ele>
        <time>2020-02-28T12:06:58Z</time>
      </trkpt>
      <trkpt lat="46.64763" lon="5.74946">
        <ele>490.2</ele>
        <time>2020-02-28T12:06:59Z</time>
      </trkpt>
      <trkpt lat="46.64762" lon="5.74949">
        <ele>490.2</ele>
        <time>2020-02-28T12:07:00Z</time>
      </trkpt>
      <trkpt lat="46.64761" lon="5.74951">
        <ele>490.6</ele>
        <time>2020-02-28T12:07:01Z</time>
      </trkpt>
      <trkpt lat="46.6476" lon="5.74954">
        <ele>490.6</ele>
        <time>2020-02-28T12:07:02Z</time>
      </trkpt>
      <trkpt lat="46.64759" lon="5.74957">
        <ele>490.8</ele>
        <time>2020-02-28T12:07:03Z</time>
      </trkpt>
      <trkpt lat="46.64758" lon="5.74959">
        <ele>490.8</ele>
        <time>2020-02-28T12:07:04Z</time>
      </trkpt>
      <trkpt lat="46.64757" lon="5.74962">
        <ele>491.2</ele>
        <time>2020-02-28T12:07:05Z</time>
      </trkpt>
      <trkpt lat="46.64756" lon="5.74964">
        <ele>491.2</ele>
        <time>2020-02-28T12:07:06Z</time>
      </trkpt>
      <trkpt lat="46.64756" lon="5.74967">
        <ele>491.4</ele>
        <time>2020-02-28T12:07:07Z</time>
      </trkpt>
      <trkpt lat="46.64755" lon="5.74969">
        <ele>491.8</ele>
        <time>2020-02-28T12:07:08Z</time>
      </trkpt>
      <trkpt lat="46.64753" lon="5.74971">
        <ele>491.8</ele>
        <time>2020-02-28T12:07:09Z</time>
      </trkpt>
      <trkpt lat="46.64752" lon="5.74973">
        <ele>492</ele>
        <time>2020-02-28T12:07:10Z</time>
      </trkpt>
      <trkpt lat="46.6475" lon="5.74975">
        <ele>492</ele>
        <time>2020-02-28T12:07:11Z</time>
      </trkpt>
      <trkpt lat="46.64748" lon="5.74976">
        <ele>492.4</ele>
        <time>2020-02-28T12:07:12Z</time>
      </trkpt>
      <trkpt lat="46.64746" lon="5.74978">
        <ele>492.6</ele>
        <time>2020-02-28T12:07:13Z</time>
      </trkpt>
      <trkpt lat="46.64745" lon="5.7498">
        <ele>492.6</ele>
        <time>2020-02-28T12:07:14Z</time>
      </trkpt>
      <trkpt lat="46.64743" lon="5.74982">
        <ele>493</ele>
        <time>2020-02-28T12:07:15Z</time>
      </trkpt>
      <trkpt lat="46.64742" lon="5.74983">
        <ele>493</ele>
        <time>2020-02-28T12:07:16Z</time>
      </trkpt>
      <trkpt lat="46.6474" lon="5.74985">
        <ele>493.2</ele>
        <time>2020-02-28T12:07:17Z</time>
      </trkpt>
      <trkpt lat="46.64738" lon="5.74986">
        <ele>493.2</ele>
        <time>2020-02-28T12:07:18Z</time>
      </trkpt>
      <trkpt lat="46.64736" lon="5.74987">
        <ele>493.6</ele>
        <time>2020-02-28T12:07:19Z</time>
      </trkpt>
      <trkpt lat="46.64734" lon="5.74989">
        <ele>493.6</ele>
        <time>2020-02-28T12:07:20Z</time>
      </trkpt>
      <trkpt lat="46.64732" lon="5.7499">
        <ele>494</ele>
        <time>2020-02-28T12:07:21Z</time>
      </trkpt>
      <trkpt lat="46.6473" lon="5.74993">
        <ele>494</ele>
        <time>2020-02-28T12:07:22Z</time>
      </trkpt>
      <trkpt lat="46.64728" lon="5.74994">
        <ele>494.2</ele>
        <time>2020-02-28T12:07:23Z</time>
      </trkpt>
      <trkpt lat="46.64726" lon="5.74997">
        <ele>494.2</ele>
        <time>2020-02-28T12:07:24Z</time>
      </trkpt>
      <trkpt lat="46.64724" lon="5.74999">
        <ele>494.6</ele>
        <time>2020-02-28T12:07:25Z</time>
      </trkpt>
      <trkpt lat="46.64721" lon="5.75">
        <ele>494.6</ele>
        <time>2020-02-28T12:07:26Z</time>
      </trkpt>
      <trkpt lat="46.64718" lon="5.75002">
        <ele>494.8</ele>
        <time>2020-02-28T12:07:27Z</time>
      </trkpt>
      <trkpt lat="46.64716" lon="5.75004">
        <ele>494.8</ele>
        <time>2020-02-28T12:07:28Z</time>
      </trkpt>
      <trkpt lat="46.64713" lon="5.75006">
        <ele>495.2</ele>
        <time>2020-02-28T12:07:29Z</time>
      </trkpt>
      <trkpt lat="46.6471" lon="5.75008">
        <ele>495.2</ele>
        <time>2020-02-28T12:07:30Z</time>
      </trkpt>
      <trkpt lat="46.64708" lon="5.7501">
        <ele>495.4</ele>
        <time>2020-02-28T12:07:31Z</time>
      </trkpt>
      <trkpt lat="46.64705" lon="5.75012">
        <ele>495.4</ele>
        <time>2020-02-28T12:07:32Z</time>
      </trkpt>
      <trkpt lat="46.64703" lon="5.75013">
        <ele>495.8</ele>
        <time>2020-02-28T12:07:33Z</time>
      </trkpt>
      <trkpt lat="46.647" lon="5.75014">
        <ele>495.8</ele>
        <time>2020-02-28T12:07:34Z</time>
      </trkpt>
      <trkpt lat="46.64698" lon="5.75015">
        <ele>496</ele>
        <time>2020-02-28T12:07:35Z</time>
      </trkpt>
      <trkpt lat="46.64695" lon="5.75015">
        <ele>496</ele>
        <time>2020-02-28T12:07:36Z</time>
      </trkpt>
      <trkpt lat="46.64692" lon="5.75016">
        <ele>496.2</ele>
        <time>2020-02-28T12:07:37Z</time>
      </trkpt>
      <trkpt lat="46.64689" lon="5.75016">
        <ele>496.2</ele>
        <time>2020-02-28T12:07:38Z</time>
      </trkpt>
      <trkpt lat="46.64686" lon="5.75016">
        <ele>496.4</ele>
        <time>2020-02-28T12:07:39Z</time>
      </trkpt>
      <trkpt lat="46.64683" lon="5.75016">
        <ele>496.4</ele>
        <time>2020-02-28T12:07:40Z</time>
      </trkpt>
      <trkpt lat="46.6468" lon="5.75016">
        <ele>496.4</ele>
        <time>2020-02-28T12:07:41Z</time>
      </trkpt>
      <trkpt lat="46.64677" lon="5.75016">
        <ele>496.4</ele>
        <time>2020-02-28T12:07:42Z</time>
      </trkpt>
      <trkpt lat="46.64675" lon="5.75016">
        <ele>496.4</ele>
        <time>2020-02-28T12:07:43Z</time>
      </trkpt>
      <trkpt lat="46.64672" lon="5.75015">
        <ele>496.8</ele>
        <time>2020-02-28T12:07:44Z</time>
      </trkpt>
      <trkpt lat="46.64669" lon="5.75015">
        <ele>496.8</ele>
        <time>2020-02-28T12:07:45Z</time>
      </trkpt>
      <trkpt lat="46.64666" lon="5.75016">
        <ele>496.8</ele>
        <time>2020-02-28T12:07:46Z</time>
      </trkpt>
      <trkpt lat="46.64663" lon="5.75016">
        <ele>496.8</ele>
        <time>2020-02-28T12:07:47Z</time>
      </trkpt>
      <trkpt lat="46.6466" lon="5.75016">
        <ele>496.8</ele>
        <time>2020-02-28T12:07:48Z</time>
      </trkpt>
      <trkpt lat="46.64656" lon="5.75016">
        <ele>496.8</ele>
        <time>2020-02-28T12:07:49Z</time>
      </trkpt>
      <trkpt lat="46.64653" lon="5.75016">
        <ele>496.8</ele>
        <time>2020-02-28T12:07:50Z</time>
      </trkpt>
      <trkpt lat="46.64649" lon="5.75016">
        <ele>496.8</ele>
        <time>2020-02-28T12:07:51Z</time>
      </trkpt>
      <trkpt lat="46.64644" lon="5.75017">
        <ele>496.8</ele>
        <time>2020-02-28T12:07:52Z</time>
      </trkpt>
      <trkpt lat="46.6464" lon="5.75017">
        <ele>496.8</ele>
        <time>2020-02-28T12:07:53Z</time>
      </trkpt>
      <trkpt lat="46.64636" lon="5.75018">
        <ele>496.8</ele>
        <time>2020-02-28T12:07:54Z</time>
      </trkpt>
      <trkpt lat="46.64632" lon="5.75018">
        <ele>496.8</ele>
        <time>2020-02-28T12:07:55Z</time>
      </trkpt>
      <trkpt lat="46.64628" lon="5.75018">
        <ele>496.8</ele>
        <time>2020-02-28T12:07:56Z</time>
      </trkpt>
      <trkpt lat="46.64623" lon="5.75019">
        <ele>496.8</ele>
        <time>2020-02-28T12:07:57Z</time>
      </trkpt>
      <trkpt lat="46.64619" lon="5.75019">
        <ele>496.8</ele>
        <time>2020-02-28T12:07:58Z</time>
      </trkpt>
      <trkpt lat="46.64615" lon="5.7502">
        <ele>496.8</ele>
        <time>2020-02-28T12:07:59Z</time>
      </trkpt>
      <trkpt lat="46.6461" lon="5.7502">
        <ele>496.8</ele>
        <time>2020-02-28T12:08:00Z</time>
      </trkpt>
      <trkpt lat="46.64606" lon="5.7502">
        <ele>496.6</ele>
        <time>2020-02-28T12:08:01Z</time>
      </trkpt>
      <trkpt lat="46.64601" lon="5.75021">
        <ele>496.6</ele>
        <time>2020-02-28T12:08:02Z</time>
      </trkpt>
      <trkpt lat="46.64597" lon="5.75022">
        <ele>496.6</ele>
        <time>2020-02-28T12:08:03Z</time>
      </trkpt>
      <trkpt lat="46.64592" lon="5.75023">
        <ele>496.6</ele>
        <time>2020-02-28T12:08:04Z</time>
      </trkpt>
      <trkpt lat="46.64588" lon="5.75023">
        <ele>496.6</ele>
        <time>2020-02-28T12:08:05Z</time>
      </trkpt>
      <trkpt lat="46.64583" lon="5.75024">
        <ele>496.6</ele>
        <time>2020-02-28T12:08:06Z</time>
      </trkpt>
      <trkpt lat="46.64578" lon="5.75025">
        <ele>496.6</ele>
        <time>2020-02-28T12:08:07Z</time>
      </trkpt>
      <trkpt lat="46.64574" lon="5.75025">
        <ele>496.6</ele>
        <time>2020-02-28T12:08:08Z</time>
      </trkpt>
      <trkpt lat="46.64569" lon="5.75026">
        <ele>496.6</ele>
        <time>2020-02-28T12:08:09Z</time>
      </trkpt>
      <trkpt lat="46.64564" lon="5.75026">
        <ele>496.8</ele>
        <time>2020-02-28T12:08:10Z</time>
      </trkpt>
      <trkpt lat="46.6456" lon="5.75027">
        <ele>496.8</ele>
        <time>2020-02-28T12:08:11Z</time>
      </trkpt>
      <trkpt lat="46.64555" lon="5.75027">
        <ele>496.8</ele>
        <time>2020-02-28T12:08:12Z</time>
      </trkpt>
      <trkpt lat="46.64551" lon="5.75028">
        <ele>496.8</ele>
        <time>2020-02-28T12:08:13Z</time>
      </trkpt>
      <trkpt lat="46.64546" lon="5.75028">
        <ele>496.8</ele>
        <time>2020-02-28T12:08:14Z</time>
      </trkpt>
      <trkpt lat="46.64541" lon="5.75028">
        <ele>496.8</ele>
        <time>2020-02-28T12:08:15Z</time>
      </trkpt>
      <trkpt lat="46.64537" lon="5.75029">
        <ele>496.8</ele>
        <time>2020-02-28T12:08:16Z</time>
      </trkpt>
      <trkpt lat="46.64532" lon="5.75029">
        <ele>496.8</ele>
        <time>2020-02-28T12:08:17Z</time>
      </trkpt>
      <trkpt lat="46.64528" lon="5.75029">
        <ele>496.8</ele>
        <time>2020-02-28T12:08:18Z</time>
      </trkpt>
      <trkpt lat="46.64523" lon="5.75029">
        <ele>496.8</ele>
        <time>2020-02-28T12:08:19Z</time>
      </trkpt>
      <trkpt lat="46.64518" lon="5.75029">
        <ele>496.8</ele>
        <time>2020-02-28T12:08:20Z</time>
      </trkpt>
      <trkpt lat="46.64513" lon="5.75029">
        <ele>496.8</ele>
        <time>2020-02-28T12:08:21Z</time>
      </trkpt>
      <trkpt lat="46.64509" lon="5.75029">
        <ele>496.8</ele>
        <time>2020-02-28T12:08:22Z</time>
      </trkpt>
      <trkpt lat="46.64504" lon="5.7503">
        <ele>496.8</ele>
        <time>2020-02-28T12:08:23Z</time>
      </trkpt>
      <trkpt lat="46.64499" lon="5.7503">
        <ele>496.8</ele>
        <time>2020-02-28T12:08:24Z</time>
      </trkpt>
      <trkpt lat="46.64494" lon="5.7503">
        <ele>496.8</ele>
        <time>2020-02-28T12:08:25Z</time>
      </trkpt>
      <trkpt lat="46.64489" lon="5.7503">
        <ele>496.8</ele>
        <time>2020-02-28T12:08:26Z</time>
      </trkpt>
      <trkpt lat="46.64484" lon="5.7503">
        <ele>496.4</ele>
        <time>2020-02-28T12:08:27Z</time>
      </trkpt>
      <trkpt lat="46.64479" lon="5.7503">
        <ele>496.4</ele>
        <time>2020-02-28T12:08:28Z</time>
      </trkpt>
      <trkpt lat="46.64473" lon="5.75031">
        <ele>496.4</ele>
        <time>2020-02-28T12:08:29Z</time>
      </trkpt>
      <trkpt lat="46.64468" lon="5.75032">
        <ele>496.2</ele>
        <time>2020-02-28T12:08:30Z</time>
      </trkpt>
      <trkpt lat="46.64464" lon="5.75035">
        <ele>496.2</ele>
        <time>2020-02-28T12:08:31Z</time>
      </trkpt>
      <trkpt lat="46.64459" lon="5.75038">
        <ele>496.2</ele>
        <time>2020-02-28T12:08:32Z</time>
      </trkpt>
      <trkpt lat="46.64456" lon="5.75043">
        <ele>496.2</ele>
        <time>2020-02-28T12:08:33Z</time>
      </trkpt>
      <trkpt lat="46.64452" lon="5.75049">
        <ele>496</ele>
        <time>2020-02-28T12:08:34Z</time>
      </trkpt>
      <trkpt lat="46.64449" lon="5.75055">
        <ele>496</ele>
        <time>2020-02-28T12:08:35Z</time>
      </trkpt>
      <trkpt lat="46.64447" lon="5.75061">
        <ele>496</ele>
        <time>2020-02-28T12:08:36Z</time>
      </trkpt>
      <trkpt lat="46.64445" lon="5.75067">
        <ele>496</ele>
        <time>2020-02-28T12:08:37Z</time>
      </trkpt>
      <trkpt lat="46.64442" lon="5.75073">
        <ele>496</ele>
        <time>2020-02-28T12:08:38Z</time>
      </trkpt>
      <trkpt lat="46.6444" lon="5.75078">
        <ele>496.2</ele>
        <time>2020-02-28T12:08:39Z</time>
      </trkpt>
      <trkpt lat="46.64437" lon="5.75084">
        <ele>496.2</ele>
        <time>2020-02-28T12:08:40Z</time>
      </trkpt>
      <trkpt lat="46.64434" lon="5.75089">
        <ele>496.2</ele>
        <time>2020-02-28T12:08:41Z</time>
      </trkpt>
      <trkpt lat="46.6443" lon="5.75095">
        <ele>496.2</ele>
        <time>2020-02-28T12:08:42Z</time>
      </trkpt>
      <trkpt lat="46.64428" lon="5.751">
        <ele>496.2</ele>
        <time>2020-02-28T12:08:43Z</time>
      </trkpt>
      <trkpt lat="46.64425" lon="5.75106">
        <ele>496.2</ele>
        <time>2020-02-28T12:08:44Z</time>
      </trkpt>
      <trkpt lat="46.64422" lon="5.75111">
        <ele>496.2</ele>
        <time>2020-02-28T12:08:45Z</time>
      </trkpt>
      <trkpt lat="46.64419" lon="5.75117">
        <ele>496.2</ele>
        <time>2020-02-28T12:08:46Z</time>
      </trkpt>
      <trkpt lat="46.64416" lon="5.75122">
        <ele>496.2</ele>
        <time>2020-02-28T12:08:47Z</time>
      </trkpt>
      <trkpt lat="46.64413" lon="5.75127">
        <ele>496.4</ele>
        <time>2020-02-28T12:08:48Z</time>
      </trkpt>
      <trkpt lat="46.6441" lon="5.75132">
        <ele>496.4</ele>
        <time>2020-02-28T12:08:49Z</time>
      </trkpt>
      <trkpt lat="46.64407" lon="5.75137">
        <ele>496.4</ele>
        <time>2020-02-28T12:08:50Z</time>
      </trkpt>
      <trkpt lat="46.64404" lon="5.75142">
        <ele>496.4</ele>
        <time>2020-02-28T12:08:51Z</time>
      </trkpt>
      <trkpt lat="46.64401" lon="5.75147">
        <ele>496.4</ele>
        <time>2020-02-28T12:08:52Z</time>
      </trkpt>
      <trkpt lat="46.64398" lon="5.75153">
        <ele>496.4</ele>
        <time>2020-02-28T12:08:53Z</time>
      </trkpt>
      <trkpt lat="46.64395" lon="5.75158">
        <ele>496.4</ele>
        <time>2020-02-28T12:08:54Z</time>
      </trkpt>
      <trkpt lat="46.64392" lon="5.75163">
        <ele>496.6</ele>
        <time>2020-02-28T12:08:55Z</time>
      </trkpt>
      <trkpt lat="46.64389" lon="5.75168">
        <ele>496.6</ele>
        <time>2020-02-28T12:08:56Z</time>
      </trkpt>
      <trkpt lat="46.64386" lon="5.75173">
        <ele>496.6</ele>
        <time>2020-02-28T12:08:57Z</time>
      </trkpt>
      <trkpt lat="46.64383" lon="5.75178">
        <ele>496.6</ele>
        <time>2020-02-28T12:08:58Z</time>
      </trkpt>
      <trkpt lat="46.64379" lon="5.75183">
        <ele>496.8</ele>
        <time>2020-02-28T12:08:59Z</time>
      </trkpt>
      <trkpt lat="46.64376" lon="5.75187">
        <ele>496.8</ele>
        <time>2020-02-28T12:09:00Z</time>
      </trkpt>
      <trkpt lat="46.64373" lon="5.75192">
        <ele>496.8</ele>
        <time>2020-02-28T12:09:01Z</time>
      </trkpt>
      <trkpt lat="46.64369" lon="5.75197">
        <ele>496.8</ele>
        <time>2020-02-28T12:09:02Z</time>
      </trkpt>
      <trkpt lat="46.64366" lon="5.75202">
        <ele>496.8</ele>
        <time>2020-02-28T12:09:03Z</time>
      </trkpt>
      <trkpt lat="46.64363" lon="5.75207">
        <ele>496.8</ele>
        <time>2020-02-28T12:09:04Z</time>
      </trkpt>
      <trkpt lat="46.6436" lon="5.75212">
        <ele>497.2</ele>
        <time>2020-02-28T12:09:05Z</time>
      </trkpt>
      <trkpt lat="46.64357" lon="5.75216">
        <ele>497.2</ele>
        <time>2020-02-28T12:09:06Z</time>
      </trkpt>
      <trkpt lat="46.64354" lon="5.75221">
        <ele>497.2</ele>
        <time>2020-02-28T12:09:07Z</time>
      </trkpt>
      <trkpt lat="46.6435" lon="5.75226">
        <ele>497.2</ele>
        <time>2020-02-28T12:09:08Z</time>
      </trkpt>
      <trkpt lat="46.64346" lon="5.75231">
        <ele>497.4</ele>
        <time>2020-02-28T12:09:09Z</time>
      </trkpt>
      <trkpt lat="46.64343" lon="5.75235">
        <ele>497.4</ele>
        <time>2020-02-28T12:09:10Z</time>
      </trkpt>
      <trkpt lat="46.6434" lon="5.7524">
        <ele>497.4</ele>
        <time>2020-02-28T12:09:11Z</time>
      </trkpt>
      <trkpt lat="46.64338" lon="5.75245">
        <ele>497.6</ele>
        <time>2020-02-28T12:09:12Z</time>
      </trkpt>
      <trkpt lat="46.64335" lon="5.7525">
        <ele>497.6</ele>
        <time>2020-02-28T12:09:13Z</time>
      </trkpt>
      <trkpt lat="46.64332" lon="5.75254">
        <ele>497.8</ele>
        <time>2020-02-28T12:09:14Z</time>
      </trkpt>
      <trkpt lat="46.64329" lon="5.75259">
        <ele>497.8</ele>
        <time>2020-02-28T12:09:15Z</time>
      </trkpt>
      <trkpt lat="46.64326" lon="5.75264">
        <ele>498.2</ele>
        <time>2020-02-28T12:09:16Z</time>
      </trkpt>
      <trkpt lat="46.64323" lon="5.75268">
        <ele>498.2</ele>
        <time>2020-02-28T12:09:17Z</time>
      </trkpt>
      <trkpt lat="46.64321" lon="5.75272">
        <ele>498.4</ele>
        <time>2020-02-28T12:09:18Z</time>
      </trkpt>
      <trkpt lat="46.64318" lon="5.75277">
        <ele>498.4</ele>
        <time>2020-02-28T12:09:19Z</time>
      </trkpt>
      <trkpt lat="46.64315" lon="5.75281">
        <ele>498.6</ele>
        <time>2020-02-28T12:09:20Z</time>
      </trkpt>
      <trkpt lat="46.64313" lon="5.75285">
        <ele>498.6</ele>
        <time>2020-02-28T12:09:21Z</time>
      </trkpt>
      <trkpt lat="46.6431" lon="5.7529">
        <ele>498.8</ele>
        <time>2020-02-28T12:09:22Z</time>
      </trkpt>
      <trkpt lat="46.64307" lon="5.75294">
        <ele>498.8</ele>
        <time>2020-02-28T12:09:23Z</time>
      </trkpt>
      <trkpt lat="46.64304" lon="5.75298">
        <ele>499.2</ele>
        <time>2020-02-28T12:09:24Z</time>
      </trkpt>
      <trkpt lat="46.64301" lon="5.75302">
        <ele>499.2</ele>
        <time>2020-02-28T12:09:25Z</time>
      </trkpt>
      <trkpt lat="46.64298" lon="5.75306">
        <ele>499.6</ele>
        <time>2020-02-28T12:09:26Z</time>
      </trkpt>
      <trkpt lat="46.64296" lon="5.75309">
        <ele>499.6</ele>
        <time>2020-02-28T12:09:27Z</time>
      </trkpt>
      <trkpt lat="46.64294" lon="5.75313">
        <ele>500</ele>
        <time>2020-02-28T12:09:28Z</time>
      </trkpt>
      <trkpt lat="46.64292" lon="5.75316">
        <ele>500</ele>
        <time>2020-02-28T12:09:29Z</time>
      </trkpt>
      <trkpt lat="46.64289" lon="5.7532">
        <ele>500.2</ele>
        <time>2020-02-28T12:09:30Z</time>
      </trkpt>
      <trkpt lat="46.64288" lon="5.75324">
        <ele>500.2</ele>
        <time>2020-02-28T12:09:31Z</time>
      </trkpt>
      <trkpt lat="46.64286" lon="5.75328">
        <ele>500.6</ele>
        <time>2020-02-28T12:09:32Z</time>
      </trkpt>
      <trkpt lat="46.64285" lon="5.75333">
        <ele>500.6</ele>
        <time>2020-02-28T12:09:33Z</time>
      </trkpt>
      <trkpt lat="46.64285" lon="5.75337">
        <ele>500.8</ele>
        <time>2020-02-28T12:09:34Z</time>
      </trkpt>
      <trkpt lat="46.64285" lon="5.75342">
        <ele>500.8</ele>
        <time>2020-02-28T12:09:35Z</time>
      </trkpt>
      <trkpt lat="46.64285" lon="5.75346">
        <ele>501</ele>
        <time>2020-02-28T12:09:36Z</time>
      </trkpt>
      <trkpt lat="46.64286" lon="5.7535">
        <ele>501</ele>
        <time>2020-02-28T12:09:37Z</time>
      </trkpt>
      <trkpt lat="46.64286" lon="5.75354">
        <ele>501.2</ele>
        <time>2020-02-28T12:09:38Z</time>
      </trkpt>
      <trkpt lat="46.64287" lon="5.75358">
        <ele>501.2</ele>
        <time>2020-02-28T12:09:39Z</time>
      </trkpt>
      <trkpt lat="46.64289" lon="5.75361">
        <ele>501.6</ele>
        <time>2020-02-28T12:09:40Z</time>
      </trkpt>
      <trkpt lat="46.6429" lon="5.75364">
        <ele>501.6</ele>
        <time>2020-02-28T12:09:41Z</time>
      </trkpt>
      <trkpt lat="46.64292" lon="5.75367">
        <ele>502</ele>
        <time>2020-02-28T12:09:42Z</time>
      </trkpt>
      <trkpt lat="46.64294" lon="5.7537">
        <ele>502.2</ele>
        <time>2020-02-28T12:09:43Z</time>
      </trkpt>
      <trkpt lat="46.64295" lon="5.75373">
        <ele>502.2</ele>
        <time>2020-02-28T12:09:44Z</time>
      </trkpt>
      <trkpt lat="46.64297" lon="5.75376">
        <ele>502.4</ele>
        <time>2020-02-28T12:09:45Z</time>
      </trkpt>
      <trkpt lat="46.64299" lon="5.75378">
        <ele>502.8</ele>
        <time>2020-02-28T12:09:46Z</time>
      </trkpt>
      <trkpt lat="46.64301" lon="5.75379">
        <ele>502.8</ele>
        <time>2020-02-28T12:09:47Z</time>
      </trkpt>
      <trkpt lat="46.64303" lon="5.75381">
        <ele>503</ele>
        <time>2020-02-28T12:09:48Z</time>
      </trkpt>
      <trkpt lat="46.64306" lon="5.75382">
        <ele>503</ele>
        <time>2020-02-28T12:09:49Z</time>
      </trkpt>
      <trkpt lat="46.64308" lon="5.75384">
        <ele>503.4</ele>
        <time>2020-02-28T12:09:50Z</time>
      </trkpt>
      <trkpt lat="46.6431" lon="5.75385">
        <ele>503.4</ele>
        <time>2020-02-28T12:09:51Z</time>
      </trkpt>
      <trkpt lat="46.64312" lon="5.75386">
        <ele>503.8</ele>
        <time>2020-02-28T12:09:52Z</time>
      </trkpt>
      <trkpt lat="46.64314" lon="5.75389">
        <ele>503.8</ele>
        <time>2020-02-28T12:09:53Z</time>
      </trkpt>
      <trkpt lat="46.64316" lon="5.7539">
        <ele>504</ele>
        <time>2020-02-28T12:09:54Z</time>
      </trkpt>
      <trkpt lat="46.64319" lon="5.75392">
        <ele>504</ele>
        <time>2020-02-28T12:09:55Z</time>
      </trkpt>
      <trkpt lat="46.64321" lon="5.75393">
        <ele>504.2</ele>
        <time>2020-02-28T12:09:56Z</time>
      </trkpt>
      <trkpt lat="46.64323" lon="5.75395">
        <ele>504.4</ele>
        <time>2020-02-28T12:09:57Z</time>
      </trkpt>
      <trkpt lat="46.64325" lon="5.75396">
        <ele>504.4</ele>
        <time>2020-02-28T12:09:58Z</time>
      </trkpt>
      <trkpt lat="46.64327" lon="5.75398">
        <ele>504.8</ele>
        <time>2020-02-28T12:09:59Z</time>
      </trkpt>
      <trkpt lat="46.64329" lon="5.754">
        <ele>505</ele>
        <time>2020-02-28T12:10:00Z</time>
      </trkpt>
      <trkpt lat="46.64331" lon="5.75403">
        <ele>505</ele>
        <time>2020-02-28T12:10:01Z</time>
      </trkpt>
      <trkpt lat="46.64332" lon="5.75405">
        <ele>505.2</ele>
        <time>2020-02-28T12:10:02Z</time>
      </trkpt>
      <trkpt lat="46.64334" lon="5.75408">
        <ele>505.2</ele>
        <time>2020-02-28T12:10:03Z</time>
      </trkpt>
      <trkpt lat="46.64335" lon="5.75411">
        <ele>505.6</ele>
        <time>2020-02-28T12:10:04Z</time>
      </trkpt>
      <trkpt lat="46.64336" lon="5.75414">
        <ele>505.6</ele>
        <time>2020-02-28T12:10:05Z</time>
      </trkpt>
      <trkpt lat="46.64338" lon="5.75416">
        <ele>506</ele>
        <time>2020-02-28T12:10:06Z</time>
      </trkpt>
      <trkpt lat="46.6434" lon="5.75419">
        <ele>506</ele>
        <time>2020-02-28T12:10:07Z</time>
      </trkpt>
      <trkpt lat="46.64342" lon="5.75421">
        <ele>506.2</ele>
        <time>2020-02-28T12:10:08Z</time>
      </trkpt>
      <trkpt lat="46.64344" lon="5.75424">
        <ele>506.6</ele>
        <time>2020-02-28T12:10:09Z</time>
      </trkpt>
      <trkpt lat="46.64345" lon="5.75427">
        <ele>506.8</ele>
        <time>2020-02-28T12:10:10Z</time>
      </trkpt>
      <trkpt lat="46.64347" lon="5.75429">
        <ele>506.8</ele>
        <time>2020-02-28T12:10:11Z</time>
      </trkpt>
      <trkpt lat="46.64349" lon="5.75432">
        <ele>507</ele>
        <time>2020-02-28T12:10:12Z</time>
      </trkpt>
      <trkpt lat="46.6435" lon="5.75434">
        <ele>507.2</ele>
        <time>2020-02-28T12:10:13Z</time>
      </trkpt>
      <trkpt lat="46.64352" lon="5.75436">
        <ele>507.4</ele>
        <time>2020-02-28T12:10:14Z</time>
      </trkpt>
      <trkpt lat="46.64354" lon="5.75438">
        <ele>507.4</ele>
        <time>2020-02-28T12:10:15Z</time>
      </trkpt>
      <trkpt lat="46.64356" lon="5.7544">
        <ele>507.8</ele>
        <time>2020-02-28T12:10:16Z</time>
      </trkpt>
      <trkpt lat="46.64358" lon="5.75441">
        <ele>507.8</ele>
        <time>2020-02-28T12:10:17Z</time>
      </trkpt>
      <trkpt lat="46.64359" lon="5.75443">
        <ele>508.2</ele>
        <time>2020-02-28T12:10:18Z</time>
      </trkpt>
      <trkpt lat="46.6436" lon="5.75446">
        <ele>508.4</ele>
        <time>2020-02-28T12:10:19Z</time>
      </trkpt>
      <trkpt lat="46.64362" lon="5.75448">
        <ele>508.4</ele>
        <time>2020-02-28T12:10:20Z</time>
      </trkpt>
      <trkpt lat="46.64363" lon="5.75451">
        <ele>508.8</ele>
        <time>2020-02-28T12:10:21Z</time>
      </trkpt>
      <trkpt lat="46.64365" lon="5.75453">
        <ele>509</ele>
        <time>2020-02-28T12:10:22Z</time>
      </trkpt>
      <trkpt lat="46.64367" lon="5.75456">
        <ele>509</ele>
        <time>2020-02-28T12:10:23Z</time>
      </trkpt>
      <trkpt lat="46.64368" lon="5.75458">
        <ele>509.4</ele>
        <time>2020-02-28T12:10:24Z</time>
      </trkpt>
      <trkpt lat="46.6437" lon="5.75461">
        <ele>509.4</ele>
        <time>2020-02-28T12:10:25Z</time>
      </trkpt>
      <trkpt lat="46.64372" lon="5.75463">
        <ele>509.6</ele>
        <time>2020-02-28T12:10:26Z</time>
      </trkpt>
      <trkpt lat="46.64373" lon="5.75465">
        <ele>509.6</ele>
        <time>2020-02-28T12:10:27Z</time>
      </trkpt>
      <trkpt lat="46.64375" lon="5.75466">
        <ele>510</ele>
        <time>2020-02-28T12:10:28Z</time>
      </trkpt>
      <trkpt lat="46.64377" lon="5.75468">
        <ele>510.2</ele>
        <time>2020-02-28T12:10:29Z</time>
      </trkpt>
      <trkpt lat="46.64379" lon="5.7547">
        <ele>510.2</ele>
        <time>2020-02-28T12:10:30Z</time>
      </trkpt>
      <trkpt lat="46.64381" lon="5.75472">
        <ele>510.6</ele>
        <time>2020-02-28T12:10:31Z</time>
      </trkpt>
      <trkpt lat="46.64383" lon="5.75474">
        <ele>510.6</ele>
        <time>2020-02-28T12:10:32Z</time>
      </trkpt>
      <trkpt lat="46.64385" lon="5.75476">
        <ele>511</ele>
        <time>2020-02-28T12:10:33Z</time>
      </trkpt>
      <trkpt lat="46.64387" lon="5.75477">
        <ele>511</ele>
        <time>2020-02-28T12:10:34Z</time>
      </trkpt>
      <trkpt lat="46.64389" lon="5.75479">
        <ele>511.2</ele>
        <time>2020-02-28T12:10:35Z</time>
      </trkpt>
      <trkpt lat="46.64391" lon="5.75481">
        <ele>511.2</ele>
        <time>2020-02-28T12:10:36Z</time>
      </trkpt>
      <trkpt lat="46.64392" lon="5.75483">
        <ele>511.6</ele>
        <time>2020-02-28T12:10:37Z</time>
      </trkpt>
      <trkpt lat="46.64394" lon="5.75485">
        <ele>511.6</ele>
        <time>2020-02-28T12:10:38Z</time>
      </trkpt>
      <trkpt lat="46.64395" lon="5.75487">
        <ele>511.8</ele>
        <time>2020-02-28T12:10:39Z</time>
      </trkpt>
      <trkpt lat="46.64396" lon="5.75489">
        <ele>511.8</ele>
        <time>2020-02-28T12:10:40Z</time>
      </trkpt>
      <trkpt lat="46.64398" lon="5.75492">
        <ele>512</ele>
        <time>2020-02-28T12:10:41Z</time>
      </trkpt>
      <trkpt lat="46.64398" lon="5.75494">
        <ele>512</ele>
        <time>2020-02-28T12:10:42Z</time>
      </trkpt>
      <trkpt lat="46.644" lon="5.75496">
        <ele>512.4</ele>
        <time>2020-02-28T12:10:43Z</time>
      </trkpt>
      <trkpt lat="46.64402" lon="5.75498">
        <ele>512.4</ele>
        <time>2020-02-28T12:10:44Z</time>
      </trkpt>
      <trkpt lat="46.64404" lon="5.755">
        <ele>512.8</ele>
        <time>2020-02-28T12:10:45Z</time>
      </trkpt>
      <trkpt lat="46.64406" lon="5.75502">
        <ele>512.8</ele>
        <time>2020-02-28T12:10:46Z</time>
      </trkpt>
      <trkpt lat="46.64408" lon="5.75505">
        <ele>513</ele>
        <time>2020-02-28T12:10:47Z</time>
      </trkpt>
      <trkpt lat="46.6441" lon="5.75507">
        <ele>513</ele>
        <time>2020-02-28T12:10:48Z</time>
      </trkpt>
      <trkpt lat="46.64411" lon="5.75509">
        <ele>513.4</ele>
        <time>2020-02-28T12:10:49Z</time>
      </trkpt>
      <trkpt lat="46.64413" lon="5.7551">
        <ele>513.4</ele>
        <time>2020-02-28T12:10:50Z</time>
      </trkpt>
      <trkpt lat="46.64415" lon="5.75511">
        <ele>513.6</ele>
        <time>2020-02-28T12:10:51Z</time>
      </trkpt>
      <trkpt lat="46.64417" lon="5.75513">
        <ele>514</ele>
        <time>2020-02-28T12:10:52Z</time>
      </trkpt>
      <trkpt lat="46.64419" lon="5.75516">
        <ele>514.2</ele>
        <time>2020-02-28T12:10:53Z</time>
      </trkpt>
      <trkpt lat="46.64421" lon="5.75518">
        <ele>514.4</ele>
        <time>2020-02-28T12:10:54Z</time>
      </trkpt>
      <trkpt lat="46.64423" lon="5.75521">
        <ele>514.4</ele>
        <time>2020-02-28T12:10:55Z</time>
      </trkpt>
      <trkpt lat="46.64424" lon="5.75523">
        <ele>514.8</ele>
        <time>2020-02-28T12:10:56Z</time>
      </trkpt>
      <trkpt lat="46.64426" lon="5.75525">
        <ele>515</ele>
        <time>2020-02-28T12:10:57Z</time>
      </trkpt>
      <trkpt lat="46.64427" lon="5.75527">
        <ele>515</ele>
        <time>2020-02-28T12:10:58Z</time>
      </trkpt>
      <trkpt lat="46.64428" lon="5.7553">
        <ele>515.2</ele>
        <time>2020-02-28T12:10:59Z</time>
      </trkpt>
      <trkpt lat="46.64429" lon="5.75532">
        <ele>515.2</ele>
        <time>2020-02-28T12:11:00Z</time>
      </trkpt>
      <trkpt lat="46.64431" lon="5.75535">
        <ele>515.6</ele>
        <time>2020-02-28T12:11:01Z</time>
      </trkpt>
      <trkpt lat="46.64433" lon="5.75537">
        <ele>515.6</ele>
        <time>2020-02-28T12:11:02Z</time>
      </trkpt>
      <trkpt lat="46.64434" lon="5.7554">
        <ele>515.8</ele>
        <time>2020-02-28T12:11:03Z</time>
      </trkpt>
      <trkpt lat="46.64435" lon="5.75542">
        <ele>516.2</ele>
        <time>2020-02-28T12:11:04Z</time>
      </trkpt>
      <trkpt lat="46.64437" lon="5.75545">
        <ele>516.2</ele>
        <time>2020-02-28T12:11:05Z</time>
      </trkpt>
      <trkpt lat="46.64438" lon="5.75547">
        <ele>516.4</ele>
        <time>2020-02-28T12:11:06Z</time>
      </trkpt>
      <trkpt lat="46.6444" lon="5.7555">
        <ele>516.4</ele>
        <time>2020-02-28T12:11:07Z</time>
      </trkpt>
      <trkpt lat="46.64441" lon="5.75553">
        <ele>516.6</ele>
        <time>2020-02-28T12:11:08Z</time>
      </trkpt>
      <trkpt lat="46.64443" lon="5.75555">
        <ele>517</ele>
        <time>2020-02-28T12:11:09Z</time>
      </trkpt>
      <trkpt lat="46.64444" lon="5.75558">
        <ele>517</ele>
        <time>2020-02-28T12:11:10Z</time>
      </trkpt>
      <trkpt lat="46.64445" lon="5.7556">
        <ele>517.2</ele>
        <time>2020-02-28T12:11:11Z</time>
      </trkpt>
      <trkpt lat="46.64447" lon="5.75562">
        <ele>517.4</ele>
        <time>2020-02-28T12:11:12Z</time>
      </trkpt>
      <trkpt lat="46.64449" lon="5.75564">
        <ele>517.4</ele>
        <time>2020-02-28T12:11:13Z</time>
      </trkpt>
      <trkpt lat="46.64451" lon="5.75566">
        <ele>517.8</ele>
        <time>2020-02-28T12:11:14Z</time>
      </trkpt>
      <trkpt lat="46.64452" lon="5.75568">
        <ele>517.8</ele>
        <time>2020-02-28T12:11:15Z</time>
      </trkpt>
      <trkpt lat="46.64454" lon="5.75571">
        <ele>518.2</ele>
        <time>2020-02-28T12:11:16Z</time>
      </trkpt>
      <trkpt lat="46.64456" lon="5.75573">
        <ele>518.2</ele>
        <time>2020-02-28T12:11:17Z</time>
      </trkpt>
      <trkpt lat="46.64457" lon="5.75576">
        <ele>518.4</ele>
        <time>2020-02-28T12:11:18Z</time>
      </trkpt>
      <trkpt lat="46.64459" lon="5.75578">
        <ele>518.4</ele>
        <time>2020-02-28T12:11:19Z</time>
      </trkpt>
      <trkpt lat="46.64461" lon="5.75581">
        <ele>518.8</ele>
        <time>2020-02-28T12:11:20Z</time>
      </trkpt>
      <trkpt lat="46.64462" lon="5.75583">
        <ele>518.8</ele>
        <time>2020-02-28T12:11:21Z</time>
      </trkpt>
      <trkpt lat="46.64464" lon="5.75586">
        <ele>519</ele>
        <time>2020-02-28T12:11:22Z</time>
      </trkpt>
      <trkpt lat="46.64466" lon="5.75588">
        <ele>519</ele>
        <time>2020-02-28T12:11:23Z</time>
      </trkpt>
      <trkpt lat="46.64469" lon="5.7559">
        <ele>519.2</ele>
        <time>2020-02-28T12:11:24Z</time>
      </trkpt>
      <trkpt lat="46.6447" lon="5.75593">
        <ele>519.2</ele>
        <time>2020-02-28T12:11:25Z</time>
      </trkpt>
      <trkpt lat="46.64472" lon="5.75596">
        <ele>519.4</ele>
        <time>2020-02-28T12:11:26Z</time>
      </trkpt>
      <trkpt lat="46.64474" lon="5.756">
        <ele>519.4</ele>
        <time>2020-02-28T12:11:27Z</time>
      </trkpt>
      <trkpt lat="46.64476" lon="5.75603">
        <ele>519.8</ele>
        <time>2020-02-28T12:11:28Z</time>
      </trkpt>
      <trkpt lat="46.64479" lon="5.75605">
        <ele>519.8</ele>
        <time>2020-02-28T12:11:29Z</time>
      </trkpt>
      <trkpt lat="46.64481" lon="5.75607">
        <ele>520</ele>
        <time>2020-02-28T12:11:30Z</time>
      </trkpt>
      <trkpt lat="46.64483" lon="5.75609">
        <ele>520</ele>
        <time>2020-02-28T12:11:31Z</time>
      </trkpt>
      <trkpt lat="46.64485" lon="5.7561">
        <ele>520.4</ele>
        <time>2020-02-28T12:11:32Z</time>
      </trkpt>
      <trkpt lat="46.64488" lon="5.75611">
        <ele>520.4</ele>
        <time>2020-02-28T12:11:33Z</time>
      </trkpt>
      <trkpt lat="46.6449" lon="5.75612">
        <ele>520.8</ele>
        <time>2020-02-28T12:11:34Z</time>
      </trkpt>
      <trkpt lat="46.64492" lon="5.75613">
        <ele>520.8</ele>
        <time>2020-02-28T12:11:35Z</time>
      </trkpt>
      <trkpt lat="46.64494" lon="5.75614">
        <ele>521</ele>
        <time>2020-02-28T12:11:36Z</time>
      </trkpt>
      <trkpt lat="46.64496" lon="5.75614">
        <ele>521</ele>
        <time>2020-02-28T12:11:37Z</time>
      </trkpt>
      <trkpt lat="46.64498" lon="5.75615">
        <ele>521.4</ele>
        <time>2020-02-28T12:11:38Z</time>
      </trkpt>
      <trkpt lat="46.645" lon="5.75616">
        <ele>521.4</ele>
        <time>2020-02-28T12:11:39Z</time>
      </trkpt>
      <trkpt lat="46.64502" lon="5.75616">
        <ele>521.8</ele>
        <time>2020-02-28T12:11:40Z</time>
      </trkpt>
      <trkpt lat="46.64505" lon="5.75616">
        <ele>521.8</ele>
        <time>2020-02-28T12:11:41Z</time>
      </trkpt>
      <trkpt lat="46.64507" lon="5.75615">
        <ele>522</ele>
        <time>2020-02-28T12:11:42Z</time>
      </trkpt>
      <trkpt lat="46.6451" lon="5.75615">
        <ele>522</ele>
        <time>2020-02-28T12:11:43Z</time>
      </trkpt>
      <trkpt lat="46.64512" lon="5.75614">
        <ele>522.4</ele>
        <time>2020-02-28T12:11:44Z</time>
      </trkpt>
      <trkpt lat="46.64514" lon="5.75613">
        <ele>522.4</ele>
        <time>2020-02-28T12:11:45Z</time>
      </trkpt>
      <trkpt lat="46.64516" lon="5.75613">
        <ele>522.8</ele>
        <time>2020-02-28T12:11:46Z</time>
      </trkpt>
      <trkpt lat="46.64519" lon="5.75613">
        <ele>523</ele>
        <time>2020-02-28T12:11:47Z</time>
      </trkpt>
      <trkpt lat="46.64521" lon="5.75613">
        <ele>523</ele>
        <time>2020-02-28T12:11:48Z</time>
      </trkpt>
      <trkpt lat="46.64524" lon="5.75613">
        <ele>523.2</ele>
        <time>2020-02-28T12:11:49Z</time>
      </trkpt>
      <trkpt lat="46.64527" lon="5.75612">
        <ele>523.2</ele>
        <time>2020-02-28T12:11:50Z</time>
      </trkpt>
      <trkpt lat="46.64529" lon="5.75612">
        <ele>523.6</ele>
        <time>2020-02-28T12:11:51Z</time>
      </trkpt>
      <trkpt lat="46.64532" lon="5.75612">
        <ele>523.8</ele>
        <time>2020-02-28T12:11:52Z</time>
      </trkpt>
      <trkpt lat="46.64534" lon="5.75612">
        <ele>523.8</ele>
        <time>2020-02-28T12:11:53Z</time>
      </trkpt>
      <trkpt lat="46.64536" lon="5.75612">
        <ele>524.2</ele>
        <time>2020-02-28T12:11:54Z</time>
      </trkpt>
      <trkpt lat="46.64539" lon="5.75613">
        <ele>524.2</ele>
        <time>2020-02-28T12:11:55Z</time>
      </trkpt>
      <trkpt lat="46.64541" lon="5.75614">
        <ele>524.6</ele>
        <time>2020-02-28T12:11:56Z</time>
      </trkpt>
      <trkpt lat="46.64543" lon="5.75615">
        <ele>524.6</ele>
        <time>2020-02-28T12:11:57Z</time>
      </trkpt>
      <trkpt lat="46.64545" lon="5.75616">
        <ele>524.8</ele>
        <time>2020-02-28T12:11:58Z</time>
      </trkpt>
      <trkpt lat="46.64547" lon="5.75617">
        <ele>524.8</ele>
        <time>2020-02-28T12:11:59Z</time>
      </trkpt>
      <trkpt lat="46.64548" lon="5.75618">
        <ele>525.2</ele>
        <time>2020-02-28T12:12:00Z</time>
      </trkpt>
      <trkpt lat="46.6455" lon="5.7562">
        <ele>525.2</ele>
        <time>2020-02-28T12:12:01Z</time>
      </trkpt>
      <trkpt lat="46.64552" lon="5.75622">
        <ele>525.6</ele>
        <time>2020-02-28T12:12:02Z</time>
      </trkpt>
      <trkpt lat="46.64554" lon="5.75623">
        <ele>525.6</ele>
        <time>2020-02-28T12:12:03Z</time>
      </trkpt>
      <trkpt lat="46.64556" lon="5.75625">
        <ele>526</ele>
        <time>2020-02-28T12:12:04Z</time>
      </trkpt>
      <trkpt lat="46.64557" lon="5.75627">
        <ele>526</ele>
        <time>2020-02-28T12:12:05Z</time>
      </trkpt>
      <trkpt lat="46.64559" lon="5.75629">
        <ele>526.2</ele>
        <time>2020-02-28T12:12:06Z</time>
      </trkpt>
      <trkpt lat="46.64561" lon="5.75632">
        <ele>526.2</ele>
        <time>2020-02-28T12:12:07Z</time>
      </trkpt>
      <trkpt lat="46.64562" lon="5.75635">
        <ele>526.6</ele>
        <time>2020-02-28T12:12:08Z</time>
      </trkpt>
      <trkpt lat="46.64564" lon="5.75638">
        <ele>526.8</ele>
        <time>2020-02-28T12:12:09Z</time>
      </trkpt>
      <trkpt lat="46.64565" lon="5.7564">
        <ele>526.8</ele>
        <time>2020-02-28T12:12:10Z</time>
      </trkpt>
      <trkpt lat="46.64567" lon="5.75643">
        <ele>527</ele>
        <time>2020-02-28T12:12:11Z</time>
      </trkpt>
      <trkpt lat="46.64568" lon="5.75646">
        <ele>527.4</ele>
        <time>2020-02-28T12:12:12Z</time>
      </trkpt>
      <trkpt lat="46.64569" lon="5.75648">
        <ele>527.6</ele>
        <time>2020-02-28T12:12:13Z</time>
      </trkpt>
      <trkpt lat="46.64571" lon="5.75651">
        <ele>527.8</ele>
        <time>2020-02-28T12:12:14Z</time>
      </trkpt>
      <trkpt lat="46.64573" lon="5.75653">
        <ele>527.8</ele>
        <time>2020-02-28T12:12:15Z</time>
      </trkpt>
      <trkpt lat="46.64575" lon="5.75655">
        <ele>528</ele>
        <time>2020-02-28T12:12:16Z</time>
      </trkpt>
      <trkpt lat="46.64577" lon="5.75658">
        <ele>528</ele>
        <time>2020-02-28T12:12:17Z</time>
      </trkpt>
      <trkpt lat="46.64578" lon="5.7566">
        <ele>528.4</ele>
        <time>2020-02-28T12:12:18Z</time>
      </trkpt>
      <trkpt lat="46.64578" lon="5.75664">
        <ele>528.4</ele>
        <time>2020-02-28T12:12:19Z</time>
      </trkpt>
      <trkpt lat="46.64578" lon="5.75667">
        <ele>528.8</ele>
        <time>2020-02-28T12:12:20Z</time>
      </trkpt>
      <trkpt lat="46.64578" lon="5.7567">
        <ele>529</ele>
        <time>2020-02-28T12:12:21Z</time>
      </trkpt>
      <trkpt lat="46.64576" lon="5.75673">
        <ele>529</ele>
        <time>2020-02-28T12:12:22Z</time>
      </trkpt>
      <trkpt lat="46.64575" lon="5.75676">
        <ele>529.2</ele>
        <time>2020-02-28T12:12:23Z</time>
      </trkpt>
      <trkpt lat="46.64574" lon="5.75678">
        <ele>529.4</ele>
        <time>2020-02-28T12:12:24Z</time>
      </trkpt>
      <trkpt lat="46.64573" lon="5.75681">
        <ele>529.4</ele>
        <time>2020-02-28T12:12:25Z</time>
      </trkpt>
      <trkpt lat="46.64572" lon="5.75684">
        <ele>529.8</ele>
        <time>2020-02-28T12:12:26Z</time>
      </trkpt>
      <trkpt lat="46.64572" lon="5.75687">
        <ele>529.8</ele>
        <time>2020-02-28T12:12:27Z</time>
      </trkpt>
      <trkpt lat="46.64572" lon="5.7569">
        <ele>529.8</ele>
        <time>2020-02-28T12:12:28Z</time>
      </trkpt>
      <trkpt lat="46.64572" lon="5.75693">
        <ele>529.8</ele>
        <time>2020-02-28T12:12:29Z</time>
      </trkpt>
      <trkpt lat="46.64573" lon="5.75696">
        <ele>529.8</ele>
        <time>2020-02-28T12:12:30Z</time>
      </trkpt>
      <trkpt lat="46.64574" lon="5.75699">
        <ele>530</ele>
        <time>2020-02-28T12:12:31Z</time>
      </trkpt>
      <trkpt lat="46.64575" lon="5.75702">
        <ele>530</ele>
        <time>2020-02-28T12:12:32Z</time>
      </trkpt>
      <trkpt lat="46.64576" lon="5.75706">
        <ele>530</ele>
        <time>2020-02-28T12:12:33Z</time>
      </trkpt>
      <trkpt lat="46.64577" lon="5.75709">
        <ele>530</ele>
        <time>2020-02-28T12:12:34Z</time>
      </trkpt>
      <trkpt lat="46.64578" lon="5.75713">
        <ele>530</ele>
        <time>2020-02-28T12:12:35Z</time>
      </trkpt>
      <trkpt lat="46.64579" lon="5.75716">
        <ele>530</ele>
        <time>2020-02-28T12:12:36Z</time>
      </trkpt>
      <trkpt lat="46.6458" lon="5.75719">
        <ele>530</ele>
        <time>2020-02-28T12:12:37Z</time>
      </trkpt>
      <trkpt lat="46.64581" lon="5.75723">
        <ele>530</ele>
        <time>2020-02-28T12:12:38Z</time>
      </trkpt>
      <trkpt lat="46.64582" lon="5.75727">
        <ele>530.2</ele>
        <time>2020-02-28T12:12:39Z</time>
      </trkpt>
      <trkpt lat="46.64583" lon="5.75732">
        <ele>530.2</ele>
        <time>2020-02-28T12:12:40Z</time>
      </trkpt>
      <trkpt lat="46.64585" lon="5.75736">
        <ele>530.2</ele>
        <time>2020-02-28T12:12:41Z</time>
      </trkpt>
      <trkpt lat="46.64586" lon="5.75741">
        <ele>530.2</ele>
        <time>2020-02-28T12:12:42Z</time>
      </trkpt>
      <trkpt lat="46.64588" lon="5.75746">
        <ele>530.4</ele>
        <time>2020-02-28T12:12:43Z</time>
      </trkpt>
      <trkpt lat="46.6459" lon="5.75751">
        <ele>530.4</ele>
        <time>2020-02-28T12:12:44Z</time>
      </trkpt>
      <trkpt lat="46.64592" lon="5.75755">
        <ele>530.4</ele>
        <time>2020-02-28T12:12:45Z</time>
      </trkpt>
      <trkpt lat="46.64594" lon="5.7576">
        <ele>530.6</ele>
        <time>2020-02-28T12:12:46Z</time>
      </trkpt>
      <trkpt lat="46.64596" lon="5.75764">
        <ele>530.6</ele>
        <time>2020-02-28T12:12:47Z</time>
      </trkpt>
      <trkpt lat="46.64599" lon="5.75768">
        <ele>531</ele>
        <time>2020-02-28T12:12:48Z</time>
      </trkpt>
      <trkpt lat="46.64602" lon="5.75772">
        <ele>531</ele>
        <time>2020-02-28T12:12:49Z</time>
      </trkpt>
      <trkpt lat="46.64604" lon="5.75776">
        <ele>531</ele>
        <time>2020-02-28T12:12:50Z</time>
      </trkpt>
      <trkpt lat="46.64607" lon="5.7578">
        <ele>531</ele>
        <time>2020-02-28T12:12:51Z</time>
      </trkpt>
      <trkpt lat="46.64609" lon="5.75784">
        <ele>531.2</ele>
        <time>2020-02-28T12:12:52Z</time>
      </trkpt>
      <trkpt lat="46.64612" lon="5.75788">
        <ele>531.2</ele>
        <time>2020-02-28T12:12:53Z</time>
      </trkpt>
      <trkpt lat="46.64614" lon="5.75792">
        <ele>531.2</ele>
        <time>2020-02-28T12:12:54Z</time>
      </trkpt>
      <trkpt lat="46.64617" lon="5.75795">
        <ele>531.6</ele>
        <time>2020-02-28T12:12:55Z</time>
      </trkpt>
      <trkpt lat="46.64619" lon="5.75799">
        <ele>531.6</ele>
        <time>2020-02-28T12:12:56Z</time>
      </trkpt>
      <trkpt lat="46.64622" lon="5.75803">
        <ele>531.8</ele>
        <time>2020-02-28T12:12:57Z</time>
      </trkpt>
      <trkpt lat="46.64625" lon="5.75807">
        <ele>531.8</ele>
        <time>2020-02-28T12:12:58Z</time>
      </trkpt>
      <trkpt lat="46.64627" lon="5.75811">
        <ele>531.8</ele>
        <time>2020-02-28T12:12:59Z</time>
      </trkpt>
      <trkpt lat="46.6463" lon="5.75815">
        <ele>532</ele>
        <time>2020-02-28T12:13:00Z</time>
      </trkpt>
      <trkpt lat="46.64633" lon="5.75819">
        <ele>532</ele>
        <time>2020-02-28T12:13:01Z</time>
      </trkpt>
      <trkpt lat="46.64636" lon="5.75823">
        <ele>532</ele>
        <time>2020-02-28T12:13:02Z</time>
      </trkpt>
      <trkpt lat="46.6464" lon="5.75828">
        <ele>532.2</ele>
        <time>2020-02-28T12:13:03Z</time>
      </trkpt>
      <trkpt lat="46.64643" lon="5.75833">
        <ele>532.2</ele>
        <time>2020-02-28T12:13:04Z</time>
      </trkpt>
      <trkpt lat="46.64646" lon="5.75837">
        <ele>532.2</ele>
        <time>2020-02-28T12:13:05Z</time>
      </trkpt>
      <trkpt lat="46.64648" lon="5.75842">
        <ele>532.4</ele>
        <time>2020-02-28T12:13:06Z</time>
      </trkpt>
      <trkpt lat="46.64651" lon="5.75848">
        <ele>532.4</ele>
        <time>2020-02-28T12:13:07Z</time>
      </trkpt>
      <trkpt lat="46.64654" lon="5.75853">
        <ele>532.4</ele>
        <time>2020-02-28T12:13:08Z</time>
      </trkpt>
      <trkpt lat="46.64656" lon="5.75857">
        <ele>532.4</ele>
        <time>2020-02-28T12:13:09Z</time>
      </trkpt>
      <trkpt lat="46.64658" lon="5.75863">
        <ele>532.8</ele>
        <time>2020-02-28T12:13:10Z</time>
      </trkpt>
      <trkpt lat="46.64661" lon="5.75868">
        <ele>532.8</ele>
        <time>2020-02-28T12:13:11Z</time>
      </trkpt>
      <trkpt lat="46.64664" lon="5.75873">
        <ele>532.8</ele>
        <time>2020-02-28T12:13:12Z</time>
      </trkpt>
      <trkpt lat="46.64667" lon="5.75877">
        <ele>532.8</ele>
        <time>2020-02-28T12:13:13Z</time>
      </trkpt>
      <trkpt lat="46.6467" lon="5.75881">
        <ele>532.8</ele>
        <time>2020-02-28T12:13:14Z</time>
      </trkpt>
      <trkpt lat="46.64674" lon="5.75885">
        <ele>533</ele>
        <time>2020-02-28T12:13:15Z</time>
      </trkpt>
      <trkpt lat="46.64677" lon="5.75889">
        <ele>533</ele>
        <time>2020-02-28T12:13:16Z</time>
      </trkpt>
      <trkpt lat="46.6468" lon="5.75893">
        <ele>533</ele>
        <time>2020-02-28T12:13:17Z</time>
      </trkpt>
      <trkpt lat="46.64683" lon="5.75898">
        <ele>533</ele>
        <time>2020-02-28T12:13:18Z</time>
      </trkpt>
      <trkpt lat="46.64687" lon="5.75902">
        <ele>533</ele>
        <time>2020-02-28T12:13:19Z</time>
      </trkpt>
      <trkpt lat="46.6469" lon="5.75907">
        <ele>533</ele>
        <time>2020-02-28T12:13:20Z</time>
      </trkpt>
      <trkpt lat="46.64693" lon="5.75912">
        <ele>533</ele>
        <time>2020-02-28T12:13:21Z</time>
      </trkpt>
      <trkpt lat="46.64697" lon="5.75917">
        <ele>533</ele>
        <time>2020-02-28T12:13:22Z</time>
      </trkpt>
      <trkpt lat="46.647" lon="5.75922">
        <ele>533</ele>
        <time>2020-02-28T12:13:23Z</time>
      </trkpt>
      <trkpt lat="46.64703" lon="5.75927">
        <ele>533</ele>
        <time>2020-02-28T12:13:24Z</time>
      </trkpt>
      <trkpt lat="46.64707" lon="5.75932">
        <ele>533</ele>
        <time>2020-02-28T12:13:25Z</time>
      </trkpt>
      <trkpt lat="46.6471" lon="5.75937">
        <ele>533</ele>
        <time>2020-02-28T12:13:26Z</time>
      </trkpt>
      <trkpt lat="46.64714" lon="5.75943">
        <ele>533</ele>
        <time>2020-02-28T12:13:27Z</time>
      </trkpt>
      <trkpt lat="46.64717" lon="5.75949">
        <ele>533</ele>
        <time>2020-02-28T12:13:28Z</time>
      </trkpt>
      <trkpt lat="46.6472" lon="5.75955">
        <ele>533</ele>
        <time>2020-02-28T12:13:29Z</time>
      </trkpt>
      <trkpt lat="46.64723" lon="5.75962">
        <ele>533</ele>
        <time>2020-02-28T12:13:30Z</time>
      </trkpt>
      <trkpt lat="46.64726" lon="5.75968">
        <ele>532.6</ele>
        <time>2020-02-28T12:13:31Z</time>
      </trkpt>
      <trkpt lat="46.64729" lon="5.75974">
        <ele>532.6</ele>
        <time>2020-02-28T12:13:32Z</time>
      </trkpt>
      <trkpt lat="46.64732" lon="5.75981">
        <ele>532.6</ele>
        <time>2020-02-28T12:13:33Z</time>
      </trkpt>
      <trkpt lat="46.64736" lon="5.75987">
        <ele>532.6</ele>
        <time>2020-02-28T12:13:34Z</time>
      </trkpt>
      <trkpt lat="46.64739" lon="5.75993">
        <ele>532.6</ele>
        <time>2020-02-28T12:13:35Z</time>
      </trkpt>
      <trkpt lat="46.64742" lon="5.76">
        <ele>532.6</ele>
        <time>2020-02-28T12:13:36Z</time>
      </trkpt>
      <trkpt lat="46.64744" lon="5.76006">
        <ele>532.6</ele>
        <time>2020-02-28T12:13:37Z</time>
      </trkpt>
      <trkpt lat="46.64747" lon="5.76013">
        <ele>532.6</ele>
        <time>2020-02-28T12:13:38Z</time>
      </trkpt>
      <trkpt lat="46.64749" lon="5.76019">
        <ele>532.8</ele>
        <time>2020-02-28T12:13:39Z</time>
      </trkpt>
      <trkpt lat="46.64752" lon="5.76026">
        <ele>532.8</ele>
        <time>2020-02-28T12:13:40Z</time>
      </trkpt>
      <trkpt lat="46.64754" lon="5.76033">
        <ele>532.8</ele>
        <time>2020-02-28T12:13:41Z</time>
      </trkpt>
      <trkpt lat="46.64757" lon="5.7604">
        <ele>532.8</ele>
        <time>2020-02-28T12:13:42Z</time>
      </trkpt>
      <trkpt lat="46.64759" lon="5.76047">
        <ele>532.8</ele>
        <time>2020-02-28T12:13:43Z</time>
      </trkpt>
      <trkpt lat="46.64762" lon="5.76054">
        <ele>532.8</ele>
        <time>2020-02-28T12:13:44Z</time>
      </trkpt>
      <trkpt lat="46.64764" lon="5.7606">
        <ele>532.8</ele>
        <time>2020-02-28T12:13:45Z</time>
      </trkpt>
      <trkpt lat="46.64767" lon="5.76067">
        <ele>533.2</ele>
        <time>2020-02-28T12:13:46Z</time>
      </trkpt>
      <trkpt lat="46.64769" lon="5.76074">
        <ele>533.2</ele>
        <time>2020-02-28T12:13:47Z</time>
      </trkpt>
      <trkpt lat="46.64771" lon="5.76081">
        <ele>533.2</ele>
        <time>2020-02-28T12:13:48Z</time>
      </trkpt>
      <trkpt lat="46.64773" lon="5.76088">
        <ele>533.2</ele>
        <time>2020-02-28T12:13:49Z</time>
      </trkpt>
      <trkpt lat="46.64774" lon="5.76095">
        <ele>533.2</ele>
        <time>2020-02-28T12:13:50Z</time>
      </trkpt>
      <trkpt lat="46.64776" lon="5.76102">
        <ele>533.4</ele>
        <time>2020-02-28T12:13:51Z</time>
      </trkpt>
      <trkpt lat="46.64776" lon="5.76109">
        <ele>533.4</ele>
        <time>2020-02-28T12:13:52Z</time>
      </trkpt>
      <trkpt lat="46.64776" lon="5.76115">
        <ele>533.6</ele>
        <time>2020-02-28T12:13:53Z</time>
      </trkpt>
      <trkpt lat="46.64776" lon="5.76122">
        <ele>533.6</ele>
        <time>2020-02-28T12:13:54Z</time>
      </trkpt>
      <trkpt lat="46.64776" lon="5.76129">
        <ele>533.8</ele>
        <time>2020-02-28T12:13:55Z</time>
      </trkpt>
      <trkpt lat="46.64776" lon="5.76136">
        <ele>533.8</ele>
        <time>2020-02-28T12:13:56Z</time>
      </trkpt>
      <trkpt lat="46.64775" lon="5.76142">
        <ele>533.8</ele>
        <time>2020-02-28T12:13:57Z</time>
      </trkpt>
      <trkpt lat="46.64775" lon="5.76147">
        <ele>534.2</ele>
        <time>2020-02-28T12:13:58Z</time>
      </trkpt>
      <trkpt lat="46.64774" lon="5.76153">
        <ele>534.2</ele>
        <time>2020-02-28T12:13:59Z</time>
      </trkpt>
      <trkpt lat="46.64773" lon="5.76158">
        <ele>534.4</ele>
        <time>2020-02-28T12:14:00Z</time>
      </trkpt>
      <trkpt lat="46.64772" lon="5.76163">
        <ele>534.4</ele>
        <time>2020-02-28T12:14:01Z</time>
      </trkpt>
      <trkpt lat="46.64771" lon="5.76168">
        <ele>534.6</ele>
        <time>2020-02-28T12:14:02Z</time>
      </trkpt>
      <trkpt lat="46.64769" lon="5.76173">
        <ele>534.6</ele>
        <time>2020-02-28T12:14:03Z</time>
      </trkpt>
      <trkpt lat="46.64768" lon="5.76178">
        <ele>534.6</ele>
        <time>2020-02-28T12:14:04Z</time>
      </trkpt>
      <trkpt lat="46.64768" lon="5.76183">
        <ele>534.8</ele>
        <time>2020-02-28T12:14:05Z</time>
      </trkpt>
      <trkpt lat="46.64767" lon="5.76189">
        <ele>534.8</ele>
        <time>2020-02-28T12:14:06Z</time>
      </trkpt>
      <trkpt lat="46.64766" lon="5.76195">
        <ele>534.8</ele>
        <time>2020-02-28T12:14:07Z</time>
      </trkpt>
      <trkpt lat="46.64765" lon="5.762">
        <ele>534.8</ele>
        <time>2020-02-28T12:14:08Z</time>
      </trkpt>
      <trkpt lat="46.64764" lon="5.76206">
        <ele>534.8</ele>
        <time>2020-02-28T12:14:09Z</time>
      </trkpt>
      <trkpt lat="46.64763" lon="5.76212">
        <ele>534.8</ele>
        <time>2020-02-28T12:14:10Z</time>
      </trkpt>
      <trkpt lat="46.64762" lon="5.76218">
        <ele>534.8</ele>
        <time>2020-02-28T12:14:11Z</time>
      </trkpt>
      <trkpt lat="46.64761" lon="5.76224">
        <ele>534.8</ele>
        <time>2020-02-28T12:14:12Z</time>
      </trkpt>
      <trkpt lat="46.6476" lon="5.7623">
        <ele>535</ele>
        <time>2020-02-28T12:14:13Z</time>
      </trkpt>
      <trkpt lat="46.64759" lon="5.76236">
        <ele>535</ele>
        <time>2020-02-28T12:14:14Z</time>
      </trkpt>
      <trkpt lat="46.64758" lon="5.76243">
        <ele>535</ele>
        <time>2020-02-28T12:14:15Z</time>
      </trkpt>
      <trkpt lat="46.64756" lon="5.76249">
        <ele>535.4</ele>
        <time>2020-02-28T12:14:16Z</time>
      </trkpt>
      <trkpt lat="46.64755" lon="5.76255">
        <ele>535.4</ele>
        <time>2020-02-28T12:14:17Z</time>
      </trkpt>
      <trkpt lat="46.64754" lon="5.76261">
        <ele>535.6</ele>
        <time>2020-02-28T12:14:18Z</time>
      </trkpt>
      <trkpt lat="46.64753" lon="5.76267">
        <ele>535.6</ele>
        <time>2020-02-28T12:14:19Z</time>
      </trkpt>
      <trkpt lat="46.64752" lon="5.76274">
        <ele>535.8</ele>
        <time>2020-02-28T12:14:20Z</time>
      </trkpt>
      <trkpt lat="46.64751" lon="5.7628">
        <ele>535.8</ele>
        <time>2020-02-28T12:14:21Z</time>
      </trkpt>
      <trkpt lat="46.64749" lon="5.76287">
        <ele>536</ele>
        <time>2020-02-28T12:14:22Z</time>
      </trkpt>
      <trkpt lat="46.64748" lon="5.76293">
        <ele>536</ele>
        <time>2020-02-28T12:14:23Z</time>
      </trkpt>
      <trkpt lat="46.64747" lon="5.763">
        <ele>536</ele>
        <time>2020-02-28T12:14:24Z</time>
      </trkpt>
      <trkpt lat="46.64745" lon="5.76307">
        <ele>536.4</ele>
        <time>2020-02-28T12:14:25Z</time>
      </trkpt>
      <trkpt lat="46.64744" lon="5.76313">
        <ele>536.4</ele>
        <time>2020-02-28T12:14:26Z</time>
      </trkpt>
      <trkpt lat="46.64743" lon="5.7632">
        <ele>536.6</ele>
        <time>2020-02-28T12:14:27Z</time>
      </trkpt>
      <trkpt lat="46.64741" lon="5.76327">
        <ele>536.6</ele>
        <time>2020-02-28T12:14:28Z</time>
      </trkpt>
      <trkpt lat="46.6474" lon="5.76333">
        <ele>536.6</ele>
        <time>2020-02-28T12:14:29Z</time>
      </trkpt>
      <trkpt lat="46.64738" lon="5.76339">
        <ele>536.6</ele>
        <time>2020-02-28T12:14:30Z</time>
      </trkpt>
      <trkpt lat="46.64737" lon="5.76346">
        <ele>536.8</ele>
        <time>2020-02-28T12:14:31Z</time>
      </trkpt>
      <trkpt lat="46.64736" lon="5.76352">
        <ele>536.8</ele>
        <time>2020-02-28T12:14:32Z</time>
      </trkpt>
      <trkpt lat="46.64734" lon="5.76358">
        <ele>537</ele>
        <time>2020-02-28T12:14:33Z</time>
      </trkpt>
      <trkpt lat="46.64733" lon="5.76364">
        <ele>537</ele>
        <time>2020-02-28T12:14:34Z</time>
      </trkpt>
      <trkpt lat="46.64732" lon="5.76371">
        <ele>537.4</ele>
        <time>2020-02-28T12:14:35Z</time>
      </trkpt>
      <trkpt lat="46.64731" lon="5.76377">
        <ele>537.6</ele>
        <time>2020-02-28T12:14:36Z</time>
      </trkpt>
      <trkpt lat="46.6473" lon="5.76383">
        <ele>537.6</ele>
        <time>2020-02-28T12:14:37Z</time>
      </trkpt>
      <trkpt lat="46.64729" lon="5.7639">
        <ele>537.8</ele>
        <time>2020-02-28T12:14:38Z</time>
      </trkpt>
      <trkpt lat="46.64727" lon="5.76396">
        <ele>537.8</ele>
        <time>2020-02-28T12:14:39Z</time>
      </trkpt>
      <trkpt lat="46.64726" lon="5.76402">
        <ele>538.2</ele>
        <time>2020-02-28T12:14:40Z</time>
      </trkpt>
      <trkpt lat="46.64725" lon="5.76409">
        <ele>538.2</ele>
        <time>2020-02-28T12:14:41Z</time>
      </trkpt>
      <trkpt lat="46.64724" lon="5.76415">
        <ele>538.2</ele>
        <time>2020-02-28T12:14:42Z</time>
      </trkpt>
      <trkpt lat="46.64724" lon="5.76422">
        <ele>538.4</ele>
        <time>2020-02-28T12:14:43Z</time>
      </trkpt>
      <trkpt lat="46.64723" lon="5.76428">
        <ele>538.4</ele>
        <time>2020-02-28T12:14:44Z</time>
      </trkpt>
      <trkpt lat="46.64723" lon="5.76434">
        <ele>538.8</ele>
        <time>2020-02-28T12:14:45Z</time>
      </trkpt>
      <trkpt lat="46.64723" lon="5.7644">
        <ele>538.8</ele>
        <time>2020-02-28T12:14:46Z</time>
      </trkpt>
      <trkpt lat="46.64722" lon="5.76446">
        <ele>539</ele>
        <time>2020-02-28T12:14:47Z</time>
      </trkpt>
      <trkpt lat="46.64722" lon="5.76453">
        <ele>539</ele>
        <time>2020-02-28T12:14:48Z</time>
      </trkpt>
      <trkpt lat="46.64722" lon="5.76459">
        <ele>539</ele>
        <time>2020-02-28T12:14:49Z</time>
      </trkpt>
      <trkpt lat="46.64722" lon="5.76466">
        <ele>539.2</ele>
        <time>2020-02-28T12:14:50Z</time>
      </trkpt>
      <trkpt lat="46.64722" lon="5.76472">
        <ele>539.2</ele>
        <time>2020-02-28T12:14:51Z</time>
      </trkpt>
      <trkpt lat="46.64722" lon="5.76479">
        <ele>539.6</ele>
        <time>2020-02-28T12:14:52Z</time>
      </trkpt>
      <trkpt lat="46.64722" lon="5.76485">
        <ele>539.6</ele>
        <time>2020-02-28T12:14:53Z</time>
      </trkpt>
      <trkpt lat="46.64722" lon="5.76491">
        <ele>539.8</ele>
        <time>2020-02-28T12:14:54Z</time>
      </trkpt>
      <trkpt lat="46.64722" lon="5.76498">
        <ele>539.8</ele>
        <time>2020-02-28T12:14:55Z</time>
      </trkpt>
      <trkpt lat="46.64722" lon="5.76505">
        <ele>540.2</ele>
        <time>2020-02-28T12:14:56Z</time>
      </trkpt>
      <trkpt lat="46.64722" lon="5.76511">
        <ele>540.2</ele>
        <time>2020-02-28T12:14:57Z</time>
      </trkpt>
      <trkpt lat="46.64722" lon="5.76517">
        <ele>540.6</ele>
        <time>2020-02-28T12:14:58Z</time>
      </trkpt>
      <trkpt lat="46.64723" lon="5.76524">
        <ele>540.8</ele>
        <time>2020-02-28T12:14:59Z</time>
      </trkpt>
      <trkpt lat="46.64723" lon="5.7653">
        <ele>540.8</ele>
        <time>2020-02-28T12:15:00Z</time>
      </trkpt>
      <trkpt lat="46.64724" lon="5.76536">
        <ele>541</ele>
        <time>2020-02-28T12:15:01Z</time>
      </trkpt>
      <trkpt lat="46.64724" lon="5.76542">
        <ele>541</ele>
        <time>2020-02-28T12:15:02Z</time>
      </trkpt>
      <trkpt lat="46.64725" lon="5.76549">
        <ele>541.4</ele>
        <time>2020-02-28T12:15:03Z</time>
      </trkpt>
      <trkpt lat="46.64726" lon="5.76555">
        <ele>541.4</ele>
        <time>2020-02-28T12:15:04Z</time>
      </trkpt>
      <trkpt lat="46.64726" lon="5.76561">
        <ele>541.4</ele>
        <time>2020-02-28T12:15:05Z</time>
      </trkpt>
      <trkpt lat="46.64727" lon="5.76567">
        <ele>541.4</ele>
        <time>2020-02-28T12:15:06Z</time>
      </trkpt>
      <trkpt lat="46.64727" lon="5.76573">
        <ele>541.6</ele>
        <time>2020-02-28T12:15:07Z</time>
      </trkpt>
      <trkpt lat="46.64728" lon="5.76578">
        <ele>541.6</ele>
        <time>2020-02-28T12:15:08Z</time>
      </trkpt>
      <trkpt lat="46.64729" lon="5.76584">
        <ele>541.8</ele>
        <time>2020-02-28T12:15:09Z</time>
      </trkpt>
      <trkpt lat="46.6473" lon="5.76589">
        <ele>541.8</ele>
        <time>2020-02-28T12:15:10Z</time>
      </trkpt>
      <trkpt lat="46.64731" lon="5.76595">
        <ele>541.8</ele>
        <time>2020-02-28T12:15:11Z</time>
      </trkpt>
      <trkpt lat="46.64732" lon="5.76601">
        <ele>542</ele>
        <time>2020-02-28T12:15:12Z</time>
      </trkpt>
      <trkpt lat="46.64733" lon="5.76606">
        <ele>542</ele>
        <time>2020-02-28T12:15:13Z</time>
      </trkpt>
      <trkpt lat="46.64734" lon="5.76612">
        <ele>542</ele>
        <time>2020-02-28T12:15:14Z</time>
      </trkpt>
      <trkpt lat="46.64736" lon="5.76617">
        <ele>542</ele>
        <time>2020-02-28T12:15:15Z</time>
      </trkpt>
      <trkpt lat="46.64737" lon="5.76623">
        <ele>542</ele>
        <time>2020-02-28T12:15:16Z</time>
      </trkpt>
      <trkpt lat="46.64739" lon="5.76629">
        <ele>542</ele>
        <time>2020-02-28T12:15:17Z</time>
      </trkpt>
      <trkpt lat="46.6474" lon="5.76635">
        <ele>542</ele>
        <time>2020-02-28T12:15:18Z</time>
      </trkpt>
      <trkpt lat="46.64742" lon="5.76641">
        <ele>542</ele>
        <time>2020-02-28T12:15:19Z</time>
      </trkpt>
      <trkpt lat="46.64744" lon="5.76647">
        <ele>542.4</ele>
        <time>2020-02-28T12:15:20Z</time>
      </trkpt>
      <trkpt lat="46.64745" lon="5.76652">
        <ele>542.4</ele>
        <time>2020-02-28T12:15:21Z</time>
      </trkpt>
      <trkpt lat="46.64747" lon="5.76658">
        <ele>542.4</ele>
        <time>2020-02-28T12:15:22Z</time>
      </trkpt>
      <trkpt lat="46.64749" lon="5.76664">
        <ele>542.6</ele>
        <time>2020-02-28T12:15:23Z</time>
      </trkpt>
      <trkpt lat="46.64751" lon="5.76669">
        <ele>542.6</ele>
        <time>2020-02-28T12:15:24Z</time>
      </trkpt>
      <trkpt lat="46.64753" lon="5.76675">
        <ele>542.6</ele>
        <time>2020-02-28T12:15:25Z</time>
      </trkpt>
      <trkpt lat="46.64755" lon="5.76681">
        <ele>542.6</ele>
        <time>2020-02-28T12:15:26Z</time>
      </trkpt>
      <trkpt lat="46.64757" lon="5.76686">
        <ele>542.6</ele>
        <time>2020-02-28T12:15:27Z</time>
      </trkpt>
      <trkpt lat="46.6476" lon="5.76692">
        <ele>542.6</ele>
        <time>2020-02-28T12:15:28Z</time>
      </trkpt>
      <trkpt lat="46.64762" lon="5.76698">
        <ele>542.8</ele>
        <time>2020-02-28T12:15:29Z</time>
      </trkpt>
      <trkpt lat="46.64764" lon="5.76704">
        <ele>542.8</ele>
        <time>2020-02-28T12:15:30Z</time>
      </trkpt>
      <trkpt lat="46.64766" lon="5.7671">
        <ele>542.8</ele>
        <time>2020-02-28T12:15:31Z</time>
      </trkpt>
      <trkpt lat="46.64768" lon="5.76716">
        <ele>542.8</ele>
        <time>2020-02-28T12:15:32Z</time>
      </trkpt>
      <trkpt lat="46.64771" lon="5.76722">
        <ele>543</ele>
        <time>2020-02-28T12:15:33Z</time>
      </trkpt>
      <trkpt lat="46.64773" lon="5.76728">
        <ele>543</ele>
        <time>2020-02-28T12:15:34Z</time>
      </trkpt>
      <trkpt lat="46.64775" lon="5.76734">
        <ele>543</ele>
        <time>2020-02-28T12:15:35Z</time>
      </trkpt>
      <trkpt lat="46.64777" lon="5.7674">
        <ele>543</ele>
        <time>2020-02-28T12:15:36Z</time>
      </trkpt>
      <trkpt lat="46.64779" lon="5.76746">
        <ele>543</ele>
        <time>2020-02-28T12:15:37Z</time>
      </trkpt>
      <trkpt lat="46.64781" lon="5.76752">
        <ele>543.2</ele>
        <time>2020-02-28T12:15:38Z</time>
      </trkpt>
      <trkpt lat="46.64783" lon="5.76758">
        <ele>543.2</ele>
        <time>2020-02-28T12:15:39Z</time>
      </trkpt>
      <trkpt lat="46.64784" lon="5.76765">
        <ele>543.2</ele>
        <time>2020-02-28T12:15:40Z</time>
      </trkpt>
      <trkpt lat="46.64785" lon="5.76771">
        <ele>543.2</ele>
        <time>2020-02-28T12:15:41Z</time>
      </trkpt>
      <trkpt lat="46.64787" lon="5.76777">
        <ele>543.2</ele>
        <time>2020-02-28T12:15:42Z</time>
      </trkpt>
      <trkpt lat="46.64788" lon="5.76784">
        <ele>543.2</ele>
        <time>2020-02-28T12:15:43Z</time>
      </trkpt>
      <trkpt lat="46.64789" lon="5.7679">
        <ele>543.2</ele>
        <time>2020-02-28T12:15:44Z</time>
      </trkpt>
      <trkpt lat="46.6479" lon="5.76796">
        <ele>543</ele>
        <time>2020-02-28T12:15:45Z</time>
      </trkpt>
      <trkpt lat="46.64791" lon="5.76803">
        <ele>543</ele>
        <time>2020-02-28T12:15:46Z</time>
      </trkpt>
      <trkpt lat="46.64792" lon="5.76809">
        <ele>543</ele>
        <time>2020-02-28T12:15:47Z</time>
      </trkpt>
      <trkpt lat="46.64793" lon="5.76816">
        <ele>543</ele>
        <time>2020-02-28T12:15:48Z</time>
      </trkpt>
      <trkpt lat="46.64793" lon="5.76822">
        <ele>542.8</ele>
        <time>2020-02-28T12:15:49Z</time>
      </trkpt>
      <trkpt lat="46.64794" lon="5.76829">
        <ele>542.8</ele>
        <time>2020-02-28T12:15:50Z</time>
      </trkpt>
      <trkpt lat="46.64794" lon="5.76835">
        <ele>542.8</ele>
        <time>2020-02-28T12:15:51Z</time>
      </trkpt>
      <trkpt lat="46.64794" lon="5.76842">
        <ele>542.8</ele>
        <time>2020-02-28T12:15:52Z</time>
      </trkpt>
      <trkpt lat="46.64794" lon="5.76849">
        <ele>542.8</ele>
        <time>2020-02-28T12:15:53Z</time>
      </trkpt>
      <trkpt lat="46.64795" lon="5.76857">
        <ele>542.8</ele>
        <time>2020-02-28T12:15:54Z</time>
      </trkpt>
      <trkpt lat="46.64795" lon="5.76864">
        <ele>542.6</ele>
        <time>2020-02-28T12:15:55Z</time>
      </trkpt>
      <trkpt lat="46.64796" lon="5.76873">
        <ele>542.6</ele>
        <time>2020-02-28T12:15:56Z</time>
      </trkpt>
      <trkpt lat="46.64796" lon="5.76881">
        <ele>542.2</ele>
        <time>2020-02-28T12:15:57Z</time>
      </trkpt>
      <trkpt lat="46.64797" lon="5.7689">
        <ele>542</ele>
        <time>2020-02-28T12:15:58Z</time>
      </trkpt>
      <trkpt lat="46.64798" lon="5.76899">
        <ele>541.8</ele>
        <time>2020-02-28T12:15:59Z</time>
      </trkpt>
      <trkpt lat="46.64799" lon="5.76909">
        <ele>541.4</ele>
        <time>2020-02-28T12:16:00Z</time>
      </trkpt>
      <trkpt lat="46.64801" lon="5.76917">
        <ele>541</ele>
        <time>2020-02-28T12:16:01Z</time>
      </trkpt>
      <trkpt lat="46.64803" lon="5.76926">
        <ele>540.6</ele>
        <time>2020-02-28T12:16:02Z</time>
      </trkpt>
      <trkpt lat="46.64807" lon="5.76935">
        <ele>540.4</ele>
        <time>2020-02-28T12:16:03Z</time>
      </trkpt>
      <trkpt lat="46.64811" lon="5.76943">
        <ele>540</ele>
        <time>2020-02-28T12:16:04Z</time>
      </trkpt>
      <trkpt lat="46.64815" lon="5.76951">
        <ele>539.8</ele>
        <time>2020-02-28T12:16:05Z</time>
      </trkpt>
      <trkpt lat="46.64819" lon="5.7696">
        <ele>539.4</ele>
        <time>2020-02-28T12:16:06Z</time>
      </trkpt>
      <trkpt lat="46.64824" lon="5.76968">
        <ele>539.2</ele>
        <time>2020-02-28T12:16:07Z</time>
      </trkpt>
      <trkpt lat="46.6483" lon="5.76977">
        <ele>538.8</ele>
        <time>2020-02-28T12:16:08Z</time>
      </trkpt>
      <trkpt lat="46.64835" lon="5.76986">
        <ele>538.4</ele>
        <time>2020-02-28T12:16:09Z</time>
      </trkpt>
      <trkpt lat="46.64841" lon="5.76995">
        <ele>537.8</ele>
        <time>2020-02-28T12:16:10Z</time>
      </trkpt>
      <trkpt lat="46.64847" lon="5.77003">
        <ele>537.4</ele>
        <time>2020-02-28T12:16:11Z</time>
      </trkpt>
      <trkpt lat="46.64853" lon="5.77013">
        <ele>537</ele>
        <time>2020-02-28T12:16:12Z</time>
      </trkpt>
      <trkpt lat="46.64859" lon="5.77022">
        <ele>536.6</ele>
        <time>2020-02-28T12:16:13Z</time>
      </trkpt>
      <trkpt lat="46.64865" lon="5.77032">
        <ele>536</ele>
        <time>2020-02-28T12:16:14Z</time>
      </trkpt>
      <trkpt lat="46.64871" lon="5.77042">
        <ele>535.6</ele>
        <time>2020-02-28T12:16:15Z</time>
      </trkpt>
      <trkpt lat="46.64876" lon="5.77053">
        <ele>535.2</ele>
        <time>2020-02-28T12:16:16Z</time>
      </trkpt>
      <trkpt lat="46.64879" lon="5.77065">
        <ele>534.6</ele>
        <time>2020-02-28T12:16:17Z</time>
      </trkpt>
      <trkpt lat="46.6488" lon="5.77079">
        <ele>534.2</ele>
        <time>2020-02-28T12:16:18Z</time>
      </trkpt>
      <trkpt lat="46.6488" lon="5.77094">
        <ele>533.6</ele>
        <time>2020-02-28T12:16:19Z</time>
      </trkpt>
      <trkpt lat="46.64878" lon="5.77108">
        <ele>533</ele>
        <time>2020-02-28T12:16:20Z</time>
      </trkpt>
      <trkpt lat="46.64875" lon="5.77122">
        <ele>532.6</ele>
        <time>2020-02-28T12:16:21Z</time>
      </trkpt>
      <trkpt lat="46.64873" lon="5.77134">
        <ele>532</ele>
        <time>2020-02-28T12:16:22Z</time>
      </trkpt>
      <trkpt lat="46.64869" lon="5.77147">
        <ele>531.6</ele>
        <time>2020-02-28T12:16:23Z</time>
      </trkpt>
      <trkpt lat="46.64864" lon="5.7716">
        <ele>531.2</ele>
        <time>2020-02-28T12:16:24Z</time>
      </trkpt>
      <trkpt lat="46.64859" lon="5.77174">
        <ele>530.8</ele>
        <time>2020-02-28T12:16:25Z</time>
      </trkpt>
      <trkpt lat="46.64854" lon="5.77187">
        <ele>530.4</ele>
        <time>2020-02-28T12:16:26Z</time>
      </trkpt>
      <trkpt lat="46.64849" lon="5.772">
        <ele>530</ele>
        <time>2020-02-28T12:16:27Z</time>
      </trkpt>
      <trkpt lat="46.64844" lon="5.77215">
        <ele>529.6</ele>
        <time>2020-02-28T12:16:28Z</time>
      </trkpt>
      <trkpt lat="46.64838" lon="5.77229">
        <ele>529</ele>
        <time>2020-02-28T12:16:29Z</time>
      </trkpt>
      <trkpt lat="46.64833" lon="5.77243">
        <ele>528.6</ele>
        <time>2020-02-28T12:16:30Z</time>
      </trkpt>
      <trkpt lat="46.64828" lon="5.77257">
        <ele>528</ele>
        <time>2020-02-28T12:16:31Z</time>
      </trkpt>
      <trkpt lat="46.64823" lon="5.77271">
        <ele>527.4</ele>
        <time>2020-02-28T12:16:32Z</time>
      </trkpt>
      <trkpt lat="46.64817" lon="5.77285">
        <ele>526.8</ele>
        <time>2020-02-28T12:16:33Z</time>
      </trkpt>
      <trkpt lat="46.64812" lon="5.77299">
        <ele>526.2</ele>
        <time>2020-02-28T12:16:34Z</time>
      </trkpt>
      <trkpt lat="46.64807" lon="5.77312">
        <ele>525.6</ele>
        <time>2020-02-28T12:16:35Z</time>
      </trkpt>
      <trkpt lat="46.64802" lon="5.77326">
        <ele>525</ele>
        <time>2020-02-28T12:16:36Z</time>
      </trkpt>
      <trkpt lat="46.64796" lon="5.7734">
        <ele>524.4</ele>
        <time>2020-02-28T12:16:37Z</time>
      </trkpt>
      <trkpt lat="46.64791" lon="5.77354">
        <ele>524</ele>
        <time>2020-02-28T12:16:38Z</time>
      </trkpt>
      <trkpt lat="46.64786" lon="5.77367">
        <ele>523.4</ele>
        <time>2020-02-28T12:16:39Z</time>
      </trkpt>
      <trkpt lat="46.64781" lon="5.77381">
        <ele>523</ele>
        <time>2020-02-28T12:16:40Z</time>
      </trkpt>
      <trkpt lat="46.64776" lon="5.77394">
        <ele>522.4</ele>
        <time>2020-02-28T12:16:41Z</time>
      </trkpt>
      <trkpt lat="46.64771" lon="5.77407">
        <ele>521.8</ele>
        <time>2020-02-28T12:16:42Z</time>
      </trkpt>
      <trkpt lat="46.64767" lon="5.7742">
        <ele>521.2</ele>
        <time>2020-02-28T12:16:43Z</time>
      </trkpt>
      <trkpt lat="46.64762" lon="5.77431">
        <ele>520.6</ele>
        <time>2020-02-28T12:16:44Z</time>
      </trkpt>
      <trkpt lat="46.64758" lon="5.77443">
        <ele>520.2</ele>
        <time>2020-02-28T12:16:45Z</time>
      </trkpt>
      <trkpt lat="46.64755" lon="5.77453">
        <ele>519.6</ele>
        <time>2020-02-28T12:16:46Z</time>
      </trkpt>
      <trkpt lat="46.64752" lon="5.77464">
        <ele>519.2</ele>
        <time>2020-02-28T12:16:47Z</time>
      </trkpt>
      <trkpt lat="46.64751" lon="5.77476">
        <ele>518.6</ele>
        <time>2020-02-28T12:16:48Z</time>
      </trkpt>
      <trkpt lat="46.64752" lon="5.77488">
        <ele>518.2</ele>
        <time>2020-02-28T12:16:49Z</time>
      </trkpt>
      <trkpt lat="46.64754" lon="5.77499">
        <ele>517.6</ele>
        <time>2020-02-28T12:16:50Z</time>
      </trkpt>
      <trkpt lat="46.6476" lon="5.77512">
        <ele>517.2</ele>
        <time>2020-02-28T12:16:51Z</time>
      </trkpt>
      <trkpt lat="46.64764" lon="5.77522">
        <ele>516.8</ele>
        <time>2020-02-28T12:16:52Z</time>
      </trkpt>
      <trkpt lat="46.6477" lon="5.7753">
        <ele>516.2</ele>
        <time>2020-02-28T12:16:53Z</time>
      </trkpt>
      <trkpt lat="46.64778" lon="5.77534">
        <ele>515.8</ele>
        <time>2020-02-28T12:16:54Z</time>
      </trkpt>
      <trkpt lat="46.64787" lon="5.77537">
        <ele>515.4</ele>
        <time>2020-02-28T12:16:55Z</time>
      </trkpt>
      <trkpt lat="46.64795" lon="5.77538">
        <ele>515.2</ele>
        <time>2020-02-28T12:16:56Z</time>
      </trkpt>
      <trkpt lat="46.64804" lon="5.77538">
        <ele>515.2</ele>
        <time>2020-02-28T12:16:57Z</time>
      </trkpt>
      <trkpt lat="46.64812" lon="5.77536">
        <ele>515.2</ele>
        <time>2020-02-28T12:16:58Z</time>
      </trkpt>
      <trkpt lat="46.6482" lon="5.77533">
        <ele>515.2</ele>
        <time>2020-02-28T12:16:59Z</time>
      </trkpt>
      <trkpt lat="46.64828" lon="5.77532">
        <ele>515.2</ele>
        <time>2020-02-28T12:17:00Z</time>
      </trkpt>
      <trkpt lat="46.64836" lon="5.7753">
        <ele>515.2</ele>
        <time>2020-02-28T12:17:01Z</time>
      </trkpt>
      <trkpt lat="46.64843" lon="5.77529">
        <ele>515.2</ele>
        <time>2020-02-28T12:17:02Z</time>
      </trkpt>
      <trkpt lat="46.6485" lon="5.77527">
        <ele>515.2</ele>
        <time>2020-02-28T12:17:03Z</time>
      </trkpt>
      <trkpt lat="46.64857" lon="5.77525">
        <ele>515.2</ele>
        <time>2020-02-28T12:17:04Z</time>
      </trkpt>
      <trkpt lat="46.64864" lon="5.77524">
        <ele>515.4</ele>
        <time>2020-02-28T12:17:05Z</time>
      </trkpt>
      <trkpt lat="46.6487" lon="5.77523">
        <ele>515.4</ele>
        <time>2020-02-28T12:17:06Z</time>
      </trkpt>
      <trkpt lat="46.64876" lon="5.77522">
        <ele>515.8</ele>
        <time>2020-02-28T12:17:07Z</time>
      </trkpt>
      <trkpt lat="46.64882" lon="5.7752">
        <ele>515.8</ele>
        <time>2020-02-28T12:17:08Z</time>
      </trkpt>
      <trkpt lat="46.64887" lon="5.77519">
        <ele>516.2</ele>
        <time>2020-02-28T12:17:09Z</time>
      </trkpt>
      <trkpt lat="46.64892" lon="5.77518">
        <ele>516.2</ele>
        <time>2020-02-28T12:17:10Z</time>
      </trkpt>
      <trkpt lat="46.64897" lon="5.77517">
        <ele>516.6</ele>
        <time>2020-02-28T12:17:11Z</time>
      </trkpt>
      <trkpt lat="46.64901" lon="5.77516">
        <ele>516.8</ele>
        <time>2020-02-28T12:17:12Z</time>
      </trkpt>
      <trkpt lat="46.64906" lon="5.77515">
        <ele>516.8</ele>
        <time>2020-02-28T12:17:13Z</time>
      </trkpt>
      <trkpt lat="46.6491" lon="5.77514">
        <ele>517.2</ele>
        <time>2020-02-28T12:17:14Z</time>
      </trkpt>
      <trkpt lat="46.64914" lon="5.77513">
        <ele>517.2</ele>
        <time>2020-02-28T12:17:15Z</time>
      </trkpt>
      <trkpt lat="46.64918" lon="5.77512">
        <ele>517.4</ele>
        <time>2020-02-28T12:17:16Z</time>
      </trkpt>
      <trkpt lat="46.64922" lon="5.77512">
        <ele>517.4</ele>
        <time>2020-02-28T12:17:17Z</time>
      </trkpt>
      <trkpt lat="46.64926" lon="5.77511">
        <ele>517.8</ele>
        <time>2020-02-28T12:17:18Z</time>
      </trkpt>
      <trkpt lat="46.64929" lon="5.7751">
        <ele>517.8</ele>
        <time>2020-02-28T12:17:19Z</time>
      </trkpt>
      <trkpt lat="46.64933" lon="5.77508">
        <ele>518.2</ele>
        <time>2020-02-28T12:17:20Z</time>
      </trkpt>
      <trkpt lat="46.64937" lon="5.77507">
        <ele>518.2</ele>
        <time>2020-02-28T12:17:21Z</time>
      </trkpt>
      <trkpt lat="46.64941" lon="5.77507">
        <ele>518.6</ele>
        <time>2020-02-28T12:17:22Z</time>
      </trkpt>
      <trkpt lat="46.64945" lon="5.77506">
        <ele>518.6</ele>
        <time>2020-02-28T12:17:23Z</time>
      </trkpt>
      <trkpt lat="46.64949" lon="5.77505">
        <ele>519</ele>
        <time>2020-02-28T12:17:24Z</time>
      </trkpt>
      <trkpt lat="46.64952" lon="5.77504">
        <ele>519.2</ele>
        <time>2020-02-28T12:17:25Z</time>
      </trkpt>
      <trkpt lat="46.64956" lon="5.77503">
        <ele>519.2</ele>
        <time>2020-02-28T12:17:26Z</time>
      </trkpt>
      <trkpt lat="46.64959" lon="5.77502">
        <ele>519.4</ele>
        <time>2020-02-28T12:17:27Z</time>
      </trkpt>
      <trkpt lat="46.64963" lon="5.77501">
        <ele>519.4</ele>
        <time>2020-02-28T12:17:28Z</time>
      </trkpt>
      <trkpt lat="46.64966" lon="5.775">
        <ele>519.6</ele>
        <time>2020-02-28T12:17:29Z</time>
      </trkpt>
      <trkpt lat="46.6497" lon="5.77499">
        <ele>519.6</ele>
        <time>2020-02-28T12:17:30Z</time>
      </trkpt>
      <trkpt lat="46.64973" lon="5.77499">
        <ele>520</ele>
        <time>2020-02-28T12:17:31Z</time>
      </trkpt>
      <trkpt lat="46.64976" lon="5.77498">
        <ele>520</ele>
        <time>2020-02-28T12:17:32Z</time>
      </trkpt>
      <trkpt lat="46.6498" lon="5.77497">
        <ele>520.4</ele>
        <time>2020-02-28T12:17:33Z</time>
      </trkpt>
      <trkpt lat="46.64983" lon="5.77496">
        <ele>520.4</ele>
        <time>2020-02-28T12:17:34Z</time>
      </trkpt>
      <trkpt lat="46.64986" lon="5.77495">
        <ele>520.6</ele>
        <time>2020-02-28T12:17:35Z</time>
      </trkpt>
      <trkpt lat="46.6499" lon="5.77495">
        <ele>520.6</ele>
        <time>2020-02-28T12:17:36Z</time>
      </trkpt>
      <trkpt lat="46.64993" lon="5.77494">
        <ele>520.6</ele>
        <time>2020-02-28T12:17:37Z</time>
      </trkpt>
      <trkpt lat="46.64996" lon="5.77494">
        <ele>520.8</ele>
        <time>2020-02-28T12:17:38Z</time>
      </trkpt>
      <trkpt lat="46.64999" lon="5.77493">
        <ele>520.8</ele>
        <time>2020-02-28T12:17:39Z</time>
      </trkpt>
      <trkpt lat="46.65003" lon="5.77493">
        <ele>520.8</ele>
        <time>2020-02-28T12:17:40Z</time>
      </trkpt>
      <trkpt lat="46.65006" lon="5.77492">
        <ele>521</ele>
        <time>2020-02-28T12:17:41Z</time>
      </trkpt>
      <trkpt lat="46.65009" lon="5.77491">
        <ele>521</ele>
        <time>2020-02-28T12:17:42Z</time>
      </trkpt>
      <trkpt lat="46.65013" lon="5.7749">
        <ele>521.4</ele>
        <time>2020-02-28T12:17:43Z</time>
      </trkpt>
      <trkpt lat="46.65016" lon="5.7749">
        <ele>521.4</ele>
        <time>2020-02-28T12:17:44Z</time>
      </trkpt>
      <trkpt lat="46.65019" lon="5.77489">
        <ele>521.6</ele>
        <time>2020-02-28T12:17:45Z</time>
      </trkpt>
      <trkpt lat="46.65022" lon="5.77488">
        <ele>521.6</ele>
        <time>2020-02-28T12:17:46Z</time>
      </trkpt>
      <trkpt lat="46.65025" lon="5.77487">
        <ele>521.8</ele>
        <time>2020-02-28T12:17:47Z</time>
      </trkpt>
      <trkpt lat="46.65029" lon="5.77486">
        <ele>521.8</ele>
        <time>2020-02-28T12:17:48Z</time>
      </trkpt>
      <trkpt lat="46.65032" lon="5.77485">
        <ele>522.2</ele>
        <time>2020-02-28T12:17:49Z</time>
      </trkpt>
      <trkpt lat="46.65035" lon="5.77485">
        <ele>522.2</ele>
        <time>2020-02-28T12:17:50Z</time>
      </trkpt>
      <trkpt lat="46.65038" lon="5.77484">
        <ele>522.4</ele>
        <time>2020-02-28T12:17:51Z</time>
      </trkpt>
      <trkpt lat="46.65041" lon="5.77484">
        <ele>522.4</ele>
        <time>2020-02-28T12:17:52Z</time>
      </trkpt>
      <trkpt lat="46.65044" lon="5.77484">
        <ele>522.8</ele>
        <time>2020-02-28T12:17:53Z</time>
      </trkpt>
      <trkpt lat="46.65047" lon="5.77484">
        <ele>522.8</ele>
        <time>2020-02-28T12:17:54Z</time>
      </trkpt>
      <trkpt lat="46.6505" lon="5.77484">
        <ele>523.2</ele>
        <time>2020-02-28T12:17:55Z</time>
      </trkpt>
      <trkpt lat="46.65053" lon="5.77484">
        <ele>523.4</ele>
        <time>2020-02-28T12:17:56Z</time>
      </trkpt>
      <trkpt lat="46.65056" lon="5.77484">
        <ele>523.4</ele>
        <time>2020-02-28T12:17:57Z</time>
      </trkpt>
      <trkpt lat="46.65059" lon="5.77484">
        <ele>523.8</ele>
        <time>2020-02-28T12:17:58Z</time>
      </trkpt>
      <trkpt lat="46.65062" lon="5.77484">
        <ele>523.8</ele>
        <time>2020-02-28T12:17:59Z</time>
      </trkpt>
      <trkpt lat="46.65065" lon="5.77485">
        <ele>524</ele>
        <time>2020-02-28T12:18:00Z</time>
      </trkpt>
      <trkpt lat="46.65068" lon="5.77485">
        <ele>524</ele>
        <time>2020-02-28T12:18:01Z</time>
      </trkpt>
      <trkpt lat="46.65071" lon="5.77485">
        <ele>524.2</ele>
        <time>2020-02-28T12:18:02Z</time>
      </trkpt>
      <trkpt lat="46.65074" lon="5.77485">
        <ele>524.2</ele>
        <time>2020-02-28T12:18:03Z</time>
      </trkpt>
      <trkpt lat="46.65076" lon="5.77485">
        <ele>524.2</ele>
        <time>2020-02-28T12:18:04Z</time>
      </trkpt>
      <trkpt lat="46.65079" lon="5.77485">
        <ele>524.6</ele>
        <time>2020-02-28T12:18:05Z</time>
      </trkpt>
      <trkpt lat="46.65082" lon="5.77486">
        <ele>524.6</ele>
        <time>2020-02-28T12:18:06Z</time>
      </trkpt>
      <trkpt lat="46.65085" lon="5.77487">
        <ele>524.6</ele>
        <time>2020-02-28T12:18:07Z</time>
      </trkpt>
      <trkpt lat="46.65087" lon="5.77487">
        <ele>525</ele>
        <time>2020-02-28T12:18:08Z</time>
      </trkpt>
      <trkpt lat="46.6509" lon="5.77488">
        <ele>525</ele>
        <time>2020-02-28T12:18:09Z</time>
      </trkpt>
      <trkpt lat="46.65093" lon="5.77489">
        <ele>525.2</ele>
        <time>2020-02-28T12:18:10Z</time>
      </trkpt>
      <trkpt lat="46.65096" lon="5.77489">
        <ele>525.2</ele>
        <time>2020-02-28T12:18:11Z</time>
      </trkpt>
      <trkpt lat="46.65099" lon="5.7749">
        <ele>525.2</ele>
        <time>2020-02-28T12:18:12Z</time>
      </trkpt>
      <trkpt lat="46.65102" lon="5.77491">
        <ele>525.2</ele>
        <time>2020-02-28T12:18:13Z</time>
      </trkpt>
      <trkpt lat="46.65105" lon="5.77492">
        <ele>525.2</ele>
        <time>2020-02-28T12:18:14Z</time>
      </trkpt>
      <trkpt lat="46.65108" lon="5.77493">
        <ele>525.6</ele>
        <time>2020-02-28T12:18:15Z</time>
      </trkpt>
      <trkpt lat="46.65111" lon="5.77494">
        <ele>525.6</ele>
        <time>2020-02-28T12:18:16Z</time>
      </trkpt>
      <trkpt lat="46.65115" lon="5.77495">
        <ele>525.6</ele>
        <time>2020-02-28T12:18:17Z</time>
      </trkpt>
      <trkpt lat="46.65118" lon="5.77496">
        <ele>525.8</ele>
        <time>2020-02-28T12:18:18Z</time>
      </trkpt>
      <trkpt lat="46.65121" lon="5.77497">
        <ele>525.8</ele>
        <time>2020-02-28T12:18:19Z</time>
      </trkpt>
      <trkpt lat="46.65125" lon="5.77498">
        <ele>525.8</ele>
        <time>2020-02-28T12:18:20Z</time>
      </trkpt>
      <trkpt lat="46.65128" lon="5.77499">
        <ele>526</ele>
        <time>2020-02-28T12:18:21Z</time>
      </trkpt>
      <trkpt lat="46.65132" lon="5.775">
        <ele>526</ele>
        <time>2020-02-28T12:18:22Z</time>
      </trkpt>
      <trkpt lat="46.65135" lon="5.775">
        <ele>526</ele>
        <time>2020-02-28T12:18:23Z</time>
      </trkpt>
      <trkpt lat="46.65138" lon="5.77501">
        <ele>526</ele>
        <time>2020-02-28T12:18:24Z</time>
      </trkpt>
      <trkpt lat="46.65141" lon="5.77502">
        <ele>526.2</ele>
        <time>2020-02-28T12:18:25Z</time>
      </trkpt>
      <trkpt lat="46.65144" lon="5.77503">
        <ele>526.2</ele>
        <time>2020-02-28T12:18:26Z</time>
      </trkpt>
      <trkpt lat="46.65147" lon="5.77504">
        <ele>526.2</ele>
        <time>2020-02-28T12:18:27Z</time>
      </trkpt>
      <trkpt lat="46.65151" lon="5.77505">
        <ele>526.2</ele>
        <time>2020-02-28T12:18:28Z</time>
      </trkpt>
      <trkpt lat="46.65154" lon="5.77506">
        <ele>526.2</ele>
        <time>2020-02-28T12:18:29Z</time>
      </trkpt>
      <trkpt lat="46.65157" lon="5.77507">
        <ele>526.2</ele>
        <time>2020-02-28T12:18:30Z</time>
      </trkpt>
      <trkpt lat="46.65161" lon="5.77509">
        <ele>526.2</ele>
        <time>2020-02-28T12:18:31Z</time>
      </trkpt>
      <trkpt lat="46.65164" lon="5.7751">
        <ele>526.2</ele>
        <time>2020-02-28T12:18:32Z</time>
      </trkpt>
      <trkpt lat="46.65168" lon="5.77511">
        <ele>526.2</ele>
        <time>2020-02-28T12:18:33Z</time>
      </trkpt>
      <trkpt lat="46.65171" lon="5.77512">
        <ele>526.2</ele>
        <time>2020-02-28T12:18:34Z</time>
      </trkpt>
      <trkpt lat="46.65174" lon="5.77514">
        <ele>526.2</ele>
        <time>2020-02-28T12:18:35Z</time>
      </trkpt>
      <trkpt lat="46.65178" lon="5.77516">
        <ele>526.2</ele>
        <time>2020-02-28T12:18:36Z</time>
      </trkpt>
      <trkpt lat="46.65182" lon="5.77518">
        <ele>526.2</ele>
        <time>2020-02-28T12:18:37Z</time>
      </trkpt>
      <trkpt lat="46.65185" lon="5.7752">
        <ele>526.2</ele>
        <time>2020-02-28T12:18:38Z</time>
      </trkpt>
      <trkpt lat="46.65189" lon="5.77522">
        <ele>526.2</ele>
        <time>2020-02-28T12:18:39Z</time>
      </trkpt>
      <trkpt lat="46.65192" lon="5.77525">
        <ele>526.6</ele>
        <time>2020-02-28T12:18:40Z</time>
      </trkpt>
      <trkpt lat="46.65196" lon="5.77527">
        <ele>526.6</ele>
        <time>2020-02-28T12:18:41Z</time>
      </trkpt>
      <trkpt lat="46.65199" lon="5.7753">
        <ele>526.6</ele>
        <time>2020-02-28T12:18:42Z</time>
      </trkpt>
      <trkpt lat="46.65203" lon="5.77533">
        <ele>526.6</ele>
        <time>2020-02-28T12:18:43Z</time>
      </trkpt>
      <trkpt lat="46.65206" lon="5.77536">
        <ele>526.6</ele>
        <time>2020-02-28T12:18:44Z</time>
      </trkpt>
      <trkpt lat="46.65209" lon="5.77538">
        <ele>526.6</ele>
        <time>2020-02-28T12:18:45Z</time>
      </trkpt>
      <trkpt lat="46.65212" lon="5.77541">
        <ele>526.6</ele>
        <time>2020-02-28T12:18:46Z</time>
      </trkpt>
      <trkpt lat="46.65214" lon="5.77544">
        <ele>526.6</ele>
        <time>2020-02-28T12:18:47Z</time>
      </trkpt>
      <trkpt lat="46.65217" lon="5.77547">
        <ele>526.6</ele>
        <time>2020-02-28T12:18:48Z</time>
      </trkpt>
      <trkpt lat="46.65219" lon="5.7755">
        <ele>526.6</ele>
        <time>2020-02-28T12:18:49Z</time>
      </trkpt>
      <trkpt lat="46.65222" lon="5.77553">
        <ele>526.6</ele>
        <time>2020-02-28T12:18:50Z</time>
      </trkpt>
      <trkpt lat="46.65224" lon="5.77556">
        <ele>526.6</ele>
        <time>2020-02-28T12:18:51Z</time>
      </trkpt>
      <trkpt lat="46.65227" lon="5.7756">
        <ele>526.6</ele>
        <time>2020-02-28T12:18:52Z</time>
      </trkpt>
      <trkpt lat="46.6523" lon="5.77564">
        <ele>526.6</ele>
        <time>2020-02-28T12:18:53Z</time>
      </trkpt>
      <trkpt lat="46.65233" lon="5.77567">
        <ele>526.6</ele>
        <time>2020-02-28T12:18:54Z</time>
      </trkpt>
      <trkpt lat="46.65236" lon="5.77571">
        <ele>526.8</ele>
        <time>2020-02-28T12:18:55Z</time>
      </trkpt>
      <trkpt lat="46.6524" lon="5.77574">
        <ele>526.8</ele>
        <time>2020-02-28T12:18:56Z</time>
      </trkpt>
      <trkpt lat="46.65243" lon="5.77577">
        <ele>526.8</ele>
        <time>2020-02-28T12:18:57Z</time>
      </trkpt>
      <trkpt lat="46.65246" lon="5.7758">
        <ele>526.8</ele>
        <time>2020-02-28T12:18:58Z</time>
      </trkpt>
      <trkpt lat="46.65249" lon="5.77584">
        <ele>526.8</ele>
        <time>2020-02-28T12:18:59Z</time>
      </trkpt>
      <trkpt lat="46.65253" lon="5.77587">
        <ele>526.8</ele>
        <time>2020-02-28T12:19:00Z</time>
      </trkpt>
      <trkpt lat="46.65256" lon="5.77591">
        <ele>527.2</ele>
        <time>2020-02-28T12:19:01Z</time>
      </trkpt>
      <trkpt lat="46.65259" lon="5.77594">
        <ele>527.2</ele>
        <time>2020-02-28T12:19:02Z</time>
      </trkpt>
      <trkpt lat="46.65263" lon="5.77598">
        <ele>527.2</ele>
        <time>2020-02-28T12:19:03Z</time>
      </trkpt>
      <trkpt lat="46.65266" lon="5.77602">
        <ele>527.2</ele>
        <time>2020-02-28T12:19:04Z</time>
      </trkpt>
      <trkpt lat="46.6527" lon="5.77605">
        <ele>527.2</ele>
        <time>2020-02-28T12:19:05Z</time>
      </trkpt>
      <trkpt lat="46.65273" lon="5.77609">
        <ele>527.4</ele>
        <time>2020-02-28T12:19:06Z</time>
      </trkpt>
      <trkpt lat="46.65276" lon="5.77613">
        <ele>527.4</ele>
        <time>2020-02-28T12:19:07Z</time>
      </trkpt>
      <trkpt lat="46.6528" lon="5.77617">
        <ele>527.4</ele>
        <time>2020-02-28T12:19:08Z</time>
      </trkpt>
      <trkpt lat="46.65283" lon="5.77621">
        <ele>527.6</ele>
        <time>2020-02-28T12:19:09Z</time>
      </trkpt>
      <trkpt lat="46.65287" lon="5.77625">
        <ele>527.6</ele>
        <time>2020-02-28T12:19:10Z</time>
      </trkpt>
      <trkpt lat="46.6529" lon="5.77629">
        <ele>527.8</ele>
        <time>2020-02-28T12:19:11Z</time>
      </trkpt>
      <trkpt lat="46.65294" lon="5.77632">
        <ele>527.8</ele>
        <time>2020-02-28T12:19:12Z</time>
      </trkpt>
      <trkpt lat="46.65297" lon="5.77636">
        <ele>528</ele>
        <time>2020-02-28T12:19:13Z</time>
      </trkpt>
      <trkpt lat="46.653" lon="5.77639">
        <ele>528</ele>
        <time>2020-02-28T12:19:14Z</time>
      </trkpt>
      <trkpt lat="46.65303" lon="5.77643">
        <ele>528.4</ele>
        <time>2020-02-28T12:19:15Z</time>
      </trkpt>
      <trkpt lat="46.65305" lon="5.77647">
        <ele>528.4</ele>
        <time>2020-02-28T12:19:16Z</time>
      </trkpt>
      <trkpt lat="46.65309" lon="5.7765">
        <ele>528.4</ele>
        <time>2020-02-28T12:19:17Z</time>
      </trkpt>
      <trkpt lat="46.65312" lon="5.77654">
        <ele>528.6</ele>
        <time>2020-02-28T12:19:18Z</time>
      </trkpt>
      <trkpt lat="46.65314" lon="5.77657">
        <ele>528.6</ele>
        <time>2020-02-28T12:19:19Z</time>
      </trkpt>
      <trkpt lat="46.65317" lon="5.7766">
        <ele>528.6</ele>
        <time>2020-02-28T12:19:20Z</time>
      </trkpt>
      <trkpt lat="46.6532" lon="5.77664">
        <ele>528.6</ele>
        <time>2020-02-28T12:19:21Z</time>
      </trkpt>
      <trkpt lat="46.65323" lon="5.77667">
        <ele>528.8</ele>
        <time>2020-02-28T12:19:22Z</time>
      </trkpt>
      <trkpt lat="46.65327" lon="5.77671">
        <ele>528.8</ele>
        <time>2020-02-28T12:19:23Z</time>
      </trkpt>
      <trkpt lat="46.65329" lon="5.77675">
        <ele>528.8</ele>
        <time>2020-02-28T12:19:24Z</time>
      </trkpt>
      <trkpt lat="46.65332" lon="5.77679">
        <ele>529</ele>
        <time>2020-02-28T12:19:25Z</time>
      </trkpt>
      <trkpt lat="46.65334" lon="5.77684">
        <ele>529</ele>
        <time>2020-02-28T12:19:26Z</time>
      </trkpt>
      <trkpt lat="46.65336" lon="5.77689">
        <ele>529</ele>
        <time>2020-02-28T12:19:27Z</time>
      </trkpt>
      <trkpt lat="46.65338" lon="5.77693">
        <ele>529</ele>
        <time>2020-02-28T12:19:28Z</time>
      </trkpt>
      <trkpt lat="46.6534" lon="5.77698">
        <ele>529.4</ele>
        <time>2020-02-28T12:19:29Z</time>
      </trkpt>
      <trkpt lat="46.65342" lon="5.77703">
        <ele>529.4</ele>
        <time>2020-02-28T12:19:30Z</time>
      </trkpt>
      <trkpt lat="46.65344" lon="5.77708">
        <ele>529.4</ele>
        <time>2020-02-28T12:19:31Z</time>
      </trkpt>
      <trkpt lat="46.65346" lon="5.77713">
        <ele>529.4</ele>
        <time>2020-02-28T12:19:32Z</time>
      </trkpt>
      <trkpt lat="46.65348" lon="5.77718">
        <ele>529.6</ele>
        <time>2020-02-28T12:19:33Z</time>
      </trkpt>
      <trkpt lat="46.6535" lon="5.77723">
        <ele>529.6</ele>
        <time>2020-02-28T12:19:34Z</time>
      </trkpt>
      <trkpt lat="46.65352" lon="5.77729">
        <ele>529.6</ele>
        <time>2020-02-28T12:19:35Z</time>
      </trkpt>
      <trkpt lat="46.65354" lon="5.77734">
        <ele>529.6</ele>
        <time>2020-02-28T12:19:36Z</time>
      </trkpt>
      <trkpt lat="46.65356" lon="5.77739">
        <ele>529.6</ele>
        <time>2020-02-28T12:19:37Z</time>
      </trkpt>
      <trkpt lat="46.65357" lon="5.77744">
        <ele>529.6</ele>
        <time>2020-02-28T12:19:38Z</time>
      </trkpt>
      <trkpt lat="46.65359" lon="5.7775">
        <ele>529.6</ele>
        <time>2020-02-28T12:19:39Z</time>
      </trkpt>
      <trkpt lat="46.65361" lon="5.77754">
        <ele>529.8</ele>
        <time>2020-02-28T12:19:40Z</time>
      </trkpt>
      <trkpt lat="46.65362" lon="5.77759">
        <ele>529.8</ele>
        <time>2020-02-28T12:19:41Z</time>
      </trkpt>
      <trkpt lat="46.65364" lon="5.77764">
        <ele>529.8</ele>
        <time>2020-02-28T12:19:42Z</time>
      </trkpt>
      <trkpt lat="46.65366" lon="5.77769">
        <ele>529.8</ele>
        <time>2020-02-28T12:19:43Z</time>
      </trkpt>
      <trkpt lat="46.65367" lon="5.77775">
        <ele>529.8</ele>
        <time>2020-02-28T12:19:44Z</time>
      </trkpt>
      <trkpt lat="46.65369" lon="5.7778">
        <ele>529.8</ele>
        <time>2020-02-28T12:19:45Z</time>
      </trkpt>
      <trkpt lat="46.65371" lon="5.77786">
        <ele>529.8</ele>
        <time>2020-02-28T12:19:46Z</time>
      </trkpt>
      <trkpt lat="46.65372" lon="5.77792">
        <ele>529.6</ele>
        <time>2020-02-28T12:19:47Z</time>
      </trkpt>
      <trkpt lat="46.65374" lon="5.77798">
        <ele>529.6</ele>
        <time>2020-02-28T12:19:48Z</time>
      </trkpt>
      <trkpt lat="46.65375" lon="5.77803">
        <ele>529.6</ele>
        <time>2020-02-28T12:19:49Z</time>
      </trkpt>
      <trkpt lat="46.65376" lon="5.7781">
        <ele>529.6</ele>
        <time>2020-02-28T12:19:50Z</time>
      </trkpt>
      <trkpt lat="46.65377" lon="5.77816">
        <ele>529.4</ele>
        <time>2020-02-28T12:19:51Z</time>
      </trkpt>
      <trkpt lat="46.65377" lon="5.77821">
        <ele>529.4</ele>
        <time>2020-02-28T12:19:52Z</time>
      </trkpt>
      <trkpt lat="46.65377" lon="5.77828">
        <ele>529.4</ele>
        <time>2020-02-28T12:19:53Z</time>
      </trkpt>
      <trkpt lat="46.65378" lon="5.77833">
        <ele>529.4</ele>
        <time>2020-02-28T12:19:54Z</time>
      </trkpt>
      <trkpt lat="46.65379" lon="5.7784">
        <ele>529.4</ele>
        <time>2020-02-28T12:19:55Z</time>
      </trkpt>
      <trkpt lat="46.65379" lon="5.77845">
        <ele>529.4</ele>
        <time>2020-02-28T12:19:56Z</time>
      </trkpt>
      <trkpt lat="46.65379" lon="5.77851">
        <ele>529</ele>
        <time>2020-02-28T12:19:57Z</time>
      </trkpt>
      <trkpt lat="46.6538" lon="5.77857">
        <ele>529</ele>
        <time>2020-02-28T12:19:58Z</time>
      </trkpt>
      <trkpt lat="46.6538" lon="5.77863">
        <ele>529</ele>
        <time>2020-02-28T12:19:59Z</time>
      </trkpt>
      <trkpt lat="46.65381" lon="5.77869">
        <ele>528.8</ele>
        <time>2020-02-28T12:20:00Z</time>
      </trkpt>
      <trkpt lat="46.65382" lon="5.77875">
        <ele>528.8</ele>
        <time>2020-02-28T12:20:01Z</time>
      </trkpt>
      <trkpt lat="46.65383" lon="5.77879">
        <ele>528.8</ele>
        <time>2020-02-28T12:20:02Z</time>
      </trkpt>
      <trkpt lat="46.65384" lon="5.77884">
        <ele>528.8</ele>
        <time>2020-02-28T12:20:03Z</time>
      </trkpt>
      <trkpt lat="46.65385" lon="5.77888">
        <ele>528.4</ele>
        <time>2020-02-28T12:20:04Z</time>
      </trkpt>
      <trkpt lat="46.65386" lon="5.77892">
        <ele>528.4</ele>
        <time>2020-02-28T12:20:05Z</time>
      </trkpt>
      <trkpt lat="46.65385" lon="5.77896">
        <ele>528.4</ele>
        <time>2020-02-28T12:20:06Z</time>
      </trkpt>
      <trkpt lat="46.65384" lon="5.77899">
        <ele>528.4</ele>
        <time>2020-02-28T12:20:07Z</time>
      </trkpt>
      <trkpt lat="46.65384" lon="5.77902">
        <ele>528.6</ele>
        <time>2020-02-28T12:20:08Z</time>
      </trkpt>
      <trkpt lat="46.65383" lon="5.77904">
        <ele>528.6</ele>
        <time>2020-02-28T12:20:09Z</time>
      </trkpt>
      <trkpt lat="46.65382" lon="5.77907">
        <ele>528.6</ele>
        <time>2020-02-28T12:20:10Z</time>
      </trkpt>
      <trkpt lat="46.65381" lon="5.7791">
        <ele>529</ele>
        <time>2020-02-28T12:20:11Z</time>
      </trkpt>
      <trkpt lat="46.6538" lon="5.77913">
        <ele>529</ele>
        <time>2020-02-28T12:20:12Z</time>
      </trkpt>
      <trkpt lat="46.65378" lon="5.77915">
        <ele>529.4</ele>
        <time>2020-02-28T12:20:13Z</time>
      </trkpt>
      <trkpt lat="46.65377" lon="5.77918">
        <ele>529.4</ele>
        <time>2020-02-28T12:20:14Z</time>
      </trkpt>
      <trkpt lat="46.65375" lon="5.7792">
        <ele>529.8</ele>
        <time>2020-02-28T12:20:15Z</time>
      </trkpt>
      <trkpt lat="46.65373" lon="5.77923">
        <ele>529.8</ele>
        <time>2020-02-28T12:20:16Z</time>
      </trkpt>
      <trkpt lat="46.65372" lon="5.77925">
        <ele>530</ele>
        <time>2020-02-28T12:20:17Z</time>
      </trkpt>
      <trkpt lat="46.65371" lon="5.77926">
        <ele>530.4</ele>
        <time>2020-02-28T12:20:18Z</time>
      </trkpt>
      <trkpt lat="46.65369" lon="5.77928">
        <ele>530.6</ele>
        <time>2020-02-28T12:20:19Z</time>
      </trkpt>
      <trkpt lat="46.65368" lon="5.7793">
        <ele>530.6</ele>
        <time>2020-02-28T12:20:20Z</time>
      </trkpt>
      <trkpt lat="46.65366" lon="5.77932">
        <ele>530.8</ele>
        <time>2020-02-28T12:20:21Z</time>
      </trkpt>
      <trkpt lat="46.65364" lon="5.77935">
        <ele>530.8</ele>
        <time>2020-02-28T12:20:22Z</time>
      </trkpt>
      <trkpt lat="46.65363" lon="5.77936">
        <ele>531.2</ele>
        <time>2020-02-28T12:20:23Z</time>
      </trkpt>
      <trkpt lat="46.65361" lon="5.77938">
        <ele>531.2</ele>
        <time>2020-02-28T12:20:24Z</time>
      </trkpt>
      <trkpt lat="46.6536" lon="5.7794">
        <ele>531.6</ele>
        <time>2020-02-28T12:20:25Z</time>
      </trkpt>
      <trkpt lat="46.65359" lon="5.77942">
        <ele>531.8</ele>
        <time>2020-02-28T12:20:26Z</time>
      </trkpt>
      <trkpt lat="46.65357" lon="5.77944">
        <ele>531.8</ele>
        <time>2020-02-28T12:20:27Z</time>
      </trkpt>
      <trkpt lat="46.65355" lon="5.77947">
        <ele>532.2</ele>
        <time>2020-02-28T12:20:28Z</time>
      </trkpt>
      <trkpt lat="46.65353" lon="5.7795">
        <ele>532.2</ele>
        <time>2020-02-28T12:20:29Z</time>
      </trkpt>
      <trkpt lat="46.65351" lon="5.77952">
        <ele>532.6</ele>
        <time>2020-02-28T12:20:30Z</time>
      </trkpt>
      <trkpt lat="46.65349" lon="5.77955">
        <ele>532.6</ele>
        <time>2020-02-28T12:20:31Z</time>
      </trkpt>
      <trkpt lat="46.65347" lon="5.77958">
        <ele>532.8</ele>
        <time>2020-02-28T12:20:32Z</time>
      </trkpt>
      <trkpt lat="46.65346" lon="5.7796">
        <ele>532.8</ele>
        <time>2020-02-28T12:20:33Z</time>
      </trkpt>
      <trkpt lat="46.65344" lon="5.77963">
        <ele>533.2</ele>
        <time>2020-02-28T12:20:34Z</time>
      </trkpt>
      <trkpt lat="46.65342" lon="5.77965">
        <ele>533.2</ele>
        <time>2020-02-28T12:20:35Z</time>
      </trkpt>
      <trkpt lat="46.6534" lon="5.77968">
        <ele>533.4</ele>
        <time>2020-02-28T12:20:36Z</time>
      </trkpt>
      <trkpt lat="46.65338" lon="5.7797">
        <ele>533.4</ele>
        <time>2020-02-28T12:20:37Z</time>
      </trkpt>
      <trkpt lat="46.65336" lon="5.77972">
        <ele>533.8</ele>
        <time>2020-02-28T12:20:38Z</time>
      </trkpt>
      <trkpt lat="46.65334" lon="5.77973">
        <ele>533.8</ele>
        <time>2020-02-28T12:20:39Z</time>
      </trkpt>
      <trkpt lat="46.65332" lon="5.77975">
        <ele>533.8</ele>
        <time>2020-02-28T12:20:40Z</time>
      </trkpt>
      <trkpt lat="46.65329" lon="5.77975">
        <ele>534</ele>
        <time>2020-02-28T12:20:41Z</time>
      </trkpt>
      <trkpt lat="46.65327" lon="5.77976">
        <ele>534</ele>
        <time>2020-02-28T12:20:42Z</time>
      </trkpt>
      <trkpt lat="46.65325" lon="5.77977">
        <ele>534</ele>
        <time>2020-02-28T12:20:43Z</time>
      </trkpt>
      <trkpt lat="46.65324" lon="5.77978">
        <ele>534.2</ele>
        <time>2020-02-28T12:20:44Z</time>
      </trkpt>
      <trkpt lat="46.65322" lon="5.77978">
        <ele>534.2</ele>
        <time>2020-02-28T12:20:45Z</time>
      </trkpt>
      <trkpt lat="46.65321" lon="5.77979">
        <ele>534.2</ele>
        <time>2020-02-28T12:20:46Z</time>
      </trkpt>
      <trkpt lat="46.6532" lon="5.77979">
        <ele>534.2</ele>
        <time>2020-02-28T12:20:47Z</time>
      </trkpt>
      <trkpt lat="46.65323" lon="5.77986">
        <ele>534.4</ele>
        <time>2020-02-28T12:23:54Z</time>
      </trkpt>
      <trkpt lat="46.65325" lon="5.77986">
        <ele>534.4</ele>
        <time>2020-02-28T12:23:55Z</time>
      </trkpt>
      <trkpt lat="46.65327" lon="5.77987">
        <ele>534.4</ele>
        <time>2020-02-28T12:23:56Z</time>
      </trkpt>
      <trkpt lat="46.65328" lon="5.77989">
        <ele>534.4</ele>
        <time>2020-02-28T12:23:57Z</time>
      </trkpt>
      <trkpt lat="46.65328" lon="5.77991">
        <ele>534.6</ele>
        <time>2020-02-28T12:23:58Z</time>
      </trkpt>
      <trkpt lat="46.65329" lon="5.77994">
        <ele>534.6</ele>
        <time>2020-02-28T12:23:59Z</time>
      </trkpt>
      <trkpt lat="46.65328" lon="5.77997">
        <ele>534.8</ele>
        <time>2020-02-28T12:24:00Z</time>
      </trkpt>
      <trkpt lat="46.65328" lon="5.78">
        <ele>534.8</ele>
        <time>2020-02-28T12:24:01Z</time>
      </trkpt>
      <trkpt lat="46.65327" lon="5.78002">
        <ele>535.2</ele>
        <time>2020-02-28T12:24:02Z</time>
      </trkpt>
      <trkpt lat="46.65326" lon="5.78006">
        <ele>535.2</ele>
        <time>2020-02-28T12:24:03Z</time>
      </trkpt>
      <trkpt lat="46.65325" lon="5.78009">
        <ele>535.4</ele>
        <time>2020-02-28T12:24:04Z</time>
      </trkpt>
      <trkpt lat="46.65325" lon="5.78012">
        <ele>535.4</ele>
        <time>2020-02-28T12:24:05Z</time>
      </trkpt>
      <trkpt lat="46.65324" lon="5.78016">
        <ele>535.4</ele>
        <time>2020-02-28T12:24:06Z</time>
      </trkpt>
      <trkpt lat="46.65323" lon="5.78019">
        <ele>535.8</ele>
        <time>2020-02-28T12:24:07Z</time>
      </trkpt>
      <trkpt lat="46.65323" lon="5.78023">
        <ele>535.8</ele>
        <time>2020-02-28T12:24:08Z</time>
      </trkpt>
      <trkpt lat="46.65322" lon="5.78027">
        <ele>536</ele>
        <time>2020-02-28T12:24:09Z</time>
      </trkpt>
      <trkpt lat="46.65322" lon="5.7803">
        <ele>536</ele>
        <time>2020-02-28T12:24:10Z</time>
      </trkpt>
      <trkpt lat="46.65321" lon="5.78034">
        <ele>536</ele>
        <time>2020-02-28T12:24:11Z</time>
      </trkpt>
      <trkpt lat="46.65321" lon="5.78038">
        <ele>536.4</ele>
        <time>2020-02-28T12:24:12Z</time>
      </trkpt>
      <trkpt lat="46.6532" lon="5.78043">
        <ele>536.4</ele>
        <time>2020-02-28T12:24:13Z</time>
      </trkpt>
      <trkpt lat="46.6532" lon="5.78047">
        <ele>536.6</ele>
        <time>2020-02-28T12:24:14Z</time>
      </trkpt>
      <trkpt lat="46.6532" lon="5.7805">
        <ele>536.6</ele>
        <time>2020-02-28T12:24:15Z</time>
      </trkpt>
      <trkpt lat="46.65319" lon="5.78055">
        <ele>536.8</ele>
        <time>2020-02-28T12:24:16Z</time>
      </trkpt>
      <trkpt lat="46.65319" lon="5.78058">
        <ele>536.8</ele>
        <time>2020-02-28T12:24:17Z</time>
      </trkpt>
      <trkpt lat="46.65318" lon="5.78062">
        <ele>537</ele>
        <time>2020-02-28T12:24:18Z</time>
      </trkpt>
      <trkpt lat="46.65318" lon="5.78066">
        <ele>537</ele>
        <time>2020-02-28T12:24:19Z</time>
      </trkpt>
      <trkpt lat="46.65318" lon="5.7807">
        <ele>537.4</ele>
        <time>2020-02-28T12:24:20Z</time>
      </trkpt>
      <trkpt lat="46.65318" lon="5.78073">
        <ele>537.4</ele>
        <time>2020-02-28T12:24:21Z</time>
      </trkpt>
      <trkpt lat="46.65318" lon="5.78077">
        <ele>537.6</ele>
        <time>2020-02-28T12:24:22Z</time>
      </trkpt>
      <trkpt lat="46.65318" lon="5.7808">
        <ele>537.6</ele>
        <time>2020-02-28T12:24:23Z</time>
      </trkpt>
      <trkpt lat="46.65317" lon="5.78084">
        <ele>538</ele>
        <time>2020-02-28T12:24:24Z</time>
      </trkpt>
      <trkpt lat="46.65317" lon="5.78088">
        <ele>538</ele>
        <time>2020-02-28T12:24:25Z</time>
      </trkpt>
      <trkpt lat="46.65317" lon="5.78092">
        <ele>538.4</ele>
        <time>2020-02-28T12:24:26Z</time>
      </trkpt>
      <trkpt lat="46.65317" lon="5.78096">
        <ele>538.4</ele>
        <time>2020-02-28T12:24:27Z</time>
      </trkpt>
      <trkpt lat="46.65317" lon="5.78099">
        <ele>538.6</ele>
        <time>2020-02-28T12:24:28Z</time>
      </trkpt>
      <trkpt lat="46.65317" lon="5.78102">
        <ele>539</ele>
        <time>2020-02-28T12:24:29Z</time>
      </trkpt>
      <trkpt lat="46.65317" lon="5.78106">
        <ele>539</ele>
        <time>2020-02-28T12:24:30Z</time>
      </trkpt>
      <trkpt lat="46.65317" lon="5.78109">
        <ele>539.2</ele>
        <time>2020-02-28T12:24:31Z</time>
      </trkpt>
      <trkpt lat="46.65316" lon="5.78113">
        <ele>539.2</ele>
        <time>2020-02-28T12:24:32Z</time>
      </trkpt>
      <trkpt lat="46.65316" lon="5.78116">
        <ele>539.4</ele>
        <time>2020-02-28T12:24:33Z</time>
      </trkpt>
      <trkpt lat="46.65316" lon="5.7812">
        <ele>539.8</ele>
        <time>2020-02-28T12:24:34Z</time>
      </trkpt>
      <trkpt lat="46.65317" lon="5.78124">
        <ele>539.8</ele>
        <time>2020-02-28T12:24:35Z</time>
      </trkpt>
      <trkpt lat="46.65317" lon="5.78127">
        <ele>540</ele>
        <time>2020-02-28T12:24:36Z</time>
      </trkpt>
      <trkpt lat="46.65316" lon="5.78131">
        <ele>540</ele>
        <time>2020-02-28T12:24:37Z</time>
      </trkpt>
      <trkpt lat="46.65316" lon="5.78135">
        <ele>540.4</ele>
        <time>2020-02-28T12:24:38Z</time>
      </trkpt>
      <trkpt lat="46.65317" lon="5.78139">
        <ele>540.4</ele>
        <time>2020-02-28T12:24:39Z</time>
      </trkpt>
      <trkpt lat="46.65316" lon="5.78143">
        <ele>540.8</ele>
        <time>2020-02-28T12:24:40Z</time>
      </trkpt>
      <trkpt lat="46.65316" lon="5.78147">
        <ele>541</ele>
        <time>2020-02-28T12:24:41Z</time>
      </trkpt>
      <trkpt lat="46.65316" lon="5.78151">
        <ele>541</ele>
        <time>2020-02-28T12:24:42Z</time>
      </trkpt>
      <trkpt lat="46.65316" lon="5.78155">
        <ele>541.2</ele>
        <time>2020-02-28T12:24:43Z</time>
      </trkpt>
      <trkpt lat="46.65316" lon="5.7816">
        <ele>541.2</ele>
        <time>2020-02-28T12:24:44Z</time>
      </trkpt>
      <trkpt lat="46.65316" lon="5.78164">
        <ele>541.6</ele>
        <time>2020-02-28T12:24:45Z</time>
      </trkpt>
      <trkpt lat="46.65316" lon="5.78167">
        <ele>542</ele>
        <time>2020-02-28T12:24:46Z</time>
      </trkpt>
      <trkpt lat="46.65316" lon="5.7817">
        <ele>542.2</ele>
        <time>2020-02-28T12:24:47Z</time>
      </trkpt>
      <trkpt lat="46.65316" lon="5.78174">
        <ele>542.2</ele>
        <time>2020-02-28T12:24:48Z</time>
      </trkpt>
      <trkpt lat="46.65316" lon="5.78178">
        <ele>542.6</ele>
        <time>2020-02-28T12:24:49Z</time>
      </trkpt>
      <trkpt lat="46.65316" lon="5.78182">
        <ele>542.8</ele>
        <time>2020-02-28T12:24:50Z</time>
      </trkpt>
      <trkpt lat="46.65316" lon="5.78185">
        <ele>542.8</ele>
        <time>2020-02-28T12:24:51Z</time>
      </trkpt>
      <trkpt lat="46.65315" lon="5.78189">
        <ele>543</ele>
        <time>2020-02-28T12:24:52Z</time>
      </trkpt>
      <trkpt lat="46.65316" lon="5.78192">
        <ele>543</ele>
        <time>2020-02-28T12:24:53Z</time>
      </trkpt>
      <trkpt lat="46.65316" lon="5.78197">
        <ele>543.4</ele>
        <time>2020-02-28T12:24:54Z</time>
      </trkpt>
      <trkpt lat="46.65316" lon="5.78201">
        <ele>543.4</ele>
        <time>2020-02-28T12:24:55Z</time>
      </trkpt>
      <trkpt lat="46.65317" lon="5.78205">
        <ele>543.6</ele>
        <time>2020-02-28T12:24:56Z</time>
      </trkpt>
      <trkpt lat="46.65317" lon="5.78209">
        <ele>543.6</ele>
        <time>2020-02-28T12:24:57Z</time>
      </trkpt>
      <trkpt lat="46.65317" lon="5.78214">
        <ele>544.2</ele>
        <time>2020-02-28T12:24:58Z</time>
      </trkpt>
      <trkpt lat="46.65317" lon="5.78218">
        <ele>544.4</ele>
        <time>2020-02-28T12:24:59Z</time>
      </trkpt>
      <trkpt lat="46.65318" lon="5.78221">
        <ele>544.6</ele>
        <time>2020-02-28T12:25:00Z</time>
      </trkpt>
      <trkpt lat="46.65318" lon="5.78225">
        <ele>544.6</ele>
        <time>2020-02-28T12:25:01Z</time>
      </trkpt>
      <trkpt lat="46.65319" lon="5.78228">
        <ele>544.8</ele>
        <time>2020-02-28T12:25:02Z</time>
      </trkpt>
      <trkpt lat="46.65319" lon="5.78232">
        <ele>545</ele>
        <time>2020-02-28T12:25:03Z</time>
      </trkpt>
      <trkpt lat="46.6532" lon="5.78236">
        <ele>545.2</ele>
        <time>2020-02-28T12:25:04Z</time>
      </trkpt>
      <trkpt lat="46.65321" lon="5.7824">
        <ele>545.4</ele>
        <time>2020-02-28T12:25:05Z</time>
      </trkpt>
      <trkpt lat="46.65321" lon="5.78244">
        <ele>545.4</ele>
        <time>2020-02-28T12:25:06Z</time>
      </trkpt>
      <trkpt lat="46.65321" lon="5.78248">
        <ele>545.8</ele>
        <time>2020-02-28T12:25:07Z</time>
      </trkpt>
      <trkpt lat="46.65322" lon="5.78252">
        <ele>546</ele>
        <time>2020-02-28T12:25:08Z</time>
      </trkpt>
      <trkpt lat="46.65322" lon="5.78256">
        <ele>546.2</ele>
        <time>2020-02-28T12:25:09Z</time>
      </trkpt>
      <trkpt lat="46.65323" lon="5.7826">
        <ele>546.4</ele>
        <time>2020-02-28T12:25:10Z</time>
      </trkpt>
      <trkpt lat="46.65324" lon="5.78265">
        <ele>546.4</ele>
        <time>2020-02-28T12:25:11Z</time>
      </trkpt>
      <trkpt lat="46.65324" lon="5.78269">
        <ele>546.8</ele>
        <time>2020-02-28T12:25:12Z</time>
      </trkpt>
      <trkpt lat="46.65325" lon="5.78273">
        <ele>547</ele>
        <time>2020-02-28T12:25:13Z</time>
      </trkpt>
      <trkpt lat="46.65325" lon="5.78277">
        <ele>547.2</ele>
        <time>2020-02-28T12:25:14Z</time>
      </trkpt>
      <trkpt lat="46.65326" lon="5.78281">
        <ele>547.2</ele>
        <time>2020-02-28T12:25:15Z</time>
      </trkpt>
      <trkpt lat="46.65327" lon="5.78285">
        <ele>547.6</ele>
        <time>2020-02-28T12:25:16Z</time>
      </trkpt>
      <trkpt lat="46.65327" lon="5.78289">
        <ele>547.6</ele>
        <time>2020-02-28T12:25:17Z</time>
      </trkpt>
      <trkpt lat="46.65328" lon="5.78293">
        <ele>548</ele>
        <time>2020-02-28T12:25:18Z</time>
      </trkpt>
      <trkpt lat="46.65329" lon="5.78298">
        <ele>548</ele>
        <time>2020-02-28T12:25:19Z</time>
      </trkpt>
      <trkpt lat="46.65329" lon="5.78303">
        <ele>548.2</ele>
        <time>2020-02-28T12:25:20Z</time>
      </trkpt>
      <trkpt lat="46.6533" lon="5.78307">
        <ele>548.6</ele>
        <time>2020-02-28T12:25:21Z</time>
      </trkpt>
      <trkpt lat="46.65331" lon="5.78311">
        <ele>548.8</ele>
        <time>2020-02-28T12:25:22Z</time>
      </trkpt>
      <trkpt lat="46.65331" lon="5.78315">
        <ele>549</ele>
        <time>2020-02-28T12:25:23Z</time>
      </trkpt>
      <trkpt lat="46.65332" lon="5.78319">
        <ele>549.2</ele>
        <time>2020-02-28T12:25:24Z</time>
      </trkpt>
      <trkpt lat="46.65333" lon="5.78323">
        <ele>549.6</ele>
        <time>2020-02-28T12:25:25Z</time>
      </trkpt>
      <trkpt lat="46.65334" lon="5.78327">
        <ele>549.8</ele>
        <time>2020-02-28T12:25:26Z</time>
      </trkpt>
      <trkpt lat="46.65335" lon="5.78331">
        <ele>550</ele>
        <time>2020-02-28T12:25:27Z</time>
      </trkpt>
      <trkpt lat="46.65335" lon="5.78334">
        <ele>550.2</ele>
        <time>2020-02-28T12:25:28Z</time>
      </trkpt>
      <trkpt lat="46.65336" lon="5.78338">
        <ele>550.4</ele>
        <time>2020-02-28T12:25:29Z</time>
      </trkpt>
      <trkpt lat="46.65337" lon="5.78341">
        <ele>550.8</ele>
        <time>2020-02-28T12:25:30Z</time>
      </trkpt>
      <trkpt lat="46.65338" lon="5.78345">
        <ele>550.8</ele>
        <time>2020-02-28T12:25:31Z</time>
      </trkpt>
      <trkpt lat="46.65338" lon="5.78348">
        <ele>551.2</ele>
        <time>2020-02-28T12:25:32Z</time>
      </trkpt>
      <trkpt lat="46.65339" lon="5.78351">
        <ele>551.4</ele>
        <time>2020-02-28T12:25:33Z</time>
      </trkpt>
      <trkpt lat="46.6534" lon="5.78355">
        <ele>551.4</ele>
        <time>2020-02-28T12:25:34Z</time>
      </trkpt>
      <trkpt lat="46.65341" lon="5.78359">
        <ele>551.8</ele>
        <time>2020-02-28T12:25:35Z</time>
      </trkpt>
      <trkpt lat="46.65342" lon="5.78363">
        <ele>551.8</ele>
        <time>2020-02-28T12:25:36Z</time>
      </trkpt>
      <trkpt lat="46.65342" lon="5.78368">
        <ele>552</ele>
        <time>2020-02-28T12:25:37Z</time>
      </trkpt>
      <trkpt lat="46.65343" lon="5.78372">
        <ele>552</ele>
        <time>2020-02-28T12:25:38Z</time>
      </trkpt>
      <trkpt lat="46.65343" lon="5.78376">
        <ele>552.4</ele>
        <time>2020-02-28T12:25:39Z</time>
      </trkpt>
      <trkpt lat="46.65344" lon="5.7838">
        <ele>552.4</ele>
        <time>2020-02-28T12:25:40Z</time>
      </trkpt>
      <trkpt lat="46.65344" lon="5.78384">
        <ele>552.6</ele>
        <time>2020-02-28T12:25:41Z</time>
      </trkpt>
      <trkpt lat="46.65345" lon="5.78387">
        <ele>552.6</ele>
        <time>2020-02-28T12:25:42Z</time>
      </trkpt>
      <trkpt lat="46.65346" lon="5.7839">
        <ele>553</ele>
        <time>2020-02-28T12:25:43Z</time>
      </trkpt>
      <trkpt lat="46.65346" lon="5.78394">
        <ele>553</ele>
        <time>2020-02-28T12:25:44Z</time>
      </trkpt>
      <trkpt lat="46.65347" lon="5.78397">
        <ele>553.4</ele>
        <time>2020-02-28T12:25:45Z</time>
      </trkpt>
      <trkpt lat="46.65347" lon="5.78401">
        <ele>553.6</ele>
        <time>2020-02-28T12:25:46Z</time>
      </trkpt>
      <trkpt lat="46.65348" lon="5.78404">
        <ele>553.6</ele>
        <time>2020-02-28T12:25:47Z</time>
      </trkpt>
      <trkpt lat="46.65349" lon="5.78407">
        <ele>554</ele>
        <time>2020-02-28T12:25:48Z</time>
      </trkpt>
      <trkpt lat="46.65349" lon="5.7841">
        <ele>554</ele>
        <time>2020-02-28T12:25:49Z</time>
      </trkpt>
      <trkpt lat="46.6535" lon="5.78413">
        <ele>554.4</ele>
        <time>2020-02-28T12:25:50Z</time>
      </trkpt>
      <trkpt lat="46.6535" lon="5.78416">
        <ele>554.4</ele>
        <time>2020-02-28T12:25:51Z</time>
      </trkpt>
      <trkpt lat="46.65351" lon="5.7842">
        <ele>554.6</ele>
        <time>2020-02-28T12:25:52Z</time>
      </trkpt>
      <trkpt lat="46.65351" lon="5.78423">
        <ele>554.6</ele>
        <time>2020-02-28T12:25:53Z</time>
      </trkpt>
      <trkpt lat="46.65352" lon="5.78427">
        <ele>555</ele>
        <time>2020-02-28T12:25:54Z</time>
      </trkpt>
      <trkpt lat="46.65353" lon="5.7843">
        <ele>555</ele>
        <time>2020-02-28T12:25:55Z</time>
      </trkpt>
      <trkpt lat="46.65354" lon="5.78434">
        <ele>555.4</ele>
        <time>2020-02-28T12:25:56Z</time>
      </trkpt>
      <trkpt lat="46.65355" lon="5.78438">
        <ele>555.4</ele>
        <time>2020-02-28T12:25:57Z</time>
      </trkpt>
      <trkpt lat="46.65356" lon="5.78441">
        <ele>555.8</ele>
        <time>2020-02-28T12:25:58Z</time>
      </trkpt>
      <trkpt lat="46.65357" lon="5.78444">
        <ele>556</ele>
        <time>2020-02-28T12:25:59Z</time>
      </trkpt>
      <trkpt lat="46.65357" lon="5.78448">
        <ele>556.2</ele>
        <time>2020-02-28T12:26:00Z</time>
      </trkpt>
      <trkpt lat="46.65358" lon="5.78452">
        <ele>556.4</ele>
        <time>2020-02-28T12:26:01Z</time>
      </trkpt>
      <trkpt lat="46.65359" lon="5.78456">
        <ele>556.6</ele>
        <time>2020-02-28T12:26:02Z</time>
      </trkpt>
      <trkpt lat="46.65359" lon="5.7846">
        <ele>556.8</ele>
        <time>2020-02-28T12:26:03Z</time>
      </trkpt>
      <trkpt lat="46.6536" lon="5.78464">
        <ele>556.8</ele>
        <time>2020-02-28T12:26:04Z</time>
      </trkpt>
      <trkpt lat="46.65361" lon="5.78468">
        <ele>557.2</ele>
        <time>2020-02-28T12:26:05Z</time>
      </trkpt>
      <trkpt lat="46.65362" lon="5.78472">
        <ele>557.4</ele>
        <time>2020-02-28T12:26:06Z</time>
      </trkpt>
      <trkpt lat="46.65363" lon="5.78475">
        <ele>557.6</ele>
        <time>2020-02-28T12:26:07Z</time>
      </trkpt>
      <trkpt lat="46.65364" lon="5.78479">
        <ele>557.8</ele>
        <time>2020-02-28T12:26:08Z</time>
      </trkpt>
      <trkpt lat="46.65365" lon="5.78482">
        <ele>558.2</ele>
        <time>2020-02-28T12:26:09Z</time>
      </trkpt>
      <trkpt lat="46.65366" lon="5.78485">
        <ele>558.2</ele>
        <time>2020-02-28T12:26:10Z</time>
      </trkpt>
      <trkpt lat="46.65367" lon="5.78488">
        <ele>558.4</ele>
        <time>2020-02-28T12:26:11Z</time>
      </trkpt>
      <trkpt lat="46.65368" lon="5.78492">
        <ele>558.4</ele>
        <time>2020-02-28T12:26:12Z</time>
      </trkpt>
      <trkpt lat="46.65369" lon="5.78496">
        <ele>558.8</ele>
        <time>2020-02-28T12:26:13Z</time>
      </trkpt>
      <trkpt lat="46.65369" lon="5.78499">
        <ele>559</ele>
        <time>2020-02-28T12:26:14Z</time>
      </trkpt>
      <trkpt lat="46.6537" lon="5.78503">
        <ele>559.2</ele>
        <time>2020-02-28T12:26:15Z</time>
      </trkpt>
      <trkpt lat="46.65371" lon="5.78507">
        <ele>559.4</ele>
        <time>2020-02-28T12:26:16Z</time>
      </trkpt>
      <trkpt lat="46.65371" lon="5.78511">
        <ele>559.6</ele>
        <time>2020-02-28T12:26:17Z</time>
      </trkpt>
      <trkpt lat="46.65372" lon="5.78514">
        <ele>559.6</ele>
        <time>2020-02-28T12:26:18Z</time>
      </trkpt>
      <trkpt lat="46.65373" lon="5.78517">
        <ele>560</ele>
        <time>2020-02-28T12:26:19Z</time>
      </trkpt>
      <trkpt lat="46.65375" lon="5.7852">
        <ele>560</ele>
        <time>2020-02-28T12:26:20Z</time>
      </trkpt>
      <trkpt lat="46.65376" lon="5.78523">
        <ele>560.2</ele>
        <time>2020-02-28T12:26:21Z</time>
      </trkpt>
      <trkpt lat="46.65377" lon="5.78526">
        <ele>560.2</ele>
        <time>2020-02-28T12:26:22Z</time>
      </trkpt>
      <trkpt lat="46.65378" lon="5.78529">
        <ele>560.6</ele>
        <time>2020-02-28T12:26:23Z</time>
      </trkpt>
      <trkpt lat="46.65378" lon="5.78532">
        <ele>560.6</ele>
        <time>2020-02-28T12:26:24Z</time>
      </trkpt>
      <trkpt lat="46.65379" lon="5.78534">
        <ele>561</ele>
        <time>2020-02-28T12:26:25Z</time>
      </trkpt>
      <trkpt lat="46.6538" lon="5.78537">
        <ele>561.2</ele>
        <time>2020-02-28T12:26:26Z</time>
      </trkpt>
      <trkpt lat="46.65381" lon="5.78541">
        <ele>561.4</ele>
        <time>2020-02-28T12:26:27Z</time>
      </trkpt>
      <trkpt lat="46.65382" lon="5.78543">
        <ele>561.8</ele>
        <time>2020-02-28T12:26:28Z</time>
      </trkpt>
      <trkpt lat="46.65383" lon="5.78547">
        <ele>561.8</ele>
        <time>2020-02-28T12:26:29Z</time>
      </trkpt>
      <trkpt lat="46.65384" lon="5.7855">
        <ele>562.2</ele>
        <time>2020-02-28T12:26:30Z</time>
      </trkpt>
      <trkpt lat="46.65385" lon="5.78553">
        <ele>562.2</ele>
        <time>2020-02-28T12:26:31Z</time>
      </trkpt>
      <trkpt lat="46.65386" lon="5.78557">
        <ele>562.4</ele>
        <time>2020-02-28T12:26:32Z</time>
      </trkpt>
      <trkpt lat="46.65387" lon="5.7856">
        <ele>562.8</ele>
        <time>2020-02-28T12:26:33Z</time>
      </trkpt>
      <trkpt lat="46.65387" lon="5.78563">
        <ele>563</ele>
        <time>2020-02-28T12:26:34Z</time>
      </trkpt>
      <trkpt lat="46.65388" lon="5.78566">
        <ele>563</ele>
        <time>2020-02-28T12:26:35Z</time>
      </trkpt>
      <trkpt lat="46.65389" lon="5.78569">
        <ele>563.2</ele>
        <time>2020-02-28T12:26:36Z</time>
      </trkpt>
      <trkpt lat="46.6539" lon="5.78573">
        <ele>563.6</ele>
        <time>2020-02-28T12:26:37Z</time>
      </trkpt>
      <trkpt lat="46.6539" lon="5.78577">
        <ele>563.6</ele>
        <time>2020-02-28T12:26:38Z</time>
      </trkpt>
      <trkpt lat="46.65391" lon="5.7858">
        <ele>563.8</ele>
        <time>2020-02-28T12:26:39Z</time>
      </trkpt>
      <trkpt lat="46.65391" lon="5.78583">
        <ele>564</ele>
        <time>2020-02-28T12:26:40Z</time>
      </trkpt>
      <trkpt lat="46.65392" lon="5.78586">
        <ele>564</ele>
        <time>2020-02-28T12:26:41Z</time>
      </trkpt>
      <trkpt lat="46.65393" lon="5.78589">
        <ele>564.2</ele>
        <time>2020-02-28T12:26:42Z</time>
      </trkpt>
      <trkpt lat="46.65394" lon="5.78592">
        <ele>564.2</ele>
        <time>2020-02-28T12:26:43Z</time>
      </trkpt>
      <trkpt lat="46.65395" lon="5.78594">
        <ele>564.2</ele>
        <time>2020-02-28T12:26:44Z</time>
      </trkpt>
      <trkpt lat="46.65396" lon="5.78597">
        <ele>564.6</ele>
        <time>2020-02-28T12:26:45Z</time>
      </trkpt>
      <trkpt lat="46.65397" lon="5.78599">
        <ele>564.6</ele>
        <time>2020-02-28T12:26:46Z</time>
      </trkpt>
      <trkpt lat="46.65398" lon="5.78602">
        <ele>564.8</ele>
        <time>2020-02-28T12:26:47Z</time>
      </trkpt>
      <trkpt lat="46.65399" lon="5.78605">
        <ele>564.8</ele>
        <time>2020-02-28T12:26:48Z</time>
      </trkpt>
      <trkpt lat="46.654" lon="5.78608">
        <ele>565.2</ele>
        <time>2020-02-28T12:26:49Z</time>
      </trkpt>
      <trkpt lat="46.65401" lon="5.78612">
        <ele>565.2</ele>
        <time>2020-02-28T12:26:50Z</time>
      </trkpt>
      <trkpt lat="46.65402" lon="5.78615">
        <ele>565.4</ele>
        <time>2020-02-28T12:26:51Z</time>
      </trkpt>
      <trkpt lat="46.65403" lon="5.78619">
        <ele>565.4</ele>
        <time>2020-02-28T12:26:52Z</time>
      </trkpt>
      <trkpt lat="46.65404" lon="5.78622">
        <ele>565.8</ele>
        <time>2020-02-28T12:26:53Z</time>
      </trkpt>
      <trkpt lat="46.65404" lon="5.78626">
        <ele>565.8</ele>
        <time>2020-02-28T12:26:54Z</time>
      </trkpt>
      <trkpt lat="46.65405" lon="5.7863">
        <ele>566.2</ele>
        <time>2020-02-28T12:26:55Z</time>
      </trkpt>
      <trkpt lat="46.65406" lon="5.78633">
        <ele>566.2</ele>
        <time>2020-02-28T12:26:56Z</time>
      </trkpt>
      <trkpt lat="46.65407" lon="5.78637">
        <ele>566.4</ele>
        <time>2020-02-28T12:26:57Z</time>
      </trkpt>
      <trkpt lat="46.65408" lon="5.7864">
        <ele>566.4</ele>
        <time>2020-02-28T12:26:58Z</time>
      </trkpt>
      <trkpt lat="46.65409" lon="5.78643">
        <ele>566.8</ele>
        <time>2020-02-28T12:26:59Z</time>
      </trkpt>
      <trkpt lat="46.6541" lon="5.78645">
        <ele>566.8</ele>
        <time>2020-02-28T12:27:00Z</time>
      </trkpt>
      <trkpt lat="46.6541" lon="5.78649">
        <ele>567</ele>
        <time>2020-02-28T12:27:01Z</time>
      </trkpt>
      <trkpt lat="46.65411" lon="5.78652">
        <ele>567</ele>
        <time>2020-02-28T12:27:02Z</time>
      </trkpt>
      <trkpt lat="46.65412" lon="5.78656">
        <ele>567.4</ele>
        <time>2020-02-28T12:27:03Z</time>
      </trkpt>
      <trkpt lat="46.65412" lon="5.78659">
        <ele>567.4</ele>
        <time>2020-02-28T12:27:04Z</time>
      </trkpt>
      <trkpt lat="46.65413" lon="5.78662">
        <ele>567.8</ele>
        <time>2020-02-28T12:27:05Z</time>
      </trkpt>
      <trkpt lat="46.65414" lon="5.78665">
        <ele>567.8</ele>
        <time>2020-02-28T12:27:06Z</time>
      </trkpt>
      <trkpt lat="46.65415" lon="5.78668">
        <ele>568</ele>
        <time>2020-02-28T12:27:07Z</time>
      </trkpt>
      <trkpt lat="46.65416" lon="5.78671">
        <ele>568</ele>
        <time>2020-02-28T12:27:08Z</time>
      </trkpt>
      <trkpt lat="46.65417" lon="5.78674">
        <ele>568.2</ele>
        <time>2020-02-28T12:27:09Z</time>
      </trkpt>
      <trkpt lat="46.65417" lon="5.78678">
        <ele>568.2</ele>
        <time>2020-02-28T12:27:10Z</time>
      </trkpt>
      <trkpt lat="46.65418" lon="5.78681">
        <ele>568.6</ele>
        <time>2020-02-28T12:27:11Z</time>
      </trkpt>
      <trkpt lat="46.65418" lon="5.78684">
        <ele>568.6</ele>
        <time>2020-02-28T12:27:12Z</time>
      </trkpt>
      <trkpt lat="46.65419" lon="5.78688">
        <ele>569</ele>
        <time>2020-02-28T12:27:13Z</time>
      </trkpt>
      <trkpt lat="46.6542" lon="5.7869">
        <ele>569.2</ele>
        <time>2020-02-28T12:27:14Z</time>
      </trkpt>
      <trkpt lat="46.65421" lon="5.78693">
        <ele>569.2</ele>
        <time>2020-02-28T12:27:15Z</time>
      </trkpt>
      <trkpt lat="46.65422" lon="5.78697">
        <ele>569.6</ele>
        <time>2020-02-28T12:27:16Z</time>
      </trkpt>
      <trkpt lat="46.65423" lon="5.787">
        <ele>570</ele>
        <time>2020-02-28T12:27:17Z</time>
      </trkpt>
      <trkpt lat="46.65424" lon="5.78703">
        <ele>570</ele>
        <time>2020-02-28T12:27:18Z</time>
      </trkpt>
      <trkpt lat="46.65424" lon="5.78706">
        <ele>570.2</ele>
        <time>2020-02-28T12:27:19Z</time>
      </trkpt>
      <trkpt lat="46.65425" lon="5.7871">
        <ele>570.2</ele>
        <time>2020-02-28T12:27:20Z</time>
      </trkpt>
      <trkpt lat="46.65426" lon="5.78713">
        <ele>570.4</ele>
        <time>2020-02-28T12:27:21Z</time>
      </trkpt>
      <trkpt lat="46.65427" lon="5.78716">
        <ele>570.4</ele>
        <time>2020-02-28T12:27:22Z</time>
      </trkpt>
      <trkpt lat="46.65427" lon="5.7872">
        <ele>570.8</ele>
        <time>2020-02-28T12:27:23Z</time>
      </trkpt>
      <trkpt lat="46.65428" lon="5.78723">
        <ele>570.8</ele>
        <time>2020-02-28T12:27:24Z</time>
      </trkpt>
      <trkpt lat="46.65428" lon="5.78727">
        <ele>571</ele>
        <time>2020-02-28T12:27:25Z</time>
      </trkpt>
      <trkpt lat="46.65429" lon="5.7873">
        <ele>571</ele>
        <time>2020-02-28T12:27:26Z</time>
      </trkpt>
      <trkpt lat="46.6543" lon="5.78734">
        <ele>571.4</ele>
        <time>2020-02-28T12:27:27Z</time>
      </trkpt>
      <trkpt lat="46.65431" lon="5.78737">
        <ele>571.4</ele>
        <time>2020-02-28T12:27:28Z</time>
      </trkpt>
      <trkpt lat="46.65431" lon="5.78741">
        <ele>571.6</ele>
        <time>2020-02-28T12:27:29Z</time>
      </trkpt>
      <trkpt lat="46.65432" lon="5.78744">
        <ele>571.6</ele>
        <time>2020-02-28T12:27:30Z</time>
      </trkpt>
      <trkpt lat="46.65432" lon="5.78747">
        <ele>571.8</ele>
        <time>2020-02-28T12:27:31Z</time>
      </trkpt>
      <trkpt lat="46.65433" lon="5.78751">
        <ele>571.8</ele>
        <time>2020-02-28T12:27:32Z</time>
      </trkpt>
      <trkpt lat="46.65434" lon="5.78754">
        <ele>572</ele>
        <time>2020-02-28T12:27:33Z</time>
      </trkpt>
      <trkpt lat="46.65434" lon="5.78757">
        <ele>572</ele>
        <time>2020-02-28T12:27:34Z</time>
      </trkpt>
      <trkpt lat="46.65435" lon="5.7876">
        <ele>572.4</ele>
        <time>2020-02-28T12:27:35Z</time>
      </trkpt>
      <trkpt lat="46.65436" lon="5.78762">
        <ele>572.4</ele>
        <time>2020-02-28T12:27:36Z</time>
      </trkpt>
      <trkpt lat="46.65436" lon="5.78766">
        <ele>572.6</ele>
        <time>2020-02-28T12:27:37Z</time>
      </trkpt>
      <trkpt lat="46.65437" lon="5.78769">
        <ele>572.6</ele>
        <time>2020-02-28T12:27:38Z</time>
      </trkpt>
      <trkpt lat="46.65437" lon="5.78772">
        <ele>573</ele>
        <time>2020-02-28T12:27:39Z</time>
      </trkpt>
      <trkpt lat="46.65438" lon="5.78775">
        <ele>573</ele>
        <time>2020-02-28T12:27:40Z</time>
      </trkpt>
      <trkpt lat="46.65439" lon="5.78779">
        <ele>573.2</ele>
        <time>2020-02-28T12:27:41Z</time>
      </trkpt>
      <trkpt lat="46.65439" lon="5.78782">
        <ele>573.2</ele>
        <time>2020-02-28T12:27:42Z</time>
      </trkpt>
      <trkpt lat="46.6544" lon="5.78785">
        <ele>573.2</ele>
        <time>2020-02-28T12:27:43Z</time>
      </trkpt>
      <trkpt lat="46.65441" lon="5.78788">
        <ele>573.4</ele>
        <time>2020-02-28T12:27:44Z</time>
      </trkpt>
      <trkpt lat="46.65442" lon="5.78792">
        <ele>573.8</ele>
        <time>2020-02-28T12:27:45Z</time>
      </trkpt>
      <trkpt lat="46.65442" lon="5.78795">
        <ele>573.8</ele>
        <time>2020-02-28T12:27:46Z</time>
      </trkpt>
      <trkpt lat="46.65443" lon="5.78798">
        <ele>574.2</ele>
        <time>2020-02-28T12:27:47Z</time>
      </trkpt>
      <trkpt lat="46.65444" lon="5.78801">
        <ele>574.2</ele>
        <time>2020-02-28T12:27:48Z</time>
      </trkpt>
      <trkpt lat="46.65444" lon="5.78804">
        <ele>574.4</ele>
        <time>2020-02-28T12:27:49Z</time>
      </trkpt>
      <trkpt lat="46.65445" lon="5.78807">
        <ele>574.4</ele>
        <time>2020-02-28T12:27:50Z</time>
      </trkpt>
      <trkpt lat="46.65446" lon="5.78809">
        <ele>574.8</ele>
        <time>2020-02-28T12:27:51Z</time>
      </trkpt>
      <trkpt lat="46.65446" lon="5.78812">
        <ele>574.8</ele>
        <time>2020-02-28T12:27:52Z</time>
      </trkpt>
      <trkpt lat="46.65447" lon="5.78815">
        <ele>575.2</ele>
        <time>2020-02-28T12:27:53Z</time>
      </trkpt>
      <trkpt lat="46.65447" lon="5.78818">
        <ele>575.2</ele>
        <time>2020-02-28T12:27:54Z</time>
      </trkpt>
      <trkpt lat="46.65448" lon="5.78821">
        <ele>575.2</ele>
        <time>2020-02-28T12:27:55Z</time>
      </trkpt>
      <trkpt lat="46.65449" lon="5.78824">
        <ele>575.4</ele>
        <time>2020-02-28T12:27:56Z</time>
      </trkpt>
      <trkpt lat="46.6545" lon="5.78827">
        <ele>575.4</ele>
        <time>2020-02-28T12:27:57Z</time>
      </trkpt>
      <trkpt lat="46.6545" lon="5.7883">
        <ele>575.6</ele>
        <time>2020-02-28T12:27:58Z</time>
      </trkpt>
      <trkpt lat="46.65451" lon="5.78833">
        <ele>575.6</ele>
        <time>2020-02-28T12:27:59Z</time>
      </trkpt>
      <trkpt lat="46.65452" lon="5.78837">
        <ele>576</ele>
        <time>2020-02-28T12:28:00Z</time>
      </trkpt>
      <trkpt lat="46.65452" lon="5.7884">
        <ele>576</ele>
        <time>2020-02-28T12:28:01Z</time>
      </trkpt>
      <trkpt lat="46.65453" lon="5.78843">
        <ele>576.4</ele>
        <time>2020-02-28T12:28:02Z</time>
      </trkpt>
      <trkpt lat="46.65454" lon="5.78846">
        <ele>576.4</ele>
        <time>2020-02-28T12:28:03Z</time>
      </trkpt>
      <trkpt lat="46.65454" lon="5.7885">
        <ele>576.6</ele>
        <time>2020-02-28T12:28:04Z</time>
      </trkpt>
      <trkpt lat="46.65455" lon="5.78853">
        <ele>576.6</ele>
        <time>2020-02-28T12:28:05Z</time>
      </trkpt>
      <trkpt lat="46.65455" lon="5.78856">
        <ele>577</ele>
        <time>2020-02-28T12:28:06Z</time>
      </trkpt>
      <trkpt lat="46.65456" lon="5.78859">
        <ele>577.2</ele>
        <time>2020-02-28T12:28:07Z</time>
      </trkpt>
      <trkpt lat="46.65457" lon="5.78863">
        <ele>577.2</ele>
        <time>2020-02-28T12:28:08Z</time>
      </trkpt>
      <trkpt lat="46.65457" lon="5.78865">
        <ele>577.6</ele>
        <time>2020-02-28T12:28:09Z</time>
      </trkpt>
      <trkpt lat="46.65458" lon="5.78868">
        <ele>577.6</ele>
        <time>2020-02-28T12:28:10Z</time>
      </trkpt>
      <trkpt lat="46.65459" lon="5.78871">
        <ele>578</ele>
        <time>2020-02-28T12:28:11Z</time>
      </trkpt>
      <trkpt lat="46.65459" lon="5.78873">
        <ele>578</ele>
        <time>2020-02-28T12:28:12Z</time>
      </trkpt>
      <trkpt lat="46.6546" lon="5.78876">
        <ele>578.2</ele>
        <time>2020-02-28T12:28:13Z</time>
      </trkpt>
      <trkpt lat="46.65461" lon="5.78878">
        <ele>578.2</ele>
        <time>2020-02-28T12:28:14Z</time>
      </trkpt>
      <trkpt lat="46.65461" lon="5.78881">
        <ele>578.6</ele>
        <time>2020-02-28T12:28:15Z</time>
      </trkpt>
      <trkpt lat="46.65462" lon="5.78884">
        <ele>578.6</ele>
        <time>2020-02-28T12:28:16Z</time>
      </trkpt>
      <trkpt lat="46.65463" lon="5.78887">
        <ele>578.8</ele>
        <time>2020-02-28T12:28:17Z</time>
      </trkpt>
      <trkpt lat="46.65463" lon="5.7889">
        <ele>579</ele>
        <time>2020-02-28T12:28:18Z</time>
      </trkpt>
      <trkpt lat="46.65464" lon="5.78893">
        <ele>579.2</ele>
        <time>2020-02-28T12:28:19Z</time>
      </trkpt>
      <trkpt lat="46.65464" lon="5.78896">
        <ele>579.4</ele>
        <time>2020-02-28T12:28:20Z</time>
      </trkpt>
      <trkpt lat="46.65465" lon="5.78899">
        <ele>579.6</ele>
        <time>2020-02-28T12:28:21Z</time>
      </trkpt>
      <trkpt lat="46.65466" lon="5.78901">
        <ele>579.6</ele>
        <time>2020-02-28T12:28:22Z</time>
      </trkpt>
      <trkpt lat="46.65467" lon="5.78904">
        <ele>580</ele>
        <time>2020-02-28T12:28:23Z</time>
      </trkpt>
      <trkpt lat="46.65468" lon="5.78907">
        <ele>580</ele>
        <time>2020-02-28T12:28:24Z</time>
      </trkpt>
      <trkpt lat="46.6547" lon="5.7891">
        <ele>580.4</ele>
        <time>2020-02-28T12:28:25Z</time>
      </trkpt>
      <trkpt lat="46.65471" lon="5.78913">
        <ele>580.6</ele>
        <time>2020-02-28T12:28:26Z</time>
      </trkpt>
      <trkpt lat="46.65472" lon="5.78915">
        <ele>580.6</ele>
        <time>2020-02-28T12:28:27Z</time>
      </trkpt>
      <trkpt lat="46.65473" lon="5.78918">
        <ele>581</ele>
        <time>2020-02-28T12:28:28Z</time>
      </trkpt>
      <trkpt lat="46.65475" lon="5.78921">
        <ele>581</ele>
        <time>2020-02-28T12:28:29Z</time>
      </trkpt>
      <trkpt lat="46.65476" lon="5.78924">
        <ele>581.4</ele>
        <time>2020-02-28T12:28:30Z</time>
      </trkpt>
      <trkpt lat="46.65477" lon="5.78927">
        <ele>581.4</ele>
        <time>2020-02-28T12:28:31Z</time>
      </trkpt>
      <trkpt lat="46.65478" lon="5.78929">
        <ele>581.6</ele>
        <time>2020-02-28T12:28:32Z</time>
      </trkpt>
      <trkpt lat="46.6548" lon="5.78932">
        <ele>581.6</ele>
        <time>2020-02-28T12:28:33Z</time>
      </trkpt>
      <trkpt lat="46.65481" lon="5.78934">
        <ele>582</ele>
        <time>2020-02-28T12:28:34Z</time>
      </trkpt>
      <trkpt lat="46.65482" lon="5.78937">
        <ele>582</ele>
        <time>2020-02-28T12:28:35Z</time>
      </trkpt>
      <trkpt lat="46.65483" lon="5.78941">
        <ele>582.2</ele>
        <time>2020-02-28T12:28:36Z</time>
      </trkpt>
      <trkpt lat="46.65485" lon="5.78944">
        <ele>582.2</ele>
        <time>2020-02-28T12:28:37Z</time>
      </trkpt>
      <trkpt lat="46.65486" lon="5.78946">
        <ele>582.6</ele>
        <time>2020-02-28T12:28:38Z</time>
      </trkpt>
      <trkpt lat="46.65487" lon="5.78949">
        <ele>582.6</ele>
        <time>2020-02-28T12:28:39Z</time>
      </trkpt>
      <trkpt lat="46.65489" lon="5.78952">
        <ele>583</ele>
        <time>2020-02-28T12:28:40Z</time>
      </trkpt>
      <trkpt lat="46.6549" lon="5.78954">
        <ele>583</ele>
        <time>2020-02-28T12:28:41Z</time>
      </trkpt>
      <trkpt lat="46.65491" lon="5.78957">
        <ele>583.2</ele>
        <time>2020-02-28T12:28:42Z</time>
      </trkpt>
      <trkpt lat="46.65493" lon="5.7896">
        <ele>583.2</ele>
        <time>2020-02-28T12:28:43Z</time>
      </trkpt>
      <trkpt lat="46.65494" lon="5.78962">
        <ele>583.6</ele>
        <time>2020-02-28T12:28:44Z</time>
      </trkpt>
      <trkpt lat="46.65496" lon="5.78964">
        <ele>583.6</ele>
        <time>2020-02-28T12:28:45Z</time>
      </trkpt>
      <trkpt lat="46.65498" lon="5.78967">
        <ele>583.8</ele>
        <time>2020-02-28T12:28:46Z</time>
      </trkpt>
      <trkpt lat="46.65499" lon="5.7897">
        <ele>583.8</ele>
        <time>2020-02-28T12:28:47Z</time>
      </trkpt>
      <trkpt lat="46.65501" lon="5.78972">
        <ele>584.2</ele>
        <time>2020-02-28T12:28:48Z</time>
      </trkpt>
      <trkpt lat="46.65503" lon="5.78975">
        <ele>584.4</ele>
        <time>2020-02-28T12:28:49Z</time>
      </trkpt>
      <trkpt lat="46.65504" lon="5.78977">
        <ele>584.6</ele>
        <time>2020-02-28T12:28:50Z</time>
      </trkpt>
      <trkpt lat="46.65506" lon="5.78979">
        <ele>584.6</ele>
        <time>2020-02-28T12:28:51Z</time>
      </trkpt>
      <trkpt lat="46.65508" lon="5.78981">
        <ele>585</ele>
        <time>2020-02-28T12:28:52Z</time>
      </trkpt>
      <trkpt lat="46.6551" lon="5.78984">
        <ele>585</ele>
        <time>2020-02-28T12:28:53Z</time>
      </trkpt>
      <trkpt lat="46.65512" lon="5.78986">
        <ele>585.2</ele>
        <time>2020-02-28T12:28:54Z</time>
      </trkpt>
      <trkpt lat="46.65513" lon="5.78988">
        <ele>585.2</ele>
        <time>2020-02-28T12:28:55Z</time>
      </trkpt>
      <trkpt lat="46.65515" lon="5.7899">
        <ele>585.6</ele>
        <time>2020-02-28T12:28:56Z</time>
      </trkpt>
      <trkpt lat="46.65517" lon="5.78992">
        <ele>585.6</ele>
        <time>2020-02-28T12:28:57Z</time>
      </trkpt>
      <trkpt lat="46.65518" lon="5.78994">
        <ele>586</ele>
        <time>2020-02-28T12:28:58Z</time>
      </trkpt>
      <trkpt lat="46.6552" lon="5.78996">
        <ele>586.2</ele>
        <time>2020-02-28T12:28:59Z</time>
      </trkpt>
      <trkpt lat="46.65522" lon="5.78998">
        <ele>586.4</ele>
        <time>2020-02-28T12:29:00Z</time>
      </trkpt>
      <trkpt lat="46.65523" lon="5.78999">
        <ele>586.8</ele>
        <time>2020-02-28T12:29:01Z</time>
      </trkpt>
      <trkpt lat="46.65525" lon="5.79001">
        <ele>586.8</ele>
        <time>2020-02-28T12:29:02Z</time>
      </trkpt>
      <trkpt lat="46.65527" lon="5.79003">
        <ele>587</ele>
        <time>2020-02-28T12:29:03Z</time>
      </trkpt>
      <trkpt lat="46.65528" lon="5.79005">
        <ele>587</ele>
        <time>2020-02-28T12:29:04Z</time>
      </trkpt>
      <trkpt lat="46.6553" lon="5.79006">
        <ele>587.2</ele>
        <time>2020-02-28T12:29:05Z</time>
      </trkpt>
      <trkpt lat="46.65531" lon="5.79008">
        <ele>587.2</ele>
        <time>2020-02-28T12:29:06Z</time>
      </trkpt>
      <trkpt lat="46.65533" lon="5.79009">
        <ele>587.6</ele>
        <time>2020-02-28T12:29:07Z</time>
      </trkpt>
      <trkpt lat="46.65534" lon="5.79011">
        <ele>587.8</ele>
        <time>2020-02-28T12:29:08Z</time>
      </trkpt>
      <trkpt lat="46.65536" lon="5.79012">
        <ele>588</ele>
        <time>2020-02-28T12:29:09Z</time>
      </trkpt>
      <trkpt lat="46.65537" lon="5.79013">
        <ele>588</ele>
        <time>2020-02-28T12:29:10Z</time>
      </trkpt>
      <trkpt lat="46.65539" lon="5.79014">
        <ele>588.4</ele>
        <time>2020-02-28T12:29:11Z</time>
      </trkpt>
      <trkpt lat="46.6554" lon="5.79015">
        <ele>588.4</ele>
        <time>2020-02-28T12:29:12Z</time>
      </trkpt>
      <trkpt lat="46.65542" lon="5.79016">
        <ele>588.6</ele>
        <time>2020-02-28T12:29:13Z</time>
      </trkpt>
      <trkpt lat="46.65543" lon="5.79017">
        <ele>588.6</ele>
        <time>2020-02-28T12:29:14Z</time>
      </trkpt>
      <trkpt lat="46.65545" lon="5.79017">
        <ele>588.8</ele>
        <time>2020-02-28T12:29:15Z</time>
      </trkpt>
      <trkpt lat="46.65547" lon="5.79018">
        <ele>588.8</ele>
        <time>2020-02-28T12:29:16Z</time>
      </trkpt>
      <trkpt lat="46.65548" lon="5.7902">
        <ele>589.2</ele>
        <time>2020-02-28T12:29:17Z</time>
      </trkpt>
      <trkpt lat="46.6555" lon="5.79022">
        <ele>589.2</ele>
        <time>2020-02-28T12:29:18Z</time>
      </trkpt>
      <trkpt lat="46.65552" lon="5.79024">
        <ele>589.4</ele>
        <time>2020-02-28T12:29:19Z</time>
      </trkpt>
      <trkpt lat="46.65554" lon="5.79026">
        <ele>589.4</ele>
        <time>2020-02-28T12:29:20Z</time>
      </trkpt>
      <trkpt lat="46.65556" lon="5.79028">
        <ele>589.8</ele>
        <time>2020-02-28T12:29:21Z</time>
      </trkpt>
      <trkpt lat="46.65559" lon="5.7903">
        <ele>589.8</ele>
        <time>2020-02-28T12:29:22Z</time>
      </trkpt>
      <trkpt lat="46.65561" lon="5.79032">
        <ele>590</ele>
        <time>2020-02-28T12:29:23Z</time>
      </trkpt>
      <trkpt lat="46.65563" lon="5.79035">
        <ele>590</ele>
        <time>2020-02-28T12:29:24Z</time>
      </trkpt>
      <trkpt lat="46.65565" lon="5.79037">
        <ele>590.2</ele>
        <time>2020-02-28T12:29:25Z</time>
      </trkpt>
      <trkpt lat="46.65567" lon="5.7904">
        <ele>590.6</ele>
        <time>2020-02-28T12:29:26Z</time>
      </trkpt>
      <trkpt lat="46.65568" lon="5.79042">
        <ele>590.6</ele>
        <time>2020-02-28T12:29:27Z</time>
      </trkpt>
      <trkpt lat="46.6557" lon="5.79045">
        <ele>590.8</ele>
        <time>2020-02-28T12:29:28Z</time>
      </trkpt>
      <trkpt lat="46.65572" lon="5.79047">
        <ele>590.8</ele>
        <time>2020-02-28T12:29:29Z</time>
      </trkpt>
      <trkpt lat="46.65574" lon="5.79049">
        <ele>591</ele>
        <time>2020-02-28T12:29:30Z</time>
      </trkpt>
      <trkpt lat="46.65576" lon="5.79052">
        <ele>591</ele>
        <time>2020-02-28T12:29:31Z</time>
      </trkpt>
      <trkpt lat="46.65577" lon="5.79054">
        <ele>591.2</ele>
        <time>2020-02-28T12:29:32Z</time>
      </trkpt>
      <trkpt lat="46.65578" lon="5.79057">
        <ele>591.2</ele>
        <time>2020-02-28T12:29:33Z</time>
      </trkpt>
      <trkpt lat="46.6558" lon="5.79059">
        <ele>591.2</ele>
        <time>2020-02-28T12:29:34Z</time>
      </trkpt>
      <trkpt lat="46.65581" lon="5.79062">
        <ele>591.6</ele>
        <time>2020-02-28T12:29:35Z</time>
      </trkpt>
      <trkpt lat="46.65582" lon="5.79065">
        <ele>591.6</ele>
        <time>2020-02-28T12:29:36Z</time>
      </trkpt>
      <trkpt lat="46.65583" lon="5.79068">
        <ele>592</ele>
        <time>2020-02-28T12:29:37Z</time>
      </trkpt>
      <trkpt lat="46.65584" lon="5.79072">
        <ele>592.2</ele>
        <time>2020-02-28T12:29:38Z</time>
      </trkpt>
      <trkpt lat="46.65585" lon="5.79075">
        <ele>592.4</ele>
        <time>2020-02-28T12:29:39Z</time>
      </trkpt>
      <trkpt lat="46.65586" lon="5.79078">
        <ele>592.4</ele>
        <time>2020-02-28T12:29:40Z</time>
      </trkpt>
      <trkpt lat="46.65587" lon="5.79081">
        <ele>592.8</ele>
        <time>2020-02-28T12:29:41Z</time>
      </trkpt>
      <trkpt lat="46.65588" lon="5.79084">
        <ele>592.8</ele>
        <time>2020-02-28T12:29:42Z</time>
      </trkpt>
      <trkpt lat="46.6559" lon="5.79087">
        <ele>593</ele>
        <time>2020-02-28T12:29:43Z</time>
      </trkpt>
      <trkpt lat="46.65591" lon="5.7909">
        <ele>593</ele>
        <time>2020-02-28T12:29:44Z</time>
      </trkpt>
      <trkpt lat="46.65592" lon="5.79093">
        <ele>593.4</ele>
        <time>2020-02-28T12:29:45Z</time>
      </trkpt>
      <trkpt lat="46.65593" lon="5.79096">
        <ele>593.4</ele>
        <time>2020-02-28T12:29:46Z</time>
      </trkpt>
      <trkpt lat="46.65595" lon="5.791">
        <ele>593.6</ele>
        <time>2020-02-28T12:29:47Z</time>
      </trkpt>
      <trkpt lat="46.65596" lon="5.79103">
        <ele>593.6</ele>
        <time>2020-02-28T12:29:48Z</time>
      </trkpt>
      <trkpt lat="46.65598" lon="5.79106">
        <ele>593.8</ele>
        <time>2020-02-28T12:29:49Z</time>
      </trkpt>
      <trkpt lat="46.65599" lon="5.79109">
        <ele>593.8</ele>
        <time>2020-02-28T12:29:50Z</time>
      </trkpt>
      <trkpt lat="46.656" lon="5.79112">
        <ele>594.2</ele>
        <time>2020-02-28T12:29:51Z</time>
      </trkpt>
      <trkpt lat="46.65601" lon="5.79115">
        <ele>594.2</ele>
        <time>2020-02-28T12:29:52Z</time>
      </trkpt>
      <trkpt lat="46.65603" lon="5.79119">
        <ele>594.4</ele>
        <time>2020-02-28T12:29:53Z</time>
      </trkpt>
      <trkpt lat="46.65604" lon="5.79121">
        <ele>594.4</ele>
        <time>2020-02-28T12:29:54Z</time>
      </trkpt>
      <trkpt lat="46.65605" lon="5.79124">
        <ele>594.4</ele>
        <time>2020-02-28T12:29:55Z</time>
      </trkpt>
      <trkpt lat="46.65606" lon="5.79127">
        <ele>594.6</ele>
        <time>2020-02-28T12:29:56Z</time>
      </trkpt>
      <trkpt lat="46.65607" lon="5.79131">
        <ele>594.6</ele>
        <time>2020-02-28T12:29:57Z</time>
      </trkpt>
      <trkpt lat="46.65608" lon="5.79134">
        <ele>594.6</ele>
        <time>2020-02-28T12:29:58Z</time>
      </trkpt>
      <trkpt lat="46.6561" lon="5.79138">
        <ele>594.8</ele>
        <time>2020-02-28T12:29:59Z</time>
      </trkpt>
      <trkpt lat="46.65611" lon="5.79141">
        <ele>594.8</ele>
        <time>2020-02-28T12:30:00Z</time>
      </trkpt>
      <trkpt lat="46.65612" lon="5.79145">
        <ele>594.8</ele>
        <time>2020-02-28T12:30:01Z</time>
      </trkpt>
      <trkpt lat="46.65614" lon="5.79149">
        <ele>595</ele>
        <time>2020-02-28T12:30:02Z</time>
      </trkpt>
      <trkpt lat="46.65615" lon="5.79153">
        <ele>595</ele>
        <time>2020-02-28T12:30:03Z</time>
      </trkpt>
      <trkpt lat="46.65617" lon="5.79157">
        <ele>595.4</ele>
        <time>2020-02-28T12:30:04Z</time>
      </trkpt>
      <trkpt lat="46.65618" lon="5.79161">
        <ele>595.4</ele>
        <time>2020-02-28T12:30:05Z</time>
      </trkpt>
      <trkpt lat="46.6562" lon="5.79165">
        <ele>595.6</ele>
        <time>2020-02-28T12:30:06Z</time>
      </trkpt>
      <trkpt lat="46.65621" lon="5.7917">
        <ele>595.6</ele>
        <time>2020-02-28T12:30:07Z</time>
      </trkpt>
      <trkpt lat="46.65622" lon="5.79174">
        <ele>595.8</ele>
        <time>2020-02-28T12:30:08Z</time>
      </trkpt>
      <trkpt lat="46.65623" lon="5.79179">
        <ele>595.8</ele>
        <time>2020-02-28T12:30:09Z</time>
      </trkpt>
      <trkpt lat="46.65624" lon="5.79184">
        <ele>595.8</ele>
        <time>2020-02-28T12:30:10Z</time>
      </trkpt>
      <trkpt lat="46.65626" lon="5.79189">
        <ele>595.8</ele>
        <time>2020-02-28T12:30:11Z</time>
      </trkpt>
      <trkpt lat="46.65627" lon="5.79194">
        <ele>595.8</ele>
        <time>2020-02-28T12:30:12Z</time>
      </trkpt>
      <trkpt lat="46.65628" lon="5.79199">
        <ele>595.8</ele>
        <time>2020-02-28T12:30:13Z</time>
      </trkpt>
      <trkpt lat="46.65628" lon="5.79204">
        <ele>595.8</ele>
        <time>2020-02-28T12:30:14Z</time>
      </trkpt>
      <trkpt lat="46.65629" lon="5.7921">
        <ele>596</ele>
        <time>2020-02-28T12:30:15Z</time>
      </trkpt>
      <trkpt lat="46.65629" lon="5.79216">
        <ele>596</ele>
        <time>2020-02-28T12:30:16Z</time>
      </trkpt>
      <trkpt lat="46.6563" lon="5.79221">
        <ele>596</ele>
        <time>2020-02-28T12:30:17Z</time>
      </trkpt>
      <trkpt lat="46.6563" lon="5.79227">
        <ele>596</ele>
        <time>2020-02-28T12:30:18Z</time>
      </trkpt>
      <trkpt lat="46.6563" lon="5.79233">
        <ele>596</ele>
        <time>2020-02-28T12:30:19Z</time>
      </trkpt>
      <trkpt lat="46.65631" lon="5.79238">
        <ele>596.2</ele>
        <time>2020-02-28T12:30:20Z</time>
      </trkpt>
      <trkpt lat="46.65631" lon="5.79244">
        <ele>596.2</ele>
        <time>2020-02-28T12:30:21Z</time>
      </trkpt>
      <trkpt lat="46.65632" lon="5.7925">
        <ele>596.2</ele>
        <time>2020-02-28T12:30:22Z</time>
      </trkpt>
      <trkpt lat="46.65632" lon="5.79255">
        <ele>596.6</ele>
        <time>2020-02-28T12:30:23Z</time>
      </trkpt>
      <trkpt lat="46.65632" lon="5.79261">
        <ele>596.6</ele>
        <time>2020-02-28T12:30:24Z</time>
      </trkpt>
      <trkpt lat="46.65633" lon="5.79267">
        <ele>596.8</ele>
        <time>2020-02-28T12:30:25Z</time>
      </trkpt>
      <trkpt lat="46.65633" lon="5.79273">
        <ele>596.8</ele>
        <time>2020-02-28T12:30:26Z</time>
      </trkpt>
      <trkpt lat="46.65633" lon="5.79279">
        <ele>596.8</ele>
        <time>2020-02-28T12:30:27Z</time>
      </trkpt>
      <trkpt lat="46.65633" lon="5.79284">
        <ele>597</ele>
        <time>2020-02-28T12:30:28Z</time>
      </trkpt>
      <trkpt lat="46.65634" lon="5.7929">
        <ele>597</ele>
        <time>2020-02-28T12:30:29Z</time>
      </trkpt>
      <trkpt lat="46.65634" lon="5.79296">
        <ele>597</ele>
        <time>2020-02-28T12:30:30Z</time>
      </trkpt>
      <trkpt lat="46.65634" lon="5.79302">
        <ele>597</ele>
        <time>2020-02-28T12:30:31Z</time>
      </trkpt>
      <trkpt lat="46.65634" lon="5.79307">
        <ele>597</ele>
        <time>2020-02-28T12:30:32Z</time>
      </trkpt>
      <trkpt lat="46.65635" lon="5.79313">
        <ele>597</ele>
        <time>2020-02-28T12:30:33Z</time>
      </trkpt>
      <trkpt lat="46.65635" lon="5.79319">
        <ele>597.4</ele>
        <time>2020-02-28T12:30:34Z</time>
      </trkpt>
      <trkpt lat="46.65635" lon="5.79325">
        <ele>597.4</ele>
        <time>2020-02-28T12:30:35Z</time>
      </trkpt>
      <trkpt lat="46.65635" lon="5.7933">
        <ele>597.4</ele>
        <time>2020-02-28T12:30:36Z</time>
      </trkpt>
      <trkpt lat="46.65636" lon="5.79336">
        <ele>597.4</ele>
        <time>2020-02-28T12:30:37Z</time>
      </trkpt>
      <trkpt lat="46.65636" lon="5.79342">
        <ele>597.6</ele>
        <time>2020-02-28T12:30:38Z</time>
      </trkpt>
      <trkpt lat="46.65636" lon="5.79348">
        <ele>597.6</ele>
        <time>2020-02-28T12:30:39Z</time>
      </trkpt>
      <trkpt lat="46.65636" lon="5.79353">
        <ele>597.6</ele>
        <time>2020-02-28T12:30:40Z</time>
      </trkpt>
      <trkpt lat="46.65636" lon="5.79359">
        <ele>597.8</ele>
        <time>2020-02-28T12:30:41Z</time>
      </trkpt>
      <trkpt lat="46.65635" lon="5.79365">
        <ele>597.8</ele>
        <time>2020-02-28T12:30:42Z</time>
      </trkpt>
      <trkpt lat="46.65635" lon="5.79371">
        <ele>598</ele>
        <time>2020-02-28T12:30:43Z</time>
      </trkpt>
      <trkpt lat="46.65635" lon="5.79376">
        <ele>598</ele>
        <time>2020-02-28T12:30:44Z</time>
      </trkpt>
      <trkpt lat="46.65635" lon="5.79382">
        <ele>598</ele>
        <time>2020-02-28T12:30:45Z</time>
      </trkpt>
      <trkpt lat="46.65635" lon="5.79387">
        <ele>598.4</ele>
        <time>2020-02-28T12:30:46Z</time>
      </trkpt>
      <trkpt lat="46.65635" lon="5.79392">
        <ele>598.4</ele>
        <time>2020-02-28T12:30:47Z</time>
      </trkpt>
      <trkpt lat="46.65634" lon="5.79397">
        <ele>598.4</ele>
        <time>2020-02-28T12:30:48Z</time>
      </trkpt>
      <trkpt lat="46.65634" lon="5.79403">
        <ele>598.6</ele>
        <time>2020-02-28T12:30:49Z</time>
      </trkpt>
      <trkpt lat="46.65634" lon="5.79408">
        <ele>598.6</ele>
        <time>2020-02-28T12:30:50Z</time>
      </trkpt>
      <trkpt lat="46.65634" lon="5.79413">
        <ele>598.8</ele>
        <time>2020-02-28T12:30:51Z</time>
      </trkpt>
      <trkpt lat="46.65635" lon="5.79419">
        <ele>598.8</ele>
        <time>2020-02-28T12:30:52Z</time>
      </trkpt>
      <trkpt lat="46.65635" lon="5.79424">
        <ele>599.2</ele>
        <time>2020-02-28T12:30:53Z</time>
      </trkpt>
      <trkpt lat="46.65635" lon="5.79429">
        <ele>599.2</ele>
        <time>2020-02-28T12:30:54Z</time>
      </trkpt>
      <trkpt lat="46.65635" lon="5.79434">
        <ele>599.4</ele>
        <time>2020-02-28T12:30:55Z</time>
      </trkpt>
      <trkpt lat="46.65635" lon="5.79439">
        <ele>599.4</ele>
        <time>2020-02-28T12:30:56Z</time>
      </trkpt>
      <trkpt lat="46.65635" lon="5.79445">
        <ele>599.4</ele>
        <time>2020-02-28T12:30:57Z</time>
      </trkpt>
      <trkpt lat="46.65635" lon="5.7945">
        <ele>599.6</ele>
        <time>2020-02-28T12:30:58Z</time>
      </trkpt>
      <trkpt lat="46.65635" lon="5.79456">
        <ele>599.6</ele>
        <time>2020-02-28T12:30:59Z</time>
      </trkpt>
      <trkpt lat="46.65635" lon="5.79461">
        <ele>599.8</ele>
        <time>2020-02-28T12:31:00Z</time>
      </trkpt>
      <trkpt lat="46.65635" lon="5.79467">
        <ele>599.8</ele>
        <time>2020-02-28T12:31:01Z</time>
      </trkpt>
      <trkpt lat="46.65635" lon="5.79473">
        <ele>600</ele>
        <time>2020-02-28T12:31:02Z</time>
      </trkpt>
      <trkpt lat="46.65635" lon="5.79479">
        <ele>600</ele>
        <time>2020-02-28T12:31:03Z</time>
      </trkpt>
      <trkpt lat="46.65636" lon="5.79485">
        <ele>600</ele>
        <time>2020-02-28T12:31:04Z</time>
      </trkpt>
      <trkpt lat="46.65636" lon="5.79491">
        <ele>600.2</ele>
        <time>2020-02-28T12:31:05Z</time>
      </trkpt>
      <trkpt lat="46.65636" lon="5.79497">
        <ele>600.2</ele>
        <time>2020-02-28T12:31:06Z</time>
      </trkpt>
      <trkpt lat="46.65637" lon="5.79503">
        <ele>600.2</ele>
        <time>2020-02-28T12:31:07Z</time>
      </trkpt>
      <trkpt lat="46.65637" lon="5.79509">
        <ele>600.4</ele>
        <time>2020-02-28T12:31:08Z</time>
      </trkpt>
      <trkpt lat="46.65637" lon="5.79516">
        <ele>600.4</ele>
        <time>2020-02-28T12:31:09Z</time>
      </trkpt>
      <trkpt lat="46.65638" lon="5.79523">
        <ele>600.8</ele>
        <time>2020-02-28T12:31:10Z</time>
      </trkpt>
      <trkpt lat="46.65638" lon="5.79529">
        <ele>600.8</ele>
        <time>2020-02-28T12:31:11Z</time>
      </trkpt>
      <trkpt lat="46.65639" lon="5.79536">
        <ele>600.8</ele>
        <time>2020-02-28T12:31:12Z</time>
      </trkpt>
      <trkpt lat="46.6564" lon="5.79542">
        <ele>600.8</ele>
        <time>2020-02-28T12:31:13Z</time>
      </trkpt>
      <trkpt lat="46.65641" lon="5.79549">
        <ele>601</ele>
        <time>2020-02-28T12:31:14Z</time>
      </trkpt>
      <trkpt lat="46.65642" lon="5.79555">
        <ele>601</ele>
        <time>2020-02-28T12:31:15Z</time>
      </trkpt>
      <trkpt lat="46.65642" lon="5.79562">
        <ele>601</ele>
        <time>2020-02-28T12:31:16Z</time>
      </trkpt>
      <trkpt lat="46.65643" lon="5.79569">
        <ele>601.2</ele>
        <time>2020-02-28T12:31:17Z</time>
      </trkpt>
      <trkpt lat="46.65644" lon="5.79575">
        <ele>601.2</ele>
        <time>2020-02-28T12:31:18Z</time>
      </trkpt>
      <trkpt lat="46.65645" lon="5.79581">
        <ele>601.2</ele>
        <time>2020-02-28T12:31:19Z</time>
      </trkpt>
      <trkpt lat="46.65646" lon="5.79588">
        <ele>601.2</ele>
        <time>2020-02-28T12:31:20Z</time>
      </trkpt>
      <trkpt lat="46.65647" lon="5.79594">
        <ele>601.4</ele>
        <time>2020-02-28T12:31:21Z</time>
      </trkpt>
      <trkpt lat="46.65648" lon="5.796">
        <ele>601.4</ele>
        <time>2020-02-28T12:31:22Z</time>
      </trkpt>
      <trkpt lat="46.6565" lon="5.79606">
        <ele>601.4</ele>
        <time>2020-02-28T12:31:23Z</time>
      </trkpt>
      <trkpt lat="46.65651" lon="5.79613">
        <ele>601.4</ele>
        <time>2020-02-28T12:31:24Z</time>
      </trkpt>
      <trkpt lat="46.65652" lon="5.79619">
        <ele>601.6</ele>
        <time>2020-02-28T12:31:25Z</time>
      </trkpt>
      <trkpt lat="46.65653" lon="5.79625">
        <ele>601.6</ele>
        <time>2020-02-28T12:31:26Z</time>
      </trkpt>
      <trkpt lat="46.65653" lon="5.79631">
        <ele>601.6</ele>
        <time>2020-02-28T12:31:27Z</time>
      </trkpt>
      <trkpt lat="46.65654" lon="5.79637">
        <ele>601.6</ele>
        <time>2020-02-28T12:31:28Z</time>
      </trkpt>
      <trkpt lat="46.65655" lon="5.79644">
        <ele>601.6</ele>
        <time>2020-02-28T12:31:29Z</time>
      </trkpt>
      <trkpt lat="46.65656" lon="5.79649">
        <ele>602</ele>
        <time>2020-02-28T12:31:30Z</time>
      </trkpt>
      <trkpt lat="46.65657" lon="5.79655">
        <ele>602</ele>
        <time>2020-02-28T12:31:31Z</time>
      </trkpt>
      <trkpt lat="46.65658" lon="5.79661">
        <ele>602</ele>
        <time>2020-02-28T12:31:32Z</time>
      </trkpt>
      <trkpt lat="46.65659" lon="5.79667">
        <ele>602.2</ele>
        <time>2020-02-28T12:31:33Z</time>
      </trkpt>
      <trkpt lat="46.65661" lon="5.79673">
        <ele>602.2</ele>
        <time>2020-02-28T12:31:34Z</time>
      </trkpt>
      <trkpt lat="46.65662" lon="5.79679">
        <ele>602.4</ele>
        <time>2020-02-28T12:31:35Z</time>
      </trkpt>
      <trkpt lat="46.65663" lon="5.79684">
        <ele>602.4</ele>
        <time>2020-02-28T12:31:36Z</time>
      </trkpt>
      <trkpt lat="46.65664" lon="5.7969">
        <ele>602.4</ele>
        <time>2020-02-28T12:31:37Z</time>
      </trkpt>
      <trkpt lat="46.65665" lon="5.79696">
        <ele>602.6</ele>
        <time>2020-02-28T12:31:38Z</time>
      </trkpt>
      <trkpt lat="46.65666" lon="5.79702">
        <ele>602.6</ele>
        <time>2020-02-28T12:31:39Z</time>
      </trkpt>
      <trkpt lat="46.65667" lon="5.79708">
        <ele>603</ele>
        <time>2020-02-28T12:31:40Z</time>
      </trkpt>
      <trkpt lat="46.65668" lon="5.79714">
        <ele>603</ele>
        <time>2020-02-28T12:31:41Z</time>
      </trkpt>
      <trkpt lat="46.65669" lon="5.7972">
        <ele>603.2</ele>
        <time>2020-02-28T12:31:42Z</time>
      </trkpt>
      <trkpt lat="46.65671" lon="5.79726">
        <ele>603.2</ele>
        <time>2020-02-28T12:31:43Z</time>
      </trkpt>
      <trkpt lat="46.65672" lon="5.79732">
        <ele>603.6</ele>
        <time>2020-02-28T12:31:44Z</time>
      </trkpt>
      <trkpt lat="46.65673" lon="5.79738">
        <ele>603.6</ele>
        <time>2020-02-28T12:31:45Z</time>
      </trkpt>
      <trkpt lat="46.65674" lon="5.79744">
        <ele>603.8</ele>
        <time>2020-02-28T12:31:46Z</time>
      </trkpt>
      <trkpt lat="46.65675" lon="5.7975">
        <ele>603.8</ele>
        <time>2020-02-28T12:31:47Z</time>
      </trkpt>
      <trkpt lat="46.65676" lon="5.79756">
        <ele>603.8</ele>
        <time>2020-02-28T12:31:48Z</time>
      </trkpt>
      <trkpt lat="46.65677" lon="5.79761">
        <ele>603.8</ele>
        <time>2020-02-28T12:31:49Z</time>
      </trkpt>
      <trkpt lat="46.65678" lon="5.79767">
        <ele>604.2</ele>
        <time>2020-02-28T12:31:50Z</time>
      </trkpt>
      <trkpt lat="46.65679" lon="5.79773">
        <ele>604.2</ele>
        <time>2020-02-28T12:31:51Z</time>
      </trkpt>
      <trkpt lat="46.6568" lon="5.79778">
        <ele>604.4</ele>
        <time>2020-02-28T12:31:52Z</time>
      </trkpt>
      <trkpt lat="46.65681" lon="5.79784">
        <ele>604.4</ele>
        <time>2020-02-28T12:31:53Z</time>
      </trkpt>
      <trkpt lat="46.65682" lon="5.7979">
        <ele>604.8</ele>
        <time>2020-02-28T12:31:54Z</time>
      </trkpt>
      <trkpt lat="46.65683" lon="5.79795">
        <ele>604.8</ele>
        <time>2020-02-28T12:31:55Z</time>
      </trkpt>
      <trkpt lat="46.65685" lon="5.79801">
        <ele>604.8</ele>
        <time>2020-02-28T12:31:56Z</time>
      </trkpt>
      <trkpt lat="46.65686" lon="5.79806">
        <ele>605</ele>
        <time>2020-02-28T12:31:57Z</time>
      </trkpt>
      <trkpt lat="46.65686" lon="5.79812">
        <ele>605</ele>
        <time>2020-02-28T12:31:58Z</time>
      </trkpt>
      <trkpt lat="46.65688" lon="5.79817">
        <ele>605.4</ele>
        <time>2020-02-28T12:31:59Z</time>
      </trkpt>
      <trkpt lat="46.65689" lon="5.79823">
        <ele>605.4</ele>
        <time>2020-02-28T12:32:00Z</time>
      </trkpt>
      <trkpt lat="46.6569" lon="5.79828">
        <ele>605.6</ele>
        <time>2020-02-28T12:32:01Z</time>
      </trkpt>
      <trkpt lat="46.65692" lon="5.79834">
        <ele>605.6</ele>
        <time>2020-02-28T12:32:02Z</time>
      </trkpt>
      <trkpt lat="46.65693" lon="5.79839">
        <ele>606</ele>
        <time>2020-02-28T12:32:03Z</time>
      </trkpt>
      <trkpt lat="46.65694" lon="5.79845">
        <ele>606</ele>
        <time>2020-02-28T12:32:04Z</time>
      </trkpt>
      <trkpt lat="46.65695" lon="5.79851">
        <ele>606.2</ele>
        <time>2020-02-28T12:32:05Z</time>
      </trkpt>
      <trkpt lat="46.65695" lon="5.79856">
        <ele>606.2</ele>
        <time>2020-02-28T12:32:06Z</time>
      </trkpt>
      <trkpt lat="46.65696" lon="5.79862">
        <ele>606.4</ele>
        <time>2020-02-28T12:32:07Z</time>
      </trkpt>
      <trkpt lat="46.65697" lon="5.79867">
        <ele>606.4</ele>
        <time>2020-02-28T12:32:08Z</time>
      </trkpt>
      <trkpt lat="46.65698" lon="5.79873">
        <ele>606.8</ele>
        <time>2020-02-28T12:32:09Z</time>
      </trkpt>
      <trkpt lat="46.65698" lon="5.79878">
        <ele>606.8</ele>
        <time>2020-02-28T12:32:10Z</time>
      </trkpt>
      <trkpt lat="46.65698" lon="5.79884">
        <ele>607.2</ele>
        <time>2020-02-28T12:32:11Z</time>
      </trkpt>
      <trkpt lat="46.65698" lon="5.7989">
        <ele>607.2</ele>
        <time>2020-02-28T12:32:12Z</time>
      </trkpt>
      <trkpt lat="46.65698" lon="5.79895">
        <ele>607.4</ele>
        <time>2020-02-28T12:32:13Z</time>
      </trkpt>
      <trkpt lat="46.65698" lon="5.79901">
        <ele>607.4</ele>
        <time>2020-02-28T12:32:14Z</time>
      </trkpt>
      <trkpt lat="46.65699" lon="5.79907">
        <ele>607.6</ele>
        <time>2020-02-28T12:32:15Z</time>
      </trkpt>
      <trkpt lat="46.65699" lon="5.79912">
        <ele>607.6</ele>
        <time>2020-02-28T12:32:16Z</time>
      </trkpt>
      <trkpt lat="46.65699" lon="5.79918">
        <ele>607.8</ele>
        <time>2020-02-28T12:32:17Z</time>
      </trkpt>
      <trkpt lat="46.65699" lon="5.79923">
        <ele>607.8</ele>
        <time>2020-02-28T12:32:18Z</time>
      </trkpt>
      <trkpt lat="46.65699" lon="5.79928">
        <ele>608.2</ele>
        <time>2020-02-28T12:32:19Z</time>
      </trkpt>
      <trkpt lat="46.65699" lon="5.79934">
        <ele>608.2</ele>
        <time>2020-02-28T12:32:20Z</time>
      </trkpt>
      <trkpt lat="46.65698" lon="5.79939">
        <ele>608.6</ele>
        <time>2020-02-28T12:32:21Z</time>
      </trkpt>
      <trkpt lat="46.65698" lon="5.79944">
        <ele>608.8</ele>
        <time>2020-02-28T12:32:22Z</time>
      </trkpt>
      <trkpt lat="46.65698" lon="5.79949">
        <ele>609</ele>
        <time>2020-02-28T12:32:23Z</time>
      </trkpt>
      <trkpt lat="46.65698" lon="5.79954">
        <ele>609.2</ele>
        <time>2020-02-28T12:32:24Z</time>
      </trkpt>
      <trkpt lat="46.65698" lon="5.79959">
        <ele>609.2</ele>
        <time>2020-02-28T12:32:25Z</time>
      </trkpt>
      <trkpt lat="46.65698" lon="5.79964">
        <ele>609.6</ele>
        <time>2020-02-28T12:32:26Z</time>
      </trkpt>
      <trkpt lat="46.65698" lon="5.79969">
        <ele>609.8</ele>
        <time>2020-02-28T12:32:27Z</time>
      </trkpt>
      <trkpt lat="46.65698" lon="5.79974">
        <ele>610.2</ele>
        <time>2020-02-28T12:32:28Z</time>
      </trkpt>
      <trkpt lat="46.65698" lon="5.79979">
        <ele>610.4</ele>
        <time>2020-02-28T12:32:29Z</time>
      </trkpt>
      <trkpt lat="46.65697" lon="5.79984">
        <ele>610.4</ele>
        <time>2020-02-28T12:32:30Z</time>
      </trkpt>
      <trkpt lat="46.65697" lon="5.79989">
        <ele>610.8</ele>
        <time>2020-02-28T12:32:31Z</time>
      </trkpt>
      <trkpt lat="46.65698" lon="5.79993">
        <ele>611</ele>
        <time>2020-02-28T12:32:32Z</time>
      </trkpt>
      <trkpt lat="46.65698" lon="5.79998">
        <ele>611.2</ele>
        <time>2020-02-28T12:32:33Z</time>
      </trkpt>
      <trkpt lat="46.65698" lon="5.80003">
        <ele>611.4</ele>
        <time>2020-02-28T12:32:34Z</time>
      </trkpt>
      <trkpt lat="46.65698" lon="5.80007">
        <ele>611.4</ele>
        <time>2020-02-28T12:32:35Z</time>
      </trkpt>
      <trkpt lat="46.65697" lon="5.80012">
        <ele>611.6</ele>
        <time>2020-02-28T12:32:36Z</time>
      </trkpt>
      <trkpt lat="46.65697" lon="5.80017">
        <ele>611.6</ele>
        <time>2020-02-28T12:32:37Z</time>
      </trkpt>
      <trkpt lat="46.65697" lon="5.80021">
        <ele>612</ele>
        <time>2020-02-28T12:32:38Z</time>
      </trkpt>
      <trkpt lat="46.65697" lon="5.80026">
        <ele>612</ele>
        <time>2020-02-28T12:32:39Z</time>
      </trkpt>
      <trkpt lat="46.65697" lon="5.8003">
        <ele>612.2</ele>
        <time>2020-02-28T12:32:40Z</time>
      </trkpt>
      <trkpt lat="46.65697" lon="5.80034">
        <ele>612.2</ele>
        <time>2020-02-28T12:32:41Z</time>
      </trkpt>
      <trkpt lat="46.65697" lon="5.80038">
        <ele>612.6</ele>
        <time>2020-02-28T12:32:42Z</time>
      </trkpt>
      <trkpt lat="46.65697" lon="5.80042">
        <ele>612.6</ele>
        <time>2020-02-28T12:32:43Z</time>
      </trkpt>
      <trkpt lat="46.65697" lon="5.80046">
        <ele>612.8</ele>
        <time>2020-02-28T12:32:44Z</time>
      </trkpt>
      <trkpt lat="46.65697" lon="5.8005">
        <ele>612.8</ele>
        <time>2020-02-28T12:32:45Z</time>
      </trkpt>
      <trkpt lat="46.65697" lon="5.80054">
        <ele>613.2</ele>
        <time>2020-02-28T12:32:46Z</time>
      </trkpt>
      <trkpt lat="46.65697" lon="5.80058">
        <ele>613.4</ele>
        <time>2020-02-28T12:32:47Z</time>
      </trkpt>
      <trkpt lat="46.65697" lon="5.80063">
        <ele>613.4</ele>
        <time>2020-02-28T12:32:48Z</time>
      </trkpt>
      <trkpt lat="46.65697" lon="5.80066">
        <ele>613.6</ele>
        <time>2020-02-28T12:32:49Z</time>
      </trkpt>
      <trkpt lat="46.65697" lon="5.8007">
        <ele>613.6</ele>
        <time>2020-02-28T12:32:50Z</time>
      </trkpt>
      <trkpt lat="46.65697" lon="5.80074">
        <ele>613.8</ele>
        <time>2020-02-28T12:32:51Z</time>
      </trkpt>
      <trkpt lat="46.65697" lon="5.80077">
        <ele>613.8</ele>
        <time>2020-02-28T12:32:52Z</time>
      </trkpt>
      <trkpt lat="46.65696" lon="5.80081">
        <ele>613.8</ele>
        <time>2020-02-28T12:32:53Z</time>
      </trkpt>
      <trkpt lat="46.65696" lon="5.80084">
        <ele>614</ele>
        <time>2020-02-28T12:32:54Z</time>
      </trkpt>
      <trkpt lat="46.65696" lon="5.80088">
        <ele>614</ele>
        <time>2020-02-28T12:32:55Z</time>
      </trkpt>
      <trkpt lat="46.65696" lon="5.80092">
        <ele>614</ele>
        <time>2020-02-28T12:32:56Z</time>
      </trkpt>
      <trkpt lat="46.65696" lon="5.80096">
        <ele>614.2</ele>
        <time>2020-02-28T12:32:57Z</time>
      </trkpt>
      <trkpt lat="46.65696" lon="5.801">
        <ele>614.2</ele>
        <time>2020-02-28T12:32:58Z</time>
      </trkpt>
      <trkpt lat="46.65696" lon="5.80103">
        <ele>614.2</ele>
        <time>2020-02-28T12:32:59Z</time>
      </trkpt>
      <trkpt lat="46.65696" lon="5.80107">
        <ele>614.2</ele>
        <time>2020-02-28T12:33:00Z</time>
      </trkpt>
      <trkpt lat="46.65696" lon="5.8011">
        <ele>614.2</ele>
        <time>2020-02-28T12:33:01Z</time>
      </trkpt>
      <trkpt lat="46.65696" lon="5.80114">
        <ele>614.6</ele>
        <time>2020-02-28T12:33:02Z</time>
      </trkpt>
      <trkpt lat="46.65696" lon="5.80119">
        <ele>614.6</ele>
        <time>2020-02-28T12:33:03Z</time>
      </trkpt>
      <trkpt lat="46.65696" lon="5.80123">
        <ele>614.6</ele>
        <time>2020-02-28T12:33:04Z</time>
      </trkpt>
      <trkpt lat="46.65696" lon="5.80128">
        <ele>614.6</ele>
        <time>2020-02-28T12:33:05Z</time>
      </trkpt>
      <trkpt lat="46.65696" lon="5.80132">
        <ele>614.6</ele>
        <time>2020-02-28T12:33:06Z</time>
      </trkpt>
      <trkpt lat="46.65696" lon="5.80137">
        <ele>614.6</ele>
        <time>2020-02-28T12:33:07Z</time>
      </trkpt>
      <trkpt lat="46.65696" lon="5.80142">
        <ele>614.6</ele>
        <time>2020-02-28T12:33:08Z</time>
      </trkpt>
      <trkpt lat="46.65696" lon="5.80147">
        <ele>614.6</ele>
        <time>2020-02-28T12:33:09Z</time>
      </trkpt>
      <trkpt lat="46.65696" lon="5.80153">
        <ele>614.6</ele>
        <time>2020-02-28T12:33:10Z</time>
      </trkpt>
      <trkpt lat="46.65696" lon="5.80158">
        <ele>614.6</ele>
        <time>2020-02-28T12:33:11Z</time>
      </trkpt>
      <trkpt lat="46.65696" lon="5.80163">
        <ele>614.6</ele>
        <time>2020-02-28T12:33:12Z</time>
      </trkpt>
      <trkpt lat="46.65696" lon="5.80168">
        <ele>614.6</ele>
        <time>2020-02-28T12:33:13Z</time>
      </trkpt>
      <trkpt lat="46.65696" lon="5.80174">
        <ele>614.6</ele>
        <time>2020-02-28T12:33:14Z</time>
      </trkpt>
      <trkpt lat="46.65696" lon="5.80179">
        <ele>614.6</ele>
        <time>2020-02-28T12:33:15Z</time>
      </trkpt>
      <trkpt lat="46.65696" lon="5.80185">
        <ele>614.6</ele>
        <time>2020-02-28T12:33:16Z</time>
      </trkpt>
      <trkpt lat="46.65696" lon="5.80191">
        <ele>614.6</ele>
        <time>2020-02-28T12:33:17Z</time>
      </trkpt>
      <trkpt lat="46.65696" lon="5.80197">
        <ele>614.6</ele>
        <time>2020-02-28T12:33:18Z</time>
      </trkpt>
      <trkpt lat="46.65696" lon="5.80203">
        <ele>614.6</ele>
        <time>2020-02-28T12:33:19Z</time>
      </trkpt>
      <trkpt lat="46.65696" lon="5.80209">
        <ele>614.6</ele>
        <time>2020-02-28T12:33:20Z</time>
      </trkpt>
      <trkpt lat="46.65696" lon="5.80215">
        <ele>614.6</ele>
        <time>2020-02-28T12:33:21Z</time>
      </trkpt>
      <trkpt lat="46.65696" lon="5.80221">
        <ele>614.8</ele>
        <time>2020-02-28T12:33:22Z</time>
      </trkpt>
      <trkpt lat="46.65696" lon="5.80228">
        <ele>614.8</ele>
        <time>2020-02-28T12:33:23Z</time>
      </trkpt>
      <trkpt lat="46.65696" lon="5.80234">
        <ele>614.8</ele>
        <time>2020-02-28T12:33:24Z</time>
      </trkpt>
      <trkpt lat="46.65696" lon="5.80241">
        <ele>614.8</ele>
        <time>2020-02-28T12:33:25Z</time>
      </trkpt>
      <trkpt lat="46.65696" lon="5.80247">
        <ele>614.8</ele>
        <time>2020-02-28T12:33:26Z</time>
      </trkpt>
      <trkpt lat="46.65696" lon="5.80253">
        <ele>614.8</ele>
        <time>2020-02-28T12:33:27Z</time>
      </trkpt>
      <trkpt lat="46.65696" lon="5.8026">
        <ele>614.8</ele>
        <time>2020-02-28T12:33:28Z</time>
      </trkpt>
      <trkpt lat="46.65696" lon="5.80267">
        <ele>614.8</ele>
        <time>2020-02-28T12:33:29Z</time>
      </trkpt>
      <trkpt lat="46.65696" lon="5.80274">
        <ele>614.8</ele>
        <time>2020-02-28T12:33:30Z</time>
      </trkpt>
      <trkpt lat="46.65696" lon="5.80281">
        <ele>614.8</ele>
        <time>2020-02-28T12:33:31Z</time>
      </trkpt>
      <trkpt lat="46.65696" lon="5.80288">
        <ele>614.8</ele>
        <time>2020-02-28T12:33:32Z</time>
      </trkpt>
      <trkpt lat="46.65695" lon="5.80295">
        <ele>614.8</ele>
        <time>2020-02-28T12:33:33Z</time>
      </trkpt>
      <trkpt lat="46.65695" lon="5.80302">
        <ele>614.8</ele>
        <time>2020-02-28T12:33:34Z</time>
      </trkpt>
      <trkpt lat="46.65695" lon="5.80309">
        <ele>614.6</ele>
        <time>2020-02-28T12:33:35Z</time>
      </trkpt>
      <trkpt lat="46.65694" lon="5.80316">
        <ele>614.6</ele>
        <time>2020-02-28T12:33:36Z</time>
      </trkpt>
      <trkpt lat="46.65693" lon="5.80323">
        <ele>614.6</ele>
        <time>2020-02-28T12:33:37Z</time>
      </trkpt>
      <trkpt lat="46.65693" lon="5.80331">
        <ele>614.6</ele>
        <time>2020-02-28T12:33:38Z</time>
      </trkpt>
      <trkpt lat="46.65692" lon="5.80338">
        <ele>614.6</ele>
        <time>2020-02-28T12:33:39Z</time>
      </trkpt>
      <trkpt lat="46.65691" lon="5.80346">
        <ele>614.6</ele>
        <time>2020-02-28T12:33:40Z</time>
      </trkpt>
      <trkpt lat="46.65691" lon="5.80354">
        <ele>614.6</ele>
        <time>2020-02-28T12:33:41Z</time>
      </trkpt>
      <trkpt lat="46.6569" lon="5.80362">
        <ele>614.6</ele>
        <time>2020-02-28T12:33:42Z</time>
      </trkpt>
      <trkpt lat="46.65689" lon="5.8037">
        <ele>614.6</ele>
        <time>2020-02-28T12:33:43Z</time>
      </trkpt>
      <trkpt lat="46.65688" lon="5.80379">
        <ele>614.2</ele>
        <time>2020-02-28T12:33:44Z</time>
      </trkpt>
      <trkpt lat="46.65687" lon="5.80388">
        <ele>614.2</ele>
        <time>2020-02-28T12:33:45Z</time>
      </trkpt>
      <trkpt lat="46.65685" lon="5.80396">
        <ele>613.8</ele>
        <time>2020-02-28T12:33:46Z</time>
      </trkpt>
      <trkpt lat="46.65684" lon="5.80406">
        <ele>613.8</ele>
        <time>2020-02-28T12:33:47Z</time>
      </trkpt>
      <trkpt lat="46.65683" lon="5.80415">
        <ele>613.6</ele>
        <time>2020-02-28T12:33:48Z</time>
      </trkpt>
      <trkpt lat="46.65682" lon="5.80425">
        <ele>613.6</ele>
        <time>2020-02-28T12:33:49Z</time>
      </trkpt>
      <trkpt lat="46.65681" lon="5.80435">
        <ele>613.4</ele>
        <time>2020-02-28T12:33:50Z</time>
      </trkpt>
      <trkpt lat="46.6568" lon="5.80445">
        <ele>613</ele>
        <time>2020-02-28T12:33:51Z</time>
      </trkpt>
      <trkpt lat="46.65678" lon="5.80456">
        <ele>612.8</ele>
        <time>2020-02-28T12:33:52Z</time>
      </trkpt>
      <trkpt lat="46.65677" lon="5.80466">
        <ele>612.4</ele>
        <time>2020-02-28T12:33:53Z</time>
      </trkpt>
      <trkpt lat="46.65676" lon="5.80477">
        <ele>612.2</ele>
        <time>2020-02-28T12:33:54Z</time>
      </trkpt>
      <trkpt lat="46.65674" lon="5.80488">
        <ele>611.8</ele>
        <time>2020-02-28T12:33:55Z</time>
      </trkpt>
      <trkpt lat="46.65673" lon="5.80499">
        <ele>611.6</ele>
        <time>2020-02-28T12:33:56Z</time>
      </trkpt>
      <trkpt lat="46.65672" lon="5.8051">
        <ele>611.2</ele>
        <time>2020-02-28T12:33:57Z</time>
      </trkpt>
      <trkpt lat="46.65671" lon="5.80522">
        <ele>611</ele>
        <time>2020-02-28T12:33:58Z</time>
      </trkpt>
      <trkpt lat="46.6567" lon="5.80533">
        <ele>610.8</ele>
        <time>2020-02-28T12:33:59Z</time>
      </trkpt>
      <trkpt lat="46.65669" lon="5.80544">
        <ele>610.8</ele>
        <time>2020-02-28T12:34:00Z</time>
      </trkpt>
      <trkpt lat="46.65669" lon="5.80556">
        <ele>610.6</ele>
        <time>2020-02-28T12:34:01Z</time>
      </trkpt>
      <trkpt lat="46.6567" lon="5.80567">
        <ele>610.6</ele>
        <time>2020-02-28T12:34:02Z</time>
      </trkpt>
      <trkpt lat="46.65672" lon="5.80579">
        <ele>610.2</ele>
        <time>2020-02-28T12:34:03Z</time>
      </trkpt>
      <trkpt lat="46.65674" lon="5.8059">
        <ele>610.2</ele>
        <time>2020-02-28T12:34:04Z</time>
      </trkpt>
      <trkpt lat="46.65677" lon="5.80602">
        <ele>610.2</ele>
        <time>2020-02-28T12:34:05Z</time>
      </trkpt>
      <trkpt lat="46.65679" lon="5.80614">
        <ele>609.8</ele>
        <time>2020-02-28T12:34:06Z</time>
      </trkpt>
      <trkpt lat="46.65681" lon="5.80625">
        <ele>609.6</ele>
        <time>2020-02-28T12:34:07Z</time>
      </trkpt>
      <trkpt lat="46.65684" lon="5.80637">
        <ele>609.2</ele>
        <time>2020-02-28T12:34:08Z</time>
      </trkpt>
      <trkpt lat="46.65686" lon="5.8065">
        <ele>609</ele>
        <time>2020-02-28T12:34:09Z</time>
      </trkpt>
      <trkpt lat="46.65688" lon="5.80662">
        <ele>608.6</ele>
        <time>2020-02-28T12:34:10Z</time>
      </trkpt>
      <trkpt lat="46.6569" lon="5.80674">
        <ele>608.6</ele>
        <time>2020-02-28T12:34:11Z</time>
      </trkpt>
      <trkpt lat="46.65691" lon="5.80686">
        <ele>608.2</ele>
        <time>2020-02-28T12:34:12Z</time>
      </trkpt>
      <trkpt lat="46.65692" lon="5.80698">
        <ele>607.8</ele>
        <time>2020-02-28T12:34:13Z</time>
      </trkpt>
      <trkpt lat="46.65693" lon="5.8071">
        <ele>607.6</ele>
        <time>2020-02-28T12:34:14Z</time>
      </trkpt>
      <trkpt lat="46.65692" lon="5.80723">
        <ele>607.4</ele>
        <time>2020-02-28T12:34:15Z</time>
      </trkpt>
      <trkpt lat="46.6569" lon="5.80735">
        <ele>607.2</ele>
        <time>2020-02-28T12:34:16Z</time>
      </trkpt>
      <trkpt lat="46.65688" lon="5.80747">
        <ele>606.8</ele>
        <time>2020-02-28T12:34:17Z</time>
      </trkpt>
      <trkpt lat="46.65685" lon="5.80758">
        <ele>606.6</ele>
        <time>2020-02-28T12:34:18Z</time>
      </trkpt>
      <trkpt lat="46.65682" lon="5.8077">
        <ele>606.2</ele>
        <time>2020-02-28T12:34:19Z</time>
      </trkpt>
      <trkpt lat="46.65678" lon="5.80781">
        <ele>606</ele>
        <time>2020-02-28T12:34:20Z</time>
      </trkpt>
      <trkpt lat="46.65675" lon="5.80792">
        <ele>605.6</ele>
        <time>2020-02-28T12:34:21Z</time>
      </trkpt>
      <trkpt lat="46.65671" lon="5.80803">
        <ele>605.6</ele>
        <time>2020-02-28T12:34:22Z</time>
      </trkpt>
      <trkpt lat="46.65668" lon="5.80814">
        <ele>605.4</ele>
        <time>2020-02-28T12:34:23Z</time>
      </trkpt>
      <trkpt lat="46.65664" lon="5.80826">
        <ele>605.4</ele>
        <time>2020-02-28T12:34:24Z</time>
      </trkpt>
      <trkpt lat="46.6566" lon="5.80837">
        <ele>605.2</ele>
        <time>2020-02-28T12:34:25Z</time>
      </trkpt>
      <trkpt lat="46.65656" lon="5.80848">
        <ele>605.2</ele>
        <time>2020-02-28T12:34:26Z</time>
      </trkpt>
      <trkpt lat="46.65652" lon="5.80859">
        <ele>604.6</ele>
        <time>2020-02-28T12:34:27Z</time>
      </trkpt>
      <trkpt lat="46.65648" lon="5.8087">
        <ele>604.4</ele>
        <time>2020-02-28T12:34:28Z</time>
      </trkpt>
      <trkpt lat="46.65644" lon="5.80881">
        <ele>604.4</ele>
        <time>2020-02-28T12:34:29Z</time>
      </trkpt>
      <trkpt lat="46.6564" lon="5.80892">
        <ele>604.2</ele>
        <time>2020-02-28T12:34:30Z</time>
      </trkpt>
      <trkpt lat="46.65637" lon="5.80903">
        <ele>604.2</ele>
        <time>2020-02-28T12:34:31Z</time>
      </trkpt>
      <trkpt lat="46.65633" lon="5.80914">
        <ele>603.8</ele>
        <time>2020-02-28T12:34:32Z</time>
      </trkpt>
      <trkpt lat="46.65629" lon="5.80925">
        <ele>603.8</ele>
        <time>2020-02-28T12:34:33Z</time>
      </trkpt>
      <trkpt lat="46.65625" lon="5.80936">
        <ele>603.4</ele>
        <time>2020-02-28T12:34:34Z</time>
      </trkpt>
      <trkpt lat="46.65621" lon="5.80947">
        <ele>603.4</ele>
        <time>2020-02-28T12:34:35Z</time>
      </trkpt>
      <trkpt lat="46.65618" lon="5.80958">
        <ele>603.2</ele>
        <time>2020-02-28T12:34:36Z</time>
      </trkpt>
      <trkpt lat="46.65614" lon="5.80969">
        <ele>603.2</ele>
        <time>2020-02-28T12:34:37Z</time>
      </trkpt>
      <trkpt lat="46.6561" lon="5.8098">
        <ele>602.8</ele>
        <time>2020-02-28T12:34:38Z</time>
      </trkpt>
      <trkpt lat="46.65606" lon="5.8099">
        <ele>602.8</ele>
        <time>2020-02-28T12:34:39Z</time>
      </trkpt>
      <trkpt lat="46.65602" lon="5.81001">
        <ele>602.6</ele>
        <time>2020-02-28T12:34:40Z</time>
      </trkpt>
      <trkpt lat="46.65599" lon="5.81011">
        <ele>602.6</ele>
        <time>2020-02-28T12:34:41Z</time>
      </trkpt>
      <trkpt lat="46.65595" lon="5.81022">
        <ele>602.4</ele>
        <time>2020-02-28T12:34:42Z</time>
      </trkpt>
      <trkpt lat="46.65592" lon="5.81032">
        <ele>602.4</ele>
        <time>2020-02-28T12:34:43Z</time>
      </trkpt>
      <trkpt lat="46.65588" lon="5.81042">
        <ele>602.4</ele>
        <time>2020-02-28T12:34:44Z</time>
      </trkpt>
      <trkpt lat="46.65585" lon="5.81051">
        <ele>602.4</ele>
        <time>2020-02-28T12:34:45Z</time>
      </trkpt>
      <trkpt lat="46.65581" lon="5.81061">
        <ele>602.4</ele>
        <time>2020-02-28T12:34:46Z</time>
      </trkpt>
      <trkpt lat="46.65578" lon="5.8107">
        <ele>602.4</ele>
        <time>2020-02-28T12:34:47Z</time>
      </trkpt>
      <trkpt lat="46.65575" lon="5.81079">
        <ele>602.6</ele>
        <time>2020-02-28T12:34:48Z</time>
      </trkpt>
      <trkpt lat="46.65572" lon="5.81088">
        <ele>602.6</ele>
        <time>2020-02-28T12:34:49Z</time>
      </trkpt>
      <trkpt lat="46.65569" lon="5.81097">
        <ele>602.6</ele>
        <time>2020-02-28T12:34:50Z</time>
      </trkpt>
      <trkpt lat="46.65565" lon="5.81105">
        <ele>602.8</ele>
        <time>2020-02-28T12:34:51Z</time>
      </trkpt>
      <trkpt lat="46.65563" lon="5.81113">
        <ele>602.8</ele>
        <time>2020-02-28T12:34:52Z</time>
      </trkpt>
      <trkpt lat="46.6556" lon="5.81121">
        <ele>602.8</ele>
        <time>2020-02-28T12:34:53Z</time>
      </trkpt>
      <trkpt lat="46.65557" lon="5.81129">
        <ele>602.8</ele>
        <time>2020-02-28T12:34:54Z</time>
      </trkpt>
      <trkpt lat="46.65554" lon="5.81137">
        <ele>602.8</ele>
        <time>2020-02-28T12:34:55Z</time>
      </trkpt>
      <trkpt lat="46.65552" lon="5.81144">
        <ele>603</ele>
        <time>2020-02-28T12:34:56Z</time>
      </trkpt>
      <trkpt lat="46.65549" lon="5.81152">
        <ele>603</ele>
        <time>2020-02-28T12:34:57Z</time>
      </trkpt>
      <trkpt lat="46.65546" lon="5.8116">
        <ele>603.4</ele>
        <time>2020-02-28T12:34:58Z</time>
      </trkpt>
      <trkpt lat="46.65544" lon="5.81167">
        <ele>603.4</ele>
        <time>2020-02-28T12:34:59Z</time>
      </trkpt>
      <trkpt lat="46.65541" lon="5.81175">
        <ele>603.6</ele>
        <time>2020-02-28T12:35:00Z</time>
      </trkpt>
      <trkpt lat="46.65538" lon="5.81183">
        <ele>603.6</ele>
        <time>2020-02-28T12:35:01Z</time>
      </trkpt>
      <trkpt lat="46.65536" lon="5.81191">
        <ele>603.8</ele>
        <time>2020-02-28T12:35:02Z</time>
      </trkpt>
      <trkpt lat="46.65533" lon="5.81198">
        <ele>604</ele>
        <time>2020-02-28T12:35:03Z</time>
      </trkpt>
      <trkpt lat="46.65531" lon="5.81206">
        <ele>604.2</ele>
        <time>2020-02-28T12:35:04Z</time>
      </trkpt>
      <trkpt lat="46.65529" lon="5.81213">
        <ele>604.6</ele>
        <time>2020-02-28T12:35:05Z</time>
      </trkpt>
      <trkpt lat="46.65527" lon="5.8122">
        <ele>604.6</ele>
        <time>2020-02-28T12:35:06Z</time>
      </trkpt>
      <trkpt lat="46.65525" lon="5.81227">
        <ele>604.8</ele>
        <time>2020-02-28T12:35:07Z</time>
      </trkpt>
      <trkpt lat="46.65524" lon="5.81234">
        <ele>604.8</ele>
        <time>2020-02-28T12:35:08Z</time>
      </trkpt>
      <trkpt lat="46.65522" lon="5.81241">
        <ele>605.2</ele>
        <time>2020-02-28T12:35:09Z</time>
      </trkpt>
      <trkpt lat="46.65521" lon="5.81247">
        <ele>605.2</ele>
        <time>2020-02-28T12:35:10Z</time>
      </trkpt>
      <trkpt lat="46.65519" lon="5.81253">
        <ele>605.4</ele>
        <time>2020-02-28T12:35:11Z</time>
      </trkpt>
      <trkpt lat="46.65518" lon="5.8126">
        <ele>605.4</ele>
        <time>2020-02-28T12:35:12Z</time>
      </trkpt>
      <trkpt lat="46.65517" lon="5.81266">
        <ele>605.4</ele>
        <time>2020-02-28T12:35:13Z</time>
      </trkpt>
      <trkpt lat="46.65515" lon="5.81272">
        <ele>605.6</ele>
        <time>2020-02-28T12:35:14Z</time>
      </trkpt>
      <trkpt lat="46.65514" lon="5.81278">
        <ele>605.6</ele>
        <time>2020-02-28T12:35:15Z</time>
      </trkpt>
      <trkpt lat="46.65513" lon="5.81284">
        <ele>605.8</ele>
        <time>2020-02-28T12:35:16Z</time>
      </trkpt>
      <trkpt lat="46.65511" lon="5.8129">
        <ele>605.8</ele>
        <time>2020-02-28T12:35:17Z</time>
      </trkpt>
      <trkpt lat="46.6551" lon="5.81296">
        <ele>606</ele>
        <time>2020-02-28T12:35:18Z</time>
      </trkpt>
      <trkpt lat="46.65509" lon="5.81303">
        <ele>606</ele>
        <time>2020-02-28T12:35:19Z</time>
      </trkpt>
      <trkpt lat="46.65508" lon="5.81309">
        <ele>606.2</ele>
        <time>2020-02-28T12:35:20Z</time>
      </trkpt>
      <trkpt lat="46.65506" lon="5.81315">
        <ele>606.2</ele>
        <time>2020-02-28T12:35:21Z</time>
      </trkpt>
      <trkpt lat="46.65505" lon="5.81321">
        <ele>606.6</ele>
        <time>2020-02-28T12:35:22Z</time>
      </trkpt>
      <trkpt lat="46.65504" lon="5.81327">
        <ele>606.6</ele>
        <time>2020-02-28T12:35:23Z</time>
      </trkpt>
      <trkpt lat="46.65502" lon="5.81333">
        <ele>606.6</ele>
        <time>2020-02-28T12:35:24Z</time>
      </trkpt>
      <trkpt lat="46.65501" lon="5.81339">
        <ele>606.8</ele>
        <time>2020-02-28T12:35:25Z</time>
      </trkpt>
      <trkpt lat="46.655" lon="5.81346">
        <ele>606.8</ele>
        <time>2020-02-28T12:35:26Z</time>
      </trkpt>
      <trkpt lat="46.65499" lon="5.81351">
        <ele>607</ele>
        <time>2020-02-28T12:35:27Z</time>
      </trkpt>
      <trkpt lat="46.65497" lon="5.81357">
        <ele>607</ele>
        <time>2020-02-28T12:35:28Z</time>
      </trkpt>
      <trkpt lat="46.65496" lon="5.81363">
        <ele>607</ele>
        <time>2020-02-28T12:35:29Z</time>
      </trkpt>
      <trkpt lat="46.65495" lon="5.81369">
        <ele>607.4</ele>
        <time>2020-02-28T12:35:30Z</time>
      </trkpt>
      <trkpt lat="46.65493" lon="5.81376">
        <ele>607.4</ele>
        <time>2020-02-28T12:35:31Z</time>
      </trkpt>
      <trkpt lat="46.65492" lon="5.81382">
        <ele>607.8</ele>
        <time>2020-02-28T12:35:32Z</time>
      </trkpt>
      <trkpt lat="46.65491" lon="5.81388">
        <ele>607.8</ele>
        <time>2020-02-28T12:35:33Z</time>
      </trkpt>
      <trkpt lat="46.6549" lon="5.81394">
        <ele>607.8</ele>
        <time>2020-02-28T12:35:34Z</time>
      </trkpt>
      <trkpt lat="46.65489" lon="5.81399">
        <ele>608</ele>
        <time>2020-02-28T12:35:35Z</time>
      </trkpt>
      <trkpt lat="46.65488" lon="5.81405">
        <ele>608</ele>
        <time>2020-02-28T12:35:36Z</time>
      </trkpt>
      <trkpt lat="46.65487" lon="5.81411">
        <ele>608.2</ele>
        <time>2020-02-28T12:35:37Z</time>
      </trkpt>
      <trkpt lat="46.65485" lon="5.81417">
        <ele>608.2</ele>
        <time>2020-02-28T12:35:38Z</time>
      </trkpt>
      <trkpt lat="46.65484" lon="5.81422">
        <ele>608.2</ele>
        <time>2020-02-28T12:35:39Z</time>
      </trkpt>
      <trkpt lat="46.65483" lon="5.81428">
        <ele>608.6</ele>
        <time>2020-02-28T12:35:40Z</time>
      </trkpt>
      <trkpt lat="46.65482" lon="5.81434">
        <ele>608.6</ele>
        <time>2020-02-28T12:35:41Z</time>
      </trkpt>
      <trkpt lat="46.65482" lon="5.81439">
        <ele>608.6</ele>
        <time>2020-02-28T12:35:42Z</time>
      </trkpt>
      <trkpt lat="46.65481" lon="5.81445">
        <ele>608.8</ele>
        <time>2020-02-28T12:35:43Z</time>
      </trkpt>
      <trkpt lat="46.6548" lon="5.8145">
        <ele>608.8</ele>
        <time>2020-02-28T12:35:44Z</time>
      </trkpt>
      <trkpt lat="46.65479" lon="5.81456">
        <ele>609</ele>
        <time>2020-02-28T12:35:45Z</time>
      </trkpt>
      <trkpt lat="46.65479" lon="5.81461">
        <ele>609</ele>
        <time>2020-02-28T12:35:46Z</time>
      </trkpt>
      <trkpt lat="46.65478" lon="5.81467">
        <ele>609.4</ele>
        <time>2020-02-28T12:35:47Z</time>
      </trkpt>
      <trkpt lat="46.65478" lon="5.81472">
        <ele>609.4</ele>
        <time>2020-02-28T12:35:48Z</time>
      </trkpt>
      <trkpt lat="46.65477" lon="5.81478">
        <ele>609.6</ele>
        <time>2020-02-28T12:35:49Z</time>
      </trkpt>
      <trkpt lat="46.65476" lon="5.81483">
        <ele>609.6</ele>
        <time>2020-02-28T12:35:50Z</time>
      </trkpt>
      <trkpt lat="46.65476" lon="5.81488">
        <ele>609.6</ele>
        <time>2020-02-28T12:35:51Z</time>
      </trkpt>
      <trkpt lat="46.65475" lon="5.81493">
        <ele>609.8</ele>
        <time>2020-02-28T12:35:52Z</time>
      </trkpt>
      <trkpt lat="46.65475" lon="5.81498">
        <ele>609.8</ele>
        <time>2020-02-28T12:35:53Z</time>
      </trkpt>
      <trkpt lat="46.65474" lon="5.81503">
        <ele>609.8</ele>
        <time>2020-02-28T12:35:54Z</time>
      </trkpt>
      <trkpt lat="46.65474" lon="5.81508">
        <ele>610</ele>
        <time>2020-02-28T12:35:55Z</time>
      </trkpt>
      <trkpt lat="46.65473" lon="5.81514">
        <ele>610</ele>
        <time>2020-02-28T12:35:56Z</time>
      </trkpt>
      <trkpt lat="46.65473" lon="5.81519">
        <ele>610.4</ele>
        <time>2020-02-28T12:35:57Z</time>
      </trkpt>
      <trkpt lat="46.65473" lon="5.81525">
        <ele>610.4</ele>
        <time>2020-02-28T12:35:58Z</time>
      </trkpt>
      <trkpt lat="46.65472" lon="5.8153">
        <ele>610.6</ele>
        <time>2020-02-28T12:35:59Z</time>
      </trkpt>
      <trkpt lat="46.65471" lon="5.81536">
        <ele>610.6</ele>
        <time>2020-02-28T12:36:00Z</time>
      </trkpt>
      <trkpt lat="46.65471" lon="5.81542">
        <ele>610.8</ele>
        <time>2020-02-28T12:36:01Z</time>
      </trkpt>
      <trkpt lat="46.6547" lon="5.81547">
        <ele>610.8</ele>
        <time>2020-02-28T12:36:02Z</time>
      </trkpt>
      <trkpt lat="46.6547" lon="5.81553">
        <ele>611</ele>
        <time>2020-02-28T12:36:03Z</time>
      </trkpt>
      <trkpt lat="46.65469" lon="5.81558">
        <ele>611</ele>
        <time>2020-02-28T12:36:04Z</time>
      </trkpt>
      <trkpt lat="46.65469" lon="5.81564">
        <ele>611.2</ele>
        <time>2020-02-28T12:36:05Z</time>
      </trkpt>
      <trkpt lat="46.65468" lon="5.81569">
        <ele>611.2</ele>
        <time>2020-02-28T12:36:06Z</time>
      </trkpt>
      <trkpt lat="46.65468" lon="5.81575">
        <ele>611.2</ele>
        <time>2020-02-28T12:36:07Z</time>
      </trkpt>
      <trkpt lat="46.65467" lon="5.8158">
        <ele>611.6</ele>
        <time>2020-02-28T12:36:08Z</time>
      </trkpt>
      <trkpt lat="46.65467" lon="5.81585">
        <ele>611.6</ele>
        <time>2020-02-28T12:36:09Z</time>
      </trkpt>
      <trkpt lat="46.65466" lon="5.8159">
        <ele>611.8</ele>
        <time>2020-02-28T12:36:10Z</time>
      </trkpt>
      <trkpt lat="46.65465" lon="5.81595">
        <ele>611.8</ele>
        <time>2020-02-28T12:36:11Z</time>
      </trkpt>
      <trkpt lat="46.65464" lon="5.816">
        <ele>612.2</ele>
        <time>2020-02-28T12:36:12Z</time>
      </trkpt>
      <trkpt lat="46.65463" lon="5.81605">
        <ele>612.2</ele>
        <time>2020-02-28T12:36:13Z</time>
      </trkpt>
      <trkpt lat="46.65463" lon="5.8161">
        <ele>612.2</ele>
        <time>2020-02-28T12:36:14Z</time>
      </trkpt>
      <trkpt lat="46.65462" lon="5.81615">
        <ele>612.4</ele>
        <time>2020-02-28T12:36:15Z</time>
      </trkpt>
      <trkpt lat="46.65461" lon="5.8162">
        <ele>612.4</ele>
        <time>2020-02-28T12:36:16Z</time>
      </trkpt>
      <trkpt lat="46.65459" lon="5.81625">
        <ele>612.6</ele>
        <time>2020-02-28T12:36:17Z</time>
      </trkpt>
      <trkpt lat="46.65458" lon="5.8163">
        <ele>612.6</ele>
        <time>2020-02-28T12:36:18Z</time>
      </trkpt>
      <trkpt lat="46.65457" lon="5.81635">
        <ele>612.6</ele>
        <time>2020-02-28T12:36:19Z</time>
      </trkpt>
      <trkpt lat="46.65456" lon="5.8164">
        <ele>612.6</ele>
        <time>2020-02-28T12:36:20Z</time>
      </trkpt>
      <trkpt lat="46.65455" lon="5.81645">
        <ele>613</ele>
        <time>2020-02-28T12:36:21Z</time>
      </trkpt>
      <trkpt lat="46.65454" lon="5.8165">
        <ele>613</ele>
        <time>2020-02-28T12:36:22Z</time>
      </trkpt>
      <trkpt lat="46.65453" lon="5.81655">
        <ele>613.2</ele>
        <time>2020-02-28T12:36:23Z</time>
      </trkpt>
      <trkpt lat="46.65452" lon="5.8166">
        <ele>613.2</ele>
        <time>2020-02-28T12:36:24Z</time>
      </trkpt>
      <trkpt lat="46.6545" lon="5.81665">
        <ele>613.2</ele>
        <time>2020-02-28T12:36:25Z</time>
      </trkpt>
      <trkpt lat="46.65449" lon="5.8167">
        <ele>613.2</ele>
        <time>2020-02-28T12:36:26Z</time>
      </trkpt>
      <trkpt lat="46.65448" lon="5.81674">
        <ele>613.4</ele>
        <time>2020-02-28T12:36:27Z</time>
      </trkpt>
      <trkpt lat="46.65447" lon="5.81679">
        <ele>613.4</ele>
        <time>2020-02-28T12:36:28Z</time>
      </trkpt>
      <trkpt lat="46.65445" lon="5.81684">
        <ele>613.4</ele>
        <time>2020-02-28T12:36:29Z</time>
      </trkpt>
      <trkpt lat="46.65444" lon="5.8169">
        <ele>613.4</ele>
        <time>2020-02-28T12:36:30Z</time>
      </trkpt>
      <trkpt lat="46.65443" lon="5.81695">
        <ele>613.8</ele>
        <time>2020-02-28T12:36:31Z</time>
      </trkpt>
      <trkpt lat="46.65442" lon="5.817">
        <ele>613.8</ele>
        <time>2020-02-28T12:36:32Z</time>
      </trkpt>
      <trkpt lat="46.6544" lon="5.81706">
        <ele>613.8</ele>
        <time>2020-02-28T12:36:33Z</time>
      </trkpt>
      <trkpt lat="46.65439" lon="5.81711">
        <ele>614</ele>
        <time>2020-02-28T12:36:34Z</time>
      </trkpt>
      <trkpt lat="46.65438" lon="5.81717">
        <ele>614</ele>
        <time>2020-02-28T12:36:35Z</time>
      </trkpt>
      <trkpt lat="46.65436" lon="5.81722">
        <ele>614</ele>
        <time>2020-02-28T12:36:36Z</time>
      </trkpt>
      <trkpt lat="46.65435" lon="5.81727">
        <ele>614.2</ele>
        <time>2020-02-28T12:36:37Z</time>
      </trkpt>
      <trkpt lat="46.65434" lon="5.81733">
        <ele>614.2</ele>
        <time>2020-02-28T12:36:38Z</time>
      </trkpt>
      <trkpt lat="46.65432" lon="5.81739">
        <ele>614.2</ele>
        <time>2020-02-28T12:36:39Z</time>
      </trkpt>
      <trkpt lat="46.6543" lon="5.81744">
        <ele>614.2</ele>
        <time>2020-02-28T12:36:40Z</time>
      </trkpt>
      <trkpt lat="46.65428" lon="5.8175">
        <ele>614.4</ele>
        <time>2020-02-28T12:36:41Z</time>
      </trkpt>
      <trkpt lat="46.65426" lon="5.81756">
        <ele>614.4</ele>
        <time>2020-02-28T12:36:42Z</time>
      </trkpt>
      <trkpt lat="46.65424" lon="5.81761">
        <ele>614.6</ele>
        <time>2020-02-28T12:36:43Z</time>
      </trkpt>
      <trkpt lat="46.65422" lon="5.81767">
        <ele>614.6</ele>
        <time>2020-02-28T12:36:44Z</time>
      </trkpt>
      <trkpt lat="46.6542" lon="5.81772">
        <ele>615</ele>
        <time>2020-02-28T12:36:45Z</time>
      </trkpt>
      <trkpt lat="46.65418" lon="5.81776">
        <ele>615</ele>
        <time>2020-02-28T12:36:46Z</time>
      </trkpt>
      <trkpt lat="46.65416" lon="5.81781">
        <ele>615</ele>
        <time>2020-02-28T12:36:47Z</time>
      </trkpt>
      <trkpt lat="46.65414" lon="5.81786">
        <ele>615.2</ele>
        <time>2020-02-28T12:36:48Z</time>
      </trkpt>
      <trkpt lat="46.65412" lon="5.8179">
        <ele>615.2</ele>
        <time>2020-02-28T12:36:49Z</time>
      </trkpt>
      <trkpt lat="46.6541" lon="5.81795">
        <ele>615.6</ele>
        <time>2020-02-28T12:36:50Z</time>
      </trkpt>
      <trkpt lat="46.65408" lon="5.818">
        <ele>615.6</ele>
        <time>2020-02-28T12:36:51Z</time>
      </trkpt>
      <trkpt lat="46.65406" lon="5.81805">
        <ele>615.6</ele>
        <time>2020-02-28T12:36:52Z</time>
      </trkpt>
      <trkpt lat="46.65404" lon="5.8181">
        <ele>615.8</ele>
        <time>2020-02-28T12:36:53Z</time>
      </trkpt>
      <trkpt lat="46.65402" lon="5.81815">
        <ele>615.8</ele>
        <time>2020-02-28T12:36:54Z</time>
      </trkpt>
      <trkpt lat="46.654" lon="5.8182">
        <ele>615.8</ele>
        <time>2020-02-28T12:36:55Z</time>
      </trkpt>
      <trkpt lat="46.65397" lon="5.81825">
        <ele>616</ele>
        <time>2020-02-28T12:36:56Z</time>
      </trkpt>
      <trkpt lat="46.65395" lon="5.8183">
        <ele>616</ele>
        <time>2020-02-28T12:36:57Z</time>
      </trkpt>
      <trkpt lat="46.65393" lon="5.81835">
        <ele>616</ele>
        <time>2020-02-28T12:36:58Z</time>
      </trkpt>
      <trkpt lat="46.6539" lon="5.8184">
        <ele>616.4</ele>
        <time>2020-02-28T12:36:59Z</time>
      </trkpt>
      <trkpt lat="46.65387" lon="5.81845">
        <ele>616.4</ele>
        <time>2020-02-28T12:37:00Z</time>
      </trkpt>
      <trkpt lat="46.65385" lon="5.81849">
        <ele>616.6</ele>
        <time>2020-02-28T12:37:01Z</time>
      </trkpt>
      <trkpt lat="46.65382" lon="5.81854">
        <ele>616.6</ele>
        <time>2020-02-28T12:37:02Z</time>
      </trkpt>
      <trkpt lat="46.6538" lon="5.81858">
        <ele>616.8</ele>
        <time>2020-02-28T12:37:03Z</time>
      </trkpt>
      <trkpt lat="46.65377" lon="5.81862">
        <ele>616.8</ele>
        <time>2020-02-28T12:37:04Z</time>
      </trkpt>
      <trkpt lat="46.65375" lon="5.81866">
        <ele>617</ele>
        <time>2020-02-28T12:37:05Z</time>
      </trkpt>
      <trkpt lat="46.65372" lon="5.8187">
        <ele>617</ele>
        <time>2020-02-28T12:37:06Z</time>
      </trkpt>
      <trkpt lat="46.6537" lon="5.81874">
        <ele>617.4</ele>
        <time>2020-02-28T12:37:07Z</time>
      </trkpt>
      <trkpt lat="46.65367" lon="5.81878">
        <ele>617.4</ele>
        <time>2020-02-28T12:37:08Z</time>
      </trkpt>
      <trkpt lat="46.65364" lon="5.81881">
        <ele>617.4</ele>
        <time>2020-02-28T12:37:09Z</time>
      </trkpt>
      <trkpt lat="46.65361" lon="5.81884">
        <ele>617.6</ele>
        <time>2020-02-28T12:37:10Z</time>
      </trkpt>
      <trkpt lat="46.65359" lon="5.81887">
        <ele>617.8</ele>
        <time>2020-02-28T12:37:11Z</time>
      </trkpt>
      <trkpt lat="46.65356" lon="5.81889">
        <ele>617.8</ele>
        <time>2020-02-28T12:37:12Z</time>
      </trkpt>
      <trkpt lat="46.65353" lon="5.81892">
        <ele>618</ele>
        <time>2020-02-28T12:37:13Z</time>
      </trkpt>
      <trkpt lat="46.65349" lon="5.81894">
        <ele>618</ele>
        <time>2020-02-28T12:37:14Z</time>
      </trkpt>
      <trkpt lat="46.65346" lon="5.81897">
        <ele>618.2</ele>
        <time>2020-02-28T12:37:15Z</time>
      </trkpt>
      <trkpt lat="46.65342" lon="5.81899">
        <ele>618.2</ele>
        <time>2020-02-28T12:37:16Z</time>
      </trkpt>
      <trkpt lat="46.65339" lon="5.81901">
        <ele>618.6</ele>
        <time>2020-02-28T12:37:17Z</time>
      </trkpt>
      <trkpt lat="46.65336" lon="5.81903">
        <ele>618.6</ele>
        <time>2020-02-28T12:37:18Z</time>
      </trkpt>
      <trkpt lat="46.65333" lon="5.81904">
        <ele>618.8</ele>
        <time>2020-02-28T12:37:19Z</time>
      </trkpt>
      <trkpt lat="46.6533" lon="5.81906">
        <ele>618.8</ele>
        <time>2020-02-28T12:37:20Z</time>
      </trkpt>
      <trkpt lat="46.65327" lon="5.81908">
        <ele>619.2</ele>
        <time>2020-02-28T12:37:21Z</time>
      </trkpt>
      <trkpt lat="46.65324" lon="5.8191">
        <ele>619.2</ele>
        <time>2020-02-28T12:37:22Z</time>
      </trkpt>
      <trkpt lat="46.65322" lon="5.81912">
        <ele>619.4</ele>
        <time>2020-02-28T12:37:23Z</time>
      </trkpt>
      <trkpt lat="46.65319" lon="5.81913">
        <ele>619.4</ele>
        <time>2020-02-28T12:37:24Z</time>
      </trkpt>
      <trkpt lat="46.65317" lon="5.81914">
        <ele>619.4</ele>
        <time>2020-02-28T12:37:25Z</time>
      </trkpt>
      <trkpt lat="46.65314" lon="5.81916">
        <ele>619.8</ele>
        <time>2020-02-28T12:37:26Z</time>
      </trkpt>
      <trkpt lat="46.65311" lon="5.81917">
        <ele>619.8</ele>
        <time>2020-02-28T12:37:27Z</time>
      </trkpt>
      <trkpt lat="46.65308" lon="5.81918">
        <ele>620</ele>
        <time>2020-02-28T12:37:28Z</time>
      </trkpt>
      <trkpt lat="46.65306" lon="5.81919">
        <ele>620</ele>
        <time>2020-02-28T12:37:29Z</time>
      </trkpt>
      <trkpt lat="46.65303" lon="5.81921">
        <ele>620.4</ele>
        <time>2020-02-28T12:37:30Z</time>
      </trkpt>
      <trkpt lat="46.65301" lon="5.81923">
        <ele>620.4</ele>
        <time>2020-02-28T12:37:31Z</time>
      </trkpt>
      <trkpt lat="46.65298" lon="5.81924">
        <ele>620.6</ele>
        <time>2020-02-28T12:37:32Z</time>
      </trkpt>
      <trkpt lat="46.65295" lon="5.81926">
        <ele>620.6</ele>
        <time>2020-02-28T12:37:33Z</time>
      </trkpt>
      <trkpt lat="46.65293" lon="5.81927">
        <ele>620.8</ele>
        <time>2020-02-28T12:37:34Z</time>
      </trkpt>
      <trkpt lat="46.6529" lon="5.81928">
        <ele>620.8</ele>
        <time>2020-02-28T12:37:35Z</time>
      </trkpt>
      <trkpt lat="46.65287" lon="5.81929">
        <ele>620.8</ele>
        <time>2020-02-28T12:37:36Z</time>
      </trkpt>
      <trkpt lat="46.65284" lon="5.8193">
        <ele>621.2</ele>
        <time>2020-02-28T12:37:37Z</time>
      </trkpt>
      <trkpt lat="46.65282" lon="5.81932">
        <ele>621.2</ele>
        <time>2020-02-28T12:37:38Z</time>
      </trkpt>
      <trkpt lat="46.65279" lon="5.81933">
        <ele>621.2</ele>
        <time>2020-02-28T12:37:39Z</time>
      </trkpt>
      <trkpt lat="46.65276" lon="5.81935">
        <ele>621.4</ele>
        <time>2020-02-28T12:37:40Z</time>
      </trkpt>
      <trkpt lat="46.65274" lon="5.81936">
        <ele>621.4</ele>
        <time>2020-02-28T12:37:41Z</time>
      </trkpt>
      <trkpt lat="46.65271" lon="5.81938">
        <ele>621.6</ele>
        <time>2020-02-28T12:37:42Z</time>
      </trkpt>
      <trkpt lat="46.65268" lon="5.8194">
        <ele>621.6</ele>
        <time>2020-02-28T12:37:43Z</time>
      </trkpt>
      <trkpt lat="46.65266" lon="5.81942">
        <ele>621.8</ele>
        <time>2020-02-28T12:37:44Z</time>
      </trkpt>
      <trkpt lat="46.65263" lon="5.81944">
        <ele>621.8</ele>
        <time>2020-02-28T12:37:45Z</time>
      </trkpt>
      <trkpt lat="46.65261" lon="5.81946">
        <ele>622</ele>
        <time>2020-02-28T12:37:46Z</time>
      </trkpt>
      <trkpt lat="46.65258" lon="5.81948">
        <ele>622</ele>
        <time>2020-02-28T12:37:47Z</time>
      </trkpt>
      <trkpt lat="46.65256" lon="5.81949">
        <ele>622.2</ele>
        <time>2020-02-28T12:37:48Z</time>
      </trkpt>
      <trkpt lat="46.65253" lon="5.81951">
        <ele>622.2</ele>
        <time>2020-02-28T12:37:49Z</time>
      </trkpt>
      <trkpt lat="46.65251" lon="5.81953">
        <ele>622.4</ele>
        <time>2020-02-28T12:37:50Z</time>
      </trkpt>
      <trkpt lat="46.65248" lon="5.81955">
        <ele>622.4</ele>
        <time>2020-02-28T12:37:51Z</time>
      </trkpt>
      <trkpt lat="46.65246" lon="5.81958">
        <ele>622.8</ele>
        <time>2020-02-28T12:37:52Z</time>
      </trkpt>
      <trkpt lat="46.65244" lon="5.81959">
        <ele>623</ele>
        <time>2020-02-28T12:37:53Z</time>
      </trkpt>
      <trkpt lat="46.65241" lon="5.8196">
        <ele>623</ele>
        <time>2020-02-28T12:37:54Z</time>
      </trkpt>
      <trkpt lat="46.65239" lon="5.81961">
        <ele>623.4</ele>
        <time>2020-02-28T12:37:55Z</time>
      </trkpt>
      <trkpt lat="46.65236" lon="5.81963">
        <ele>623.6</ele>
        <time>2020-02-28T12:37:56Z</time>
      </trkpt>
      <trkpt lat="46.65234" lon="5.81965">
        <ele>624</ele>
        <time>2020-02-28T12:37:57Z</time>
      </trkpt>
      <trkpt lat="46.65231" lon="5.81967">
        <ele>624.2</ele>
        <time>2020-02-28T12:37:58Z</time>
      </trkpt>
      <trkpt lat="46.65229" lon="5.81969">
        <ele>624.2</ele>
        <time>2020-02-28T12:37:59Z</time>
      </trkpt>
      <trkpt lat="46.65226" lon="5.81971">
        <ele>624.6</ele>
        <time>2020-02-28T12:38:00Z</time>
      </trkpt>
      <trkpt lat="46.65224" lon="5.81973">
        <ele>624.6</ele>
        <time>2020-02-28T12:38:01Z</time>
      </trkpt>
      <trkpt lat="46.65221" lon="5.81976">
        <ele>624.8</ele>
        <time>2020-02-28T12:38:02Z</time>
      </trkpt>
      <trkpt lat="46.65218" lon="5.81978">
        <ele>624.8</ele>
        <time>2020-02-28T12:38:03Z</time>
      </trkpt>
      <trkpt lat="46.65216" lon="5.8198">
        <ele>625.2</ele>
        <time>2020-02-28T12:38:04Z</time>
      </trkpt>
      <trkpt lat="46.65213" lon="5.81981">
        <ele>625.2</ele>
        <time>2020-02-28T12:38:05Z</time>
      </trkpt>
      <trkpt lat="46.65211" lon="5.81983">
        <ele>625.4</ele>
        <time>2020-02-28T12:38:06Z</time>
      </trkpt>
      <trkpt lat="46.65209" lon="5.81986">
        <ele>625.8</ele>
        <time>2020-02-28T12:38:07Z</time>
      </trkpt>
      <trkpt lat="46.65206" lon="5.81987">
        <ele>625.8</ele>
        <time>2020-02-28T12:38:08Z</time>
      </trkpt>
      <trkpt lat="46.65204" lon="5.81989">
        <ele>626</ele>
        <time>2020-02-28T12:38:09Z</time>
      </trkpt>
      <trkpt lat="46.65201" lon="5.81991">
        <ele>626</ele>
        <time>2020-02-28T12:38:10Z</time>
      </trkpt>
      <trkpt lat="46.65199" lon="5.81993">
        <ele>626.2</ele>
        <time>2020-02-28T12:38:11Z</time>
      </trkpt>
      <trkpt lat="46.65196" lon="5.81995">
        <ele>626.2</ele>
        <time>2020-02-28T12:38:12Z</time>
      </trkpt>
      <trkpt lat="46.65194" lon="5.81997">
        <ele>626.8</ele>
        <time>2020-02-28T12:38:13Z</time>
      </trkpt>
      <trkpt lat="46.65192" lon="5.81999">
        <ele>626.8</ele>
        <time>2020-02-28T12:38:14Z</time>
      </trkpt>
      <trkpt lat="46.6519" lon="5.82001">
        <ele>627</ele>
        <time>2020-02-28T12:38:15Z</time>
      </trkpt>
      <trkpt lat="46.65188" lon="5.82003">
        <ele>627</ele>
        <time>2020-02-28T12:38:16Z</time>
      </trkpt>
      <trkpt lat="46.65186" lon="5.82005">
        <ele>627</ele>
        <time>2020-02-28T12:38:17Z</time>
      </trkpt>
      <trkpt lat="46.65183" lon="5.82007">
        <ele>627.2</ele>
        <time>2020-02-28T12:38:18Z</time>
      </trkpt>
      <trkpt lat="46.65181" lon="5.82009">
        <ele>627.2</ele>
        <time>2020-02-28T12:38:19Z</time>
      </trkpt>
      <trkpt lat="46.65179" lon="5.82011">
        <ele>627.2</ele>
        <time>2020-02-28T12:38:20Z</time>
      </trkpt>
      <trkpt lat="46.65177" lon="5.82014">
        <ele>627.6</ele>
        <time>2020-02-28T12:38:21Z</time>
      </trkpt>
      <trkpt lat="46.65175" lon="5.82016">
        <ele>627.6</ele>
        <time>2020-02-28T12:38:22Z</time>
      </trkpt>
      <trkpt lat="46.65172" lon="5.82017">
        <ele>627.6</ele>
        <time>2020-02-28T12:38:23Z</time>
      </trkpt>
      <trkpt lat="46.65169" lon="5.82019">
        <ele>627.8</ele>
        <time>2020-02-28T12:38:24Z</time>
      </trkpt>
      <trkpt lat="46.65167" lon="5.82021">
        <ele>627.8</ele>
        <time>2020-02-28T12:38:25Z</time>
      </trkpt>
      <trkpt lat="46.65164" lon="5.82023">
        <ele>627.8</ele>
        <time>2020-02-28T12:38:26Z</time>
      </trkpt>
      <trkpt lat="46.65161" lon="5.82024">
        <ele>627.8</ele>
        <time>2020-02-28T12:38:27Z</time>
      </trkpt>
      <trkpt lat="46.65159" lon="5.82026">
        <ele>628</ele>
        <time>2020-02-28T12:38:28Z</time>
      </trkpt>
      <trkpt lat="46.65156" lon="5.82028">
        <ele>628</ele>
        <time>2020-02-28T12:38:29Z</time>
      </trkpt>
      <trkpt lat="46.65153" lon="5.8203">
        <ele>628</ele>
        <time>2020-02-28T12:38:30Z</time>
      </trkpt>
      <trkpt lat="46.6515" lon="5.82032">
        <ele>628</ele>
        <time>2020-02-28T12:38:31Z</time>
      </trkpt>
      <trkpt lat="46.65147" lon="5.82033">
        <ele>628</ele>
        <time>2020-02-28T12:38:32Z</time>
      </trkpt>
      <trkpt lat="46.65144" lon="5.82035">
        <ele>628.2</ele>
        <time>2020-02-28T12:38:33Z</time>
      </trkpt>
      <trkpt lat="46.65141" lon="5.82038">
        <ele>628.2</ele>
        <time>2020-02-28T12:38:34Z</time>
      </trkpt>
      <trkpt lat="46.65139" lon="5.8204">
        <ele>628.6</ele>
        <time>2020-02-28T12:38:35Z</time>
      </trkpt>
      <trkpt lat="46.65137" lon="5.82043">
        <ele>628.6</ele>
        <time>2020-02-28T12:38:36Z</time>
      </trkpt>
      <trkpt lat="46.65134" lon="5.82044">
        <ele>628.6</ele>
        <time>2020-02-28T12:38:37Z</time>
      </trkpt>
      <trkpt lat="46.65131" lon="5.82045">
        <ele>628.8</ele>
        <time>2020-02-28T12:38:38Z</time>
      </trkpt>
      <trkpt lat="46.65128" lon="5.82046">
        <ele>628.8</ele>
        <time>2020-02-28T12:38:39Z</time>
      </trkpt>
      <trkpt lat="46.65126" lon="5.82048">
        <ele>628.8</ele>
        <time>2020-02-28T12:38:40Z</time>
      </trkpt>
      <trkpt lat="46.65123" lon="5.8205">
        <ele>628.8</ele>
        <time>2020-02-28T12:38:41Z</time>
      </trkpt>
      <trkpt lat="46.6512" lon="5.82051">
        <ele>628.8</ele>
        <time>2020-02-28T12:38:42Z</time>
      </trkpt>
      <trkpt lat="46.65118" lon="5.82053">
        <ele>629</ele>
        <time>2020-02-28T12:38:43Z</time>
      </trkpt>
      <trkpt lat="46.65115" lon="5.82054">
        <ele>629</ele>
        <time>2020-02-28T12:38:44Z</time>
      </trkpt>
      <trkpt lat="46.65112" lon="5.82055">
        <ele>629</ele>
        <time>2020-02-28T12:38:45Z</time>
      </trkpt>
      <trkpt lat="46.6511" lon="5.82056">
        <ele>629.2</ele>
        <time>2020-02-28T12:38:46Z</time>
      </trkpt>
      <trkpt lat="46.65107" lon="5.82057">
        <ele>629.2</ele>
        <time>2020-02-28T12:38:47Z</time>
      </trkpt>
      <trkpt lat="46.65105" lon="5.82058">
        <ele>629.4</ele>
        <time>2020-02-28T12:38:48Z</time>
      </trkpt>
      <trkpt lat="46.65102" lon="5.82059">
        <ele>629.4</ele>
        <time>2020-02-28T12:38:49Z</time>
      </trkpt>
      <trkpt lat="46.651" lon="5.82059">
        <ele>629.8</ele>
        <time>2020-02-28T12:38:50Z</time>
      </trkpt>
      <trkpt lat="46.65098" lon="5.8206">
        <ele>629.8</ele>
        <time>2020-02-28T12:38:51Z</time>
      </trkpt>
      <trkpt lat="46.65095" lon="5.82061">
        <ele>630</ele>
        <time>2020-02-28T12:38:52Z</time>
      </trkpt>
      <trkpt lat="46.65093" lon="5.82061">
        <ele>630</ele>
        <time>2020-02-28T12:38:53Z</time>
      </trkpt>
      <trkpt lat="46.65091" lon="5.82062">
        <ele>630.4</ele>
        <time>2020-02-28T12:38:54Z</time>
      </trkpt>
      <trkpt lat="46.65089" lon="5.82063">
        <ele>630.4</ele>
        <time>2020-02-28T12:38:55Z</time>
      </trkpt>
      <trkpt lat="46.65087" lon="5.82064">
        <ele>630.6</ele>
        <time>2020-02-28T12:38:56Z</time>
      </trkpt>
      <trkpt lat="46.65085" lon="5.82065">
        <ele>630.6</ele>
        <time>2020-02-28T12:38:57Z</time>
      </trkpt>
      <trkpt lat="46.65084" lon="5.82066">
        <ele>631</ele>
        <time>2020-02-28T12:38:58Z</time>
      </trkpt>
      <trkpt lat="46.65082" lon="5.82067">
        <ele>631</ele>
        <time>2020-02-28T12:38:59Z</time>
      </trkpt>
      <trkpt lat="46.6508" lon="5.82069">
        <ele>631.2</ele>
        <time>2020-02-28T12:39:00Z</time>
      </trkpt>
      <trkpt lat="46.65078" lon="5.8207">
        <ele>631.2</ele>
        <time>2020-02-28T12:39:01Z</time>
      </trkpt>
      <trkpt lat="46.65076" lon="5.82072">
        <ele>631.6</ele>
        <time>2020-02-28T12:39:02Z</time>
      </trkpt>
      <trkpt lat="46.65074" lon="5.82073">
        <ele>631.6</ele>
        <time>2020-02-28T12:39:03Z</time>
      </trkpt>
      <trkpt lat="46.65072" lon="5.82075">
        <ele>632</ele>
        <time>2020-02-28T12:39:04Z</time>
      </trkpt>
      <trkpt lat="46.65071" lon="5.82077">
        <ele>632.4</ele>
        <time>2020-02-28T12:39:05Z</time>
      </trkpt>
      <trkpt lat="46.65069" lon="5.82079">
        <ele>632.6</ele>
        <time>2020-02-28T12:39:06Z</time>
      </trkpt>
      <trkpt lat="46.65068" lon="5.82081">
        <ele>632.8</ele>
        <time>2020-02-28T12:39:07Z</time>
      </trkpt>
      <trkpt lat="46.65066" lon="5.82082">
        <ele>632.8</ele>
        <time>2020-02-28T12:39:08Z</time>
      </trkpt>
      <trkpt lat="46.65064" lon="5.82084">
        <ele>633.2</ele>
        <time>2020-02-28T12:39:09Z</time>
      </trkpt>
      <trkpt lat="46.65063" lon="5.82085">
        <ele>633.4</ele>
        <time>2020-02-28T12:39:10Z</time>
      </trkpt>
      <trkpt lat="46.65061" lon="5.82088">
        <ele>633.4</ele>
        <time>2020-02-28T12:39:11Z</time>
      </trkpt>
      <trkpt lat="46.6506" lon="5.8209">
        <ele>633.8</ele>
        <time>2020-02-28T12:39:12Z</time>
      </trkpt>
      <trkpt lat="46.65058" lon="5.82092">
        <ele>633.8</ele>
        <time>2020-02-28T12:39:13Z</time>
      </trkpt>
      <trkpt lat="46.65056" lon="5.82093">
        <ele>634.2</ele>
        <time>2020-02-28T12:39:14Z</time>
      </trkpt>
      <trkpt lat="46.65055" lon="5.82096">
        <ele>634.2</ele>
        <time>2020-02-28T12:39:15Z</time>
      </trkpt>
      <trkpt lat="46.65054" lon="5.82098">
        <ele>634.4</ele>
        <time>2020-02-28T12:39:16Z</time>
      </trkpt>
      <trkpt lat="46.65052" lon="5.821">
        <ele>634.4</ele>
        <time>2020-02-28T12:39:17Z</time>
      </trkpt>
      <trkpt lat="46.65051" lon="5.82102">
        <ele>634.8</ele>
        <time>2020-02-28T12:39:18Z</time>
      </trkpt>
      <trkpt lat="46.65049" lon="5.82104">
        <ele>634.8</ele>
        <time>2020-02-28T12:39:19Z</time>
      </trkpt>
      <trkpt lat="46.65047" lon="5.82105">
        <ele>635</ele>
        <time>2020-02-28T12:39:20Z</time>
      </trkpt>
      <trkpt lat="46.65045" lon="5.82107">
        <ele>635</ele>
        <time>2020-02-28T12:39:21Z</time>
      </trkpt>
      <trkpt lat="46.65043" lon="5.82108">
        <ele>635.2</ele>
        <time>2020-02-28T12:39:22Z</time>
      </trkpt>
      <trkpt lat="46.65041" lon="5.8211">
        <ele>635.2</ele>
        <time>2020-02-28T12:39:23Z</time>
      </trkpt>
      <trkpt lat="46.6504" lon="5.82112">
        <ele>635.8</ele>
        <time>2020-02-28T12:39:24Z</time>
      </trkpt>
      <trkpt lat="46.65038" lon="5.82114">
        <ele>635.8</ele>
        <time>2020-02-28T12:39:25Z</time>
      </trkpt>
      <trkpt lat="46.65036" lon="5.82116">
        <ele>636</ele>
        <time>2020-02-28T12:39:26Z</time>
      </trkpt>
      <trkpt lat="46.65034" lon="5.82118">
        <ele>636.4</ele>
        <time>2020-02-28T12:39:27Z</time>
      </trkpt>
      <trkpt lat="46.65033" lon="5.82119">
        <ele>636.6</ele>
        <time>2020-02-28T12:39:28Z</time>
      </trkpt>
      <trkpt lat="46.65031" lon="5.82121">
        <ele>636.6</ele>
        <time>2020-02-28T12:39:29Z</time>
      </trkpt>
      <trkpt lat="46.65029" lon="5.82122">
        <ele>637</ele>
        <time>2020-02-28T12:39:30Z</time>
      </trkpt>
      <trkpt lat="46.65028" lon="5.82123">
        <ele>637</ele>
        <time>2020-02-28T12:39:31Z</time>
      </trkpt>
      <trkpt lat="46.65026" lon="5.82125">
        <ele>637</ele>
        <time>2020-02-28T12:39:32Z</time>
      </trkpt>
      <trkpt lat="46.65025" lon="5.82126">
        <ele>637.2</ele>
        <time>2020-02-28T12:39:33Z</time>
      </trkpt>
      <trkpt lat="46.65023" lon="5.82127">
        <ele>637.2</ele>
        <time>2020-02-28T12:39:34Z</time>
      </trkpt>
      <trkpt lat="46.65021" lon="5.82128">
        <ele>637.4</ele>
        <time>2020-02-28T12:39:35Z</time>
      </trkpt>
      <trkpt lat="46.65019" lon="5.82129">
        <ele>637.4</ele>
        <time>2020-02-28T12:39:36Z</time>
      </trkpt>
      <trkpt lat="46.65018" lon="5.82131">
        <ele>637.4</ele>
        <time>2020-02-28T12:39:37Z</time>
      </trkpt>
      <trkpt lat="46.65018" lon="5.82133">
        <ele>637.6</ele>
        <time>2020-02-28T12:39:38Z</time>
      </trkpt>
      <trkpt lat="46.65019" lon="5.82135">
        <ele>637.6</ele>
        <time>2020-02-28T12:39:39Z</time>
      </trkpt>
      <trkpt lat="46.65019" lon="5.82136">
        <ele>637.6</ele>
        <time>2020-02-28T12:39:40Z</time>
      </trkpt>
      <trkpt lat="46.6502" lon="5.82135">
        <ele>638</ele>
        <time>2020-02-28T12:39:41Z</time>
      </trkpt>
      <trkpt lat="46.65021" lon="5.82133">
        <ele>638</ele>
        <time>2020-02-28T12:39:42Z</time>
      </trkpt>
      <trkpt lat="46.65021" lon="5.82132">
        <ele>638</ele>
        <time>2020-02-28T12:39:43Z</time>
      </trkpt>
      <trkpt lat="46.65022" lon="5.82131">
        <ele>638</ele>
        <time>2020-02-28T12:39:44Z</time>
      </trkpt>
      <trkpt lat="46.65023" lon="5.8213">
        <ele>638</ele>
        <time>2020-02-28T12:39:45Z</time>
      </trkpt>
      <trkpt lat="46.65024" lon="5.8213">
        <ele>638</ele>
        <time>2020-02-28T12:39:46Z</time>
      </trkpt>
      <trkpt lat="46.65025" lon="5.82129">
        <ele>638</ele>
        <time>2020-02-28T12:39:47Z</time>
      </trkpt>
      <trkpt lat="46.6503" lon="5.82125">
        <ele>637.6</ele>
        <time>2020-02-28T12:41:00Z</time>
      </trkpt>
      <trkpt lat="46.65032" lon="5.82125">
        <ele>637.4</ele>
        <time>2020-02-28T12:41:01Z</time>
      </trkpt>
      <trkpt lat="46.65033" lon="5.82124">
        <ele>637.4</ele>
        <time>2020-02-28T12:41:02Z</time>
      </trkpt>
      <trkpt lat="46.65034" lon="5.82123">
        <ele>637.4</ele>
        <time>2020-02-28T12:41:03Z</time>
      </trkpt>
      <trkpt lat="46.65036" lon="5.82122">
        <ele>637</ele>
        <time>2020-02-28T12:41:04Z</time>
      </trkpt>
      <trkpt lat="46.65037" lon="5.82121">
        <ele>637</ele>
        <time>2020-02-28T12:41:05Z</time>
      </trkpt>
      <trkpt lat="46.65037" lon="5.8212">
        <ele>637</ele>
        <time>2020-02-28T12:41:06Z</time>
      </trkpt>
    </trkseg>
  </trk>
</gpx>